<?xml version="1.0" encoding="UTF-8" standalone="no" ?>
<gpx xmlns="http://www.topografix.com/GPX/1/1" xmlns:xsi="http://www.w3.org/2001/XMLSchema-instance" xsi:schemaLocation="http://www.topografix.com/GPX/1/1 http://www.topografix.com/GPX/1/1/gpx.xsd" version="1.1" creator="VisuGPX - https://www.visugpx.com">
  <metadata>
    <name>Itinérance VTT Jour5</name>
    <desc><![CDATA[Randonnée VTT itinérante en 6 jours]]></desc>
  </metadata>
  <trk>
    <name><![CDATA[VDMJ5, un peu de pluie]]></name>
    <trkseg>
      <trkpt lat="44.08384" lon="6.21642">
        <ele>580.4</ele>
        <time>2018-08-09T05:41:32Z</time>
      </trkpt>
      <trkpt lat="44.08381" lon="6.2164">
        <ele>580.1</ele>
        <time>2018-08-09T05:41:33Z</time>
      </trkpt>
      <trkpt lat="44.08378" lon="6.21639">
        <ele>580.1</ele>
        <time>2018-08-09T05:41:34Z</time>
      </trkpt>
      <trkpt lat="44.0838" lon="6.21636">
        <ele>580.1</ele>
        <time>2018-08-09T05:41:38Z</time>
      </trkpt>
      <trkpt lat="44.08383" lon="6.21635">
        <ele>580.1</ele>
        <time>2018-08-09T05:41:41Z</time>
      </trkpt>
      <trkpt lat="44.08387" lon="6.21634">
        <ele>580.1</ele>
        <time>2018-08-09T05:41:43Z</time>
      </trkpt>
      <trkpt lat="44.08389" lon="6.21637">
        <ele>580.1</ele>
        <time>2018-08-09T05:41:52Z</time>
      </trkpt>
      <trkpt lat="44.0839" lon="6.21641">
        <ele>580.1</ele>
        <time>2018-08-09T05:41:53Z</time>
      </trkpt>
      <trkpt lat="44.0839" lon="6.21646">
        <ele>580.2</ele>
        <time>2018-08-09T05:41:55Z</time>
      </trkpt>
      <trkpt lat="44.08388" lon="6.21652">
        <ele>580.3</ele>
        <time>2018-08-09T05:41:57Z</time>
      </trkpt>
      <trkpt lat="44.08388" lon="6.21656">
        <ele>580.4</ele>
        <time>2018-08-09T05:41:58Z</time>
      </trkpt>
      <trkpt lat="44.08387" lon="6.2166">
        <ele>580.4</ele>
        <time>2018-08-09T05:41:59Z</time>
      </trkpt>
      <trkpt lat="44.08386" lon="6.21664">
        <ele>580.5</ele>
        <time>2018-08-09T05:42:00Z</time>
      </trkpt>
      <trkpt lat="44.08386" lon="6.21671">
        <ele>580.6</ele>
        <time>2018-08-09T05:42:02Z</time>
      </trkpt>
      <trkpt lat="44.08386" lon="6.21678">
        <ele>580.7</ele>
        <time>2018-08-09T05:42:04Z</time>
      </trkpt>
      <trkpt lat="44.08386" lon="6.21683">
        <ele>580.7</ele>
        <time>2018-08-09T05:42:05Z</time>
      </trkpt>
      <trkpt lat="44.08385" lon="6.2169">
        <ele>580.8</ele>
        <time>2018-08-09T05:42:07Z</time>
      </trkpt>
      <trkpt lat="44.08384" lon="6.21695">
        <ele>580.9</ele>
        <time>2018-08-09T05:42:09Z</time>
      </trkpt>
      <trkpt lat="44.08383" lon="6.21699">
        <ele>580.9</ele>
        <time>2018-08-09T05:42:10Z</time>
      </trkpt>
      <trkpt lat="44.08382" lon="6.21702">
        <ele>581</ele>
        <time>2018-08-09T05:42:11Z</time>
      </trkpt>
      <trkpt lat="44.08379" lon="6.21708">
        <ele>581.4</ele>
        <time>2018-08-09T05:42:13Z</time>
      </trkpt>
      <trkpt lat="44.08375" lon="6.21713">
        <ele>581.6</ele>
        <time>2018-08-09T05:42:15Z</time>
      </trkpt>
      <trkpt lat="44.08373" lon="6.21715">
        <ele>581.5</ele>
        <time>2018-08-09T05:42:16Z</time>
      </trkpt>
      <trkpt lat="44.0837" lon="6.21718">
        <ele>581.5</ele>
        <time>2018-08-09T05:42:17Z</time>
      </trkpt>
      <trkpt lat="44.08368" lon="6.21721">
        <ele>581.4</ele>
        <time>2018-08-09T05:42:18Z</time>
      </trkpt>
      <trkpt lat="44.08366" lon="6.21724">
        <ele>581.3</ele>
        <time>2018-08-09T05:42:19Z</time>
      </trkpt>
      <trkpt lat="44.08364" lon="6.21727">
        <ele>581.3</ele>
        <time>2018-08-09T05:42:20Z</time>
      </trkpt>
      <trkpt lat="44.0836" lon="6.21733">
        <ele>581</ele>
        <time>2018-08-09T05:42:22Z</time>
      </trkpt>
      <trkpt lat="44.08358" lon="6.21736">
        <ele>581</ele>
        <time>2018-08-09T05:42:23Z</time>
      </trkpt>
      <trkpt lat="44.08355" lon="6.21739">
        <ele>581</ele>
        <time>2018-08-09T05:42:24Z</time>
      </trkpt>
      <trkpt lat="44.08352" lon="6.21741">
        <ele>580.8</ele>
        <time>2018-08-09T05:42:25Z</time>
      </trkpt>
      <trkpt lat="44.0835" lon="6.21743">
        <ele>580.5</ele>
        <time>2018-08-09T05:42:26Z</time>
      </trkpt>
      <trkpt lat="44.08347" lon="6.21746">
        <ele>580.3</ele>
        <time>2018-08-09T05:42:27Z</time>
      </trkpt>
      <trkpt lat="44.08345" lon="6.2175">
        <ele>580.1</ele>
        <time>2018-08-09T05:42:28Z</time>
      </trkpt>
      <trkpt lat="44.08343" lon="6.21753">
        <ele>579.8</ele>
        <time>2018-08-09T05:42:29Z</time>
      </trkpt>
      <trkpt lat="44.08343" lon="6.21757">
        <ele>579.6</ele>
        <time>2018-08-09T05:42:30Z</time>
      </trkpt>
      <trkpt lat="44.08344" lon="6.21762">
        <ele>579.8</ele>
        <time>2018-08-09T05:42:31Z</time>
      </trkpt>
      <trkpt lat="44.08345" lon="6.21766">
        <ele>579.9</ele>
        <time>2018-08-09T05:42:32Z</time>
      </trkpt>
      <trkpt lat="44.08346" lon="6.2177">
        <ele>580.1</ele>
        <time>2018-08-09T05:42:33Z</time>
      </trkpt>
      <trkpt lat="44.08346" lon="6.21776">
        <ele>580.2</ele>
        <time>2018-08-09T05:42:34Z</time>
      </trkpt>
      <trkpt lat="44.08343" lon="6.21778">
        <ele>580.1</ele>
        <time>2018-08-09T05:42:36Z</time>
      </trkpt>
      <trkpt lat="44.08339" lon="6.21772">
        <ele>579.8</ele>
        <time>2018-08-09T05:42:38Z</time>
      </trkpt>
      <trkpt lat="44.08335" lon="6.21765">
        <ele>579.5</ele>
        <time>2018-08-09T05:42:40Z</time>
      </trkpt>
      <trkpt lat="44.08334" lon="6.21761">
        <ele>579.4</ele>
        <time>2018-08-09T05:42:41Z</time>
      </trkpt>
      <trkpt lat="44.08331" lon="6.21759">
        <ele>579.3</ele>
        <time>2018-08-09T05:42:42Z</time>
      </trkpt>
      <trkpt lat="44.08329" lon="6.21755">
        <ele>579.1</ele>
        <time>2018-08-09T05:42:43Z</time>
      </trkpt>
      <trkpt lat="44.08326" lon="6.21754">
        <ele>579</ele>
        <time>2018-08-09T05:42:44Z</time>
      </trkpt>
      <trkpt lat="44.08323" lon="6.21753">
        <ele>579</ele>
        <time>2018-08-09T05:42:45Z</time>
      </trkpt>
      <trkpt lat="44.08319" lon="6.21753">
        <ele>579</ele>
        <time>2018-08-09T05:42:46Z</time>
      </trkpt>
      <trkpt lat="44.08315" lon="6.21753">
        <ele>579</ele>
        <time>2018-08-09T05:42:47Z</time>
      </trkpt>
      <trkpt lat="44.08312" lon="6.21753">
        <ele>579</ele>
        <time>2018-08-09T05:42:48Z</time>
      </trkpt>
      <trkpt lat="44.08307" lon="6.21756">
        <ele>579</ele>
        <time>2018-08-09T05:42:49Z</time>
      </trkpt>
      <trkpt lat="44.08303" lon="6.21758">
        <ele>579</ele>
        <time>2018-08-09T05:42:50Z</time>
      </trkpt>
      <trkpt lat="44.08299" lon="6.21759">
        <ele>579</ele>
        <time>2018-08-09T05:42:51Z</time>
      </trkpt>
      <trkpt lat="44.08294" lon="6.2176">
        <ele>579</ele>
        <time>2018-08-09T05:42:52Z</time>
      </trkpt>
      <trkpt lat="44.08289" lon="6.21763">
        <ele>579</ele>
        <time>2018-08-09T05:42:53Z</time>
      </trkpt>
      <trkpt lat="44.08284" lon="6.21767">
        <ele>579</ele>
        <time>2018-08-09T05:42:54Z</time>
      </trkpt>
      <trkpt lat="44.0828" lon="6.21769">
        <ele>579</ele>
        <time>2018-08-09T05:42:55Z</time>
      </trkpt>
      <trkpt lat="44.08276" lon="6.21773">
        <ele>579</ele>
        <time>2018-08-09T05:42:56Z</time>
      </trkpt>
      <trkpt lat="44.08274" lon="6.21783">
        <ele>579</ele>
        <time>2018-08-09T05:42:58Z</time>
      </trkpt>
      <trkpt lat="44.08273" lon="6.21788">
        <ele>579</ele>
        <time>2018-08-09T05:42:59Z</time>
      </trkpt>
      <trkpt lat="44.08271" lon="6.21794">
        <ele>579</ele>
        <time>2018-08-09T05:43:00Z</time>
      </trkpt>
      <trkpt lat="44.08268" lon="6.21799">
        <ele>579</ele>
        <time>2018-08-09T05:43:01Z</time>
      </trkpt>
      <trkpt lat="44.08266" lon="6.21802">
        <ele>579</ele>
        <time>2018-08-09T05:43:02Z</time>
      </trkpt>
      <trkpt lat="44.0826" lon="6.21803">
        <ele>579</ele>
        <time>2018-08-09T05:43:03Z</time>
      </trkpt>
      <trkpt lat="44.08256" lon="6.21805">
        <ele>578.9</ele>
        <time>2018-08-09T05:43:04Z</time>
      </trkpt>
      <trkpt lat="44.08258" lon="6.21809">
        <ele>578.8</ele>
        <time>2018-08-09T05:43:05Z</time>
      </trkpt>
      <trkpt lat="44.0826" lon="6.21813">
        <ele>578.8</ele>
        <time>2018-08-09T05:43:06Z</time>
      </trkpt>
      <trkpt lat="44.08261" lon="6.21817">
        <ele>578.7</ele>
        <time>2018-08-09T05:43:07Z</time>
      </trkpt>
      <trkpt lat="44.08262" lon="6.21821">
        <ele>578.6</ele>
        <time>2018-08-09T05:43:08Z</time>
      </trkpt>
      <trkpt lat="44.08264" lon="6.21826">
        <ele>578.6</ele>
        <time>2018-08-09T05:43:09Z</time>
      </trkpt>
      <trkpt lat="44.08266" lon="6.2183">
        <ele>578.5</ele>
        <time>2018-08-09T05:43:10Z</time>
      </trkpt>
      <trkpt lat="44.08267" lon="6.21835">
        <ele>578.5</ele>
        <time>2018-08-09T05:43:11Z</time>
      </trkpt>
      <trkpt lat="44.08269" lon="6.21839">
        <ele>578.4</ele>
        <time>2018-08-09T05:43:12Z</time>
      </trkpt>
      <trkpt lat="44.0827" lon="6.21844">
        <ele>578.4</ele>
        <time>2018-08-09T05:43:13Z</time>
      </trkpt>
      <trkpt lat="44.08272" lon="6.21849">
        <ele>578.3</ele>
        <time>2018-08-09T05:43:14Z</time>
      </trkpt>
      <trkpt lat="44.08274" lon="6.21853">
        <ele>578.3</ele>
        <time>2018-08-09T05:43:15Z</time>
      </trkpt>
      <trkpt lat="44.08276" lon="6.21858">
        <ele>578.3</ele>
        <time>2018-08-09T05:43:16Z</time>
      </trkpt>
      <trkpt lat="44.08277" lon="6.21862">
        <ele>578.3</ele>
        <time>2018-08-09T05:43:17Z</time>
      </trkpt>
      <trkpt lat="44.0828" lon="6.21867">
        <ele>578.2</ele>
        <time>2018-08-09T05:43:18Z</time>
      </trkpt>
      <trkpt lat="44.08281" lon="6.21872">
        <ele>578.2</ele>
        <time>2018-08-09T05:43:19Z</time>
      </trkpt>
      <trkpt lat="44.08283" lon="6.21876">
        <ele>578.2</ele>
        <time>2018-08-09T05:43:20Z</time>
      </trkpt>
      <trkpt lat="44.08285" lon="6.21881">
        <ele>578.1</ele>
        <time>2018-08-09T05:43:21Z</time>
      </trkpt>
      <trkpt lat="44.08288" lon="6.21886">
        <ele>578.1</ele>
        <time>2018-08-09T05:43:22Z</time>
      </trkpt>
      <trkpt lat="44.0829" lon="6.2189">
        <ele>578.1</ele>
        <time>2018-08-09T05:43:23Z</time>
      </trkpt>
      <trkpt lat="44.08293" lon="6.21895">
        <ele>578.1</ele>
        <time>2018-08-09T05:43:24Z</time>
      </trkpt>
      <trkpt lat="44.08295" lon="6.21899">
        <ele>578</ele>
        <time>2018-08-09T05:43:25Z</time>
      </trkpt>
      <trkpt lat="44.08297" lon="6.21903">
        <ele>578</ele>
        <time>2018-08-09T05:43:26Z</time>
      </trkpt>
      <trkpt lat="44.08299" lon="6.21907">
        <ele>578</ele>
        <time>2018-08-09T05:43:27Z</time>
      </trkpt>
      <trkpt lat="44.08301" lon="6.21912">
        <ele>578</ele>
        <time>2018-08-09T05:43:28Z</time>
      </trkpt>
      <trkpt lat="44.08302" lon="6.21917">
        <ele>578</ele>
        <time>2018-08-09T05:43:29Z</time>
      </trkpt>
      <trkpt lat="44.08304" lon="6.21921">
        <ele>578</ele>
        <time>2018-08-09T05:43:30Z</time>
      </trkpt>
      <trkpt lat="44.08306" lon="6.21927">
        <ele>578</ele>
        <time>2018-08-09T05:43:31Z</time>
      </trkpt>
      <trkpt lat="44.08307" lon="6.21931">
        <ele>577.9</ele>
        <time>2018-08-09T05:43:32Z</time>
      </trkpt>
      <trkpt lat="44.08309" lon="6.21936">
        <ele>577.9</ele>
        <time>2018-08-09T05:43:33Z</time>
      </trkpt>
      <trkpt lat="44.08311" lon="6.21941">
        <ele>577.9</ele>
        <time>2018-08-09T05:43:34Z</time>
      </trkpt>
      <trkpt lat="44.08313" lon="6.21946">
        <ele>577.9</ele>
        <time>2018-08-09T05:43:35Z</time>
      </trkpt>
      <trkpt lat="44.08316" lon="6.21951">
        <ele>577.9</ele>
        <time>2018-08-09T05:43:36Z</time>
      </trkpt>
      <trkpt lat="44.08318" lon="6.21956">
        <ele>577.9</ele>
        <time>2018-08-09T05:43:37Z</time>
      </trkpt>
      <trkpt lat="44.0832" lon="6.21962">
        <ele>577.9</ele>
        <time>2018-08-09T05:43:38Z</time>
      </trkpt>
      <trkpt lat="44.08322" lon="6.21966">
        <ele>577.9</ele>
        <time>2018-08-09T05:43:39Z</time>
      </trkpt>
      <trkpt lat="44.08323" lon="6.21971">
        <ele>577.9</ele>
        <time>2018-08-09T05:43:40Z</time>
      </trkpt>
      <trkpt lat="44.08325" lon="6.21975">
        <ele>577.9</ele>
        <time>2018-08-09T05:43:41Z</time>
      </trkpt>
      <trkpt lat="44.08328" lon="6.2198">
        <ele>577.9</ele>
        <time>2018-08-09T05:43:42Z</time>
      </trkpt>
      <trkpt lat="44.08329" lon="6.21985">
        <ele>577.9</ele>
        <time>2018-08-09T05:43:43Z</time>
      </trkpt>
      <trkpt lat="44.0833" lon="6.2199">
        <ele>577.9</ele>
        <time>2018-08-09T05:43:44Z</time>
      </trkpt>
      <trkpt lat="44.08331" lon="6.21995">
        <ele>577.9</ele>
        <time>2018-08-09T05:43:45Z</time>
      </trkpt>
      <trkpt lat="44.08332" lon="6.21999">
        <ele>577.9</ele>
        <time>2018-08-09T05:43:46Z</time>
      </trkpt>
      <trkpt lat="44.08333" lon="6.22004">
        <ele>577.9</ele>
        <time>2018-08-09T05:43:47Z</time>
      </trkpt>
      <trkpt lat="44.08336" lon="6.22009">
        <ele>577.9</ele>
        <time>2018-08-09T05:43:48Z</time>
      </trkpt>
      <trkpt lat="44.08338" lon="6.22013">
        <ele>577.9</ele>
        <time>2018-08-09T05:43:49Z</time>
      </trkpt>
      <trkpt lat="44.0834" lon="6.22018">
        <ele>577.9</ele>
        <time>2018-08-09T05:43:50Z</time>
      </trkpt>
      <trkpt lat="44.08342" lon="6.22022">
        <ele>577.9</ele>
        <time>2018-08-09T05:43:51Z</time>
      </trkpt>
      <trkpt lat="44.08345" lon="6.22027">
        <ele>577.9</ele>
        <time>2018-08-09T05:43:52Z</time>
      </trkpt>
      <trkpt lat="44.08346" lon="6.22032">
        <ele>577.9</ele>
        <time>2018-08-09T05:43:53Z</time>
      </trkpt>
      <trkpt lat="44.08348" lon="6.22036">
        <ele>577.9</ele>
        <time>2018-08-09T05:43:54Z</time>
      </trkpt>
      <trkpt lat="44.0835" lon="6.22041">
        <ele>577.9</ele>
        <time>2018-08-09T05:43:55Z</time>
      </trkpt>
      <trkpt lat="44.08352" lon="6.22045">
        <ele>577.9</ele>
        <time>2018-08-09T05:43:56Z</time>
      </trkpt>
      <trkpt lat="44.08355" lon="6.2205">
        <ele>577.9</ele>
        <time>2018-08-09T05:43:57Z</time>
      </trkpt>
      <trkpt lat="44.08357" lon="6.22055">
        <ele>577.9</ele>
        <time>2018-08-09T05:43:58Z</time>
      </trkpt>
      <trkpt lat="44.0836" lon="6.22059">
        <ele>577.9</ele>
        <time>2018-08-09T05:43:59Z</time>
      </trkpt>
      <trkpt lat="44.08362" lon="6.22063">
        <ele>577.9</ele>
        <time>2018-08-09T05:44:00Z</time>
      </trkpt>
      <trkpt lat="44.08364" lon="6.22068">
        <ele>578</ele>
        <time>2018-08-09T05:44:01Z</time>
      </trkpt>
      <trkpt lat="44.08367" lon="6.22072">
        <ele>578</ele>
        <time>2018-08-09T05:44:02Z</time>
      </trkpt>
      <trkpt lat="44.08369" lon="6.22077">
        <ele>578</ele>
        <time>2018-08-09T05:44:03Z</time>
      </trkpt>
      <trkpt lat="44.08371" lon="6.22081">
        <ele>578</ele>
        <time>2018-08-09T05:44:04Z</time>
      </trkpt>
      <trkpt lat="44.08373" lon="6.22087">
        <ele>578</ele>
        <time>2018-08-09T05:44:05Z</time>
      </trkpt>
      <trkpt lat="44.08375" lon="6.2209">
        <ele>578.1</ele>
        <time>2018-08-09T05:44:06Z</time>
      </trkpt>
      <trkpt lat="44.08378" lon="6.22095">
        <ele>578.1</ele>
        <time>2018-08-09T05:44:07Z</time>
      </trkpt>
      <trkpt lat="44.0838" lon="6.22099">
        <ele>578.2</ele>
        <time>2018-08-09T05:44:08Z</time>
      </trkpt>
      <trkpt lat="44.08383" lon="6.22104">
        <ele>578.3</ele>
        <time>2018-08-09T05:44:09Z</time>
      </trkpt>
      <trkpt lat="44.08385" lon="6.22109">
        <ele>578.4</ele>
        <time>2018-08-09T05:44:10Z</time>
      </trkpt>
      <trkpt lat="44.08388" lon="6.22113">
        <ele>578.5</ele>
        <time>2018-08-09T05:44:11Z</time>
      </trkpt>
      <trkpt lat="44.0839" lon="6.22118">
        <ele>578.6</ele>
        <time>2018-08-09T05:44:12Z</time>
      </trkpt>
      <trkpt lat="44.08393" lon="6.22123">
        <ele>578.7</ele>
        <time>2018-08-09T05:44:13Z</time>
      </trkpt>
      <trkpt lat="44.08395" lon="6.22128">
        <ele>578.8</ele>
        <time>2018-08-09T05:44:14Z</time>
      </trkpt>
      <trkpt lat="44.08397" lon="6.22132">
        <ele>578.9</ele>
        <time>2018-08-09T05:44:15Z</time>
      </trkpt>
      <trkpt lat="44.084" lon="6.22136">
        <ele>578.9</ele>
        <time>2018-08-09T05:44:16Z</time>
      </trkpt>
      <trkpt lat="44.08402" lon="6.2214">
        <ele>579</ele>
        <time>2018-08-09T05:44:17Z</time>
      </trkpt>
      <trkpt lat="44.08404" lon="6.22144">
        <ele>579</ele>
        <time>2018-08-09T05:44:18Z</time>
      </trkpt>
      <trkpt lat="44.08406" lon="6.22148">
        <ele>579</ele>
        <time>2018-08-09T05:44:19Z</time>
      </trkpt>
      <trkpt lat="44.08408" lon="6.22152">
        <ele>579.1</ele>
        <time>2018-08-09T05:44:20Z</time>
      </trkpt>
      <trkpt lat="44.0841" lon="6.22157">
        <ele>579.1</ele>
        <time>2018-08-09T05:44:21Z</time>
      </trkpt>
      <trkpt lat="44.08412" lon="6.22162">
        <ele>579.1</ele>
        <time>2018-08-09T05:44:22Z</time>
      </trkpt>
      <trkpt lat="44.08414" lon="6.22166">
        <ele>579.2</ele>
        <time>2018-08-09T05:44:23Z</time>
      </trkpt>
      <trkpt lat="44.08416" lon="6.2217">
        <ele>579.2</ele>
        <time>2018-08-09T05:44:24Z</time>
      </trkpt>
      <trkpt lat="44.08419" lon="6.22173">
        <ele>579.2</ele>
        <time>2018-08-09T05:44:25Z</time>
      </trkpt>
      <trkpt lat="44.08421" lon="6.22178">
        <ele>579.2</ele>
        <time>2018-08-09T05:44:26Z</time>
      </trkpt>
      <trkpt lat="44.08423" lon="6.22182">
        <ele>579.2</ele>
        <time>2018-08-09T05:44:27Z</time>
      </trkpt>
      <trkpt lat="44.08426" lon="6.22187">
        <ele>579.2</ele>
        <time>2018-08-09T05:44:28Z</time>
      </trkpt>
      <trkpt lat="44.08428" lon="6.22192">
        <ele>579.2</ele>
        <time>2018-08-09T05:44:29Z</time>
      </trkpt>
      <trkpt lat="44.08431" lon="6.22196">
        <ele>579.2</ele>
        <time>2018-08-09T05:44:30Z</time>
      </trkpt>
      <trkpt lat="44.08433" lon="6.22201">
        <ele>579.2</ele>
        <time>2018-08-09T05:44:31Z</time>
      </trkpt>
      <trkpt lat="44.08436" lon="6.22205">
        <ele>579.2</ele>
        <time>2018-08-09T05:44:32Z</time>
      </trkpt>
      <trkpt lat="44.08439" lon="6.2221">
        <ele>579.2</ele>
        <time>2018-08-09T05:44:33Z</time>
      </trkpt>
      <trkpt lat="44.08442" lon="6.22214">
        <ele>579.2</ele>
        <time>2018-08-09T05:44:34Z</time>
      </trkpt>
      <trkpt lat="44.08445" lon="6.22218">
        <ele>579.2</ele>
        <time>2018-08-09T05:44:35Z</time>
      </trkpt>
      <trkpt lat="44.08448" lon="6.22223">
        <ele>579.2</ele>
        <time>2018-08-09T05:44:36Z</time>
      </trkpt>
      <trkpt lat="44.0845" lon="6.22227">
        <ele>579.2</ele>
        <time>2018-08-09T05:44:37Z</time>
      </trkpt>
      <trkpt lat="44.08452" lon="6.22232">
        <ele>579.2</ele>
        <time>2018-08-09T05:44:38Z</time>
      </trkpt>
      <trkpt lat="44.08455" lon="6.22236">
        <ele>579.2</ele>
        <time>2018-08-09T05:44:39Z</time>
      </trkpt>
      <trkpt lat="44.08457" lon="6.22242">
        <ele>579.2</ele>
        <time>2018-08-09T05:44:40Z</time>
      </trkpt>
      <trkpt lat="44.08459" lon="6.22245">
        <ele>579.1</ele>
        <time>2018-08-09T05:44:41Z</time>
      </trkpt>
      <trkpt lat="44.08461" lon="6.2225">
        <ele>579.1</ele>
        <time>2018-08-09T05:44:42Z</time>
      </trkpt>
      <trkpt lat="44.08464" lon="6.22255">
        <ele>579.1</ele>
        <time>2018-08-09T05:44:43Z</time>
      </trkpt>
      <trkpt lat="44.08467" lon="6.22259">
        <ele>579.1</ele>
        <time>2018-08-09T05:44:44Z</time>
      </trkpt>
      <trkpt lat="44.08469" lon="6.22264">
        <ele>579.1</ele>
        <time>2018-08-09T05:44:45Z</time>
      </trkpt>
      <trkpt lat="44.08472" lon="6.22269">
        <ele>579.1</ele>
        <time>2018-08-09T05:44:46Z</time>
      </trkpt>
      <trkpt lat="44.08475" lon="6.22273">
        <ele>579.1</ele>
        <time>2018-08-09T05:44:47Z</time>
      </trkpt>
      <trkpt lat="44.08477" lon="6.22278">
        <ele>579.1</ele>
        <time>2018-08-09T05:44:48Z</time>
      </trkpt>
      <trkpt lat="44.0848" lon="6.22282">
        <ele>579.1</ele>
        <time>2018-08-09T05:44:49Z</time>
      </trkpt>
      <trkpt lat="44.08483" lon="6.22287">
        <ele>579.1</ele>
        <time>2018-08-09T05:44:50Z</time>
      </trkpt>
      <trkpt lat="44.08486" lon="6.22291">
        <ele>579.1</ele>
        <time>2018-08-09T05:44:51Z</time>
      </trkpt>
      <trkpt lat="44.08489" lon="6.22295">
        <ele>579.1</ele>
        <time>2018-08-09T05:44:52Z</time>
      </trkpt>
      <trkpt lat="44.08491" lon="6.22299">
        <ele>579.1</ele>
        <time>2018-08-09T05:44:53Z</time>
      </trkpt>
      <trkpt lat="44.08493" lon="6.22304">
        <ele>579.1</ele>
        <time>2018-08-09T05:44:54Z</time>
      </trkpt>
      <trkpt lat="44.08496" lon="6.22308">
        <ele>579.1</ele>
        <time>2018-08-09T05:44:55Z</time>
      </trkpt>
      <trkpt lat="44.08498" lon="6.22313">
        <ele>579.1</ele>
        <time>2018-08-09T05:44:56Z</time>
      </trkpt>
      <trkpt lat="44.085" lon="6.22318">
        <ele>579.1</ele>
        <time>2018-08-09T05:44:57Z</time>
      </trkpt>
      <trkpt lat="44.08502" lon="6.22323">
        <ele>579.1</ele>
        <time>2018-08-09T05:44:58Z</time>
      </trkpt>
      <trkpt lat="44.08505" lon="6.22328">
        <ele>579.1</ele>
        <time>2018-08-09T05:44:59Z</time>
      </trkpt>
      <trkpt lat="44.08507" lon="6.22332">
        <ele>579.1</ele>
        <time>2018-08-09T05:45:00Z</time>
      </trkpt>
      <trkpt lat="44.08509" lon="6.22337">
        <ele>579.1</ele>
        <time>2018-08-09T05:45:01Z</time>
      </trkpt>
      <trkpt lat="44.08511" lon="6.22342">
        <ele>579.1</ele>
        <time>2018-08-09T05:45:02Z</time>
      </trkpt>
      <trkpt lat="44.08514" lon="6.22346">
        <ele>579.1</ele>
        <time>2018-08-09T05:45:03Z</time>
      </trkpt>
      <trkpt lat="44.08516" lon="6.22351">
        <ele>579.1</ele>
        <time>2018-08-09T05:45:04Z</time>
      </trkpt>
      <trkpt lat="44.08519" lon="6.22356">
        <ele>579.2</ele>
        <time>2018-08-09T05:45:05Z</time>
      </trkpt>
      <trkpt lat="44.0852" lon="6.22361">
        <ele>579.2</ele>
        <time>2018-08-09T05:45:06Z</time>
      </trkpt>
      <trkpt lat="44.08523" lon="6.22366">
        <ele>579.2</ele>
        <time>2018-08-09T05:45:07Z</time>
      </trkpt>
      <trkpt lat="44.08524" lon="6.22371">
        <ele>579.2</ele>
        <time>2018-08-09T05:45:08Z</time>
      </trkpt>
      <trkpt lat="44.08526" lon="6.22375">
        <ele>579.2</ele>
        <time>2018-08-09T05:45:09Z</time>
      </trkpt>
      <trkpt lat="44.08529" lon="6.2238">
        <ele>579.2</ele>
        <time>2018-08-09T05:45:10Z</time>
      </trkpt>
      <trkpt lat="44.0853" lon="6.22385">
        <ele>579.2</ele>
        <time>2018-08-09T05:45:11Z</time>
      </trkpt>
      <trkpt lat="44.08532" lon="6.2239">
        <ele>579.3</ele>
        <time>2018-08-09T05:45:12Z</time>
      </trkpt>
      <trkpt lat="44.08535" lon="6.22394">
        <ele>579.3</ele>
        <time>2018-08-09T05:45:13Z</time>
      </trkpt>
      <trkpt lat="44.08537" lon="6.22399">
        <ele>579.4</ele>
        <time>2018-08-09T05:45:14Z</time>
      </trkpt>
      <trkpt lat="44.08539" lon="6.22404">
        <ele>579.4</ele>
        <time>2018-08-09T05:45:15Z</time>
      </trkpt>
      <trkpt lat="44.08541" lon="6.22409">
        <ele>579.6</ele>
        <time>2018-08-09T05:45:16Z</time>
      </trkpt>
      <trkpt lat="44.08543" lon="6.22413">
        <ele>579.7</ele>
        <time>2018-08-09T05:45:17Z</time>
      </trkpt>
      <trkpt lat="44.08546" lon="6.22417">
        <ele>579.8</ele>
        <time>2018-08-09T05:45:18Z</time>
      </trkpt>
      <trkpt lat="44.08549" lon="6.22422">
        <ele>580</ele>
        <time>2018-08-09T05:45:19Z</time>
      </trkpt>
      <trkpt lat="44.08551" lon="6.22427">
        <ele>580.1</ele>
        <time>2018-08-09T05:45:20Z</time>
      </trkpt>
      <trkpt lat="44.08554" lon="6.22431">
        <ele>580.2</ele>
        <time>2018-08-09T05:45:21Z</time>
      </trkpt>
      <trkpt lat="44.08555" lon="6.22436">
        <ele>580.2</ele>
        <time>2018-08-09T05:45:22Z</time>
      </trkpt>
      <trkpt lat="44.08558" lon="6.2244">
        <ele>580.2</ele>
        <time>2018-08-09T05:45:23Z</time>
      </trkpt>
      <trkpt lat="44.0856" lon="6.22444">
        <ele>580.3</ele>
        <time>2018-08-09T05:45:24Z</time>
      </trkpt>
      <trkpt lat="44.08563" lon="6.22449">
        <ele>580.3</ele>
        <time>2018-08-09T05:45:25Z</time>
      </trkpt>
      <trkpt lat="44.08565" lon="6.22452">
        <ele>580.3</ele>
        <time>2018-08-09T05:45:26Z</time>
      </trkpt>
      <trkpt lat="44.08568" lon="6.22456">
        <ele>580.4</ele>
        <time>2018-08-09T05:45:27Z</time>
      </trkpt>
      <trkpt lat="44.08571" lon="6.2246">
        <ele>580.4</ele>
        <time>2018-08-09T05:45:28Z</time>
      </trkpt>
      <trkpt lat="44.08574" lon="6.22464">
        <ele>580.5</ele>
        <time>2018-08-09T05:45:29Z</time>
      </trkpt>
      <trkpt lat="44.08577" lon="6.22468">
        <ele>580.5</ele>
        <time>2018-08-09T05:45:30Z</time>
      </trkpt>
      <trkpt lat="44.08579" lon="6.22472">
        <ele>580.5</ele>
        <time>2018-08-09T05:45:31Z</time>
      </trkpt>
      <trkpt lat="44.08582" lon="6.22476">
        <ele>580.5</ele>
        <time>2018-08-09T05:45:32Z</time>
      </trkpt>
      <trkpt lat="44.08586" lon="6.22479">
        <ele>580.5</ele>
        <time>2018-08-09T05:45:33Z</time>
      </trkpt>
      <trkpt lat="44.08588" lon="6.22483">
        <ele>580.6</ele>
        <time>2018-08-09T05:45:34Z</time>
      </trkpt>
      <trkpt lat="44.08591" lon="6.22487">
        <ele>580.6</ele>
        <time>2018-08-09T05:45:35Z</time>
      </trkpt>
      <trkpt lat="44.08594" lon="6.22491">
        <ele>580.6</ele>
        <time>2018-08-09T05:45:36Z</time>
      </trkpt>
      <trkpt lat="44.08598" lon="6.22495">
        <ele>580.6</ele>
        <time>2018-08-09T05:45:37Z</time>
      </trkpt>
      <trkpt lat="44.08601" lon="6.22498">
        <ele>580.6</ele>
        <time>2018-08-09T05:45:38Z</time>
      </trkpt>
      <trkpt lat="44.08604" lon="6.22502">
        <ele>580.7</ele>
        <time>2018-08-09T05:45:39Z</time>
      </trkpt>
      <trkpt lat="44.08608" lon="6.22505">
        <ele>580.7</ele>
        <time>2018-08-09T05:45:40Z</time>
      </trkpt>
      <trkpt lat="44.08611" lon="6.22509">
        <ele>580.7</ele>
        <time>2018-08-09T05:45:41Z</time>
      </trkpt>
      <trkpt lat="44.08614" lon="6.22513">
        <ele>580.7</ele>
        <time>2018-08-09T05:45:42Z</time>
      </trkpt>
      <trkpt lat="44.08617" lon="6.22517">
        <ele>580.7</ele>
        <time>2018-08-09T05:45:43Z</time>
      </trkpt>
      <trkpt lat="44.08621" lon="6.22521">
        <ele>580.7</ele>
        <time>2018-08-09T05:45:44Z</time>
      </trkpt>
      <trkpt lat="44.08624" lon="6.22524">
        <ele>580.8</ele>
        <time>2018-08-09T05:45:45Z</time>
      </trkpt>
      <trkpt lat="44.08628" lon="6.22527">
        <ele>580.8</ele>
        <time>2018-08-09T05:45:46Z</time>
      </trkpt>
      <trkpt lat="44.08631" lon="6.2253">
        <ele>580.8</ele>
        <time>2018-08-09T05:45:47Z</time>
      </trkpt>
      <trkpt lat="44.08634" lon="6.22532">
        <ele>580.9</ele>
        <time>2018-08-09T05:45:48Z</time>
      </trkpt>
      <trkpt lat="44.08637" lon="6.22535">
        <ele>580.9</ele>
        <time>2018-08-09T05:45:49Z</time>
      </trkpt>
      <trkpt lat="44.08641" lon="6.22538">
        <ele>580.9</ele>
        <time>2018-08-09T05:45:50Z</time>
      </trkpt>
      <trkpt lat="44.08644" lon="6.22541">
        <ele>581</ele>
        <time>2018-08-09T05:45:51Z</time>
      </trkpt>
      <trkpt lat="44.08647" lon="6.22544">
        <ele>581.1</ele>
        <time>2018-08-09T05:45:52Z</time>
      </trkpt>
      <trkpt lat="44.08651" lon="6.22547">
        <ele>581.2</ele>
        <time>2018-08-09T05:45:53Z</time>
      </trkpt>
      <trkpt lat="44.08657" lon="6.22553">
        <ele>581.4</ele>
        <time>2018-08-09T05:45:55Z</time>
      </trkpt>
      <trkpt lat="44.08662" lon="6.22557">
        <ele>581.6</ele>
        <time>2018-08-09T05:45:56Z</time>
      </trkpt>
      <trkpt lat="44.08665" lon="6.22561">
        <ele>581.8</ele>
        <time>2018-08-09T05:45:57Z</time>
      </trkpt>
      <trkpt lat="44.08669" lon="6.22563">
        <ele>581.9</ele>
        <time>2018-08-09T05:45:58Z</time>
      </trkpt>
      <trkpt lat="44.08672" lon="6.22567">
        <ele>582</ele>
        <time>2018-08-09T05:45:59Z</time>
      </trkpt>
      <trkpt lat="44.08675" lon="6.2257">
        <ele>582.1</ele>
        <time>2018-08-09T05:46:00Z</time>
      </trkpt>
      <trkpt lat="44.08679" lon="6.22572">
        <ele>582.2</ele>
        <time>2018-08-09T05:46:01Z</time>
      </trkpt>
      <trkpt lat="44.08682" lon="6.22576">
        <ele>582.2</ele>
        <time>2018-08-09T05:46:02Z</time>
      </trkpt>
      <trkpt lat="44.08686" lon="6.22579">
        <ele>582.3</ele>
        <time>2018-08-09T05:46:03Z</time>
      </trkpt>
      <trkpt lat="44.08689" lon="6.22582">
        <ele>582.4</ele>
        <time>2018-08-09T05:46:04Z</time>
      </trkpt>
      <trkpt lat="44.08693" lon="6.22584">
        <ele>582.4</ele>
        <time>2018-08-09T05:46:05Z</time>
      </trkpt>
      <trkpt lat="44.08696" lon="6.22587">
        <ele>582.5</ele>
        <time>2018-08-09T05:46:06Z</time>
      </trkpt>
      <trkpt lat="44.08699" lon="6.22589">
        <ele>582.5</ele>
        <time>2018-08-09T05:46:07Z</time>
      </trkpt>
      <trkpt lat="44.08703" lon="6.22591">
        <ele>582.6</ele>
        <time>2018-08-09T05:46:08Z</time>
      </trkpt>
      <trkpt lat="44.08707" lon="6.22593">
        <ele>582.6</ele>
        <time>2018-08-09T05:46:09Z</time>
      </trkpt>
      <trkpt lat="44.08711" lon="6.22595">
        <ele>582.6</ele>
        <time>2018-08-09T05:46:10Z</time>
      </trkpt>
      <trkpt lat="44.08714" lon="6.22598">
        <ele>582.7</ele>
        <time>2018-08-09T05:46:11Z</time>
      </trkpt>
      <trkpt lat="44.08718" lon="6.22601">
        <ele>582.7</ele>
        <time>2018-08-09T05:46:12Z</time>
      </trkpt>
      <trkpt lat="44.08722" lon="6.22603">
        <ele>582.8</ele>
        <time>2018-08-09T05:46:13Z</time>
      </trkpt>
      <trkpt lat="44.08726" lon="6.22607">
        <ele>582.8</ele>
        <time>2018-08-09T05:46:14Z</time>
      </trkpt>
      <trkpt lat="44.0873" lon="6.2261">
        <ele>582.9</ele>
        <time>2018-08-09T05:46:15Z</time>
      </trkpt>
      <trkpt lat="44.08733" lon="6.22612">
        <ele>583</ele>
        <time>2018-08-09T05:46:16Z</time>
      </trkpt>
      <trkpt lat="44.08737" lon="6.22615">
        <ele>583.1</ele>
        <time>2018-08-09T05:46:17Z</time>
      </trkpt>
      <trkpt lat="44.0874" lon="6.22618">
        <ele>583.3</ele>
        <time>2018-08-09T05:46:18Z</time>
      </trkpt>
      <trkpt lat="44.08744" lon="6.22621">
        <ele>583.4</ele>
        <time>2018-08-09T05:46:19Z</time>
      </trkpt>
      <trkpt lat="44.08747" lon="6.22624">
        <ele>583.6</ele>
        <time>2018-08-09T05:46:20Z</time>
      </trkpt>
      <trkpt lat="44.08751" lon="6.22627">
        <ele>583.8</ele>
        <time>2018-08-09T05:46:21Z</time>
      </trkpt>
      <trkpt lat="44.08754" lon="6.2263">
        <ele>583.9</ele>
        <time>2018-08-09T05:46:22Z</time>
      </trkpt>
      <trkpt lat="44.08757" lon="6.22633">
        <ele>584</ele>
        <time>2018-08-09T05:46:23Z</time>
      </trkpt>
      <trkpt lat="44.08761" lon="6.22636">
        <ele>584</ele>
        <time>2018-08-09T05:46:24Z</time>
      </trkpt>
      <trkpt lat="44.08765" lon="6.22638">
        <ele>584.1</ele>
        <time>2018-08-09T05:46:25Z</time>
      </trkpt>
      <trkpt lat="44.08768" lon="6.22642">
        <ele>584.1</ele>
        <time>2018-08-09T05:46:26Z</time>
      </trkpt>
      <trkpt lat="44.08772" lon="6.22645">
        <ele>584.2</ele>
        <time>2018-08-09T05:46:27Z</time>
      </trkpt>
      <trkpt lat="44.08776" lon="6.22648">
        <ele>584.3</ele>
        <time>2018-08-09T05:46:28Z</time>
      </trkpt>
      <trkpt lat="44.08779" lon="6.2265">
        <ele>584.3</ele>
        <time>2018-08-09T05:46:29Z</time>
      </trkpt>
      <trkpt lat="44.08783" lon="6.22654">
        <ele>584.4</ele>
        <time>2018-08-09T05:46:30Z</time>
      </trkpt>
      <trkpt lat="44.08787" lon="6.22657">
        <ele>584.4</ele>
        <time>2018-08-09T05:46:31Z</time>
      </trkpt>
      <trkpt lat="44.08791" lon="6.22661">
        <ele>584.5</ele>
        <time>2018-08-09T05:46:32Z</time>
      </trkpt>
      <trkpt lat="44.08794" lon="6.22664">
        <ele>584.5</ele>
        <time>2018-08-09T05:46:33Z</time>
      </trkpt>
      <trkpt lat="44.08797" lon="6.22668">
        <ele>584.6</ele>
        <time>2018-08-09T05:46:34Z</time>
      </trkpt>
      <trkpt lat="44.08801" lon="6.22671">
        <ele>584.6</ele>
        <time>2018-08-09T05:46:35Z</time>
      </trkpt>
      <trkpt lat="44.08805" lon="6.22675">
        <ele>584.7</ele>
        <time>2018-08-09T05:46:36Z</time>
      </trkpt>
      <trkpt lat="44.08809" lon="6.22678">
        <ele>584.8</ele>
        <time>2018-08-09T05:46:37Z</time>
      </trkpt>
      <trkpt lat="44.08813" lon="6.22682">
        <ele>585</ele>
        <time>2018-08-09T05:46:38Z</time>
      </trkpt>
      <trkpt lat="44.08817" lon="6.22684">
        <ele>585.4</ele>
        <time>2018-08-09T05:46:39Z</time>
      </trkpt>
      <trkpt lat="44.0882" lon="6.22688">
        <ele>585.9</ele>
        <time>2018-08-09T05:46:40Z</time>
      </trkpt>
      <trkpt lat="44.08823" lon="6.22692">
        <ele>586.2</ele>
        <time>2018-08-09T05:46:41Z</time>
      </trkpt>
      <trkpt lat="44.08826" lon="6.22695">
        <ele>586.5</ele>
        <time>2018-08-09T05:46:42Z</time>
      </trkpt>
      <trkpt lat="44.08829" lon="6.22698">
        <ele>586.7</ele>
        <time>2018-08-09T05:46:43Z</time>
      </trkpt>
      <trkpt lat="44.08833" lon="6.227">
        <ele>586.8</ele>
        <time>2018-08-09T05:46:44Z</time>
      </trkpt>
      <trkpt lat="44.08836" lon="6.22703">
        <ele>587</ele>
        <time>2018-08-09T05:46:45Z</time>
      </trkpt>
      <trkpt lat="44.08839" lon="6.22706">
        <ele>587.2</ele>
        <time>2018-08-09T05:46:46Z</time>
      </trkpt>
      <trkpt lat="44.08843" lon="6.22709">
        <ele>587.4</ele>
        <time>2018-08-09T05:46:47Z</time>
      </trkpt>
      <trkpt lat="44.08846" lon="6.22712">
        <ele>587.5</ele>
        <time>2018-08-09T05:46:48Z</time>
      </trkpt>
      <trkpt lat="44.08849" lon="6.22714">
        <ele>587.6</ele>
        <time>2018-08-09T05:46:49Z</time>
      </trkpt>
      <trkpt lat="44.08852" lon="6.22717">
        <ele>587.7</ele>
        <time>2018-08-09T05:46:50Z</time>
      </trkpt>
      <trkpt lat="44.08855" lon="6.22719">
        <ele>587.8</ele>
        <time>2018-08-09T05:46:51Z</time>
      </trkpt>
      <trkpt lat="44.08858" lon="6.22721">
        <ele>588</ele>
        <time>2018-08-09T05:46:52Z</time>
      </trkpt>
      <trkpt lat="44.08861" lon="6.22724">
        <ele>588.1</ele>
        <time>2018-08-09T05:46:53Z</time>
      </trkpt>
      <trkpt lat="44.08864" lon="6.22726">
        <ele>588.2</ele>
        <time>2018-08-09T05:46:54Z</time>
      </trkpt>
      <trkpt lat="44.08868" lon="6.22729">
        <ele>588.3</ele>
        <time>2018-08-09T05:46:55Z</time>
      </trkpt>
      <trkpt lat="44.08872" lon="6.22732">
        <ele>588.4</ele>
        <time>2018-08-09T05:46:56Z</time>
      </trkpt>
      <trkpt lat="44.08875" lon="6.22734">
        <ele>588.5</ele>
        <time>2018-08-09T05:46:57Z</time>
      </trkpt>
      <trkpt lat="44.08878" lon="6.22737">
        <ele>588.6</ele>
        <time>2018-08-09T05:46:58Z</time>
      </trkpt>
      <trkpt lat="44.08881" lon="6.2274">
        <ele>588.9</ele>
        <time>2018-08-09T05:46:59Z</time>
      </trkpt>
      <trkpt lat="44.08884" lon="6.22742">
        <ele>589.1</ele>
        <time>2018-08-09T05:47:00Z</time>
      </trkpt>
      <trkpt lat="44.08887" lon="6.22745">
        <ele>589.4</ele>
        <time>2018-08-09T05:47:01Z</time>
      </trkpt>
      <trkpt lat="44.08891" lon="6.22748">
        <ele>589.7</ele>
        <time>2018-08-09T05:47:02Z</time>
      </trkpt>
      <trkpt lat="44.08894" lon="6.22751">
        <ele>590</ele>
        <time>2018-08-09T05:47:03Z</time>
      </trkpt>
      <trkpt lat="44.08897" lon="6.22754">
        <ele>590.3</ele>
        <time>2018-08-09T05:47:04Z</time>
      </trkpt>
      <trkpt lat="44.089" lon="6.22756">
        <ele>590.6</ele>
        <time>2018-08-09T05:47:05Z</time>
      </trkpt>
      <trkpt lat="44.08904" lon="6.22759">
        <ele>590.9</ele>
        <time>2018-08-09T05:47:06Z</time>
      </trkpt>
      <trkpt lat="44.08907" lon="6.22761">
        <ele>591.3</ele>
        <time>2018-08-09T05:47:07Z</time>
      </trkpt>
      <trkpt lat="44.0891" lon="6.22764">
        <ele>591.4</ele>
        <time>2018-08-09T05:47:08Z</time>
      </trkpt>
      <trkpt lat="44.08913" lon="6.22767">
        <ele>591.6</ele>
        <time>2018-08-09T05:47:09Z</time>
      </trkpt>
      <trkpt lat="44.08916" lon="6.2277">
        <ele>591.7</ele>
        <time>2018-08-09T05:47:10Z</time>
      </trkpt>
      <trkpt lat="44.08918" lon="6.22774">
        <ele>591.9</ele>
        <time>2018-08-09T05:47:11Z</time>
      </trkpt>
      <trkpt lat="44.08922" lon="6.22776">
        <ele>592.1</ele>
        <time>2018-08-09T05:47:12Z</time>
      </trkpt>
      <trkpt lat="44.08925" lon="6.22778">
        <ele>592.2</ele>
        <time>2018-08-09T05:47:13Z</time>
      </trkpt>
      <trkpt lat="44.08929" lon="6.22781">
        <ele>592.4</ele>
        <time>2018-08-09T05:47:14Z</time>
      </trkpt>
      <trkpt lat="44.08932" lon="6.22783">
        <ele>593</ele>
        <time>2018-08-09T05:47:15Z</time>
      </trkpt>
      <trkpt lat="44.08935" lon="6.22786">
        <ele>593</ele>
        <time>2018-08-09T05:47:16Z</time>
      </trkpt>
      <trkpt lat="44.08938" lon="6.22788">
        <ele>593</ele>
        <time>2018-08-09T05:47:17Z</time>
      </trkpt>
      <trkpt lat="44.0894" lon="6.22792">
        <ele>593</ele>
        <time>2018-08-09T05:47:18Z</time>
      </trkpt>
      <trkpt lat="44.08942" lon="6.22797">
        <ele>593</ele>
        <time>2018-08-09T05:47:19Z</time>
      </trkpt>
      <trkpt lat="44.08943" lon="6.22802">
        <ele>593</ele>
        <time>2018-08-09T05:47:20Z</time>
      </trkpt>
      <trkpt lat="44.08944" lon="6.22807">
        <ele>593</ele>
        <time>2018-08-09T05:47:21Z</time>
      </trkpt>
      <trkpt lat="44.08946" lon="6.22812">
        <ele>593</ele>
        <time>2018-08-09T05:47:22Z</time>
      </trkpt>
      <trkpt lat="44.08946" lon="6.22817">
        <ele>593</ele>
        <time>2018-08-09T05:47:23Z</time>
      </trkpt>
      <trkpt lat="44.08946" lon="6.22822">
        <ele>593</ele>
        <time>2018-08-09T05:47:24Z</time>
      </trkpt>
      <trkpt lat="44.08946" lon="6.22826">
        <ele>593</ele>
        <time>2018-08-09T05:47:25Z</time>
      </trkpt>
      <trkpt lat="44.08946" lon="6.22832">
        <ele>592.9</ele>
        <time>2018-08-09T05:47:26Z</time>
      </trkpt>
      <trkpt lat="44.08945" lon="6.22837">
        <ele>592.8</ele>
        <time>2018-08-09T05:47:27Z</time>
      </trkpt>
      <trkpt lat="44.08945" lon="6.22843">
        <ele>592.8</ele>
        <time>2018-08-09T05:47:28Z</time>
      </trkpt>
      <trkpt lat="44.08944" lon="6.22848">
        <ele>592.7</ele>
        <time>2018-08-09T05:47:29Z</time>
      </trkpt>
      <trkpt lat="44.08943" lon="6.22853">
        <ele>592.6</ele>
        <time>2018-08-09T05:47:30Z</time>
      </trkpt>
      <trkpt lat="44.08943" lon="6.22858">
        <ele>592.5</ele>
        <time>2018-08-09T05:47:31Z</time>
      </trkpt>
      <trkpt lat="44.08942" lon="6.22863">
        <ele>592.3</ele>
        <time>2018-08-09T05:47:32Z</time>
      </trkpt>
      <trkpt lat="44.08941" lon="6.22868">
        <ele>592.2</ele>
        <time>2018-08-09T05:47:33Z</time>
      </trkpt>
      <trkpt lat="44.08941" lon="6.22873">
        <ele>591.9</ele>
        <time>2018-08-09T05:47:34Z</time>
      </trkpt>
      <trkpt lat="44.08941" lon="6.22878">
        <ele>591.8</ele>
        <time>2018-08-09T05:47:35Z</time>
      </trkpt>
      <trkpt lat="44.08941" lon="6.22884">
        <ele>591.6</ele>
        <time>2018-08-09T05:47:36Z</time>
      </trkpt>
      <trkpt lat="44.0894" lon="6.22889">
        <ele>591.5</ele>
        <time>2018-08-09T05:47:37Z</time>
      </trkpt>
      <trkpt lat="44.08939" lon="6.22895">
        <ele>591.3</ele>
        <time>2018-08-09T05:47:38Z</time>
      </trkpt>
      <trkpt lat="44.08939" lon="6.22901">
        <ele>591.2</ele>
        <time>2018-08-09T05:47:39Z</time>
      </trkpt>
      <trkpt lat="44.08938" lon="6.22906">
        <ele>591</ele>
        <time>2018-08-09T05:47:40Z</time>
      </trkpt>
      <trkpt lat="44.08937" lon="6.22911">
        <ele>590.8</ele>
        <time>2018-08-09T05:47:41Z</time>
      </trkpt>
      <trkpt lat="44.08937" lon="6.22916">
        <ele>590.5</ele>
        <time>2018-08-09T05:47:42Z</time>
      </trkpt>
      <trkpt lat="44.08937" lon="6.22921">
        <ele>590.3</ele>
        <time>2018-08-09T05:47:43Z</time>
      </trkpt>
      <trkpt lat="44.08936" lon="6.22926">
        <ele>590.1</ele>
        <time>2018-08-09T05:47:44Z</time>
      </trkpt>
      <trkpt lat="44.08936" lon="6.22931">
        <ele>590</ele>
        <time>2018-08-09T05:47:45Z</time>
      </trkpt>
      <trkpt lat="44.08935" lon="6.22937">
        <ele>589.8</ele>
        <time>2018-08-09T05:47:46Z</time>
      </trkpt>
      <trkpt lat="44.08935" lon="6.22942">
        <ele>589.6</ele>
        <time>2018-08-09T05:47:47Z</time>
      </trkpt>
      <trkpt lat="44.08934" lon="6.22947">
        <ele>589.4</ele>
        <time>2018-08-09T05:47:48Z</time>
      </trkpt>
      <trkpt lat="44.08933" lon="6.22953">
        <ele>589.2</ele>
        <time>2018-08-09T05:47:49Z</time>
      </trkpt>
      <trkpt lat="44.08933" lon="6.22957">
        <ele>589.1</ele>
        <time>2018-08-09T05:47:50Z</time>
      </trkpt>
      <trkpt lat="44.08931" lon="6.22961">
        <ele>589</ele>
        <time>2018-08-09T05:47:52Z</time>
      </trkpt>
      <trkpt lat="44.08933" lon="6.22965">
        <ele>589</ele>
        <time>2018-08-09T05:47:55Z</time>
      </trkpt>
      <trkpt lat="44.08936" lon="6.2297">
        <ele>589.2</ele>
        <time>2018-08-09T05:47:57Z</time>
      </trkpt>
      <trkpt lat="44.08938" lon="6.22977">
        <ele>589.5</ele>
        <time>2018-08-09T05:47:59Z</time>
      </trkpt>
      <trkpt lat="44.08938" lon="6.22981">
        <ele>589.7</ele>
        <time>2018-08-09T05:48:00Z</time>
      </trkpt>
      <trkpt lat="44.08939" lon="6.22986">
        <ele>589.9</ele>
        <time>2018-08-09T05:48:01Z</time>
      </trkpt>
      <trkpt lat="44.0894" lon="6.2299">
        <ele>590.1</ele>
        <time>2018-08-09T05:48:02Z</time>
      </trkpt>
      <trkpt lat="44.08942" lon="6.22995">
        <ele>590.3</ele>
        <time>2018-08-09T05:48:03Z</time>
      </trkpt>
      <trkpt lat="44.08943" lon="6.23">
        <ele>590.5</ele>
        <time>2018-08-09T05:48:04Z</time>
      </trkpt>
      <trkpt lat="44.08945" lon="6.23004">
        <ele>590.7</ele>
        <time>2018-08-09T05:48:05Z</time>
      </trkpt>
      <trkpt lat="44.08948" lon="6.23008">
        <ele>591.3</ele>
        <time>2018-08-09T05:48:06Z</time>
      </trkpt>
      <trkpt lat="44.0895" lon="6.23012">
        <ele>591.8</ele>
        <time>2018-08-09T05:48:07Z</time>
      </trkpt>
      <trkpt lat="44.08951" lon="6.23016">
        <ele>592.2</ele>
        <time>2018-08-09T05:48:08Z</time>
      </trkpt>
      <trkpt lat="44.08954" lon="6.2302">
        <ele>592.6</ele>
        <time>2018-08-09T05:48:09Z</time>
      </trkpt>
      <trkpt lat="44.08956" lon="6.23023">
        <ele>593</ele>
        <time>2018-08-09T05:48:10Z</time>
      </trkpt>
      <trkpt lat="44.08959" lon="6.23025">
        <ele>593</ele>
        <time>2018-08-09T05:48:11Z</time>
      </trkpt>
      <trkpt lat="44.08961" lon="6.23027">
        <ele>593</ele>
        <time>2018-08-09T05:48:12Z</time>
      </trkpt>
      <trkpt lat="44.08964" lon="6.23029">
        <ele>593</ele>
        <time>2018-08-09T05:48:13Z</time>
      </trkpt>
      <trkpt lat="44.08968" lon="6.23031">
        <ele>593</ele>
        <time>2018-08-09T05:48:14Z</time>
      </trkpt>
      <trkpt lat="44.08971" lon="6.23033">
        <ele>593</ele>
        <time>2018-08-09T05:48:15Z</time>
      </trkpt>
      <trkpt lat="44.08974" lon="6.23036">
        <ele>593</ele>
        <time>2018-08-09T05:48:16Z</time>
      </trkpt>
      <trkpt lat="44.08976" lon="6.23039">
        <ele>593</ele>
        <time>2018-08-09T05:48:17Z</time>
      </trkpt>
      <trkpt lat="44.0898" lon="6.23041">
        <ele>593</ele>
        <time>2018-08-09T05:48:18Z</time>
      </trkpt>
      <trkpt lat="44.08982" lon="6.23044">
        <ele>593</ele>
        <time>2018-08-09T05:48:19Z</time>
      </trkpt>
      <trkpt lat="44.08985" lon="6.23047">
        <ele>593</ele>
        <time>2018-08-09T05:48:20Z</time>
      </trkpt>
      <trkpt lat="44.08988" lon="6.23049">
        <ele>593</ele>
        <time>2018-08-09T05:48:21Z</time>
      </trkpt>
      <trkpt lat="44.08991" lon="6.23052">
        <ele>593</ele>
        <time>2018-08-09T05:48:22Z</time>
      </trkpt>
      <trkpt lat="44.08994" lon="6.23054">
        <ele>592.9</ele>
        <time>2018-08-09T05:48:23Z</time>
      </trkpt>
      <trkpt lat="44.08997" lon="6.23057">
        <ele>592.7</ele>
        <time>2018-08-09T05:48:24Z</time>
      </trkpt>
      <trkpt lat="44.08999" lon="6.2306">
        <ele>592.4</ele>
        <time>2018-08-09T05:48:25Z</time>
      </trkpt>
      <trkpt lat="44.09002" lon="6.23063">
        <ele>592.1</ele>
        <time>2018-08-09T05:48:26Z</time>
      </trkpt>
      <trkpt lat="44.09005" lon="6.23066">
        <ele>591.7</ele>
        <time>2018-08-09T05:48:27Z</time>
      </trkpt>
      <trkpt lat="44.09009" lon="6.23068">
        <ele>591</ele>
        <time>2018-08-09T05:48:28Z</time>
      </trkpt>
      <trkpt lat="44.09012" lon="6.23071">
        <ele>591</ele>
        <time>2018-08-09T05:48:29Z</time>
      </trkpt>
      <trkpt lat="44.09015" lon="6.23072">
        <ele>591</ele>
        <time>2018-08-09T05:48:30Z</time>
      </trkpt>
      <trkpt lat="44.09019" lon="6.23075">
        <ele>591.2</ele>
        <time>2018-08-09T05:48:31Z</time>
      </trkpt>
      <trkpt lat="44.09022" lon="6.23078">
        <ele>591.3</ele>
        <time>2018-08-09T05:48:32Z</time>
      </trkpt>
      <trkpt lat="44.09025" lon="6.2308">
        <ele>591.4</ele>
        <time>2018-08-09T05:48:33Z</time>
      </trkpt>
      <trkpt lat="44.09028" lon="6.23082">
        <ele>591.5</ele>
        <time>2018-08-09T05:48:34Z</time>
      </trkpt>
      <trkpt lat="44.09031" lon="6.23086">
        <ele>591.7</ele>
        <time>2018-08-09T05:48:35Z</time>
      </trkpt>
      <trkpt lat="44.09035" lon="6.23088">
        <ele>591.8</ele>
        <time>2018-08-09T05:48:36Z</time>
      </trkpt>
      <trkpt lat="44.09038" lon="6.2309">
        <ele>591.9</ele>
        <time>2018-08-09T05:48:37Z</time>
      </trkpt>
      <trkpt lat="44.09042" lon="6.23091">
        <ele>592.1</ele>
        <time>2018-08-09T05:48:38Z</time>
      </trkpt>
      <trkpt lat="44.09046" lon="6.23095">
        <ele>592.4</ele>
        <time>2018-08-09T05:48:39Z</time>
      </trkpt>
      <trkpt lat="44.09048" lon="6.23098">
        <ele>592.7</ele>
        <time>2018-08-09T05:48:40Z</time>
      </trkpt>
      <trkpt lat="44.09052" lon="6.23099">
        <ele>592.9</ele>
        <time>2018-08-09T05:48:41Z</time>
      </trkpt>
      <trkpt lat="44.09056" lon="6.23101">
        <ele>593.2</ele>
        <time>2018-08-09T05:48:42Z</time>
      </trkpt>
      <trkpt lat="44.09059" lon="6.23104">
        <ele>593.5</ele>
        <time>2018-08-09T05:48:43Z</time>
      </trkpt>
      <trkpt lat="44.09063" lon="6.23106">
        <ele>593.8</ele>
        <time>2018-08-09T05:48:44Z</time>
      </trkpt>
      <trkpt lat="44.09066" lon="6.2311">
        <ele>594</ele>
        <time>2018-08-09T05:48:45Z</time>
      </trkpt>
      <trkpt lat="44.09069" lon="6.23113">
        <ele>593.9</ele>
        <time>2018-08-09T05:48:46Z</time>
      </trkpt>
      <trkpt lat="44.09072" lon="6.23117">
        <ele>593.8</ele>
        <time>2018-08-09T05:48:47Z</time>
      </trkpt>
      <trkpt lat="44.09074" lon="6.23121">
        <ele>593.7</ele>
        <time>2018-08-09T05:48:48Z</time>
      </trkpt>
      <trkpt lat="44.09077" lon="6.23126">
        <ele>593.6</ele>
        <time>2018-08-09T05:48:49Z</time>
      </trkpt>
      <trkpt lat="44.09078" lon="6.2313">
        <ele>593.6</ele>
        <time>2018-08-09T05:48:50Z</time>
      </trkpt>
      <trkpt lat="44.09081" lon="6.23133">
        <ele>593.5</ele>
        <time>2018-08-09T05:48:59Z</time>
      </trkpt>
      <trkpt lat="44.09083" lon="6.23137">
        <ele>593.4</ele>
        <time>2018-08-09T05:49:01Z</time>
      </trkpt>
      <trkpt lat="44.09086" lon="6.23143">
        <ele>593.3</ele>
        <time>2018-08-09T05:49:03Z</time>
      </trkpt>
      <trkpt lat="44.09088" lon="6.23147">
        <ele>593.2</ele>
        <time>2018-08-09T05:49:04Z</time>
      </trkpt>
      <trkpt lat="44.0909" lon="6.23152">
        <ele>593.1</ele>
        <time>2018-08-09T05:49:05Z</time>
      </trkpt>
      <trkpt lat="44.09091" lon="6.23156">
        <ele>593</ele>
        <time>2018-08-09T05:49:06Z</time>
      </trkpt>
      <trkpt lat="44.09092" lon="6.2316">
        <ele>593.1</ele>
        <time>2018-08-09T05:49:07Z</time>
      </trkpt>
      <trkpt lat="44.09093" lon="6.23165">
        <ele>593.7</ele>
        <time>2018-08-09T05:49:09Z</time>
      </trkpt>
      <trkpt lat="44.09097" lon="6.23168">
        <ele>595</ele>
        <time>2018-08-09T05:49:12Z</time>
      </trkpt>
      <trkpt lat="44.09101" lon="6.2317">
        <ele>595</ele>
        <time>2018-08-09T05:49:14Z</time>
      </trkpt>
      <trkpt lat="44.09105" lon="6.23171">
        <ele>595</ele>
        <time>2018-08-09T05:49:16Z</time>
      </trkpt>
      <trkpt lat="44.09109" lon="6.23171">
        <ele>595</ele>
        <time>2018-08-09T05:49:19Z</time>
      </trkpt>
      <trkpt lat="44.09114" lon="6.23175">
        <ele>595</ele>
        <time>2018-08-09T05:49:21Z</time>
      </trkpt>
      <trkpt lat="44.09118" lon="6.23179">
        <ele>595.4</ele>
        <time>2018-08-09T05:49:23Z</time>
      </trkpt>
      <trkpt lat="44.09121" lon="6.23183">
        <ele>595.5</ele>
        <time>2018-08-09T05:49:25Z</time>
      </trkpt>
      <trkpt lat="44.09123" lon="6.23188">
        <ele>595.7</ele>
        <time>2018-08-09T05:49:27Z</time>
      </trkpt>
      <trkpt lat="44.09126" lon="6.23193">
        <ele>595.8</ele>
        <time>2018-08-09T05:49:29Z</time>
      </trkpt>
      <trkpt lat="44.09128" lon="6.23198">
        <ele>596</ele>
        <time>2018-08-09T05:49:32Z</time>
      </trkpt>
      <trkpt lat="44.09133" lon="6.23201">
        <ele>596.1</ele>
        <time>2018-08-09T05:49:34Z</time>
      </trkpt>
      <trkpt lat="44.09135" lon="6.23203">
        <ele>596.2</ele>
        <time>2018-08-09T05:49:35Z</time>
      </trkpt>
      <trkpt lat="44.09137" lon="6.23206">
        <ele>596.3</ele>
        <time>2018-08-09T05:49:36Z</time>
      </trkpt>
      <trkpt lat="44.09141" lon="6.23211">
        <ele>596.5</ele>
        <time>2018-08-09T05:49:38Z</time>
      </trkpt>
      <trkpt lat="44.09145" lon="6.23215">
        <ele>596.6</ele>
        <time>2018-08-09T05:49:40Z</time>
      </trkpt>
      <trkpt lat="44.09147" lon="6.23219">
        <ele>596.7</ele>
        <time>2018-08-09T05:49:42Z</time>
      </trkpt>
      <trkpt lat="44.09149" lon="6.23223">
        <ele>596.8</ele>
        <time>2018-08-09T05:49:45Z</time>
      </trkpt>
      <trkpt lat="44.09149" lon="6.23227">
        <ele>596.9</ele>
        <time>2018-08-09T05:49:51Z</time>
      </trkpt>
      <trkpt lat="44.09147" lon="6.23232">
        <ele>597.1</ele>
        <time>2018-08-09T05:51:00Z</time>
      </trkpt>
      <trkpt lat="44.09145" lon="6.23235">
        <ele>597.2</ele>
        <time>2018-08-09T05:51:19Z</time>
      </trkpt>
      <trkpt lat="44.09142" lon="6.23238">
        <ele>597.2</ele>
        <time>2018-08-09T05:53:44Z</time>
      </trkpt>
      <trkpt lat="44.09139" lon="6.23234">
        <ele>597</ele>
        <time>2018-08-09T05:53:47Z</time>
      </trkpt>
      <trkpt lat="44.09138" lon="6.23229">
        <ele>596.9</ele>
        <time>2018-08-09T05:53:49Z</time>
      </trkpt>
      <trkpt lat="44.09137" lon="6.23225">
        <ele>596.8</ele>
        <time>2018-08-09T05:53:51Z</time>
      </trkpt>
      <trkpt lat="44.09135" lon="6.2322">
        <ele>596.7</ele>
        <time>2018-08-09T05:53:53Z</time>
      </trkpt>
      <trkpt lat="44.09133" lon="6.23216">
        <ele>596.5</ele>
        <time>2018-08-09T05:53:55Z</time>
      </trkpt>
      <trkpt lat="44.09133" lon="6.23211">
        <ele>596.4</ele>
        <time>2018-08-09T05:53:57Z</time>
      </trkpt>
      <trkpt lat="44.09133" lon="6.23207">
        <ele>596.3</ele>
        <time>2018-08-09T05:53:59Z</time>
      </trkpt>
      <trkpt lat="44.09131" lon="6.23204">
        <ele>596.2</ele>
        <time>2018-08-09T05:54:01Z</time>
      </trkpt>
      <trkpt lat="44.09128" lon="6.23199">
        <ele>596.1</ele>
        <time>2018-08-09T05:54:02Z</time>
      </trkpt>
      <trkpt lat="44.09125" lon="6.23193">
        <ele>595.9</ele>
        <time>2018-08-09T05:54:04Z</time>
      </trkpt>
      <trkpt lat="44.09123" lon="6.23191">
        <ele>595.8</ele>
        <time>2018-08-09T05:54:05Z</time>
      </trkpt>
      <trkpt lat="44.09124" lon="6.23186">
        <ele>595.6</ele>
        <time>2018-08-09T05:54:06Z</time>
      </trkpt>
      <trkpt lat="44.09123" lon="6.23178">
        <ele>595.5</ele>
        <time>2018-08-09T05:54:08Z</time>
      </trkpt>
      <trkpt lat="44.09121" lon="6.23172">
        <ele>595.3</ele>
        <time>2018-08-09T05:54:10Z</time>
      </trkpt>
      <trkpt lat="44.09118" lon="6.23171">
        <ele>595</ele>
        <time>2018-08-09T05:54:12Z</time>
      </trkpt>
      <trkpt lat="44.09113" lon="6.23169">
        <ele>595</ele>
        <time>2018-08-09T05:54:14Z</time>
      </trkpt>
      <trkpt lat="44.09111" lon="6.23168">
        <ele>595</ele>
        <time>2018-08-09T05:54:15Z</time>
      </trkpt>
      <trkpt lat="44.09107" lon="6.23168">
        <ele>595</ele>
        <time>2018-08-09T05:54:17Z</time>
      </trkpt>
      <trkpt lat="44.09102" lon="6.23168">
        <ele>595</ele>
        <time>2018-08-09T05:54:19Z</time>
      </trkpt>
      <trkpt lat="44.09097" lon="6.23171">
        <ele>595</ele>
        <time>2018-08-09T05:54:21Z</time>
      </trkpt>
      <trkpt lat="44.09095" lon="6.23173">
        <ele>595</ele>
        <time>2018-08-09T05:54:22Z</time>
      </trkpt>
      <trkpt lat="44.09093" lon="6.23177">
        <ele>595</ele>
        <time>2018-08-09T05:54:23Z</time>
      </trkpt>
      <trkpt lat="44.09092" lon="6.23181">
        <ele>595</ele>
        <time>2018-08-09T05:54:24Z</time>
      </trkpt>
      <trkpt lat="44.09091" lon="6.23186">
        <ele>594.9</ele>
        <time>2018-08-09T05:54:25Z</time>
      </trkpt>
      <trkpt lat="44.0909" lon="6.23191">
        <ele>594.7</ele>
        <time>2018-08-09T05:54:26Z</time>
      </trkpt>
      <trkpt lat="44.09089" lon="6.23196">
        <ele>594.7</ele>
        <time>2018-08-09T05:54:27Z</time>
      </trkpt>
      <trkpt lat="44.09089" lon="6.23201">
        <ele>594.6</ele>
        <time>2018-08-09T05:54:28Z</time>
      </trkpt>
      <trkpt lat="44.09088" lon="6.23206">
        <ele>594.6</ele>
        <time>2018-08-09T05:54:29Z</time>
      </trkpt>
      <trkpt lat="44.09087" lon="6.2321">
        <ele>594.5</ele>
        <time>2018-08-09T05:54:30Z</time>
      </trkpt>
      <trkpt lat="44.09086" lon="6.23215">
        <ele>594.4</ele>
        <time>2018-08-09T05:54:31Z</time>
      </trkpt>
      <trkpt lat="44.09085" lon="6.2322">
        <ele>594.4</ele>
        <time>2018-08-09T05:54:32Z</time>
      </trkpt>
      <trkpt lat="44.09085" lon="6.23224">
        <ele>594.3</ele>
        <time>2018-08-09T05:54:33Z</time>
      </trkpt>
      <trkpt lat="44.09083" lon="6.23232">
        <ele>594.2</ele>
        <time>2018-08-09T05:54:35Z</time>
      </trkpt>
      <trkpt lat="44.09083" lon="6.23237">
        <ele>594.2</ele>
        <time>2018-08-09T05:54:36Z</time>
      </trkpt>
      <trkpt lat="44.09082" lon="6.23241">
        <ele>594.1</ele>
        <time>2018-08-09T05:54:37Z</time>
      </trkpt>
      <trkpt lat="44.09082" lon="6.23246">
        <ele>594.1</ele>
        <time>2018-08-09T05:54:38Z</time>
      </trkpt>
      <trkpt lat="44.09081" lon="6.23252">
        <ele>594</ele>
        <time>2018-08-09T05:54:39Z</time>
      </trkpt>
      <trkpt lat="44.0908" lon="6.23258">
        <ele>594</ele>
        <time>2018-08-09T05:54:40Z</time>
      </trkpt>
      <trkpt lat="44.0908" lon="6.23264">
        <ele>594</ele>
        <time>2018-08-09T05:54:41Z</time>
      </trkpt>
      <trkpt lat="44.09078" lon="6.23268">
        <ele>594</ele>
        <time>2018-08-09T05:54:42Z</time>
      </trkpt>
      <trkpt lat="44.09077" lon="6.23273">
        <ele>594</ele>
        <time>2018-08-09T05:54:43Z</time>
      </trkpt>
      <trkpt lat="44.09076" lon="6.23278">
        <ele>594</ele>
        <time>2018-08-09T05:54:44Z</time>
      </trkpt>
      <trkpt lat="44.09074" lon="6.23283">
        <ele>594</ele>
        <time>2018-08-09T05:54:45Z</time>
      </trkpt>
      <trkpt lat="44.09073" lon="6.23288">
        <ele>594</ele>
        <time>2018-08-09T05:54:46Z</time>
      </trkpt>
      <trkpt lat="44.09071" lon="6.23293">
        <ele>594</ele>
        <time>2018-08-09T05:54:47Z</time>
      </trkpt>
      <trkpt lat="44.0907" lon="6.23298">
        <ele>594</ele>
        <time>2018-08-09T05:54:48Z</time>
      </trkpt>
      <trkpt lat="44.09068" lon="6.23302">
        <ele>594</ele>
        <time>2018-08-09T05:54:49Z</time>
      </trkpt>
      <trkpt lat="44.09067" lon="6.23306">
        <ele>594</ele>
        <time>2018-08-09T05:54:50Z</time>
      </trkpt>
      <trkpt lat="44.09065" lon="6.2331">
        <ele>594.1</ele>
        <time>2018-08-09T05:54:51Z</time>
      </trkpt>
      <trkpt lat="44.09065" lon="6.23315">
        <ele>594.1</ele>
        <time>2018-08-09T05:54:52Z</time>
      </trkpt>
      <trkpt lat="44.09064" lon="6.23321">
        <ele>594.2</ele>
        <time>2018-08-09T05:54:53Z</time>
      </trkpt>
      <trkpt lat="44.09064" lon="6.23325">
        <ele>594.3</ele>
        <time>2018-08-09T05:54:54Z</time>
      </trkpt>
      <trkpt lat="44.09063" lon="6.23329">
        <ele>594.3</ele>
        <time>2018-08-09T05:54:55Z</time>
      </trkpt>
      <trkpt lat="44.09063" lon="6.23334">
        <ele>594.4</ele>
        <time>2018-08-09T05:54:56Z</time>
      </trkpt>
      <trkpt lat="44.09063" lon="6.2334">
        <ele>594.4</ele>
        <time>2018-08-09T05:54:57Z</time>
      </trkpt>
      <trkpt lat="44.09062" lon="6.23346">
        <ele>594.5</ele>
        <time>2018-08-09T05:54:58Z</time>
      </trkpt>
      <trkpt lat="44.09062" lon="6.23352">
        <ele>594.5</ele>
        <time>2018-08-09T05:54:59Z</time>
      </trkpt>
      <trkpt lat="44.09061" lon="6.23358">
        <ele>594.6</ele>
        <time>2018-08-09T05:55:00Z</time>
      </trkpt>
      <trkpt lat="44.0906" lon="6.23364">
        <ele>594.7</ele>
        <time>2018-08-09T05:55:01Z</time>
      </trkpt>
      <trkpt lat="44.09059" lon="6.2337">
        <ele>594.7</ele>
        <time>2018-08-09T05:55:02Z</time>
      </trkpt>
      <trkpt lat="44.09058" lon="6.23374">
        <ele>594.8</ele>
        <time>2018-08-09T05:55:03Z</time>
      </trkpt>
      <trkpt lat="44.09058" lon="6.2338">
        <ele>594.9</ele>
        <time>2018-08-09T05:55:04Z</time>
      </trkpt>
      <trkpt lat="44.09056" lon="6.23385">
        <ele>595</ele>
        <time>2018-08-09T05:55:05Z</time>
      </trkpt>
      <trkpt lat="44.09055" lon="6.2339">
        <ele>595</ele>
        <time>2018-08-09T05:55:06Z</time>
      </trkpt>
      <trkpt lat="44.09054" lon="6.23395">
        <ele>595</ele>
        <time>2018-08-09T05:55:07Z</time>
      </trkpt>
      <trkpt lat="44.09053" lon="6.23401">
        <ele>595</ele>
        <time>2018-08-09T05:55:08Z</time>
      </trkpt>
      <trkpt lat="44.09052" lon="6.23406">
        <ele>595</ele>
        <time>2018-08-09T05:55:09Z</time>
      </trkpt>
      <trkpt lat="44.09051" lon="6.23411">
        <ele>595</ele>
        <time>2018-08-09T05:55:10Z</time>
      </trkpt>
      <trkpt lat="44.09052" lon="6.23416">
        <ele>595.1</ele>
        <time>2018-08-09T05:55:11Z</time>
      </trkpt>
      <trkpt lat="44.09052" lon="6.23421">
        <ele>595.3</ele>
        <time>2018-08-09T05:55:12Z</time>
      </trkpt>
      <trkpt lat="44.09052" lon="6.23427">
        <ele>595.4</ele>
        <time>2018-08-09T05:55:13Z</time>
      </trkpt>
      <trkpt lat="44.09052" lon="6.23432">
        <ele>595.6</ele>
        <time>2018-08-09T05:55:14Z</time>
      </trkpt>
      <trkpt lat="44.09052" lon="6.23438">
        <ele>595.7</ele>
        <time>2018-08-09T05:55:15Z</time>
      </trkpt>
      <trkpt lat="44.09053" lon="6.23443">
        <ele>595.9</ele>
        <time>2018-08-09T05:55:16Z</time>
      </trkpt>
      <trkpt lat="44.09052" lon="6.23448">
        <ele>596</ele>
        <time>2018-08-09T05:55:17Z</time>
      </trkpt>
      <trkpt lat="44.09052" lon="6.23453">
        <ele>596.2</ele>
        <time>2018-08-09T05:55:18Z</time>
      </trkpt>
      <trkpt lat="44.09053" lon="6.23459">
        <ele>596.3</ele>
        <time>2018-08-09T05:55:19Z</time>
      </trkpt>
      <trkpt lat="44.09053" lon="6.23464">
        <ele>596.5</ele>
        <time>2018-08-09T05:55:20Z</time>
      </trkpt>
      <trkpt lat="44.09053" lon="6.2347">
        <ele>596.7</ele>
        <time>2018-08-09T05:55:21Z</time>
      </trkpt>
      <trkpt lat="44.09053" lon="6.23475">
        <ele>596.8</ele>
        <time>2018-08-09T05:55:22Z</time>
      </trkpt>
      <trkpt lat="44.09052" lon="6.23482">
        <ele>597</ele>
        <time>2018-08-09T05:55:23Z</time>
      </trkpt>
      <trkpt lat="44.09052" lon="6.23487">
        <ele>597.4</ele>
        <time>2018-08-09T05:55:24Z</time>
      </trkpt>
      <trkpt lat="44.09051" lon="6.23492">
        <ele>597.7</ele>
        <time>2018-08-09T05:55:25Z</time>
      </trkpt>
      <trkpt lat="44.09051" lon="6.23498">
        <ele>598</ele>
        <time>2018-08-09T05:55:26Z</time>
      </trkpt>
      <trkpt lat="44.09049" lon="6.23503">
        <ele>598.2</ele>
        <time>2018-08-09T05:55:27Z</time>
      </trkpt>
      <trkpt lat="44.09049" lon="6.2351">
        <ele>598.5</ele>
        <time>2018-08-09T05:55:28Z</time>
      </trkpt>
      <trkpt lat="44.09049" lon="6.23516">
        <ele>598.8</ele>
        <time>2018-08-09T05:55:29Z</time>
      </trkpt>
      <trkpt lat="44.09049" lon="6.23521">
        <ele>599.1</ele>
        <time>2018-08-09T05:55:30Z</time>
      </trkpt>
      <trkpt lat="44.09049" lon="6.23527">
        <ele>599.4</ele>
        <time>2018-08-09T05:55:31Z</time>
      </trkpt>
      <trkpt lat="44.09049" lon="6.23532">
        <ele>599.7</ele>
        <time>2018-08-09T05:55:32Z</time>
      </trkpt>
      <trkpt lat="44.09048" lon="6.23538">
        <ele>600</ele>
        <time>2018-08-09T05:55:33Z</time>
      </trkpt>
      <trkpt lat="44.09047" lon="6.23543">
        <ele>600</ele>
        <time>2018-08-09T05:55:34Z</time>
      </trkpt>
      <trkpt lat="44.09046" lon="6.23548">
        <ele>600</ele>
        <time>2018-08-09T05:55:35Z</time>
      </trkpt>
      <trkpt lat="44.09045" lon="6.23553">
        <ele>600</ele>
        <time>2018-08-09T05:55:36Z</time>
      </trkpt>
      <trkpt lat="44.09044" lon="6.23558">
        <ele>600</ele>
        <time>2018-08-09T05:55:37Z</time>
      </trkpt>
      <trkpt lat="44.09043" lon="6.23563">
        <ele>600</ele>
        <time>2018-08-09T05:55:38Z</time>
      </trkpt>
      <trkpt lat="44.09041" lon="6.23568">
        <ele>600.1</ele>
        <time>2018-08-09T05:55:39Z</time>
      </trkpt>
      <trkpt lat="44.0904" lon="6.23574">
        <ele>600.1</ele>
        <time>2018-08-09T05:55:40Z</time>
      </trkpt>
      <trkpt lat="44.09039" lon="6.23579">
        <ele>600.1</ele>
        <time>2018-08-09T05:55:41Z</time>
      </trkpt>
      <trkpt lat="44.09038" lon="6.23584">
        <ele>600.1</ele>
        <time>2018-08-09T05:55:42Z</time>
      </trkpt>
      <trkpt lat="44.09036" lon="6.23589">
        <ele>600.1</ele>
        <time>2018-08-09T05:55:43Z</time>
      </trkpt>
      <trkpt lat="44.09035" lon="6.23594">
        <ele>600.1</ele>
        <time>2018-08-09T05:55:44Z</time>
      </trkpt>
      <trkpt lat="44.09035" lon="6.23599">
        <ele>600.2</ele>
        <time>2018-08-09T05:55:45Z</time>
      </trkpt>
      <trkpt lat="44.09033" lon="6.23604">
        <ele>600.2</ele>
        <time>2018-08-09T05:55:46Z</time>
      </trkpt>
      <trkpt lat="44.09032" lon="6.23608">
        <ele>600.3</ele>
        <time>2018-08-09T05:55:47Z</time>
      </trkpt>
      <trkpt lat="44.09031" lon="6.23614">
        <ele>600.3</ele>
        <time>2018-08-09T05:55:48Z</time>
      </trkpt>
      <trkpt lat="44.0903" lon="6.2362">
        <ele>600.3</ele>
        <time>2018-08-09T05:55:49Z</time>
      </trkpt>
      <trkpt lat="44.09028" lon="6.23625">
        <ele>600.3</ele>
        <time>2018-08-09T05:55:50Z</time>
      </trkpt>
      <trkpt lat="44.09027" lon="6.2363">
        <ele>600.3</ele>
        <time>2018-08-09T05:55:51Z</time>
      </trkpt>
      <trkpt lat="44.09026" lon="6.23636">
        <ele>600.3</ele>
        <time>2018-08-09T05:55:52Z</time>
      </trkpt>
      <trkpt lat="44.09024" lon="6.23641">
        <ele>600.2</ele>
        <time>2018-08-09T05:55:53Z</time>
      </trkpt>
      <trkpt lat="44.09023" lon="6.23645">
        <ele>600.2</ele>
        <time>2018-08-09T05:55:54Z</time>
      </trkpt>
      <trkpt lat="44.09021" lon="6.23651">
        <ele>600.2</ele>
        <time>2018-08-09T05:55:55Z</time>
      </trkpt>
      <trkpt lat="44.0902" lon="6.23657">
        <ele>600.1</ele>
        <time>2018-08-09T05:55:56Z</time>
      </trkpt>
      <trkpt lat="44.09019" lon="6.23661">
        <ele>600.1</ele>
        <time>2018-08-09T05:55:57Z</time>
      </trkpt>
      <trkpt lat="44.09018" lon="6.23665">
        <ele>600.1</ele>
        <time>2018-08-09T05:55:58Z</time>
      </trkpt>
      <trkpt lat="44.09015" lon="6.2367">
        <ele>600</ele>
        <time>2018-08-09T05:55:59Z</time>
      </trkpt>
      <trkpt lat="44.09012" lon="6.23673">
        <ele>600</ele>
        <time>2018-08-09T05:56:00Z</time>
      </trkpt>
      <trkpt lat="44.09009" lon="6.23676">
        <ele>600</ele>
        <time>2018-08-09T05:56:01Z</time>
      </trkpt>
      <trkpt lat="44.09007" lon="6.2368">
        <ele>600</ele>
        <time>2018-08-09T05:56:02Z</time>
      </trkpt>
      <trkpt lat="44.09006" lon="6.23685">
        <ele>600</ele>
        <time>2018-08-09T05:56:03Z</time>
      </trkpt>
      <trkpt lat="44.09005" lon="6.2369">
        <ele>600</ele>
        <time>2018-08-09T05:56:04Z</time>
      </trkpt>
      <trkpt lat="44.09005" lon="6.23696">
        <ele>600</ele>
        <time>2018-08-09T05:56:05Z</time>
      </trkpt>
      <trkpt lat="44.09006" lon="6.23701">
        <ele>600</ele>
        <time>2018-08-09T05:56:06Z</time>
      </trkpt>
      <trkpt lat="44.09008" lon="6.23706">
        <ele>600</ele>
        <time>2018-08-09T05:56:07Z</time>
      </trkpt>
      <trkpt lat="44.09008" lon="6.23712">
        <ele>600</ele>
        <time>2018-08-09T05:56:08Z</time>
      </trkpt>
      <trkpt lat="44.09007" lon="6.23718">
        <ele>600</ele>
        <time>2018-08-09T05:56:09Z</time>
      </trkpt>
      <trkpt lat="44.09006" lon="6.23724">
        <ele>600</ele>
        <time>2018-08-09T05:56:10Z</time>
      </trkpt>
      <trkpt lat="44.09005" lon="6.23729">
        <ele>600</ele>
        <time>2018-08-09T05:56:11Z</time>
      </trkpt>
      <trkpt lat="44.09004" lon="6.23735">
        <ele>600.1</ele>
        <time>2018-08-09T05:56:12Z</time>
      </trkpt>
      <trkpt lat="44.09003" lon="6.23741">
        <ele>600.2</ele>
        <time>2018-08-09T05:56:13Z</time>
      </trkpt>
      <trkpt lat="44.09002" lon="6.23747">
        <ele>600.3</ele>
        <time>2018-08-09T05:56:14Z</time>
      </trkpt>
      <trkpt lat="44.09001" lon="6.23752">
        <ele>600.4</ele>
        <time>2018-08-09T05:56:15Z</time>
      </trkpt>
      <trkpt lat="44.09" lon="6.23757">
        <ele>600.5</ele>
        <time>2018-08-09T05:56:16Z</time>
      </trkpt>
      <trkpt lat="44.08999" lon="6.23763">
        <ele>600.7</ele>
        <time>2018-08-09T05:56:17Z</time>
      </trkpt>
      <trkpt lat="44.08998" lon="6.23769">
        <ele>600.8</ele>
        <time>2018-08-09T05:56:18Z</time>
      </trkpt>
      <trkpt lat="44.08997" lon="6.23774">
        <ele>600.9</ele>
        <time>2018-08-09T05:56:19Z</time>
      </trkpt>
      <trkpt lat="44.08996" lon="6.23779">
        <ele>601</ele>
        <time>2018-08-09T05:56:20Z</time>
      </trkpt>
      <trkpt lat="44.08994" lon="6.23785">
        <ele>601.2</ele>
        <time>2018-08-09T05:56:21Z</time>
      </trkpt>
      <trkpt lat="44.08993" lon="6.23791">
        <ele>601.3</ele>
        <time>2018-08-09T05:56:22Z</time>
      </trkpt>
      <trkpt lat="44.08992" lon="6.23797">
        <ele>601.4</ele>
        <time>2018-08-09T05:56:23Z</time>
      </trkpt>
      <trkpt lat="44.08991" lon="6.23803">
        <ele>601.6</ele>
        <time>2018-08-09T05:56:24Z</time>
      </trkpt>
      <trkpt lat="44.08989" lon="6.23809">
        <ele>601.7</ele>
        <time>2018-08-09T05:56:25Z</time>
      </trkpt>
      <trkpt lat="44.08987" lon="6.23813">
        <ele>601.8</ele>
        <time>2018-08-09T05:56:26Z</time>
      </trkpt>
      <trkpt lat="44.08987" lon="6.23818">
        <ele>602</ele>
        <time>2018-08-09T05:56:27Z</time>
      </trkpt>
      <trkpt lat="44.08986" lon="6.23823">
        <ele>602.1</ele>
        <time>2018-08-09T05:56:28Z</time>
      </trkpt>
      <trkpt lat="44.08985" lon="6.23828">
        <ele>602.2</ele>
        <time>2018-08-09T05:56:29Z</time>
      </trkpt>
      <trkpt lat="44.08983" lon="6.23834">
        <ele>602.3</ele>
        <time>2018-08-09T05:56:30Z</time>
      </trkpt>
      <trkpt lat="44.08983" lon="6.23839">
        <ele>602.5</ele>
        <time>2018-08-09T05:56:31Z</time>
      </trkpt>
      <trkpt lat="44.08981" lon="6.23845">
        <ele>602.6</ele>
        <time>2018-08-09T05:56:32Z</time>
      </trkpt>
      <trkpt lat="44.0898" lon="6.2385">
        <ele>602.7</ele>
        <time>2018-08-09T05:56:33Z</time>
      </trkpt>
      <trkpt lat="44.08979" lon="6.23855">
        <ele>602.8</ele>
        <time>2018-08-09T05:56:34Z</time>
      </trkpt>
      <trkpt lat="44.08978" lon="6.23861">
        <ele>602.9</ele>
        <time>2018-08-09T05:56:35Z</time>
      </trkpt>
      <trkpt lat="44.08977" lon="6.23867">
        <ele>603</ele>
        <time>2018-08-09T05:56:36Z</time>
      </trkpt>
      <trkpt lat="44.08976" lon="6.23872">
        <ele>603.1</ele>
        <time>2018-08-09T05:56:37Z</time>
      </trkpt>
      <trkpt lat="44.08975" lon="6.23877">
        <ele>603.2</ele>
        <time>2018-08-09T05:56:38Z</time>
      </trkpt>
      <trkpt lat="44.08974" lon="6.23883">
        <ele>603.2</ele>
        <time>2018-08-09T05:56:39Z</time>
      </trkpt>
      <trkpt lat="44.08972" lon="6.23888">
        <ele>603.3</ele>
        <time>2018-08-09T05:56:40Z</time>
      </trkpt>
      <trkpt lat="44.08972" lon="6.23893">
        <ele>603.4</ele>
        <time>2018-08-09T05:56:41Z</time>
      </trkpt>
      <trkpt lat="44.08969" lon="6.23898">
        <ele>603.5</ele>
        <time>2018-08-09T05:56:42Z</time>
      </trkpt>
      <trkpt lat="44.08969" lon="6.23904">
        <ele>603.6</ele>
        <time>2018-08-09T05:56:43Z</time>
      </trkpt>
      <trkpt lat="44.08968" lon="6.2391">
        <ele>603.7</ele>
        <time>2018-08-09T05:56:44Z</time>
      </trkpt>
      <trkpt lat="44.08967" lon="6.23915">
        <ele>603.8</ele>
        <time>2018-08-09T05:56:45Z</time>
      </trkpt>
      <trkpt lat="44.08967" lon="6.23921">
        <ele>603.9</ele>
        <time>2018-08-09T05:56:46Z</time>
      </trkpt>
      <trkpt lat="44.08967" lon="6.23927">
        <ele>603.9</ele>
        <time>2018-08-09T05:56:47Z</time>
      </trkpt>
      <trkpt lat="44.08967" lon="6.23933">
        <ele>604</ele>
        <time>2018-08-09T05:56:48Z</time>
      </trkpt>
      <trkpt lat="44.08966" lon="6.23939">
        <ele>604</ele>
        <time>2018-08-09T05:56:49Z</time>
      </trkpt>
      <trkpt lat="44.08966" lon="6.23944">
        <ele>604</ele>
        <time>2018-08-09T05:56:50Z</time>
      </trkpt>
      <trkpt lat="44.08967" lon="6.23949">
        <ele>604</ele>
        <time>2018-08-09T05:56:51Z</time>
      </trkpt>
      <trkpt lat="44.08967" lon="6.23955">
        <ele>604</ele>
        <time>2018-08-09T05:56:52Z</time>
      </trkpt>
      <trkpt lat="44.08968" lon="6.2396">
        <ele>604</ele>
        <time>2018-08-09T05:56:53Z</time>
      </trkpt>
      <trkpt lat="44.08968" lon="6.23966">
        <ele>604.4</ele>
        <time>2018-08-09T05:56:54Z</time>
      </trkpt>
      <trkpt lat="44.08968" lon="6.23972">
        <ele>604.8</ele>
        <time>2018-08-09T05:56:55Z</time>
      </trkpt>
      <trkpt lat="44.08969" lon="6.23977">
        <ele>605.1</ele>
        <time>2018-08-09T05:56:56Z</time>
      </trkpt>
      <trkpt lat="44.0897" lon="6.23983">
        <ele>605.5</ele>
        <time>2018-08-09T05:56:57Z</time>
      </trkpt>
      <trkpt lat="44.0897" lon="6.23988">
        <ele>605.9</ele>
        <time>2018-08-09T05:56:58Z</time>
      </trkpt>
      <trkpt lat="44.0897" lon="6.23994">
        <ele>606.3</ele>
        <time>2018-08-09T05:56:59Z</time>
      </trkpt>
      <trkpt lat="44.08973" lon="6.23998">
        <ele>606.7</ele>
        <time>2018-08-09T05:57:00Z</time>
      </trkpt>
      <trkpt lat="44.08975" lon="6.24004">
        <ele>607.2</ele>
        <time>2018-08-09T05:57:01Z</time>
      </trkpt>
      <trkpt lat="44.08976" lon="6.24009">
        <ele>607.6</ele>
        <time>2018-08-09T05:57:02Z</time>
      </trkpt>
      <trkpt lat="44.08977" lon="6.24013">
        <ele>607.9</ele>
        <time>2018-08-09T05:57:03Z</time>
      </trkpt>
      <trkpt lat="44.08979" lon="6.24019">
        <ele>608.3</ele>
        <time>2018-08-09T05:57:04Z</time>
      </trkpt>
      <trkpt lat="44.0898" lon="6.24024">
        <ele>608.8</ele>
        <time>2018-08-09T05:57:05Z</time>
      </trkpt>
      <trkpt lat="44.08982" lon="6.2403">
        <ele>609.2</ele>
        <time>2018-08-09T05:57:06Z</time>
      </trkpt>
      <trkpt lat="44.08983" lon="6.24034">
        <ele>609.5</ele>
        <time>2018-08-09T05:57:07Z</time>
      </trkpt>
      <trkpt lat="44.08985" lon="6.2404">
        <ele>609.9</ele>
        <time>2018-08-09T05:57:08Z</time>
      </trkpt>
      <trkpt lat="44.08987" lon="6.24045">
        <ele>610.3</ele>
        <time>2018-08-09T05:57:09Z</time>
      </trkpt>
      <trkpt lat="44.08989" lon="6.24049">
        <ele>610.7</ele>
        <time>2018-08-09T05:57:10Z</time>
      </trkpt>
      <trkpt lat="44.08992" lon="6.24054">
        <ele>611.1</ele>
        <time>2018-08-09T05:57:11Z</time>
      </trkpt>
      <trkpt lat="44.08994" lon="6.24058">
        <ele>611.4</ele>
        <time>2018-08-09T05:57:12Z</time>
      </trkpt>
      <trkpt lat="44.08997" lon="6.24063">
        <ele>611.8</ele>
        <time>2018-08-09T05:57:13Z</time>
      </trkpt>
      <trkpt lat="44.08999" lon="6.24069">
        <ele>612</ele>
        <time>2018-08-09T05:57:14Z</time>
      </trkpt>
      <trkpt lat="44.09" lon="6.24074">
        <ele>611.9</ele>
        <time>2018-08-09T05:57:15Z</time>
      </trkpt>
      <trkpt lat="44.09002" lon="6.24079">
        <ele>611.8</ele>
        <time>2018-08-09T05:57:16Z</time>
      </trkpt>
      <trkpt lat="44.09003" lon="6.24085">
        <ele>611.7</ele>
        <time>2018-08-09T05:57:17Z</time>
      </trkpt>
      <trkpt lat="44.09005" lon="6.2409">
        <ele>611.6</ele>
        <time>2018-08-09T05:57:18Z</time>
      </trkpt>
      <trkpt lat="44.09008" lon="6.24094">
        <ele>611.5</ele>
        <time>2018-08-09T05:57:19Z</time>
      </trkpt>
      <trkpt lat="44.0901" lon="6.24098">
        <ele>611.4</ele>
        <time>2018-08-09T05:57:20Z</time>
      </trkpt>
      <trkpt lat="44.09012" lon="6.24103">
        <ele>611.3</ele>
        <time>2018-08-09T05:57:21Z</time>
      </trkpt>
      <trkpt lat="44.09014" lon="6.24108">
        <ele>611.2</ele>
        <time>2018-08-09T05:57:22Z</time>
      </trkpt>
      <trkpt lat="44.09017" lon="6.24113">
        <ele>611.2</ele>
        <time>2018-08-09T05:57:23Z</time>
      </trkpt>
      <trkpt lat="44.09019" lon="6.24117">
        <ele>611.1</ele>
        <time>2018-08-09T05:57:24Z</time>
      </trkpt>
      <trkpt lat="44.09021" lon="6.24123">
        <ele>611</ele>
        <time>2018-08-09T05:57:25Z</time>
      </trkpt>
      <trkpt lat="44.09023" lon="6.24128">
        <ele>610.9</ele>
        <time>2018-08-09T05:57:26Z</time>
      </trkpt>
      <trkpt lat="44.09026" lon="6.24132">
        <ele>610.8</ele>
        <time>2018-08-09T05:57:27Z</time>
      </trkpt>
      <trkpt lat="44.09028" lon="6.24137">
        <ele>610.7</ele>
        <time>2018-08-09T05:57:28Z</time>
      </trkpt>
      <trkpt lat="44.0903" lon="6.24141">
        <ele>610.7</ele>
        <time>2018-08-09T05:57:29Z</time>
      </trkpt>
      <trkpt lat="44.09032" lon="6.24146">
        <ele>610.6</ele>
        <time>2018-08-09T05:57:30Z</time>
      </trkpt>
      <trkpt lat="44.09034" lon="6.24151">
        <ele>610.5</ele>
        <time>2018-08-09T05:57:31Z</time>
      </trkpt>
      <trkpt lat="44.09037" lon="6.24155">
        <ele>610.4</ele>
        <time>2018-08-09T05:57:32Z</time>
      </trkpt>
      <trkpt lat="44.09039" lon="6.2416">
        <ele>610.3</ele>
        <time>2018-08-09T05:57:33Z</time>
      </trkpt>
      <trkpt lat="44.09042" lon="6.24165">
        <ele>610.2</ele>
        <time>2018-08-09T05:57:34Z</time>
      </trkpt>
      <trkpt lat="44.09044" lon="6.24169">
        <ele>610.2</ele>
        <time>2018-08-09T05:57:35Z</time>
      </trkpt>
      <trkpt lat="44.09046" lon="6.24174">
        <ele>610.1</ele>
        <time>2018-08-09T05:57:36Z</time>
      </trkpt>
      <trkpt lat="44.09048" lon="6.24178">
        <ele>610</ele>
        <time>2018-08-09T05:57:37Z</time>
      </trkpt>
      <trkpt lat="44.0905" lon="6.24183">
        <ele>609.9</ele>
        <time>2018-08-09T05:57:38Z</time>
      </trkpt>
      <trkpt lat="44.09052" lon="6.24188">
        <ele>609.9</ele>
        <time>2018-08-09T05:57:39Z</time>
      </trkpt>
      <trkpt lat="44.09055" lon="6.24192">
        <ele>609.8</ele>
        <time>2018-08-09T05:57:40Z</time>
      </trkpt>
      <trkpt lat="44.09057" lon="6.24197">
        <ele>609.7</ele>
        <time>2018-08-09T05:57:41Z</time>
      </trkpt>
      <trkpt lat="44.09059" lon="6.24201">
        <ele>609.7</ele>
        <time>2018-08-09T05:57:42Z</time>
      </trkpt>
      <trkpt lat="44.09061" lon="6.24205">
        <ele>609.6</ele>
        <time>2018-08-09T05:57:43Z</time>
      </trkpt>
      <trkpt lat="44.09063" lon="6.2421">
        <ele>609.5</ele>
        <time>2018-08-09T05:57:44Z</time>
      </trkpt>
      <trkpt lat="44.09065" lon="6.24214">
        <ele>609.5</ele>
        <time>2018-08-09T05:57:45Z</time>
      </trkpt>
      <trkpt lat="44.09067" lon="6.24219">
        <ele>609.4</ele>
        <time>2018-08-09T05:57:46Z</time>
      </trkpt>
      <trkpt lat="44.0907" lon="6.24224">
        <ele>609.3</ele>
        <time>2018-08-09T05:57:47Z</time>
      </trkpt>
      <trkpt lat="44.09072" lon="6.24228">
        <ele>609.3</ele>
        <time>2018-08-09T05:57:48Z</time>
      </trkpt>
      <trkpt lat="44.09074" lon="6.24232">
        <ele>609.2</ele>
        <time>2018-08-09T05:57:49Z</time>
      </trkpt>
      <trkpt lat="44.09077" lon="6.24237">
        <ele>609.1</ele>
        <time>2018-08-09T05:57:50Z</time>
      </trkpt>
      <trkpt lat="44.09079" lon="6.24241">
        <ele>609</ele>
        <time>2018-08-09T05:57:51Z</time>
      </trkpt>
      <trkpt lat="44.09081" lon="6.24246">
        <ele>609</ele>
        <time>2018-08-09T05:57:52Z</time>
      </trkpt>
      <trkpt lat="44.09083" lon="6.24251">
        <ele>608.9</ele>
        <time>2018-08-09T05:57:53Z</time>
      </trkpt>
      <trkpt lat="44.09085" lon="6.24255">
        <ele>608.8</ele>
        <time>2018-08-09T05:57:54Z</time>
      </trkpt>
      <trkpt lat="44.09087" lon="6.2426">
        <ele>608.6</ele>
        <time>2018-08-09T05:57:55Z</time>
      </trkpt>
      <trkpt lat="44.09089" lon="6.24264">
        <ele>608.4</ele>
        <time>2018-08-09T05:57:56Z</time>
      </trkpt>
      <trkpt lat="44.09091" lon="6.24269">
        <ele>608.1</ele>
        <time>2018-08-09T05:57:57Z</time>
      </trkpt>
      <trkpt lat="44.09093" lon="6.24273">
        <ele>607.9</ele>
        <time>2018-08-09T05:57:58Z</time>
      </trkpt>
      <trkpt lat="44.09095" lon="6.24277">
        <ele>607.8</ele>
        <time>2018-08-09T05:57:59Z</time>
      </trkpt>
      <trkpt lat="44.09098" lon="6.24281">
        <ele>607.7</ele>
        <time>2018-08-09T05:58:00Z</time>
      </trkpt>
      <trkpt lat="44.091" lon="6.24285">
        <ele>607.7</ele>
        <time>2018-08-09T05:58:01Z</time>
      </trkpt>
      <trkpt lat="44.09103" lon="6.24289">
        <ele>607.6</ele>
        <time>2018-08-09T05:58:02Z</time>
      </trkpt>
      <trkpt lat="44.09105" lon="6.24293">
        <ele>607.5</ele>
        <time>2018-08-09T05:58:03Z</time>
      </trkpt>
      <trkpt lat="44.09107" lon="6.24297">
        <ele>607.4</ele>
        <time>2018-08-09T05:58:04Z</time>
      </trkpt>
      <trkpt lat="44.09109" lon="6.24302">
        <ele>607.3</ele>
        <time>2018-08-09T05:58:05Z</time>
      </trkpt>
      <trkpt lat="44.09111" lon="6.24306">
        <ele>607.2</ele>
        <time>2018-08-09T05:58:06Z</time>
      </trkpt>
      <trkpt lat="44.09113" lon="6.24311">
        <ele>607.1</ele>
        <time>2018-08-09T05:58:07Z</time>
      </trkpt>
      <trkpt lat="44.09115" lon="6.24315">
        <ele>607.1</ele>
        <time>2018-08-09T05:58:08Z</time>
      </trkpt>
      <trkpt lat="44.09116" lon="6.2432">
        <ele>607.1</ele>
        <time>2018-08-09T05:58:09Z</time>
      </trkpt>
      <trkpt lat="44.09118" lon="6.24324">
        <ele>607.2</ele>
        <time>2018-08-09T05:58:10Z</time>
      </trkpt>
      <trkpt lat="44.09118" lon="6.24329">
        <ele>607.4</ele>
        <time>2018-08-09T05:58:11Z</time>
      </trkpt>
      <trkpt lat="44.09119" lon="6.24334">
        <ele>607.6</ele>
        <time>2018-08-09T05:58:12Z</time>
      </trkpt>
      <trkpt lat="44.09119" lon="6.24338">
        <ele>607.7</ele>
        <time>2018-08-09T05:58:13Z</time>
      </trkpt>
      <trkpt lat="44.0912" lon="6.24343">
        <ele>607.8</ele>
        <time>2018-08-09T05:58:14Z</time>
      </trkpt>
      <trkpt lat="44.09121" lon="6.24347">
        <ele>608</ele>
        <time>2018-08-09T05:58:15Z</time>
      </trkpt>
      <trkpt lat="44.09121" lon="6.24352">
        <ele>608.1</ele>
        <time>2018-08-09T05:58:16Z</time>
      </trkpt>
      <trkpt lat="44.09121" lon="6.24357">
        <ele>608.2</ele>
        <time>2018-08-09T05:58:17Z</time>
      </trkpt>
      <trkpt lat="44.09121" lon="6.24362">
        <ele>608.2</ele>
        <time>2018-08-09T05:58:18Z</time>
      </trkpt>
      <trkpt lat="44.09121" lon="6.24366">
        <ele>608.3</ele>
        <time>2018-08-09T05:58:19Z</time>
      </trkpt>
      <trkpt lat="44.09121" lon="6.24371">
        <ele>608.4</ele>
        <time>2018-08-09T05:58:20Z</time>
      </trkpt>
      <trkpt lat="44.0912" lon="6.24376">
        <ele>608.4</ele>
        <time>2018-08-09T05:58:21Z</time>
      </trkpt>
      <trkpt lat="44.0912" lon="6.2438">
        <ele>608.5</ele>
        <time>2018-08-09T05:58:22Z</time>
      </trkpt>
      <trkpt lat="44.09121" lon="6.24385">
        <ele>608.6</ele>
        <time>2018-08-09T05:58:23Z</time>
      </trkpt>
      <trkpt lat="44.0912" lon="6.24389">
        <ele>608.7</ele>
        <time>2018-08-09T05:58:24Z</time>
      </trkpt>
      <trkpt lat="44.0912" lon="6.24394">
        <ele>608.8</ele>
        <time>2018-08-09T05:58:25Z</time>
      </trkpt>
      <trkpt lat="44.0912" lon="6.24399">
        <ele>609</ele>
        <time>2018-08-09T05:58:26Z</time>
      </trkpt>
      <trkpt lat="44.0912" lon="6.24403">
        <ele>609</ele>
        <time>2018-08-09T05:58:27Z</time>
      </trkpt>
      <trkpt lat="44.09121" lon="6.24407">
        <ele>609.8</ele>
        <time>2018-08-09T05:58:28Z</time>
      </trkpt>
      <trkpt lat="44.09122" lon="6.24412">
        <ele>610.3</ele>
        <time>2018-08-09T05:58:29Z</time>
      </trkpt>
      <trkpt lat="44.09124" lon="6.24416">
        <ele>610.8</ele>
        <time>2018-08-09T05:58:30Z</time>
      </trkpt>
      <trkpt lat="44.09126" lon="6.2442">
        <ele>611.1</ele>
        <time>2018-08-09T05:58:31Z</time>
      </trkpt>
      <trkpt lat="44.09128" lon="6.24423">
        <ele>611.4</ele>
        <time>2018-08-09T05:58:32Z</time>
      </trkpt>
      <trkpt lat="44.09129" lon="6.24426">
        <ele>611.6</ele>
        <time>2018-08-09T05:58:33Z</time>
      </trkpt>
      <trkpt lat="44.09132" lon="6.24433">
        <ele>612.1</ele>
        <time>2018-08-09T05:58:35Z</time>
      </trkpt>
      <trkpt lat="44.09132" lon="6.24437">
        <ele>612.3</ele>
        <time>2018-08-09T05:58:36Z</time>
      </trkpt>
      <trkpt lat="44.09133" lon="6.24441">
        <ele>612.5</ele>
        <time>2018-08-09T05:58:37Z</time>
      </trkpt>
      <trkpt lat="44.09134" lon="6.24448">
        <ele>612.8</ele>
        <time>2018-08-09T05:58:39Z</time>
      </trkpt>
      <trkpt lat="44.09136" lon="6.24455">
        <ele>613.2</ele>
        <time>2018-08-09T05:58:41Z</time>
      </trkpt>
      <trkpt lat="44.09136" lon="6.24459">
        <ele>613.3</ele>
        <time>2018-08-09T05:58:42Z</time>
      </trkpt>
      <trkpt lat="44.09136" lon="6.24464">
        <ele>613.5</ele>
        <time>2018-08-09T05:58:43Z</time>
      </trkpt>
      <trkpt lat="44.09136" lon="6.24468">
        <ele>613.6</ele>
        <time>2018-08-09T05:58:44Z</time>
      </trkpt>
      <trkpt lat="44.09137" lon="6.24475">
        <ele>613.8</ele>
        <time>2018-08-09T05:58:46Z</time>
      </trkpt>
      <trkpt lat="44.09138" lon="6.2448">
        <ele>613.9</ele>
        <time>2018-08-09T05:58:47Z</time>
      </trkpt>
      <trkpt lat="44.09139" lon="6.24486">
        <ele>614</ele>
        <time>2018-08-09T05:58:49Z</time>
      </trkpt>
      <trkpt lat="44.0914" lon="6.24491">
        <ele>614</ele>
        <time>2018-08-09T05:58:50Z</time>
      </trkpt>
      <trkpt lat="44.0914" lon="6.24495">
        <ele>614.1</ele>
        <time>2018-08-09T05:58:51Z</time>
      </trkpt>
      <trkpt lat="44.09141" lon="6.24499">
        <ele>614.1</ele>
        <time>2018-08-09T05:58:52Z</time>
      </trkpt>
      <trkpt lat="44.09141" lon="6.24503">
        <ele>614.2</ele>
        <time>2018-08-09T05:58:53Z</time>
      </trkpt>
      <trkpt lat="44.09143" lon="6.2451">
        <ele>614.2</ele>
        <time>2018-08-09T05:58:55Z</time>
      </trkpt>
      <trkpt lat="44.09144" lon="6.24514">
        <ele>614.2</ele>
        <time>2018-08-09T05:58:56Z</time>
      </trkpt>
      <trkpt lat="44.09144" lon="6.24518">
        <ele>614.2</ele>
        <time>2018-08-09T05:58:57Z</time>
      </trkpt>
      <trkpt lat="44.09145" lon="6.24523">
        <ele>614.2</ele>
        <time>2018-08-09T05:58:58Z</time>
      </trkpt>
      <trkpt lat="44.09146" lon="6.24527">
        <ele>614.3</ele>
        <time>2018-08-09T05:58:59Z</time>
      </trkpt>
      <trkpt lat="44.09147" lon="6.24531">
        <ele>614.3</ele>
        <time>2018-08-09T05:59:00Z</time>
      </trkpt>
      <trkpt lat="44.09148" lon="6.24536">
        <ele>614.3</ele>
        <time>2018-08-09T05:59:01Z</time>
      </trkpt>
      <trkpt lat="44.09148" lon="6.2454">
        <ele>614.3</ele>
        <time>2018-08-09T05:59:02Z</time>
      </trkpt>
      <trkpt lat="44.09148" lon="6.24545">
        <ele>614.3</ele>
        <time>2018-08-09T05:59:03Z</time>
      </trkpt>
      <trkpt lat="44.09149" lon="6.24549">
        <ele>614.3</ele>
        <time>2018-08-09T05:59:04Z</time>
      </trkpt>
      <trkpt lat="44.09149" lon="6.24554">
        <ele>614.4</ele>
        <time>2018-08-09T05:59:05Z</time>
      </trkpt>
      <trkpt lat="44.09149" lon="6.24559">
        <ele>614.4</ele>
        <time>2018-08-09T05:59:06Z</time>
      </trkpt>
      <trkpt lat="44.0915" lon="6.24564">
        <ele>614.4</ele>
        <time>2018-08-09T05:59:07Z</time>
      </trkpt>
      <trkpt lat="44.09151" lon="6.24569">
        <ele>614.4</ele>
        <time>2018-08-09T05:59:08Z</time>
      </trkpt>
      <trkpt lat="44.0915" lon="6.24574">
        <ele>614.4</ele>
        <time>2018-08-09T05:59:09Z</time>
      </trkpt>
      <trkpt lat="44.0915" lon="6.24579">
        <ele>614.4</ele>
        <time>2018-08-09T05:59:10Z</time>
      </trkpt>
      <trkpt lat="44.0915" lon="6.24583">
        <ele>614.4</ele>
        <time>2018-08-09T05:59:11Z</time>
      </trkpt>
      <trkpt lat="44.09151" lon="6.24589">
        <ele>614.4</ele>
        <time>2018-08-09T05:59:12Z</time>
      </trkpt>
      <trkpt lat="44.0915" lon="6.24594">
        <ele>614.5</ele>
        <time>2018-08-09T05:59:13Z</time>
      </trkpt>
      <trkpt lat="44.0915" lon="6.24599">
        <ele>614.5</ele>
        <time>2018-08-09T05:59:14Z</time>
      </trkpt>
      <trkpt lat="44.0915" lon="6.24604">
        <ele>614.5</ele>
        <time>2018-08-09T05:59:15Z</time>
      </trkpt>
      <trkpt lat="44.0915" lon="6.24609">
        <ele>614.5</ele>
        <time>2018-08-09T05:59:16Z</time>
      </trkpt>
      <trkpt lat="44.09149" lon="6.24614">
        <ele>614.5</ele>
        <time>2018-08-09T05:59:17Z</time>
      </trkpt>
      <trkpt lat="44.09148" lon="6.24618">
        <ele>614.5</ele>
        <time>2018-08-09T05:59:18Z</time>
      </trkpt>
      <trkpt lat="44.09147" lon="6.24623">
        <ele>614.5</ele>
        <time>2018-08-09T05:59:19Z</time>
      </trkpt>
      <trkpt lat="44.09146" lon="6.24629">
        <ele>614.5</ele>
        <time>2018-08-09T05:59:20Z</time>
      </trkpt>
      <trkpt lat="44.09145" lon="6.24634">
        <ele>614.5</ele>
        <time>2018-08-09T05:59:21Z</time>
      </trkpt>
      <trkpt lat="44.09144" lon="6.24639">
        <ele>614.6</ele>
        <time>2018-08-09T05:59:22Z</time>
      </trkpt>
      <trkpt lat="44.09143" lon="6.24644">
        <ele>614.6</ele>
        <time>2018-08-09T05:59:23Z</time>
      </trkpt>
      <trkpt lat="44.09142" lon="6.24649">
        <ele>614.6</ele>
        <time>2018-08-09T05:59:24Z</time>
      </trkpt>
      <trkpt lat="44.09141" lon="6.24654">
        <ele>614.6</ele>
        <time>2018-08-09T05:59:25Z</time>
      </trkpt>
      <trkpt lat="44.0914" lon="6.2466">
        <ele>614.6</ele>
        <time>2018-08-09T05:59:26Z</time>
      </trkpt>
      <trkpt lat="44.0914" lon="6.24665">
        <ele>614.6</ele>
        <time>2018-08-09T05:59:27Z</time>
      </trkpt>
      <trkpt lat="44.09139" lon="6.2467">
        <ele>614.6</ele>
        <time>2018-08-09T05:59:28Z</time>
      </trkpt>
      <trkpt lat="44.09138" lon="6.24675">
        <ele>614.6</ele>
        <time>2018-08-09T05:59:29Z</time>
      </trkpt>
      <trkpt lat="44.09137" lon="6.2468">
        <ele>614.7</ele>
        <time>2018-08-09T05:59:30Z</time>
      </trkpt>
      <trkpt lat="44.09136" lon="6.24685">
        <ele>614.7</ele>
        <time>2018-08-09T05:59:31Z</time>
      </trkpt>
      <trkpt lat="44.09135" lon="6.24691">
        <ele>614.7</ele>
        <time>2018-08-09T05:59:32Z</time>
      </trkpt>
      <trkpt lat="44.09134" lon="6.24696">
        <ele>614.7</ele>
        <time>2018-08-09T05:59:33Z</time>
      </trkpt>
      <trkpt lat="44.09133" lon="6.24701">
        <ele>614.7</ele>
        <time>2018-08-09T05:59:34Z</time>
      </trkpt>
      <trkpt lat="44.09132" lon="6.24706">
        <ele>614.8</ele>
        <time>2018-08-09T05:59:35Z</time>
      </trkpt>
      <trkpt lat="44.0913" lon="6.24712">
        <ele>614.8</ele>
        <time>2018-08-09T05:59:36Z</time>
      </trkpt>
      <trkpt lat="44.09129" lon="6.24717">
        <ele>614.8</ele>
        <time>2018-08-09T05:59:37Z</time>
      </trkpt>
      <trkpt lat="44.09128" lon="6.24723">
        <ele>614.8</ele>
        <time>2018-08-09T05:59:38Z</time>
      </trkpt>
      <trkpt lat="44.09127" lon="6.24728">
        <ele>614.9</ele>
        <time>2018-08-09T05:59:39Z</time>
      </trkpt>
      <trkpt lat="44.09125" lon="6.24733">
        <ele>614.9</ele>
        <time>2018-08-09T05:59:40Z</time>
      </trkpt>
      <trkpt lat="44.09124" lon="6.24738">
        <ele>614.9</ele>
        <time>2018-08-09T05:59:41Z</time>
      </trkpt>
      <trkpt lat="44.09123" lon="6.24743">
        <ele>614.9</ele>
        <time>2018-08-09T05:59:42Z</time>
      </trkpt>
      <trkpt lat="44.09121" lon="6.24747">
        <ele>614.9</ele>
        <time>2018-08-09T05:59:43Z</time>
      </trkpt>
      <trkpt lat="44.0912" lon="6.24751">
        <ele>615</ele>
        <time>2018-08-09T05:59:44Z</time>
      </trkpt>
      <trkpt lat="44.09119" lon="6.24756">
        <ele>615</ele>
        <time>2018-08-09T05:59:45Z</time>
      </trkpt>
      <trkpt lat="44.09118" lon="6.24761">
        <ele>615</ele>
        <time>2018-08-09T05:59:46Z</time>
      </trkpt>
      <trkpt lat="44.09116" lon="6.24766">
        <ele>615</ele>
        <time>2018-08-09T05:59:47Z</time>
      </trkpt>
      <trkpt lat="44.09115" lon="6.24771">
        <ele>615.1</ele>
        <time>2018-08-09T05:59:48Z</time>
      </trkpt>
      <trkpt lat="44.09113" lon="6.24775">
        <ele>615.1</ele>
        <time>2018-08-09T05:59:49Z</time>
      </trkpt>
      <trkpt lat="44.09111" lon="6.24781">
        <ele>615.2</ele>
        <time>2018-08-09T05:59:50Z</time>
      </trkpt>
      <trkpt lat="44.09109" lon="6.24786">
        <ele>615.3</ele>
        <time>2018-08-09T05:59:51Z</time>
      </trkpt>
      <trkpt lat="44.09107" lon="6.2479">
        <ele>615.4</ele>
        <time>2018-08-09T05:59:52Z</time>
      </trkpt>
      <trkpt lat="44.09104" lon="6.24794">
        <ele>615.4</ele>
        <time>2018-08-09T05:59:53Z</time>
      </trkpt>
      <trkpt lat="44.09102" lon="6.24798">
        <ele>615.5</ele>
        <time>2018-08-09T05:59:54Z</time>
      </trkpt>
      <trkpt lat="44.091" lon="6.24803">
        <ele>615.6</ele>
        <time>2018-08-09T05:59:55Z</time>
      </trkpt>
      <trkpt lat="44.09098" lon="6.24807">
        <ele>615.8</ele>
        <time>2018-08-09T05:59:56Z</time>
      </trkpt>
      <trkpt lat="44.09095" lon="6.24811">
        <ele>616</ele>
        <time>2018-08-09T05:59:57Z</time>
      </trkpt>
      <trkpt lat="44.09093" lon="6.24816">
        <ele>616.2</ele>
        <time>2018-08-09T05:59:58Z</time>
      </trkpt>
      <trkpt lat="44.09091" lon="6.2482">
        <ele>616.4</ele>
        <time>2018-08-09T05:59:59Z</time>
      </trkpt>
      <trkpt lat="44.09089" lon="6.24824">
        <ele>616.6</ele>
        <time>2018-08-09T06:00:00Z</time>
      </trkpt>
      <trkpt lat="44.09087" lon="6.24828">
        <ele>616.8</ele>
        <time>2018-08-09T06:00:01Z</time>
      </trkpt>
      <trkpt lat="44.09084" lon="6.24833">
        <ele>617</ele>
        <time>2018-08-09T06:00:02Z</time>
      </trkpt>
      <trkpt lat="44.09082" lon="6.24836">
        <ele>617.1</ele>
        <time>2018-08-09T06:00:03Z</time>
      </trkpt>
      <trkpt lat="44.09079" lon="6.24839">
        <ele>617.2</ele>
        <time>2018-08-09T06:00:04Z</time>
      </trkpt>
      <trkpt lat="44.09077" lon="6.24843">
        <ele>617.4</ele>
        <time>2018-08-09T06:00:05Z</time>
      </trkpt>
      <trkpt lat="44.09075" lon="6.24847">
        <ele>617.5</ele>
        <time>2018-08-09T06:00:06Z</time>
      </trkpt>
      <trkpt lat="44.09072" lon="6.24851">
        <ele>617.5</ele>
        <time>2018-08-09T06:00:07Z</time>
      </trkpt>
      <trkpt lat="44.0907" lon="6.24856">
        <ele>617.6</ele>
        <time>2018-08-09T06:00:08Z</time>
      </trkpt>
      <trkpt lat="44.09068" lon="6.2486">
        <ele>617.7</ele>
        <time>2018-08-09T06:00:09Z</time>
      </trkpt>
      <trkpt lat="44.09065" lon="6.24865">
        <ele>617.8</ele>
        <time>2018-08-09T06:00:10Z</time>
      </trkpt>
      <trkpt lat="44.09063" lon="6.2487">
        <ele>617.8</ele>
        <time>2018-08-09T06:00:11Z</time>
      </trkpt>
      <trkpt lat="44.09061" lon="6.24873">
        <ele>617.9</ele>
        <time>2018-08-09T06:00:12Z</time>
      </trkpt>
      <trkpt lat="44.09059" lon="6.24877">
        <ele>618</ele>
        <time>2018-08-09T06:00:13Z</time>
      </trkpt>
      <trkpt lat="44.09056" lon="6.2488">
        <ele>618</ele>
        <time>2018-08-09T06:00:14Z</time>
      </trkpt>
      <trkpt lat="44.09053" lon="6.24883">
        <ele>618.2</ele>
        <time>2018-08-09T06:00:15Z</time>
      </trkpt>
      <trkpt lat="44.0905" lon="6.24887">
        <ele>618.4</ele>
        <time>2018-08-09T06:00:16Z</time>
      </trkpt>
      <trkpt lat="44.09048" lon="6.2489">
        <ele>618.6</ele>
        <time>2018-08-09T06:00:17Z</time>
      </trkpt>
      <trkpt lat="44.09045" lon="6.24893">
        <ele>618.8</ele>
        <time>2018-08-09T06:00:18Z</time>
      </trkpt>
      <trkpt lat="44.09042" lon="6.24896">
        <ele>619</ele>
        <time>2018-08-09T06:00:19Z</time>
      </trkpt>
      <trkpt lat="44.09039" lon="6.24899">
        <ele>619.2</ele>
        <time>2018-08-09T06:00:20Z</time>
      </trkpt>
      <trkpt lat="44.09036" lon="6.24903">
        <ele>619.4</ele>
        <time>2018-08-09T06:00:21Z</time>
      </trkpt>
      <trkpt lat="44.09034" lon="6.24906">
        <ele>619.5</ele>
        <time>2018-08-09T06:00:22Z</time>
      </trkpt>
      <trkpt lat="44.0903" lon="6.24908">
        <ele>619.6</ele>
        <time>2018-08-09T06:00:23Z</time>
      </trkpt>
      <trkpt lat="44.09027" lon="6.24909">
        <ele>619.6</ele>
        <time>2018-08-09T06:00:24Z</time>
      </trkpt>
      <trkpt lat="44.09025" lon="6.24913">
        <ele>619.7</ele>
        <time>2018-08-09T06:00:25Z</time>
      </trkpt>
      <trkpt lat="44.09022" lon="6.24917">
        <ele>619.8</ele>
        <time>2018-08-09T06:00:26Z</time>
      </trkpt>
      <trkpt lat="44.0902" lon="6.24922">
        <ele>619.9</ele>
        <time>2018-08-09T06:00:27Z</time>
      </trkpt>
      <trkpt lat="44.09018" lon="6.24927">
        <ele>620.1</ele>
        <time>2018-08-09T06:00:28Z</time>
      </trkpt>
      <trkpt lat="44.09017" lon="6.24931">
        <ele>620.2</ele>
        <time>2018-08-09T06:00:29Z</time>
      </trkpt>
      <trkpt lat="44.09015" lon="6.24935">
        <ele>620.2</ele>
        <time>2018-08-09T06:00:30Z</time>
      </trkpt>
      <trkpt lat="44.09014" lon="6.24941">
        <ele>620.3</ele>
        <time>2018-08-09T06:00:31Z</time>
      </trkpt>
      <trkpt lat="44.09013" lon="6.24946">
        <ele>620.4</ele>
        <time>2018-08-09T06:00:32Z</time>
      </trkpt>
      <trkpt lat="44.09012" lon="6.24951">
        <ele>620.4</ele>
        <time>2018-08-09T06:00:33Z</time>
      </trkpt>
      <trkpt lat="44.09011" lon="6.24956">
        <ele>620.5</ele>
        <time>2018-08-09T06:00:34Z</time>
      </trkpt>
      <trkpt lat="44.0901" lon="6.24961">
        <ele>620.6</ele>
        <time>2018-08-09T06:00:35Z</time>
      </trkpt>
      <trkpt lat="44.0901" lon="6.24967">
        <ele>620.6</ele>
        <time>2018-08-09T06:00:36Z</time>
      </trkpt>
      <trkpt lat="44.09009" lon="6.24972">
        <ele>620.7</ele>
        <time>2018-08-09T06:00:37Z</time>
      </trkpt>
      <trkpt lat="44.09008" lon="6.24976">
        <ele>620.8</ele>
        <time>2018-08-09T06:00:38Z</time>
      </trkpt>
      <trkpt lat="44.09007" lon="6.2498">
        <ele>621</ele>
        <time>2018-08-09T06:00:39Z</time>
      </trkpt>
      <trkpt lat="44.09005" lon="6.24985">
        <ele>621.2</ele>
        <time>2018-08-09T06:00:40Z</time>
      </trkpt>
      <trkpt lat="44.09004" lon="6.24989">
        <ele>621.4</ele>
        <time>2018-08-09T06:00:41Z</time>
      </trkpt>
      <trkpt lat="44.09002" lon="6.24993">
        <ele>621.6</ele>
        <time>2018-08-09T06:00:42Z</time>
      </trkpt>
      <trkpt lat="44.08999" lon="6.24998">
        <ele>621.8</ele>
        <time>2018-08-09T06:00:43Z</time>
      </trkpt>
      <trkpt lat="44.08997" lon="6.25001">
        <ele>622</ele>
        <time>2018-08-09T06:00:44Z</time>
      </trkpt>
      <trkpt lat="44.08995" lon="6.25005">
        <ele>622.1</ele>
        <time>2018-08-09T06:00:45Z</time>
      </trkpt>
      <trkpt lat="44.08992" lon="6.2501">
        <ele>622.3</ele>
        <time>2018-08-09T06:00:46Z</time>
      </trkpt>
      <trkpt lat="44.08991" lon="6.25016">
        <ele>622.4</ele>
        <time>2018-08-09T06:00:47Z</time>
      </trkpt>
      <trkpt lat="44.08988" lon="6.25021">
        <ele>622.5</ele>
        <time>2018-08-09T06:00:48Z</time>
      </trkpt>
      <trkpt lat="44.08987" lon="6.25026">
        <ele>622.6</ele>
        <time>2018-08-09T06:00:49Z</time>
      </trkpt>
      <trkpt lat="44.08985" lon="6.2503">
        <ele>622.7</ele>
        <time>2018-08-09T06:00:50Z</time>
      </trkpt>
      <trkpt lat="44.08984" lon="6.25034">
        <ele>622.7</ele>
        <time>2018-08-09T06:00:51Z</time>
      </trkpt>
      <trkpt lat="44.08982" lon="6.25039">
        <ele>622.8</ele>
        <time>2018-08-09T06:00:52Z</time>
      </trkpt>
      <trkpt lat="44.08981" lon="6.25044">
        <ele>622.9</ele>
        <time>2018-08-09T06:00:53Z</time>
      </trkpt>
      <trkpt lat="44.0898" lon="6.25049">
        <ele>622.9</ele>
        <time>2018-08-09T06:00:54Z</time>
      </trkpt>
      <trkpt lat="44.0898" lon="6.25054">
        <ele>623</ele>
        <time>2018-08-09T06:00:55Z</time>
      </trkpt>
      <trkpt lat="44.08978" lon="6.25058">
        <ele>623</ele>
        <time>2018-08-09T06:00:56Z</time>
      </trkpt>
      <trkpt lat="44.08977" lon="6.25063">
        <ele>623.1</ele>
        <time>2018-08-09T06:00:57Z</time>
      </trkpt>
      <trkpt lat="44.08976" lon="6.25068">
        <ele>623.1</ele>
        <time>2018-08-09T06:00:58Z</time>
      </trkpt>
      <trkpt lat="44.08974" lon="6.25073">
        <ele>623.2</ele>
        <time>2018-08-09T06:00:59Z</time>
      </trkpt>
      <trkpt lat="44.08973" lon="6.25078">
        <ele>623.2</ele>
        <time>2018-08-09T06:01:00Z</time>
      </trkpt>
      <trkpt lat="44.08972" lon="6.25084">
        <ele>623.3</ele>
        <time>2018-08-09T06:01:01Z</time>
      </trkpt>
      <trkpt lat="44.08972" lon="6.25089">
        <ele>623.3</ele>
        <time>2018-08-09T06:01:02Z</time>
      </trkpt>
      <trkpt lat="44.0897" lon="6.25094">
        <ele>623.4</ele>
        <time>2018-08-09T06:01:03Z</time>
      </trkpt>
      <trkpt lat="44.08969" lon="6.25099">
        <ele>623.4</ele>
        <time>2018-08-09T06:01:04Z</time>
      </trkpt>
      <trkpt lat="44.08969" lon="6.25104">
        <ele>623.6</ele>
        <time>2018-08-09T06:01:05Z</time>
      </trkpt>
      <trkpt lat="44.08967" lon="6.2511">
        <ele>623.8</ele>
        <time>2018-08-09T06:01:06Z</time>
      </trkpt>
      <trkpt lat="44.08966" lon="6.25114">
        <ele>624</ele>
        <time>2018-08-09T06:01:07Z</time>
      </trkpt>
      <trkpt lat="44.08965" lon="6.2512">
        <ele>624.2</ele>
        <time>2018-08-09T06:01:08Z</time>
      </trkpt>
      <trkpt lat="44.08964" lon="6.25125">
        <ele>624.5</ele>
        <time>2018-08-09T06:01:09Z</time>
      </trkpt>
      <trkpt lat="44.08963" lon="6.2513">
        <ele>624.6</ele>
        <time>2018-08-09T06:01:10Z</time>
      </trkpt>
      <trkpt lat="44.08961" lon="6.25137">
        <ele>624.8</ele>
        <time>2018-08-09T06:01:12Z</time>
      </trkpt>
      <trkpt lat="44.0896" lon="6.25142">
        <ele>624.9</ele>
        <time>2018-08-09T06:01:13Z</time>
      </trkpt>
      <trkpt lat="44.0896" lon="6.25147">
        <ele>624.9</ele>
        <time>2018-08-09T06:01:14Z</time>
      </trkpt>
      <trkpt lat="44.08959" lon="6.25152">
        <ele>625</ele>
        <time>2018-08-09T06:01:15Z</time>
      </trkpt>
      <trkpt lat="44.08958" lon="6.25156">
        <ele>625</ele>
        <time>2018-08-09T06:01:16Z</time>
      </trkpt>
      <trkpt lat="44.08956" lon="6.2516">
        <ele>625.1</ele>
        <time>2018-08-09T06:01:17Z</time>
      </trkpt>
      <trkpt lat="44.08955" lon="6.25165">
        <ele>625.2</ele>
        <time>2018-08-09T06:01:18Z</time>
      </trkpt>
      <trkpt lat="44.08954" lon="6.2517">
        <ele>625.2</ele>
        <time>2018-08-09T06:01:19Z</time>
      </trkpt>
      <trkpt lat="44.08953" lon="6.25175">
        <ele>625.2</ele>
        <time>2018-08-09T06:01:20Z</time>
      </trkpt>
      <trkpt lat="44.08952" lon="6.2518">
        <ele>625.3</ele>
        <time>2018-08-09T06:01:21Z</time>
      </trkpt>
      <trkpt lat="44.08951" lon="6.25185">
        <ele>625.3</ele>
        <time>2018-08-09T06:01:22Z</time>
      </trkpt>
      <trkpt lat="44.0895" lon="6.2519">
        <ele>625.3</ele>
        <time>2018-08-09T06:01:23Z</time>
      </trkpt>
      <trkpt lat="44.08949" lon="6.25195">
        <ele>625.3</ele>
        <time>2018-08-09T06:01:24Z</time>
      </trkpt>
      <trkpt lat="44.08948" lon="6.25199">
        <ele>625.4</ele>
        <time>2018-08-09T06:01:25Z</time>
      </trkpt>
      <trkpt lat="44.08947" lon="6.25203">
        <ele>625.4</ele>
        <time>2018-08-09T06:01:26Z</time>
      </trkpt>
      <trkpt lat="44.08946" lon="6.25208">
        <ele>625.4</ele>
        <time>2018-08-09T06:01:27Z</time>
      </trkpt>
      <trkpt lat="44.08945" lon="6.25213">
        <ele>625.4</ele>
        <time>2018-08-09T06:01:28Z</time>
      </trkpt>
      <trkpt lat="44.08944" lon="6.25218">
        <ele>625.5</ele>
        <time>2018-08-09T06:01:29Z</time>
      </trkpt>
      <trkpt lat="44.08944" lon="6.25222">
        <ele>625.5</ele>
        <time>2018-08-09T06:01:30Z</time>
      </trkpt>
      <trkpt lat="44.08944" lon="6.25227">
        <ele>625.5</ele>
        <time>2018-08-09T06:01:31Z</time>
      </trkpt>
      <trkpt lat="44.08944" lon="6.25232">
        <ele>625.5</ele>
        <time>2018-08-09T06:01:32Z</time>
      </trkpt>
      <trkpt lat="44.08943" lon="6.25237">
        <ele>625.5</ele>
        <time>2018-08-09T06:01:33Z</time>
      </trkpt>
      <trkpt lat="44.08942" lon="6.25242">
        <ele>625.5</ele>
        <time>2018-08-09T06:01:34Z</time>
      </trkpt>
      <trkpt lat="44.08942" lon="6.25248">
        <ele>625.6</ele>
        <time>2018-08-09T06:01:35Z</time>
      </trkpt>
      <trkpt lat="44.08941" lon="6.25253">
        <ele>625.6</ele>
        <time>2018-08-09T06:01:36Z</time>
      </trkpt>
      <trkpt lat="44.0894" lon="6.25258">
        <ele>625.6</ele>
        <time>2018-08-09T06:01:37Z</time>
      </trkpt>
      <trkpt lat="44.08939" lon="6.25264">
        <ele>625.6</ele>
        <time>2018-08-09T06:01:38Z</time>
      </trkpt>
      <trkpt lat="44.08939" lon="6.25269">
        <ele>625.6</ele>
        <time>2018-08-09T06:01:39Z</time>
      </trkpt>
      <trkpt lat="44.0894" lon="6.25274">
        <ele>625.6</ele>
        <time>2018-08-09T06:01:40Z</time>
      </trkpt>
      <trkpt lat="44.08939" lon="6.25279">
        <ele>625.6</ele>
        <time>2018-08-09T06:01:41Z</time>
      </trkpt>
      <trkpt lat="44.08939" lon="6.25284">
        <ele>625.7</ele>
        <time>2018-08-09T06:01:42Z</time>
      </trkpt>
      <trkpt lat="44.08938" lon="6.2529">
        <ele>625.7</ele>
        <time>2018-08-09T06:01:43Z</time>
      </trkpt>
      <trkpt lat="44.08938" lon="6.25295">
        <ele>625.7</ele>
        <time>2018-08-09T06:01:44Z</time>
      </trkpt>
      <trkpt lat="44.08938" lon="6.253">
        <ele>625.7</ele>
        <time>2018-08-09T06:01:45Z</time>
      </trkpt>
      <trkpt lat="44.08938" lon="6.25305">
        <ele>625.7</ele>
        <time>2018-08-09T06:01:46Z</time>
      </trkpt>
      <trkpt lat="44.08937" lon="6.2531">
        <ele>625.7</ele>
        <time>2018-08-09T06:01:47Z</time>
      </trkpt>
      <trkpt lat="44.08938" lon="6.25315">
        <ele>625.7</ele>
        <time>2018-08-09T06:01:48Z</time>
      </trkpt>
      <trkpt lat="44.08937" lon="6.2532">
        <ele>625.7</ele>
        <time>2018-08-09T06:01:49Z</time>
      </trkpt>
      <trkpt lat="44.08937" lon="6.25325">
        <ele>625.7</ele>
        <time>2018-08-09T06:01:50Z</time>
      </trkpt>
      <trkpt lat="44.08937" lon="6.2533">
        <ele>625.7</ele>
        <time>2018-08-09T06:01:51Z</time>
      </trkpt>
      <trkpt lat="44.08937" lon="6.25335">
        <ele>625.8</ele>
        <time>2018-08-09T06:01:52Z</time>
      </trkpt>
      <trkpt lat="44.08937" lon="6.2534">
        <ele>625.8</ele>
        <time>2018-08-09T06:01:53Z</time>
      </trkpt>
      <trkpt lat="44.08937" lon="6.25345">
        <ele>625.8</ele>
        <time>2018-08-09T06:01:54Z</time>
      </trkpt>
      <trkpt lat="44.08936" lon="6.2535">
        <ele>625.8</ele>
        <time>2018-08-09T06:01:55Z</time>
      </trkpt>
      <trkpt lat="44.08936" lon="6.25356">
        <ele>625.8</ele>
        <time>2018-08-09T06:01:56Z</time>
      </trkpt>
      <trkpt lat="44.08936" lon="6.25361">
        <ele>625.8</ele>
        <time>2018-08-09T06:01:57Z</time>
      </trkpt>
      <trkpt lat="44.08936" lon="6.25367">
        <ele>625.8</ele>
        <time>2018-08-09T06:01:58Z</time>
      </trkpt>
      <trkpt lat="44.08936" lon="6.25372">
        <ele>625.8</ele>
        <time>2018-08-09T06:01:59Z</time>
      </trkpt>
      <trkpt lat="44.08935" lon="6.25377">
        <ele>625.8</ele>
        <time>2018-08-09T06:02:00Z</time>
      </trkpt>
      <trkpt lat="44.08935" lon="6.25382">
        <ele>625.8</ele>
        <time>2018-08-09T06:02:01Z</time>
      </trkpt>
      <trkpt lat="44.08936" lon="6.25388">
        <ele>625.9</ele>
        <time>2018-08-09T06:02:02Z</time>
      </trkpt>
      <trkpt lat="44.08936" lon="6.25394">
        <ele>625.9</ele>
        <time>2018-08-09T06:02:03Z</time>
      </trkpt>
      <trkpt lat="44.08936" lon="6.25399">
        <ele>625.9</ele>
        <time>2018-08-09T06:02:04Z</time>
      </trkpt>
      <trkpt lat="44.08936" lon="6.25405">
        <ele>625.9</ele>
        <time>2018-08-09T06:02:05Z</time>
      </trkpt>
      <trkpt lat="44.08936" lon="6.2541">
        <ele>625.9</ele>
        <time>2018-08-09T06:02:06Z</time>
      </trkpt>
      <trkpt lat="44.08938" lon="6.25415">
        <ele>625.9</ele>
        <time>2018-08-09T06:02:07Z</time>
      </trkpt>
      <trkpt lat="44.08939" lon="6.2542">
        <ele>626</ele>
        <time>2018-08-09T06:02:08Z</time>
      </trkpt>
      <trkpt lat="44.0894" lon="6.25425">
        <ele>626</ele>
        <time>2018-08-09T06:02:09Z</time>
      </trkpt>
      <trkpt lat="44.08941" lon="6.2543">
        <ele>626</ele>
        <time>2018-08-09T06:02:10Z</time>
      </trkpt>
      <trkpt lat="44.08944" lon="6.25434">
        <ele>626.1</ele>
        <time>2018-08-09T06:02:11Z</time>
      </trkpt>
      <trkpt lat="44.08945" lon="6.25438">
        <ele>626.1</ele>
        <time>2018-08-09T06:02:12Z</time>
      </trkpt>
      <trkpt lat="44.08948" lon="6.25441">
        <ele>626.1</ele>
        <time>2018-08-09T06:02:13Z</time>
      </trkpt>
      <trkpt lat="44.08951" lon="6.25445">
        <ele>626.2</ele>
        <time>2018-08-09T06:02:14Z</time>
      </trkpt>
      <trkpt lat="44.08953" lon="6.25449">
        <ele>626.2</ele>
        <time>2018-08-09T06:02:15Z</time>
      </trkpt>
      <trkpt lat="44.08956" lon="6.25453">
        <ele>626.3</ele>
        <time>2018-08-09T06:02:16Z</time>
      </trkpt>
      <trkpt lat="44.08958" lon="6.25456">
        <ele>626.3</ele>
        <time>2018-08-09T06:02:17Z</time>
      </trkpt>
      <trkpt lat="44.08961" lon="6.2546">
        <ele>626.4</ele>
        <time>2018-08-09T06:02:18Z</time>
      </trkpt>
      <trkpt lat="44.08964" lon="6.25465">
        <ele>626.4</ele>
        <time>2018-08-09T06:02:19Z</time>
      </trkpt>
      <trkpt lat="44.08966" lon="6.25468">
        <ele>626.5</ele>
        <time>2018-08-09T06:02:20Z</time>
      </trkpt>
      <trkpt lat="44.08969" lon="6.25472">
        <ele>626.5</ele>
        <time>2018-08-09T06:02:21Z</time>
      </trkpt>
      <trkpt lat="44.08971" lon="6.25475">
        <ele>626.6</ele>
        <time>2018-08-09T06:02:22Z</time>
      </trkpt>
      <trkpt lat="44.08974" lon="6.25478">
        <ele>626.8</ele>
        <time>2018-08-09T06:02:23Z</time>
      </trkpt>
      <trkpt lat="44.08977" lon="6.25483">
        <ele>627</ele>
        <time>2018-08-09T06:02:24Z</time>
      </trkpt>
      <trkpt lat="44.08979" lon="6.25486">
        <ele>627.1</ele>
        <time>2018-08-09T06:02:25Z</time>
      </trkpt>
      <trkpt lat="44.08982" lon="6.25489">
        <ele>627.3</ele>
        <time>2018-08-09T06:02:26Z</time>
      </trkpt>
      <trkpt lat="44.08985" lon="6.25493">
        <ele>627.5</ele>
        <time>2018-08-09T06:02:27Z</time>
      </trkpt>
      <trkpt lat="44.08988" lon="6.25497">
        <ele>627.7</ele>
        <time>2018-08-09T06:02:28Z</time>
      </trkpt>
      <trkpt lat="44.08991" lon="6.255">
        <ele>627.9</ele>
        <time>2018-08-09T06:02:29Z</time>
      </trkpt>
      <trkpt lat="44.08994" lon="6.25504">
        <ele>627.9</ele>
        <time>2018-08-09T06:02:30Z</time>
      </trkpt>
      <trkpt lat="44.08997" lon="6.25509">
        <ele>628</ele>
        <time>2018-08-09T06:02:31Z</time>
      </trkpt>
      <trkpt lat="44.08999" lon="6.25514">
        <ele>628.1</ele>
        <time>2018-08-09T06:02:32Z</time>
      </trkpt>
      <trkpt lat="44.09002" lon="6.25517">
        <ele>628.1</ele>
        <time>2018-08-09T06:02:33Z</time>
      </trkpt>
      <trkpt lat="44.09004" lon="6.25521">
        <ele>628.2</ele>
        <time>2018-08-09T06:02:34Z</time>
      </trkpt>
      <trkpt lat="44.09007" lon="6.25525">
        <ele>628.2</ele>
        <time>2018-08-09T06:02:35Z</time>
      </trkpt>
      <trkpt lat="44.09009" lon="6.25527">
        <ele>628.3</ele>
        <time>2018-08-09T06:02:36Z</time>
      </trkpt>
      <trkpt lat="44.09012" lon="6.25531">
        <ele>628.3</ele>
        <time>2018-08-09T06:02:37Z</time>
      </trkpt>
      <trkpt lat="44.09014" lon="6.25535">
        <ele>628.4</ele>
        <time>2018-08-09T06:02:38Z</time>
      </trkpt>
      <trkpt lat="44.09017" lon="6.2554">
        <ele>628.5</ele>
        <time>2018-08-09T06:02:39Z</time>
      </trkpt>
      <trkpt lat="44.09018" lon="6.25544">
        <ele>628.5</ele>
        <time>2018-08-09T06:02:40Z</time>
      </trkpt>
      <trkpt lat="44.0902" lon="6.25549">
        <ele>628.6</ele>
        <time>2018-08-09T06:02:41Z</time>
      </trkpt>
      <trkpt lat="44.09022" lon="6.25553">
        <ele>628.7</ele>
        <time>2018-08-09T06:02:42Z</time>
      </trkpt>
      <trkpt lat="44.09024" lon="6.25557">
        <ele>628.7</ele>
        <time>2018-08-09T06:02:43Z</time>
      </trkpt>
      <trkpt lat="44.09026" lon="6.25562">
        <ele>628.8</ele>
        <time>2018-08-09T06:02:44Z</time>
      </trkpt>
      <trkpt lat="44.09027" lon="6.25566">
        <ele>628.8</ele>
        <time>2018-08-09T06:02:45Z</time>
      </trkpt>
      <trkpt lat="44.09027" lon="6.25572">
        <ele>628.9</ele>
        <time>2018-08-09T06:02:46Z</time>
      </trkpt>
      <trkpt lat="44.09028" lon="6.25576">
        <ele>628.9</ele>
        <time>2018-08-09T06:02:47Z</time>
      </trkpt>
      <trkpt lat="44.0903" lon="6.2558">
        <ele>628.9</ele>
        <time>2018-08-09T06:02:48Z</time>
      </trkpt>
      <trkpt lat="44.0903" lon="6.25585">
        <ele>628.9</ele>
        <time>2018-08-09T06:02:49Z</time>
      </trkpt>
      <trkpt lat="44.0903" lon="6.25589">
        <ele>629</ele>
        <time>2018-08-09T06:02:50Z</time>
      </trkpt>
      <trkpt lat="44.09031" lon="6.25594">
        <ele>629</ele>
        <time>2018-08-09T06:02:51Z</time>
      </trkpt>
      <trkpt lat="44.09031" lon="6.25598">
        <ele>629</ele>
        <time>2018-08-09T06:02:52Z</time>
      </trkpt>
      <trkpt lat="44.09032" lon="6.25603">
        <ele>628.9</ele>
        <time>2018-08-09T06:02:53Z</time>
      </trkpt>
      <trkpt lat="44.09032" lon="6.25607">
        <ele>628.8</ele>
        <time>2018-08-09T06:02:54Z</time>
      </trkpt>
      <trkpt lat="44.09033" lon="6.25612">
        <ele>628.8</ele>
        <time>2018-08-09T06:02:55Z</time>
      </trkpt>
      <trkpt lat="44.09033" lon="6.25617">
        <ele>628.7</ele>
        <time>2018-08-09T06:02:56Z</time>
      </trkpt>
      <trkpt lat="44.09034" lon="6.25621">
        <ele>628.7</ele>
        <time>2018-08-09T06:02:57Z</time>
      </trkpt>
      <trkpt lat="44.09034" lon="6.25626">
        <ele>628.6</ele>
        <time>2018-08-09T06:02:58Z</time>
      </trkpt>
      <trkpt lat="44.09034" lon="6.25631">
        <ele>628.5</ele>
        <time>2018-08-09T06:02:59Z</time>
      </trkpt>
      <trkpt lat="44.09034" lon="6.25636">
        <ele>628.5</ele>
        <time>2018-08-09T06:03:00Z</time>
      </trkpt>
      <trkpt lat="44.09034" lon="6.25642">
        <ele>628.5</ele>
        <time>2018-08-09T06:03:01Z</time>
      </trkpt>
      <trkpt lat="44.09034" lon="6.25647">
        <ele>628.5</ele>
        <time>2018-08-09T06:03:02Z</time>
      </trkpt>
      <trkpt lat="44.09035" lon="6.25651">
        <ele>628.5</ele>
        <time>2018-08-09T06:03:03Z</time>
      </trkpt>
      <trkpt lat="44.09036" lon="6.25656">
        <ele>628.6</ele>
        <time>2018-08-09T06:03:04Z</time>
      </trkpt>
      <trkpt lat="44.09036" lon="6.25662">
        <ele>628.6</ele>
        <time>2018-08-09T06:03:05Z</time>
      </trkpt>
      <trkpt lat="44.09037" lon="6.25667">
        <ele>628.7</ele>
        <time>2018-08-09T06:03:06Z</time>
      </trkpt>
      <trkpt lat="44.09038" lon="6.25671">
        <ele>628.7</ele>
        <time>2018-08-09T06:03:07Z</time>
      </trkpt>
      <trkpt lat="44.0904" lon="6.25676">
        <ele>628.8</ele>
        <time>2018-08-09T06:03:08Z</time>
      </trkpt>
      <trkpt lat="44.09041" lon="6.2568">
        <ele>628.8</ele>
        <time>2018-08-09T06:03:09Z</time>
      </trkpt>
      <trkpt lat="44.09044" lon="6.25684">
        <ele>628.9</ele>
        <time>2018-08-09T06:03:10Z</time>
      </trkpt>
      <trkpt lat="44.09046" lon="6.25689">
        <ele>628.9</ele>
        <time>2018-08-09T06:03:11Z</time>
      </trkpt>
      <trkpt lat="44.09049" lon="6.25693">
        <ele>629</ele>
        <time>2018-08-09T06:03:12Z</time>
      </trkpt>
      <trkpt lat="44.09051" lon="6.25696">
        <ele>629.2</ele>
        <time>2018-08-09T06:03:13Z</time>
      </trkpt>
      <trkpt lat="44.09053" lon="6.257">
        <ele>629.4</ele>
        <time>2018-08-09T06:03:14Z</time>
      </trkpt>
      <trkpt lat="44.09056" lon="6.25704">
        <ele>629.6</ele>
        <time>2018-08-09T06:03:15Z</time>
      </trkpt>
      <trkpt lat="44.09058" lon="6.25708">
        <ele>629.7</ele>
        <time>2018-08-09T06:03:16Z</time>
      </trkpt>
      <trkpt lat="44.0906" lon="6.25711">
        <ele>629.8</ele>
        <time>2018-08-09T06:03:17Z</time>
      </trkpt>
      <trkpt lat="44.09062" lon="6.25716">
        <ele>629.9</ele>
        <time>2018-08-09T06:03:18Z</time>
      </trkpt>
      <trkpt lat="44.09064" lon="6.2572">
        <ele>630</ele>
        <time>2018-08-09T06:03:19Z</time>
      </trkpt>
      <trkpt lat="44.09065" lon="6.25725">
        <ele>630.1</ele>
        <time>2018-08-09T06:03:20Z</time>
      </trkpt>
      <trkpt lat="44.09067" lon="6.2573">
        <ele>630.3</ele>
        <time>2018-08-09T06:03:21Z</time>
      </trkpt>
      <trkpt lat="44.09068" lon="6.25735">
        <ele>630.4</ele>
        <time>2018-08-09T06:03:22Z</time>
      </trkpt>
      <trkpt lat="44.09069" lon="6.2574">
        <ele>630.5</ele>
        <time>2018-08-09T06:03:23Z</time>
      </trkpt>
      <trkpt lat="44.09069" lon="6.25746">
        <ele>630.6</ele>
        <time>2018-08-09T06:03:24Z</time>
      </trkpt>
      <trkpt lat="44.09069" lon="6.25751">
        <ele>630.6</ele>
        <time>2018-08-09T06:03:25Z</time>
      </trkpt>
      <trkpt lat="44.09069" lon="6.25756">
        <ele>630.7</ele>
        <time>2018-08-09T06:03:26Z</time>
      </trkpt>
      <trkpt lat="44.09068" lon="6.2576">
        <ele>630.8</ele>
        <time>2018-08-09T06:03:27Z</time>
      </trkpt>
      <trkpt lat="44.09069" lon="6.25764">
        <ele>630.8</ele>
        <time>2018-08-09T06:03:28Z</time>
      </trkpt>
      <trkpt lat="44.09069" lon="6.25769">
        <ele>630.9</ele>
        <time>2018-08-09T06:03:29Z</time>
      </trkpt>
      <trkpt lat="44.09069" lon="6.25774">
        <ele>630.9</ele>
        <time>2018-08-09T06:03:30Z</time>
      </trkpt>
      <trkpt lat="44.0907" lon="6.2578">
        <ele>630.9</ele>
        <time>2018-08-09T06:03:31Z</time>
      </trkpt>
      <trkpt lat="44.0907" lon="6.25785">
        <ele>630.9</ele>
        <time>2018-08-09T06:03:32Z</time>
      </trkpt>
      <trkpt lat="44.0907" lon="6.25791">
        <ele>630.9</ele>
        <time>2018-08-09T06:03:33Z</time>
      </trkpt>
      <trkpt lat="44.0907" lon="6.25796">
        <ele>630.8</ele>
        <time>2018-08-09T06:03:34Z</time>
      </trkpt>
      <trkpt lat="44.0907" lon="6.25801">
        <ele>630.8</ele>
        <time>2018-08-09T06:03:35Z</time>
      </trkpt>
      <trkpt lat="44.0907" lon="6.25805">
        <ele>630.7</ele>
        <time>2018-08-09T06:03:36Z</time>
      </trkpt>
      <trkpt lat="44.0907" lon="6.2581">
        <ele>630.7</ele>
        <time>2018-08-09T06:03:37Z</time>
      </trkpt>
      <trkpt lat="44.0907" lon="6.25815">
        <ele>630.6</ele>
        <time>2018-08-09T06:03:38Z</time>
      </trkpt>
      <trkpt lat="44.09069" lon="6.25819">
        <ele>630.5</ele>
        <time>2018-08-09T06:03:39Z</time>
      </trkpt>
      <trkpt lat="44.09068" lon="6.25824">
        <ele>630.5</ele>
        <time>2018-08-09T06:03:40Z</time>
      </trkpt>
      <trkpt lat="44.09068" lon="6.25829">
        <ele>630.2</ele>
        <time>2018-08-09T06:03:41Z</time>
      </trkpt>
      <trkpt lat="44.09068" lon="6.25834">
        <ele>630</ele>
        <time>2018-08-09T06:03:42Z</time>
      </trkpt>
      <trkpt lat="44.09068" lon="6.2584">
        <ele>629.9</ele>
        <time>2018-08-09T06:03:43Z</time>
      </trkpt>
      <trkpt lat="44.09066" lon="6.25844">
        <ele>629.7</ele>
        <time>2018-08-09T06:03:44Z</time>
      </trkpt>
      <trkpt lat="44.09066" lon="6.25849">
        <ele>629.6</ele>
        <time>2018-08-09T06:03:45Z</time>
      </trkpt>
      <trkpt lat="44.09065" lon="6.25854">
        <ele>629.5</ele>
        <time>2018-08-09T06:03:46Z</time>
      </trkpt>
      <trkpt lat="44.09064" lon="6.25859">
        <ele>629.3</ele>
        <time>2018-08-09T06:03:47Z</time>
      </trkpt>
      <trkpt lat="44.09063" lon="6.25864">
        <ele>629.2</ele>
        <time>2018-08-09T06:03:48Z</time>
      </trkpt>
      <trkpt lat="44.09062" lon="6.2587">
        <ele>629</ele>
        <time>2018-08-09T06:03:49Z</time>
      </trkpt>
      <trkpt lat="44.09061" lon="6.25875">
        <ele>628.9</ele>
        <time>2018-08-09T06:03:50Z</time>
      </trkpt>
      <trkpt lat="44.0906" lon="6.2588">
        <ele>628.7</ele>
        <time>2018-08-09T06:03:51Z</time>
      </trkpt>
      <trkpt lat="44.09058" lon="6.25884">
        <ele>628.4</ele>
        <time>2018-08-09T06:03:52Z</time>
      </trkpt>
      <trkpt lat="44.09056" lon="6.25889">
        <ele>628.2</ele>
        <time>2018-08-09T06:03:53Z</time>
      </trkpt>
      <trkpt lat="44.09054" lon="6.25892">
        <ele>628.1</ele>
        <time>2018-08-09T06:03:54Z</time>
      </trkpt>
      <trkpt lat="44.09051" lon="6.25897">
        <ele>628</ele>
        <time>2018-08-09T06:03:55Z</time>
      </trkpt>
      <trkpt lat="44.09048" lon="6.25898">
        <ele>627.9</ele>
        <time>2018-08-09T06:03:56Z</time>
      </trkpt>
      <trkpt lat="44.09046" lon="6.25902">
        <ele>627.7</ele>
        <time>2018-08-09T06:03:57Z</time>
      </trkpt>
      <trkpt lat="44.09043" lon="6.25907">
        <ele>627.6</ele>
        <time>2018-08-09T06:03:58Z</time>
      </trkpt>
      <trkpt lat="44.0904" lon="6.2591">
        <ele>627.5</ele>
        <time>2018-08-09T06:03:59Z</time>
      </trkpt>
      <trkpt lat="44.09037" lon="6.25914">
        <ele>627.6</ele>
        <time>2018-08-09T06:04:00Z</time>
      </trkpt>
      <trkpt lat="44.09034" lon="6.25918">
        <ele>627.7</ele>
        <time>2018-08-09T06:04:01Z</time>
      </trkpt>
      <trkpt lat="44.09031" lon="6.25923">
        <ele>628</ele>
        <time>2018-08-09T06:04:02Z</time>
      </trkpt>
      <trkpt lat="44.09028" lon="6.25927">
        <ele>628.4</ele>
        <time>2018-08-09T06:04:03Z</time>
      </trkpt>
      <trkpt lat="44.09025" lon="6.2593">
        <ele>628.7</ele>
        <time>2018-08-09T06:04:04Z</time>
      </trkpt>
      <trkpt lat="44.09023" lon="6.25935">
        <ele>628.9</ele>
        <time>2018-08-09T06:04:05Z</time>
      </trkpt>
      <trkpt lat="44.09019" lon="6.25937">
        <ele>629.1</ele>
        <time>2018-08-09T06:04:06Z</time>
      </trkpt>
      <trkpt lat="44.09017" lon="6.25941">
        <ele>629.4</ele>
        <time>2018-08-09T06:04:07Z</time>
      </trkpt>
      <trkpt lat="44.09014" lon="6.25944">
        <ele>629.6</ele>
        <time>2018-08-09T06:04:08Z</time>
      </trkpt>
      <trkpt lat="44.09012" lon="6.2595">
        <ele>629.8</ele>
        <time>2018-08-09T06:04:09Z</time>
      </trkpt>
      <trkpt lat="44.09009" lon="6.25954">
        <ele>629.9</ele>
        <time>2018-08-09T06:04:10Z</time>
      </trkpt>
      <trkpt lat="44.09006" lon="6.25956">
        <ele>630.1</ele>
        <time>2018-08-09T06:04:11Z</time>
      </trkpt>
      <trkpt lat="44.09004" lon="6.25961">
        <ele>630.2</ele>
        <time>2018-08-09T06:04:12Z</time>
      </trkpt>
      <trkpt lat="44.09002" lon="6.25965">
        <ele>630.4</ele>
        <time>2018-08-09T06:04:13Z</time>
      </trkpt>
      <trkpt lat="44.09001" lon="6.25971">
        <ele>630.5</ele>
        <time>2018-08-09T06:04:14Z</time>
      </trkpt>
      <trkpt lat="44.08999" lon="6.25976">
        <ele>630.6</ele>
        <time>2018-08-09T06:04:15Z</time>
      </trkpt>
      <trkpt lat="44.08997" lon="6.25981">
        <ele>630.8</ele>
        <time>2018-08-09T06:04:16Z</time>
      </trkpt>
      <trkpt lat="44.08996" lon="6.25987">
        <ele>630.9</ele>
        <time>2018-08-09T06:04:17Z</time>
      </trkpt>
      <trkpt lat="44.08995" lon="6.25993">
        <ele>630.9</ele>
        <time>2018-08-09T06:04:18Z</time>
      </trkpt>
      <trkpt lat="44.08993" lon="6.25999">
        <ele>630.9</ele>
        <time>2018-08-09T06:04:19Z</time>
      </trkpt>
      <trkpt lat="44.08992" lon="6.26003">
        <ele>630.8</ele>
        <time>2018-08-09T06:04:20Z</time>
      </trkpt>
      <trkpt lat="44.0899" lon="6.26008">
        <ele>630.8</ele>
        <time>2018-08-09T06:04:21Z</time>
      </trkpt>
      <trkpt lat="44.08989" lon="6.26014">
        <ele>630.7</ele>
        <time>2018-08-09T06:04:22Z</time>
      </trkpt>
      <trkpt lat="44.08988" lon="6.26019">
        <ele>630.6</ele>
        <time>2018-08-09T06:04:23Z</time>
      </trkpt>
      <trkpt lat="44.08987" lon="6.26024">
        <ele>630.5</ele>
        <time>2018-08-09T06:04:24Z</time>
      </trkpt>
      <trkpt lat="44.08985" lon="6.26029">
        <ele>630.4</ele>
        <time>2018-08-09T06:04:25Z</time>
      </trkpt>
      <trkpt lat="44.08983" lon="6.26033">
        <ele>630.4</ele>
        <time>2018-08-09T06:04:26Z</time>
      </trkpt>
      <trkpt lat="44.08982" lon="6.26039">
        <ele>630.3</ele>
        <time>2018-08-09T06:04:27Z</time>
      </trkpt>
      <trkpt lat="44.08981" lon="6.26044">
        <ele>630.2</ele>
        <time>2018-08-09T06:04:28Z</time>
      </trkpt>
      <trkpt lat="44.0898" lon="6.26049">
        <ele>630.1</ele>
        <time>2018-08-09T06:04:29Z</time>
      </trkpt>
      <trkpt lat="44.08979" lon="6.26055">
        <ele>630.1</ele>
        <time>2018-08-09T06:04:30Z</time>
      </trkpt>
      <trkpt lat="44.08978" lon="6.2606">
        <ele>630.5</ele>
        <time>2018-08-09T06:04:31Z</time>
      </trkpt>
      <trkpt lat="44.08977" lon="6.26066">
        <ele>630.9</ele>
        <time>2018-08-09T06:04:32Z</time>
      </trkpt>
      <trkpt lat="44.08976" lon="6.26071">
        <ele>631.2</ele>
        <time>2018-08-09T06:04:33Z</time>
      </trkpt>
      <trkpt lat="44.08974" lon="6.26076">
        <ele>631.6</ele>
        <time>2018-08-09T06:04:34Z</time>
      </trkpt>
      <trkpt lat="44.08973" lon="6.26082">
        <ele>632</ele>
        <time>2018-08-09T06:04:35Z</time>
      </trkpt>
      <trkpt lat="44.08972" lon="6.26087">
        <ele>632.4</ele>
        <time>2018-08-09T06:04:36Z</time>
      </trkpt>
      <trkpt lat="44.08971" lon="6.26092">
        <ele>632.8</ele>
        <time>2018-08-09T06:04:37Z</time>
      </trkpt>
      <trkpt lat="44.0897" lon="6.26098">
        <ele>633.2</ele>
        <time>2018-08-09T06:04:38Z</time>
      </trkpt>
      <trkpt lat="44.08969" lon="6.26104">
        <ele>633.6</ele>
        <time>2018-08-09T06:04:39Z</time>
      </trkpt>
      <trkpt lat="44.08968" lon="6.26109">
        <ele>634</ele>
        <time>2018-08-09T06:04:40Z</time>
      </trkpt>
      <trkpt lat="44.08966" lon="6.26114">
        <ele>634.4</ele>
        <time>2018-08-09T06:04:41Z</time>
      </trkpt>
      <trkpt lat="44.08965" lon="6.26119">
        <ele>634.7</ele>
        <time>2018-08-09T06:04:42Z</time>
      </trkpt>
      <trkpt lat="44.08963" lon="6.26124">
        <ele>635.1</ele>
        <time>2018-08-09T06:04:43Z</time>
      </trkpt>
      <trkpt lat="44.0896" lon="6.26129">
        <ele>635.5</ele>
        <time>2018-08-09T06:04:44Z</time>
      </trkpt>
      <trkpt lat="44.08957" lon="6.26133">
        <ele>635.9</ele>
        <time>2018-08-09T06:04:45Z</time>
      </trkpt>
      <trkpt lat="44.08954" lon="6.26137">
        <ele>636.2</ele>
        <time>2018-08-09T06:04:46Z</time>
      </trkpt>
      <trkpt lat="44.08951" lon="6.26141">
        <ele>636.8</ele>
        <time>2018-08-09T06:04:47Z</time>
      </trkpt>
      <trkpt lat="44.08948" lon="6.26144">
        <ele>637.8</ele>
        <time>2018-08-09T06:04:48Z</time>
      </trkpt>
      <trkpt lat="44.08945" lon="6.26147">
        <ele>638.6</ele>
        <time>2018-08-09T06:04:49Z</time>
      </trkpt>
      <trkpt lat="44.08941" lon="6.26151">
        <ele>639.2</ele>
        <time>2018-08-09T06:04:50Z</time>
      </trkpt>
      <trkpt lat="44.08938" lon="6.26155">
        <ele>639.9</ele>
        <time>2018-08-09T06:04:51Z</time>
      </trkpt>
      <trkpt lat="44.08936" lon="6.2616">
        <ele>640.6</ele>
        <time>2018-08-09T06:04:52Z</time>
      </trkpt>
      <trkpt lat="44.08933" lon="6.26163">
        <ele>641.2</ele>
        <time>2018-08-09T06:04:53Z</time>
      </trkpt>
      <trkpt lat="44.0893" lon="6.26167">
        <ele>641.8</ele>
        <time>2018-08-09T06:04:54Z</time>
      </trkpt>
      <trkpt lat="44.08927" lon="6.26171">
        <ele>642.5</ele>
        <time>2018-08-09T06:04:55Z</time>
      </trkpt>
      <trkpt lat="44.08924" lon="6.26175">
        <ele>643.1</ele>
        <time>2018-08-09T06:04:56Z</time>
      </trkpt>
      <trkpt lat="44.0892" lon="6.26179">
        <ele>643.8</ele>
        <time>2018-08-09T06:04:57Z</time>
      </trkpt>
      <trkpt lat="44.08916" lon="6.26182">
        <ele>644.4</ele>
        <time>2018-08-09T06:04:58Z</time>
      </trkpt>
      <trkpt lat="44.08913" lon="6.26186">
        <ele>645</ele>
        <time>2018-08-09T06:04:59Z</time>
      </trkpt>
      <trkpt lat="44.0891" lon="6.26189">
        <ele>645.6</ele>
        <time>2018-08-09T06:05:00Z</time>
      </trkpt>
      <trkpt lat="44.08906" lon="6.26193">
        <ele>646.2</ele>
        <time>2018-08-09T06:05:01Z</time>
      </trkpt>
      <trkpt lat="44.08903" lon="6.26197">
        <ele>647.2</ele>
        <time>2018-08-09T06:05:02Z</time>
      </trkpt>
      <trkpt lat="44.089" lon="6.26201">
        <ele>648.1</ele>
        <time>2018-08-09T06:05:03Z</time>
      </trkpt>
      <trkpt lat="44.08898" lon="6.26206">
        <ele>648.5</ele>
        <time>2018-08-09T06:05:04Z</time>
      </trkpt>
      <trkpt lat="44.08896" lon="6.2621">
        <ele>648.6</ele>
        <time>2018-08-09T06:05:05Z</time>
      </trkpt>
      <trkpt lat="44.08894" lon="6.26214">
        <ele>648.5</ele>
        <time>2018-08-09T06:05:06Z</time>
      </trkpt>
      <trkpt lat="44.08893" lon="6.26218">
        <ele>648.4</ele>
        <time>2018-08-09T06:05:07Z</time>
      </trkpt>
      <trkpt lat="44.08891" lon="6.26223">
        <ele>648.3</ele>
        <time>2018-08-09T06:05:08Z</time>
      </trkpt>
      <trkpt lat="44.0889" lon="6.26229">
        <ele>648.1</ele>
        <time>2018-08-09T06:05:09Z</time>
      </trkpt>
      <trkpt lat="44.08887" lon="6.26234">
        <ele>647.9</ele>
        <time>2018-08-09T06:05:10Z</time>
      </trkpt>
      <trkpt lat="44.08885" lon="6.2624">
        <ele>647.6</ele>
        <time>2018-08-09T06:05:11Z</time>
      </trkpt>
      <trkpt lat="44.08883" lon="6.26245">
        <ele>647.4</ele>
        <time>2018-08-09T06:05:12Z</time>
      </trkpt>
      <trkpt lat="44.08882" lon="6.2625">
        <ele>647.2</ele>
        <time>2018-08-09T06:05:13Z</time>
      </trkpt>
      <trkpt lat="44.0888" lon="6.26256">
        <ele>646.9</ele>
        <time>2018-08-09T06:05:14Z</time>
      </trkpt>
      <trkpt lat="44.08878" lon="6.26261">
        <ele>646.7</ele>
        <time>2018-08-09T06:05:15Z</time>
      </trkpt>
      <trkpt lat="44.08876" lon="6.26267">
        <ele>646.4</ele>
        <time>2018-08-09T06:05:16Z</time>
      </trkpt>
      <trkpt lat="44.08873" lon="6.26272">
        <ele>646.2</ele>
        <time>2018-08-09T06:05:17Z</time>
      </trkpt>
      <trkpt lat="44.08871" lon="6.26277">
        <ele>646</ele>
        <time>2018-08-09T06:05:18Z</time>
      </trkpt>
      <trkpt lat="44.08869" lon="6.26282">
        <ele>645.7</ele>
        <time>2018-08-09T06:05:19Z</time>
      </trkpt>
      <trkpt lat="44.08867" lon="6.26288">
        <ele>645.4</ele>
        <time>2018-08-09T06:05:20Z</time>
      </trkpt>
      <trkpt lat="44.08865" lon="6.26292">
        <ele>645.2</ele>
        <time>2018-08-09T06:05:21Z</time>
      </trkpt>
      <trkpt lat="44.08863" lon="6.26298">
        <ele>644.9</ele>
        <time>2018-08-09T06:05:22Z</time>
      </trkpt>
      <trkpt lat="44.08862" lon="6.26302">
        <ele>644.7</ele>
        <time>2018-08-09T06:05:23Z</time>
      </trkpt>
      <trkpt lat="44.08861" lon="6.26308">
        <ele>644.4</ele>
        <time>2018-08-09T06:05:24Z</time>
      </trkpt>
      <trkpt lat="44.0886" lon="6.26313">
        <ele>644.1</ele>
        <time>2018-08-09T06:05:25Z</time>
      </trkpt>
      <trkpt lat="44.08859" lon="6.26319">
        <ele>643.9</ele>
        <time>2018-08-09T06:05:26Z</time>
      </trkpt>
      <trkpt lat="44.08858" lon="6.26324">
        <ele>643.8</ele>
        <time>2018-08-09T06:05:27Z</time>
      </trkpt>
      <trkpt lat="44.08858" lon="6.2633">
        <ele>643.6</ele>
        <time>2018-08-09T06:05:28Z</time>
      </trkpt>
      <trkpt lat="44.08857" lon="6.26335">
        <ele>643.4</ele>
        <time>2018-08-09T06:05:29Z</time>
      </trkpt>
      <trkpt lat="44.08857" lon="6.2634">
        <ele>643.3</ele>
        <time>2018-08-09T06:05:30Z</time>
      </trkpt>
      <trkpt lat="44.08856" lon="6.26345">
        <ele>643.1</ele>
        <time>2018-08-09T06:05:31Z</time>
      </trkpt>
      <trkpt lat="44.08855" lon="6.26351">
        <ele>642.9</ele>
        <time>2018-08-09T06:05:32Z</time>
      </trkpt>
      <trkpt lat="44.08854" lon="6.26356">
        <ele>642.8</ele>
        <time>2018-08-09T06:05:33Z</time>
      </trkpt>
      <trkpt lat="44.08853" lon="6.26362">
        <ele>642.6</ele>
        <time>2018-08-09T06:05:34Z</time>
      </trkpt>
      <trkpt lat="44.08853" lon="6.26368">
        <ele>642.4</ele>
        <time>2018-08-09T06:05:35Z</time>
      </trkpt>
      <trkpt lat="44.08853" lon="6.26374">
        <ele>642.3</ele>
        <time>2018-08-09T06:05:36Z</time>
      </trkpt>
      <trkpt lat="44.08851" lon="6.26379">
        <ele>642</ele>
        <time>2018-08-09T06:05:37Z</time>
      </trkpt>
      <trkpt lat="44.08851" lon="6.26385">
        <ele>641.7</ele>
        <time>2018-08-09T06:05:38Z</time>
      </trkpt>
      <trkpt lat="44.08851" lon="6.26391">
        <ele>641.4</ele>
        <time>2018-08-09T06:05:39Z</time>
      </trkpt>
      <trkpt lat="44.08852" lon="6.26397">
        <ele>641.1</ele>
        <time>2018-08-09T06:05:40Z</time>
      </trkpt>
      <trkpt lat="44.08852" lon="6.26403">
        <ele>640.8</ele>
        <time>2018-08-09T06:05:41Z</time>
      </trkpt>
      <trkpt lat="44.08853" lon="6.26409">
        <ele>640.5</ele>
        <time>2018-08-09T06:05:42Z</time>
      </trkpt>
      <trkpt lat="44.08854" lon="6.26414">
        <ele>640.1</ele>
        <time>2018-08-09T06:05:43Z</time>
      </trkpt>
      <trkpt lat="44.08855" lon="6.26419">
        <ele>639.5</ele>
        <time>2018-08-09T06:05:44Z</time>
      </trkpt>
      <trkpt lat="44.08856" lon="6.26425">
        <ele>639.2</ele>
        <time>2018-08-09T06:05:45Z</time>
      </trkpt>
      <trkpt lat="44.08858" lon="6.2643">
        <ele>638.9</ele>
        <time>2018-08-09T06:05:46Z</time>
      </trkpt>
      <trkpt lat="44.08859" lon="6.26434">
        <ele>638.6</ele>
        <time>2018-08-09T06:05:47Z</time>
      </trkpt>
      <trkpt lat="44.08861" lon="6.26439">
        <ele>638.3</ele>
        <time>2018-08-09T06:05:48Z</time>
      </trkpt>
      <trkpt lat="44.08862" lon="6.26445">
        <ele>638</ele>
        <time>2018-08-09T06:05:49Z</time>
      </trkpt>
      <trkpt lat="44.08864" lon="6.2645">
        <ele>637.7</ele>
        <time>2018-08-09T06:05:50Z</time>
      </trkpt>
      <trkpt lat="44.08865" lon="6.26455">
        <ele>637.4</ele>
        <time>2018-08-09T06:05:51Z</time>
      </trkpt>
      <trkpt lat="44.08867" lon="6.26461">
        <ele>637.1</ele>
        <time>2018-08-09T06:05:52Z</time>
      </trkpt>
      <trkpt lat="44.08868" lon="6.26466">
        <ele>636.8</ele>
        <time>2018-08-09T06:05:53Z</time>
      </trkpt>
      <trkpt lat="44.0887" lon="6.26472">
        <ele>636.2</ele>
        <time>2018-08-09T06:05:54Z</time>
      </trkpt>
      <trkpt lat="44.08871" lon="6.26477">
        <ele>635.6</ele>
        <time>2018-08-09T06:05:55Z</time>
      </trkpt>
      <trkpt lat="44.08873" lon="6.26482">
        <ele>635</ele>
        <time>2018-08-09T06:05:56Z</time>
      </trkpt>
      <trkpt lat="44.08874" lon="6.26488">
        <ele>634.8</ele>
        <time>2018-08-09T06:05:57Z</time>
      </trkpt>
      <trkpt lat="44.08876" lon="6.26493">
        <ele>634.7</ele>
        <time>2018-08-09T06:05:58Z</time>
      </trkpt>
      <trkpt lat="44.08878" lon="6.26499">
        <ele>634.5</ele>
        <time>2018-08-09T06:05:59Z</time>
      </trkpt>
      <trkpt lat="44.08879" lon="6.26505">
        <ele>634.4</ele>
        <time>2018-08-09T06:06:00Z</time>
      </trkpt>
      <trkpt lat="44.08881" lon="6.2651">
        <ele>634.3</ele>
        <time>2018-08-09T06:06:01Z</time>
      </trkpt>
      <trkpt lat="44.08883" lon="6.26514">
        <ele>634.2</ele>
        <time>2018-08-09T06:06:02Z</time>
      </trkpt>
      <trkpt lat="44.08884" lon="6.2652">
        <ele>634.1</ele>
        <time>2018-08-09T06:06:03Z</time>
      </trkpt>
      <trkpt lat="44.08886" lon="6.26525">
        <ele>634</ele>
        <time>2018-08-09T06:06:04Z</time>
      </trkpt>
      <trkpt lat="44.08889" lon="6.26531">
        <ele>633.9</ele>
        <time>2018-08-09T06:06:05Z</time>
      </trkpt>
      <trkpt lat="44.08891" lon="6.26536">
        <ele>633.7</ele>
        <time>2018-08-09T06:06:06Z</time>
      </trkpt>
      <trkpt lat="44.08892" lon="6.26542">
        <ele>633.6</ele>
        <time>2018-08-09T06:06:07Z</time>
      </trkpt>
      <trkpt lat="44.08893" lon="6.26546">
        <ele>633.5</ele>
        <time>2018-08-09T06:06:08Z</time>
      </trkpt>
      <trkpt lat="44.08894" lon="6.26552">
        <ele>633.4</ele>
        <time>2018-08-09T06:06:09Z</time>
      </trkpt>
      <trkpt lat="44.08896" lon="6.26558">
        <ele>633.4</ele>
        <time>2018-08-09T06:06:10Z</time>
      </trkpt>
      <trkpt lat="44.08897" lon="6.26563">
        <ele>633.3</ele>
        <time>2018-08-09T06:06:11Z</time>
      </trkpt>
      <trkpt lat="44.08899" lon="6.26569">
        <ele>633.3</ele>
        <time>2018-08-09T06:06:12Z</time>
      </trkpt>
      <trkpt lat="44.089" lon="6.26574">
        <ele>633.3</ele>
        <time>2018-08-09T06:06:13Z</time>
      </trkpt>
      <trkpt lat="44.08902" lon="6.2658">
        <ele>633.3</ele>
        <time>2018-08-09T06:06:14Z</time>
      </trkpt>
      <trkpt lat="44.08903" lon="6.26585">
        <ele>633.3</ele>
        <time>2018-08-09T06:06:15Z</time>
      </trkpt>
      <trkpt lat="44.08905" lon="6.26589">
        <ele>633.3</ele>
        <time>2018-08-09T06:06:16Z</time>
      </trkpt>
      <trkpt lat="44.08907" lon="6.26595">
        <ele>633.3</ele>
        <time>2018-08-09T06:06:17Z</time>
      </trkpt>
      <trkpt lat="44.08909" lon="6.266">
        <ele>633.3</ele>
        <time>2018-08-09T06:06:18Z</time>
      </trkpt>
      <trkpt lat="44.0891" lon="6.26605">
        <ele>633.3</ele>
        <time>2018-08-09T06:06:19Z</time>
      </trkpt>
      <trkpt lat="44.08912" lon="6.2661">
        <ele>633.4</ele>
        <time>2018-08-09T06:06:20Z</time>
      </trkpt>
      <trkpt lat="44.08912" lon="6.26615">
        <ele>633.5</ele>
        <time>2018-08-09T06:06:21Z</time>
      </trkpt>
      <trkpt lat="44.08913" lon="6.2662">
        <ele>633.5</ele>
        <time>2018-08-09T06:06:22Z</time>
      </trkpt>
      <trkpt lat="44.08914" lon="6.26625">
        <ele>633.6</ele>
        <time>2018-08-09T06:06:23Z</time>
      </trkpt>
      <trkpt lat="44.08915" lon="6.26631">
        <ele>633.6</ele>
        <time>2018-08-09T06:06:24Z</time>
      </trkpt>
      <trkpt lat="44.08916" lon="6.26637">
        <ele>633.7</ele>
        <time>2018-08-09T06:06:25Z</time>
      </trkpt>
      <trkpt lat="44.08917" lon="6.26641">
        <ele>633.8</ele>
        <time>2018-08-09T06:06:26Z</time>
      </trkpt>
      <trkpt lat="44.08919" lon="6.26647">
        <ele>633.8</ele>
        <time>2018-08-09T06:06:27Z</time>
      </trkpt>
      <trkpt lat="44.08921" lon="6.26651">
        <ele>633.9</ele>
        <time>2018-08-09T06:06:28Z</time>
      </trkpt>
      <trkpt lat="44.08923" lon="6.26656">
        <ele>634</ele>
        <time>2018-08-09T06:06:29Z</time>
      </trkpt>
      <trkpt lat="44.08925" lon="6.26662">
        <ele>634.1</ele>
        <time>2018-08-09T06:06:30Z</time>
      </trkpt>
      <trkpt lat="44.08927" lon="6.26667">
        <ele>634.3</ele>
        <time>2018-08-09T06:06:31Z</time>
      </trkpt>
      <trkpt lat="44.08929" lon="6.26673">
        <ele>634.6</ele>
        <time>2018-08-09T06:06:32Z</time>
      </trkpt>
      <trkpt lat="44.0893" lon="6.26678">
        <ele>634.8</ele>
        <time>2018-08-09T06:06:33Z</time>
      </trkpt>
      <trkpt lat="44.08933" lon="6.26682">
        <ele>635</ele>
        <time>2018-08-09T06:06:34Z</time>
      </trkpt>
      <trkpt lat="44.08935" lon="6.26687">
        <ele>635.2</ele>
        <time>2018-08-09T06:06:35Z</time>
      </trkpt>
      <trkpt lat="44.08937" lon="6.26693">
        <ele>635.4</ele>
        <time>2018-08-09T06:06:36Z</time>
      </trkpt>
      <trkpt lat="44.08939" lon="6.26698">
        <ele>635.5</ele>
        <time>2018-08-09T06:06:37Z</time>
      </trkpt>
      <trkpt lat="44.08942" lon="6.26703">
        <ele>635.7</ele>
        <time>2018-08-09T06:06:38Z</time>
      </trkpt>
      <trkpt lat="44.08944" lon="6.26708">
        <ele>635.9</ele>
        <time>2018-08-09T06:06:39Z</time>
      </trkpt>
      <trkpt lat="44.08946" lon="6.26713">
        <ele>636</ele>
        <time>2018-08-09T06:06:40Z</time>
      </trkpt>
      <trkpt lat="44.0895" lon="6.26718">
        <ele>636.2</ele>
        <time>2018-08-09T06:06:41Z</time>
      </trkpt>
      <trkpt lat="44.08952" lon="6.26722">
        <ele>636.4</ele>
        <time>2018-08-09T06:06:42Z</time>
      </trkpt>
      <trkpt lat="44.08954" lon="6.26727">
        <ele>636.6</ele>
        <time>2018-08-09T06:06:43Z</time>
      </trkpt>
      <trkpt lat="44.08956" lon="6.26732">
        <ele>636.9</ele>
        <time>2018-08-09T06:06:44Z</time>
      </trkpt>
      <trkpt lat="44.08957" lon="6.26737">
        <ele>637.2</ele>
        <time>2018-08-09T06:06:45Z</time>
      </trkpt>
      <trkpt lat="44.0896" lon="6.26742">
        <ele>637.6</ele>
        <time>2018-08-09T06:06:46Z</time>
      </trkpt>
      <trkpt lat="44.08963" lon="6.26747">
        <ele>637.9</ele>
        <time>2018-08-09T06:06:47Z</time>
      </trkpt>
      <trkpt lat="44.08965" lon="6.26752">
        <ele>638.2</ele>
        <time>2018-08-09T06:06:48Z</time>
      </trkpt>
      <trkpt lat="44.08967" lon="6.26756">
        <ele>638.4</ele>
        <time>2018-08-09T06:06:49Z</time>
      </trkpt>
      <trkpt lat="44.0897" lon="6.2676">
        <ele>638.5</ele>
        <time>2018-08-09T06:06:50Z</time>
      </trkpt>
      <trkpt lat="44.08972" lon="6.26765">
        <ele>638.8</ele>
        <time>2018-08-09T06:06:51Z</time>
      </trkpt>
      <trkpt lat="44.08973" lon="6.2677">
        <ele>639</ele>
        <time>2018-08-09T06:06:52Z</time>
      </trkpt>
      <trkpt lat="44.08976" lon="6.26775">
        <ele>639.2</ele>
        <time>2018-08-09T06:06:53Z</time>
      </trkpt>
      <trkpt lat="44.08978" lon="6.2678">
        <ele>639.4</ele>
        <time>2018-08-09T06:06:54Z</time>
      </trkpt>
      <trkpt lat="44.08979" lon="6.26785">
        <ele>639.7</ele>
        <time>2018-08-09T06:06:55Z</time>
      </trkpt>
      <trkpt lat="44.08981" lon="6.2679">
        <ele>640.1</ele>
        <time>2018-08-09T06:06:56Z</time>
      </trkpt>
      <trkpt lat="44.08983" lon="6.26795">
        <ele>640.4</ele>
        <time>2018-08-09T06:06:57Z</time>
      </trkpt>
      <trkpt lat="44.08985" lon="6.26799">
        <ele>640.6</ele>
        <time>2018-08-09T06:06:58Z</time>
      </trkpt>
      <trkpt lat="44.08988" lon="6.26804">
        <ele>640.9</ele>
        <time>2018-08-09T06:06:59Z</time>
      </trkpt>
      <trkpt lat="44.0899" lon="6.26808">
        <ele>641.1</ele>
        <time>2018-08-09T06:07:00Z</time>
      </trkpt>
      <trkpt lat="44.08994" lon="6.26811">
        <ele>641.3</ele>
        <time>2018-08-09T06:07:01Z</time>
      </trkpt>
      <trkpt lat="44.08997" lon="6.26816">
        <ele>641.6</ele>
        <time>2018-08-09T06:07:02Z</time>
      </trkpt>
      <trkpt lat="44.09" lon="6.26821">
        <ele>641.9</ele>
        <time>2018-08-09T06:07:03Z</time>
      </trkpt>
      <trkpt lat="44.09002" lon="6.26825">
        <ele>642.2</ele>
        <time>2018-08-09T06:07:04Z</time>
      </trkpt>
      <trkpt lat="44.09005" lon="6.2683">
        <ele>642.6</ele>
        <time>2018-08-09T06:07:05Z</time>
      </trkpt>
      <trkpt lat="44.09007" lon="6.26835">
        <ele>643</ele>
        <time>2018-08-09T06:07:06Z</time>
      </trkpt>
      <trkpt lat="44.09009" lon="6.26839">
        <ele>643.4</ele>
        <time>2018-08-09T06:07:07Z</time>
      </trkpt>
      <trkpt lat="44.09012" lon="6.26843">
        <ele>643.7</ele>
        <time>2018-08-09T06:07:08Z</time>
      </trkpt>
      <trkpt lat="44.09014" lon="6.26848">
        <ele>644</ele>
        <time>2018-08-09T06:07:09Z</time>
      </trkpt>
      <trkpt lat="44.09017" lon="6.26854">
        <ele>644.2</ele>
        <time>2018-08-09T06:07:10Z</time>
      </trkpt>
      <trkpt lat="44.09018" lon="6.26859">
        <ele>644.4</ele>
        <time>2018-08-09T06:07:11Z</time>
      </trkpt>
      <trkpt lat="44.0902" lon="6.26864">
        <ele>644.5</ele>
        <time>2018-08-09T06:07:12Z</time>
      </trkpt>
      <trkpt lat="44.09023" lon="6.26868">
        <ele>644.6</ele>
        <time>2018-08-09T06:07:13Z</time>
      </trkpt>
      <trkpt lat="44.09024" lon="6.26873">
        <ele>644.8</ele>
        <time>2018-08-09T06:07:14Z</time>
      </trkpt>
      <trkpt lat="44.09027" lon="6.26878">
        <ele>644.9</ele>
        <time>2018-08-09T06:07:15Z</time>
      </trkpt>
      <trkpt lat="44.0903" lon="6.26882">
        <ele>645</ele>
        <time>2018-08-09T06:07:16Z</time>
      </trkpt>
      <trkpt lat="44.09032" lon="6.26887">
        <ele>645.1</ele>
        <time>2018-08-09T06:07:17Z</time>
      </trkpt>
      <trkpt lat="44.09035" lon="6.26891">
        <ele>645.2</ele>
        <time>2018-08-09T06:07:18Z</time>
      </trkpt>
      <trkpt lat="44.09037" lon="6.26896">
        <ele>645.2</ele>
        <time>2018-08-09T06:07:19Z</time>
      </trkpt>
      <trkpt lat="44.09039" lon="6.26902">
        <ele>645.2</ele>
        <time>2018-08-09T06:07:20Z</time>
      </trkpt>
      <trkpt lat="44.0904" lon="6.26909">
        <ele>645.1</ele>
        <time>2018-08-09T06:07:21Z</time>
      </trkpt>
      <trkpt lat="44.09041" lon="6.26914">
        <ele>645</ele>
        <time>2018-08-09T06:07:22Z</time>
      </trkpt>
      <trkpt lat="44.09041" lon="6.2692">
        <ele>644.9</ele>
        <time>2018-08-09T06:07:23Z</time>
      </trkpt>
      <trkpt lat="44.09042" lon="6.26926">
        <ele>644.8</ele>
        <time>2018-08-09T06:07:24Z</time>
      </trkpt>
      <trkpt lat="44.09042" lon="6.26932">
        <ele>644.7</ele>
        <time>2018-08-09T06:07:25Z</time>
      </trkpt>
      <trkpt lat="44.09043" lon="6.26938">
        <ele>644.5</ele>
        <time>2018-08-09T06:07:26Z</time>
      </trkpt>
      <trkpt lat="44.09045" lon="6.26943">
        <ele>644.4</ele>
        <time>2018-08-09T06:07:27Z</time>
      </trkpt>
      <trkpt lat="44.09045" lon="6.26949">
        <ele>644.1</ele>
        <time>2018-08-09T06:07:28Z</time>
      </trkpt>
      <trkpt lat="44.09045" lon="6.26955">
        <ele>643.9</ele>
        <time>2018-08-09T06:07:29Z</time>
      </trkpt>
      <trkpt lat="44.09045" lon="6.26961">
        <ele>643.7</ele>
        <time>2018-08-09T06:07:30Z</time>
      </trkpt>
      <trkpt lat="44.09045" lon="6.26966">
        <ele>643.6</ele>
        <time>2018-08-09T06:07:31Z</time>
      </trkpt>
      <trkpt lat="44.09046" lon="6.26972">
        <ele>643.4</ele>
        <time>2018-08-09T06:07:32Z</time>
      </trkpt>
      <trkpt lat="44.09046" lon="6.26978">
        <ele>643.2</ele>
        <time>2018-08-09T06:07:33Z</time>
      </trkpt>
      <trkpt lat="44.09046" lon="6.26984">
        <ele>643</ele>
        <time>2018-08-09T06:07:34Z</time>
      </trkpt>
      <trkpt lat="44.09046" lon="6.26989">
        <ele>642.9</ele>
        <time>2018-08-09T06:07:35Z</time>
      </trkpt>
      <trkpt lat="44.09046" lon="6.26995">
        <ele>642.7</ele>
        <time>2018-08-09T06:07:36Z</time>
      </trkpt>
      <trkpt lat="44.09046" lon="6.27001">
        <ele>642.6</ele>
        <time>2018-08-09T06:07:37Z</time>
      </trkpt>
      <trkpt lat="44.09046" lon="6.27007">
        <ele>642.4</ele>
        <time>2018-08-09T06:07:38Z</time>
      </trkpt>
      <trkpt lat="44.09046" lon="6.27013">
        <ele>642.3</ele>
        <time>2018-08-09T06:07:39Z</time>
      </trkpt>
      <trkpt lat="44.09046" lon="6.27019">
        <ele>642.1</ele>
        <time>2018-08-09T06:07:40Z</time>
      </trkpt>
      <trkpt lat="44.09047" lon="6.27025">
        <ele>641.9</ele>
        <time>2018-08-09T06:07:41Z</time>
      </trkpt>
      <trkpt lat="44.09047" lon="6.27031">
        <ele>641.7</ele>
        <time>2018-08-09T06:07:42Z</time>
      </trkpt>
      <trkpt lat="44.09047" lon="6.27037">
        <ele>641.5</ele>
        <time>2018-08-09T06:07:43Z</time>
      </trkpt>
      <trkpt lat="44.09047" lon="6.27043">
        <ele>641.4</ele>
        <time>2018-08-09T06:07:44Z</time>
      </trkpt>
      <trkpt lat="44.09048" lon="6.27048">
        <ele>641.3</ele>
        <time>2018-08-09T06:07:45Z</time>
      </trkpt>
      <trkpt lat="44.09048" lon="6.27054">
        <ele>641.3</ele>
        <time>2018-08-09T06:07:46Z</time>
      </trkpt>
      <trkpt lat="44.09048" lon="6.2706">
        <ele>641.4</ele>
        <time>2018-08-09T06:07:47Z</time>
      </trkpt>
      <trkpt lat="44.09048" lon="6.27065">
        <ele>641.4</ele>
        <time>2018-08-09T06:07:48Z</time>
      </trkpt>
      <trkpt lat="44.09048" lon="6.27071">
        <ele>641.4</ele>
        <time>2018-08-09T06:07:49Z</time>
      </trkpt>
      <trkpt lat="44.09048" lon="6.27077">
        <ele>641.4</ele>
        <time>2018-08-09T06:07:50Z</time>
      </trkpt>
      <trkpt lat="44.09049" lon="6.27083">
        <ele>641.5</ele>
        <time>2018-08-09T06:07:51Z</time>
      </trkpt>
      <trkpt lat="44.09049" lon="6.27089">
        <ele>641.5</ele>
        <time>2018-08-09T06:07:52Z</time>
      </trkpt>
      <trkpt lat="44.09049" lon="6.27094">
        <ele>641.5</ele>
        <time>2018-08-09T06:07:53Z</time>
      </trkpt>
      <trkpt lat="44.09049" lon="6.271">
        <ele>641.6</ele>
        <time>2018-08-09T06:07:54Z</time>
      </trkpt>
      <trkpt lat="44.0905" lon="6.27106">
        <ele>641.6</ele>
        <time>2018-08-09T06:07:55Z</time>
      </trkpt>
      <trkpt lat="44.0905" lon="6.27112">
        <ele>641.6</ele>
        <time>2018-08-09T06:07:56Z</time>
      </trkpt>
      <trkpt lat="44.0905" lon="6.27118">
        <ele>641.7</ele>
        <time>2018-08-09T06:07:57Z</time>
      </trkpt>
      <trkpt lat="44.0905" lon="6.27124">
        <ele>641.7</ele>
        <time>2018-08-09T06:07:58Z</time>
      </trkpt>
      <trkpt lat="44.0905" lon="6.2713">
        <ele>641.8</ele>
        <time>2018-08-09T06:07:59Z</time>
      </trkpt>
      <trkpt lat="44.0905" lon="6.27136">
        <ele>641.8</ele>
        <time>2018-08-09T06:08:00Z</time>
      </trkpt>
      <trkpt lat="44.09049" lon="6.27141">
        <ele>641.9</ele>
        <time>2018-08-09T06:08:01Z</time>
      </trkpt>
      <trkpt lat="44.09048" lon="6.27146">
        <ele>641.9</ele>
        <time>2018-08-09T06:08:02Z</time>
      </trkpt>
      <trkpt lat="44.09046" lon="6.2715">
        <ele>642</ele>
        <time>2018-08-09T06:08:03Z</time>
      </trkpt>
      <trkpt lat="44.09045" lon="6.27155">
        <ele>642</ele>
        <time>2018-08-09T06:08:04Z</time>
      </trkpt>
      <trkpt lat="44.09043" lon="6.2716">
        <ele>642.1</ele>
        <time>2018-08-09T06:08:05Z</time>
      </trkpt>
      <trkpt lat="44.09042" lon="6.27164">
        <ele>642.3</ele>
        <time>2018-08-09T06:08:06Z</time>
      </trkpt>
      <trkpt lat="44.0904" lon="6.27169">
        <ele>642.5</ele>
        <time>2018-08-09T06:08:07Z</time>
      </trkpt>
      <trkpt lat="44.09039" lon="6.27173">
        <ele>642.6</ele>
        <time>2018-08-09T06:08:08Z</time>
      </trkpt>
      <trkpt lat="44.09038" lon="6.27178">
        <ele>642.7</ele>
        <time>2018-08-09T06:08:09Z</time>
      </trkpt>
      <trkpt lat="44.09037" lon="6.27183">
        <ele>642.9</ele>
        <time>2018-08-09T06:08:10Z</time>
      </trkpt>
      <trkpt lat="44.09037" lon="6.27188">
        <ele>643.2</ele>
        <time>2018-08-09T06:08:11Z</time>
      </trkpt>
      <trkpt lat="44.09039" lon="6.27192">
        <ele>643.3</ele>
        <time>2018-08-09T06:08:12Z</time>
      </trkpt>
      <trkpt lat="44.09042" lon="6.27197">
        <ele>643.4</ele>
        <time>2018-08-09T06:08:13Z</time>
      </trkpt>
      <trkpt lat="44.09046" lon="6.27199">
        <ele>643.5</ele>
        <time>2018-08-09T06:08:14Z</time>
      </trkpt>
      <trkpt lat="44.09049" lon="6.27202">
        <ele>643.6</ele>
        <time>2018-08-09T06:08:15Z</time>
      </trkpt>
      <trkpt lat="44.09052" lon="6.27204">
        <ele>643.7</ele>
        <time>2018-08-09T06:08:16Z</time>
      </trkpt>
      <trkpt lat="44.09054" lon="6.27205">
        <ele>643.8</ele>
        <time>2018-08-09T06:08:17Z</time>
      </trkpt>
      <trkpt lat="44.09057" lon="6.27208">
        <ele>643.8</ele>
        <time>2018-08-09T06:08:18Z</time>
      </trkpt>
      <trkpt lat="44.09059" lon="6.27211">
        <ele>643.9</ele>
        <time>2018-08-09T06:08:19Z</time>
      </trkpt>
      <trkpt lat="44.09062" lon="6.27217">
        <ele>644</ele>
        <time>2018-08-09T06:08:21Z</time>
      </trkpt>
      <trkpt lat="44.09064" lon="6.2722">
        <ele>644</ele>
        <time>2018-08-09T06:08:22Z</time>
      </trkpt>
      <trkpt lat="44.09067" lon="6.27224">
        <ele>644.1</ele>
        <time>2018-08-09T06:08:24Z</time>
      </trkpt>
      <trkpt lat="44.09071" lon="6.27229">
        <ele>644.1</ele>
        <time>2018-08-09T06:08:26Z</time>
      </trkpt>
      <trkpt lat="44.09073" lon="6.27234">
        <ele>644.2</ele>
        <time>2018-08-09T06:08:28Z</time>
      </trkpt>
      <trkpt lat="44.09075" lon="6.27237">
        <ele>644.2</ele>
        <time>2018-08-09T06:08:29Z</time>
      </trkpt>
      <trkpt lat="44.09078" lon="6.27243">
        <ele>644.2</ele>
        <time>2018-08-09T06:08:31Z</time>
      </trkpt>
      <trkpt lat="44.09081" lon="6.27249">
        <ele>644.3</ele>
        <time>2018-08-09T06:08:33Z</time>
      </trkpt>
      <trkpt lat="44.09085" lon="6.27254">
        <ele>644.3</ele>
        <time>2018-08-09T06:08:35Z</time>
      </trkpt>
      <trkpt lat="44.09089" lon="6.27258">
        <ele>644.4</ele>
        <time>2018-08-09T06:08:37Z</time>
      </trkpt>
      <trkpt lat="44.09092" lon="6.27259">
        <ele>644.4</ele>
        <time>2018-08-09T06:08:38Z</time>
      </trkpt>
      <trkpt lat="44.09094" lon="6.27261">
        <ele>644.5</ele>
        <time>2018-08-09T06:08:39Z</time>
      </trkpt>
      <trkpt lat="44.09097" lon="6.27262">
        <ele>644.5</ele>
        <time>2018-08-09T06:08:40Z</time>
      </trkpt>
      <trkpt lat="44.09102" lon="6.27265">
        <ele>644.6</ele>
        <time>2018-08-09T06:08:42Z</time>
      </trkpt>
      <trkpt lat="44.09105" lon="6.27266">
        <ele>644.6</ele>
        <time>2018-08-09T06:08:43Z</time>
      </trkpt>
      <trkpt lat="44.09109" lon="6.2727">
        <ele>644.7</ele>
        <time>2018-08-09T06:08:45Z</time>
      </trkpt>
      <trkpt lat="44.09112" lon="6.27273">
        <ele>644.7</ele>
        <time>2018-08-09T06:08:46Z</time>
      </trkpt>
      <trkpt lat="44.09114" lon="6.27275">
        <ele>644.7</ele>
        <time>2018-08-09T06:08:47Z</time>
      </trkpt>
      <trkpt lat="44.09116" lon="6.27278">
        <ele>644.7</ele>
        <time>2018-08-09T06:08:48Z</time>
      </trkpt>
      <trkpt lat="44.09119" lon="6.2728">
        <ele>644.8</ele>
        <time>2018-08-09T06:08:49Z</time>
      </trkpt>
      <trkpt lat="44.09124" lon="6.27284">
        <ele>644.9</ele>
        <time>2018-08-09T06:08:51Z</time>
      </trkpt>
      <trkpt lat="44.09126" lon="6.27287">
        <ele>644.9</ele>
        <time>2018-08-09T06:08:52Z</time>
      </trkpt>
      <trkpt lat="44.09128" lon="6.2729">
        <ele>644.9</ele>
        <time>2018-08-09T06:08:53Z</time>
      </trkpt>
      <trkpt lat="44.0913" lon="6.27293">
        <ele>644.9</ele>
        <time>2018-08-09T06:08:54Z</time>
      </trkpt>
      <trkpt lat="44.09132" lon="6.27296">
        <ele>645</ele>
        <time>2018-08-09T06:08:55Z</time>
      </trkpt>
      <trkpt lat="44.09133" lon="6.27303">
        <ele>645</ele>
        <time>2018-08-09T06:08:57Z</time>
      </trkpt>
      <trkpt lat="44.09135" lon="6.27309">
        <ele>644.9</ele>
        <time>2018-08-09T06:08:59Z</time>
      </trkpt>
      <trkpt lat="44.09138" lon="6.27313">
        <ele>644.9</ele>
        <time>2018-08-09T06:09:01Z</time>
      </trkpt>
      <trkpt lat="44.09142" lon="6.27317">
        <ele>646</ele>
        <time>2018-08-09T06:09:03Z</time>
      </trkpt>
      <trkpt lat="44.09144" lon="6.27321">
        <ele>647</ele>
        <time>2018-08-09T06:09:05Z</time>
      </trkpt>
      <trkpt lat="44.09147" lon="6.27323">
        <ele>647.1</ele>
        <time>2018-08-09T06:09:07Z</time>
      </trkpt>
      <trkpt lat="44.09149" lon="6.2732">
        <ele>647.2</ele>
        <time>2018-08-09T06:09:10Z</time>
      </trkpt>
      <trkpt lat="44.09145" lon="6.27315">
        <ele>647.3</ele>
        <time>2018-08-09T06:09:13Z</time>
      </trkpt>
      <trkpt lat="44.09142" lon="6.27314">
        <ele>647.4</ele>
        <time>2018-08-09T06:09:14Z</time>
      </trkpt>
      <trkpt lat="44.09139" lon="6.27311">
        <ele>647.4</ele>
        <time>2018-08-09T06:09:16Z</time>
      </trkpt>
      <trkpt lat="44.09137" lon="6.27308">
        <ele>647.5</ele>
        <time>2018-08-09T06:09:18Z</time>
      </trkpt>
      <trkpt lat="44.09139" lon="6.27305">
        <ele>647.6</ele>
        <time>2018-08-09T06:09:22Z</time>
      </trkpt>
      <trkpt lat="44.09141" lon="6.27307">
        <ele>647.6</ele>
        <time>2018-08-09T06:09:23Z</time>
      </trkpt>
      <trkpt lat="44.09144" lon="6.27306">
        <ele>647.8</ele>
        <time>2018-08-09T06:09:24Z</time>
      </trkpt>
      <trkpt lat="44.09149" lon="6.27307">
        <ele>648</ele>
        <time>2018-08-09T06:09:26Z</time>
      </trkpt>
      <trkpt lat="44.09153" lon="6.27309">
        <ele>648.2</ele>
        <time>2018-08-09T06:09:28Z</time>
      </trkpt>
      <trkpt lat="44.09156" lon="6.27314">
        <ele>648.4</ele>
        <time>2018-08-09T06:09:31Z</time>
      </trkpt>
      <trkpt lat="44.09161" lon="6.27313">
        <ele>648.6</ele>
        <time>2018-08-09T06:09:33Z</time>
      </trkpt>
      <trkpt lat="44.09167" lon="6.27313">
        <ele>648.8</ele>
        <time>2018-08-09T06:09:35Z</time>
      </trkpt>
      <trkpt lat="44.0917" lon="6.27313">
        <ele>648.9</ele>
        <time>2018-08-09T06:09:36Z</time>
      </trkpt>
      <trkpt lat="44.09173" lon="6.27312">
        <ele>649</ele>
        <time>2018-08-09T06:09:37Z</time>
      </trkpt>
      <trkpt lat="44.09178" lon="6.27311">
        <ele>649.1</ele>
        <time>2018-08-09T06:09:39Z</time>
      </trkpt>
      <trkpt lat="44.09181" lon="6.27309">
        <ele>649.1</ele>
        <time>2018-08-09T06:09:40Z</time>
      </trkpt>
      <trkpt lat="44.09184" lon="6.27309">
        <ele>649.1</ele>
        <time>2018-08-09T06:09:41Z</time>
      </trkpt>
      <trkpt lat="44.09187" lon="6.27308">
        <ele>649.2</ele>
        <time>2018-08-09T06:09:42Z</time>
      </trkpt>
      <trkpt lat="44.0919" lon="6.27308">
        <ele>649.2</ele>
        <time>2018-08-09T06:09:43Z</time>
      </trkpt>
      <trkpt lat="44.09193" lon="6.27307">
        <ele>649.3</ele>
        <time>2018-08-09T06:09:44Z</time>
      </trkpt>
      <trkpt lat="44.09197" lon="6.27306">
        <ele>649.3</ele>
        <time>2018-08-09T06:09:45Z</time>
      </trkpt>
      <trkpt lat="44.09201" lon="6.27305">
        <ele>649.4</ele>
        <time>2018-08-09T06:09:46Z</time>
      </trkpt>
      <trkpt lat="44.09204" lon="6.27302">
        <ele>649.5</ele>
        <time>2018-08-09T06:09:47Z</time>
      </trkpt>
      <trkpt lat="44.09207" lon="6.27302">
        <ele>649.5</ele>
        <time>2018-08-09T06:09:48Z</time>
      </trkpt>
      <trkpt lat="44.09211" lon="6.27301">
        <ele>649.5</ele>
        <time>2018-08-09T06:09:49Z</time>
      </trkpt>
      <trkpt lat="44.09214" lon="6.273">
        <ele>649.6</ele>
        <time>2018-08-09T06:09:50Z</time>
      </trkpt>
      <trkpt lat="44.09217" lon="6.27299">
        <ele>649.6</ele>
        <time>2018-08-09T06:09:51Z</time>
      </trkpt>
      <trkpt lat="44.09223" lon="6.27297">
        <ele>649.7</ele>
        <time>2018-08-09T06:09:53Z</time>
      </trkpt>
      <trkpt lat="44.09226" lon="6.27296">
        <ele>649.7</ele>
        <time>2018-08-09T06:09:54Z</time>
      </trkpt>
      <trkpt lat="44.09229" lon="6.27295">
        <ele>649.8</ele>
        <time>2018-08-09T06:09:55Z</time>
      </trkpt>
      <trkpt lat="44.09235" lon="6.27294">
        <ele>649.8</ele>
        <time>2018-08-09T06:09:57Z</time>
      </trkpt>
      <trkpt lat="44.09238" lon="6.27291">
        <ele>649.9</ele>
        <time>2018-08-09T06:09:58Z</time>
      </trkpt>
      <trkpt lat="44.09241" lon="6.27291">
        <ele>649.9</ele>
        <time>2018-08-09T06:09:59Z</time>
      </trkpt>
      <trkpt lat="44.09244" lon="6.27291">
        <ele>649.9</ele>
        <time>2018-08-09T06:10:00Z</time>
      </trkpt>
      <trkpt lat="44.09248" lon="6.27292">
        <ele>649.9</ele>
        <time>2018-08-09T06:10:01Z</time>
      </trkpt>
      <trkpt lat="44.09251" lon="6.27291">
        <ele>650</ele>
        <time>2018-08-09T06:10:02Z</time>
      </trkpt>
      <trkpt lat="44.09255" lon="6.27291">
        <ele>650</ele>
        <time>2018-08-09T06:10:03Z</time>
      </trkpt>
      <trkpt lat="44.09258" lon="6.27292">
        <ele>650</ele>
        <time>2018-08-09T06:10:04Z</time>
      </trkpt>
      <trkpt lat="44.09261" lon="6.27292">
        <ele>650</ele>
        <time>2018-08-09T06:10:05Z</time>
      </trkpt>
      <trkpt lat="44.09264" lon="6.27292">
        <ele>650.1</ele>
        <time>2018-08-09T06:10:06Z</time>
      </trkpt>
      <trkpt lat="44.0927" lon="6.27293">
        <ele>650.1</ele>
        <time>2018-08-09T06:10:08Z</time>
      </trkpt>
      <trkpt lat="44.09273" lon="6.27293">
        <ele>650.1</ele>
        <time>2018-08-09T06:10:09Z</time>
      </trkpt>
      <trkpt lat="44.09279" lon="6.27294">
        <ele>650.2</ele>
        <time>2018-08-09T06:10:11Z</time>
      </trkpt>
      <trkpt lat="44.09283" lon="6.27293">
        <ele>650.3</ele>
        <time>2018-08-09T06:10:12Z</time>
      </trkpt>
      <trkpt lat="44.09286" lon="6.27291">
        <ele>650.3</ele>
        <time>2018-08-09T06:10:13Z</time>
      </trkpt>
      <trkpt lat="44.09289" lon="6.27292">
        <ele>650.4</ele>
        <time>2018-08-09T06:10:14Z</time>
      </trkpt>
      <trkpt lat="44.09293" lon="6.27291">
        <ele>650.4</ele>
        <time>2018-08-09T06:10:15Z</time>
      </trkpt>
      <trkpt lat="44.09296" lon="6.27292">
        <ele>650.6</ele>
        <time>2018-08-09T06:10:16Z</time>
      </trkpt>
      <trkpt lat="44.09299" lon="6.27292">
        <ele>650.7</ele>
        <time>2018-08-09T06:10:17Z</time>
      </trkpt>
      <trkpt lat="44.09304" lon="6.27292">
        <ele>651</ele>
        <time>2018-08-09T06:10:19Z</time>
      </trkpt>
      <trkpt lat="44.09306" lon="6.27292">
        <ele>651.2</ele>
        <time>2018-08-09T06:10:20Z</time>
      </trkpt>
      <trkpt lat="44.09309" lon="6.27292">
        <ele>651.3</ele>
        <time>2018-08-09T06:10:21Z</time>
      </trkpt>
      <trkpt lat="44.09312" lon="6.27292">
        <ele>651.5</ele>
        <time>2018-08-09T06:10:22Z</time>
      </trkpt>
      <trkpt lat="44.09316" lon="6.27291">
        <ele>651.8</ele>
        <time>2018-08-09T06:10:23Z</time>
      </trkpt>
      <trkpt lat="44.0932" lon="6.27291">
        <ele>652</ele>
        <time>2018-08-09T06:10:24Z</time>
      </trkpt>
      <trkpt lat="44.09323" lon="6.27291">
        <ele>652.2</ele>
        <time>2018-08-09T06:10:25Z</time>
      </trkpt>
      <trkpt lat="44.09326" lon="6.27291">
        <ele>652.4</ele>
        <time>2018-08-09T06:10:26Z</time>
      </trkpt>
      <trkpt lat="44.09329" lon="6.27291">
        <ele>652.5</ele>
        <time>2018-08-09T06:10:27Z</time>
      </trkpt>
      <trkpt lat="44.09332" lon="6.27292">
        <ele>652.6</ele>
        <time>2018-08-09T06:10:28Z</time>
      </trkpt>
      <trkpt lat="44.09335" lon="6.27294">
        <ele>652.7</ele>
        <time>2018-08-09T06:10:29Z</time>
      </trkpt>
      <trkpt lat="44.09338" lon="6.27295">
        <ele>652.7</ele>
        <time>2018-08-09T06:10:30Z</time>
      </trkpt>
      <trkpt lat="44.09341" lon="6.27296">
        <ele>652.8</ele>
        <time>2018-08-09T06:10:31Z</time>
      </trkpt>
      <trkpt lat="44.09345" lon="6.27298">
        <ele>652.9</ele>
        <time>2018-08-09T06:10:32Z</time>
      </trkpt>
      <trkpt lat="44.09348" lon="6.27299">
        <ele>653</ele>
        <time>2018-08-09T06:10:33Z</time>
      </trkpt>
      <trkpt lat="44.0935" lon="6.27301">
        <ele>653.1</ele>
        <time>2018-08-09T06:10:34Z</time>
      </trkpt>
      <trkpt lat="44.09355" lon="6.27305">
        <ele>653.3</ele>
        <time>2018-08-09T06:10:36Z</time>
      </trkpt>
      <trkpt lat="44.0936" lon="6.27308">
        <ele>653.3</ele>
        <time>2018-08-09T06:10:38Z</time>
      </trkpt>
      <trkpt lat="44.09362" lon="6.2731">
        <ele>653.3</ele>
        <time>2018-08-09T06:10:39Z</time>
      </trkpt>
      <trkpt lat="44.09365" lon="6.27311">
        <ele>653.4</ele>
        <time>2018-08-09T06:10:40Z</time>
      </trkpt>
      <trkpt lat="44.09371" lon="6.27311">
        <ele>653.4</ele>
        <time>2018-08-09T06:10:42Z</time>
      </trkpt>
      <trkpt lat="44.09374" lon="6.27312">
        <ele>653.4</ele>
        <time>2018-08-09T06:10:43Z</time>
      </trkpt>
      <trkpt lat="44.09378" lon="6.27313">
        <ele>653.5</ele>
        <time>2018-08-09T06:10:44Z</time>
      </trkpt>
      <trkpt lat="44.09381" lon="6.27315">
        <ele>653.5</ele>
        <time>2018-08-09T06:10:45Z</time>
      </trkpt>
      <trkpt lat="44.09384" lon="6.27316">
        <ele>653.5</ele>
        <time>2018-08-09T06:10:46Z</time>
      </trkpt>
      <trkpt lat="44.09387" lon="6.27317">
        <ele>653.5</ele>
        <time>2018-08-09T06:10:47Z</time>
      </trkpt>
      <trkpt lat="44.0939" lon="6.27318">
        <ele>653.6</ele>
        <time>2018-08-09T06:10:48Z</time>
      </trkpt>
      <trkpt lat="44.09393" lon="6.2732">
        <ele>653.6</ele>
        <time>2018-08-09T06:10:49Z</time>
      </trkpt>
      <trkpt lat="44.09396" lon="6.27323">
        <ele>653.6</ele>
        <time>2018-08-09T06:10:50Z</time>
      </trkpt>
      <trkpt lat="44.09399" lon="6.27324">
        <ele>653.6</ele>
        <time>2018-08-09T06:10:51Z</time>
      </trkpt>
      <trkpt lat="44.09401" lon="6.27326">
        <ele>653.7</ele>
        <time>2018-08-09T06:10:52Z</time>
      </trkpt>
      <trkpt lat="44.09404" lon="6.27328">
        <ele>653.7</ele>
        <time>2018-08-09T06:10:53Z</time>
      </trkpt>
      <trkpt lat="44.09406" lon="6.2733">
        <ele>653.8</ele>
        <time>2018-08-09T06:10:54Z</time>
      </trkpt>
      <trkpt lat="44.09409" lon="6.27332">
        <ele>653.8</ele>
        <time>2018-08-09T06:10:55Z</time>
      </trkpt>
      <trkpt lat="44.09411" lon="6.27334">
        <ele>653.8</ele>
        <time>2018-08-09T06:10:56Z</time>
      </trkpt>
      <trkpt lat="44.09416" lon="6.27339">
        <ele>653.9</ele>
        <time>2018-08-09T06:10:58Z</time>
      </trkpt>
      <trkpt lat="44.09418" lon="6.27341">
        <ele>653.9</ele>
        <time>2018-08-09T06:10:59Z</time>
      </trkpt>
      <trkpt lat="44.09421" lon="6.27344">
        <ele>654</ele>
        <time>2018-08-09T06:11:00Z</time>
      </trkpt>
      <trkpt lat="44.09423" lon="6.27346">
        <ele>654</ele>
        <time>2018-08-09T06:11:01Z</time>
      </trkpt>
      <trkpt lat="44.09426" lon="6.27349">
        <ele>654.1</ele>
        <time>2018-08-09T06:11:02Z</time>
      </trkpt>
      <trkpt lat="44.09429" lon="6.27351">
        <ele>654.2</ele>
        <time>2018-08-09T06:11:03Z</time>
      </trkpt>
      <trkpt lat="44.09432" lon="6.27353">
        <ele>654.3</ele>
        <time>2018-08-09T06:11:04Z</time>
      </trkpt>
      <trkpt lat="44.09435" lon="6.27354">
        <ele>654.5</ele>
        <time>2018-08-09T06:11:05Z</time>
      </trkpt>
      <trkpt lat="44.09438" lon="6.27355">
        <ele>654.6</ele>
        <time>2018-08-09T06:11:06Z</time>
      </trkpt>
      <trkpt lat="44.09441" lon="6.27356">
        <ele>654.8</ele>
        <time>2018-08-09T06:11:07Z</time>
      </trkpt>
      <trkpt lat="44.09444" lon="6.27354">
        <ele>655</ele>
        <time>2018-08-09T06:11:08Z</time>
      </trkpt>
      <trkpt lat="44.09449" lon="6.27357">
        <ele>655.4</ele>
        <time>2018-08-09T06:11:10Z</time>
      </trkpt>
      <trkpt lat="44.09454" lon="6.27362">
        <ele>655.8</ele>
        <time>2018-08-09T06:11:12Z</time>
      </trkpt>
      <trkpt lat="44.09455" lon="6.27365">
        <ele>655.9</ele>
        <time>2018-08-09T06:11:13Z</time>
      </trkpt>
      <trkpt lat="44.09455" lon="6.2737">
        <ele>656.1</ele>
        <time>2018-08-09T06:11:14Z</time>
      </trkpt>
      <trkpt lat="44.09457" lon="6.27377">
        <ele>656.4</ele>
        <time>2018-08-09T06:11:16Z</time>
      </trkpt>
      <trkpt lat="44.09456" lon="6.27381">
        <ele>656.6</ele>
        <time>2018-08-09T06:11:17Z</time>
      </trkpt>
      <trkpt lat="44.09455" lon="6.27385">
        <ele>656.8</ele>
        <time>2018-08-09T06:11:18Z</time>
      </trkpt>
      <trkpt lat="44.09455" lon="6.2739">
        <ele>657</ele>
        <time>2018-08-09T06:11:19Z</time>
      </trkpt>
      <trkpt lat="44.09454" lon="6.27397">
        <ele>657.4</ele>
        <time>2018-08-09T06:11:21Z</time>
      </trkpt>
      <trkpt lat="44.09453" lon="6.27401">
        <ele>657.6</ele>
        <time>2018-08-09T06:11:22Z</time>
      </trkpt>
      <trkpt lat="44.09452" lon="6.27407">
        <ele>657.9</ele>
        <time>2018-08-09T06:11:24Z</time>
      </trkpt>
      <trkpt lat="44.09452" lon="6.27412">
        <ele>658.6</ele>
        <time>2018-08-09T06:11:27Z</time>
      </trkpt>
      <trkpt lat="44.09453" lon="6.27415">
        <ele>659</ele>
        <time>2018-08-09T06:11:29Z</time>
      </trkpt>
      <trkpt lat="44.09455" lon="6.27419">
        <ele>659.5</ele>
        <time>2018-08-09T06:11:31Z</time>
      </trkpt>
      <trkpt lat="44.09456" lon="6.27426">
        <ele>660.1</ele>
        <time>2018-08-09T06:11:34Z</time>
      </trkpt>
      <trkpt lat="44.09458" lon="6.2743">
        <ele>660.6</ele>
        <time>2018-08-09T06:11:36Z</time>
      </trkpt>
      <trkpt lat="44.09461" lon="6.27435">
        <ele>661.1</ele>
        <time>2018-08-09T06:11:38Z</time>
      </trkpt>
      <trkpt lat="44.09465" lon="6.27438">
        <ele>661.4</ele>
        <time>2018-08-09T06:11:40Z</time>
      </trkpt>
      <trkpt lat="44.0947" lon="6.27442">
        <ele>662</ele>
        <time>2018-08-09T06:11:42Z</time>
      </trkpt>
      <trkpt lat="44.09473" lon="6.27443">
        <ele>662.5</ele>
        <time>2018-08-09T06:11:43Z</time>
      </trkpt>
      <trkpt lat="44.09479" lon="6.27441">
        <ele>663</ele>
        <time>2018-08-09T06:11:44Z</time>
      </trkpt>
      <trkpt lat="44.09483" lon="6.27438">
        <ele>663.4</ele>
        <time>2018-08-09T06:11:45Z</time>
      </trkpt>
      <trkpt lat="44.09487" lon="6.27438">
        <ele>663.6</ele>
        <time>2018-08-09T06:11:46Z</time>
      </trkpt>
      <trkpt lat="44.0949" lon="6.27437">
        <ele>663.8</ele>
        <time>2018-08-09T06:11:47Z</time>
      </trkpt>
      <trkpt lat="44.09493" lon="6.27435">
        <ele>664.2</ele>
        <time>2018-08-09T06:11:48Z</time>
      </trkpt>
      <trkpt lat="44.09497" lon="6.27434">
        <ele>664.5</ele>
        <time>2018-08-09T06:11:50Z</time>
      </trkpt>
      <trkpt lat="44.09503" lon="6.27435">
        <ele>665</ele>
        <time>2018-08-09T06:11:52Z</time>
      </trkpt>
      <trkpt lat="44.09505" lon="6.27435">
        <ele>665.2</ele>
        <time>2018-08-09T06:11:53Z</time>
      </trkpt>
      <trkpt lat="44.09508" lon="6.27436">
        <ele>665.4</ele>
        <time>2018-08-09T06:11:54Z</time>
      </trkpt>
      <trkpt lat="44.09514" lon="6.27438">
        <ele>665.7</ele>
        <time>2018-08-09T06:11:56Z</time>
      </trkpt>
      <trkpt lat="44.09519" lon="6.27441">
        <ele>666.1</ele>
        <time>2018-08-09T06:11:58Z</time>
      </trkpt>
      <trkpt lat="44.09523" lon="6.27442">
        <ele>666.4</ele>
        <time>2018-08-09T06:12:00Z</time>
      </trkpt>
      <trkpt lat="44.09528" lon="6.27441">
        <ele>667</ele>
        <time>2018-08-09T06:12:01Z</time>
      </trkpt>
      <trkpt lat="44.09532" lon="6.27441">
        <ele>667.6</ele>
        <time>2018-08-09T06:12:02Z</time>
      </trkpt>
      <trkpt lat="44.09535" lon="6.27443">
        <ele>668.1</ele>
        <time>2018-08-09T06:12:03Z</time>
      </trkpt>
      <trkpt lat="44.09537" lon="6.27444">
        <ele>668.6</ele>
        <time>2018-08-09T06:12:04Z</time>
      </trkpt>
      <trkpt lat="44.0954" lon="6.27445">
        <ele>669.1</ele>
        <time>2018-08-09T06:12:05Z</time>
      </trkpt>
      <trkpt lat="44.09546" lon="6.27446">
        <ele>670.1</ele>
        <time>2018-08-09T06:12:07Z</time>
      </trkpt>
      <trkpt lat="44.09551" lon="6.27451">
        <ele>670.9</ele>
        <time>2018-08-09T06:12:09Z</time>
      </trkpt>
      <trkpt lat="44.09553" lon="6.27453">
        <ele>671.2</ele>
        <time>2018-08-09T06:12:10Z</time>
      </trkpt>
      <trkpt lat="44.09558" lon="6.27453">
        <ele>671.6</ele>
        <time>2018-08-09T06:12:11Z</time>
      </trkpt>
      <trkpt lat="44.09561" lon="6.27455">
        <ele>671.9</ele>
        <time>2018-08-09T06:12:12Z</time>
      </trkpt>
      <trkpt lat="44.09567" lon="6.27457">
        <ele>672.4</ele>
        <time>2018-08-09T06:12:14Z</time>
      </trkpt>
      <trkpt lat="44.0957" lon="6.27459">
        <ele>672.7</ele>
        <time>2018-08-09T06:12:15Z</time>
      </trkpt>
      <trkpt lat="44.09574" lon="6.27461">
        <ele>673.2</ele>
        <time>2018-08-09T06:12:16Z</time>
      </trkpt>
      <trkpt lat="44.09577" lon="6.27463">
        <ele>673.6</ele>
        <time>2018-08-09T06:12:17Z</time>
      </trkpt>
      <trkpt lat="44.09582" lon="6.27465">
        <ele>674.4</ele>
        <time>2018-08-09T06:12:19Z</time>
      </trkpt>
      <trkpt lat="44.09579" lon="6.27466">
        <ele>674.5</ele>
        <time>2018-08-09T06:12:21Z</time>
      </trkpt>
      <trkpt lat="44.09581" lon="6.2747">
        <ele>674.4</ele>
        <time>2018-08-09T06:12:31Z</time>
      </trkpt>
      <trkpt lat="44.09585" lon="6.27474">
        <ele>675.1</ele>
        <time>2018-08-09T06:12:34Z</time>
      </trkpt>
      <trkpt lat="44.09589" lon="6.27473">
        <ele>675.9</ele>
        <time>2018-08-09T06:12:36Z</time>
      </trkpt>
      <trkpt lat="44.09593" lon="6.27473">
        <ele>676.6</ele>
        <time>2018-08-09T06:12:37Z</time>
      </trkpt>
      <trkpt lat="44.09596" lon="6.27473">
        <ele>677.1</ele>
        <time>2018-08-09T06:12:38Z</time>
      </trkpt>
      <trkpt lat="44.096" lon="6.2748">
        <ele>677.9</ele>
        <time>2018-08-09T06:12:40Z</time>
      </trkpt>
      <trkpt lat="44.09603" lon="6.27482">
        <ele>678.2</ele>
        <time>2018-08-09T06:12:41Z</time>
      </trkpt>
      <trkpt lat="44.09606" lon="6.27485">
        <ele>678.5</ele>
        <time>2018-08-09T06:12:43Z</time>
      </trkpt>
      <trkpt lat="44.09609" lon="6.27487">
        <ele>678.7</ele>
        <time>2018-08-09T06:12:44Z</time>
      </trkpt>
      <trkpt lat="44.09613" lon="6.27488">
        <ele>679.1</ele>
        <time>2018-08-09T06:12:46Z</time>
      </trkpt>
      <trkpt lat="44.09617" lon="6.27487">
        <ele>679.4</ele>
        <time>2018-08-09T06:12:48Z</time>
      </trkpt>
      <trkpt lat="44.0962" lon="6.2749">
        <ele>679.7</ele>
        <time>2018-08-09T06:12:50Z</time>
      </trkpt>
      <trkpt lat="44.09624" lon="6.27491">
        <ele>680</ele>
        <time>2018-08-09T06:12:52Z</time>
      </trkpt>
      <trkpt lat="44.09627" lon="6.27491">
        <ele>680.2</ele>
        <time>2018-08-09T06:12:53Z</time>
      </trkpt>
      <trkpt lat="44.09631" lon="6.27494">
        <ele>680.5</ele>
        <time>2018-08-09T06:12:55Z</time>
      </trkpt>
      <trkpt lat="44.09636" lon="6.27496">
        <ele>680.8</ele>
        <time>2018-08-09T06:12:57Z</time>
      </trkpt>
      <trkpt lat="44.09639" lon="6.27495">
        <ele>681.1</ele>
        <time>2018-08-09T06:12:58Z</time>
      </trkpt>
      <trkpt lat="44.09643" lon="6.27493">
        <ele>681.3</ele>
        <time>2018-08-09T06:12:59Z</time>
      </trkpt>
      <trkpt lat="44.09647" lon="6.27492">
        <ele>681.6</ele>
        <time>2018-08-09T06:13:00Z</time>
      </trkpt>
      <trkpt lat="44.0965" lon="6.27491">
        <ele>681.8</ele>
        <time>2018-08-09T06:13:01Z</time>
      </trkpt>
      <trkpt lat="44.09655" lon="6.2749">
        <ele>682.1</ele>
        <time>2018-08-09T06:13:02Z</time>
      </trkpt>
      <trkpt lat="44.0966" lon="6.27488">
        <ele>682.4</ele>
        <time>2018-08-09T06:13:04Z</time>
      </trkpt>
      <trkpt lat="44.09664" lon="6.27487">
        <ele>682.7</ele>
        <time>2018-08-09T06:13:06Z</time>
      </trkpt>
      <trkpt lat="44.09669" lon="6.27486">
        <ele>683.4</ele>
        <time>2018-08-09T06:13:07Z</time>
      </trkpt>
      <trkpt lat="44.09672" lon="6.27484">
        <ele>684</ele>
        <time>2018-08-09T06:13:08Z</time>
      </trkpt>
      <trkpt lat="44.09677" lon="6.27484">
        <ele>685.2</ele>
        <time>2018-08-09T06:13:10Z</time>
      </trkpt>
      <trkpt lat="44.0968" lon="6.27483">
        <ele>685.8</ele>
        <time>2018-08-09T06:13:11Z</time>
      </trkpt>
      <trkpt lat="44.09683" lon="6.27484">
        <ele>686.5</ele>
        <time>2018-08-09T06:13:12Z</time>
      </trkpt>
      <trkpt lat="44.09687" lon="6.27486">
        <ele>687.3</ele>
        <time>2018-08-09T06:13:14Z</time>
      </trkpt>
      <trkpt lat="44.0969" lon="6.27487">
        <ele>687.7</ele>
        <time>2018-08-09T06:13:15Z</time>
      </trkpt>
      <trkpt lat="44.09693" lon="6.27487">
        <ele>688.2</ele>
        <time>2018-08-09T06:13:16Z</time>
      </trkpt>
      <trkpt lat="44.09696" lon="6.27491">
        <ele>688.8</ele>
        <time>2018-08-09T06:13:18Z</time>
      </trkpt>
      <trkpt lat="44.097" lon="6.27494">
        <ele>689.5</ele>
        <time>2018-08-09T06:13:20Z</time>
      </trkpt>
      <trkpt lat="44.09703" lon="6.27497">
        <ele>690.1</ele>
        <time>2018-08-09T06:13:22Z</time>
      </trkpt>
      <trkpt lat="44.09706" lon="6.27501">
        <ele>690.6</ele>
        <time>2018-08-09T06:13:24Z</time>
      </trkpt>
      <trkpt lat="44.09709" lon="6.27505">
        <ele>690.9</ele>
        <time>2018-08-09T06:13:26Z</time>
      </trkpt>
      <trkpt lat="44.09712" lon="6.27508">
        <ele>691.3</ele>
        <time>2018-08-09T06:13:28Z</time>
      </trkpt>
      <trkpt lat="44.09714" lon="6.27511">
        <ele>691.9</ele>
        <time>2018-08-09T06:13:30Z</time>
      </trkpt>
      <trkpt lat="44.09718" lon="6.27516">
        <ele>691.8</ele>
        <time>2018-08-09T06:13:32Z</time>
      </trkpt>
      <trkpt lat="44.0972" lon="6.27519">
        <ele>691.8</ele>
        <time>2018-08-09T06:13:33Z</time>
      </trkpt>
      <trkpt lat="44.09722" lon="6.27523">
        <ele>691.7</ele>
        <time>2018-08-09T06:13:34Z</time>
      </trkpt>
      <trkpt lat="44.09724" lon="6.27527">
        <ele>691.7</ele>
        <time>2018-08-09T06:13:35Z</time>
      </trkpt>
      <trkpt lat="44.09728" lon="6.27532">
        <ele>691.6</ele>
        <time>2018-08-09T06:13:36Z</time>
      </trkpt>
      <trkpt lat="44.09731" lon="6.27535">
        <ele>691.5</ele>
        <time>2018-08-09T06:13:37Z</time>
      </trkpt>
      <trkpt lat="44.09734" lon="6.2754">
        <ele>691.5</ele>
        <time>2018-08-09T06:13:38Z</time>
      </trkpt>
      <trkpt lat="44.09739" lon="6.27541">
        <ele>691.4</ele>
        <time>2018-08-09T06:13:39Z</time>
      </trkpt>
      <trkpt lat="44.09741" lon="6.27543">
        <ele>691.4</ele>
        <time>2018-08-09T06:13:40Z</time>
      </trkpt>
      <trkpt lat="44.09744" lon="6.27546">
        <ele>691.4</ele>
        <time>2018-08-09T06:13:41Z</time>
      </trkpt>
      <trkpt lat="44.09747" lon="6.27547">
        <ele>691.4</ele>
        <time>2018-08-09T06:13:42Z</time>
      </trkpt>
      <trkpt lat="44.0975" lon="6.27549">
        <ele>691.4</ele>
        <time>2018-08-09T06:13:43Z</time>
      </trkpt>
      <trkpt lat="44.09755" lon="6.27551">
        <ele>691.5</ele>
        <time>2018-08-09T06:13:45Z</time>
      </trkpt>
      <trkpt lat="44.0976" lon="6.27553">
        <ele>691.6</ele>
        <time>2018-08-09T06:13:47Z</time>
      </trkpt>
      <trkpt lat="44.09762" lon="6.27556">
        <ele>691.7</ele>
        <time>2018-08-09T06:13:49Z</time>
      </trkpt>
      <trkpt lat="44.09766" lon="6.27561">
        <ele>691.7</ele>
        <time>2018-08-09T06:13:51Z</time>
      </trkpt>
      <trkpt lat="44.09768" lon="6.27565">
        <ele>691.7</ele>
        <time>2018-08-09T06:13:53Z</time>
      </trkpt>
      <trkpt lat="44.09772" lon="6.27568">
        <ele>691.8</ele>
        <time>2018-08-09T06:13:56Z</time>
      </trkpt>
      <trkpt lat="44.09775" lon="6.27571">
        <ele>691.8</ele>
        <time>2018-08-09T06:13:59Z</time>
      </trkpt>
      <trkpt lat="44.09777" lon="6.27574">
        <ele>691.8</ele>
        <time>2018-08-09T06:14:01Z</time>
      </trkpt>
      <trkpt lat="44.0978" lon="6.27575">
        <ele>691.8</ele>
        <time>2018-08-09T06:14:02Z</time>
      </trkpt>
      <trkpt lat="44.09782" lon="6.27578">
        <ele>691.8</ele>
        <time>2018-08-09T06:14:04Z</time>
      </trkpt>
      <trkpt lat="44.09785" lon="6.2758">
        <ele>691.7</ele>
        <time>2018-08-09T06:14:05Z</time>
      </trkpt>
      <trkpt lat="44.09788" lon="6.27582">
        <ele>691.7</ele>
        <time>2018-08-09T06:14:06Z</time>
      </trkpt>
      <trkpt lat="44.09791" lon="6.27585">
        <ele>691.7</ele>
        <time>2018-08-09T06:14:08Z</time>
      </trkpt>
      <trkpt lat="44.09794" lon="6.27587">
        <ele>691.7</ele>
        <time>2018-08-09T06:14:10Z</time>
      </trkpt>
      <trkpt lat="44.09798" lon="6.27588">
        <ele>691.7</ele>
        <time>2018-08-09T06:14:12Z</time>
      </trkpt>
      <trkpt lat="44.09802" lon="6.27593">
        <ele>691.6</ele>
        <time>2018-08-09T06:14:14Z</time>
      </trkpt>
      <trkpt lat="44.09806" lon="6.27595">
        <ele>691.6</ele>
        <time>2018-08-09T06:14:16Z</time>
      </trkpt>
      <trkpt lat="44.0981" lon="6.27597">
        <ele>691.5</ele>
        <time>2018-08-09T06:14:18Z</time>
      </trkpt>
      <trkpt lat="44.09815" lon="6.27598">
        <ele>691.5</ele>
        <time>2018-08-09T06:14:20Z</time>
      </trkpt>
      <trkpt lat="44.09819" lon="6.27601">
        <ele>691.4</ele>
        <time>2018-08-09T06:14:21Z</time>
      </trkpt>
      <trkpt lat="44.09821" lon="6.27604">
        <ele>691.3</ele>
        <time>2018-08-09T06:14:23Z</time>
      </trkpt>
      <trkpt lat="44.09824" lon="6.27609">
        <ele>691.2</ele>
        <time>2018-08-09T06:14:25Z</time>
      </trkpt>
      <trkpt lat="44.09825" lon="6.27613">
        <ele>691.1</ele>
        <time>2018-08-09T06:14:36Z</time>
      </trkpt>
      <trkpt lat="44.09828" lon="6.27611">
        <ele>691</ele>
        <time>2018-08-09T06:14:37Z</time>
      </trkpt>
      <trkpt lat="44.09831" lon="6.27611">
        <ele>690.9</ele>
        <time>2018-08-09T06:14:41Z</time>
      </trkpt>
      <trkpt lat="44.09834" lon="6.2761">
        <ele>690.8</ele>
        <time>2018-08-09T06:14:45Z</time>
      </trkpt>
      <trkpt lat="44.09837" lon="6.27608">
        <ele>690.7</ele>
        <time>2018-08-09T06:14:47Z</time>
      </trkpt>
      <trkpt lat="44.09839" lon="6.27611">
        <ele>691.4</ele>
        <time>2018-08-09T06:14:59Z</time>
      </trkpt>
      <trkpt lat="44.09842" lon="6.27612">
        <ele>692.2</ele>
        <time>2018-08-09T06:15:02Z</time>
      </trkpt>
      <trkpt lat="44.09845" lon="6.27613">
        <ele>692.9</ele>
        <time>2018-08-09T06:15:04Z</time>
      </trkpt>
      <trkpt lat="44.09848" lon="6.27614">
        <ele>693.4</ele>
        <time>2018-08-09T06:15:14Z</time>
      </trkpt>
      <trkpt lat="44.09851" lon="6.27616">
        <ele>693.8</ele>
        <time>2018-08-09T06:15:19Z</time>
      </trkpt>
      <trkpt lat="44.09853" lon="6.27619">
        <ele>694.1</ele>
        <time>2018-08-09T06:15:22Z</time>
      </trkpt>
      <trkpt lat="44.09857" lon="6.27616">
        <ele>694.4</ele>
        <time>2018-08-09T06:15:27Z</time>
      </trkpt>
      <trkpt lat="44.0986" lon="6.27615">
        <ele>694.6</ele>
        <time>2018-08-09T06:15:34Z</time>
      </trkpt>
      <trkpt lat="44.09863" lon="6.27617">
        <ele>694.7</ele>
        <time>2018-08-09T06:15:41Z</time>
      </trkpt>
      <trkpt lat="44.09866" lon="6.27618">
        <ele>694.8</ele>
        <time>2018-08-09T06:15:48Z</time>
      </trkpt>
      <trkpt lat="44.09869" lon="6.27622">
        <ele>694.9</ele>
        <time>2018-08-09T06:15:51Z</time>
      </trkpt>
      <trkpt lat="44.09873" lon="6.27624">
        <ele>694.9</ele>
        <time>2018-08-09T06:15:53Z</time>
      </trkpt>
      <trkpt lat="44.09876" lon="6.27626">
        <ele>695</ele>
        <time>2018-08-09T06:15:55Z</time>
      </trkpt>
      <trkpt lat="44.0988" lon="6.27627">
        <ele>695</ele>
        <time>2018-08-09T06:15:57Z</time>
      </trkpt>
      <trkpt lat="44.09883" lon="6.27629">
        <ele>695.2</ele>
        <time>2018-08-09T06:15:58Z</time>
      </trkpt>
      <trkpt lat="44.09891" lon="6.27633">
        <ele>695.4</ele>
        <time>2018-08-09T06:16:01Z</time>
      </trkpt>
      <trkpt lat="44.09898" lon="6.27632">
        <ele>695.6</ele>
        <time>2018-08-09T06:16:03Z</time>
      </trkpt>
      <trkpt lat="44.09901" lon="6.27633">
        <ele>695.7</ele>
        <time>2018-08-09T06:16:05Z</time>
      </trkpt>
      <trkpt lat="44.09904" lon="6.2763">
        <ele>695.7</ele>
        <time>2018-08-09T06:16:06Z</time>
      </trkpt>
      <trkpt lat="44.09908" lon="6.27633">
        <ele>695.7</ele>
        <time>2018-08-09T06:16:09Z</time>
      </trkpt>
      <trkpt lat="44.0991" lon="6.27635">
        <ele>695.6</ele>
        <time>2018-08-09T06:16:11Z</time>
      </trkpt>
      <trkpt lat="44.09914" lon="6.27635">
        <ele>695.3</ele>
        <time>2018-08-09T06:16:13Z</time>
      </trkpt>
      <trkpt lat="44.09915" lon="6.27638">
        <ele>694.9</ele>
        <time>2018-08-09T06:16:15Z</time>
      </trkpt>
      <trkpt lat="44.09918" lon="6.27643">
        <ele>694.1</ele>
        <time>2018-08-09T06:16:17Z</time>
      </trkpt>
      <trkpt lat="44.09922" lon="6.27647">
        <ele>693.3</ele>
        <time>2018-08-09T06:16:19Z</time>
      </trkpt>
      <trkpt lat="44.09926" lon="6.27646">
        <ele>692.9</ele>
        <time>2018-08-09T06:16:20Z</time>
      </trkpt>
      <trkpt lat="44.09931" lon="6.27648">
        <ele>692.4</ele>
        <time>2018-08-09T06:16:22Z</time>
      </trkpt>
      <trkpt lat="44.09934" lon="6.27647">
        <ele>691.7</ele>
        <time>2018-08-09T06:16:23Z</time>
      </trkpt>
      <trkpt lat="44.09937" lon="6.27648">
        <ele>691.1</ele>
        <time>2018-08-09T06:16:24Z</time>
      </trkpt>
      <trkpt lat="44.0994" lon="6.27651">
        <ele>690.6</ele>
        <time>2018-08-09T06:16:25Z</time>
      </trkpt>
      <trkpt lat="44.09943" lon="6.27653">
        <ele>690.3</ele>
        <time>2018-08-09T06:16:26Z</time>
      </trkpt>
      <trkpt lat="44.09945" lon="6.27659">
        <ele>690</ele>
        <time>2018-08-09T06:16:27Z</time>
      </trkpt>
      <trkpt lat="44.09948" lon="6.27663">
        <ele>689.9</ele>
        <time>2018-08-09T06:16:28Z</time>
      </trkpt>
      <trkpt lat="44.09951" lon="6.27666">
        <ele>689.8</ele>
        <time>2018-08-09T06:16:29Z</time>
      </trkpt>
      <trkpt lat="44.09955" lon="6.2767">
        <ele>689.7</ele>
        <time>2018-08-09T06:16:30Z</time>
      </trkpt>
      <trkpt lat="44.09958" lon="6.2767">
        <ele>689.7</ele>
        <time>2018-08-09T06:16:31Z</time>
      </trkpt>
      <trkpt lat="44.09963" lon="6.27669">
        <ele>689.7</ele>
        <time>2018-08-09T06:16:32Z</time>
      </trkpt>
      <trkpt lat="44.09966" lon="6.2767">
        <ele>689.9</ele>
        <time>2018-08-09T06:16:33Z</time>
      </trkpt>
      <trkpt lat="44.0997" lon="6.2767">
        <ele>690</ele>
        <time>2018-08-09T06:16:34Z</time>
      </trkpt>
      <trkpt lat="44.09973" lon="6.27675">
        <ele>690.1</ele>
        <time>2018-08-09T06:16:36Z</time>
      </trkpt>
      <trkpt lat="44.09977" lon="6.27675">
        <ele>690.2</ele>
        <time>2018-08-09T06:16:38Z</time>
      </trkpt>
      <trkpt lat="44.09978" lon="6.27679">
        <ele>690.2</ele>
        <time>2018-08-09T06:16:40Z</time>
      </trkpt>
      <trkpt lat="44.0998" lon="6.27682">
        <ele>690.3</ele>
        <time>2018-08-09T06:16:43Z</time>
      </trkpt>
      <trkpt lat="44.09981" lon="6.27688">
        <ele>690.3</ele>
        <time>2018-08-09T06:16:46Z</time>
      </trkpt>
      <trkpt lat="44.09983" lon="6.27692">
        <ele>690.3</ele>
        <time>2018-08-09T06:16:49Z</time>
      </trkpt>
      <trkpt lat="44.09985" lon="6.27697">
        <ele>690.3</ele>
        <time>2018-08-09T06:16:52Z</time>
      </trkpt>
      <trkpt lat="44.09987" lon="6.27701">
        <ele>690.3</ele>
        <time>2018-08-09T06:16:54Z</time>
      </trkpt>
      <trkpt lat="44.09989" lon="6.27707">
        <ele>690.3</ele>
        <time>2018-08-09T06:16:56Z</time>
      </trkpt>
      <trkpt lat="44.09989" lon="6.27711">
        <ele>690.3</ele>
        <time>2018-08-09T06:16:57Z</time>
      </trkpt>
      <trkpt lat="44.0999" lon="6.27715">
        <ele>690.2</ele>
        <time>2018-08-09T06:16:58Z</time>
      </trkpt>
      <trkpt lat="44.09992" lon="6.27719">
        <ele>690.2</ele>
        <time>2018-08-09T06:16:59Z</time>
      </trkpt>
      <trkpt lat="44.09992" lon="6.27722">
        <ele>690.2</ele>
        <time>2018-08-09T06:17:00Z</time>
      </trkpt>
      <trkpt lat="44.09995" lon="6.27729">
        <ele>690.2</ele>
        <time>2018-08-09T06:17:02Z</time>
      </trkpt>
      <trkpt lat="44.09996" lon="6.27736">
        <ele>690</ele>
        <time>2018-08-09T06:17:04Z</time>
      </trkpt>
      <trkpt lat="44.09999" lon="6.2774">
        <ele>689.8</ele>
        <time>2018-08-09T06:17:06Z</time>
      </trkpt>
      <trkpt lat="44.10002" lon="6.27742">
        <ele>689.7</ele>
        <time>2018-08-09T06:17:08Z</time>
      </trkpt>
      <trkpt lat="44.10004" lon="6.27746">
        <ele>689.7</ele>
        <time>2018-08-09T06:17:11Z</time>
      </trkpt>
      <trkpt lat="44.10005" lon="6.27751">
        <ele>689.6</ele>
        <time>2018-08-09T06:17:20Z</time>
      </trkpt>
      <trkpt lat="44.10006" lon="6.27755">
        <ele>689.6</ele>
        <time>2018-08-09T06:17:23Z</time>
      </trkpt>
      <trkpt lat="44.10008" lon="6.27758">
        <ele>689.8</ele>
        <time>2018-08-09T06:17:25Z</time>
      </trkpt>
      <trkpt lat="44.10011" lon="6.27762">
        <ele>690.1</ele>
        <time>2018-08-09T06:17:28Z</time>
      </trkpt>
      <trkpt lat="44.10014" lon="6.27763">
        <ele>690.4</ele>
        <time>2018-08-09T06:17:30Z</time>
      </trkpt>
      <trkpt lat="44.10017" lon="6.27766">
        <ele>690.6</ele>
        <time>2018-08-09T06:17:33Z</time>
      </trkpt>
      <trkpt lat="44.1002" lon="6.27768">
        <ele>690.8</ele>
        <time>2018-08-09T06:17:35Z</time>
      </trkpt>
      <trkpt lat="44.10023" lon="6.27768">
        <ele>691</ele>
        <time>2018-08-09T06:17:37Z</time>
      </trkpt>
      <trkpt lat="44.10028" lon="6.27768">
        <ele>691.1</ele>
        <time>2018-08-09T06:17:41Z</time>
      </trkpt>
      <trkpt lat="44.1003" lon="6.27771">
        <ele>691.2</ele>
        <time>2018-08-09T06:17:43Z</time>
      </trkpt>
      <trkpt lat="44.10032" lon="6.27774">
        <ele>691.2</ele>
        <time>2018-08-09T06:17:45Z</time>
      </trkpt>
      <trkpt lat="44.10035" lon="6.27774">
        <ele>691.2</ele>
        <time>2018-08-09T06:17:46Z</time>
      </trkpt>
      <trkpt lat="44.10037" lon="6.27777">
        <ele>691.3</ele>
        <time>2018-08-09T06:17:48Z</time>
      </trkpt>
      <trkpt lat="44.10041" lon="6.27777">
        <ele>691.3</ele>
        <time>2018-08-09T06:17:51Z</time>
      </trkpt>
      <trkpt lat="44.10044" lon="6.27777">
        <ele>691.3</ele>
        <time>2018-08-09T06:17:54Z</time>
      </trkpt>
      <trkpt lat="44.10046" lon="6.27782">
        <ele>691.3</ele>
        <time>2018-08-09T06:17:57Z</time>
      </trkpt>
      <trkpt lat="44.10049" lon="6.27784">
        <ele>691.3</ele>
        <time>2018-08-09T06:17:59Z</time>
      </trkpt>
      <trkpt lat="44.10052" lon="6.27785">
        <ele>691.3</ele>
        <time>2018-08-09T06:18:01Z</time>
      </trkpt>
      <trkpt lat="44.10056" lon="6.27788">
        <ele>691.3</ele>
        <time>2018-08-09T06:18:03Z</time>
      </trkpt>
      <trkpt lat="44.10061" lon="6.27789">
        <ele>691.3</ele>
        <time>2018-08-09T06:18:05Z</time>
      </trkpt>
      <trkpt lat="44.10062" lon="6.27796">
        <ele>691.3</ele>
        <time>2018-08-09T06:18:07Z</time>
      </trkpt>
      <trkpt lat="44.10067" lon="6.27797">
        <ele>691.3</ele>
        <time>2018-08-09T06:18:09Z</time>
      </trkpt>
      <trkpt lat="44.10071" lon="6.27801">
        <ele>691.3</ele>
        <time>2018-08-09T06:18:11Z</time>
      </trkpt>
      <trkpt lat="44.10074" lon="6.27804">
        <ele>691.2</ele>
        <time>2018-08-09T06:18:13Z</time>
      </trkpt>
      <trkpt lat="44.10077" lon="6.27805">
        <ele>691.2</ele>
        <time>2018-08-09T06:18:15Z</time>
      </trkpt>
      <trkpt lat="44.10081" lon="6.27808">
        <ele>691.1</ele>
        <time>2018-08-09T06:18:17Z</time>
      </trkpt>
      <trkpt lat="44.10085" lon="6.27806">
        <ele>691</ele>
        <time>2018-08-09T06:18:19Z</time>
      </trkpt>
      <trkpt lat="44.10089" lon="6.27804">
        <ele>691</ele>
        <time>2018-08-09T06:18:21Z</time>
      </trkpt>
      <trkpt lat="44.10092" lon="6.27805">
        <ele>690.9</ele>
        <time>2018-08-09T06:18:23Z</time>
      </trkpt>
      <trkpt lat="44.10097" lon="6.27807">
        <ele>690.9</ele>
        <time>2018-08-09T06:18:25Z</time>
      </trkpt>
      <trkpt lat="44.10099" lon="6.27813">
        <ele>690.7</ele>
        <time>2018-08-09T06:18:27Z</time>
      </trkpt>
      <trkpt lat="44.10101" lon="6.27819">
        <ele>690.6</ele>
        <time>2018-08-09T06:18:29Z</time>
      </trkpt>
      <trkpt lat="44.10101" lon="6.27825">
        <ele>690.4</ele>
        <time>2018-08-09T06:18:31Z</time>
      </trkpt>
      <trkpt lat="44.10103" lon="6.27831">
        <ele>690.3</ele>
        <time>2018-08-09T06:18:33Z</time>
      </trkpt>
      <trkpt lat="44.10105" lon="6.27837">
        <ele>690.2</ele>
        <time>2018-08-09T06:18:35Z</time>
      </trkpt>
      <trkpt lat="44.10105" lon="6.27842">
        <ele>690.1</ele>
        <time>2018-08-09T06:18:37Z</time>
      </trkpt>
      <trkpt lat="44.10103" lon="6.27846">
        <ele>690.1</ele>
        <time>2018-08-09T06:18:41Z</time>
      </trkpt>
      <trkpt lat="44.10104" lon="6.2785">
        <ele>690</ele>
        <time>2018-08-09T06:18:45Z</time>
      </trkpt>
      <trkpt lat="44.10107" lon="6.27853">
        <ele>690</ele>
        <time>2018-08-09T06:18:48Z</time>
      </trkpt>
      <trkpt lat="44.1011" lon="6.27852">
        <ele>689.9</ele>
        <time>2018-08-09T06:18:50Z</time>
      </trkpt>
      <trkpt lat="44.10113" lon="6.27854">
        <ele>689.9</ele>
        <time>2018-08-09T06:18:53Z</time>
      </trkpt>
      <trkpt lat="44.10114" lon="6.27859">
        <ele>689.8</ele>
        <time>2018-08-09T06:18:55Z</time>
      </trkpt>
      <trkpt lat="44.10116" lon="6.27861">
        <ele>689.7</ele>
        <time>2018-08-09T06:18:57Z</time>
      </trkpt>
      <trkpt lat="44.1012" lon="6.27865">
        <ele>689.7</ele>
        <time>2018-08-09T06:18:59Z</time>
      </trkpt>
      <trkpt lat="44.10123" lon="6.27868">
        <ele>689.6</ele>
        <time>2018-08-09T06:19:01Z</time>
      </trkpt>
      <trkpt lat="44.10125" lon="6.27872">
        <ele>689.5</ele>
        <time>2018-08-09T06:19:03Z</time>
      </trkpt>
      <trkpt lat="44.10128" lon="6.27876">
        <ele>689.5</ele>
        <time>2018-08-09T06:19:05Z</time>
      </trkpt>
      <trkpt lat="44.1013" lon="6.27879">
        <ele>689.4</ele>
        <time>2018-08-09T06:19:07Z</time>
      </trkpt>
      <trkpt lat="44.10132" lon="6.27881">
        <ele>689.4</ele>
        <time>2018-08-09T06:19:13Z</time>
      </trkpt>
      <trkpt lat="44.10135" lon="6.27886">
        <ele>689.3</ele>
        <time>2018-08-09T06:19:18Z</time>
      </trkpt>
      <trkpt lat="44.10138" lon="6.2789">
        <ele>689.3</ele>
        <time>2018-08-09T06:19:20Z</time>
      </trkpt>
      <trkpt lat="44.1014" lon="6.27892">
        <ele>689.3</ele>
        <time>2018-08-09T06:19:22Z</time>
      </trkpt>
      <trkpt lat="44.10143" lon="6.27893">
        <ele>689.2</ele>
        <time>2018-08-09T06:19:24Z</time>
      </trkpt>
      <trkpt lat="44.10146" lon="6.27894">
        <ele>689.2</ele>
        <time>2018-08-09T06:19:26Z</time>
      </trkpt>
      <trkpt lat="44.1015" lon="6.27892">
        <ele>689.2</ele>
        <time>2018-08-09T06:19:27Z</time>
      </trkpt>
      <trkpt lat="44.10153" lon="6.27892">
        <ele>689.1</ele>
        <time>2018-08-09T06:19:29Z</time>
      </trkpt>
      <trkpt lat="44.10157" lon="6.27894">
        <ele>689.1</ele>
        <time>2018-08-09T06:19:33Z</time>
      </trkpt>
      <trkpt lat="44.1016" lon="6.27895">
        <ele>689</ele>
        <time>2018-08-09T06:19:34Z</time>
      </trkpt>
      <trkpt lat="44.10165" lon="6.27896">
        <ele>689</ele>
        <time>2018-08-09T06:19:36Z</time>
      </trkpt>
      <trkpt lat="44.10168" lon="6.27895">
        <ele>689</ele>
        <time>2018-08-09T06:19:37Z</time>
      </trkpt>
      <trkpt lat="44.10172" lon="6.27895">
        <ele>689</ele>
        <time>2018-08-09T06:19:41Z</time>
      </trkpt>
      <trkpt lat="44.10175" lon="6.27897">
        <ele>689.1</ele>
        <time>2018-08-09T06:19:44Z</time>
      </trkpt>
      <trkpt lat="44.10178" lon="6.27897">
        <ele>689.2</ele>
        <time>2018-08-09T06:19:54Z</time>
      </trkpt>
      <trkpt lat="44.10182" lon="6.27897">
        <ele>689.3</ele>
        <time>2018-08-09T06:19:58Z</time>
      </trkpt>
      <trkpt lat="44.10185" lon="6.27898">
        <ele>689.3</ele>
        <time>2018-08-09T06:20:01Z</time>
      </trkpt>
      <trkpt lat="44.10189" lon="6.27896">
        <ele>689.3</ele>
        <time>2018-08-09T06:20:09Z</time>
      </trkpt>
      <trkpt lat="44.10191" lon="6.27899">
        <ele>689.5</ele>
        <time>2018-08-09T06:20:14Z</time>
      </trkpt>
      <trkpt lat="44.10193" lon="6.27902">
        <ele>689.8</ele>
        <time>2018-08-09T06:20:18Z</time>
      </trkpt>
      <trkpt lat="44.10197" lon="6.27902">
        <ele>690.7</ele>
        <time>2018-08-09T06:20:21Z</time>
      </trkpt>
      <trkpt lat="44.102" lon="6.27903">
        <ele>691.5</ele>
        <time>2018-08-09T06:20:26Z</time>
      </trkpt>
      <trkpt lat="44.10204" lon="6.27902">
        <ele>691.8</ele>
        <time>2018-08-09T06:20:31Z</time>
      </trkpt>
      <trkpt lat="44.10207" lon="6.27903">
        <ele>692.2</ele>
        <time>2018-08-09T06:20:36Z</time>
      </trkpt>
      <trkpt lat="44.10211" lon="6.27905">
        <ele>692.6</ele>
        <time>2018-08-09T06:20:39Z</time>
      </trkpt>
      <trkpt lat="44.10214" lon="6.27908">
        <ele>692.9</ele>
        <time>2018-08-09T06:20:42Z</time>
      </trkpt>
      <trkpt lat="44.10217" lon="6.27909">
        <ele>693.2</ele>
        <time>2018-08-09T06:20:46Z</time>
      </trkpt>
      <trkpt lat="44.1022" lon="6.27908">
        <ele>693.3</ele>
        <time>2018-08-09T06:20:55Z</time>
      </trkpt>
      <trkpt lat="44.10223" lon="6.27907">
        <ele>693.5</ele>
        <time>2018-08-09T06:20:59Z</time>
      </trkpt>
      <trkpt lat="44.10225" lon="6.27904">
        <ele>693.7</ele>
        <time>2018-08-09T06:21:04Z</time>
      </trkpt>
      <trkpt lat="44.10228" lon="6.27904">
        <ele>693.9</ele>
        <time>2018-08-09T06:21:07Z</time>
      </trkpt>
      <trkpt lat="44.10231" lon="6.27904">
        <ele>694.2</ele>
        <time>2018-08-09T06:21:13Z</time>
      </trkpt>
      <trkpt lat="44.10233" lon="6.27907">
        <ele>694.8</ele>
        <time>2018-08-09T06:21:23Z</time>
      </trkpt>
      <trkpt lat="44.10236" lon="6.2791">
        <ele>695.3</ele>
        <time>2018-08-09T06:21:28Z</time>
      </trkpt>
      <trkpt lat="44.10239" lon="6.27912">
        <ele>695.7</ele>
        <time>2018-08-09T06:21:33Z</time>
      </trkpt>
      <trkpt lat="44.10241" lon="6.27915">
        <ele>696.2</ele>
        <time>2018-08-09T06:21:39Z</time>
      </trkpt>
      <trkpt lat="44.10244" lon="6.27916">
        <ele>696.7</ele>
        <time>2018-08-09T06:21:50Z</time>
      </trkpt>
      <trkpt lat="44.10247" lon="6.27918">
        <ele>697</ele>
        <time>2018-08-09T06:21:53Z</time>
      </trkpt>
      <trkpt lat="44.1025" lon="6.27918">
        <ele>697.4</ele>
        <time>2018-08-09T06:21:57Z</time>
      </trkpt>
      <trkpt lat="44.10253" lon="6.27921">
        <ele>697.8</ele>
        <time>2018-08-09T06:22:01Z</time>
      </trkpt>
      <trkpt lat="44.10256" lon="6.27922">
        <ele>698.1</ele>
        <time>2018-08-09T06:22:11Z</time>
      </trkpt>
      <trkpt lat="44.10259" lon="6.27923">
        <ele>698.4</ele>
        <time>2018-08-09T06:22:15Z</time>
      </trkpt>
      <trkpt lat="44.10261" lon="6.27926">
        <ele>698.7</ele>
        <time>2018-08-09T06:22:18Z</time>
      </trkpt>
      <trkpt lat="44.10267" lon="6.27929">
        <ele>699.8</ele>
        <time>2018-08-09T06:22:35Z</time>
      </trkpt>
      <trkpt lat="44.1027" lon="6.2793">
        <ele>700.5</ele>
        <time>2018-08-09T06:22:40Z</time>
      </trkpt>
      <trkpt lat="44.10272" lon="6.27932">
        <ele>701</ele>
        <time>2018-08-09T06:22:47Z</time>
      </trkpt>
      <trkpt lat="44.10276" lon="6.27933">
        <ele>701.6</ele>
        <time>2018-08-09T06:22:51Z</time>
      </trkpt>
      <trkpt lat="44.10278" lon="6.27935">
        <ele>702.1</ele>
        <time>2018-08-09T06:22:55Z</time>
      </trkpt>
      <trkpt lat="44.10281" lon="6.27934">
        <ele>702.7</ele>
        <time>2018-08-09T06:22:58Z</time>
      </trkpt>
      <trkpt lat="44.10283" lon="6.27937">
        <ele>703.2</ele>
        <time>2018-08-09T06:23:02Z</time>
      </trkpt>
      <trkpt lat="44.10286" lon="6.2794">
        <ele>704</ele>
        <time>2018-08-09T06:23:06Z</time>
      </trkpt>
      <trkpt lat="44.10287" lon="6.27944">
        <ele>704.6</ele>
        <time>2018-08-09T06:23:27Z</time>
      </trkpt>
      <trkpt lat="44.1029" lon="6.27947">
        <ele>705.6</ele>
        <time>2018-08-09T06:23:30Z</time>
      </trkpt>
      <trkpt lat="44.10293" lon="6.27949">
        <ele>706.7</ele>
        <time>2018-08-09T06:23:33Z</time>
      </trkpt>
      <trkpt lat="44.10296" lon="6.27951">
        <ele>707.4</ele>
        <time>2018-08-09T06:23:35Z</time>
      </trkpt>
      <trkpt lat="44.10299" lon="6.27952">
        <ele>708.2</ele>
        <time>2018-08-09T06:23:38Z</time>
      </trkpt>
      <trkpt lat="44.10301" lon="6.27956">
        <ele>709.2</ele>
        <time>2018-08-09T06:23:41Z</time>
      </trkpt>
      <trkpt lat="44.10305" lon="6.27957">
        <ele>710.1</ele>
        <time>2018-08-09T06:23:45Z</time>
      </trkpt>
      <trkpt lat="44.10308" lon="6.27957">
        <ele>710.7</ele>
        <time>2018-08-09T06:23:49Z</time>
      </trkpt>
      <trkpt lat="44.10311" lon="6.27959">
        <ele>711.5</ele>
        <time>2018-08-09T06:23:52Z</time>
      </trkpt>
      <trkpt lat="44.10314" lon="6.27959">
        <ele>712</ele>
        <time>2018-08-09T06:23:56Z</time>
      </trkpt>
      <trkpt lat="44.10317" lon="6.27958">
        <ele>712.6</ele>
        <time>2018-08-09T06:24:04Z</time>
      </trkpt>
      <trkpt lat="44.1032" lon="6.27959">
        <ele>713.3</ele>
        <time>2018-08-09T06:24:07Z</time>
      </trkpt>
      <trkpt lat="44.10323" lon="6.27957">
        <ele>713.8</ele>
        <time>2018-08-09T06:24:11Z</time>
      </trkpt>
      <trkpt lat="44.10326" lon="6.27957">
        <ele>714.4</ele>
        <time>2018-08-09T06:24:16Z</time>
      </trkpt>
      <trkpt lat="44.10329" lon="6.27957">
        <ele>714.9</ele>
        <time>2018-08-09T06:24:21Z</time>
      </trkpt>
      <trkpt lat="44.10333" lon="6.27958">
        <ele>715.4</ele>
        <time>2018-08-09T06:24:25Z</time>
      </trkpt>
      <trkpt lat="44.10337" lon="6.27957">
        <ele>716.5</ele>
        <time>2018-08-09T06:24:28Z</time>
      </trkpt>
      <trkpt lat="44.1034" lon="6.27956">
        <ele>717.2</ele>
        <time>2018-08-09T06:24:31Z</time>
      </trkpt>
      <trkpt lat="44.10343" lon="6.27953">
        <ele>718</ele>
        <time>2018-08-09T06:24:34Z</time>
      </trkpt>
      <trkpt lat="44.10346" lon="6.27951">
        <ele>718.4</ele>
        <time>2018-08-09T06:24:37Z</time>
      </trkpt>
      <trkpt lat="44.10349" lon="6.2795">
        <ele>718.9</ele>
        <time>2018-08-09T06:24:39Z</time>
      </trkpt>
      <trkpt lat="44.10352" lon="6.27949">
        <ele>719.4</ele>
        <time>2018-08-09T06:24:42Z</time>
      </trkpt>
      <trkpt lat="44.10355" lon="6.27949">
        <ele>719.8</ele>
        <time>2018-08-09T06:24:45Z</time>
      </trkpt>
      <trkpt lat="44.10358" lon="6.27947">
        <ele>720.3</ele>
        <time>2018-08-09T06:24:49Z</time>
      </trkpt>
      <trkpt lat="44.10361" lon="6.27947">
        <ele>720.7</ele>
        <time>2018-08-09T06:24:55Z</time>
      </trkpt>
      <trkpt lat="44.10364" lon="6.27945">
        <ele>721.1</ele>
        <time>2018-08-09T06:24:58Z</time>
      </trkpt>
      <trkpt lat="44.10367" lon="6.27944">
        <ele>721.5</ele>
        <time>2018-08-09T06:25:01Z</time>
      </trkpt>
      <trkpt lat="44.1037" lon="6.27942">
        <ele>721.9</ele>
        <time>2018-08-09T06:25:07Z</time>
      </trkpt>
      <trkpt lat="44.10374" lon="6.27941">
        <ele>722.2</ele>
        <time>2018-08-09T06:25:10Z</time>
      </trkpt>
      <trkpt lat="44.10376" lon="6.27939">
        <ele>722.4</ele>
        <time>2018-08-09T06:25:12Z</time>
      </trkpt>
      <trkpt lat="44.10379" lon="6.27937">
        <ele>722.7</ele>
        <time>2018-08-09T06:25:15Z</time>
      </trkpt>
      <trkpt lat="44.10382" lon="6.27937">
        <ele>722.9</ele>
        <time>2018-08-09T06:25:19Z</time>
      </trkpt>
      <trkpt lat="44.10386" lon="6.27935">
        <ele>723.3</ele>
        <time>2018-08-09T06:25:22Z</time>
      </trkpt>
      <trkpt lat="44.10389" lon="6.27933">
        <ele>723.6</ele>
        <time>2018-08-09T06:25:24Z</time>
      </trkpt>
      <trkpt lat="44.10392" lon="6.27931">
        <ele>724</ele>
        <time>2018-08-09T06:25:27Z</time>
      </trkpt>
      <trkpt lat="44.10395" lon="6.27931">
        <ele>724.3</ele>
        <time>2018-08-09T06:25:30Z</time>
      </trkpt>
      <trkpt lat="44.10399" lon="6.27929">
        <ele>724.6</ele>
        <time>2018-08-09T06:25:33Z</time>
      </trkpt>
      <trkpt lat="44.10402" lon="6.27927">
        <ele>724.7</ele>
        <time>2018-08-09T06:25:35Z</time>
      </trkpt>
      <trkpt lat="44.10405" lon="6.27925">
        <ele>724.9</ele>
        <time>2018-08-09T06:25:38Z</time>
      </trkpt>
      <trkpt lat="44.10408" lon="6.27924">
        <ele>725</ele>
        <time>2018-08-09T06:25:40Z</time>
      </trkpt>
      <trkpt lat="44.10411" lon="6.27923">
        <ele>725.2</ele>
        <time>2018-08-09T06:25:43Z</time>
      </trkpt>
      <trkpt lat="44.10415" lon="6.27925">
        <ele>725.4</ele>
        <time>2018-08-09T06:25:46Z</time>
      </trkpt>
      <trkpt lat="44.10419" lon="6.27928">
        <ele>725.8</ele>
        <time>2018-08-09T06:25:49Z</time>
      </trkpt>
      <trkpt lat="44.10422" lon="6.27929">
        <ele>726.1</ele>
        <time>2018-08-09T06:25:52Z</time>
      </trkpt>
      <trkpt lat="44.10424" lon="6.27931">
        <ele>726.4</ele>
        <time>2018-08-09T06:25:54Z</time>
      </trkpt>
      <trkpt lat="44.10428" lon="6.27933">
        <ele>726.7</ele>
        <time>2018-08-09T06:25:56Z</time>
      </trkpt>
      <trkpt lat="44.10431" lon="6.27935">
        <ele>727.1</ele>
        <time>2018-08-09T06:25:58Z</time>
      </trkpt>
      <trkpt lat="44.10434" lon="6.27936">
        <ele>727.4</ele>
        <time>2018-08-09T06:26:00Z</time>
      </trkpt>
      <trkpt lat="44.10439" lon="6.27938">
        <ele>727.7</ele>
        <time>2018-08-09T06:26:02Z</time>
      </trkpt>
      <trkpt lat="44.10443" lon="6.27937">
        <ele>728.1</ele>
        <time>2018-08-09T06:26:04Z</time>
      </trkpt>
      <trkpt lat="44.10446" lon="6.27935">
        <ele>728.4</ele>
        <time>2018-08-09T06:26:06Z</time>
      </trkpt>
      <trkpt lat="44.10449" lon="6.27937">
        <ele>728.8</ele>
        <time>2018-08-09T06:26:09Z</time>
      </trkpt>
      <trkpt lat="44.10452" lon="6.27939">
        <ele>729.1</ele>
        <time>2018-08-09T06:26:11Z</time>
      </trkpt>
      <trkpt lat="44.10455" lon="6.27943">
        <ele>729.5</ele>
        <time>2018-08-09T06:26:14Z</time>
      </trkpt>
      <trkpt lat="44.10459" lon="6.27945">
        <ele>729.7</ele>
        <time>2018-08-09T06:26:17Z</time>
      </trkpt>
      <trkpt lat="44.10462" lon="6.27946">
        <ele>729.8</ele>
        <time>2018-08-09T06:26:19Z</time>
      </trkpt>
      <trkpt lat="44.10465" lon="6.27948">
        <ele>729.9</ele>
        <time>2018-08-09T06:26:21Z</time>
      </trkpt>
      <trkpt lat="44.10468" lon="6.27948">
        <ele>730</ele>
        <time>2018-08-09T06:26:25Z</time>
      </trkpt>
      <trkpt lat="44.10472" lon="6.27949">
        <ele>730.1</ele>
        <time>2018-08-09T06:26:27Z</time>
      </trkpt>
      <trkpt lat="44.10475" lon="6.27951">
        <ele>730.2</ele>
        <time>2018-08-09T06:26:29Z</time>
      </trkpt>
      <trkpt lat="44.10478" lon="6.27952">
        <ele>730.3</ele>
        <time>2018-08-09T06:26:31Z</time>
      </trkpt>
      <trkpt lat="44.10484" lon="6.27952">
        <ele>730.4</ele>
        <time>2018-08-09T06:26:33Z</time>
      </trkpt>
      <trkpt lat="44.10488" lon="6.27953">
        <ele>730.5</ele>
        <time>2018-08-09T06:26:35Z</time>
      </trkpt>
      <trkpt lat="44.10493" lon="6.27956">
        <ele>730.6</ele>
        <time>2018-08-09T06:26:37Z</time>
      </trkpt>
      <trkpt lat="44.10497" lon="6.27958">
        <ele>730.8</ele>
        <time>2018-08-09T06:26:39Z</time>
      </trkpt>
      <trkpt lat="44.105" lon="6.27957">
        <ele>731</ele>
        <time>2018-08-09T06:26:40Z</time>
      </trkpt>
      <trkpt lat="44.10504" lon="6.27955">
        <ele>731.3</ele>
        <time>2018-08-09T06:26:42Z</time>
      </trkpt>
      <trkpt lat="44.10507" lon="6.27955">
        <ele>731.5</ele>
        <time>2018-08-09T06:26:43Z</time>
      </trkpt>
      <trkpt lat="44.10512" lon="6.27955">
        <ele>732.2</ele>
        <time>2018-08-09T06:26:45Z</time>
      </trkpt>
      <trkpt lat="44.10516" lon="6.27957">
        <ele>732.8</ele>
        <time>2018-08-09T06:26:47Z</time>
      </trkpt>
      <trkpt lat="44.10519" lon="6.27958">
        <ele>733.2</ele>
        <time>2018-08-09T06:26:48Z</time>
      </trkpt>
      <trkpt lat="44.10522" lon="6.27957">
        <ele>733.6</ele>
        <time>2018-08-09T06:26:49Z</time>
      </trkpt>
      <trkpt lat="44.10525" lon="6.27956">
        <ele>734.1</ele>
        <time>2018-08-09T06:26:50Z</time>
      </trkpt>
      <trkpt lat="44.10528" lon="6.2796">
        <ele>734.7</ele>
        <time>2018-08-09T06:26:52Z</time>
      </trkpt>
      <trkpt lat="44.10531" lon="6.27962">
        <ele>735.1</ele>
        <time>2018-08-09T06:26:53Z</time>
      </trkpt>
      <trkpt lat="44.10534" lon="6.27964">
        <ele>735.6</ele>
        <time>2018-08-09T06:26:54Z</time>
      </trkpt>
      <trkpt lat="44.10538" lon="6.27965">
        <ele>736.3</ele>
        <time>2018-08-09T06:26:56Z</time>
      </trkpt>
      <trkpt lat="44.10541" lon="6.27964">
        <ele>736.8</ele>
        <time>2018-08-09T06:26:58Z</time>
      </trkpt>
      <trkpt lat="44.10544" lon="6.27965">
        <ele>737.3</ele>
        <time>2018-08-09T06:27:01Z</time>
      </trkpt>
      <trkpt lat="44.10547" lon="6.27965">
        <ele>737.9</ele>
        <time>2018-08-09T06:27:03Z</time>
      </trkpt>
      <trkpt lat="44.1055" lon="6.27965">
        <ele>738.5</ele>
        <time>2018-08-09T06:27:05Z</time>
      </trkpt>
      <trkpt lat="44.10554" lon="6.27965">
        <ele>739.1</ele>
        <time>2018-08-09T06:27:07Z</time>
      </trkpt>
      <trkpt lat="44.10557" lon="6.27965">
        <ele>739.8</ele>
        <time>2018-08-09T06:27:09Z</time>
      </trkpt>
      <trkpt lat="44.1056" lon="6.27966">
        <ele>740.3</ele>
        <time>2018-08-09T06:27:11Z</time>
      </trkpt>
      <trkpt lat="44.10562" lon="6.27971">
        <ele>741.1</ele>
        <time>2018-08-09T06:27:13Z</time>
      </trkpt>
      <trkpt lat="44.10564" lon="6.27975">
        <ele>741.8</ele>
        <time>2018-08-09T06:27:16Z</time>
      </trkpt>
      <trkpt lat="44.10566" lon="6.27979">
        <ele>742.4</ele>
        <time>2018-08-09T06:27:19Z</time>
      </trkpt>
      <trkpt lat="44.10567" lon="6.27984">
        <ele>743</ele>
        <time>2018-08-09T06:27:22Z</time>
      </trkpt>
      <trkpt lat="44.10566" lon="6.27988">
        <ele>743.5</ele>
        <time>2018-08-09T06:27:24Z</time>
      </trkpt>
      <trkpt lat="44.10566" lon="6.27992">
        <ele>743.9</ele>
        <time>2018-08-09T06:27:26Z</time>
      </trkpt>
      <trkpt lat="44.10567" lon="6.27996">
        <ele>744.4</ele>
        <time>2018-08-09T06:27:28Z</time>
      </trkpt>
      <trkpt lat="44.1057" lon="6.27998">
        <ele>744.9</ele>
        <time>2018-08-09T06:27:30Z</time>
      </trkpt>
      <trkpt lat="44.10573" lon="6.28">
        <ele>745.5</ele>
        <time>2018-08-09T06:27:33Z</time>
      </trkpt>
      <trkpt lat="44.10577" lon="6.28001">
        <ele>745.9</ele>
        <time>2018-08-09T06:27:35Z</time>
      </trkpt>
      <trkpt lat="44.1058" lon="6.28001">
        <ele>746.4</ele>
        <time>2018-08-09T06:27:38Z</time>
      </trkpt>
      <trkpt lat="44.10583" lon="6.28004">
        <ele>746.9</ele>
        <time>2018-08-09T06:27:41Z</time>
      </trkpt>
      <trkpt lat="44.10586" lon="6.28006">
        <ele>747.2</ele>
        <time>2018-08-09T06:27:44Z</time>
      </trkpt>
      <trkpt lat="44.10591" lon="6.28006">
        <ele>747.8</ele>
        <time>2018-08-09T06:27:47Z</time>
      </trkpt>
      <trkpt lat="44.10593" lon="6.28008">
        <ele>748.1</ele>
        <time>2018-08-09T06:27:50Z</time>
      </trkpt>
      <trkpt lat="44.10596" lon="6.28011">
        <ele>748.4</ele>
        <time>2018-08-09T06:27:53Z</time>
      </trkpt>
      <trkpt lat="44.10599" lon="6.28013">
        <ele>748.8</ele>
        <time>2018-08-09T06:27:56Z</time>
      </trkpt>
      <trkpt lat="44.10602" lon="6.28014">
        <ele>749.1</ele>
        <time>2018-08-09T06:27:58Z</time>
      </trkpt>
      <trkpt lat="44.10606" lon="6.28015">
        <ele>749.5</ele>
        <time>2018-08-09T06:28:03Z</time>
      </trkpt>
      <trkpt lat="44.10609" lon="6.28016">
        <ele>749.8</ele>
        <time>2018-08-09T06:28:05Z</time>
      </trkpt>
      <trkpt lat="44.10611" lon="6.28018">
        <ele>750.1</ele>
        <time>2018-08-09T06:28:07Z</time>
      </trkpt>
      <trkpt lat="44.10614" lon="6.28018">
        <ele>750.4</ele>
        <time>2018-08-09T06:28:09Z</time>
      </trkpt>
      <trkpt lat="44.10618" lon="6.28017">
        <ele>750.9</ele>
        <time>2018-08-09T06:28:12Z</time>
      </trkpt>
      <trkpt lat="44.10621" lon="6.28017">
        <ele>751.2</ele>
        <time>2018-08-09T06:28:15Z</time>
      </trkpt>
      <trkpt lat="44.10624" lon="6.28018">
        <ele>751.6</ele>
        <time>2018-08-09T06:28:17Z</time>
      </trkpt>
      <trkpt lat="44.10627" lon="6.28019">
        <ele>752</ele>
        <time>2018-08-09T06:28:19Z</time>
      </trkpt>
      <trkpt lat="44.10631" lon="6.28018">
        <ele>752.5</ele>
        <time>2018-08-09T06:28:22Z</time>
      </trkpt>
      <trkpt lat="44.10634" lon="6.28019">
        <ele>752.9</ele>
        <time>2018-08-09T06:28:25Z</time>
      </trkpt>
      <trkpt lat="44.10637" lon="6.28019">
        <ele>753.3</ele>
        <time>2018-08-09T06:28:28Z</time>
      </trkpt>
      <trkpt lat="44.1064" lon="6.28018">
        <ele>753.8</ele>
        <time>2018-08-09T06:28:30Z</time>
      </trkpt>
      <trkpt lat="44.10643" lon="6.28019">
        <ele>754.4</ele>
        <time>2018-08-09T06:28:34Z</time>
      </trkpt>
      <trkpt lat="44.10647" lon="6.28016">
        <ele>755.1</ele>
        <time>2018-08-09T06:28:37Z</time>
      </trkpt>
      <trkpt lat="44.1065" lon="6.28015">
        <ele>755.6</ele>
        <time>2018-08-09T06:28:39Z</time>
      </trkpt>
      <trkpt lat="44.10653" lon="6.28013">
        <ele>756</ele>
        <time>2018-08-09T06:28:41Z</time>
      </trkpt>
      <trkpt lat="44.10656" lon="6.28013">
        <ele>756.4</ele>
        <time>2018-08-09T06:28:43Z</time>
      </trkpt>
      <trkpt lat="44.1066" lon="6.28012">
        <ele>756.8</ele>
        <time>2018-08-09T06:28:45Z</time>
      </trkpt>
      <trkpt lat="44.10663" lon="6.28014">
        <ele>757.2</ele>
        <time>2018-08-09T06:28:48Z</time>
      </trkpt>
      <trkpt lat="44.10666" lon="6.28016">
        <ele>757.7</ele>
        <time>2018-08-09T06:28:51Z</time>
      </trkpt>
      <trkpt lat="44.10669" lon="6.28016">
        <ele>758</ele>
        <time>2018-08-09T06:28:54Z</time>
      </trkpt>
      <trkpt lat="44.10673" lon="6.28018">
        <ele>758.6</ele>
        <time>2018-08-09T06:28:57Z</time>
      </trkpt>
      <trkpt lat="44.10676" lon="6.28019">
        <ele>759.1</ele>
        <time>2018-08-09T06:28:59Z</time>
      </trkpt>
      <trkpt lat="44.10679" lon="6.28021">
        <ele>759.7</ele>
        <time>2018-08-09T06:29:01Z</time>
      </trkpt>
      <trkpt lat="44.10682" lon="6.28021">
        <ele>760.1</ele>
        <time>2018-08-09T06:29:04Z</time>
      </trkpt>
      <trkpt lat="44.10685" lon="6.28022">
        <ele>760.4</ele>
        <time>2018-08-09T06:29:07Z</time>
      </trkpt>
      <trkpt lat="44.10689" lon="6.28022">
        <ele>760.9</ele>
        <time>2018-08-09T06:29:09Z</time>
      </trkpt>
      <trkpt lat="44.10691" lon="6.28024">
        <ele>761.4</ele>
        <time>2018-08-09T06:29:12Z</time>
      </trkpt>
      <trkpt lat="44.10694" lon="6.28027">
        <ele>761.8</ele>
        <time>2018-08-09T06:29:15Z</time>
      </trkpt>
      <trkpt lat="44.10696" lon="6.28028">
        <ele>762.1</ele>
        <time>2018-08-09T06:29:17Z</time>
      </trkpt>
      <trkpt lat="44.107" lon="6.28032">
        <ele>762.5</ele>
        <time>2018-08-09T06:29:19Z</time>
      </trkpt>
      <trkpt lat="44.10703" lon="6.28035">
        <ele>762.8</ele>
        <time>2018-08-09T06:29:20Z</time>
      </trkpt>
      <trkpt lat="44.10706" lon="6.28038">
        <ele>763.1</ele>
        <time>2018-08-09T06:29:22Z</time>
      </trkpt>
      <trkpt lat="44.10708" lon="6.28041">
        <ele>763.3</ele>
        <time>2018-08-09T06:29:24Z</time>
      </trkpt>
      <trkpt lat="44.1071" lon="6.28045">
        <ele>763.5</ele>
        <time>2018-08-09T06:29:26Z</time>
      </trkpt>
      <trkpt lat="44.10712" lon="6.28049">
        <ele>763.8</ele>
        <time>2018-08-09T06:29:28Z</time>
      </trkpt>
      <trkpt lat="44.10713" lon="6.28052">
        <ele>764</ele>
        <time>2018-08-09T06:29:30Z</time>
      </trkpt>
      <trkpt lat="44.10716" lon="6.28055">
        <ele>764.3</ele>
        <time>2018-08-09T06:29:32Z</time>
      </trkpt>
      <trkpt lat="44.10717" lon="6.28058">
        <ele>764.5</ele>
        <time>2018-08-09T06:29:34Z</time>
      </trkpt>
      <trkpt lat="44.1072" lon="6.28063">
        <ele>765</ele>
        <time>2018-08-09T06:29:37Z</time>
      </trkpt>
      <trkpt lat="44.10722" lon="6.28067">
        <ele>765.4</ele>
        <time>2018-08-09T06:29:39Z</time>
      </trkpt>
      <trkpt lat="44.10724" lon="6.28071">
        <ele>765.7</ele>
        <time>2018-08-09T06:29:41Z</time>
      </trkpt>
      <trkpt lat="44.10725" lon="6.28076">
        <ele>766</ele>
        <time>2018-08-09T06:29:44Z</time>
      </trkpt>
      <trkpt lat="44.10727" lon="6.28079">
        <ele>766.1</ele>
        <time>2018-08-09T06:29:46Z</time>
      </trkpt>
      <trkpt lat="44.10729" lon="6.28082">
        <ele>766.3</ele>
        <time>2018-08-09T06:29:49Z</time>
      </trkpt>
      <trkpt lat="44.10731" lon="6.28087">
        <ele>766.6</ele>
        <time>2018-08-09T06:29:52Z</time>
      </trkpt>
      <trkpt lat="44.10733" lon="6.28089">
        <ele>766.8</ele>
        <time>2018-08-09T06:29:54Z</time>
      </trkpt>
      <trkpt lat="44.10735" lon="6.28092">
        <ele>767</ele>
        <time>2018-08-09T06:29:56Z</time>
      </trkpt>
      <trkpt lat="44.10738" lon="6.28094">
        <ele>767.2</ele>
        <time>2018-08-09T06:29:58Z</time>
      </trkpt>
      <trkpt lat="44.10742" lon="6.28094">
        <ele>767.6</ele>
        <time>2018-08-09T06:29:59Z</time>
      </trkpt>
      <trkpt lat="44.10745" lon="6.28095">
        <ele>768.1</ele>
        <time>2018-08-09T06:30:00Z</time>
      </trkpt>
      <trkpt lat="44.10748" lon="6.28096">
        <ele>768.4</ele>
        <time>2018-08-09T06:30:01Z</time>
      </trkpt>
      <trkpt lat="44.10752" lon="6.28098">
        <ele>768.9</ele>
        <time>2018-08-09T06:30:02Z</time>
      </trkpt>
      <trkpt lat="44.10755" lon="6.28102">
        <ele>769.4</ele>
        <time>2018-08-09T06:30:03Z</time>
      </trkpt>
      <trkpt lat="44.10759" lon="6.28105">
        <ele>769.9</ele>
        <time>2018-08-09T06:30:04Z</time>
      </trkpt>
      <trkpt lat="44.10762" lon="6.28107">
        <ele>770.4</ele>
        <time>2018-08-09T06:30:06Z</time>
      </trkpt>
      <trkpt lat="44.10765" lon="6.28106">
        <ele>770.8</ele>
        <time>2018-08-09T06:30:09Z</time>
      </trkpt>
      <trkpt lat="44.10767" lon="6.28107">
        <ele>771.1</ele>
        <time>2018-08-09T06:30:19Z</time>
      </trkpt>
      <trkpt lat="44.10771" lon="6.2811">
        <ele>771.7</ele>
        <time>2018-08-09T06:30:22Z</time>
      </trkpt>
      <trkpt lat="44.10774" lon="6.28112">
        <ele>772.1</ele>
        <time>2018-08-09T06:30:24Z</time>
      </trkpt>
      <trkpt lat="44.10776" lon="6.28113">
        <ele>772.4</ele>
        <time>2018-08-09T06:30:26Z</time>
      </trkpt>
      <trkpt lat="44.10778" lon="6.28116">
        <ele>772.8</ele>
        <time>2018-08-09T06:30:29Z</time>
      </trkpt>
      <trkpt lat="44.10781" lon="6.28118">
        <ele>773.2</ele>
        <time>2018-08-09T06:30:31Z</time>
      </trkpt>
      <trkpt lat="44.10783" lon="6.2812">
        <ele>773.5</ele>
        <time>2018-08-09T06:30:33Z</time>
      </trkpt>
      <trkpt lat="44.10787" lon="6.28122">
        <ele>774.1</ele>
        <time>2018-08-09T06:30:36Z</time>
      </trkpt>
      <trkpt lat="44.1079" lon="6.28123">
        <ele>774.5</ele>
        <time>2018-08-09T06:30:38Z</time>
      </trkpt>
      <trkpt lat="44.10794" lon="6.28124">
        <ele>775</ele>
        <time>2018-08-09T06:30:41Z</time>
      </trkpt>
      <trkpt lat="44.10797" lon="6.28126">
        <ele>775.3</ele>
        <time>2018-08-09T06:30:44Z</time>
      </trkpt>
      <trkpt lat="44.108" lon="6.28128">
        <ele>775.7</ele>
        <time>2018-08-09T06:30:47Z</time>
      </trkpt>
      <trkpt lat="44.10803" lon="6.2813">
        <ele>776</ele>
        <time>2018-08-09T06:30:50Z</time>
      </trkpt>
      <trkpt lat="44.10806" lon="6.28134">
        <ele>776.4</ele>
        <time>2018-08-09T06:30:54Z</time>
      </trkpt>
      <trkpt lat="44.10809" lon="6.28137">
        <ele>776.7</ele>
        <time>2018-08-09T06:30:57Z</time>
      </trkpt>
      <trkpt lat="44.10811" lon="6.28141">
        <ele>777</ele>
        <time>2018-08-09T06:31:00Z</time>
      </trkpt>
      <trkpt lat="44.10812" lon="6.28144">
        <ele>777.3</ele>
        <time>2018-08-09T06:31:03Z</time>
      </trkpt>
      <trkpt lat="44.10814" lon="6.28147">
        <ele>777.6</ele>
        <time>2018-08-09T06:31:05Z</time>
      </trkpt>
      <trkpt lat="44.10817" lon="6.28151">
        <ele>777.9</ele>
        <time>2018-08-09T06:31:08Z</time>
      </trkpt>
      <trkpt lat="44.10818" lon="6.28156">
        <ele>778.3</ele>
        <time>2018-08-09T06:31:11Z</time>
      </trkpt>
      <trkpt lat="44.10821" lon="6.28158">
        <ele>778.6</ele>
        <time>2018-08-09T06:31:13Z</time>
      </trkpt>
      <trkpt lat="44.10823" lon="6.28162">
        <ele>778.9</ele>
        <time>2018-08-09T06:31:16Z</time>
      </trkpt>
      <trkpt lat="44.10825" lon="6.28166">
        <ele>779.4</ele>
        <time>2018-08-09T06:31:19Z</time>
      </trkpt>
      <trkpt lat="44.10828" lon="6.28169">
        <ele>779.8</ele>
        <time>2018-08-09T06:31:21Z</time>
      </trkpt>
      <trkpt lat="44.1083" lon="6.28171">
        <ele>780.1</ele>
        <time>2018-08-09T06:31:33Z</time>
      </trkpt>
      <trkpt lat="44.10831" lon="6.28175">
        <ele>780.4</ele>
        <time>2018-08-09T06:31:36Z</time>
      </trkpt>
      <trkpt lat="44.10834" lon="6.28178">
        <ele>780.8</ele>
        <time>2018-08-09T06:31:39Z</time>
      </trkpt>
      <trkpt lat="44.10835" lon="6.28181">
        <ele>781.1</ele>
        <time>2018-08-09T06:31:42Z</time>
      </trkpt>
      <trkpt lat="44.10838" lon="6.28183">
        <ele>781.4</ele>
        <time>2018-08-09T06:31:47Z</time>
      </trkpt>
      <trkpt lat="44.10837" lon="6.28188">
        <ele>781.9</ele>
        <time>2018-08-09T06:31:56Z</time>
      </trkpt>
      <trkpt lat="44.10839" lon="6.28192">
        <ele>782.4</ele>
        <time>2018-08-09T06:32:00Z</time>
      </trkpt>
      <trkpt lat="44.10841" lon="6.28195">
        <ele>784.8</ele>
        <time>2018-08-09T06:32:05Z</time>
      </trkpt>
      <trkpt lat="44.10843" lon="6.28198">
        <ele>785.8</ele>
        <time>2018-08-09T06:32:13Z</time>
      </trkpt>
      <trkpt lat="44.10845" lon="6.282">
        <ele>786.5</ele>
        <time>2018-08-09T06:32:19Z</time>
      </trkpt>
      <trkpt lat="44.10847" lon="6.28202">
        <ele>787.6</ele>
        <time>2018-08-09T06:32:26Z</time>
      </trkpt>
      <trkpt lat="44.10851" lon="6.28203">
        <ele>791</ele>
        <time>2018-08-09T06:32:39Z</time>
      </trkpt>
      <trkpt lat="44.10854" lon="6.28205">
        <ele>792.2</ele>
        <time>2018-08-09T06:32:44Z</time>
      </trkpt>
      <trkpt lat="44.10856" lon="6.28207">
        <ele>793.1</ele>
        <time>2018-08-09T06:32:47Z</time>
      </trkpt>
      <trkpt lat="44.10859" lon="6.28207">
        <ele>794</ele>
        <time>2018-08-09T06:32:53Z</time>
      </trkpt>
      <trkpt lat="44.10863" lon="6.28208">
        <ele>794.8</ele>
        <time>2018-08-09T06:32:58Z</time>
      </trkpt>
      <trkpt lat="44.10866" lon="6.2821">
        <ele>795.8</ele>
        <time>2018-08-09T06:33:03Z</time>
      </trkpt>
      <trkpt lat="44.10869" lon="6.2821">
        <ele>796.6</ele>
        <time>2018-08-09T06:33:06Z</time>
      </trkpt>
      <trkpt lat="44.10872" lon="6.2821">
        <ele>797.2</ele>
        <time>2018-08-09T06:33:09Z</time>
      </trkpt>
      <trkpt lat="44.10875" lon="6.28212">
        <ele>797.9</ele>
        <time>2018-08-09T06:33:14Z</time>
      </trkpt>
      <trkpt lat="44.10878" lon="6.28213">
        <ele>798.5</ele>
        <time>2018-08-09T06:33:18Z</time>
      </trkpt>
      <trkpt lat="44.10881" lon="6.28211">
        <ele>799.2</ele>
        <time>2018-08-09T06:33:21Z</time>
      </trkpt>
      <trkpt lat="44.10883" lon="6.28213">
        <ele>799.8</ele>
        <time>2018-08-09T06:33:26Z</time>
      </trkpt>
      <trkpt lat="44.10886" lon="6.28214">
        <ele>800.3</ele>
        <time>2018-08-09T06:33:30Z</time>
      </trkpt>
      <trkpt lat="44.10883" lon="6.28217">
        <ele>801.1</ele>
        <time>2018-08-09T06:35:42Z</time>
      </trkpt>
      <trkpt lat="44.10885" lon="6.28219">
        <ele>801.8</ele>
        <time>2018-08-09T06:37:00Z</time>
      </trkpt>
      <trkpt lat="44.10889" lon="6.28221">
        <ele>802.6</ele>
        <time>2018-08-09T06:37:04Z</time>
      </trkpt>
      <trkpt lat="44.10893" lon="6.28222">
        <ele>803.5</ele>
        <time>2018-08-09T06:37:08Z</time>
      </trkpt>
      <trkpt lat="44.10896" lon="6.28222">
        <ele>804.2</ele>
        <time>2018-08-09T06:37:13Z</time>
      </trkpt>
      <trkpt lat="44.10899" lon="6.28224">
        <ele>804.9</ele>
        <time>2018-08-09T06:37:16Z</time>
      </trkpt>
      <trkpt lat="44.10902" lon="6.28226">
        <ele>805.5</ele>
        <time>2018-08-09T06:37:20Z</time>
      </trkpt>
      <trkpt lat="44.10904" lon="6.28228">
        <ele>806.1</ele>
        <time>2018-08-09T06:37:23Z</time>
      </trkpt>
      <trkpt lat="44.10906" lon="6.28231">
        <ele>806.6</ele>
        <time>2018-08-09T06:37:28Z</time>
      </trkpt>
      <trkpt lat="44.10909" lon="6.28233">
        <ele>807.2</ele>
        <time>2018-08-09T06:37:32Z</time>
      </trkpt>
      <trkpt lat="44.10912" lon="6.28236">
        <ele>807.9</ele>
        <time>2018-08-09T06:37:37Z</time>
      </trkpt>
      <trkpt lat="44.10915" lon="6.28238">
        <ele>808.5</ele>
        <time>2018-08-09T06:37:41Z</time>
      </trkpt>
      <trkpt lat="44.10917" lon="6.28241">
        <ele>809.3</ele>
        <time>2018-08-09T06:37:45Z</time>
      </trkpt>
      <trkpt lat="44.1092" lon="6.28243">
        <ele>810.1</ele>
        <time>2018-08-09T06:37:53Z</time>
      </trkpt>
      <trkpt lat="44.10923" lon="6.28244">
        <ele>810.9</ele>
        <time>2018-08-09T06:37:57Z</time>
      </trkpt>
      <trkpt lat="44.10926" lon="6.28244">
        <ele>811.4</ele>
        <time>2018-08-09T06:38:01Z</time>
      </trkpt>
      <trkpt lat="44.1093" lon="6.28246">
        <ele>811.9</ele>
        <time>2018-08-09T06:38:14Z</time>
      </trkpt>
      <trkpt lat="44.10933" lon="6.28247">
        <ele>812.4</ele>
        <time>2018-08-09T06:38:18Z</time>
      </trkpt>
      <trkpt lat="44.10935" lon="6.28248">
        <ele>812.7</ele>
        <time>2018-08-09T06:38:23Z</time>
      </trkpt>
      <trkpt lat="44.10938" lon="6.28248">
        <ele>813.1</ele>
        <time>2018-08-09T06:38:27Z</time>
      </trkpt>
      <trkpt lat="44.10942" lon="6.28247">
        <ele>813.5</ele>
        <time>2018-08-09T06:38:31Z</time>
      </trkpt>
      <trkpt lat="44.10944" lon="6.28247">
        <ele>813.9</ele>
        <time>2018-08-09T06:38:35Z</time>
      </trkpt>
      <trkpt lat="44.10947" lon="6.28245">
        <ele>814.3</ele>
        <time>2018-08-09T06:38:39Z</time>
      </trkpt>
      <trkpt lat="44.10949" lon="6.28243">
        <ele>814.7</ele>
        <time>2018-08-09T06:38:44Z</time>
      </trkpt>
      <trkpt lat="44.10951" lon="6.28238">
        <ele>815.5</ele>
        <time>2018-08-09T06:38:51Z</time>
      </trkpt>
      <trkpt lat="44.10954" lon="6.2824">
        <ele>817.8</ele>
        <time>2018-08-09T06:38:59Z</time>
      </trkpt>
      <trkpt lat="44.10957" lon="6.28239">
        <ele>818.9</ele>
        <time>2018-08-09T06:39:05Z</time>
      </trkpt>
      <trkpt lat="44.10959" lon="6.28236">
        <ele>819.9</ele>
        <time>2018-08-09T06:39:16Z</time>
      </trkpt>
      <trkpt lat="44.10963" lon="6.28237">
        <ele>822.3</ele>
        <time>2018-08-09T06:39:21Z</time>
      </trkpt>
      <trkpt lat="44.10966" lon="6.28238">
        <ele>823.4</ele>
        <time>2018-08-09T06:42:02Z</time>
      </trkpt>
      <trkpt lat="44.10968" lon="6.28238">
        <ele>824.2</ele>
        <time>2018-08-09T06:42:05Z</time>
      </trkpt>
      <trkpt lat="44.10971" lon="6.28238">
        <ele>825.2</ele>
        <time>2018-08-09T06:42:09Z</time>
      </trkpt>
      <trkpt lat="44.10973" lon="6.28236">
        <ele>826.2</ele>
        <time>2018-08-09T06:42:33Z</time>
      </trkpt>
      <trkpt lat="44.10977" lon="6.28232">
        <ele>827.4</ele>
        <time>2018-08-09T06:42:37Z</time>
      </trkpt>
      <trkpt lat="44.1098" lon="6.28232">
        <ele>828.3</ele>
        <time>2018-08-09T06:42:41Z</time>
      </trkpt>
      <trkpt lat="44.10983" lon="6.28233">
        <ele>829.1</ele>
        <time>2018-08-09T06:42:45Z</time>
      </trkpt>
      <trkpt lat="44.10986" lon="6.28233">
        <ele>829.8</ele>
        <time>2018-08-09T06:42:48Z</time>
      </trkpt>
      <trkpt lat="44.10989" lon="6.28235">
        <ele>830.7</ele>
        <time>2018-08-09T06:42:52Z</time>
      </trkpt>
      <trkpt lat="44.10993" lon="6.28235">
        <ele>831.6</ele>
        <time>2018-08-09T06:42:55Z</time>
      </trkpt>
      <trkpt lat="44.10995" lon="6.28238">
        <ele>832.3</ele>
        <time>2018-08-09T06:42:58Z</time>
      </trkpt>
      <trkpt lat="44.10999" lon="6.2824">
        <ele>833</ele>
        <time>2018-08-09T06:43:02Z</time>
      </trkpt>
      <trkpt lat="44.11002" lon="6.28242">
        <ele>833.6</ele>
        <time>2018-08-09T06:43:08Z</time>
      </trkpt>
      <trkpt lat="44.11005" lon="6.28244">
        <ele>834.1</ele>
        <time>2018-08-09T06:43:12Z</time>
      </trkpt>
      <trkpt lat="44.11007" lon="6.28246">
        <ele>834.3</ele>
        <time>2018-08-09T06:43:17Z</time>
      </trkpt>
      <trkpt lat="44.11011" lon="6.28247">
        <ele>834.6</ele>
        <time>2018-08-09T06:43:24Z</time>
      </trkpt>
      <trkpt lat="44.11014" lon="6.28247">
        <ele>834.8</ele>
        <time>2018-08-09T06:43:27Z</time>
      </trkpt>
      <trkpt lat="44.11017" lon="6.28247">
        <ele>835</ele>
        <time>2018-08-09T06:43:29Z</time>
      </trkpt>
      <trkpt lat="44.11021" lon="6.28248">
        <ele>835.2</ele>
        <time>2018-08-09T06:43:32Z</time>
      </trkpt>
      <trkpt lat="44.11023" lon="6.28253">
        <ele>835.4</ele>
        <time>2018-08-09T06:43:35Z</time>
      </trkpt>
      <trkpt lat="44.11025" lon="6.28257">
        <ele>835.6</ele>
        <time>2018-08-09T06:43:37Z</time>
      </trkpt>
      <trkpt lat="44.11027" lon="6.28262">
        <ele>835.6</ele>
        <time>2018-08-09T06:43:39Z</time>
      </trkpt>
      <trkpt lat="44.11027" lon="6.28267">
        <ele>835.6</ele>
        <time>2018-08-09T06:43:41Z</time>
      </trkpt>
      <trkpt lat="44.1103" lon="6.2827">
        <ele>835.6</ele>
        <time>2018-08-09T06:43:43Z</time>
      </trkpt>
      <trkpt lat="44.1103" lon="6.28277">
        <ele>835.7</ele>
        <time>2018-08-09T06:43:45Z</time>
      </trkpt>
      <trkpt lat="44.1103" lon="6.28283">
        <ele>835.7</ele>
        <time>2018-08-09T06:43:47Z</time>
      </trkpt>
      <trkpt lat="44.11032" lon="6.28288">
        <ele>835.8</ele>
        <time>2018-08-09T06:43:49Z</time>
      </trkpt>
      <trkpt lat="44.11035" lon="6.28294">
        <ele>835.8</ele>
        <time>2018-08-09T06:43:51Z</time>
      </trkpt>
      <trkpt lat="44.11039" lon="6.28298">
        <ele>835.8</ele>
        <time>2018-08-09T06:43:53Z</time>
      </trkpt>
      <trkpt lat="44.11042" lon="6.28302">
        <ele>835.9</ele>
        <time>2018-08-09T06:43:55Z</time>
      </trkpt>
      <trkpt lat="44.11045" lon="6.28305">
        <ele>835.9</ele>
        <time>2018-08-09T06:43:57Z</time>
      </trkpt>
      <trkpt lat="44.11048" lon="6.28309">
        <ele>835.9</ele>
        <time>2018-08-09T06:43:59Z</time>
      </trkpt>
      <trkpt lat="44.11051" lon="6.28314">
        <ele>835.9</ele>
        <time>2018-08-09T06:44:01Z</time>
      </trkpt>
      <trkpt lat="44.11054" lon="6.2832">
        <ele>836</ele>
        <time>2018-08-09T06:44:03Z</time>
      </trkpt>
      <trkpt lat="44.11058" lon="6.28324">
        <ele>835.9</ele>
        <time>2018-08-09T06:44:05Z</time>
      </trkpt>
      <trkpt lat="44.11062" lon="6.28326">
        <ele>835.7</ele>
        <time>2018-08-09T06:44:07Z</time>
      </trkpt>
      <trkpt lat="44.11065" lon="6.28328">
        <ele>835</ele>
        <time>2018-08-09T06:44:08Z</time>
      </trkpt>
      <trkpt lat="44.11068" lon="6.28331">
        <ele>834.6</ele>
        <time>2018-08-09T06:44:09Z</time>
      </trkpt>
      <trkpt lat="44.11071" lon="6.28334">
        <ele>833.9</ele>
        <time>2018-08-09T06:44:10Z</time>
      </trkpt>
      <trkpt lat="44.11073" lon="6.28337">
        <ele>833.4</ele>
        <time>2018-08-09T06:44:11Z</time>
      </trkpt>
      <trkpt lat="44.11075" lon="6.28343">
        <ele>832.9</ele>
        <time>2018-08-09T06:44:12Z</time>
      </trkpt>
      <trkpt lat="44.11077" lon="6.28348">
        <ele>832.5</ele>
        <time>2018-08-09T06:44:13Z</time>
      </trkpt>
      <trkpt lat="44.11081" lon="6.2835">
        <ele>832</ele>
        <time>2018-08-09T06:44:16Z</time>
      </trkpt>
      <trkpt lat="44.11084" lon="6.28349">
        <ele>831.7</ele>
        <time>2018-08-09T06:44:18Z</time>
      </trkpt>
      <trkpt lat="44.11088" lon="6.2835">
        <ele>831.5</ele>
        <time>2018-08-09T06:44:20Z</time>
      </trkpt>
      <trkpt lat="44.11092" lon="6.28348">
        <ele>831.3</ele>
        <time>2018-08-09T06:44:22Z</time>
      </trkpt>
      <trkpt lat="44.11095" lon="6.28347">
        <ele>831.1</ele>
        <time>2018-08-09T06:44:23Z</time>
      </trkpt>
      <trkpt lat="44.111" lon="6.28344">
        <ele>830.5</ele>
        <time>2018-08-09T06:44:25Z</time>
      </trkpt>
      <trkpt lat="44.11102" lon="6.28342">
        <ele>830.3</ele>
        <time>2018-08-09T06:44:26Z</time>
      </trkpt>
      <trkpt lat="44.11108" lon="6.2834">
        <ele>829.6</ele>
        <time>2018-08-09T06:44:28Z</time>
      </trkpt>
      <trkpt lat="44.1111" lon="6.2834">
        <ele>829.1</ele>
        <time>2018-08-09T06:44:29Z</time>
      </trkpt>
      <trkpt lat="44.11114" lon="6.28342">
        <ele>828.5</ele>
        <time>2018-08-09T06:44:30Z</time>
      </trkpt>
      <trkpt lat="44.11119" lon="6.28343">
        <ele>828</ele>
        <time>2018-08-09T06:44:31Z</time>
      </trkpt>
      <trkpt lat="44.11122" lon="6.28342">
        <ele>827.5</ele>
        <time>2018-08-09T06:44:32Z</time>
      </trkpt>
      <trkpt lat="44.11126" lon="6.28341">
        <ele>827.2</ele>
        <time>2018-08-09T06:44:33Z</time>
      </trkpt>
      <trkpt lat="44.11131" lon="6.28343">
        <ele>827</ele>
        <time>2018-08-09T06:44:34Z</time>
      </trkpt>
      <trkpt lat="44.11135" lon="6.28348">
        <ele>827.3</ele>
        <time>2018-08-09T06:44:35Z</time>
      </trkpt>
      <trkpt lat="44.1114" lon="6.28352">
        <ele>827.6</ele>
        <time>2018-08-09T06:44:36Z</time>
      </trkpt>
      <trkpt lat="44.11144" lon="6.28356">
        <ele>827.9</ele>
        <time>2018-08-09T06:44:37Z</time>
      </trkpt>
      <trkpt lat="44.11149" lon="6.2836">
        <ele>828</ele>
        <time>2018-08-09T06:44:38Z</time>
      </trkpt>
      <trkpt lat="44.11153" lon="6.28362">
        <ele>828.1</ele>
        <time>2018-08-09T06:44:39Z</time>
      </trkpt>
      <trkpt lat="44.11157" lon="6.28364">
        <ele>828.2</ele>
        <time>2018-08-09T06:44:40Z</time>
      </trkpt>
      <trkpt lat="44.1116" lon="6.28365">
        <ele>828.2</ele>
        <time>2018-08-09T06:44:41Z</time>
      </trkpt>
      <trkpt lat="44.11166" lon="6.28364">
        <ele>828.3</ele>
        <time>2018-08-09T06:44:43Z</time>
      </trkpt>
      <trkpt lat="44.11168" lon="6.28365">
        <ele>828.3</ele>
        <time>2018-08-09T06:44:45Z</time>
      </trkpt>
      <trkpt lat="44.11173" lon="6.28366">
        <ele>828.4</ele>
        <time>2018-08-09T06:44:47Z</time>
      </trkpt>
      <trkpt lat="44.11178" lon="6.28369">
        <ele>828.5</ele>
        <time>2018-08-09T06:44:49Z</time>
      </trkpt>
      <trkpt lat="44.1118" lon="6.2837">
        <ele>828.6</ele>
        <time>2018-08-09T06:44:50Z</time>
      </trkpt>
      <trkpt lat="44.11185" lon="6.28372">
        <ele>828.7</ele>
        <time>2018-08-09T06:44:52Z</time>
      </trkpt>
      <trkpt lat="44.11191" lon="6.28373">
        <ele>829.1</ele>
        <time>2018-08-09T06:44:54Z</time>
      </trkpt>
      <trkpt lat="44.11197" lon="6.28372">
        <ele>829.4</ele>
        <time>2018-08-09T06:44:56Z</time>
      </trkpt>
      <trkpt lat="44.11201" lon="6.2837">
        <ele>829.7</ele>
        <time>2018-08-09T06:44:58Z</time>
      </trkpt>
      <trkpt lat="44.11206" lon="6.28367">
        <ele>830</ele>
        <time>2018-08-09T06:45:00Z</time>
      </trkpt>
      <trkpt lat="44.11209" lon="6.28366">
        <ele>830.2</ele>
        <time>2018-08-09T06:45:01Z</time>
      </trkpt>
      <trkpt lat="44.11213" lon="6.28367">
        <ele>830.3</ele>
        <time>2018-08-09T06:45:03Z</time>
      </trkpt>
      <trkpt lat="44.11218" lon="6.28372">
        <ele>830.5</ele>
        <time>2018-08-09T06:45:05Z</time>
      </trkpt>
      <trkpt lat="44.1122" lon="6.28377">
        <ele>830.8</ele>
        <time>2018-08-09T06:45:07Z</time>
      </trkpt>
      <trkpt lat="44.11223" lon="6.2838">
        <ele>831.1</ele>
        <time>2018-08-09T06:45:09Z</time>
      </trkpt>
      <trkpt lat="44.11227" lon="6.28383">
        <ele>831.4</ele>
        <time>2018-08-09T06:45:11Z</time>
      </trkpt>
      <trkpt lat="44.11229" lon="6.28387">
        <ele>831.7</ele>
        <time>2018-08-09T06:45:13Z</time>
      </trkpt>
      <trkpt lat="44.11232" lon="6.28391">
        <ele>832.1</ele>
        <time>2018-08-09T06:45:15Z</time>
      </trkpt>
      <trkpt lat="44.11237" lon="6.28393">
        <ele>832.6</ele>
        <time>2018-08-09T06:45:17Z</time>
      </trkpt>
      <trkpt lat="44.11239" lon="6.28397">
        <ele>832.9</ele>
        <time>2018-08-09T06:45:20Z</time>
      </trkpt>
      <trkpt lat="44.11242" lon="6.284">
        <ele>833.3</ele>
        <time>2018-08-09T06:45:22Z</time>
      </trkpt>
      <trkpt lat="44.11245" lon="6.28402">
        <ele>833.8</ele>
        <time>2018-08-09T06:45:24Z</time>
      </trkpt>
      <trkpt lat="44.11245" lon="6.28406">
        <ele>834.1</ele>
        <time>2018-08-09T06:45:26Z</time>
      </trkpt>
      <trkpt lat="44.11247" lon="6.2841">
        <ele>834.3</ele>
        <time>2018-08-09T06:45:29Z</time>
      </trkpt>
      <trkpt lat="44.1125" lon="6.2841">
        <ele>834.5</ele>
        <time>2018-08-09T06:45:31Z</time>
      </trkpt>
      <trkpt lat="44.11254" lon="6.28412">
        <ele>834.8</ele>
        <time>2018-08-09T06:45:34Z</time>
      </trkpt>
      <trkpt lat="44.11258" lon="6.28412">
        <ele>835.2</ele>
        <time>2018-08-09T06:45:36Z</time>
      </trkpt>
      <trkpt lat="44.11261" lon="6.28413">
        <ele>835.6</ele>
        <time>2018-08-09T06:45:39Z</time>
      </trkpt>
      <trkpt lat="44.11263" lon="6.28416">
        <ele>835.9</ele>
        <time>2018-08-09T06:45:41Z</time>
      </trkpt>
      <trkpt lat="44.11265" lon="6.2842">
        <ele>836.2</ele>
        <time>2018-08-09T06:45:43Z</time>
      </trkpt>
      <trkpt lat="44.11267" lon="6.28424">
        <ele>836.6</ele>
        <time>2018-08-09T06:45:45Z</time>
      </trkpt>
      <trkpt lat="44.1127" lon="6.28427">
        <ele>836.9</ele>
        <time>2018-08-09T06:45:47Z</time>
      </trkpt>
      <trkpt lat="44.11273" lon="6.28429">
        <ele>837.2</ele>
        <time>2018-08-09T06:45:49Z</time>
      </trkpt>
      <trkpt lat="44.11276" lon="6.28429">
        <ele>837.5</ele>
        <time>2018-08-09T06:45:52Z</time>
      </trkpt>
      <trkpt lat="44.11279" lon="6.28429">
        <ele>837.8</ele>
        <time>2018-08-09T06:45:56Z</time>
      </trkpt>
      <trkpt lat="44.11282" lon="6.28428">
        <ele>838.2</ele>
        <time>2018-08-09T06:45:58Z</time>
      </trkpt>
      <trkpt lat="44.11286" lon="6.28429">
        <ele>838.7</ele>
        <time>2018-08-09T06:46:02Z</time>
      </trkpt>
      <trkpt lat="44.11289" lon="6.2843">
        <ele>839.1</ele>
        <time>2018-08-09T06:46:04Z</time>
      </trkpt>
      <trkpt lat="44.11293" lon="6.28429">
        <ele>839.5</ele>
        <time>2018-08-09T06:46:07Z</time>
      </trkpt>
      <trkpt lat="44.11297" lon="6.2843">
        <ele>840</ele>
        <time>2018-08-09T06:46:13Z</time>
      </trkpt>
      <trkpt lat="44.113" lon="6.28431">
        <ele>840.3</ele>
        <time>2018-08-09T06:46:20Z</time>
      </trkpt>
      <trkpt lat="44.11304" lon="6.28431">
        <ele>840.8</ele>
        <time>2018-08-09T06:47:50Z</time>
      </trkpt>
      <trkpt lat="44.11306" lon="6.28434">
        <ele>841.3</ele>
        <time>2018-08-09T06:47:52Z</time>
      </trkpt>
      <trkpt lat="44.11309" lon="6.28438">
        <ele>841.8</ele>
        <time>2018-08-09T06:47:54Z</time>
      </trkpt>
      <trkpt lat="44.11312" lon="6.28438">
        <ele>842.2</ele>
        <time>2018-08-09T06:47:57Z</time>
      </trkpt>
      <trkpt lat="44.11314" lon="6.28433">
        <ele>842.5</ele>
        <time>2018-08-09T06:48:00Z</time>
      </trkpt>
      <trkpt lat="44.11318" lon="6.28431">
        <ele>842.9</ele>
        <time>2018-08-09T06:48:03Z</time>
      </trkpt>
      <trkpt lat="44.11321" lon="6.28429">
        <ele>843.3</ele>
        <time>2018-08-09T06:48:05Z</time>
      </trkpt>
      <trkpt lat="44.11323" lon="6.28426">
        <ele>843.6</ele>
        <time>2018-08-09T06:48:07Z</time>
      </trkpt>
      <trkpt lat="44.11324" lon="6.28422">
        <ele>843.9</ele>
        <time>2018-08-09T06:48:09Z</time>
      </trkpt>
      <trkpt lat="44.11328" lon="6.28422">
        <ele>844.1</ele>
        <time>2018-08-09T06:48:12Z</time>
      </trkpt>
      <trkpt lat="44.11331" lon="6.28425">
        <ele>844.2</ele>
        <time>2018-08-09T06:48:15Z</time>
      </trkpt>
      <trkpt lat="44.11333" lon="6.28426">
        <ele>844.3</ele>
        <time>2018-08-09T06:48:17Z</time>
      </trkpt>
      <trkpt lat="44.11336" lon="6.28428">
        <ele>844.4</ele>
        <time>2018-08-09T06:48:19Z</time>
      </trkpt>
      <trkpt lat="44.11338" lon="6.28431">
        <ele>844.6</ele>
        <time>2018-08-09T06:48:22Z</time>
      </trkpt>
      <trkpt lat="44.11339" lon="6.28434">
        <ele>844.7</ele>
        <time>2018-08-09T06:48:24Z</time>
      </trkpt>
      <trkpt lat="44.11339" lon="6.28438">
        <ele>844.7</ele>
        <time>2018-08-09T06:48:26Z</time>
      </trkpt>
      <trkpt lat="44.11344" lon="6.28441">
        <ele>844.8</ele>
        <time>2018-08-09T06:48:28Z</time>
      </trkpt>
      <trkpt lat="44.11346" lon="6.28443">
        <ele>844.9</ele>
        <time>2018-08-09T06:48:29Z</time>
      </trkpt>
      <trkpt lat="44.11349" lon="6.28444">
        <ele>845</ele>
        <time>2018-08-09T06:48:30Z</time>
      </trkpt>
      <trkpt lat="44.11353" lon="6.28447">
        <ele>845.1</ele>
        <time>2018-08-09T06:48:32Z</time>
      </trkpt>
      <trkpt lat="44.11357" lon="6.2845">
        <ele>845.3</ele>
        <time>2018-08-09T06:48:34Z</time>
      </trkpt>
      <trkpt lat="44.11361" lon="6.28454">
        <ele>845.5</ele>
        <time>2018-08-09T06:48:36Z</time>
      </trkpt>
      <trkpt lat="44.11363" lon="6.28459">
        <ele>845.8</ele>
        <time>2018-08-09T06:48:38Z</time>
      </trkpt>
      <trkpt lat="44.11365" lon="6.28464">
        <ele>846</ele>
        <time>2018-08-09T06:48:40Z</time>
      </trkpt>
      <trkpt lat="44.11369" lon="6.28468">
        <ele>846.2</ele>
        <time>2018-08-09T06:48:42Z</time>
      </trkpt>
      <trkpt lat="44.11371" lon="6.2847">
        <ele>846.3</ele>
        <time>2018-08-09T06:48:43Z</time>
      </trkpt>
      <trkpt lat="44.11375" lon="6.28474">
        <ele>846.5</ele>
        <time>2018-08-09T06:48:45Z</time>
      </trkpt>
      <trkpt lat="44.11379" lon="6.28479">
        <ele>846.6</ele>
        <time>2018-08-09T06:48:47Z</time>
      </trkpt>
      <trkpt lat="44.11383" lon="6.28483">
        <ele>846.7</ele>
        <time>2018-08-09T06:48:49Z</time>
      </trkpt>
      <trkpt lat="44.11385" lon="6.28488">
        <ele>846.7</ele>
        <time>2018-08-09T06:48:51Z</time>
      </trkpt>
      <trkpt lat="44.11388" lon="6.2849">
        <ele>846.7</ele>
        <time>2018-08-09T06:48:52Z</time>
      </trkpt>
      <trkpt lat="44.11391" lon="6.28494">
        <ele>846.8</ele>
        <time>2018-08-09T06:48:54Z</time>
      </trkpt>
      <trkpt lat="44.11393" lon="6.28497">
        <ele>846.8</ele>
        <time>2018-08-09T06:48:56Z</time>
      </trkpt>
      <trkpt lat="44.11396" lon="6.285">
        <ele>846.8</ele>
        <time>2018-08-09T06:48:58Z</time>
      </trkpt>
      <trkpt lat="44.11399" lon="6.28502">
        <ele>846.9</ele>
        <time>2018-08-09T06:49:00Z</time>
      </trkpt>
      <trkpt lat="44.11403" lon="6.28505">
        <ele>847</ele>
        <time>2018-08-09T06:49:02Z</time>
      </trkpt>
      <trkpt lat="44.11407" lon="6.28509">
        <ele>847</ele>
        <time>2018-08-09T06:49:04Z</time>
      </trkpt>
      <trkpt lat="44.11412" lon="6.28511">
        <ele>847.2</ele>
        <time>2018-08-09T06:49:06Z</time>
      </trkpt>
      <trkpt lat="44.11416" lon="6.28514">
        <ele>847.5</ele>
        <time>2018-08-09T06:49:08Z</time>
      </trkpt>
      <trkpt lat="44.11421" lon="6.28516">
        <ele>847.8</ele>
        <time>2018-08-09T06:49:10Z</time>
      </trkpt>
      <trkpt lat="44.11425" lon="6.28518">
        <ele>848.1</ele>
        <time>2018-08-09T06:49:12Z</time>
      </trkpt>
      <trkpt lat="44.11429" lon="6.28518">
        <ele>848.3</ele>
        <time>2018-08-09T06:49:14Z</time>
      </trkpt>
      <trkpt lat="44.11433" lon="6.28518">
        <ele>848.4</ele>
        <time>2018-08-09T06:49:16Z</time>
      </trkpt>
      <trkpt lat="44.11438" lon="6.2852">
        <ele>848.5</ele>
        <time>2018-08-09T06:49:18Z</time>
      </trkpt>
      <trkpt lat="44.1144" lon="6.28523">
        <ele>848.6</ele>
        <time>2018-08-09T06:49:19Z</time>
      </trkpt>
      <trkpt lat="44.11444" lon="6.28527">
        <ele>848.8</ele>
        <time>2018-08-09T06:49:21Z</time>
      </trkpt>
      <trkpt lat="44.11447" lon="6.28532">
        <ele>848.9</ele>
        <time>2018-08-09T06:49:23Z</time>
      </trkpt>
      <trkpt lat="44.11449" lon="6.28536">
        <ele>849.1</ele>
        <time>2018-08-09T06:49:25Z</time>
      </trkpt>
      <trkpt lat="44.11453" lon="6.28537">
        <ele>849.2</ele>
        <time>2018-08-09T06:49:27Z</time>
      </trkpt>
      <trkpt lat="44.11457" lon="6.28539">
        <ele>849.5</ele>
        <time>2018-08-09T06:49:29Z</time>
      </trkpt>
      <trkpt lat="44.1146" lon="6.2854">
        <ele>849.7</ele>
        <time>2018-08-09T06:49:31Z</time>
      </trkpt>
      <trkpt lat="44.11463" lon="6.28541">
        <ele>849.9</ele>
        <time>2018-08-09T06:49:33Z</time>
      </trkpt>
      <trkpt lat="44.11466" lon="6.28543">
        <ele>850.5</ele>
        <time>2018-08-09T06:49:35Z</time>
      </trkpt>
      <trkpt lat="44.11468" lon="6.28547">
        <ele>850.8</ele>
        <time>2018-08-09T06:49:37Z</time>
      </trkpt>
      <trkpt lat="44.1147" lon="6.28548">
        <ele>851.5</ele>
        <time>2018-08-09T06:49:40Z</time>
      </trkpt>
      <trkpt lat="44.11471" lon="6.28553">
        <ele>852.3</ele>
        <time>2018-08-09T06:49:47Z</time>
      </trkpt>
      <trkpt lat="44.11473" lon="6.28557">
        <ele>852.9</ele>
        <time>2018-08-09T06:49:52Z</time>
      </trkpt>
      <trkpt lat="44.11475" lon="6.28561">
        <ele>853.3</ele>
        <time>2018-08-09T06:49:55Z</time>
      </trkpt>
      <trkpt lat="44.11478" lon="6.28562">
        <ele>853.7</ele>
        <time>2018-08-09T06:49:58Z</time>
      </trkpt>
      <trkpt lat="44.1148" lon="6.28566">
        <ele>854.1</ele>
        <time>2018-08-09T06:50:01Z</time>
      </trkpt>
      <trkpt lat="44.11482" lon="6.28569">
        <ele>854.4</ele>
        <time>2018-08-09T06:50:05Z</time>
      </trkpt>
      <trkpt lat="44.11483" lon="6.28573">
        <ele>854.7</ele>
        <time>2018-08-09T06:50:10Z</time>
      </trkpt>
      <trkpt lat="44.11487" lon="6.28576">
        <ele>855.2</ele>
        <time>2018-08-09T06:50:16Z</time>
      </trkpt>
      <trkpt lat="44.1149" lon="6.28578">
        <ele>855.6</ele>
        <time>2018-08-09T06:50:18Z</time>
      </trkpt>
      <trkpt lat="44.11492" lon="6.28581">
        <ele>856</ele>
        <time>2018-08-09T06:50:20Z</time>
      </trkpt>
      <trkpt lat="44.11495" lon="6.28584">
        <ele>856.3</ele>
        <time>2018-08-09T06:50:23Z</time>
      </trkpt>
      <trkpt lat="44.11497" lon="6.28586">
        <ele>856.6</ele>
        <time>2018-08-09T06:50:26Z</time>
      </trkpt>
      <trkpt lat="44.115" lon="6.28589">
        <ele>856.8</ele>
        <time>2018-08-09T06:50:30Z</time>
      </trkpt>
      <trkpt lat="44.115" lon="6.28592">
        <ele>857.1</ele>
        <time>2018-08-09T06:50:35Z</time>
      </trkpt>
      <trkpt lat="44.11501" lon="6.28596">
        <ele>857.5</ele>
        <time>2018-08-09T06:50:41Z</time>
      </trkpt>
      <trkpt lat="44.11502" lon="6.28601">
        <ele>857.9</ele>
        <time>2018-08-09T06:50:44Z</time>
      </trkpt>
      <trkpt lat="44.11503" lon="6.28605">
        <ele>858.3</ele>
        <time>2018-08-09T06:50:46Z</time>
      </trkpt>
      <trkpt lat="44.11505" lon="6.2861">
        <ele>858.8</ele>
        <time>2018-08-09T06:50:49Z</time>
      </trkpt>
      <trkpt lat="44.11507" lon="6.28613">
        <ele>859.2</ele>
        <time>2018-08-09T06:50:52Z</time>
      </trkpt>
      <trkpt lat="44.11511" lon="6.28614">
        <ele>859.6</ele>
        <time>2018-08-09T06:50:54Z</time>
      </trkpt>
      <trkpt lat="44.11514" lon="6.28614">
        <ele>859.9</ele>
        <time>2018-08-09T06:50:56Z</time>
      </trkpt>
      <trkpt lat="44.11518" lon="6.28615">
        <ele>860.3</ele>
        <time>2018-08-09T06:50:59Z</time>
      </trkpt>
      <trkpt lat="44.11522" lon="6.28617">
        <ele>860.7</ele>
        <time>2018-08-09T06:51:01Z</time>
      </trkpt>
      <trkpt lat="44.11524" lon="6.28619">
        <ele>860.9</ele>
        <time>2018-08-09T06:51:03Z</time>
      </trkpt>
      <trkpt lat="44.11527" lon="6.28621">
        <ele>861.2</ele>
        <time>2018-08-09T06:51:05Z</time>
      </trkpt>
      <trkpt lat="44.1153" lon="6.28622">
        <ele>861.5</ele>
        <time>2018-08-09T06:51:07Z</time>
      </trkpt>
      <trkpt lat="44.11533" lon="6.28625">
        <ele>861.8</ele>
        <time>2018-08-09T06:51:10Z</time>
      </trkpt>
      <trkpt lat="44.11536" lon="6.28628">
        <ele>862</ele>
        <time>2018-08-09T06:51:13Z</time>
      </trkpt>
      <trkpt lat="44.11537" lon="6.28632">
        <ele>862.1</ele>
        <time>2018-08-09T06:51:16Z</time>
      </trkpt>
      <trkpt lat="44.11539" lon="6.28635">
        <ele>862.1</ele>
        <time>2018-08-09T06:51:18Z</time>
      </trkpt>
      <trkpt lat="44.11542" lon="6.2864">
        <ele>862.2</ele>
        <time>2018-08-09T06:51:21Z</time>
      </trkpt>
      <trkpt lat="44.11544" lon="6.28643">
        <ele>862.2</ele>
        <time>2018-08-09T06:51:23Z</time>
      </trkpt>
      <trkpt lat="44.11546" lon="6.28645">
        <ele>862.2</ele>
        <time>2018-08-09T06:51:26Z</time>
      </trkpt>
      <trkpt lat="44.11549" lon="6.28648">
        <ele>862.2</ele>
        <time>2018-08-09T06:51:29Z</time>
      </trkpt>
      <trkpt lat="44.11553" lon="6.28649">
        <ele>862.2</ele>
        <time>2018-08-09T06:51:31Z</time>
      </trkpt>
      <trkpt lat="44.11556" lon="6.2865">
        <ele>862.1</ele>
        <time>2018-08-09T06:51:33Z</time>
      </trkpt>
      <trkpt lat="44.11559" lon="6.28651">
        <ele>862.1</ele>
        <time>2018-08-09T06:51:35Z</time>
      </trkpt>
      <trkpt lat="44.11561" lon="6.28654">
        <ele>862</ele>
        <time>2018-08-09T06:51:37Z</time>
      </trkpt>
      <trkpt lat="44.11563" lon="6.28656">
        <ele>861.9</ele>
        <time>2018-08-09T06:51:39Z</time>
      </trkpt>
      <trkpt lat="44.11564" lon="6.28661">
        <ele>861.6</ele>
        <time>2018-08-09T06:51:42Z</time>
      </trkpt>
      <trkpt lat="44.11566" lon="6.28666">
        <ele>861.2</ele>
        <time>2018-08-09T06:51:43Z</time>
      </trkpt>
      <trkpt lat="44.11567" lon="6.2867">
        <ele>860.8</ele>
        <time>2018-08-09T06:51:44Z</time>
      </trkpt>
      <trkpt lat="44.1157" lon="6.28675">
        <ele>860.5</ele>
        <time>2018-08-09T06:51:45Z</time>
      </trkpt>
      <trkpt lat="44.11572" lon="6.28681">
        <ele>860.3</ele>
        <time>2018-08-09T06:51:46Z</time>
      </trkpt>
      <trkpt lat="44.11573" lon="6.28686">
        <ele>860.1</ele>
        <time>2018-08-09T06:51:47Z</time>
      </trkpt>
      <trkpt lat="44.11574" lon="6.28693">
        <ele>859.8</ele>
        <time>2018-08-09T06:51:48Z</time>
      </trkpt>
      <trkpt lat="44.11575" lon="6.28699">
        <ele>859.1</ele>
        <time>2018-08-09T06:51:49Z</time>
      </trkpt>
      <trkpt lat="44.11576" lon="6.28705">
        <ele>858.6</ele>
        <time>2018-08-09T06:51:50Z</time>
      </trkpt>
      <trkpt lat="44.11577" lon="6.2871">
        <ele>858.4</ele>
        <time>2018-08-09T06:51:51Z</time>
      </trkpt>
      <trkpt lat="44.11578" lon="6.28714">
        <ele>858.3</ele>
        <time>2018-08-09T06:51:52Z</time>
      </trkpt>
      <trkpt lat="44.11576" lon="6.28721">
        <ele>858</ele>
        <time>2018-08-09T06:51:54Z</time>
      </trkpt>
      <trkpt lat="44.11578" lon="6.28727">
        <ele>857.9</ele>
        <time>2018-08-09T06:51:55Z</time>
      </trkpt>
      <trkpt lat="44.11579" lon="6.28731">
        <ele>857.7</ele>
        <time>2018-08-09T06:51:56Z</time>
      </trkpt>
      <trkpt lat="44.1158" lon="6.28737">
        <ele>857.5</ele>
        <time>2018-08-09T06:51:57Z</time>
      </trkpt>
      <trkpt lat="44.1158" lon="6.28743">
        <ele>857.3</ele>
        <time>2018-08-09T06:51:58Z</time>
      </trkpt>
      <trkpt lat="44.11581" lon="6.2875">
        <ele>856.9</ele>
        <time>2018-08-09T06:51:59Z</time>
      </trkpt>
      <trkpt lat="44.11581" lon="6.28755">
        <ele>856.5</ele>
        <time>2018-08-09T06:52:00Z</time>
      </trkpt>
      <trkpt lat="44.11581" lon="6.28761">
        <ele>856.4</ele>
        <time>2018-08-09T06:52:01Z</time>
      </trkpt>
      <trkpt lat="44.11582" lon="6.28767">
        <ele>856.2</ele>
        <time>2018-08-09T06:52:02Z</time>
      </trkpt>
      <trkpt lat="44.11581" lon="6.28773">
        <ele>856.1</ele>
        <time>2018-08-09T06:52:03Z</time>
      </trkpt>
      <trkpt lat="44.11582" lon="6.28778">
        <ele>856</ele>
        <time>2018-08-09T06:52:05Z</time>
      </trkpt>
      <trkpt lat="44.11582" lon="6.28784">
        <ele>855.9</ele>
        <time>2018-08-09T06:52:07Z</time>
      </trkpt>
      <trkpt lat="44.11579" lon="6.28788">
        <ele>855.8</ele>
        <time>2018-08-09T06:52:09Z</time>
      </trkpt>
      <trkpt lat="44.11579" lon="6.28795">
        <ele>855.7</ele>
        <time>2018-08-09T06:52:11Z</time>
      </trkpt>
      <trkpt lat="44.11579" lon="6.28803">
        <ele>855.6</ele>
        <time>2018-08-09T06:52:13Z</time>
      </trkpt>
      <trkpt lat="44.11579" lon="6.2881">
        <ele>855.6</ele>
        <time>2018-08-09T06:52:14Z</time>
      </trkpt>
      <trkpt lat="44.11581" lon="6.28815">
        <ele>855.6</ele>
        <time>2018-08-09T06:52:15Z</time>
      </trkpt>
      <trkpt lat="44.11584" lon="6.28821">
        <ele>855.6</ele>
        <time>2018-08-09T06:52:16Z</time>
      </trkpt>
      <trkpt lat="44.11585" lon="6.28826">
        <ele>855.6</ele>
        <time>2018-08-09T06:52:17Z</time>
      </trkpt>
      <trkpt lat="44.11586" lon="6.28831">
        <ele>855.5</ele>
        <time>2018-08-09T06:52:18Z</time>
      </trkpt>
      <trkpt lat="44.11589" lon="6.28836">
        <ele>855.5</ele>
        <time>2018-08-09T06:52:19Z</time>
      </trkpt>
      <trkpt lat="44.1159" lon="6.28842">
        <ele>855.5</ele>
        <time>2018-08-09T06:52:20Z</time>
      </trkpt>
      <trkpt lat="44.11591" lon="6.28848">
        <ele>855.5</ele>
        <time>2018-08-09T06:52:21Z</time>
      </trkpt>
      <trkpt lat="44.11592" lon="6.28854">
        <ele>855.5</ele>
        <time>2018-08-09T06:52:22Z</time>
      </trkpt>
      <trkpt lat="44.11591" lon="6.28859">
        <ele>855.5</ele>
        <time>2018-08-09T06:52:23Z</time>
      </trkpt>
      <trkpt lat="44.11592" lon="6.28865">
        <ele>855.5</ele>
        <time>2018-08-09T06:52:24Z</time>
      </trkpt>
      <trkpt lat="44.11593" lon="6.28869">
        <ele>855.5</ele>
        <time>2018-08-09T06:52:25Z</time>
      </trkpt>
      <trkpt lat="44.11594" lon="6.28874">
        <ele>855.5</ele>
        <time>2018-08-09T06:52:26Z</time>
      </trkpt>
      <trkpt lat="44.11595" lon="6.28878">
        <ele>855.5</ele>
        <time>2018-08-09T06:52:27Z</time>
      </trkpt>
      <trkpt lat="44.11596" lon="6.28882">
        <ele>855.5</ele>
        <time>2018-08-09T06:52:28Z</time>
      </trkpt>
      <trkpt lat="44.11597" lon="6.28886">
        <ele>855.5</ele>
        <time>2018-08-09T06:52:29Z</time>
      </trkpt>
      <trkpt lat="44.11597" lon="6.2889">
        <ele>855.5</ele>
        <time>2018-08-09T06:52:30Z</time>
      </trkpt>
      <trkpt lat="44.11598" lon="6.28895">
        <ele>855.4</ele>
        <time>2018-08-09T06:52:32Z</time>
      </trkpt>
      <trkpt lat="44.11599" lon="6.28899">
        <ele>855.4</ele>
        <time>2018-08-09T06:52:33Z</time>
      </trkpt>
      <trkpt lat="44.116" lon="6.28903">
        <ele>855.4</ele>
        <time>2018-08-09T06:52:34Z</time>
      </trkpt>
      <trkpt lat="44.11602" lon="6.28908">
        <ele>855.4</ele>
        <time>2018-08-09T06:52:36Z</time>
      </trkpt>
      <trkpt lat="44.11605" lon="6.28915">
        <ele>855.4</ele>
        <time>2018-08-09T06:52:38Z</time>
      </trkpt>
      <trkpt lat="44.11606" lon="6.28921">
        <ele>855.4</ele>
        <time>2018-08-09T06:52:40Z</time>
      </trkpt>
      <trkpt lat="44.11607" lon="6.28927">
        <ele>855.4</ele>
        <time>2018-08-09T06:52:42Z</time>
      </trkpt>
      <trkpt lat="44.11608" lon="6.28932">
        <ele>855.4</ele>
        <time>2018-08-09T06:52:43Z</time>
      </trkpt>
      <trkpt lat="44.11611" lon="6.28934">
        <ele>855.4</ele>
        <time>2018-08-09T06:52:44Z</time>
      </trkpt>
      <trkpt lat="44.11614" lon="6.28936">
        <ele>855.4</ele>
        <time>2018-08-09T06:52:45Z</time>
      </trkpt>
      <trkpt lat="44.11617" lon="6.28941">
        <ele>855.4</ele>
        <time>2018-08-09T06:52:47Z</time>
      </trkpt>
      <trkpt lat="44.11618" lon="6.28945">
        <ele>855.4</ele>
        <time>2018-08-09T06:52:48Z</time>
      </trkpt>
      <trkpt lat="44.1162" lon="6.28949">
        <ele>855.4</ele>
        <time>2018-08-09T06:52:49Z</time>
      </trkpt>
      <trkpt lat="44.11623" lon="6.28954">
        <ele>855.4</ele>
        <time>2018-08-09T06:52:51Z</time>
      </trkpt>
      <trkpt lat="44.11626" lon="6.28957">
        <ele>855.4</ele>
        <time>2018-08-09T06:52:52Z</time>
      </trkpt>
      <trkpt lat="44.11628" lon="6.2896">
        <ele>855.4</ele>
        <time>2018-08-09T06:52:53Z</time>
      </trkpt>
      <trkpt lat="44.11629" lon="6.28964">
        <ele>855.5</ele>
        <time>2018-08-09T06:52:54Z</time>
      </trkpt>
      <trkpt lat="44.11631" lon="6.28967">
        <ele>855.5</ele>
        <time>2018-08-09T06:52:55Z</time>
      </trkpt>
      <trkpt lat="44.11632" lon="6.28971">
        <ele>855.6</ele>
        <time>2018-08-09T06:52:56Z</time>
      </trkpt>
      <trkpt lat="44.11632" lon="6.28975">
        <ele>855.7</ele>
        <time>2018-08-09T06:52:57Z</time>
      </trkpt>
      <trkpt lat="44.11634" lon="6.28978">
        <ele>855.9</ele>
        <time>2018-08-09T06:52:58Z</time>
      </trkpt>
      <trkpt lat="44.11638" lon="6.28984">
        <ele>856.2</ele>
        <time>2018-08-09T06:53:00Z</time>
      </trkpt>
      <trkpt lat="44.11639" lon="6.28987">
        <ele>856.3</ele>
        <time>2018-08-09T06:53:01Z</time>
      </trkpt>
      <trkpt lat="44.11642" lon="6.2899">
        <ele>856.5</ele>
        <time>2018-08-09T06:53:03Z</time>
      </trkpt>
      <trkpt lat="44.11646" lon="6.28993">
        <ele>856.7</ele>
        <time>2018-08-09T06:53:05Z</time>
      </trkpt>
      <trkpt lat="44.11648" lon="6.28996">
        <ele>856.8</ele>
        <time>2018-08-09T06:53:06Z</time>
      </trkpt>
      <trkpt lat="44.11652" lon="6.29001">
        <ele>856.9</ele>
        <time>2018-08-09T06:53:08Z</time>
      </trkpt>
      <trkpt lat="44.11655" lon="6.29007">
        <ele>857</ele>
        <time>2018-08-09T06:53:10Z</time>
      </trkpt>
      <trkpt lat="44.11657" lon="6.29009">
        <ele>857.1</ele>
        <time>2018-08-09T06:53:11Z</time>
      </trkpt>
      <trkpt lat="44.11661" lon="6.29015">
        <ele>857.2</ele>
        <time>2018-08-09T06:53:13Z</time>
      </trkpt>
      <trkpt lat="44.11662" lon="6.29019">
        <ele>857.3</ele>
        <time>2018-08-09T06:53:15Z</time>
      </trkpt>
      <trkpt lat="44.11665" lon="6.29025">
        <ele>857.5</ele>
        <time>2018-08-09T06:53:17Z</time>
      </trkpt>
      <trkpt lat="44.11666" lon="6.29031">
        <ele>857.7</ele>
        <time>2018-08-09T06:53:19Z</time>
      </trkpt>
      <trkpt lat="44.11668" lon="6.29037">
        <ele>858</ele>
        <time>2018-08-09T06:53:21Z</time>
      </trkpt>
      <trkpt lat="44.11669" lon="6.29042">
        <ele>858.3</ele>
        <time>2018-08-09T06:53:23Z</time>
      </trkpt>
      <trkpt lat="44.11669" lon="6.29048">
        <ele>858.6</ele>
        <time>2018-08-09T06:53:25Z</time>
      </trkpt>
      <trkpt lat="44.11672" lon="6.29054">
        <ele>858.7</ele>
        <time>2018-08-09T06:53:27Z</time>
      </trkpt>
      <trkpt lat="44.11675" lon="6.29057">
        <ele>858.8</ele>
        <time>2018-08-09T06:53:29Z</time>
      </trkpt>
      <trkpt lat="44.11678" lon="6.29056">
        <ele>858.9</ele>
        <time>2018-08-09T06:53:33Z</time>
      </trkpt>
      <trkpt lat="44.11681" lon="6.29055">
        <ele>858.9</ele>
        <time>2018-08-09T06:53:36Z</time>
      </trkpt>
      <trkpt lat="44.11684" lon="6.29054">
        <ele>859</ele>
        <time>2018-08-09T06:53:38Z</time>
      </trkpt>
      <trkpt lat="44.11688" lon="6.29054">
        <ele>858.8</ele>
        <time>2018-08-09T06:53:41Z</time>
      </trkpt>
      <trkpt lat="44.11691" lon="6.29056">
        <ele>858.7</ele>
        <time>2018-08-09T06:53:44Z</time>
      </trkpt>
      <trkpt lat="44.11694" lon="6.29059">
        <ele>858.5</ele>
        <time>2018-08-09T06:53:47Z</time>
      </trkpt>
      <trkpt lat="44.11694" lon="6.29063">
        <ele>858.2</ele>
        <time>2018-08-09T06:53:50Z</time>
      </trkpt>
      <trkpt lat="44.11691" lon="6.29067">
        <ele>857.7</ele>
        <time>2018-08-09T06:53:52Z</time>
      </trkpt>
      <trkpt lat="44.11688" lon="6.29072">
        <ele>857.5</ele>
        <time>2018-08-09T06:53:54Z</time>
      </trkpt>
      <trkpt lat="44.11688" lon="6.29078">
        <ele>857.4</ele>
        <time>2018-08-09T06:53:56Z</time>
      </trkpt>
      <trkpt lat="44.11686" lon="6.29083">
        <ele>857.2</ele>
        <time>2018-08-09T06:53:58Z</time>
      </trkpt>
      <trkpt lat="44.11684" lon="6.29089">
        <ele>856.9</ele>
        <time>2018-08-09T06:54:00Z</time>
      </trkpt>
      <trkpt lat="44.11684" lon="6.29095">
        <ele>856.7</ele>
        <time>2018-08-09T06:54:02Z</time>
      </trkpt>
      <trkpt lat="44.11684" lon="6.291">
        <ele>856.5</ele>
        <time>2018-08-09T06:54:04Z</time>
      </trkpt>
      <trkpt lat="44.11683" lon="6.29106">
        <ele>856</ele>
        <time>2018-08-09T06:54:06Z</time>
      </trkpt>
      <trkpt lat="44.11683" lon="6.29113">
        <ele>855.3</ele>
        <time>2018-08-09T06:54:08Z</time>
      </trkpt>
      <trkpt lat="44.11684" lon="6.29117">
        <ele>855.1</ele>
        <time>2018-08-09T06:54:15Z</time>
      </trkpt>
      <trkpt lat="44.11686" lon="6.29121">
        <ele>854.9</ele>
        <time>2018-08-09T06:54:23Z</time>
      </trkpt>
      <trkpt lat="44.11689" lon="6.29121">
        <ele>854.8</ele>
        <time>2018-08-09T06:54:27Z</time>
      </trkpt>
      <trkpt lat="44.1169" lon="6.29124">
        <ele>854.5</ele>
        <time>2018-08-09T06:54:32Z</time>
      </trkpt>
      <trkpt lat="44.1169" lon="6.29129">
        <ele>854</ele>
        <time>2018-08-09T06:55:00Z</time>
      </trkpt>
      <trkpt lat="44.11687" lon="6.29132">
        <ele>853.5</ele>
        <time>2018-08-09T06:55:02Z</time>
      </trkpt>
      <trkpt lat="44.11684" lon="6.29137">
        <ele>853.1</ele>
        <time>2018-08-09T06:55:04Z</time>
      </trkpt>
      <trkpt lat="44.1168" lon="6.29137">
        <ele>852.6</ele>
        <time>2018-08-09T06:55:06Z</time>
      </trkpt>
      <trkpt lat="44.11676" lon="6.29135">
        <ele>852</ele>
        <time>2018-08-09T06:55:08Z</time>
      </trkpt>
      <trkpt lat="44.11674" lon="6.29131">
        <ele>851.5</ele>
        <time>2018-08-09T06:55:10Z</time>
      </trkpt>
      <trkpt lat="44.1167" lon="6.29128">
        <ele>851.1</ele>
        <time>2018-08-09T06:55:12Z</time>
      </trkpt>
      <trkpt lat="44.11667" lon="6.29128">
        <ele>850.8</ele>
        <time>2018-08-09T06:55:13Z</time>
      </trkpt>
      <trkpt lat="44.11663" lon="6.2913">
        <ele>849.8</ele>
        <time>2018-08-09T06:55:14Z</time>
      </trkpt>
      <trkpt lat="44.1166" lon="6.2913">
        <ele>849.2</ele>
        <time>2018-08-09T06:55:15Z</time>
      </trkpt>
      <trkpt lat="44.11654" lon="6.2913">
        <ele>848.8</ele>
        <time>2018-08-09T06:55:17Z</time>
      </trkpt>
      <trkpt lat="44.11651" lon="6.29131">
        <ele>848.6</ele>
        <time>2018-08-09T06:55:18Z</time>
      </trkpt>
      <trkpt lat="44.11648" lon="6.29132">
        <ele>848.4</ele>
        <time>2018-08-09T06:55:19Z</time>
      </trkpt>
      <trkpt lat="44.11645" lon="6.29132">
        <ele>848.2</ele>
        <time>2018-08-09T06:55:20Z</time>
      </trkpt>
      <trkpt lat="44.11641" lon="6.29132">
        <ele>847.8</ele>
        <time>2018-08-09T06:55:22Z</time>
      </trkpt>
      <trkpt lat="44.11638" lon="6.29131">
        <ele>847.5</ele>
        <time>2018-08-09T06:55:29Z</time>
      </trkpt>
      <trkpt lat="44.1164" lon="6.29134">
        <ele>847.1</ele>
        <time>2018-08-09T06:55:41Z</time>
      </trkpt>
      <trkpt lat="44.11637" lon="6.29134">
        <ele>846.9</ele>
        <time>2018-08-09T06:56:05Z</time>
      </trkpt>
      <trkpt lat="44.11641" lon="6.29133">
        <ele>846.7</ele>
        <time>2018-08-09T06:57:35Z</time>
      </trkpt>
      <trkpt lat="44.11644" lon="6.29132">
        <ele>846.6</ele>
        <time>2018-08-09T06:57:39Z</time>
      </trkpt>
      <trkpt lat="44.1164" lon="6.29131">
        <ele>846.4</ele>
        <time>2018-08-09T06:57:54Z</time>
      </trkpt>
      <trkpt lat="44.11632" lon="6.29131">
        <ele>846.1</ele>
        <time>2018-08-09T06:57:56Z</time>
      </trkpt>
      <trkpt lat="44.11629" lon="6.29129">
        <ele>845.8</ele>
        <time>2018-08-09T06:57:57Z</time>
      </trkpt>
      <trkpt lat="44.11623" lon="6.29128">
        <ele>845</ele>
        <time>2018-08-09T06:57:58Z</time>
      </trkpt>
      <trkpt lat="44.11617" lon="6.29128">
        <ele>844.3</ele>
        <time>2018-08-09T06:57:59Z</time>
      </trkpt>
      <trkpt lat="44.11612" lon="6.29126">
        <ele>843.7</ele>
        <time>2018-08-09T06:58:00Z</time>
      </trkpt>
      <trkpt lat="44.11605" lon="6.29124">
        <ele>842.9</ele>
        <time>2018-08-09T06:58:01Z</time>
      </trkpt>
      <trkpt lat="44.11598" lon="6.29122">
        <ele>841.6</ele>
        <time>2018-08-09T06:58:02Z</time>
      </trkpt>
      <trkpt lat="44.11592" lon="6.2912">
        <ele>841.1</ele>
        <time>2018-08-09T06:58:03Z</time>
      </trkpt>
      <trkpt lat="44.11585" lon="6.29117">
        <ele>840.5</ele>
        <time>2018-08-09T06:58:04Z</time>
      </trkpt>
      <trkpt lat="44.11578" lon="6.29116">
        <ele>839.9</ele>
        <time>2018-08-09T06:58:05Z</time>
      </trkpt>
      <trkpt lat="44.11573" lon="6.29115">
        <ele>839.4</ele>
        <time>2018-08-09T06:58:06Z</time>
      </trkpt>
      <trkpt lat="44.11568" lon="6.29115">
        <ele>839</ele>
        <time>2018-08-09T06:58:07Z</time>
      </trkpt>
      <trkpt lat="44.11564" lon="6.29113">
        <ele>838.7</ele>
        <time>2018-08-09T06:58:08Z</time>
      </trkpt>
      <trkpt lat="44.11558" lon="6.29113">
        <ele>838.2</ele>
        <time>2018-08-09T06:58:09Z</time>
      </trkpt>
      <trkpt lat="44.11553" lon="6.29112">
        <ele>837.8</ele>
        <time>2018-08-09T06:58:10Z</time>
      </trkpt>
      <trkpt lat="44.1155" lon="6.29113">
        <ele>837.4</ele>
        <time>2018-08-09T06:58:11Z</time>
      </trkpt>
      <trkpt lat="44.11547" lon="6.29114">
        <ele>837.2</ele>
        <time>2018-08-09T06:58:12Z</time>
      </trkpt>
      <trkpt lat="44.11543" lon="6.29115">
        <ele>836.8</ele>
        <time>2018-08-09T06:58:13Z</time>
      </trkpt>
      <trkpt lat="44.1154" lon="6.29116">
        <ele>835.9</ele>
        <time>2018-08-09T06:58:14Z</time>
      </trkpt>
      <trkpt lat="44.11536" lon="6.29115">
        <ele>834.4</ele>
        <time>2018-08-09T06:58:15Z</time>
      </trkpt>
      <trkpt lat="44.11532" lon="6.29115">
        <ele>832.5</ele>
        <time>2018-08-09T06:58:16Z</time>
      </trkpt>
      <trkpt lat="44.11528" lon="6.29113">
        <ele>831</ele>
        <time>2018-08-09T06:58:17Z</time>
      </trkpt>
      <trkpt lat="44.11524" lon="6.29112">
        <ele>830.2</ele>
        <time>2018-08-09T06:58:18Z</time>
      </trkpt>
      <trkpt lat="44.11521" lon="6.2911">
        <ele>829.9</ele>
        <time>2018-08-09T06:58:19Z</time>
      </trkpt>
      <trkpt lat="44.11516" lon="6.29107">
        <ele>828.7</ele>
        <time>2018-08-09T06:58:21Z</time>
      </trkpt>
      <trkpt lat="44.11513" lon="6.29106">
        <ele>828.2</ele>
        <time>2018-08-09T06:58:22Z</time>
      </trkpt>
      <trkpt lat="44.1151" lon="6.29104">
        <ele>827.7</ele>
        <time>2018-08-09T06:58:23Z</time>
      </trkpt>
      <trkpt lat="44.11506" lon="6.29102">
        <ele>827.4</ele>
        <time>2018-08-09T06:58:24Z</time>
      </trkpt>
      <trkpt lat="44.11504" lon="6.291">
        <ele>827.2</ele>
        <time>2018-08-09T06:58:25Z</time>
      </trkpt>
      <trkpt lat="44.11501" lon="6.29099">
        <ele>827</ele>
        <time>2018-08-09T06:58:26Z</time>
      </trkpt>
      <trkpt lat="44.11498" lon="6.29098">
        <ele>826.7</ele>
        <time>2018-08-09T06:58:28Z</time>
      </trkpt>
      <trkpt lat="44.11501" lon="6.29102">
        <ele>826.4</ele>
        <time>2018-08-09T06:58:33Z</time>
      </trkpt>
      <trkpt lat="44.11505" lon="6.29103">
        <ele>826.2</ele>
        <time>2018-08-09T06:58:36Z</time>
      </trkpt>
      <trkpt lat="44.11508" lon="6.29105">
        <ele>826</ele>
        <time>2018-08-09T06:58:39Z</time>
      </trkpt>
      <trkpt lat="44.11512" lon="6.29106">
        <ele>825.7</ele>
        <time>2018-08-09T06:58:41Z</time>
      </trkpt>
      <trkpt lat="44.11514" lon="6.29109">
        <ele>825.5</ele>
        <time>2018-08-09T06:58:43Z</time>
      </trkpt>
      <trkpt lat="44.11515" lon="6.29114">
        <ele>825.1</ele>
        <time>2018-08-09T06:58:47Z</time>
      </trkpt>
      <trkpt lat="44.11511" lon="6.29119">
        <ele>824.6</ele>
        <time>2018-08-09T06:58:49Z</time>
      </trkpt>
      <trkpt lat="44.11509" lon="6.29122">
        <ele>824.5</ele>
        <time>2018-08-09T06:58:50Z</time>
      </trkpt>
      <trkpt lat="44.11507" lon="6.29125">
        <ele>824.4</ele>
        <time>2018-08-09T06:58:51Z</time>
      </trkpt>
      <trkpt lat="44.11504" lon="6.29127">
        <ele>824.2</ele>
        <time>2018-08-09T06:58:52Z</time>
      </trkpt>
      <trkpt lat="44.11502" lon="6.29129">
        <ele>824.2</ele>
        <time>2018-08-09T06:58:53Z</time>
      </trkpt>
      <trkpt lat="44.11498" lon="6.29132">
        <ele>824.1</ele>
        <time>2018-08-09T06:58:55Z</time>
      </trkpt>
      <trkpt lat="44.11495" lon="6.29136">
        <ele>824.1</ele>
        <time>2018-08-09T06:58:57Z</time>
      </trkpt>
      <trkpt lat="44.11492" lon="6.2914">
        <ele>824</ele>
        <time>2018-08-09T06:58:59Z</time>
      </trkpt>
      <trkpt lat="44.11491" lon="6.29144">
        <ele>824</ele>
        <time>2018-08-09T06:59:01Z</time>
      </trkpt>
      <trkpt lat="44.11493" lon="6.29151">
        <ele>824.1</ele>
        <time>2018-08-09T06:59:03Z</time>
      </trkpt>
      <trkpt lat="44.11496" lon="6.29154">
        <ele>824.1</ele>
        <time>2018-08-09T06:59:04Z</time>
      </trkpt>
      <trkpt lat="44.11499" lon="6.29157">
        <ele>824.1</ele>
        <time>2018-08-09T06:59:05Z</time>
      </trkpt>
      <trkpt lat="44.11501" lon="6.29158">
        <ele>824.1</ele>
        <time>2018-08-09T06:59:07Z</time>
      </trkpt>
      <trkpt lat="44.11505" lon="6.29163">
        <ele>824.2</ele>
        <time>2018-08-09T06:59:09Z</time>
      </trkpt>
      <trkpt lat="44.11507" lon="6.29167">
        <ele>824.2</ele>
        <time>2018-08-09T06:59:10Z</time>
      </trkpt>
      <trkpt lat="44.11509" lon="6.2917">
        <ele>824.3</ele>
        <time>2018-08-09T06:59:11Z</time>
      </trkpt>
      <trkpt lat="44.11511" lon="6.29173">
        <ele>824.5</ele>
        <time>2018-08-09T06:59:12Z</time>
      </trkpt>
      <trkpt lat="44.11513" lon="6.29176">
        <ele>824.7</ele>
        <time>2018-08-09T06:59:13Z</time>
      </trkpt>
      <trkpt lat="44.11517" lon="6.2918">
        <ele>825.3</ele>
        <time>2018-08-09T06:59:15Z</time>
      </trkpt>
      <trkpt lat="44.11519" lon="6.29185">
        <ele>825.9</ele>
        <time>2018-08-09T06:59:17Z</time>
      </trkpt>
      <trkpt lat="44.11521" lon="6.2919">
        <ele>826.5</ele>
        <time>2018-08-09T06:59:19Z</time>
      </trkpt>
      <trkpt lat="44.1152" lon="6.29198">
        <ele>827.5</ele>
        <time>2018-08-09T06:59:21Z</time>
      </trkpt>
      <trkpt lat="44.11519" lon="6.29204">
        <ele>828.2</ele>
        <time>2018-08-09T06:59:23Z</time>
      </trkpt>
      <trkpt lat="44.11519" lon="6.29208">
        <ele>828.5</ele>
        <time>2018-08-09T06:59:35Z</time>
      </trkpt>
      <trkpt lat="44.11522" lon="6.2921">
        <ele>828.9</ele>
        <time>2018-08-09T06:59:41Z</time>
      </trkpt>
      <trkpt lat="44.11525" lon="6.29212">
        <ele>829.3</ele>
        <time>2018-08-09T06:59:44Z</time>
      </trkpt>
      <trkpt lat="44.11527" lon="6.29217">
        <ele>829.7</ele>
        <time>2018-08-09T06:59:47Z</time>
      </trkpt>
      <trkpt lat="44.11528" lon="6.29221">
        <ele>830.1</ele>
        <time>2018-08-09T06:59:48Z</time>
      </trkpt>
      <trkpt lat="44.11531" lon="6.29226">
        <ele>830.6</ele>
        <time>2018-08-09T06:59:50Z</time>
      </trkpt>
      <trkpt lat="44.11533" lon="6.2923">
        <ele>831</ele>
        <time>2018-08-09T06:59:51Z</time>
      </trkpt>
      <trkpt lat="44.11535" lon="6.29233">
        <ele>831.4</ele>
        <time>2018-08-09T06:59:52Z</time>
      </trkpt>
      <trkpt lat="44.11536" lon="6.29236">
        <ele>831.8</ele>
        <time>2018-08-09T06:59:53Z</time>
      </trkpt>
      <trkpt lat="44.11539" lon="6.29241">
        <ele>832.5</ele>
        <time>2018-08-09T06:59:55Z</time>
      </trkpt>
      <trkpt lat="44.11539" lon="6.29245">
        <ele>832.8</ele>
        <time>2018-08-09T06:59:56Z</time>
      </trkpt>
      <trkpt lat="44.11541" lon="6.2925">
        <ele>833.5</ele>
        <time>2018-08-09T06:59:58Z</time>
      </trkpt>
      <trkpt lat="44.11538" lon="6.29252">
        <ele>834.1</ele>
        <time>2018-08-09T07:00:02Z</time>
      </trkpt>
      <trkpt lat="44.11535" lon="6.29253">
        <ele>834.7</ele>
        <time>2018-08-09T07:00:17Z</time>
      </trkpt>
      <trkpt lat="44.11532" lon="6.29252">
        <ele>835.4</ele>
        <time>2018-08-09T07:00:19Z</time>
      </trkpt>
      <trkpt lat="44.11529" lon="6.29252">
        <ele>836.2</ele>
        <time>2018-08-09T07:00:24Z</time>
      </trkpt>
      <trkpt lat="44.11527" lon="6.29249">
        <ele>837.1</ele>
        <time>2018-08-09T07:00:29Z</time>
      </trkpt>
      <trkpt lat="44.11524" lon="6.29246">
        <ele>838.1</ele>
        <time>2018-08-09T07:00:33Z</time>
      </trkpt>
      <trkpt lat="44.11522" lon="6.29245">
        <ele>839.2</ele>
        <time>2018-08-09T07:00:37Z</time>
      </trkpt>
      <trkpt lat="44.11518" lon="6.29245">
        <ele>840.1</ele>
        <time>2018-08-09T07:00:40Z</time>
      </trkpt>
      <trkpt lat="44.11515" lon="6.29244">
        <ele>840.8</ele>
        <time>2018-08-09T07:00:47Z</time>
      </trkpt>
      <trkpt lat="44.11512" lon="6.29243">
        <ele>841.4</ele>
        <time>2018-08-09T07:00:49Z</time>
      </trkpt>
      <trkpt lat="44.11509" lon="6.29243">
        <ele>841.9</ele>
        <time>2018-08-09T07:00:51Z</time>
      </trkpt>
      <trkpt lat="44.11505" lon="6.29243">
        <ele>842.5</ele>
        <time>2018-08-09T07:00:53Z</time>
      </trkpt>
      <trkpt lat="44.11502" lon="6.29243">
        <ele>843.2</ele>
        <time>2018-08-09T07:00:55Z</time>
      </trkpt>
      <trkpt lat="44.11499" lon="6.29242">
        <ele>843.9</ele>
        <time>2018-08-09T07:00:58Z</time>
      </trkpt>
      <trkpt lat="44.11495" lon="6.29245">
        <ele>844.7</ele>
        <time>2018-08-09T07:01:03Z</time>
      </trkpt>
      <trkpt lat="44.11492" lon="6.29244">
        <ele>845.5</ele>
        <time>2018-08-09T07:01:06Z</time>
      </trkpt>
      <trkpt lat="44.11489" lon="6.29245">
        <ele>846.1</ele>
        <time>2018-08-09T07:01:10Z</time>
      </trkpt>
      <trkpt lat="44.11487" lon="6.29248">
        <ele>846.9</ele>
        <time>2018-08-09T07:01:13Z</time>
      </trkpt>
      <trkpt lat="44.11485" lon="6.29249">
        <ele>847.7</ele>
        <time>2018-08-09T07:01:17Z</time>
      </trkpt>
      <trkpt lat="44.11482" lon="6.2925">
        <ele>848.5</ele>
        <time>2018-08-09T07:01:23Z</time>
      </trkpt>
      <trkpt lat="44.11481" lon="6.29254">
        <ele>849.3</ele>
        <time>2018-08-09T07:01:32Z</time>
      </trkpt>
      <trkpt lat="44.11477" lon="6.29257">
        <ele>850.1</ele>
        <time>2018-08-09T07:01:36Z</time>
      </trkpt>
      <trkpt lat="44.11476" lon="6.29261">
        <ele>850.7</ele>
        <time>2018-08-09T07:01:38Z</time>
      </trkpt>
      <trkpt lat="44.11475" lon="6.29264">
        <ele>851.3</ele>
        <time>2018-08-09T07:01:40Z</time>
      </trkpt>
      <trkpt lat="44.11472" lon="6.29267">
        <ele>852.1</ele>
        <time>2018-08-09T07:01:45Z</time>
      </trkpt>
      <trkpt lat="44.1147" lon="6.29271">
        <ele>852.7</ele>
        <time>2018-08-09T07:01:54Z</time>
      </trkpt>
      <trkpt lat="44.11469" lon="6.29274">
        <ele>853.3</ele>
        <time>2018-08-09T07:01:58Z</time>
      </trkpt>
      <trkpt lat="44.11467" lon="6.29277">
        <ele>854</ele>
        <time>2018-08-09T07:02:03Z</time>
      </trkpt>
      <trkpt lat="44.11467" lon="6.29282">
        <ele>854.8</ele>
        <time>2018-08-09T07:02:07Z</time>
      </trkpt>
      <trkpt lat="44.11466" lon="6.29286">
        <ele>855.4</ele>
        <time>2018-08-09T07:02:12Z</time>
      </trkpt>
      <trkpt lat="44.11467" lon="6.29291">
        <ele>856.2</ele>
        <time>2018-08-09T07:02:17Z</time>
      </trkpt>
      <trkpt lat="44.11466" lon="6.29295">
        <ele>857.1</ele>
        <time>2018-08-09T07:02:21Z</time>
      </trkpt>
      <trkpt lat="44.11466" lon="6.293">
        <ele>857.9</ele>
        <time>2018-08-09T07:02:23Z</time>
      </trkpt>
      <trkpt lat="44.11464" lon="6.29302">
        <ele>858.6</ele>
        <time>2018-08-09T07:02:27Z</time>
      </trkpt>
      <trkpt lat="44.11461" lon="6.29304">
        <ele>859.4</ele>
        <time>2018-08-09T07:02:32Z</time>
      </trkpt>
      <trkpt lat="44.1146" lon="6.29309">
        <ele>860.2</ele>
        <time>2018-08-09T07:02:48Z</time>
      </trkpt>
      <trkpt lat="44.11456" lon="6.2931">
        <ele>861</ele>
        <time>2018-08-09T07:02:53Z</time>
      </trkpt>
      <trkpt lat="44.11453" lon="6.29312">
        <ele>861.8</ele>
        <time>2018-08-09T07:02:58Z</time>
      </trkpt>
      <trkpt lat="44.11451" lon="6.29314">
        <ele>862.3</ele>
        <time>2018-08-09T07:03:06Z</time>
      </trkpt>
      <trkpt lat="44.11448" lon="6.29317">
        <ele>862.9</ele>
        <time>2018-08-09T07:03:14Z</time>
      </trkpt>
      <trkpt lat="44.11445" lon="6.29317">
        <ele>863.5</ele>
        <time>2018-08-09T07:03:18Z</time>
      </trkpt>
      <trkpt lat="44.11443" lon="6.2932">
        <ele>864</ele>
        <time>2018-08-09T07:03:24Z</time>
      </trkpt>
      <trkpt lat="44.11442" lon="6.29325">
        <ele>864.5</ele>
        <time>2018-08-09T07:03:30Z</time>
      </trkpt>
      <trkpt lat="44.11439" lon="6.29327">
        <ele>865</ele>
        <time>2018-08-09T07:03:33Z</time>
      </trkpt>
      <trkpt lat="44.11437" lon="6.2933">
        <ele>865.5</ele>
        <time>2018-08-09T07:03:36Z</time>
      </trkpt>
      <trkpt lat="44.11434" lon="6.29332">
        <ele>865.9</ele>
        <time>2018-08-09T07:03:40Z</time>
      </trkpt>
      <trkpt lat="44.11432" lon="6.29334">
        <ele>866.2</ele>
        <time>2018-08-09T07:03:45Z</time>
      </trkpt>
      <trkpt lat="44.11429" lon="6.29337">
        <ele>866.5</ele>
        <time>2018-08-09T07:04:05Z</time>
      </trkpt>
      <trkpt lat="44.11427" lon="6.29338">
        <ele>866.8</ele>
        <time>2018-08-09T07:04:10Z</time>
      </trkpt>
      <trkpt lat="44.11424" lon="6.29339">
        <ele>867.1</ele>
        <time>2018-08-09T07:04:14Z</time>
      </trkpt>
      <trkpt lat="44.11421" lon="6.29341">
        <ele>867.5</ele>
        <time>2018-08-09T07:04:17Z</time>
      </trkpt>
      <trkpt lat="44.11419" lon="6.29343">
        <ele>867.8</ele>
        <time>2018-08-09T07:04:21Z</time>
      </trkpt>
      <trkpt lat="44.11417" lon="6.29347">
        <ele>868.1</ele>
        <time>2018-08-09T07:04:24Z</time>
      </trkpt>
      <trkpt lat="44.11415" lon="6.2935">
        <ele>868.4</ele>
        <time>2018-08-09T07:04:28Z</time>
      </trkpt>
      <trkpt lat="44.11414" lon="6.29354">
        <ele>868.8</ele>
        <time>2018-08-09T07:04:32Z</time>
      </trkpt>
      <trkpt lat="44.11411" lon="6.29355">
        <ele>869.1</ele>
        <time>2018-08-09T07:04:35Z</time>
      </trkpt>
      <trkpt lat="44.11408" lon="6.29357">
        <ele>869.5</ele>
        <time>2018-08-09T07:04:39Z</time>
      </trkpt>
      <trkpt lat="44.11405" lon="6.29356">
        <ele>869.9</ele>
        <time>2018-08-09T07:04:42Z</time>
      </trkpt>
      <trkpt lat="44.11403" lon="6.29358">
        <ele>870.3</ele>
        <time>2018-08-09T07:04:46Z</time>
      </trkpt>
      <trkpt lat="44.114" lon="6.29361">
        <ele>870.7</ele>
        <time>2018-08-09T07:04:50Z</time>
      </trkpt>
      <trkpt lat="44.11397" lon="6.29361">
        <ele>871.1</ele>
        <time>2018-08-09T07:04:53Z</time>
      </trkpt>
      <trkpt lat="44.11394" lon="6.29363">
        <ele>871.6</ele>
        <time>2018-08-09T07:04:55Z</time>
      </trkpt>
      <trkpt lat="44.11391" lon="6.29364">
        <ele>872.2</ele>
        <time>2018-08-09T07:04:59Z</time>
      </trkpt>
      <trkpt lat="44.11387" lon="6.29365">
        <ele>872.7</ele>
        <time>2018-08-09T07:05:02Z</time>
      </trkpt>
      <trkpt lat="44.11384" lon="6.29366">
        <ele>873.3</ele>
        <time>2018-08-09T07:05:09Z</time>
      </trkpt>
      <trkpt lat="44.11382" lon="6.29368">
        <ele>873.9</ele>
        <time>2018-08-09T07:05:11Z</time>
      </trkpt>
      <trkpt lat="44.1138" lon="6.2937">
        <ele>874.5</ele>
        <time>2018-08-09T07:05:15Z</time>
      </trkpt>
      <trkpt lat="44.11377" lon="6.29374">
        <ele>875.4</ele>
        <time>2018-08-09T07:05:18Z</time>
      </trkpt>
      <trkpt lat="44.11377" lon="6.29378">
        <ele>876.3</ele>
        <time>2018-08-09T07:05:22Z</time>
      </trkpt>
      <trkpt lat="44.11374" lon="6.29378">
        <ele>877</ele>
        <time>2018-08-09T07:05:25Z</time>
      </trkpt>
      <trkpt lat="44.11372" lon="6.29381">
        <ele>877.7</ele>
        <time>2018-08-09T07:05:28Z</time>
      </trkpt>
      <trkpt lat="44.11369" lon="6.29383">
        <ele>878.3</ele>
        <time>2018-08-09T07:05:31Z</time>
      </trkpt>
      <trkpt lat="44.11366" lon="6.29386">
        <ele>879</ele>
        <time>2018-08-09T07:05:35Z</time>
      </trkpt>
      <trkpt lat="44.11362" lon="6.29389">
        <ele>879.7</ele>
        <time>2018-08-09T07:05:38Z</time>
      </trkpt>
      <trkpt lat="44.1136" lon="6.29392">
        <ele>880.3</ele>
        <time>2018-08-09T07:05:42Z</time>
      </trkpt>
      <trkpt lat="44.11356" lon="6.29393">
        <ele>881.2</ele>
        <time>2018-08-09T07:05:45Z</time>
      </trkpt>
      <trkpt lat="44.11353" lon="6.29395">
        <ele>882.3</ele>
        <time>2018-08-09T07:05:49Z</time>
      </trkpt>
      <trkpt lat="44.1135" lon="6.29398">
        <ele>883.4</ele>
        <time>2018-08-09T07:05:53Z</time>
      </trkpt>
      <trkpt lat="44.11347" lon="6.29398">
        <ele>884.3</ele>
        <time>2018-08-09T07:05:56Z</time>
      </trkpt>
      <trkpt lat="44.11345" lon="6.29402">
        <ele>885</ele>
        <time>2018-08-09T07:06:13Z</time>
      </trkpt>
      <trkpt lat="44.11343" lon="6.29404">
        <ele>885.7</ele>
        <time>2018-08-09T07:06:15Z</time>
      </trkpt>
      <trkpt lat="44.1134" lon="6.29406">
        <ele>886.5</ele>
        <time>2018-08-09T07:06:20Z</time>
      </trkpt>
      <trkpt lat="44.11337" lon="6.29408">
        <ele>887.4</ele>
        <time>2018-08-09T07:06:23Z</time>
      </trkpt>
      <trkpt lat="44.11334" lon="6.2941">
        <ele>888.6</ele>
        <time>2018-08-09T07:06:28Z</time>
      </trkpt>
      <trkpt lat="44.11332" lon="6.29409">
        <ele>889.5</ele>
        <time>2018-08-09T07:06:35Z</time>
      </trkpt>
      <trkpt lat="44.11327" lon="6.29412">
        <ele>890.7</ele>
        <time>2018-08-09T07:06:46Z</time>
      </trkpt>
      <trkpt lat="44.11324" lon="6.2941">
        <ele>891.5</ele>
        <time>2018-08-09T07:06:50Z</time>
      </trkpt>
      <trkpt lat="44.11322" lon="6.29415">
        <ele>892.4</ele>
        <time>2018-08-09T07:06:53Z</time>
      </trkpt>
      <trkpt lat="44.11319" lon="6.29417">
        <ele>892.9</ele>
        <time>2018-08-09T07:06:57Z</time>
      </trkpt>
      <trkpt lat="44.11317" lon="6.2942">
        <ele>893.4</ele>
        <time>2018-08-09T07:07:14Z</time>
      </trkpt>
      <trkpt lat="44.1132" lon="6.29423">
        <ele>893.9</ele>
        <time>2018-08-09T07:07:19Z</time>
      </trkpt>
      <trkpt lat="44.11322" lon="6.29426">
        <ele>894.4</ele>
        <time>2018-08-09T07:07:23Z</time>
      </trkpt>
      <trkpt lat="44.11325" lon="6.29428">
        <ele>894.7</ele>
        <time>2018-08-09T07:07:28Z</time>
      </trkpt>
      <trkpt lat="44.11325" lon="6.29432">
        <ele>895</ele>
        <time>2018-08-09T07:07:32Z</time>
      </trkpt>
      <trkpt lat="44.11326" lon="6.29436">
        <ele>895.2</ele>
        <time>2018-08-09T07:07:36Z</time>
      </trkpt>
      <trkpt lat="44.11327" lon="6.2944">
        <ele>895.4</ele>
        <time>2018-08-09T07:07:44Z</time>
      </trkpt>
      <trkpt lat="44.1133" lon="6.29442">
        <ele>895.5</ele>
        <time>2018-08-09T07:07:58Z</time>
      </trkpt>
      <trkpt lat="44.11328" lon="6.29446">
        <ele>895.5</ele>
        <time>2018-08-09T07:08:22Z</time>
      </trkpt>
      <trkpt lat="44.11326" lon="6.29449">
        <ele>895.6</ele>
        <time>2018-08-09T07:08:29Z</time>
      </trkpt>
      <trkpt lat="44.11324" lon="6.29452">
        <ele>895.6</ele>
        <time>2018-08-09T07:08:32Z</time>
      </trkpt>
      <trkpt lat="44.11322" lon="6.29456">
        <ele>895.6</ele>
        <time>2018-08-09T07:08:35Z</time>
      </trkpt>
      <trkpt lat="44.1132" lon="6.29458">
        <ele>895.7</ele>
        <time>2018-08-09T07:08:42Z</time>
      </trkpt>
      <trkpt lat="44.11318" lon="6.29463">
        <ele>895.7</ele>
        <time>2018-08-09T07:08:45Z</time>
      </trkpt>
      <trkpt lat="44.11318" lon="6.2947">
        <ele>895.8</ele>
        <time>2018-08-09T07:08:50Z</time>
      </trkpt>
      <trkpt lat="44.11316" lon="6.29472">
        <ele>895.8</ele>
        <time>2018-08-09T07:09:04Z</time>
      </trkpt>
      <trkpt lat="44.11317" lon="6.29477">
        <ele>895.9</ele>
        <time>2018-08-09T07:09:07Z</time>
      </trkpt>
      <trkpt lat="44.11318" lon="6.29482">
        <ele>895.9</ele>
        <time>2018-08-09T07:09:11Z</time>
      </trkpt>
      <trkpt lat="44.11318" lon="6.29485">
        <ele>896</ele>
        <time>2018-08-09T07:09:15Z</time>
      </trkpt>
      <trkpt lat="44.11316" lon="6.2949">
        <ele>896</ele>
        <time>2018-08-09T07:09:20Z</time>
      </trkpt>
      <trkpt lat="44.11313" lon="6.29492">
        <ele>896.1</ele>
        <time>2018-08-09T07:09:29Z</time>
      </trkpt>
      <trkpt lat="44.11313" lon="6.29497">
        <ele>896.2</ele>
        <time>2018-08-09T07:09:32Z</time>
      </trkpt>
      <trkpt lat="44.11312" lon="6.29502">
        <ele>896.2</ele>
        <time>2018-08-09T07:09:34Z</time>
      </trkpt>
      <trkpt lat="44.11312" lon="6.29507">
        <ele>896.4</ele>
        <time>2018-08-09T07:09:36Z</time>
      </trkpt>
      <trkpt lat="44.11311" lon="6.29511">
        <ele>896.5</ele>
        <time>2018-08-09T07:09:39Z</time>
      </trkpt>
      <trkpt lat="44.11311" lon="6.29517">
        <ele>896.8</ele>
        <time>2018-08-09T07:09:41Z</time>
      </trkpt>
      <trkpt lat="44.11308" lon="6.29521">
        <ele>897.1</ele>
        <time>2018-08-09T07:09:43Z</time>
      </trkpt>
      <trkpt lat="44.11303" lon="6.29524">
        <ele>897.5</ele>
        <time>2018-08-09T07:09:45Z</time>
      </trkpt>
      <trkpt lat="44.11299" lon="6.29527">
        <ele>897.9</ele>
        <time>2018-08-09T07:09:47Z</time>
      </trkpt>
      <trkpt lat="44.11296" lon="6.29528">
        <ele>898.3</ele>
        <time>2018-08-09T07:09:48Z</time>
      </trkpt>
      <trkpt lat="44.11293" lon="6.29534">
        <ele>898.9</ele>
        <time>2018-08-09T07:09:50Z</time>
      </trkpt>
      <trkpt lat="44.1129" lon="6.29538">
        <ele>899.4</ele>
        <time>2018-08-09T07:09:52Z</time>
      </trkpt>
      <trkpt lat="44.11287" lon="6.29544">
        <ele>899.9</ele>
        <time>2018-08-09T07:09:54Z</time>
      </trkpt>
      <trkpt lat="44.11287" lon="6.29548">
        <ele>900.3</ele>
        <time>2018-08-09T07:09:56Z</time>
      </trkpt>
      <trkpt lat="44.11286" lon="6.29552">
        <ele>900.7</ele>
        <time>2018-08-09T07:09:58Z</time>
      </trkpt>
      <trkpt lat="44.11284" lon="6.29554">
        <ele>901</ele>
        <time>2018-08-09T07:10:00Z</time>
      </trkpt>
      <trkpt lat="44.11281" lon="6.29557">
        <ele>901.5</ele>
        <time>2018-08-09T07:10:02Z</time>
      </trkpt>
      <trkpt lat="44.11281" lon="6.29561">
        <ele>901.9</ele>
        <time>2018-08-09T07:10:04Z</time>
      </trkpt>
      <trkpt lat="44.1128" lon="6.29565">
        <ele>902.3</ele>
        <time>2018-08-09T07:10:06Z</time>
      </trkpt>
      <trkpt lat="44.1128" lon="6.29569">
        <ele>902.6</ele>
        <time>2018-08-09T07:10:08Z</time>
      </trkpt>
      <trkpt lat="44.11278" lon="6.29574">
        <ele>903.1</ele>
        <time>2018-08-09T07:10:10Z</time>
      </trkpt>
      <trkpt lat="44.11278" lon="6.29579">
        <ele>903.6</ele>
        <time>2018-08-09T07:10:12Z</time>
      </trkpt>
      <trkpt lat="44.11276" lon="6.29583">
        <ele>904</ele>
        <time>2018-08-09T07:10:14Z</time>
      </trkpt>
      <trkpt lat="44.11274" lon="6.29587">
        <ele>904.4</ele>
        <time>2018-08-09T07:10:16Z</time>
      </trkpt>
      <trkpt lat="44.11274" lon="6.29591">
        <ele>904.8</ele>
        <time>2018-08-09T07:10:24Z</time>
      </trkpt>
      <trkpt lat="44.11273" lon="6.29595">
        <ele>905.1</ele>
        <time>2018-08-09T07:10:27Z</time>
      </trkpt>
      <trkpt lat="44.11273" lon="6.296">
        <ele>905.5</ele>
        <time>2018-08-09T07:10:30Z</time>
      </trkpt>
      <trkpt lat="44.11271" lon="6.29604">
        <ele>905.7</ele>
        <time>2018-08-09T07:10:33Z</time>
      </trkpt>
      <trkpt lat="44.11272" lon="6.29608">
        <ele>906</ele>
        <time>2018-08-09T07:10:35Z</time>
      </trkpt>
      <trkpt lat="44.11271" lon="6.29612">
        <ele>906.3</ele>
        <time>2018-08-09T07:10:40Z</time>
      </trkpt>
      <trkpt lat="44.11269" lon="6.29616">
        <ele>906.5</ele>
        <time>2018-08-09T07:10:44Z</time>
      </trkpt>
      <trkpt lat="44.11269" lon="6.2962">
        <ele>906.6</ele>
        <time>2018-08-09T07:10:48Z</time>
      </trkpt>
      <trkpt lat="44.11267" lon="6.29624">
        <ele>906.7</ele>
        <time>2018-08-09T07:10:52Z</time>
      </trkpt>
      <trkpt lat="44.11267" lon="6.29628">
        <ele>906.7</ele>
        <time>2018-08-09T07:10:56Z</time>
      </trkpt>
      <trkpt lat="44.11266" lon="6.29632">
        <ele>906.8</ele>
        <time>2018-08-09T07:11:00Z</time>
      </trkpt>
      <trkpt lat="44.11265" lon="6.29635">
        <ele>906.9</ele>
        <time>2018-08-09T07:11:03Z</time>
      </trkpt>
      <trkpt lat="44.11262" lon="6.29638">
        <ele>907</ele>
        <time>2018-08-09T07:11:08Z</time>
      </trkpt>
      <trkpt lat="44.1126" lon="6.29642">
        <ele>907</ele>
        <time>2018-08-09T07:11:13Z</time>
      </trkpt>
      <trkpt lat="44.11261" lon="6.29647">
        <ele>907.1</ele>
        <time>2018-08-09T07:11:17Z</time>
      </trkpt>
      <trkpt lat="44.11259" lon="6.29651">
        <ele>907.1</ele>
        <time>2018-08-09T07:11:21Z</time>
      </trkpt>
      <trkpt lat="44.11259" lon="6.29657">
        <ele>907.2</ele>
        <time>2018-08-09T07:11:25Z</time>
      </trkpt>
      <trkpt lat="44.11258" lon="6.29661">
        <ele>907.2</ele>
        <time>2018-08-09T07:11:30Z</time>
      </trkpt>
      <trkpt lat="44.11257" lon="6.29665">
        <ele>907.2</ele>
        <time>2018-08-09T07:11:40Z</time>
      </trkpt>
      <trkpt lat="44.11255" lon="6.2967">
        <ele>907.2</ele>
        <time>2018-08-09T07:11:42Z</time>
      </trkpt>
      <trkpt lat="44.11253" lon="6.29675">
        <ele>907.3</ele>
        <time>2018-08-09T07:11:44Z</time>
      </trkpt>
      <trkpt lat="44.11251" lon="6.29676">
        <ele>907.3</ele>
        <time>2018-08-09T07:11:46Z</time>
      </trkpt>
      <trkpt lat="44.11251" lon="6.29681">
        <ele>907.3</ele>
        <time>2018-08-09T07:11:48Z</time>
      </trkpt>
      <trkpt lat="44.1125" lon="6.29687">
        <ele>907.3</ele>
        <time>2018-08-09T07:11:50Z</time>
      </trkpt>
      <trkpt lat="44.1125" lon="6.29692">
        <ele>907.4</ele>
        <time>2018-08-09T07:11:52Z</time>
      </trkpt>
      <trkpt lat="44.11249" lon="6.29697">
        <ele>907.4</ele>
        <time>2018-08-09T07:11:54Z</time>
      </trkpt>
      <trkpt lat="44.11248" lon="6.29701">
        <ele>907.4</ele>
        <time>2018-08-09T07:11:56Z</time>
      </trkpt>
      <trkpt lat="44.11245" lon="6.29705">
        <ele>907.5</ele>
        <time>2018-08-09T07:11:58Z</time>
      </trkpt>
      <trkpt lat="44.11243" lon="6.29711">
        <ele>907.5</ele>
        <time>2018-08-09T07:12:00Z</time>
      </trkpt>
      <trkpt lat="44.11242" lon="6.29714">
        <ele>907.6</ele>
        <time>2018-08-09T07:12:01Z</time>
      </trkpt>
      <trkpt lat="44.11242" lon="6.2972">
        <ele>907.7</ele>
        <time>2018-08-09T07:12:03Z</time>
      </trkpt>
      <trkpt lat="44.11241" lon="6.29724">
        <ele>907.8</ele>
        <time>2018-08-09T07:12:05Z</time>
      </trkpt>
      <trkpt lat="44.11241" lon="6.29731">
        <ele>908</ele>
        <time>2018-08-09T07:12:07Z</time>
      </trkpt>
      <trkpt lat="44.11242" lon="6.29737">
        <ele>908.3</ele>
        <time>2018-08-09T07:12:09Z</time>
      </trkpt>
      <trkpt lat="44.1124" lon="6.29741">
        <ele>908.5</ele>
        <time>2018-08-09T07:12:12Z</time>
      </trkpt>
      <trkpt lat="44.11236" lon="6.29745">
        <ele>908.7</ele>
        <time>2018-08-09T07:12:14Z</time>
      </trkpt>
      <trkpt lat="44.11232" lon="6.2975">
        <ele>908.8</ele>
        <time>2018-08-09T07:12:16Z</time>
      </trkpt>
      <trkpt lat="44.1123" lon="6.29753">
        <ele>908.9</ele>
        <time>2018-08-09T07:12:18Z</time>
      </trkpt>
      <trkpt lat="44.11227" lon="6.29756">
        <ele>908.9</ele>
        <time>2018-08-09T07:12:27Z</time>
      </trkpt>
      <trkpt lat="44.11225" lon="6.2976">
        <ele>909</ele>
        <time>2018-08-09T07:12:29Z</time>
      </trkpt>
      <trkpt lat="44.11224" lon="6.29764">
        <ele>909.1</ele>
        <time>2018-08-09T07:12:31Z</time>
      </trkpt>
      <trkpt lat="44.11222" lon="6.29768">
        <ele>909.2</ele>
        <time>2018-08-09T07:12:33Z</time>
      </trkpt>
      <trkpt lat="44.11219" lon="6.2977">
        <ele>909.2</ele>
        <time>2018-08-09T07:12:35Z</time>
      </trkpt>
      <trkpt lat="44.11218" lon="6.29775">
        <ele>909.3</ele>
        <time>2018-08-09T07:12:38Z</time>
      </trkpt>
      <trkpt lat="44.11216" lon="6.29778">
        <ele>909.3</ele>
        <time>2018-08-09T07:12:40Z</time>
      </trkpt>
      <trkpt lat="44.11213" lon="6.29783">
        <ele>909.4</ele>
        <time>2018-08-09T07:12:42Z</time>
      </trkpt>
      <trkpt lat="44.11211" lon="6.29784">
        <ele>909.4</ele>
        <time>2018-08-09T07:12:44Z</time>
      </trkpt>
      <trkpt lat="44.11208" lon="6.29787">
        <ele>909.5</ele>
        <time>2018-08-09T07:12:46Z</time>
      </trkpt>
      <trkpt lat="44.11204" lon="6.29792">
        <ele>909.5</ele>
        <time>2018-08-09T07:12:48Z</time>
      </trkpt>
      <trkpt lat="44.11203" lon="6.29795">
        <ele>909.6</ele>
        <time>2018-08-09T07:12:50Z</time>
      </trkpt>
      <trkpt lat="44.11201" lon="6.29801">
        <ele>909.7</ele>
        <time>2018-08-09T07:12:52Z</time>
      </trkpt>
      <trkpt lat="44.11199" lon="6.29808">
        <ele>909.9</ele>
        <time>2018-08-09T07:12:54Z</time>
      </trkpt>
      <trkpt lat="44.11199" lon="6.29812">
        <ele>910</ele>
        <time>2018-08-09T07:12:55Z</time>
      </trkpt>
      <trkpt lat="44.11198" lon="6.2982">
        <ele>910.4</ele>
        <time>2018-08-09T07:12:57Z</time>
      </trkpt>
      <trkpt lat="44.11198" lon="6.29827">
        <ele>910.7</ele>
        <time>2018-08-09T07:12:59Z</time>
      </trkpt>
      <trkpt lat="44.11198" lon="6.29832">
        <ele>911</ele>
        <time>2018-08-09T07:13:01Z</time>
      </trkpt>
      <trkpt lat="44.112" lon="6.29837">
        <ele>911.2</ele>
        <time>2018-08-09T07:13:03Z</time>
      </trkpt>
      <trkpt lat="44.11201" lon="6.29843">
        <ele>911.4</ele>
        <time>2018-08-09T07:13:06Z</time>
      </trkpt>
      <trkpt lat="44.11204" lon="6.29846">
        <ele>911.5</ele>
        <time>2018-08-09T07:13:08Z</time>
      </trkpt>
      <trkpt lat="44.11205" lon="6.2985">
        <ele>911.7</ele>
        <time>2018-08-09T07:13:10Z</time>
      </trkpt>
      <trkpt lat="44.11207" lon="6.29855">
        <ele>911.9</ele>
        <time>2018-08-09T07:13:12Z</time>
      </trkpt>
      <trkpt lat="44.11209" lon="6.29859">
        <ele>912.3</ele>
        <time>2018-08-09T07:13:14Z</time>
      </trkpt>
      <trkpt lat="44.11211" lon="6.29862">
        <ele>912.6</ele>
        <time>2018-08-09T07:13:16Z</time>
      </trkpt>
      <trkpt lat="44.11213" lon="6.29865">
        <ele>913</ele>
        <time>2018-08-09T07:13:18Z</time>
      </trkpt>
      <trkpt lat="44.11216" lon="6.29868">
        <ele>913.3</ele>
        <time>2018-08-09T07:13:20Z</time>
      </trkpt>
      <trkpt lat="44.11217" lon="6.29873">
        <ele>913.8</ele>
        <time>2018-08-09T07:13:22Z</time>
      </trkpt>
      <trkpt lat="44.11219" lon="6.29877">
        <ele>914.2</ele>
        <time>2018-08-09T07:13:24Z</time>
      </trkpt>
      <trkpt lat="44.11222" lon="6.2988">
        <ele>914.7</ele>
        <time>2018-08-09T07:13:42Z</time>
      </trkpt>
      <trkpt lat="44.11225" lon="6.29883">
        <ele>915.1</ele>
        <time>2018-08-09T07:13:49Z</time>
      </trkpt>
      <trkpt lat="44.11227" lon="6.29886">
        <ele>915.5</ele>
        <time>2018-08-09T07:13:53Z</time>
      </trkpt>
      <trkpt lat="44.11229" lon="6.29888">
        <ele>915.9</ele>
        <time>2018-08-09T07:13:58Z</time>
      </trkpt>
      <trkpt lat="44.1123" lon="6.29892">
        <ele>916.4</ele>
        <time>2018-08-09T07:14:04Z</time>
      </trkpt>
      <trkpt lat="44.11233" lon="6.29895">
        <ele>916.9</ele>
        <time>2018-08-09T07:14:08Z</time>
      </trkpt>
      <trkpt lat="44.11233" lon="6.29899">
        <ele>917.3</ele>
        <time>2018-08-09T07:14:11Z</time>
      </trkpt>
      <trkpt lat="44.11236" lon="6.29903">
        <ele>917.9</ele>
        <time>2018-08-09T07:14:15Z</time>
      </trkpt>
      <trkpt lat="44.11239" lon="6.29906">
        <ele>918.4</ele>
        <time>2018-08-09T07:14:19Z</time>
      </trkpt>
      <trkpt lat="44.11242" lon="6.29907">
        <ele>918.9</ele>
        <time>2018-08-09T07:14:21Z</time>
      </trkpt>
      <trkpt lat="44.11244" lon="6.29909">
        <ele>919.4</ele>
        <time>2018-08-09T07:14:29Z</time>
      </trkpt>
      <trkpt lat="44.11248" lon="6.29912">
        <ele>920</ele>
        <time>2018-08-09T07:14:35Z</time>
      </trkpt>
      <trkpt lat="44.11252" lon="6.29915">
        <ele>920.7</ele>
        <time>2018-08-09T07:14:38Z</time>
      </trkpt>
      <trkpt lat="44.11254" lon="6.29919">
        <ele>921.3</ele>
        <time>2018-08-09T07:14:40Z</time>
      </trkpt>
      <trkpt lat="44.11256" lon="6.29923">
        <ele>921.8</ele>
        <time>2018-08-09T07:14:42Z</time>
      </trkpt>
      <trkpt lat="44.11258" lon="6.29926">
        <ele>922.2</ele>
        <time>2018-08-09T07:14:44Z</time>
      </trkpt>
      <trkpt lat="44.11259" lon="6.2993">
        <ele>922.7</ele>
        <time>2018-08-09T07:14:49Z</time>
      </trkpt>
      <trkpt lat="44.11261" lon="6.29935">
        <ele>923.1</ele>
        <time>2018-08-09T07:14:54Z</time>
      </trkpt>
      <trkpt lat="44.1126" lon="6.29939">
        <ele>923.6</ele>
        <time>2018-08-09T07:14:59Z</time>
      </trkpt>
      <trkpt lat="44.11261" lon="6.29943">
        <ele>924</ele>
        <time>2018-08-09T07:15:03Z</time>
      </trkpt>
      <trkpt lat="44.11262" lon="6.29948">
        <ele>924.7</ele>
        <time>2018-08-09T07:15:07Z</time>
      </trkpt>
      <trkpt lat="44.11265" lon="6.29953">
        <ele>925.4</ele>
        <time>2018-08-09T07:15:10Z</time>
      </trkpt>
      <trkpt lat="44.11266" lon="6.29957">
        <ele>925.8</ele>
        <time>2018-08-09T07:15:13Z</time>
      </trkpt>
      <trkpt lat="44.11269" lon="6.29959">
        <ele>926.3</ele>
        <time>2018-08-09T07:15:16Z</time>
      </trkpt>
      <trkpt lat="44.11272" lon="6.29961">
        <ele>926.7</ele>
        <time>2018-08-09T07:15:18Z</time>
      </trkpt>
      <trkpt lat="44.11272" lon="6.29965">
        <ele>927.1</ele>
        <time>2018-08-09T07:15:25Z</time>
      </trkpt>
      <trkpt lat="44.11274" lon="6.29969">
        <ele>927.6</ele>
        <time>2018-08-09T07:15:28Z</time>
      </trkpt>
      <trkpt lat="44.11276" lon="6.29973">
        <ele>928.1</ele>
        <time>2018-08-09T07:15:33Z</time>
      </trkpt>
      <trkpt lat="44.11279" lon="6.29976">
        <ele>928.8</ele>
        <time>2018-08-09T07:15:37Z</time>
      </trkpt>
      <trkpt lat="44.11281" lon="6.29979">
        <ele>929.2</ele>
        <time>2018-08-09T07:15:44Z</time>
      </trkpt>
      <trkpt lat="44.11283" lon="6.29982">
        <ele>929.7</ele>
        <time>2018-08-09T07:15:48Z</time>
      </trkpt>
      <trkpt lat="44.11284" lon="6.29987">
        <ele>930.3</ele>
        <time>2018-08-09T07:15:55Z</time>
      </trkpt>
      <trkpt lat="44.11287" lon="6.29988">
        <ele>930.8</ele>
        <time>2018-08-09T07:16:05Z</time>
      </trkpt>
      <trkpt lat="44.11291" lon="6.29989">
        <ele>931.5</ele>
        <time>2018-08-09T07:16:26Z</time>
      </trkpt>
      <trkpt lat="44.11294" lon="6.29991">
        <ele>932.1</ele>
        <time>2018-08-09T07:16:31Z</time>
      </trkpt>
      <trkpt lat="44.11296" lon="6.29994">
        <ele>932.6</ele>
        <time>2018-08-09T07:16:35Z</time>
      </trkpt>
      <trkpt lat="44.11295" lon="6.29998">
        <ele>933.1</ele>
        <time>2018-08-09T07:16:39Z</time>
      </trkpt>
      <trkpt lat="44.11294" lon="6.30004">
        <ele>933.7</ele>
        <time>2018-08-09T07:16:43Z</time>
      </trkpt>
      <trkpt lat="44.11297" lon="6.3001">
        <ele>934.2</ele>
        <time>2018-08-09T07:16:45Z</time>
      </trkpt>
      <trkpt lat="44.11299" lon="6.30013">
        <ele>934.5</ele>
        <time>2018-08-09T07:16:47Z</time>
      </trkpt>
      <trkpt lat="44.11301" lon="6.30018">
        <ele>934.7</ele>
        <time>2018-08-09T07:16:49Z</time>
      </trkpt>
      <trkpt lat="44.11303" lon="6.30022">
        <ele>934.8</ele>
        <time>2018-08-09T07:16:51Z</time>
      </trkpt>
      <trkpt lat="44.11305" lon="6.30027">
        <ele>934.9</ele>
        <time>2018-08-09T07:16:54Z</time>
      </trkpt>
      <trkpt lat="44.11307" lon="6.30033">
        <ele>934.9</ele>
        <time>2018-08-09T07:16:56Z</time>
      </trkpt>
      <trkpt lat="44.1131" lon="6.30038">
        <ele>935</ele>
        <time>2018-08-09T07:16:58Z</time>
      </trkpt>
      <trkpt lat="44.11313" lon="6.30042">
        <ele>935</ele>
        <time>2018-08-09T07:17:00Z</time>
      </trkpt>
      <trkpt lat="44.11316" lon="6.30043">
        <ele>935.1</ele>
        <time>2018-08-09T07:17:02Z</time>
      </trkpt>
      <trkpt lat="44.11319" lon="6.30047">
        <ele>935.1</ele>
        <time>2018-08-09T07:17:05Z</time>
      </trkpt>
      <trkpt lat="44.11322" lon="6.30048">
        <ele>935.1</ele>
        <time>2018-08-09T07:17:07Z</time>
      </trkpt>
      <trkpt lat="44.11326" lon="6.30049">
        <ele>935</ele>
        <time>2018-08-09T07:17:09Z</time>
      </trkpt>
      <trkpt lat="44.1133" lon="6.30052">
        <ele>935</ele>
        <time>2018-08-09T07:17:11Z</time>
      </trkpt>
      <trkpt lat="44.11331" lon="6.30055">
        <ele>935</ele>
        <time>2018-08-09T07:17:12Z</time>
      </trkpt>
      <trkpt lat="44.11334" lon="6.3006">
        <ele>934.9</ele>
        <time>2018-08-09T07:17:14Z</time>
      </trkpt>
      <trkpt lat="44.11336" lon="6.30062">
        <ele>934.9</ele>
        <time>2018-08-09T07:17:15Z</time>
      </trkpt>
      <trkpt lat="44.1134" lon="6.30063">
        <ele>934.7</ele>
        <time>2018-08-09T07:17:17Z</time>
      </trkpt>
      <trkpt lat="44.11345" lon="6.30064">
        <ele>934.3</ele>
        <time>2018-08-09T07:17:19Z</time>
      </trkpt>
      <trkpt lat="44.11349" lon="6.30068">
        <ele>933.9</ele>
        <time>2018-08-09T07:17:21Z</time>
      </trkpt>
      <trkpt lat="44.11353" lon="6.3007">
        <ele>933.8</ele>
        <time>2018-08-09T07:17:23Z</time>
      </trkpt>
      <trkpt lat="44.11358" lon="6.30072">
        <ele>933.8</ele>
        <time>2018-08-09T07:17:25Z</time>
      </trkpt>
      <trkpt lat="44.11361" lon="6.30073">
        <ele>933.8</ele>
        <time>2018-08-09T07:17:34Z</time>
      </trkpt>
      <trkpt lat="44.11363" lon="6.30075">
        <ele>933.8</ele>
        <time>2018-08-09T07:17:39Z</time>
      </trkpt>
      <trkpt lat="44.11364" lon="6.30079">
        <ele>933.8</ele>
        <time>2018-08-09T07:17:51Z</time>
      </trkpt>
      <trkpt lat="44.11361" lon="6.30081">
        <ele>934.1</ele>
        <time>2018-08-09T07:17:58Z</time>
      </trkpt>
      <trkpt lat="44.11358" lon="6.30085">
        <ele>934.7</ele>
        <time>2018-08-09T07:18:01Z</time>
      </trkpt>
      <trkpt lat="44.11355" lon="6.30088">
        <ele>935</ele>
        <time>2018-08-09T07:18:03Z</time>
      </trkpt>
      <trkpt lat="44.11352" lon="6.30091">
        <ele>935.4</ele>
        <time>2018-08-09T07:18:05Z</time>
      </trkpt>
      <trkpt lat="44.11349" lon="6.30093">
        <ele>935.8</ele>
        <time>2018-08-09T07:18:07Z</time>
      </trkpt>
      <trkpt lat="44.1135" lon="6.30097">
        <ele>936.2</ele>
        <time>2018-08-09T07:18:12Z</time>
      </trkpt>
      <trkpt lat="44.11346" lon="6.30098">
        <ele>936.7</ele>
        <time>2018-08-09T07:18:17Z</time>
      </trkpt>
      <trkpt lat="44.11344" lon="6.30101">
        <ele>937</ele>
        <time>2018-08-09T07:18:20Z</time>
      </trkpt>
      <trkpt lat="44.11342" lon="6.30105">
        <ele>937.3</ele>
        <time>2018-08-09T07:18:23Z</time>
      </trkpt>
      <trkpt lat="44.11341" lon="6.3011">
        <ele>937.6</ele>
        <time>2018-08-09T07:18:26Z</time>
      </trkpt>
      <trkpt lat="44.11341" lon="6.30114">
        <ele>938.1</ele>
        <time>2018-08-09T07:18:29Z</time>
      </trkpt>
      <trkpt lat="44.11342" lon="6.30118">
        <ele>938.4</ele>
        <time>2018-08-09T07:18:32Z</time>
      </trkpt>
      <trkpt lat="44.11342" lon="6.30124">
        <ele>939</ele>
        <time>2018-08-09T07:18:35Z</time>
      </trkpt>
      <trkpt lat="44.11342" lon="6.30129">
        <ele>939.5</ele>
        <time>2018-08-09T07:18:40Z</time>
      </trkpt>
      <trkpt lat="44.11345" lon="6.30132">
        <ele>940</ele>
        <time>2018-08-09T07:18:42Z</time>
      </trkpt>
      <trkpt lat="44.11347" lon="6.30134">
        <ele>940.4</ele>
        <time>2018-08-09T07:18:44Z</time>
      </trkpt>
      <trkpt lat="44.11348" lon="6.30139">
        <ele>940.8</ele>
        <time>2018-08-09T07:18:50Z</time>
      </trkpt>
      <trkpt lat="44.11347" lon="6.30143">
        <ele>941.1</ele>
        <time>2018-08-09T07:18:53Z</time>
      </trkpt>
      <trkpt lat="44.11347" lon="6.30148">
        <ele>941.5</ele>
        <time>2018-08-09T07:18:58Z</time>
      </trkpt>
      <trkpt lat="44.11349" lon="6.30151">
        <ele>941.8</ele>
        <time>2018-08-09T07:19:00Z</time>
      </trkpt>
      <trkpt lat="44.11349" lon="6.30155">
        <ele>942.1</ele>
        <time>2018-08-09T07:19:03Z</time>
      </trkpt>
      <trkpt lat="44.11351" lon="6.30158">
        <ele>942.4</ele>
        <time>2018-08-09T07:19:07Z</time>
      </trkpt>
      <trkpt lat="44.11352" lon="6.30162">
        <ele>942.8</ele>
        <time>2018-08-09T07:19:10Z</time>
      </trkpt>
      <trkpt lat="44.11353" lon="6.30167">
        <ele>943.2</ele>
        <time>2018-08-09T07:19:14Z</time>
      </trkpt>
      <trkpt lat="44.11354" lon="6.30171">
        <ele>943.6</ele>
        <time>2018-08-09T07:19:23Z</time>
      </trkpt>
      <trkpt lat="44.11358" lon="6.30175">
        <ele>944.3</ele>
        <time>2018-08-09T07:19:25Z</time>
      </trkpt>
      <trkpt lat="44.11359" lon="6.30179">
        <ele>944.6</ele>
        <time>2018-08-09T07:19:32Z</time>
      </trkpt>
      <trkpt lat="44.1136" lon="6.30182">
        <ele>944.9</ele>
        <time>2018-08-09T07:19:34Z</time>
      </trkpt>
      <trkpt lat="44.11362" lon="6.30186">
        <ele>945.2</ele>
        <time>2018-08-09T07:19:36Z</time>
      </trkpt>
      <trkpt lat="44.11364" lon="6.3019">
        <ele>945.4</ele>
        <time>2018-08-09T07:19:38Z</time>
      </trkpt>
      <trkpt lat="44.11367" lon="6.30193">
        <ele>945.7</ele>
        <time>2018-08-09T07:19:40Z</time>
      </trkpt>
      <trkpt lat="44.11369" lon="6.30198">
        <ele>945.9</ele>
        <time>2018-08-09T07:19:42Z</time>
      </trkpt>
      <trkpt lat="44.1137" lon="6.30203">
        <ele>946</ele>
        <time>2018-08-09T07:19:44Z</time>
      </trkpt>
      <trkpt lat="44.11371" lon="6.30207">
        <ele>946.1</ele>
        <time>2018-08-09T07:19:46Z</time>
      </trkpt>
      <trkpt lat="44.1137" lon="6.30212">
        <ele>946.2</ele>
        <time>2018-08-09T07:19:49Z</time>
      </trkpt>
      <trkpt lat="44.11367" lon="6.3021">
        <ele>946.3</ele>
        <time>2018-08-09T07:20:04Z</time>
      </trkpt>
      <trkpt lat="44.11364" lon="6.30209">
        <ele>946.3</ele>
        <time>2018-08-09T07:20:07Z</time>
      </trkpt>
      <trkpt lat="44.11361" lon="6.30206">
        <ele>946.4</ele>
        <time>2018-08-09T07:20:11Z</time>
      </trkpt>
      <trkpt lat="44.11359" lon="6.30204">
        <ele>946.5</ele>
        <time>2018-08-09T07:20:16Z</time>
      </trkpt>
      <trkpt lat="44.11355" lon="6.30204">
        <ele>946.6</ele>
        <time>2018-08-09T07:20:19Z</time>
      </trkpt>
      <trkpt lat="44.11351" lon="6.30205">
        <ele>946.7</ele>
        <time>2018-08-09T07:20:23Z</time>
      </trkpt>
      <trkpt lat="44.11347" lon="6.30205">
        <ele>946.9</ele>
        <time>2018-08-09T07:20:30Z</time>
      </trkpt>
      <trkpt lat="44.11344" lon="6.30206">
        <ele>947.1</ele>
        <time>2018-08-09T07:20:35Z</time>
      </trkpt>
      <trkpt lat="44.11341" lon="6.30207">
        <ele>947.6</ele>
        <time>2018-08-09T07:20:38Z</time>
      </trkpt>
      <trkpt lat="44.11337" lon="6.30208">
        <ele>948.3</ele>
        <time>2018-08-09T07:20:41Z</time>
      </trkpt>
      <trkpt lat="44.11335" lon="6.30209">
        <ele>948.7</ele>
        <time>2018-08-09T07:20:42Z</time>
      </trkpt>
      <trkpt lat="44.11332" lon="6.3021">
        <ele>949.1</ele>
        <time>2018-08-09T07:20:44Z</time>
      </trkpt>
      <trkpt lat="44.11328" lon="6.30212">
        <ele>949.6</ele>
        <time>2018-08-09T07:20:46Z</time>
      </trkpt>
      <trkpt lat="44.11325" lon="6.30214">
        <ele>950</ele>
        <time>2018-08-09T07:20:48Z</time>
      </trkpt>
      <trkpt lat="44.11322" lon="6.30216">
        <ele>950.3</ele>
        <time>2018-08-09T07:20:51Z</time>
      </trkpt>
      <trkpt lat="44.11317" lon="6.30217">
        <ele>950.6</ele>
        <time>2018-08-09T07:20:54Z</time>
      </trkpt>
      <trkpt lat="44.11315" lon="6.30219">
        <ele>950.7</ele>
        <time>2018-08-09T07:20:55Z</time>
      </trkpt>
      <trkpt lat="44.11311" lon="6.30219">
        <ele>950.9</ele>
        <time>2018-08-09T07:20:57Z</time>
      </trkpt>
      <trkpt lat="44.11306" lon="6.3022">
        <ele>951.1</ele>
        <time>2018-08-09T07:20:59Z</time>
      </trkpt>
      <trkpt lat="44.11302" lon="6.3022">
        <ele>951.3</ele>
        <time>2018-08-09T07:21:01Z</time>
      </trkpt>
      <trkpt lat="44.11298" lon="6.3022">
        <ele>951.7</ele>
        <time>2018-08-09T07:21:03Z</time>
      </trkpt>
      <trkpt lat="44.11295" lon="6.30221">
        <ele>951.9</ele>
        <time>2018-08-09T07:21:06Z</time>
      </trkpt>
      <trkpt lat="44.11292" lon="6.30221">
        <ele>952.1</ele>
        <time>2018-08-09T07:21:09Z</time>
      </trkpt>
      <trkpt lat="44.11289" lon="6.30223">
        <ele>952.4</ele>
        <time>2018-08-09T07:21:12Z</time>
      </trkpt>
      <trkpt lat="44.11286" lon="6.30225">
        <ele>952.5</ele>
        <time>2018-08-09T07:21:14Z</time>
      </trkpt>
      <trkpt lat="44.11283" lon="6.30225">
        <ele>952.7</ele>
        <time>2018-08-09T07:21:16Z</time>
      </trkpt>
      <trkpt lat="44.1128" lon="6.30228">
        <ele>952.7</ele>
        <time>2018-08-09T07:21:28Z</time>
      </trkpt>
      <trkpt lat="44.11277" lon="6.30228">
        <ele>952.8</ele>
        <time>2018-08-09T07:21:32Z</time>
      </trkpt>
      <trkpt lat="44.1128" lon="6.30227">
        <ele>952.8</ele>
        <time>2018-08-09T07:22:00Z</time>
      </trkpt>
      <trkpt lat="44.11278" lon="6.30229">
        <ele>952.9</ele>
        <time>2018-08-09T07:22:14Z</time>
      </trkpt>
      <trkpt lat="44.11281" lon="6.30228">
        <ele>952.9</ele>
        <time>2018-08-09T07:22:59Z</time>
      </trkpt>
      <trkpt lat="44.11284" lon="6.30228">
        <ele>953</ele>
        <time>2018-08-09T07:23:06Z</time>
      </trkpt>
      <trkpt lat="44.11284" lon="6.30233">
        <ele>953</ele>
        <time>2018-08-09T07:27:51Z</time>
      </trkpt>
      <trkpt lat="44.11281" lon="6.30233">
        <ele>953</ele>
        <time>2018-08-09T07:28:09Z</time>
      </trkpt>
      <trkpt lat="44.11279" lon="6.3023">
        <ele>953</ele>
        <time>2018-08-09T07:29:25Z</time>
      </trkpt>
      <trkpt lat="44.11276" lon="6.30231">
        <ele>953</ele>
        <time>2018-08-09T07:29:32Z</time>
      </trkpt>
      <trkpt lat="44.11273" lon="6.30232">
        <ele>953</ele>
        <time>2018-08-09T07:29:53Z</time>
      </trkpt>
      <trkpt lat="44.1127" lon="6.30235">
        <ele>953</ele>
        <time>2018-08-09T07:29:59Z</time>
      </trkpt>
      <trkpt lat="44.11273" lon="6.3023">
        <ele>953</ele>
        <time>2018-08-09T07:30:29Z</time>
      </trkpt>
      <trkpt lat="44.11276" lon="6.30229">
        <ele>952.9</ele>
        <time>2018-08-09T07:30:34Z</time>
      </trkpt>
      <trkpt lat="44.11279" lon="6.30228">
        <ele>952.8</ele>
        <time>2018-08-09T07:30:38Z</time>
      </trkpt>
      <trkpt lat="44.11281" lon="6.30226">
        <ele>952.7</ele>
        <time>2018-08-09T07:30:41Z</time>
      </trkpt>
      <trkpt lat="44.11279" lon="6.30227">
        <ele>952.5</ele>
        <time>2018-08-09T07:31:05Z</time>
      </trkpt>
      <trkpt lat="44.11274" lon="6.30229">
        <ele>951.6</ele>
        <time>2018-08-09T07:33:10Z</time>
      </trkpt>
      <trkpt lat="44.11271" lon="6.30233">
        <ele>951.1</ele>
        <time>2018-08-09T07:33:12Z</time>
      </trkpt>
      <trkpt lat="44.11268" lon="6.30236">
        <ele>950.2</ele>
        <time>2018-08-09T07:33:14Z</time>
      </trkpt>
      <trkpt lat="44.11267" lon="6.3024">
        <ele>949.5</ele>
        <time>2018-08-09T07:33:15Z</time>
      </trkpt>
      <trkpt lat="44.11265" lon="6.30243">
        <ele>949.1</ele>
        <time>2018-08-09T07:33:16Z</time>
      </trkpt>
      <trkpt lat="44.11263" lon="6.30246">
        <ele>948.5</ele>
        <time>2018-08-09T07:33:17Z</time>
      </trkpt>
      <trkpt lat="44.1126" lon="6.30251">
        <ele>947.2</ele>
        <time>2018-08-09T07:33:19Z</time>
      </trkpt>
      <trkpt lat="44.11258" lon="6.30255">
        <ele>946.7</ele>
        <time>2018-08-09T07:33:20Z</time>
      </trkpt>
      <trkpt lat="44.11257" lon="6.30259">
        <ele>945.8</ele>
        <time>2018-08-09T07:33:21Z</time>
      </trkpt>
      <trkpt lat="44.11255" lon="6.30262">
        <ele>945.1</ele>
        <time>2018-08-09T07:33:22Z</time>
      </trkpt>
      <trkpt lat="44.11254" lon="6.30266">
        <ele>944.5</ele>
        <time>2018-08-09T07:33:23Z</time>
      </trkpt>
      <trkpt lat="44.11252" lon="6.30273">
        <ele>943.2</ele>
        <time>2018-08-09T07:33:25Z</time>
      </trkpt>
      <trkpt lat="44.1125" lon="6.30276">
        <ele>942.8</ele>
        <time>2018-08-09T07:33:26Z</time>
      </trkpt>
      <trkpt lat="44.11249" lon="6.30279">
        <ele>941.8</ele>
        <time>2018-08-09T07:33:27Z</time>
      </trkpt>
      <trkpt lat="44.11246" lon="6.30284">
        <ele>940.9</ele>
        <time>2018-08-09T07:33:29Z</time>
      </trkpt>
      <trkpt lat="44.11246" lon="6.30288">
        <ele>940.3</ele>
        <time>2018-08-09T07:33:30Z</time>
      </trkpt>
      <trkpt lat="44.11245" lon="6.30292">
        <ele>939.4</ele>
        <time>2018-08-09T07:33:32Z</time>
      </trkpt>
      <trkpt lat="44.11244" lon="6.30297">
        <ele>938.9</ele>
        <time>2018-08-09T07:33:34Z</time>
      </trkpt>
      <trkpt lat="44.11243" lon="6.30302">
        <ele>938.2</ele>
        <time>2018-08-09T07:33:36Z</time>
      </trkpt>
      <trkpt lat="44.11243" lon="6.30309">
        <ele>936.9</ele>
        <time>2018-08-09T07:33:38Z</time>
      </trkpt>
      <trkpt lat="44.11243" lon="6.30314">
        <ele>936.4</ele>
        <time>2018-08-09T07:33:40Z</time>
      </trkpt>
      <trkpt lat="44.11244" lon="6.30318">
        <ele>935.4</ele>
        <time>2018-08-09T07:33:49Z</time>
      </trkpt>
      <trkpt lat="44.11244" lon="6.30322">
        <ele>935</ele>
        <time>2018-08-09T07:33:52Z</time>
      </trkpt>
      <trkpt lat="44.11247" lon="6.30327">
        <ele>934.5</ele>
        <time>2018-08-09T07:33:55Z</time>
      </trkpt>
      <trkpt lat="44.11248" lon="6.3033">
        <ele>933.9</ele>
        <time>2018-08-09T07:33:57Z</time>
      </trkpt>
      <trkpt lat="44.1125" lon="6.30337">
        <ele>933.1</ele>
        <time>2018-08-09T07:33:59Z</time>
      </trkpt>
      <trkpt lat="44.11252" lon="6.3034">
        <ele>932.9</ele>
        <time>2018-08-09T07:34:00Z</time>
      </trkpt>
      <trkpt lat="44.11253" lon="6.30344">
        <ele>932.6</ele>
        <time>2018-08-09T07:34:01Z</time>
      </trkpt>
      <trkpt lat="44.11256" lon="6.30351">
        <ele>931.7</ele>
        <time>2018-08-09T07:34:03Z</time>
      </trkpt>
      <trkpt lat="44.11257" lon="6.30357">
        <ele>931.2</ele>
        <time>2018-08-09T07:34:05Z</time>
      </trkpt>
      <trkpt lat="44.11255" lon="6.30362">
        <ele>931.3</ele>
        <time>2018-08-09T07:34:07Z</time>
      </trkpt>
      <trkpt lat="44.11252" lon="6.30358">
        <ele>931.6</ele>
        <time>2018-08-09T07:34:13Z</time>
      </trkpt>
      <trkpt lat="44.11249" lon="6.30355">
        <ele>932.2</ele>
        <time>2018-08-09T07:34:15Z</time>
      </trkpt>
      <trkpt lat="44.11245" lon="6.30353">
        <ele>932.8</ele>
        <time>2018-08-09T07:34:17Z</time>
      </trkpt>
      <trkpt lat="44.11241" lon="6.30355">
        <ele>933.2</ele>
        <time>2018-08-09T07:34:22Z</time>
      </trkpt>
      <trkpt lat="44.11239" lon="6.30355">
        <ele>933.6</ele>
        <time>2018-08-09T07:34:24Z</time>
      </trkpt>
      <trkpt lat="44.11235" lon="6.30353">
        <ele>934</ele>
        <time>2018-08-09T07:34:26Z</time>
      </trkpt>
      <trkpt lat="44.11232" lon="6.30353">
        <ele>934.5</ele>
        <time>2018-08-09T07:34:29Z</time>
      </trkpt>
      <trkpt lat="44.11228" lon="6.30353">
        <ele>935</ele>
        <time>2018-08-09T07:34:31Z</time>
      </trkpt>
      <trkpt lat="44.11226" lon="6.30355">
        <ele>935.4</ele>
        <time>2018-08-09T07:34:34Z</time>
      </trkpt>
      <trkpt lat="44.11222" lon="6.30356">
        <ele>935.9</ele>
        <time>2018-08-09T07:34:38Z</time>
      </trkpt>
      <trkpt lat="44.11218" lon="6.30357">
        <ele>936.3</ele>
        <time>2018-08-09T07:34:41Z</time>
      </trkpt>
      <trkpt lat="44.11216" lon="6.30355">
        <ele>936.7</ele>
        <time>2018-08-09T07:34:43Z</time>
      </trkpt>
      <trkpt lat="44.11213" lon="6.30355">
        <ele>937</ele>
        <time>2018-08-09T07:34:45Z</time>
      </trkpt>
      <trkpt lat="44.11212" lon="6.30359">
        <ele>937.4</ele>
        <time>2018-08-09T07:34:48Z</time>
      </trkpt>
      <trkpt lat="44.11207" lon="6.30358">
        <ele>937.9</ele>
        <time>2018-08-09T07:34:53Z</time>
      </trkpt>
      <trkpt lat="44.11203" lon="6.3036">
        <ele>938.5</ele>
        <time>2018-08-09T07:34:59Z</time>
      </trkpt>
      <trkpt lat="44.11199" lon="6.30359">
        <ele>938.9</ele>
        <time>2018-08-09T07:35:02Z</time>
      </trkpt>
      <trkpt lat="44.11196" lon="6.30356">
        <ele>939.3</ele>
        <time>2018-08-09T07:35:05Z</time>
      </trkpt>
      <trkpt lat="44.11193" lon="6.30354">
        <ele>939.7</ele>
        <time>2018-08-09T07:35:07Z</time>
      </trkpt>
      <trkpt lat="44.11189" lon="6.30352">
        <ele>940.2</ele>
        <time>2018-08-09T07:35:10Z</time>
      </trkpt>
      <trkpt lat="44.11186" lon="6.30352">
        <ele>940.5</ele>
        <time>2018-08-09T07:35:13Z</time>
      </trkpt>
      <trkpt lat="44.11183" lon="6.30352">
        <ele>940.9</ele>
        <time>2018-08-09T07:35:16Z</time>
      </trkpt>
      <trkpt lat="44.11181" lon="6.30355">
        <ele>941.2</ele>
        <time>2018-08-09T07:35:20Z</time>
      </trkpt>
      <trkpt lat="44.11179" lon="6.30354">
        <ele>941.5</ele>
        <time>2018-08-09T07:35:22Z</time>
      </trkpt>
      <trkpt lat="44.11176" lon="6.30352">
        <ele>941.9</ele>
        <time>2018-08-09T07:35:25Z</time>
      </trkpt>
      <trkpt lat="44.11173" lon="6.30354">
        <ele>942.3</ele>
        <time>2018-08-09T07:35:30Z</time>
      </trkpt>
      <trkpt lat="44.1117" lon="6.30353">
        <ele>942.8</ele>
        <time>2018-08-09T07:35:33Z</time>
      </trkpt>
      <trkpt lat="44.11167" lon="6.30355">
        <ele>943.2</ele>
        <time>2018-08-09T07:35:38Z</time>
      </trkpt>
      <trkpt lat="44.11163" lon="6.30354">
        <ele>943.8</ele>
        <time>2018-08-09T07:35:43Z</time>
      </trkpt>
      <trkpt lat="44.11161" lon="6.30355">
        <ele>944.2</ele>
        <time>2018-08-09T07:35:45Z</time>
      </trkpt>
      <trkpt lat="44.11158" lon="6.30354">
        <ele>944.7</ele>
        <time>2018-08-09T07:35:51Z</time>
      </trkpt>
      <trkpt lat="44.11155" lon="6.30354">
        <ele>945.2</ele>
        <time>2018-08-09T07:35:58Z</time>
      </trkpt>
      <trkpt lat="44.11152" lon="6.30353">
        <ele>945.8</ele>
        <time>2018-08-09T07:36:07Z</time>
      </trkpt>
      <trkpt lat="44.11149" lon="6.30353">
        <ele>946.3</ele>
        <time>2018-08-09T07:36:11Z</time>
      </trkpt>
      <trkpt lat="44.11145" lon="6.30353">
        <ele>946.9</ele>
        <time>2018-08-09T07:36:13Z</time>
      </trkpt>
      <trkpt lat="44.11143" lon="6.30353">
        <ele>947.4</ele>
        <time>2018-08-09T07:36:15Z</time>
      </trkpt>
      <trkpt lat="44.1114" lon="6.30353">
        <ele>947.9</ele>
        <time>2018-08-09T07:36:19Z</time>
      </trkpt>
      <trkpt lat="44.11136" lon="6.30351">
        <ele>948.7</ele>
        <time>2018-08-09T07:36:22Z</time>
      </trkpt>
      <trkpt lat="44.11132" lon="6.3035">
        <ele>949.4</ele>
        <time>2018-08-09T07:36:27Z</time>
      </trkpt>
      <trkpt lat="44.1113" lon="6.3035">
        <ele>949.9</ele>
        <time>2018-08-09T07:36:33Z</time>
      </trkpt>
      <trkpt lat="44.11127" lon="6.30348">
        <ele>950.5</ele>
        <time>2018-08-09T07:36:39Z</time>
      </trkpt>
      <trkpt lat="44.11122" lon="6.30348">
        <ele>951.5</ele>
        <time>2018-08-09T07:36:41Z</time>
      </trkpt>
      <trkpt lat="44.11119" lon="6.30347">
        <ele>952.3</ele>
        <time>2018-08-09T07:36:46Z</time>
      </trkpt>
      <trkpt lat="44.11116" lon="6.30344">
        <ele>952.9</ele>
        <time>2018-08-09T07:36:49Z</time>
      </trkpt>
      <trkpt lat="44.11115" lon="6.30348">
        <ele>953.9</ele>
        <time>2018-08-09T07:36:56Z</time>
      </trkpt>
      <trkpt lat="44.11113" lon="6.30351">
        <ele>955</ele>
        <time>2018-08-09T07:37:07Z</time>
      </trkpt>
      <trkpt lat="44.11109" lon="6.30351">
        <ele>956.1</ele>
        <time>2018-08-09T07:37:11Z</time>
      </trkpt>
      <trkpt lat="44.11108" lon="6.30355">
        <ele>956.8</ele>
        <time>2018-08-09T07:37:14Z</time>
      </trkpt>
      <trkpt lat="44.11107" lon="6.3036">
        <ele>957.8</ele>
        <time>2018-08-09T07:37:17Z</time>
      </trkpt>
      <trkpt lat="44.11107" lon="6.30364">
        <ele>958.8</ele>
        <time>2018-08-09T07:37:20Z</time>
      </trkpt>
      <trkpt lat="44.11107" lon="6.30368">
        <ele>959.5</ele>
        <time>2018-08-09T07:37:23Z</time>
      </trkpt>
      <trkpt lat="44.11109" lon="6.30372">
        <ele>960.2</ele>
        <time>2018-08-09T07:37:26Z</time>
      </trkpt>
      <trkpt lat="44.11111" lon="6.30375">
        <ele>960.7</ele>
        <time>2018-08-09T07:37:29Z</time>
      </trkpt>
      <trkpt lat="44.11115" lon="6.30376">
        <ele>961.2</ele>
        <time>2018-08-09T07:37:38Z</time>
      </trkpt>
      <trkpt lat="44.11117" lon="6.30379">
        <ele>961.6</ele>
        <time>2018-08-09T07:37:41Z</time>
      </trkpt>
      <trkpt lat="44.1112" lon="6.30384">
        <ele>962</ele>
        <time>2018-08-09T07:37:44Z</time>
      </trkpt>
      <trkpt lat="44.11123" lon="6.30386">
        <ele>962.2</ele>
        <time>2018-08-09T07:37:46Z</time>
      </trkpt>
      <trkpt lat="44.11124" lon="6.3039">
        <ele>962.3</ele>
        <time>2018-08-09T07:37:49Z</time>
      </trkpt>
      <trkpt lat="44.11126" lon="6.30393">
        <ele>962.4</ele>
        <time>2018-08-09T07:37:51Z</time>
      </trkpt>
      <trkpt lat="44.11129" lon="6.30395">
        <ele>962.6</ele>
        <time>2018-08-09T07:37:53Z</time>
      </trkpt>
      <trkpt lat="44.11132" lon="6.30397">
        <ele>962.8</ele>
        <time>2018-08-09T07:37:55Z</time>
      </trkpt>
      <trkpt lat="44.11134" lon="6.30402">
        <ele>963.1</ele>
        <time>2018-08-09T07:37:58Z</time>
      </trkpt>
      <trkpt lat="44.11136" lon="6.30407">
        <ele>963.5</ele>
        <time>2018-08-09T07:38:00Z</time>
      </trkpt>
      <trkpt lat="44.11139" lon="6.30409">
        <ele>963.7</ele>
        <time>2018-08-09T07:38:02Z</time>
      </trkpt>
      <trkpt lat="44.11141" lon="6.30412">
        <ele>963.9</ele>
        <time>2018-08-09T07:38:06Z</time>
      </trkpt>
      <trkpt lat="44.11144" lon="6.30415">
        <ele>964.2</ele>
        <time>2018-08-09T07:38:09Z</time>
      </trkpt>
      <trkpt lat="44.11146" lon="6.30416">
        <ele>964.4</ele>
        <time>2018-08-09T07:38:11Z</time>
      </trkpt>
      <trkpt lat="44.11148" lon="6.3042">
        <ele>964.5</ele>
        <time>2018-08-09T07:38:14Z</time>
      </trkpt>
      <trkpt lat="44.1115" lon="6.30423">
        <ele>964.6</ele>
        <time>2018-08-09T07:38:16Z</time>
      </trkpt>
      <trkpt lat="44.11152" lon="6.30426">
        <ele>964.7</ele>
        <time>2018-08-09T07:38:19Z</time>
      </trkpt>
      <trkpt lat="44.11155" lon="6.30427">
        <ele>964.8</ele>
        <time>2018-08-09T07:38:21Z</time>
      </trkpt>
      <trkpt lat="44.11158" lon="6.3043">
        <ele>964.9</ele>
        <time>2018-08-09T07:38:24Z</time>
      </trkpt>
      <trkpt lat="44.1116" lon="6.30433">
        <ele>965</ele>
        <time>2018-08-09T07:38:26Z</time>
      </trkpt>
      <trkpt lat="44.1116" lon="6.30439">
        <ele>965</ele>
        <time>2018-08-09T07:38:34Z</time>
      </trkpt>
      <trkpt lat="44.11163" lon="6.30443">
        <ele>965</ele>
        <time>2018-08-09T07:38:37Z</time>
      </trkpt>
      <trkpt lat="44.11165" lon="6.30447">
        <ele>965</ele>
        <time>2018-08-09T07:38:39Z</time>
      </trkpt>
      <trkpt lat="44.11167" lon="6.30452">
        <ele>964.9</ele>
        <time>2018-08-09T07:38:41Z</time>
      </trkpt>
      <trkpt lat="44.1117" lon="6.30456">
        <ele>964.8</ele>
        <time>2018-08-09T07:38:43Z</time>
      </trkpt>
      <trkpt lat="44.11172" lon="6.30461">
        <ele>964.5</ele>
        <time>2018-08-09T07:38:45Z</time>
      </trkpt>
      <trkpt lat="44.11174" lon="6.30466">
        <ele>964</ele>
        <time>2018-08-09T07:38:47Z</time>
      </trkpt>
      <trkpt lat="44.11177" lon="6.30471">
        <ele>963.7</ele>
        <time>2018-08-09T07:38:49Z</time>
      </trkpt>
      <trkpt lat="44.11181" lon="6.30475">
        <ele>963.4</ele>
        <time>2018-08-09T07:38:51Z</time>
      </trkpt>
      <trkpt lat="44.11183" lon="6.3048">
        <ele>963.3</ele>
        <time>2018-08-09T07:38:53Z</time>
      </trkpt>
      <trkpt lat="44.11184" lon="6.30485">
        <ele>963</ele>
        <time>2018-08-09T07:38:55Z</time>
      </trkpt>
      <trkpt lat="44.11188" lon="6.30491">
        <ele>963.6</ele>
        <time>2018-08-09T07:38:57Z</time>
      </trkpt>
      <trkpt lat="44.1119" lon="6.30494">
        <ele>964</ele>
        <time>2018-08-09T07:38:58Z</time>
      </trkpt>
      <trkpt lat="44.11192" lon="6.30497">
        <ele>964.3</ele>
        <time>2018-08-09T07:38:59Z</time>
      </trkpt>
      <trkpt lat="44.11196" lon="6.30501">
        <ele>964.7</ele>
        <time>2018-08-09T07:39:00Z</time>
      </trkpt>
      <trkpt lat="44.11198" lon="6.30503">
        <ele>965</ele>
        <time>2018-08-09T07:39:01Z</time>
      </trkpt>
      <trkpt lat="44.11202" lon="6.30508">
        <ele>965.7</ele>
        <time>2018-08-09T07:39:03Z</time>
      </trkpt>
      <trkpt lat="44.11203" lon="6.30511">
        <ele>966</ele>
        <time>2018-08-09T07:39:04Z</time>
      </trkpt>
      <trkpt lat="44.11206" lon="6.30514">
        <ele>966.1</ele>
        <time>2018-08-09T07:39:06Z</time>
      </trkpt>
      <trkpt lat="44.11208" lon="6.3052">
        <ele>966.2</ele>
        <time>2018-08-09T07:39:08Z</time>
      </trkpt>
      <trkpt lat="44.11209" lon="6.30524">
        <ele>966.2</ele>
        <time>2018-08-09T07:39:09Z</time>
      </trkpt>
      <trkpt lat="44.1121" lon="6.30529">
        <ele>966.2</ele>
        <time>2018-08-09T07:39:10Z</time>
      </trkpt>
      <trkpt lat="44.11212" lon="6.30535">
        <ele>966.2</ele>
        <time>2018-08-09T07:39:11Z</time>
      </trkpt>
      <trkpt lat="44.11215" lon="6.3054">
        <ele>966.2</ele>
        <time>2018-08-09T07:39:12Z</time>
      </trkpt>
      <trkpt lat="44.11219" lon="6.30545">
        <ele>966.2</ele>
        <time>2018-08-09T07:39:13Z</time>
      </trkpt>
      <trkpt lat="44.11221" lon="6.30551">
        <ele>966.2</ele>
        <time>2018-08-09T07:39:14Z</time>
      </trkpt>
      <trkpt lat="44.11224" lon="6.30554">
        <ele>966.2</ele>
        <time>2018-08-09T07:39:15Z</time>
      </trkpt>
      <trkpt lat="44.11227" lon="6.30557">
        <ele>966.2</ele>
        <time>2018-08-09T07:39:16Z</time>
      </trkpt>
      <trkpt lat="44.11231" lon="6.30558">
        <ele>966.2</ele>
        <time>2018-08-09T07:39:18Z</time>
      </trkpt>
      <trkpt lat="44.11235" lon="6.3056">
        <ele>966.2</ele>
        <time>2018-08-09T07:39:20Z</time>
      </trkpt>
      <trkpt lat="44.11238" lon="6.30564">
        <ele>966.2</ele>
        <time>2018-08-09T07:39:22Z</time>
      </trkpt>
      <trkpt lat="44.11241" lon="6.30569">
        <ele>966.2</ele>
        <time>2018-08-09T07:39:24Z</time>
      </trkpt>
      <trkpt lat="44.11243" lon="6.30572">
        <ele>966.2</ele>
        <time>2018-08-09T07:39:25Z</time>
      </trkpt>
      <trkpt lat="44.11247" lon="6.30575">
        <ele>966.2</ele>
        <time>2018-08-09T07:39:27Z</time>
      </trkpt>
      <trkpt lat="44.11251" lon="6.3058">
        <ele>966.2</ele>
        <time>2018-08-09T07:39:29Z</time>
      </trkpt>
      <trkpt lat="44.11254" lon="6.30585">
        <ele>966.3</ele>
        <time>2018-08-09T07:39:31Z</time>
      </trkpt>
      <trkpt lat="44.11257" lon="6.30589">
        <ele>966.3</ele>
        <time>2018-08-09T07:39:33Z</time>
      </trkpt>
      <trkpt lat="44.11261" lon="6.30594">
        <ele>966.3</ele>
        <time>2018-08-09T07:39:35Z</time>
      </trkpt>
      <trkpt lat="44.11264" lon="6.30597">
        <ele>966.3</ele>
        <time>2018-08-09T07:39:36Z</time>
      </trkpt>
      <trkpt lat="44.11267" lon="6.306">
        <ele>966.4</ele>
        <time>2018-08-09T07:39:37Z</time>
      </trkpt>
      <trkpt lat="44.11271" lon="6.30603">
        <ele>966.4</ele>
        <time>2018-08-09T07:39:39Z</time>
      </trkpt>
      <trkpt lat="44.11275" lon="6.30608">
        <ele>966.5</ele>
        <time>2018-08-09T07:39:41Z</time>
      </trkpt>
      <trkpt lat="44.11277" lon="6.30611">
        <ele>966.5</ele>
        <time>2018-08-09T07:39:43Z</time>
      </trkpt>
      <trkpt lat="44.11279" lon="6.30614">
        <ele>966.5</ele>
        <time>2018-08-09T07:39:44Z</time>
      </trkpt>
      <trkpt lat="44.11281" lon="6.30616">
        <ele>966.5</ele>
        <time>2018-08-09T07:39:45Z</time>
      </trkpt>
      <trkpt lat="44.11284" lon="6.3062">
        <ele>966.4</ele>
        <time>2018-08-09T07:39:47Z</time>
      </trkpt>
      <trkpt lat="44.11287" lon="6.30626">
        <ele>966.4</ele>
        <time>2018-08-09T07:39:49Z</time>
      </trkpt>
      <trkpt lat="44.11289" lon="6.30629">
        <ele>966.4</ele>
        <time>2018-08-09T07:39:50Z</time>
      </trkpt>
      <trkpt lat="44.11291" lon="6.30632">
        <ele>966.4</ele>
        <time>2018-08-09T07:39:51Z</time>
      </trkpt>
      <trkpt lat="44.11293" lon="6.30636">
        <ele>966.3</ele>
        <time>2018-08-09T07:39:52Z</time>
      </trkpt>
      <trkpt lat="44.11297" lon="6.3064">
        <ele>966.3</ele>
        <time>2018-08-09T07:39:54Z</time>
      </trkpt>
      <trkpt lat="44.11301" lon="6.30642">
        <ele>966.3</ele>
        <time>2018-08-09T07:39:56Z</time>
      </trkpt>
      <trkpt lat="44.11304" lon="6.30645">
        <ele>966.2</ele>
        <time>2018-08-09T07:39:58Z</time>
      </trkpt>
      <trkpt lat="44.11306" lon="6.30648">
        <ele>966.2</ele>
        <time>2018-08-09T07:40:00Z</time>
      </trkpt>
      <trkpt lat="44.1131" lon="6.30652">
        <ele>966.2</ele>
        <time>2018-08-09T07:40:02Z</time>
      </trkpt>
      <trkpt lat="44.11312" lon="6.30656">
        <ele>966.2</ele>
        <time>2018-08-09T07:40:03Z</time>
      </trkpt>
      <trkpt lat="44.11315" lon="6.30659">
        <ele>966.2</ele>
        <time>2018-08-09T07:40:04Z</time>
      </trkpt>
      <trkpt lat="44.11318" lon="6.30662">
        <ele>966.2</ele>
        <time>2018-08-09T07:40:05Z</time>
      </trkpt>
      <trkpt lat="44.11322" lon="6.30664">
        <ele>966.2</ele>
        <time>2018-08-09T07:40:06Z</time>
      </trkpt>
      <trkpt lat="44.11326" lon="6.30668">
        <ele>966.2</ele>
        <time>2018-08-09T07:40:07Z</time>
      </trkpt>
      <trkpt lat="44.1133" lon="6.30673">
        <ele>966.2</ele>
        <time>2018-08-09T07:40:08Z</time>
      </trkpt>
      <trkpt lat="44.11333" lon="6.30676">
        <ele>966.2</ele>
        <time>2018-08-09T07:40:09Z</time>
      </trkpt>
      <trkpt lat="44.11337" lon="6.3068">
        <ele>966.2</ele>
        <time>2018-08-09T07:40:10Z</time>
      </trkpt>
      <trkpt lat="44.1134" lon="6.30684">
        <ele>966.1</ele>
        <time>2018-08-09T07:40:11Z</time>
      </trkpt>
      <trkpt lat="44.11343" lon="6.30688">
        <ele>965.9</ele>
        <time>2018-08-09T07:40:12Z</time>
      </trkpt>
      <trkpt lat="44.11345" lon="6.30691">
        <ele>965.8</ele>
        <time>2018-08-09T07:40:13Z</time>
      </trkpt>
      <trkpt lat="44.11348" lon="6.30697">
        <ele>965.4</ele>
        <time>2018-08-09T07:40:15Z</time>
      </trkpt>
      <trkpt lat="44.11348" lon="6.30702">
        <ele>964.8</ele>
        <time>2018-08-09T07:40:16Z</time>
      </trkpt>
      <trkpt lat="44.11346" lon="6.30705">
        <ele>963.6</ele>
        <time>2018-08-09T07:40:17Z</time>
      </trkpt>
      <trkpt lat="44.11343" lon="6.30709">
        <ele>962.3</ele>
        <time>2018-08-09T07:40:18Z</time>
      </trkpt>
      <trkpt lat="44.11341" lon="6.30714">
        <ele>961.4</ele>
        <time>2018-08-09T07:40:19Z</time>
      </trkpt>
      <trkpt lat="44.11339" lon="6.30718">
        <ele>960.6</ele>
        <time>2018-08-09T07:40:20Z</time>
      </trkpt>
      <trkpt lat="44.11339" lon="6.30724">
        <ele>959.6</ele>
        <time>2018-08-09T07:40:21Z</time>
      </trkpt>
      <trkpt lat="44.11339" lon="6.30729">
        <ele>958.6</ele>
        <time>2018-08-09T07:40:22Z</time>
      </trkpt>
      <trkpt lat="44.1134" lon="6.30733">
        <ele>957.6</ele>
        <time>2018-08-09T07:40:23Z</time>
      </trkpt>
      <trkpt lat="44.11342" lon="6.30738">
        <ele>956.1</ele>
        <time>2018-08-09T07:40:25Z</time>
      </trkpt>
      <trkpt lat="44.11344" lon="6.30742">
        <ele>955.1</ele>
        <time>2018-08-09T07:40:26Z</time>
      </trkpt>
      <trkpt lat="44.11345" lon="6.30745">
        <ele>954.4</ele>
        <time>2018-08-09T07:40:27Z</time>
      </trkpt>
      <trkpt lat="44.11346" lon="6.3075">
        <ele>953.8</ele>
        <time>2018-08-09T07:40:28Z</time>
      </trkpt>
      <trkpt lat="44.11346" lon="6.30754">
        <ele>953.5</ele>
        <time>2018-08-09T07:40:29Z</time>
      </trkpt>
      <trkpt lat="44.11348" lon="6.30761">
        <ele>952.4</ele>
        <time>2018-08-09T07:40:31Z</time>
      </trkpt>
      <trkpt lat="44.1135" lon="6.30766">
        <ele>951.6</ele>
        <time>2018-08-09T07:40:32Z</time>
      </trkpt>
      <trkpt lat="44.11352" lon="6.30771">
        <ele>951</ele>
        <time>2018-08-09T07:40:33Z</time>
      </trkpt>
      <trkpt lat="44.11354" lon="6.30777">
        <ele>950.6</ele>
        <time>2018-08-09T07:40:34Z</time>
      </trkpt>
      <trkpt lat="44.11355" lon="6.30783">
        <ele>950.1</ele>
        <time>2018-08-09T07:40:35Z</time>
      </trkpt>
      <trkpt lat="44.11357" lon="6.30788">
        <ele>949.5</ele>
        <time>2018-08-09T07:40:36Z</time>
      </trkpt>
      <trkpt lat="44.11359" lon="6.30793">
        <ele>949</ele>
        <time>2018-08-09T07:40:37Z</time>
      </trkpt>
      <trkpt lat="44.11361" lon="6.30798">
        <ele>948.9</ele>
        <time>2018-08-09T07:40:38Z</time>
      </trkpt>
      <trkpt lat="44.11365" lon="6.30803">
        <ele>948.9</ele>
        <time>2018-08-09T07:40:39Z</time>
      </trkpt>
      <trkpt lat="44.11369" lon="6.30807">
        <ele>948.9</ele>
        <time>2018-08-09T07:40:40Z</time>
      </trkpt>
      <trkpt lat="44.11372" lon="6.3081">
        <ele>949</ele>
        <time>2018-08-09T07:40:41Z</time>
      </trkpt>
      <trkpt lat="44.11374" lon="6.30814">
        <ele>949.1</ele>
        <time>2018-08-09T07:40:42Z</time>
      </trkpt>
      <trkpt lat="44.11378" lon="6.30817">
        <ele>949.2</ele>
        <time>2018-08-09T07:40:43Z</time>
      </trkpt>
      <trkpt lat="44.11381" lon="6.3082">
        <ele>949.2</ele>
        <time>2018-08-09T07:40:44Z</time>
      </trkpt>
      <trkpt lat="44.11384" lon="6.30822">
        <ele>949.3</ele>
        <time>2018-08-09T07:40:45Z</time>
      </trkpt>
      <trkpt lat="44.11387" lon="6.30826">
        <ele>949.3</ele>
        <time>2018-08-09T07:40:46Z</time>
      </trkpt>
      <trkpt lat="44.11391" lon="6.30828">
        <ele>949.3</ele>
        <time>2018-08-09T07:40:47Z</time>
      </trkpt>
      <trkpt lat="44.11396" lon="6.30832">
        <ele>949.3</ele>
        <time>2018-08-09T07:40:48Z</time>
      </trkpt>
      <trkpt lat="44.11401" lon="6.30834">
        <ele>949.3</ele>
        <time>2018-08-09T07:40:49Z</time>
      </trkpt>
      <trkpt lat="44.11405" lon="6.30836">
        <ele>949.4</ele>
        <time>2018-08-09T07:40:50Z</time>
      </trkpt>
      <trkpt lat="44.11408" lon="6.30838">
        <ele>949.7</ele>
        <time>2018-08-09T07:40:51Z</time>
      </trkpt>
      <trkpt lat="44.1141" lon="6.30842">
        <ele>950.1</ele>
        <time>2018-08-09T07:40:52Z</time>
      </trkpt>
      <trkpt lat="44.11416" lon="6.30844">
        <ele>950.7</ele>
        <time>2018-08-09T07:40:54Z</time>
      </trkpt>
      <trkpt lat="44.1142" lon="6.30844">
        <ele>950.9</ele>
        <time>2018-08-09T07:40:55Z</time>
      </trkpt>
      <trkpt lat="44.11425" lon="6.30843">
        <ele>951.1</ele>
        <time>2018-08-09T07:40:57Z</time>
      </trkpt>
      <trkpt lat="44.11429" lon="6.30843">
        <ele>951.3</ele>
        <time>2018-08-09T07:40:58Z</time>
      </trkpt>
      <trkpt lat="44.11432" lon="6.30844">
        <ele>951.5</ele>
        <time>2018-08-09T07:40:59Z</time>
      </trkpt>
      <trkpt lat="44.11435" lon="6.30845">
        <ele>951.6</ele>
        <time>2018-08-09T07:41:00Z</time>
      </trkpt>
      <trkpt lat="44.11439" lon="6.30844">
        <ele>951.9</ele>
        <time>2018-08-09T07:41:01Z</time>
      </trkpt>
      <trkpt lat="44.11443" lon="6.30844">
        <ele>952.1</ele>
        <time>2018-08-09T07:41:02Z</time>
      </trkpt>
      <trkpt lat="44.11446" lon="6.30845">
        <ele>952.2</ele>
        <time>2018-08-09T07:41:03Z</time>
      </trkpt>
      <trkpt lat="44.11452" lon="6.30845">
        <ele>953.1</ele>
        <time>2018-08-09T07:41:05Z</time>
      </trkpt>
      <trkpt lat="44.11455" lon="6.30844">
        <ele>953.5</ele>
        <time>2018-08-09T07:41:06Z</time>
      </trkpt>
      <trkpt lat="44.11458" lon="6.30844">
        <ele>953.7</ele>
        <time>2018-08-09T07:41:07Z</time>
      </trkpt>
      <trkpt lat="44.11462" lon="6.30844">
        <ele>953.9</ele>
        <time>2018-08-09T07:41:08Z</time>
      </trkpt>
      <trkpt lat="44.11465" lon="6.30843">
        <ele>954.2</ele>
        <time>2018-08-09T07:41:09Z</time>
      </trkpt>
      <trkpt lat="44.11468" lon="6.30844">
        <ele>954.4</ele>
        <time>2018-08-09T07:41:10Z</time>
      </trkpt>
      <trkpt lat="44.11471" lon="6.30845">
        <ele>954.4</ele>
        <time>2018-08-09T07:41:11Z</time>
      </trkpt>
      <trkpt lat="44.11474" lon="6.30846">
        <ele>954.5</ele>
        <time>2018-08-09T07:41:12Z</time>
      </trkpt>
      <trkpt lat="44.11477" lon="6.30846">
        <ele>954.5</ele>
        <time>2018-08-09T07:41:13Z</time>
      </trkpt>
      <trkpt lat="44.1148" lon="6.30846">
        <ele>954.5</ele>
        <time>2018-08-09T07:41:14Z</time>
      </trkpt>
      <trkpt lat="44.11483" lon="6.30846">
        <ele>954.3</ele>
        <time>2018-08-09T07:41:15Z</time>
      </trkpt>
      <trkpt lat="44.11486" lon="6.30847">
        <ele>954.1</ele>
        <time>2018-08-09T07:41:17Z</time>
      </trkpt>
      <trkpt lat="44.11488" lon="6.30851">
        <ele>953.8</ele>
        <time>2018-08-09T07:41:27Z</time>
      </trkpt>
      <trkpt lat="44.1149" lon="6.30854">
        <ele>953.5</ele>
        <time>2018-08-09T07:41:32Z</time>
      </trkpt>
      <trkpt lat="44.11488" lon="6.30857">
        <ele>952.9</ele>
        <time>2018-08-09T07:41:41Z</time>
      </trkpt>
      <trkpt lat="44.11486" lon="6.3086">
        <ele>952.5</ele>
        <time>2018-08-09T07:41:47Z</time>
      </trkpt>
      <trkpt lat="44.11484" lon="6.30863">
        <ele>952.1</ele>
        <time>2018-08-09T07:41:50Z</time>
      </trkpt>
      <trkpt lat="44.11482" lon="6.30863">
        <ele>951.7</ele>
        <time>2018-08-09T07:41:53Z</time>
      </trkpt>
      <trkpt lat="44.11479" lon="6.30864">
        <ele>951.1</ele>
        <time>2018-08-09T07:41:56Z</time>
      </trkpt>
      <trkpt lat="44.11476" lon="6.30866">
        <ele>950.5</ele>
        <time>2018-08-09T07:41:59Z</time>
      </trkpt>
      <trkpt lat="44.11473" lon="6.30865">
        <ele>949.8</ele>
        <time>2018-08-09T07:42:02Z</time>
      </trkpt>
      <trkpt lat="44.1147" lon="6.30867">
        <ele>948.7</ele>
        <time>2018-08-09T07:42:06Z</time>
      </trkpt>
      <trkpt lat="44.11468" lon="6.30869">
        <ele>948.1</ele>
        <time>2018-08-09T07:42:10Z</time>
      </trkpt>
      <trkpt lat="44.11465" lon="6.30871">
        <ele>947.6</ele>
        <time>2018-08-09T07:42:13Z</time>
      </trkpt>
      <trkpt lat="44.11462" lon="6.30874">
        <ele>946.8</ele>
        <time>2018-08-09T07:42:16Z</time>
      </trkpt>
      <trkpt lat="44.1146" lon="6.30876">
        <ele>946.3</ele>
        <time>2018-08-09T07:42:19Z</time>
      </trkpt>
      <trkpt lat="44.11457" lon="6.30879">
        <ele>945.8</ele>
        <time>2018-08-09T07:42:22Z</time>
      </trkpt>
      <trkpt lat="44.11455" lon="6.30881">
        <ele>945.3</ele>
        <time>2018-08-09T07:42:25Z</time>
      </trkpt>
      <trkpt lat="44.11453" lon="6.30884">
        <ele>944.6</ele>
        <time>2018-08-09T07:42:28Z</time>
      </trkpt>
      <trkpt lat="44.11451" lon="6.30888">
        <ele>943.8</ele>
        <time>2018-08-09T07:42:32Z</time>
      </trkpt>
      <trkpt lat="44.11449" lon="6.30891">
        <ele>943.2</ele>
        <time>2018-08-09T07:42:37Z</time>
      </trkpt>
      <trkpt lat="44.11449" lon="6.30905">
        <ele>939.9</ele>
        <time>2018-08-09T07:43:40Z</time>
      </trkpt>
      <trkpt lat="44.11447" lon="6.30908">
        <ele>939.1</ele>
        <time>2018-08-09T07:43:44Z</time>
      </trkpt>
      <trkpt lat="44.11445" lon="6.30912">
        <ele>938.3</ele>
        <time>2018-08-09T07:43:53Z</time>
      </trkpt>
      <trkpt lat="44.11444" lon="6.30916">
        <ele>937.6</ele>
        <time>2018-08-09T07:43:56Z</time>
      </trkpt>
      <trkpt lat="44.11446" lon="6.30921">
        <ele>936.5</ele>
        <time>2018-08-09T07:43:58Z</time>
      </trkpt>
      <trkpt lat="44.11449" lon="6.30924">
        <ele>935.6</ele>
        <time>2018-08-09T07:44:00Z</time>
      </trkpt>
      <trkpt lat="44.11451" lon="6.30928">
        <ele>935.1</ele>
        <time>2018-08-09T07:44:01Z</time>
      </trkpt>
      <trkpt lat="44.11451" lon="6.30933">
        <ele>934.4</ele>
        <time>2018-08-09T07:44:03Z</time>
      </trkpt>
      <trkpt lat="44.11454" lon="6.30938">
        <ele>933.3</ele>
        <time>2018-08-09T07:44:05Z</time>
      </trkpt>
      <trkpt lat="44.11458" lon="6.30942">
        <ele>932.5</ele>
        <time>2018-08-09T07:44:07Z</time>
      </trkpt>
      <trkpt lat="44.1146" lon="6.30949">
        <ele>931.8</ele>
        <time>2018-08-09T07:44:09Z</time>
      </trkpt>
      <trkpt lat="44.11462" lon="6.30952">
        <ele>931.7</ele>
        <time>2018-08-09T07:44:10Z</time>
      </trkpt>
      <trkpt lat="44.11465" lon="6.30955">
        <ele>931.6</ele>
        <time>2018-08-09T07:44:11Z</time>
      </trkpt>
      <trkpt lat="44.11468" lon="6.30958">
        <ele>931.4</ele>
        <time>2018-08-09T07:44:13Z</time>
      </trkpt>
      <trkpt lat="44.1147" lon="6.30961">
        <ele>931.4</ele>
        <time>2018-08-09T07:44:14Z</time>
      </trkpt>
      <trkpt lat="44.11473" lon="6.30965">
        <ele>931.2</ele>
        <time>2018-08-09T07:44:16Z</time>
      </trkpt>
      <trkpt lat="44.11476" lon="6.30971">
        <ele>931.1</ele>
        <time>2018-08-09T07:44:18Z</time>
      </trkpt>
      <trkpt lat="44.11478" lon="6.30974">
        <ele>931.1</ele>
        <time>2018-08-09T07:44:19Z</time>
      </trkpt>
      <trkpt lat="44.11478" lon="6.30979">
        <ele>931.1</ele>
        <time>2018-08-09T07:44:20Z</time>
      </trkpt>
      <trkpt lat="44.1148" lon="6.30983">
        <ele>931.2</ele>
        <time>2018-08-09T07:44:21Z</time>
      </trkpt>
      <trkpt lat="44.11484" lon="6.30988">
        <ele>931.2</ele>
        <time>2018-08-09T07:44:22Z</time>
      </trkpt>
      <trkpt lat="44.11486" lon="6.30992">
        <ele>931.4</ele>
        <time>2018-08-09T07:44:23Z</time>
      </trkpt>
      <trkpt lat="44.11488" lon="6.30996">
        <ele>931.6</ele>
        <time>2018-08-09T07:44:24Z</time>
      </trkpt>
      <trkpt lat="44.11491" lon="6.31">
        <ele>931.8</ele>
        <time>2018-08-09T07:44:25Z</time>
      </trkpt>
      <trkpt lat="44.11492" lon="6.31005">
        <ele>931.9</ele>
        <time>2018-08-09T07:44:26Z</time>
      </trkpt>
      <trkpt lat="44.11495" lon="6.3101">
        <ele>932</ele>
        <time>2018-08-09T07:44:27Z</time>
      </trkpt>
      <trkpt lat="44.11498" lon="6.31015">
        <ele>932.1</ele>
        <time>2018-08-09T07:44:28Z</time>
      </trkpt>
      <trkpt lat="44.11501" lon="6.31018">
        <ele>932.1</ele>
        <time>2018-08-09T07:44:29Z</time>
      </trkpt>
      <trkpt lat="44.11503" lon="6.31023">
        <ele>932.2</ele>
        <time>2018-08-09T07:44:30Z</time>
      </trkpt>
      <trkpt lat="44.11506" lon="6.31027">
        <ele>932.3</ele>
        <time>2018-08-09T07:44:31Z</time>
      </trkpt>
      <trkpt lat="44.11507" lon="6.31032">
        <ele>932.3</ele>
        <time>2018-08-09T07:44:32Z</time>
      </trkpt>
      <trkpt lat="44.1151" lon="6.31035">
        <ele>932.4</ele>
        <time>2018-08-09T07:44:33Z</time>
      </trkpt>
      <trkpt lat="44.11512" lon="6.3104">
        <ele>932.4</ele>
        <time>2018-08-09T07:44:34Z</time>
      </trkpt>
      <trkpt lat="44.11514" lon="6.31045">
        <ele>932.5</ele>
        <time>2018-08-09T07:44:35Z</time>
      </trkpt>
      <trkpt lat="44.11516" lon="6.31049">
        <ele>932.6</ele>
        <time>2018-08-09T07:44:36Z</time>
      </trkpt>
      <trkpt lat="44.11519" lon="6.31055">
        <ele>932.7</ele>
        <time>2018-08-09T07:44:38Z</time>
      </trkpt>
      <trkpt lat="44.11521" lon="6.31058">
        <ele>932.7</ele>
        <time>2018-08-09T07:44:39Z</time>
      </trkpt>
      <trkpt lat="44.11524" lon="6.31062">
        <ele>932.8</ele>
        <time>2018-08-09T07:44:41Z</time>
      </trkpt>
      <trkpt lat="44.11526" lon="6.31065">
        <ele>932.8</ele>
        <time>2018-08-09T07:44:43Z</time>
      </trkpt>
      <trkpt lat="44.11528" lon="6.31072">
        <ele>932.8</ele>
        <time>2018-08-09T07:44:45Z</time>
      </trkpt>
      <trkpt lat="44.11528" lon="6.31078">
        <ele>932.8</ele>
        <time>2018-08-09T07:44:47Z</time>
      </trkpt>
      <trkpt lat="44.11529" lon="6.31082">
        <ele>932.7</ele>
        <time>2018-08-09T07:44:49Z</time>
      </trkpt>
      <trkpt lat="44.11532" lon="6.31089">
        <ele>932.5</ele>
        <time>2018-08-09T07:44:51Z</time>
      </trkpt>
      <trkpt lat="44.11535" lon="6.31095">
        <ele>932.2</ele>
        <time>2018-08-09T07:44:53Z</time>
      </trkpt>
      <trkpt lat="44.11536" lon="6.31101">
        <ele>931.7</ele>
        <time>2018-08-09T07:44:55Z</time>
      </trkpt>
      <trkpt lat="44.11537" lon="6.31106">
        <ele>931.4</ele>
        <time>2018-08-09T07:44:56Z</time>
      </trkpt>
      <trkpt lat="44.11538" lon="6.3111">
        <ele>931.2</ele>
        <time>2018-08-09T07:44:57Z</time>
      </trkpt>
      <trkpt lat="44.11537" lon="6.31114">
        <ele>931</ele>
        <time>2018-08-09T07:44:59Z</time>
      </trkpt>
      <trkpt lat="44.1154" lon="6.31117">
        <ele>930.6</ele>
        <time>2018-08-09T07:45:07Z</time>
      </trkpt>
      <trkpt lat="44.11543" lon="6.31118">
        <ele>930.2</ele>
        <time>2018-08-09T07:45:09Z</time>
      </trkpt>
      <trkpt lat="44.11546" lon="6.3112">
        <ele>929.9</ele>
        <time>2018-08-09T07:45:12Z</time>
      </trkpt>
      <trkpt lat="44.11549" lon="6.31121">
        <ele>929.6</ele>
        <time>2018-08-09T07:45:15Z</time>
      </trkpt>
      <trkpt lat="44.11551" lon="6.31123">
        <ele>929.4</ele>
        <time>2018-08-09T07:45:18Z</time>
      </trkpt>
      <trkpt lat="44.11554" lon="6.31124">
        <ele>929.4</ele>
        <time>2018-08-09T07:45:22Z</time>
      </trkpt>
      <trkpt lat="44.11557" lon="6.31126">
        <ele>929.5</ele>
        <time>2018-08-09T07:45:25Z</time>
      </trkpt>
      <trkpt lat="44.1156" lon="6.31128">
        <ele>929.7</ele>
        <time>2018-08-09T07:45:29Z</time>
      </trkpt>
      <trkpt lat="44.11563" lon="6.3113">
        <ele>929.9</ele>
        <time>2018-08-09T07:45:34Z</time>
      </trkpt>
      <trkpt lat="44.11567" lon="6.31131">
        <ele>930.2</ele>
        <time>2018-08-09T07:45:38Z</time>
      </trkpt>
      <trkpt lat="44.11569" lon="6.3113">
        <ele>930.5</ele>
        <time>2018-08-09T07:45:41Z</time>
      </trkpt>
      <trkpt lat="44.11572" lon="6.31129">
        <ele>930.9</ele>
        <time>2018-08-09T07:45:45Z</time>
      </trkpt>
      <trkpt lat="44.11575" lon="6.31129">
        <ele>931.2</ele>
        <time>2018-08-09T07:45:47Z</time>
      </trkpt>
      <trkpt lat="44.11578" lon="6.31128">
        <ele>931.5</ele>
        <time>2018-08-09T07:45:51Z</time>
      </trkpt>
      <trkpt lat="44.11581" lon="6.31127">
        <ele>931.9</ele>
        <time>2018-08-09T07:45:54Z</time>
      </trkpt>
      <trkpt lat="44.11583" lon="6.31125">
        <ele>932.3</ele>
        <time>2018-08-09T07:45:58Z</time>
      </trkpt>
      <trkpt lat="44.11586" lon="6.31122">
        <ele>932.6</ele>
        <time>2018-08-09T07:46:10Z</time>
      </trkpt>
      <trkpt lat="44.11588" lon="6.31122">
        <ele>933</ele>
        <time>2018-08-09T07:46:13Z</time>
      </trkpt>
      <trkpt lat="44.11592" lon="6.31121">
        <ele>933.4</ele>
        <time>2018-08-09T07:46:17Z</time>
      </trkpt>
      <trkpt lat="44.11594" lon="6.3112">
        <ele>933.7</ele>
        <time>2018-08-09T07:46:20Z</time>
      </trkpt>
      <trkpt lat="44.11598" lon="6.31118">
        <ele>934.1</ele>
        <time>2018-08-09T07:46:33Z</time>
      </trkpt>
      <trkpt lat="44.11601" lon="6.31119">
        <ele>934.6</ele>
        <time>2018-08-09T07:46:35Z</time>
      </trkpt>
      <trkpt lat="44.11605" lon="6.31119">
        <ele>935</ele>
        <time>2018-08-09T07:46:38Z</time>
      </trkpt>
      <trkpt lat="44.11609" lon="6.31119">
        <ele>935.4</ele>
        <time>2018-08-09T07:46:42Z</time>
      </trkpt>
      <trkpt lat="44.11612" lon="6.31123">
        <ele>935.7</ele>
        <time>2018-08-09T07:46:45Z</time>
      </trkpt>
      <trkpt lat="44.11615" lon="6.31125">
        <ele>936</ele>
        <time>2018-08-09T07:46:48Z</time>
      </trkpt>
      <trkpt lat="44.11618" lon="6.31126">
        <ele>936.2</ele>
        <time>2018-08-09T07:46:50Z</time>
      </trkpt>
      <trkpt lat="44.11621" lon="6.31128">
        <ele>936.5</ele>
        <time>2018-08-09T07:46:52Z</time>
      </trkpt>
      <trkpt lat="44.11623" lon="6.31132">
        <ele>936.9</ele>
        <time>2018-08-09T07:46:55Z</time>
      </trkpt>
      <trkpt lat="44.11625" lon="6.31134">
        <ele>937.2</ele>
        <time>2018-08-09T07:46:57Z</time>
      </trkpt>
      <trkpt lat="44.11628" lon="6.31138">
        <ele>937.6</ele>
        <time>2018-08-09T07:46:59Z</time>
      </trkpt>
      <trkpt lat="44.1163" lon="6.3114">
        <ele>938</ele>
        <time>2018-08-09T07:47:01Z</time>
      </trkpt>
      <trkpt lat="44.11633" lon="6.31141">
        <ele>938.5</ele>
        <time>2018-08-09T07:47:03Z</time>
      </trkpt>
      <trkpt lat="44.11636" lon="6.31144">
        <ele>939</ele>
        <time>2018-08-09T07:47:05Z</time>
      </trkpt>
      <trkpt lat="44.11639" lon="6.31145">
        <ele>939.4</ele>
        <time>2018-08-09T07:47:07Z</time>
      </trkpt>
      <trkpt lat="44.11642" lon="6.31144">
        <ele>939.7</ele>
        <time>2018-08-09T07:47:09Z</time>
      </trkpt>
      <trkpt lat="44.11645" lon="6.31145">
        <ele>940</ele>
        <time>2018-08-09T07:47:11Z</time>
      </trkpt>
      <trkpt lat="44.11649" lon="6.31145">
        <ele>940.4</ele>
        <time>2018-08-09T07:47:13Z</time>
      </trkpt>
      <trkpt lat="44.11652" lon="6.31147">
        <ele>940.9</ele>
        <time>2018-08-09T07:47:15Z</time>
      </trkpt>
      <trkpt lat="44.11655" lon="6.31148">
        <ele>941.4</ele>
        <time>2018-08-09T07:47:18Z</time>
      </trkpt>
      <trkpt lat="44.11658" lon="6.3115">
        <ele>941.9</ele>
        <time>2018-08-09T07:47:21Z</time>
      </trkpt>
      <trkpt lat="44.11661" lon="6.31151">
        <ele>942.5</ele>
        <time>2018-08-09T07:47:23Z</time>
      </trkpt>
      <trkpt lat="44.11664" lon="6.31154">
        <ele>943.1</ele>
        <time>2018-08-09T07:47:26Z</time>
      </trkpt>
      <trkpt lat="44.11668" lon="6.31156">
        <ele>943.7</ele>
        <time>2018-08-09T07:47:29Z</time>
      </trkpt>
      <trkpt lat="44.11671" lon="6.3116">
        <ele>944.3</ele>
        <time>2018-08-09T07:47:32Z</time>
      </trkpt>
      <trkpt lat="44.11674" lon="6.31162">
        <ele>944.8</ele>
        <time>2018-08-09T07:47:34Z</time>
      </trkpt>
      <trkpt lat="44.11677" lon="6.31163">
        <ele>945.3</ele>
        <time>2018-08-09T07:47:36Z</time>
      </trkpt>
      <trkpt lat="44.1168" lon="6.31166">
        <ele>945.9</ele>
        <time>2018-08-09T07:47:38Z</time>
      </trkpt>
      <trkpt lat="44.11684" lon="6.31167">
        <ele>946.3</ele>
        <time>2018-08-09T07:47:41Z</time>
      </trkpt>
      <trkpt lat="44.11687" lon="6.31169">
        <ele>946.6</ele>
        <time>2018-08-09T07:47:43Z</time>
      </trkpt>
      <trkpt lat="44.11691" lon="6.31173">
        <ele>947</ele>
        <time>2018-08-09T07:47:45Z</time>
      </trkpt>
      <trkpt lat="44.11694" lon="6.31175">
        <ele>947.3</ele>
        <time>2018-08-09T07:47:47Z</time>
      </trkpt>
      <trkpt lat="44.11696" lon="6.31176">
        <ele>947.6</ele>
        <time>2018-08-09T07:47:49Z</time>
      </trkpt>
      <trkpt lat="44.11699" lon="6.31177">
        <ele>947.8</ele>
        <time>2018-08-09T07:47:51Z</time>
      </trkpt>
      <trkpt lat="44.11702" lon="6.31179">
        <ele>948.1</ele>
        <time>2018-08-09T07:47:53Z</time>
      </trkpt>
      <trkpt lat="44.11705" lon="6.31181">
        <ele>948.5</ele>
        <time>2018-08-09T07:47:55Z</time>
      </trkpt>
      <trkpt lat="44.11709" lon="6.31183">
        <ele>948.8</ele>
        <time>2018-08-09T07:47:57Z</time>
      </trkpt>
      <trkpt lat="44.11713" lon="6.31185">
        <ele>949.2</ele>
        <time>2018-08-09T07:47:59Z</time>
      </trkpt>
      <trkpt lat="44.11716" lon="6.31186">
        <ele>949.4</ele>
        <time>2018-08-09T07:48:00Z</time>
      </trkpt>
      <trkpt lat="44.11719" lon="6.31187">
        <ele>949.7</ele>
        <time>2018-08-09T07:48:01Z</time>
      </trkpt>
      <trkpt lat="44.11724" lon="6.3119">
        <ele>950.1</ele>
        <time>2018-08-09T07:48:03Z</time>
      </trkpt>
      <trkpt lat="44.11726" lon="6.31192">
        <ele>950.3</ele>
        <time>2018-08-09T07:48:04Z</time>
      </trkpt>
      <trkpt lat="44.11729" lon="6.31196">
        <ele>950.6</ele>
        <time>2018-08-09T07:48:06Z</time>
      </trkpt>
      <trkpt lat="44.11733" lon="6.312">
        <ele>951</ele>
        <time>2018-08-09T07:48:08Z</time>
      </trkpt>
      <trkpt lat="44.11735" lon="6.31205">
        <ele>951.4</ele>
        <time>2018-08-09T07:48:11Z</time>
      </trkpt>
      <trkpt lat="44.11737" lon="6.31207">
        <ele>951.7</ele>
        <time>2018-08-09T07:48:13Z</time>
      </trkpt>
      <trkpt lat="44.11739" lon="6.3121">
        <ele>951.8</ele>
        <time>2018-08-09T07:48:15Z</time>
      </trkpt>
      <trkpt lat="44.11741" lon="6.31214">
        <ele>952</ele>
        <time>2018-08-09T07:48:17Z</time>
      </trkpt>
      <trkpt lat="44.11743" lon="6.31217">
        <ele>952.1</ele>
        <time>2018-08-09T07:48:19Z</time>
      </trkpt>
      <trkpt lat="44.11746" lon="6.31221">
        <ele>952.2</ele>
        <time>2018-08-09T07:48:22Z</time>
      </trkpt>
      <trkpt lat="44.11749" lon="6.31226">
        <ele>952.3</ele>
        <time>2018-08-09T07:48:25Z</time>
      </trkpt>
      <trkpt lat="44.11752" lon="6.31231">
        <ele>952.4</ele>
        <time>2018-08-09T07:48:27Z</time>
      </trkpt>
      <trkpt lat="44.11754" lon="6.31234">
        <ele>952.4</ele>
        <time>2018-08-09T07:48:29Z</time>
      </trkpt>
      <trkpt lat="44.11756" lon="6.31237">
        <ele>952.5</ele>
        <time>2018-08-09T07:48:31Z</time>
      </trkpt>
      <trkpt lat="44.1176" lon="6.31241">
        <ele>952.6</ele>
        <time>2018-08-09T07:48:33Z</time>
      </trkpt>
      <trkpt lat="44.11763" lon="6.31244">
        <ele>952.6</ele>
        <time>2018-08-09T07:48:35Z</time>
      </trkpt>
      <trkpt lat="44.11766" lon="6.31247">
        <ele>952.7</ele>
        <time>2018-08-09T07:48:38Z</time>
      </trkpt>
      <trkpt lat="44.11768" lon="6.3125">
        <ele>952.7</ele>
        <time>2018-08-09T07:48:40Z</time>
      </trkpt>
      <trkpt lat="44.11771" lon="6.31254">
        <ele>952.8</ele>
        <time>2018-08-09T07:48:42Z</time>
      </trkpt>
      <trkpt lat="44.11772" lon="6.31259">
        <ele>952.9</ele>
        <time>2018-08-09T07:48:45Z</time>
      </trkpt>
      <trkpt lat="44.11773" lon="6.31264">
        <ele>952.9</ele>
        <time>2018-08-09T07:48:47Z</time>
      </trkpt>
      <trkpt lat="44.11774" lon="6.3127">
        <ele>953</ele>
        <time>2018-08-09T07:48:49Z</time>
      </trkpt>
      <trkpt lat="44.11776" lon="6.31274">
        <ele>952.9</ele>
        <time>2018-08-09T07:48:51Z</time>
      </trkpt>
      <trkpt lat="44.11775" lon="6.3128">
        <ele>952.5</ele>
        <time>2018-08-09T07:48:53Z</time>
      </trkpt>
      <trkpt lat="44.11775" lon="6.31287">
        <ele>952</ele>
        <time>2018-08-09T07:48:55Z</time>
      </trkpt>
      <trkpt lat="44.11774" lon="6.31293">
        <ele>951.6</ele>
        <time>2018-08-09T07:48:57Z</time>
      </trkpt>
      <trkpt lat="44.11774" lon="6.31298">
        <ele>951.3</ele>
        <time>2018-08-09T07:48:58Z</time>
      </trkpt>
      <trkpt lat="44.11774" lon="6.31303">
        <ele>950.9</ele>
        <time>2018-08-09T07:48:59Z</time>
      </trkpt>
      <trkpt lat="44.11773" lon="6.31309">
        <ele>950.6</ele>
        <time>2018-08-09T07:49:00Z</time>
      </trkpt>
      <trkpt lat="44.11773" lon="6.31315">
        <ele>950.1</ele>
        <time>2018-08-09T07:49:01Z</time>
      </trkpt>
      <trkpt lat="44.11771" lon="6.31322">
        <ele>949.7</ele>
        <time>2018-08-09T07:49:02Z</time>
      </trkpt>
      <trkpt lat="44.11768" lon="6.31328">
        <ele>949.2</ele>
        <time>2018-08-09T07:49:03Z</time>
      </trkpt>
      <trkpt lat="44.11765" lon="6.31334">
        <ele>948.8</ele>
        <time>2018-08-09T07:49:04Z</time>
      </trkpt>
      <trkpt lat="44.11763" lon="6.31339">
        <ele>948.5</ele>
        <time>2018-08-09T07:49:05Z</time>
      </trkpt>
      <trkpt lat="44.1176" lon="6.31343">
        <ele>948.2</ele>
        <time>2018-08-09T07:49:06Z</time>
      </trkpt>
      <trkpt lat="44.11757" lon="6.31348">
        <ele>947.9</ele>
        <time>2018-08-09T07:49:07Z</time>
      </trkpt>
      <trkpt lat="44.11754" lon="6.31351">
        <ele>947.7</ele>
        <time>2018-08-09T07:49:08Z</time>
      </trkpt>
      <trkpt lat="44.11752" lon="6.31354">
        <ele>947.5</ele>
        <time>2018-08-09T07:49:09Z</time>
      </trkpt>
      <trkpt lat="44.1175" lon="6.31358">
        <ele>947.3</ele>
        <time>2018-08-09T07:49:10Z</time>
      </trkpt>
      <trkpt lat="44.11748" lon="6.31364">
        <ele>947</ele>
        <time>2018-08-09T07:49:12Z</time>
      </trkpt>
      <trkpt lat="44.11748" lon="6.31368">
        <ele>947</ele>
        <time>2018-08-09T07:49:14Z</time>
      </trkpt>
      <trkpt lat="44.11748" lon="6.31372">
        <ele>947.1</ele>
        <time>2018-08-09T07:49:16Z</time>
      </trkpt>
      <trkpt lat="44.1175" lon="6.31376">
        <ele>947.1</ele>
        <time>2018-08-09T07:49:18Z</time>
      </trkpt>
      <trkpt lat="44.11753" lon="6.31379">
        <ele>947.2</ele>
        <time>2018-08-09T07:49:20Z</time>
      </trkpt>
      <trkpt lat="44.11756" lon="6.31382">
        <ele>947.2</ele>
        <time>2018-08-09T07:49:22Z</time>
      </trkpt>
      <trkpt lat="44.11758" lon="6.31386">
        <ele>947.3</ele>
        <time>2018-08-09T07:49:24Z</time>
      </trkpt>
      <trkpt lat="44.11761" lon="6.31389">
        <ele>947.4</ele>
        <time>2018-08-09T07:49:27Z</time>
      </trkpt>
      <trkpt lat="44.11763" lon="6.31393">
        <ele>947.5</ele>
        <time>2018-08-09T07:52:43Z</time>
      </trkpt>
      <trkpt lat="44.11765" lon="6.31396">
        <ele>947.5</ele>
        <time>2018-08-09T07:53:11Z</time>
      </trkpt>
      <trkpt lat="44.11767" lon="6.31401">
        <ele>947.6</ele>
        <time>2018-08-09T07:53:13Z</time>
      </trkpt>
      <trkpt lat="44.11768" lon="6.31406">
        <ele>947.8</ele>
        <time>2018-08-09T07:53:15Z</time>
      </trkpt>
      <trkpt lat="44.11768" lon="6.31411">
        <ele>948.2</ele>
        <time>2018-08-09T07:53:18Z</time>
      </trkpt>
      <trkpt lat="44.11769" lon="6.31415">
        <ele>948.5</ele>
        <time>2018-08-09T07:53:20Z</time>
      </trkpt>
      <trkpt lat="44.11769" lon="6.3142">
        <ele>948.9</ele>
        <time>2018-08-09T07:53:23Z</time>
      </trkpt>
      <trkpt lat="44.11769" lon="6.31426">
        <ele>949.6</ele>
        <time>2018-08-09T07:53:26Z</time>
      </trkpt>
      <trkpt lat="44.11769" lon="6.3143">
        <ele>949.9</ele>
        <time>2018-08-09T07:53:27Z</time>
      </trkpt>
      <trkpt lat="44.11768" lon="6.31438">
        <ele>950.5</ele>
        <time>2018-08-09T07:53:29Z</time>
      </trkpt>
      <trkpt lat="44.11769" lon="6.31443">
        <ele>950.9</ele>
        <time>2018-08-09T07:53:31Z</time>
      </trkpt>
      <trkpt lat="44.11772" lon="6.31448">
        <ele>951.2</ele>
        <time>2018-08-09T07:53:33Z</time>
      </trkpt>
      <trkpt lat="44.11775" lon="6.31451">
        <ele>951.4</ele>
        <time>2018-08-09T07:53:35Z</time>
      </trkpt>
      <trkpt lat="44.11779" lon="6.31453">
        <ele>951.5</ele>
        <time>2018-08-09T07:53:37Z</time>
      </trkpt>
      <trkpt lat="44.11782" lon="6.31456">
        <ele>951.6</ele>
        <time>2018-08-09T07:53:39Z</time>
      </trkpt>
      <trkpt lat="44.11785" lon="6.31459">
        <ele>951.7</ele>
        <time>2018-08-09T07:53:41Z</time>
      </trkpt>
      <trkpt lat="44.11788" lon="6.31462">
        <ele>951.7</ele>
        <time>2018-08-09T07:53:43Z</time>
      </trkpt>
      <trkpt lat="44.11791" lon="6.31464">
        <ele>951.8</ele>
        <time>2018-08-09T07:53:45Z</time>
      </trkpt>
      <trkpt lat="44.11794" lon="6.31466">
        <ele>951.8</ele>
        <time>2018-08-09T07:53:47Z</time>
      </trkpt>
      <trkpt lat="44.11797" lon="6.31468">
        <ele>951.9</ele>
        <time>2018-08-09T07:53:49Z</time>
      </trkpt>
      <trkpt lat="44.118" lon="6.31469">
        <ele>951.9</ele>
        <time>2018-08-09T07:53:51Z</time>
      </trkpt>
      <trkpt lat="44.11803" lon="6.31471">
        <ele>952</ele>
        <time>2018-08-09T07:53:53Z</time>
      </trkpt>
      <trkpt lat="44.11806" lon="6.31474">
        <ele>952</ele>
        <time>2018-08-09T07:53:55Z</time>
      </trkpt>
      <trkpt lat="44.11809" lon="6.31479">
        <ele>952</ele>
        <time>2018-08-09T07:53:57Z</time>
      </trkpt>
      <trkpt lat="44.11811" lon="6.31483">
        <ele>952</ele>
        <time>2018-08-09T07:53:59Z</time>
      </trkpt>
      <trkpt lat="44.11813" lon="6.31488">
        <ele>952.1</ele>
        <time>2018-08-09T07:54:01Z</time>
      </trkpt>
      <trkpt lat="44.11813" lon="6.31492">
        <ele>952.1</ele>
        <time>2018-08-09T07:54:02Z</time>
      </trkpt>
      <trkpt lat="44.11813" lon="6.31497">
        <ele>952.1</ele>
        <time>2018-08-09T07:54:03Z</time>
      </trkpt>
      <trkpt lat="44.11813" lon="6.31502">
        <ele>952.1</ele>
        <time>2018-08-09T07:54:04Z</time>
      </trkpt>
      <trkpt lat="44.11812" lon="6.31507">
        <ele>952.1</ele>
        <time>2018-08-09T07:54:05Z</time>
      </trkpt>
      <trkpt lat="44.11812" lon="6.31511">
        <ele>952.2</ele>
        <time>2018-08-09T07:54:06Z</time>
      </trkpt>
      <trkpt lat="44.11811" lon="6.31515">
        <ele>952.2</ele>
        <time>2018-08-09T07:54:07Z</time>
      </trkpt>
      <trkpt lat="44.1181" lon="6.31522">
        <ele>952.2</ele>
        <time>2018-08-09T07:54:09Z</time>
      </trkpt>
      <trkpt lat="44.11809" lon="6.31527">
        <ele>952.3</ele>
        <time>2018-08-09T07:54:11Z</time>
      </trkpt>
      <trkpt lat="44.11808" lon="6.31531">
        <ele>952.3</ele>
        <time>2018-08-09T07:54:12Z</time>
      </trkpt>
      <trkpt lat="44.11809" lon="6.31537">
        <ele>952.4</ele>
        <time>2018-08-09T07:54:13Z</time>
      </trkpt>
      <trkpt lat="44.11809" lon="6.31541">
        <ele>952.4</ele>
        <time>2018-08-09T07:54:14Z</time>
      </trkpt>
      <trkpt lat="44.11809" lon="6.31546">
        <ele>952.5</ele>
        <time>2018-08-09T07:54:15Z</time>
      </trkpt>
      <trkpt lat="44.11811" lon="6.31554">
        <ele>952.8</ele>
        <time>2018-08-09T07:54:17Z</time>
      </trkpt>
      <trkpt lat="44.11814" lon="6.31558">
        <ele>953.1</ele>
        <time>2018-08-09T07:54:19Z</time>
      </trkpt>
      <trkpt lat="44.11818" lon="6.31557">
        <ele>953.3</ele>
        <time>2018-08-09T07:54:20Z</time>
      </trkpt>
      <trkpt lat="44.11821" lon="6.31558">
        <ele>953.6</ele>
        <time>2018-08-09T07:54:22Z</time>
      </trkpt>
      <trkpt lat="44.11824" lon="6.3156">
        <ele>953.7</ele>
        <time>2018-08-09T07:54:24Z</time>
      </trkpt>
      <trkpt lat="44.11827" lon="6.31562">
        <ele>953.8</ele>
        <time>2018-08-09T07:54:27Z</time>
      </trkpt>
      <trkpt lat="44.1183" lon="6.31563">
        <ele>953.9</ele>
        <time>2018-08-09T07:54:29Z</time>
      </trkpt>
      <trkpt lat="44.11833" lon="6.31563">
        <ele>953.9</ele>
        <time>2018-08-09T07:54:31Z</time>
      </trkpt>
      <trkpt lat="44.11836" lon="6.31565">
        <ele>954</ele>
        <time>2018-08-09T07:54:33Z</time>
      </trkpt>
      <trkpt lat="44.11838" lon="6.31567">
        <ele>954.1</ele>
        <time>2018-08-09T07:54:34Z</time>
      </trkpt>
      <trkpt lat="44.11841" lon="6.31568">
        <ele>954.2</ele>
        <time>2018-08-09T07:54:36Z</time>
      </trkpt>
      <trkpt lat="44.11845" lon="6.31569">
        <ele>954.3</ele>
        <time>2018-08-09T07:54:39Z</time>
      </trkpt>
      <trkpt lat="44.1185" lon="6.31568">
        <ele>954.3</ele>
        <time>2018-08-09T07:54:41Z</time>
      </trkpt>
      <trkpt lat="44.11853" lon="6.31568">
        <ele>954.2</ele>
        <time>2018-08-09T07:54:42Z</time>
      </trkpt>
      <trkpt lat="44.11856" lon="6.3157">
        <ele>954.2</ele>
        <time>2018-08-09T07:54:44Z</time>
      </trkpt>
      <trkpt lat="44.1186" lon="6.31574">
        <ele>954.2</ele>
        <time>2018-08-09T07:54:46Z</time>
      </trkpt>
      <trkpt lat="44.11862" lon="6.31576">
        <ele>954.1</ele>
        <time>2018-08-09T07:54:48Z</time>
      </trkpt>
      <trkpt lat="44.11867" lon="6.31579">
        <ele>954</ele>
        <time>2018-08-09T07:54:50Z</time>
      </trkpt>
      <trkpt lat="44.11869" lon="6.31584">
        <ele>953.9</ele>
        <time>2018-08-09T07:54:52Z</time>
      </trkpt>
      <trkpt lat="44.1187" lon="6.31588">
        <ele>953.6</ele>
        <time>2018-08-09T07:54:53Z</time>
      </trkpt>
      <trkpt lat="44.11873" lon="6.31595">
        <ele>952.7</ele>
        <time>2018-08-09T07:54:55Z</time>
      </trkpt>
      <trkpt lat="44.11874" lon="6.31598">
        <ele>952.1</ele>
        <time>2018-08-09T07:54:56Z</time>
      </trkpt>
      <trkpt lat="44.11875" lon="6.31603">
        <ele>951.2</ele>
        <time>2018-08-09T07:54:57Z</time>
      </trkpt>
      <trkpt lat="44.11875" lon="6.31608">
        <ele>950.1</ele>
        <time>2018-08-09T07:54:58Z</time>
      </trkpt>
      <trkpt lat="44.11876" lon="6.31612">
        <ele>949.5</ele>
        <time>2018-08-09T07:54:59Z</time>
      </trkpt>
      <trkpt lat="44.11875" lon="6.31617">
        <ele>948.5</ele>
        <time>2018-08-09T07:55:00Z</time>
      </trkpt>
      <trkpt lat="44.11872" lon="6.31621">
        <ele>948</ele>
        <time>2018-08-09T07:55:01Z</time>
      </trkpt>
      <trkpt lat="44.11869" lon="6.31625">
        <ele>947.5</ele>
        <time>2018-08-09T07:55:02Z</time>
      </trkpt>
      <trkpt lat="44.11866" lon="6.31629">
        <ele>947</ele>
        <time>2018-08-09T07:55:03Z</time>
      </trkpt>
      <trkpt lat="44.11864" lon="6.31633">
        <ele>946.6</ele>
        <time>2018-08-09T07:55:04Z</time>
      </trkpt>
      <trkpt lat="44.11862" lon="6.31638">
        <ele>946.1</ele>
        <time>2018-08-09T07:55:06Z</time>
      </trkpt>
      <trkpt lat="44.11859" lon="6.31642">
        <ele>945.7</ele>
        <time>2018-08-09T07:55:08Z</time>
      </trkpt>
      <trkpt lat="44.1186" lon="6.31648">
        <ele>945.2</ele>
        <time>2018-08-09T07:55:09Z</time>
      </trkpt>
      <trkpt lat="44.11861" lon="6.31652">
        <ele>944.8</ele>
        <time>2018-08-09T07:55:10Z</time>
      </trkpt>
      <trkpt lat="44.11863" lon="6.31654">
        <ele>944.2</ele>
        <time>2018-08-09T07:55:11Z</time>
      </trkpt>
      <trkpt lat="44.11866" lon="6.31655">
        <ele>943.2</ele>
        <time>2018-08-09T07:55:12Z</time>
      </trkpt>
      <trkpt lat="44.11871" lon="6.31656">
        <ele>941.6</ele>
        <time>2018-08-09T07:55:14Z</time>
      </trkpt>
      <trkpt lat="44.11875" lon="6.31657">
        <ele>940.7</ele>
        <time>2018-08-09T07:55:16Z</time>
      </trkpt>
      <trkpt lat="44.11878" lon="6.31659">
        <ele>940.2</ele>
        <time>2018-08-09T07:55:17Z</time>
      </trkpt>
      <trkpt lat="44.11881" lon="6.31662">
        <ele>939.3</ele>
        <time>2018-08-09T07:55:19Z</time>
      </trkpt>
      <trkpt lat="44.11885" lon="6.31666">
        <ele>938.6</ele>
        <time>2018-08-09T07:55:21Z</time>
      </trkpt>
      <trkpt lat="44.11887" lon="6.31672">
        <ele>937.5</ele>
        <time>2018-08-09T07:55:23Z</time>
      </trkpt>
      <trkpt lat="44.11888" lon="6.31678">
        <ele>936.4</ele>
        <time>2018-08-09T07:55:25Z</time>
      </trkpt>
      <trkpt lat="44.11889" lon="6.31685">
        <ele>935.3</ele>
        <time>2018-08-09T07:55:27Z</time>
      </trkpt>
      <trkpt lat="44.1189" lon="6.31694">
        <ele>935</ele>
        <time>2018-08-09T07:55:29Z</time>
      </trkpt>
      <trkpt lat="44.1189" lon="6.31701">
        <ele>934.8</ele>
        <time>2018-08-09T07:55:30Z</time>
      </trkpt>
      <trkpt lat="44.11889" lon="6.31708">
        <ele>934.6</ele>
        <time>2018-08-09T07:55:31Z</time>
      </trkpt>
      <trkpt lat="44.11889" lon="6.31713">
        <ele>934.6</ele>
        <time>2018-08-09T07:55:32Z</time>
      </trkpt>
      <trkpt lat="44.11888" lon="6.31717">
        <ele>934.5</ele>
        <time>2018-08-09T07:55:33Z</time>
      </trkpt>
      <trkpt lat="44.11889" lon="6.31722">
        <ele>934.6</ele>
        <time>2018-08-09T07:55:35Z</time>
      </trkpt>
      <trkpt lat="44.11888" lon="6.31727">
        <ele>934.7</ele>
        <time>2018-08-09T07:55:38Z</time>
      </trkpt>
      <trkpt lat="44.11889" lon="6.31731">
        <ele>934.9</ele>
        <time>2018-08-09T07:55:40Z</time>
      </trkpt>
      <trkpt lat="44.11891" lon="6.31735">
        <ele>935.2</ele>
        <time>2018-08-09T07:55:44Z</time>
      </trkpt>
      <trkpt lat="44.11894" lon="6.31736">
        <ele>935.6</ele>
        <time>2018-08-09T07:55:53Z</time>
      </trkpt>
      <trkpt lat="44.11897" lon="6.31737">
        <ele>935.7</ele>
        <time>2018-08-09T07:55:55Z</time>
      </trkpt>
      <trkpt lat="44.119" lon="6.31738">
        <ele>935.9</ele>
        <time>2018-08-09T07:55:57Z</time>
      </trkpt>
      <trkpt lat="44.11903" lon="6.31738">
        <ele>936</ele>
        <time>2018-08-09T07:56:00Z</time>
      </trkpt>
      <trkpt lat="44.11906" lon="6.31739">
        <ele>936.2</ele>
        <time>2018-08-09T07:56:03Z</time>
      </trkpt>
      <trkpt lat="44.11909" lon="6.31742">
        <ele>936.4</ele>
        <time>2018-08-09T07:56:06Z</time>
      </trkpt>
      <trkpt lat="44.1191" lon="6.31745">
        <ele>937</ele>
        <time>2018-08-09T07:56:09Z</time>
      </trkpt>
      <trkpt lat="44.11913" lon="6.31747">
        <ele>937.8</ele>
        <time>2018-08-09T07:56:14Z</time>
      </trkpt>
      <trkpt lat="44.11916" lon="6.31745">
        <ele>938.6</ele>
        <time>2018-08-09T07:56:17Z</time>
      </trkpt>
      <trkpt lat="44.11919" lon="6.31744">
        <ele>939.5</ele>
        <time>2018-08-09T07:56:24Z</time>
      </trkpt>
      <trkpt lat="44.11922" lon="6.31748">
        <ele>940.9</ele>
        <time>2018-08-09T07:56:33Z</time>
      </trkpt>
      <trkpt lat="44.11924" lon="6.31748">
        <ele>941.5</ele>
        <time>2018-08-09T07:56:37Z</time>
      </trkpt>
      <trkpt lat="44.11928" lon="6.31746">
        <ele>942.5</ele>
        <time>2018-08-09T07:56:42Z</time>
      </trkpt>
      <trkpt lat="44.11931" lon="6.31748">
        <ele>943.6</ele>
        <time>2018-08-09T07:56:45Z</time>
      </trkpt>
      <trkpt lat="44.11934" lon="6.31749">
        <ele>944.5</ele>
        <time>2018-08-09T07:56:49Z</time>
      </trkpt>
      <trkpt lat="44.11936" lon="6.31751">
        <ele>945.3</ele>
        <time>2018-08-09T07:56:52Z</time>
      </trkpt>
      <trkpt lat="44.11938" lon="6.31755">
        <ele>946</ele>
        <time>2018-08-09T07:56:55Z</time>
      </trkpt>
      <trkpt lat="44.11939" lon="6.31759">
        <ele>946.7</ele>
        <time>2018-08-09T07:56:59Z</time>
      </trkpt>
      <trkpt lat="44.11943" lon="6.31758">
        <ele>947.5</ele>
        <time>2018-08-09T07:57:05Z</time>
      </trkpt>
      <trkpt lat="44.11946" lon="6.31758">
        <ele>948</ele>
        <time>2018-08-09T07:57:08Z</time>
      </trkpt>
      <trkpt lat="44.11949" lon="6.31758">
        <ele>948.5</ele>
        <time>2018-08-09T07:57:13Z</time>
      </trkpt>
      <trkpt lat="44.11952" lon="6.31757">
        <ele>948.9</ele>
        <time>2018-08-09T07:57:15Z</time>
      </trkpt>
      <trkpt lat="44.11955" lon="6.31755">
        <ele>949.2</ele>
        <time>2018-08-09T07:57:18Z</time>
      </trkpt>
      <trkpt lat="44.11958" lon="6.31755">
        <ele>949.3</ele>
        <time>2018-08-09T07:57:24Z</time>
      </trkpt>
      <trkpt lat="44.11961" lon="6.31757">
        <ele>949.4</ele>
        <time>2018-08-09T07:57:28Z</time>
      </trkpt>
      <trkpt lat="44.11964" lon="6.31759">
        <ele>949.5</ele>
        <time>2018-08-09T07:57:31Z</time>
      </trkpt>
      <trkpt lat="44.11967" lon="6.31761">
        <ele>949.6</ele>
        <time>2018-08-09T07:57:33Z</time>
      </trkpt>
      <trkpt lat="44.1197" lon="6.31763">
        <ele>949.6</ele>
        <time>2018-08-09T07:57:35Z</time>
      </trkpt>
      <trkpt lat="44.11973" lon="6.31764">
        <ele>949.6</ele>
        <time>2018-08-09T07:57:37Z</time>
      </trkpt>
      <trkpt lat="44.11974" lon="6.31768">
        <ele>949.4</ele>
        <time>2018-08-09T07:57:39Z</time>
      </trkpt>
      <trkpt lat="44.11976" lon="6.31771">
        <ele>949.1</ele>
        <time>2018-08-09T07:57:41Z</time>
      </trkpt>
      <trkpt lat="44.11977" lon="6.31778">
        <ele>948.4</ele>
        <time>2018-08-09T07:57:43Z</time>
      </trkpt>
      <trkpt lat="44.11978" lon="6.31782">
        <ele>947.8</ele>
        <time>2018-08-09T07:57:44Z</time>
      </trkpt>
      <trkpt lat="44.11978" lon="6.31787">
        <ele>947</ele>
        <time>2018-08-09T07:57:45Z</time>
      </trkpt>
      <trkpt lat="44.11978" lon="6.31792">
        <ele>946.5</ele>
        <time>2018-08-09T07:57:46Z</time>
      </trkpt>
      <trkpt lat="44.11978" lon="6.31798">
        <ele>945.8</ele>
        <time>2018-08-09T07:57:47Z</time>
      </trkpt>
      <trkpt lat="44.11977" lon="6.31804">
        <ele>944.9</ele>
        <time>2018-08-09T07:57:48Z</time>
      </trkpt>
      <trkpt lat="44.11978" lon="6.3181">
        <ele>944.5</ele>
        <time>2018-08-09T07:57:49Z</time>
      </trkpt>
      <trkpt lat="44.11978" lon="6.31815">
        <ele>943.9</ele>
        <time>2018-08-09T07:57:50Z</time>
      </trkpt>
      <trkpt lat="44.11979" lon="6.31822">
        <ele>943.2</ele>
        <time>2018-08-09T07:57:51Z</time>
      </trkpt>
      <trkpt lat="44.1198" lon="6.31829">
        <ele>942.9</ele>
        <time>2018-08-09T07:57:52Z</time>
      </trkpt>
      <trkpt lat="44.11981" lon="6.31837">
        <ele>942.8</ele>
        <time>2018-08-09T07:57:53Z</time>
      </trkpt>
      <trkpt lat="44.11984" lon="6.31843">
        <ele>942.7</ele>
        <time>2018-08-09T07:57:54Z</time>
      </trkpt>
      <trkpt lat="44.11985" lon="6.3185">
        <ele>942.6</ele>
        <time>2018-08-09T07:57:55Z</time>
      </trkpt>
      <trkpt lat="44.11987" lon="6.31854">
        <ele>942.6</ele>
        <time>2018-08-09T07:57:56Z</time>
      </trkpt>
      <trkpt lat="44.11989" lon="6.31859">
        <ele>942.6</ele>
        <time>2018-08-09T07:57:57Z</time>
      </trkpt>
      <trkpt lat="44.11993" lon="6.31863">
        <ele>942.5</ele>
        <time>2018-08-09T07:57:59Z</time>
      </trkpt>
      <trkpt lat="44.11997" lon="6.31865">
        <ele>942.5</ele>
        <time>2018-08-09T07:58:01Z</time>
      </trkpt>
      <trkpt lat="44.12001" lon="6.31867">
        <ele>942.5</ele>
        <time>2018-08-09T07:58:03Z</time>
      </trkpt>
      <trkpt lat="44.12005" lon="6.31872">
        <ele>942.6</ele>
        <time>2018-08-09T07:58:05Z</time>
      </trkpt>
      <trkpt lat="44.12008" lon="6.31878">
        <ele>942.6</ele>
        <time>2018-08-09T07:58:07Z</time>
      </trkpt>
      <trkpt lat="44.1201" lon="6.31882">
        <ele>942.6</ele>
        <time>2018-08-09T07:58:08Z</time>
      </trkpt>
      <trkpt lat="44.12012" lon="6.31886">
        <ele>942.7</ele>
        <time>2018-08-09T07:58:09Z</time>
      </trkpt>
      <trkpt lat="44.12014" lon="6.31889">
        <ele>942.7</ele>
        <time>2018-08-09T07:58:10Z</time>
      </trkpt>
      <trkpt lat="44.12017" lon="6.31891">
        <ele>942.7</ele>
        <time>2018-08-09T07:58:11Z</time>
      </trkpt>
      <trkpt lat="44.12019" lon="6.31894">
        <ele>942.8</ele>
        <time>2018-08-09T07:58:12Z</time>
      </trkpt>
      <trkpt lat="44.12022" lon="6.31897">
        <ele>942.8</ele>
        <time>2018-08-09T07:58:13Z</time>
      </trkpt>
      <trkpt lat="44.12023" lon="6.31904">
        <ele>942.9</ele>
        <time>2018-08-09T07:58:15Z</time>
      </trkpt>
      <trkpt lat="44.12025" lon="6.31907">
        <ele>943</ele>
        <time>2018-08-09T07:58:16Z</time>
      </trkpt>
      <trkpt lat="44.12026" lon="6.31911">
        <ele>943.1</ele>
        <time>2018-08-09T07:58:17Z</time>
      </trkpt>
      <trkpt lat="44.1203" lon="6.31916">
        <ele>943.4</ele>
        <time>2018-08-09T07:58:19Z</time>
      </trkpt>
      <trkpt lat="44.12033" lon="6.31916">
        <ele>943.8</ele>
        <time>2018-08-09T07:58:21Z</time>
      </trkpt>
      <trkpt lat="44.12036" lon="6.31918">
        <ele>944.2</ele>
        <time>2018-08-09T07:58:23Z</time>
      </trkpt>
      <trkpt lat="44.1204" lon="6.31918">
        <ele>944.7</ele>
        <time>2018-08-09T07:58:26Z</time>
      </trkpt>
      <trkpt lat="44.12044" lon="6.3192">
        <ele>945.3</ele>
        <time>2018-08-09T07:58:28Z</time>
      </trkpt>
      <trkpt lat="44.12047" lon="6.31922">
        <ele>945.9</ele>
        <time>2018-08-09T07:58:30Z</time>
      </trkpt>
      <trkpt lat="44.1205" lon="6.31925">
        <ele>946.3</ele>
        <time>2018-08-09T07:58:32Z</time>
      </trkpt>
      <trkpt lat="44.12053" lon="6.31927">
        <ele>946.9</ele>
        <time>2018-08-09T07:58:34Z</time>
      </trkpt>
      <trkpt lat="44.12056" lon="6.31928">
        <ele>947.5</ele>
        <time>2018-08-09T07:58:37Z</time>
      </trkpt>
      <trkpt lat="44.12059" lon="6.31929">
        <ele>947.9</ele>
        <time>2018-08-09T07:58:39Z</time>
      </trkpt>
      <trkpt lat="44.12063" lon="6.31931">
        <ele>948.3</ele>
        <time>2018-08-09T07:58:42Z</time>
      </trkpt>
      <trkpt lat="44.12066" lon="6.31933">
        <ele>948.6</ele>
        <time>2018-08-09T07:58:44Z</time>
      </trkpt>
      <trkpt lat="44.12067" lon="6.31938">
        <ele>948.8</ele>
        <time>2018-08-09T07:58:54Z</time>
      </trkpt>
      <trkpt lat="44.1207" lon="6.31938">
        <ele>948.8</ele>
        <time>2018-08-09T07:59:23Z</time>
      </trkpt>
      <trkpt lat="44.1207" lon="6.31934">
        <ele>948.8</ele>
        <time>2018-08-09T07:59:28Z</time>
      </trkpt>
      <trkpt lat="44.12069" lon="6.31929">
        <ele>948.8</ele>
        <time>2018-08-09T07:59:36Z</time>
      </trkpt>
      <trkpt lat="44.12068" lon="6.31933">
        <ele>948.7</ele>
        <time>2018-08-09T07:59:45Z</time>
      </trkpt>
      <trkpt lat="44.12067" lon="6.31936">
        <ele>948.5</ele>
        <time>2018-08-09T07:59:54Z</time>
      </trkpt>
      <trkpt lat="44.12067" lon="6.3194">
        <ele>948.2</ele>
        <time>2018-08-09T07:59:58Z</time>
      </trkpt>
      <trkpt lat="44.12065" lon="6.31943">
        <ele>948</ele>
        <time>2018-08-09T08:00:19Z</time>
      </trkpt>
      <trkpt lat="44.12065" lon="6.31939">
        <ele>947.8</ele>
        <time>2018-08-09T08:00:26Z</time>
      </trkpt>
      <trkpt lat="44.12068" lon="6.3194">
        <ele>947.7</ele>
        <time>2018-08-09T08:00:32Z</time>
      </trkpt>
      <trkpt lat="44.12071" lon="6.31944">
        <ele>947.4</ele>
        <time>2018-08-09T08:00:35Z</time>
      </trkpt>
      <trkpt lat="44.12072" lon="6.31948">
        <ele>947.1</ele>
        <time>2018-08-09T08:00:37Z</time>
      </trkpt>
      <trkpt lat="44.12073" lon="6.31952">
        <ele>946.8</ele>
        <time>2018-08-09T08:00:39Z</time>
      </trkpt>
      <trkpt lat="44.12076" lon="6.31958">
        <ele>946.5</ele>
        <time>2018-08-09T08:00:41Z</time>
      </trkpt>
      <trkpt lat="44.12078" lon="6.31962">
        <ele>946.4</ele>
        <time>2018-08-09T08:00:42Z</time>
      </trkpt>
      <trkpt lat="44.12081" lon="6.31965">
        <ele>946.3</ele>
        <time>2018-08-09T08:00:43Z</time>
      </trkpt>
      <trkpt lat="44.12083" lon="6.31971">
        <ele>946.2</ele>
        <time>2018-08-09T08:00:44Z</time>
      </trkpt>
      <trkpt lat="44.12085" lon="6.31976">
        <ele>946.1</ele>
        <time>2018-08-09T08:00:45Z</time>
      </trkpt>
      <trkpt lat="44.12088" lon="6.31983">
        <ele>946.1</ele>
        <time>2018-08-09T08:00:46Z</time>
      </trkpt>
      <trkpt lat="44.12091" lon="6.3199">
        <ele>946.1</ele>
        <time>2018-08-09T08:00:47Z</time>
      </trkpt>
      <trkpt lat="44.12092" lon="6.31996">
        <ele>946.3</ele>
        <time>2018-08-09T08:00:48Z</time>
      </trkpt>
      <trkpt lat="44.12093" lon="6.32003">
        <ele>946.6</ele>
        <time>2018-08-09T08:00:49Z</time>
      </trkpt>
      <trkpt lat="44.12094" lon="6.32009">
        <ele>946.9</ele>
        <time>2018-08-09T08:00:50Z</time>
      </trkpt>
      <trkpt lat="44.12095" lon="6.32016">
        <ele>947.3</ele>
        <time>2018-08-09T08:00:51Z</time>
      </trkpt>
      <trkpt lat="44.12096" lon="6.32021">
        <ele>947.5</ele>
        <time>2018-08-09T08:00:52Z</time>
      </trkpt>
      <trkpt lat="44.12097" lon="6.32028">
        <ele>948</ele>
        <time>2018-08-09T08:00:54Z</time>
      </trkpt>
      <trkpt lat="44.12098" lon="6.32032">
        <ele>948.2</ele>
        <time>2018-08-09T08:00:55Z</time>
      </trkpt>
      <trkpt lat="44.12099" lon="6.32036">
        <ele>948.5</ele>
        <time>2018-08-09T08:00:56Z</time>
      </trkpt>
      <trkpt lat="44.12102" lon="6.32042">
        <ele>948.8</ele>
        <time>2018-08-09T08:00:58Z</time>
      </trkpt>
      <trkpt lat="44.12105" lon="6.32046">
        <ele>949.1</ele>
        <time>2018-08-09T08:01:00Z</time>
      </trkpt>
      <trkpt lat="44.12107" lon="6.32049">
        <ele>949.3</ele>
        <time>2018-08-09T08:01:02Z</time>
      </trkpt>
      <trkpt lat="44.12109" lon="6.32054">
        <ele>949.6</ele>
        <time>2018-08-09T08:01:04Z</time>
      </trkpt>
      <trkpt lat="44.1211" lon="6.32059">
        <ele>949.9</ele>
        <time>2018-08-09T08:01:06Z</time>
      </trkpt>
      <trkpt lat="44.12112" lon="6.32062">
        <ele>950.1</ele>
        <time>2018-08-09T08:01:08Z</time>
      </trkpt>
      <trkpt lat="44.12116" lon="6.32065">
        <ele>950.2</ele>
        <time>2018-08-09T08:01:10Z</time>
      </trkpt>
      <trkpt lat="44.1212" lon="6.32069">
        <ele>950.4</ele>
        <time>2018-08-09T08:01:13Z</time>
      </trkpt>
      <trkpt lat="44.12123" lon="6.32073">
        <ele>950.6</ele>
        <time>2018-08-09T08:01:15Z</time>
      </trkpt>
      <trkpt lat="44.12125" lon="6.32078">
        <ele>950.8</ele>
        <time>2018-08-09T08:01:18Z</time>
      </trkpt>
      <trkpt lat="44.12126" lon="6.32082">
        <ele>950.9</ele>
        <time>2018-08-09T08:01:20Z</time>
      </trkpt>
      <trkpt lat="44.12128" lon="6.32086">
        <ele>951.1</ele>
        <time>2018-08-09T08:01:23Z</time>
      </trkpt>
      <trkpt lat="44.12129" lon="6.32091">
        <ele>951.3</ele>
        <time>2018-08-09T08:01:25Z</time>
      </trkpt>
      <trkpt lat="44.12132" lon="6.32093">
        <ele>951.5</ele>
        <time>2018-08-09T08:01:26Z</time>
      </trkpt>
      <trkpt lat="44.12135" lon="6.32097">
        <ele>951.7</ele>
        <time>2018-08-09T08:01:28Z</time>
      </trkpt>
      <trkpt lat="44.12138" lon="6.32101">
        <ele>951.9</ele>
        <time>2018-08-09T08:01:30Z</time>
      </trkpt>
      <trkpt lat="44.1214" lon="6.32104">
        <ele>952.1</ele>
        <time>2018-08-09T08:01:32Z</time>
      </trkpt>
      <trkpt lat="44.12141" lon="6.32109">
        <ele>952.3</ele>
        <time>2018-08-09T08:01:33Z</time>
      </trkpt>
      <trkpt lat="44.12143" lon="6.32114">
        <ele>952.5</ele>
        <time>2018-08-09T08:01:35Z</time>
      </trkpt>
      <trkpt lat="44.12145" lon="6.32118">
        <ele>952.6</ele>
        <time>2018-08-09T08:01:37Z</time>
      </trkpt>
      <trkpt lat="44.12148" lon="6.32122">
        <ele>952.7</ele>
        <time>2018-08-09T08:01:39Z</time>
      </trkpt>
      <trkpt lat="44.12151" lon="6.32127">
        <ele>952.8</ele>
        <time>2018-08-09T08:01:41Z</time>
      </trkpt>
      <trkpt lat="44.12152" lon="6.32131">
        <ele>952.8</ele>
        <time>2018-08-09T08:01:42Z</time>
      </trkpt>
      <trkpt lat="44.12155" lon="6.32135">
        <ele>952.8</ele>
        <time>2018-08-09T08:01:44Z</time>
      </trkpt>
      <trkpt lat="44.12156" lon="6.3214">
        <ele>952.9</ele>
        <time>2018-08-09T08:01:46Z</time>
      </trkpt>
      <trkpt lat="44.12158" lon="6.32146">
        <ele>952.9</ele>
        <time>2018-08-09T08:01:48Z</time>
      </trkpt>
      <trkpt lat="44.12159" lon="6.32151">
        <ele>952.9</ele>
        <time>2018-08-09T08:01:50Z</time>
      </trkpt>
      <trkpt lat="44.1216" lon="6.32155">
        <ele>953</ele>
        <time>2018-08-09T08:01:52Z</time>
      </trkpt>
      <trkpt lat="44.12162" lon="6.3216">
        <ele>953</ele>
        <time>2018-08-09T08:01:55Z</time>
      </trkpt>
      <trkpt lat="44.12163" lon="6.32164">
        <ele>953</ele>
        <time>2018-08-09T08:01:57Z</time>
      </trkpt>
      <trkpt lat="44.12165" lon="6.32168">
        <ele>953</ele>
        <time>2018-08-09T08:02:00Z</time>
      </trkpt>
      <trkpt lat="44.12164" lon="6.32176">
        <ele>953</ele>
        <time>2018-08-09T08:02:02Z</time>
      </trkpt>
      <trkpt lat="44.12162" lon="6.32181">
        <ele>953</ele>
        <time>2018-08-09T08:02:03Z</time>
      </trkpt>
      <trkpt lat="44.12162" lon="6.32186">
        <ele>953</ele>
        <time>2018-08-09T08:02:04Z</time>
      </trkpt>
      <trkpt lat="44.12163" lon="6.32191">
        <ele>953</ele>
        <time>2018-08-09T08:02:05Z</time>
      </trkpt>
      <trkpt lat="44.12163" lon="6.32186">
        <ele>953</ele>
        <time>2018-08-09T08:02:31Z</time>
      </trkpt>
      <trkpt lat="44.12163" lon="6.3218">
        <ele>953.1</ele>
        <time>2018-08-09T08:02:33Z</time>
      </trkpt>
      <trkpt lat="44.12165" lon="6.32175">
        <ele>953.1</ele>
        <time>2018-08-09T08:02:35Z</time>
      </trkpt>
      <trkpt lat="44.12168" lon="6.32174">
        <ele>953.2</ele>
        <time>2018-08-09T08:02:41Z</time>
      </trkpt>
      <trkpt lat="44.12171" lon="6.32177">
        <ele>953.2</ele>
        <time>2018-08-09T08:02:44Z</time>
      </trkpt>
      <trkpt lat="44.12174" lon="6.3218">
        <ele>953.3</ele>
        <time>2018-08-09T08:02:47Z</time>
      </trkpt>
      <trkpt lat="44.12177" lon="6.32178">
        <ele>953.4</ele>
        <time>2018-08-09T08:03:01Z</time>
      </trkpt>
      <trkpt lat="44.1218" lon="6.32177">
        <ele>953.4</ele>
        <time>2018-08-09T08:03:04Z</time>
      </trkpt>
      <trkpt lat="44.12181" lon="6.32173">
        <ele>953.5</ele>
        <time>2018-08-09T08:03:08Z</time>
      </trkpt>
      <trkpt lat="44.12184" lon="6.32171">
        <ele>953.8</ele>
        <time>2018-08-09T08:03:12Z</time>
      </trkpt>
      <trkpt lat="44.12186" lon="6.32168">
        <ele>954</ele>
        <time>2018-08-09T08:03:16Z</time>
      </trkpt>
      <trkpt lat="44.12188" lon="6.32165">
        <ele>954.2</ele>
        <time>2018-08-09T08:03:21Z</time>
      </trkpt>
      <trkpt lat="44.1219" lon="6.32161">
        <ele>954.4</ele>
        <time>2018-08-09T08:03:26Z</time>
      </trkpt>
      <trkpt lat="44.12191" lon="6.32158">
        <ele>954.6</ele>
        <time>2018-08-09T08:03:29Z</time>
      </trkpt>
      <trkpt lat="44.12194" lon="6.32156">
        <ele>954.8</ele>
        <time>2018-08-09T08:03:32Z</time>
      </trkpt>
      <trkpt lat="44.12197" lon="6.32156">
        <ele>954.9</ele>
        <time>2018-08-09T08:03:36Z</time>
      </trkpt>
      <trkpt lat="44.12202" lon="6.32156">
        <ele>955.1</ele>
        <time>2018-08-09T08:03:39Z</time>
      </trkpt>
      <trkpt lat="44.12204" lon="6.32158">
        <ele>955.2</ele>
        <time>2018-08-09T08:03:42Z</time>
      </trkpt>
      <trkpt lat="44.12206" lon="6.32161">
        <ele>955.3</ele>
        <time>2018-08-09T08:03:44Z</time>
      </trkpt>
      <trkpt lat="44.12209" lon="6.32163">
        <ele>955.4</ele>
        <time>2018-08-09T08:03:47Z</time>
      </trkpt>
      <trkpt lat="44.12209" lon="6.32167">
        <ele>955.5</ele>
        <time>2018-08-09T08:03:50Z</time>
      </trkpt>
      <trkpt lat="44.12211" lon="6.32171">
        <ele>955.6</ele>
        <time>2018-08-09T08:03:55Z</time>
      </trkpt>
      <trkpt lat="44.12214" lon="6.32176">
        <ele>955.9</ele>
        <time>2018-08-09T08:03:58Z</time>
      </trkpt>
      <trkpt lat="44.12217" lon="6.32179">
        <ele>956.2</ele>
        <time>2018-08-09T08:03:59Z</time>
      </trkpt>
      <trkpt lat="44.12219" lon="6.32182">
        <ele>956.5</ele>
        <time>2018-08-09T08:04:00Z</time>
      </trkpt>
      <trkpt lat="44.12223" lon="6.32186">
        <ele>957.2</ele>
        <time>2018-08-09T08:04:02Z</time>
      </trkpt>
      <trkpt lat="44.12226" lon="6.3219">
        <ele>957.6</ele>
        <time>2018-08-09T08:04:04Z</time>
      </trkpt>
      <trkpt lat="44.12226" lon="6.32194">
        <ele>957.9</ele>
        <time>2018-08-09T08:04:07Z</time>
      </trkpt>
      <trkpt lat="44.12227" lon="6.32198">
        <ele>958.2</ele>
        <time>2018-08-09T08:04:09Z</time>
      </trkpt>
      <trkpt lat="44.12226" lon="6.32202">
        <ele>958.2</ele>
        <time>2018-08-09T08:04:20Z</time>
      </trkpt>
      <trkpt lat="44.12222" lon="6.322">
        <ele>957.9</ele>
        <time>2018-08-09T08:04:23Z</time>
      </trkpt>
      <trkpt lat="44.1222" lon="6.32198">
        <ele>957.6</ele>
        <time>2018-08-09T08:04:24Z</time>
      </trkpt>
      <trkpt lat="44.12216" lon="6.32197">
        <ele>957.3</ele>
        <time>2018-08-09T08:04:25Z</time>
      </trkpt>
      <trkpt lat="44.12213" lon="6.32197">
        <ele>956.9</ele>
        <time>2018-08-09T08:04:26Z</time>
      </trkpt>
      <trkpt lat="44.1221" lon="6.32195">
        <ele>956.5</ele>
        <time>2018-08-09T08:04:28Z</time>
      </trkpt>
      <trkpt lat="44.12208" lon="6.32194">
        <ele>956.3</ele>
        <time>2018-08-09T08:04:52Z</time>
      </trkpt>
      <trkpt lat="44.12204" lon="6.32195">
        <ele>955.9</ele>
        <time>2018-08-09T08:04:58Z</time>
      </trkpt>
      <trkpt lat="44.12201" lon="6.32195">
        <ele>955.8</ele>
        <time>2018-08-09T08:05:01Z</time>
      </trkpt>
      <trkpt lat="44.12198" lon="6.32193">
        <ele>955.7</ele>
        <time>2018-08-09T08:05:05Z</time>
      </trkpt>
      <trkpt lat="44.12195" lon="6.32191">
        <ele>955.6</ele>
        <time>2018-08-09T08:05:14Z</time>
      </trkpt>
      <trkpt lat="44.12192" lon="6.3219">
        <ele>955.4</ele>
        <time>2018-08-09T08:05:16Z</time>
      </trkpt>
      <trkpt lat="44.12189" lon="6.32189">
        <ele>954.5</ele>
        <time>2018-08-09T08:05:20Z</time>
      </trkpt>
      <trkpt lat="44.12189" lon="6.32194">
        <ele>954.7</ele>
        <time>2018-08-09T08:05:37Z</time>
      </trkpt>
      <trkpt lat="44.12189" lon="6.32199">
        <ele>955.1</ele>
        <time>2018-08-09T08:05:40Z</time>
      </trkpt>
      <trkpt lat="44.12188" lon="6.32203">
        <ele>955.5</ele>
        <time>2018-08-09T08:05:42Z</time>
      </trkpt>
      <trkpt lat="44.12187" lon="6.32207">
        <ele>955.9</ele>
        <time>2018-08-09T08:05:44Z</time>
      </trkpt>
      <trkpt lat="44.12189" lon="6.32211">
        <ele>956.4</ele>
        <time>2018-08-09T08:05:47Z</time>
      </trkpt>
      <trkpt lat="44.12191" lon="6.32213">
        <ele>956.8</ele>
        <time>2018-08-09T08:05:56Z</time>
      </trkpt>
      <trkpt lat="44.12192" lon="6.32217">
        <ele>957.3</ele>
        <time>2018-08-09T08:06:02Z</time>
      </trkpt>
      <trkpt lat="44.12191" lon="6.32222">
        <ele>957.5</ele>
        <time>2018-08-09T08:06:15Z</time>
      </trkpt>
      <trkpt lat="44.12193" lon="6.32225">
        <ele>957.7</ele>
        <time>2018-08-09T08:06:16Z</time>
      </trkpt>
      <trkpt lat="44.12191" lon="6.32234">
        <ele>958.2</ele>
        <time>2018-08-09T08:06:18Z</time>
      </trkpt>
      <trkpt lat="44.1219" lon="6.32239">
        <ele>958.5</ele>
        <time>2018-08-09T08:06:19Z</time>
      </trkpt>
      <trkpt lat="44.12189" lon="6.32245">
        <ele>958.8</ele>
        <time>2018-08-09T08:06:20Z</time>
      </trkpt>
      <trkpt lat="44.12189" lon="6.3225">
        <ele>957.5</ele>
        <time>2018-08-09T08:06:21Z</time>
      </trkpt>
      <trkpt lat="44.12189" lon="6.32254">
        <ele>956.8</ele>
        <time>2018-08-09T08:06:22Z</time>
      </trkpt>
      <trkpt lat="44.12189" lon="6.3226">
        <ele>956.1</ele>
        <time>2018-08-09T08:06:23Z</time>
      </trkpt>
      <trkpt lat="44.12189" lon="6.32265">
        <ele>955.5</ele>
        <time>2018-08-09T08:06:24Z</time>
      </trkpt>
      <trkpt lat="44.1219" lon="6.3227">
        <ele>954.3</ele>
        <time>2018-08-09T08:06:25Z</time>
      </trkpt>
      <trkpt lat="44.12191" lon="6.32276">
        <ele>952.3</ele>
        <time>2018-08-09T08:06:26Z</time>
      </trkpt>
      <trkpt lat="44.12192" lon="6.32282">
        <ele>950.6</ele>
        <time>2018-08-09T08:06:27Z</time>
      </trkpt>
      <trkpt lat="44.12194" lon="6.32287">
        <ele>948.5</ele>
        <time>2018-08-09T08:06:28Z</time>
      </trkpt>
      <trkpt lat="44.12194" lon="6.32292">
        <ele>947.3</ele>
        <time>2018-08-09T08:06:30Z</time>
      </trkpt>
      <trkpt lat="44.12194" lon="6.32296">
        <ele>946</ele>
        <time>2018-08-09T08:06:32Z</time>
      </trkpt>
      <trkpt lat="44.12195" lon="6.32291">
        <ele>947.2</ele>
        <time>2018-08-09T08:06:53Z</time>
      </trkpt>
      <trkpt lat="44.12194" lon="6.32287">
        <ele>948.4</ele>
        <time>2018-08-09T08:06:56Z</time>
      </trkpt>
      <trkpt lat="44.12195" lon="6.32282">
        <ele>950.6</ele>
        <time>2018-08-09T08:06:59Z</time>
      </trkpt>
      <trkpt lat="44.12195" lon="6.32277">
        <ele>952.2</ele>
        <time>2018-08-09T08:07:01Z</time>
      </trkpt>
      <trkpt lat="44.12195" lon="6.32272">
        <ele>952.3</ele>
        <time>2018-08-09T08:07:04Z</time>
      </trkpt>
      <trkpt lat="44.12198" lon="6.32272">
        <ele>951.5</ele>
        <time>2018-08-09T08:07:06Z</time>
      </trkpt>
      <trkpt lat="44.12201" lon="6.32274">
        <ele>950.4</ele>
        <time>2018-08-09T08:07:09Z</time>
      </trkpt>
      <trkpt lat="44.12204" lon="6.32277">
        <ele>948.6</ele>
        <time>2018-08-09T08:07:12Z</time>
      </trkpt>
      <trkpt lat="44.12206" lon="6.3228">
        <ele>947.9</ele>
        <time>2018-08-09T08:07:55Z</time>
      </trkpt>
      <trkpt lat="44.12205" lon="6.3229">
        <ele>945.3</ele>
        <time>2018-08-09T08:08:48Z</time>
      </trkpt>
      <trkpt lat="44.12205" lon="6.32294">
        <ele>944.2</ele>
        <time>2018-08-09T08:08:49Z</time>
      </trkpt>
      <trkpt lat="44.12209" lon="6.323">
        <ele>942.4</ele>
        <time>2018-08-09T08:08:51Z</time>
      </trkpt>
      <trkpt lat="44.12211" lon="6.32305">
        <ele>940.9</ele>
        <time>2018-08-09T08:08:52Z</time>
      </trkpt>
      <trkpt lat="44.12213" lon="6.32309">
        <ele>939.7</ele>
        <time>2018-08-09T08:08:53Z</time>
      </trkpt>
      <trkpt lat="44.12214" lon="6.32315">
        <ele>938.1</ele>
        <time>2018-08-09T08:08:55Z</time>
      </trkpt>
      <trkpt lat="44.12214" lon="6.3232">
        <ele>936.8</ele>
        <time>2018-08-09T08:08:57Z</time>
      </trkpt>
      <trkpt lat="44.12217" lon="6.32324">
        <ele>936</ele>
        <time>2018-08-09T08:08:59Z</time>
      </trkpt>
      <trkpt lat="44.12219" lon="6.32328">
        <ele>935.5</ele>
        <time>2018-08-09T08:09:00Z</time>
      </trkpt>
      <trkpt lat="44.1222" lon="6.32333">
        <ele>935.1</ele>
        <time>2018-08-09T08:09:01Z</time>
      </trkpt>
      <trkpt lat="44.12223" lon="6.32338">
        <ele>934.6</ele>
        <time>2018-08-09T08:09:03Z</time>
      </trkpt>
      <trkpt lat="44.12224" lon="6.32341">
        <ele>934.3</ele>
        <time>2018-08-09T08:09:04Z</time>
      </trkpt>
      <trkpt lat="44.12226" lon="6.32345">
        <ele>934</ele>
        <time>2018-08-09T08:09:05Z</time>
      </trkpt>
      <trkpt lat="44.12226" lon="6.32349">
        <ele>933.6</ele>
        <time>2018-08-09T08:09:06Z</time>
      </trkpt>
      <trkpt lat="44.12226" lon="6.32354">
        <ele>933.3</ele>
        <time>2018-08-09T08:09:07Z</time>
      </trkpt>
      <trkpt lat="44.12226" lon="6.32358">
        <ele>932.7</ele>
        <time>2018-08-09T08:09:08Z</time>
      </trkpt>
      <trkpt lat="44.12227" lon="6.32362">
        <ele>932.1</ele>
        <time>2018-08-09T08:09:09Z</time>
      </trkpt>
      <trkpt lat="44.12229" lon="6.32368">
        <ele>930.5</ele>
        <time>2018-08-09T08:09:11Z</time>
      </trkpt>
      <trkpt lat="44.12231" lon="6.32365">
        <ele>929.4</ele>
        <time>2018-08-09T08:09:18Z</time>
      </trkpt>
      <trkpt lat="44.12235" lon="6.32365">
        <ele>928</ele>
        <time>2018-08-09T08:09:24Z</time>
      </trkpt>
      <trkpt lat="44.12238" lon="6.32366">
        <ele>927.9</ele>
        <time>2018-08-09T08:09:27Z</time>
      </trkpt>
      <trkpt lat="44.12241" lon="6.32365">
        <ele>927.8</ele>
        <time>2018-08-09T08:09:30Z</time>
      </trkpt>
      <trkpt lat="44.12243" lon="6.32361">
        <ele>927.6</ele>
        <time>2018-08-09T08:09:33Z</time>
      </trkpt>
      <trkpt lat="44.12245" lon="6.32358">
        <ele>927.4</ele>
        <time>2018-08-09T08:09:37Z</time>
      </trkpt>
      <trkpt lat="44.12246" lon="6.32354">
        <ele>927.1</ele>
        <time>2018-08-09T08:09:41Z</time>
      </trkpt>
      <trkpt lat="44.12247" lon="6.32351">
        <ele>926.7</ele>
        <time>2018-08-09T08:09:45Z</time>
      </trkpt>
      <trkpt lat="44.1225" lon="6.3235">
        <ele>926.3</ele>
        <time>2018-08-09T08:09:50Z</time>
      </trkpt>
      <trkpt lat="44.12253" lon="6.32349">
        <ele>925.9</ele>
        <time>2018-08-09T08:09:54Z</time>
      </trkpt>
      <trkpt lat="44.12256" lon="6.3235">
        <ele>925.7</ele>
        <time>2018-08-09T08:09:58Z</time>
      </trkpt>
      <trkpt lat="44.12259" lon="6.3235">
        <ele>925.3</ele>
        <time>2018-08-09T08:10:01Z</time>
      </trkpt>
      <trkpt lat="44.12261" lon="6.32353">
        <ele>924.8</ele>
        <time>2018-08-09T08:10:10Z</time>
      </trkpt>
      <trkpt lat="44.12261" lon="6.32357">
        <ele>924.2</ele>
        <time>2018-08-09T08:10:12Z</time>
      </trkpt>
      <trkpt lat="44.12259" lon="6.32362">
        <ele>923.5</ele>
        <time>2018-08-09T08:10:17Z</time>
      </trkpt>
      <trkpt lat="44.12256" lon="6.32367">
        <ele>922.8</ele>
        <time>2018-08-09T08:10:19Z</time>
      </trkpt>
      <trkpt lat="44.12255" lon="6.32372">
        <ele>922.3</ele>
        <time>2018-08-09T08:10:20Z</time>
      </trkpt>
      <trkpt lat="44.12256" lon="6.32378">
        <ele>922</ele>
        <time>2018-08-09T08:10:21Z</time>
      </trkpt>
      <trkpt lat="44.12257" lon="6.32384">
        <ele>921.6</ele>
        <time>2018-08-09T08:10:22Z</time>
      </trkpt>
      <trkpt lat="44.12258" lon="6.32393">
        <ele>920.6</ele>
        <time>2018-08-09T08:10:23Z</time>
      </trkpt>
      <trkpt lat="44.12259" lon="6.324">
        <ele>920.3</ele>
        <time>2018-08-09T08:10:24Z</time>
      </trkpt>
      <trkpt lat="44.12261" lon="6.32409">
        <ele>919.9</ele>
        <time>2018-08-09T08:10:25Z</time>
      </trkpt>
      <trkpt lat="44.12261" lon="6.32418">
        <ele>919</ele>
        <time>2018-08-09T08:10:26Z</time>
      </trkpt>
      <trkpt lat="44.1226" lon="6.32425">
        <ele>918.4</ele>
        <time>2018-08-09T08:10:27Z</time>
      </trkpt>
      <trkpt lat="44.12261" lon="6.32431">
        <ele>918</ele>
        <time>2018-08-09T08:10:28Z</time>
      </trkpt>
      <trkpt lat="44.12262" lon="6.32437">
        <ele>917.3</ele>
        <time>2018-08-09T08:10:29Z</time>
      </trkpt>
      <trkpt lat="44.12264" lon="6.32441">
        <ele>916.6</ele>
        <time>2018-08-09T08:10:30Z</time>
      </trkpt>
      <trkpt lat="44.12266" lon="6.32446">
        <ele>916.2</ele>
        <time>2018-08-09T08:10:31Z</time>
      </trkpt>
      <trkpt lat="44.12268" lon="6.32449">
        <ele>915.9</ele>
        <time>2018-08-09T08:10:32Z</time>
      </trkpt>
      <trkpt lat="44.12269" lon="6.32453">
        <ele>915.5</ele>
        <time>2018-08-09T08:10:33Z</time>
      </trkpt>
      <trkpt lat="44.1227" lon="6.32459">
        <ele>914.9</ele>
        <time>2018-08-09T08:10:34Z</time>
      </trkpt>
      <trkpt lat="44.12271" lon="6.32464">
        <ele>914.6</ele>
        <time>2018-08-09T08:10:35Z</time>
      </trkpt>
      <trkpt lat="44.12271" lon="6.32469">
        <ele>914.3</ele>
        <time>2018-08-09T08:10:36Z</time>
      </trkpt>
      <trkpt lat="44.12273" lon="6.32474">
        <ele>913.9</ele>
        <time>2018-08-09T08:10:37Z</time>
      </trkpt>
      <trkpt lat="44.12276" lon="6.3248">
        <ele>913.1</ele>
        <time>2018-08-09T08:10:38Z</time>
      </trkpt>
      <trkpt lat="44.12278" lon="6.32487">
        <ele>912.4</ele>
        <time>2018-08-09T08:10:39Z</time>
      </trkpt>
      <trkpt lat="44.12279" lon="6.32493">
        <ele>911.8</ele>
        <time>2018-08-09T08:10:40Z</time>
      </trkpt>
      <trkpt lat="44.12279" lon="6.32501">
        <ele>910.8</ele>
        <time>2018-08-09T08:10:41Z</time>
      </trkpt>
      <trkpt lat="44.12278" lon="6.32507">
        <ele>910.2</ele>
        <time>2018-08-09T08:10:42Z</time>
      </trkpt>
      <trkpt lat="44.12277" lon="6.32513">
        <ele>909</ele>
        <time>2018-08-09T08:10:43Z</time>
      </trkpt>
      <trkpt lat="44.12278" lon="6.3252">
        <ele>908.7</ele>
        <time>2018-08-09T08:10:44Z</time>
      </trkpt>
      <trkpt lat="44.12278" lon="6.32526">
        <ele>907.8</ele>
        <time>2018-08-09T08:10:45Z</time>
      </trkpt>
      <trkpt lat="44.12279" lon="6.3253">
        <ele>907.2</ele>
        <time>2018-08-09T08:10:46Z</time>
      </trkpt>
      <trkpt lat="44.12281" lon="6.32535">
        <ele>906.6</ele>
        <time>2018-08-09T08:10:47Z</time>
      </trkpt>
      <trkpt lat="44.12282" lon="6.32539">
        <ele>906.3</ele>
        <time>2018-08-09T08:10:48Z</time>
      </trkpt>
      <trkpt lat="44.12282" lon="6.32544">
        <ele>905.6</ele>
        <time>2018-08-09T08:10:53Z</time>
      </trkpt>
      <trkpt lat="44.12283" lon="6.3254">
        <ele>905.7</ele>
        <time>2018-08-09T08:11:01Z</time>
      </trkpt>
      <trkpt lat="44.12282" lon="6.32545">
        <ele>905.1</ele>
        <time>2018-08-09T08:11:06Z</time>
      </trkpt>
      <trkpt lat="44.1228" lon="6.32548">
        <ele>904.2</ele>
        <time>2018-08-09T08:11:07Z</time>
      </trkpt>
      <trkpt lat="44.12278" lon="6.32552">
        <ele>903.5</ele>
        <time>2018-08-09T08:11:08Z</time>
      </trkpt>
      <trkpt lat="44.12277" lon="6.32556">
        <ele>902.6</ele>
        <time>2018-08-09T08:11:09Z</time>
      </trkpt>
      <trkpt lat="44.12275" lon="6.32559">
        <ele>902.3</ele>
        <time>2018-08-09T08:11:10Z</time>
      </trkpt>
      <trkpt lat="44.12273" lon="6.32564">
        <ele>900.9</ele>
        <time>2018-08-09T08:11:12Z</time>
      </trkpt>
      <trkpt lat="44.12271" lon="6.3257">
        <ele>900</ele>
        <time>2018-08-09T08:11:14Z</time>
      </trkpt>
      <trkpt lat="44.1227" lon="6.32573">
        <ele>899.3</ele>
        <time>2018-08-09T08:11:15Z</time>
      </trkpt>
      <trkpt lat="44.12269" lon="6.32577">
        <ele>898.7</ele>
        <time>2018-08-09T08:11:16Z</time>
      </trkpt>
      <trkpt lat="44.12269" lon="6.32585">
        <ele>898.1</ele>
        <time>2018-08-09T08:11:18Z</time>
      </trkpt>
      <trkpt lat="44.12269" lon="6.32591">
        <ele>897.1</ele>
        <time>2018-08-09T08:11:19Z</time>
      </trkpt>
      <trkpt lat="44.12269" lon="6.32596">
        <ele>896.5</ele>
        <time>2018-08-09T08:11:20Z</time>
      </trkpt>
      <trkpt lat="44.12266" lon="6.32598">
        <ele>896</ele>
        <time>2018-08-09T08:11:22Z</time>
      </trkpt>
      <trkpt lat="44.12264" lon="6.32603">
        <ele>894.8</ele>
        <time>2018-08-09T08:11:24Z</time>
      </trkpt>
      <trkpt lat="44.12265" lon="6.32607">
        <ele>894.2</ele>
        <time>2018-08-09T08:11:25Z</time>
      </trkpt>
      <trkpt lat="44.12261" lon="6.32612">
        <ele>893.4</ele>
        <time>2018-08-09T08:11:27Z</time>
      </trkpt>
      <trkpt lat="44.12258" lon="6.32614">
        <ele>893</ele>
        <time>2018-08-09T08:11:28Z</time>
      </trkpt>
      <trkpt lat="44.12255" lon="6.32615">
        <ele>892.3</ele>
        <time>2018-08-09T08:11:29Z</time>
      </trkpt>
      <trkpt lat="44.12261" lon="6.32624">
        <ele>892</ele>
        <time>2018-08-09T08:11:30Z</time>
      </trkpt>
      <trkpt lat="44.12261" lon="6.32628">
        <ele>891.1</ele>
        <time>2018-08-09T08:11:31Z</time>
      </trkpt>
      <trkpt lat="44.1226" lon="6.32635">
        <ele>890.6</ele>
        <time>2018-08-09T08:11:32Z</time>
      </trkpt>
      <trkpt lat="44.1226" lon="6.32642">
        <ele>889.6</ele>
        <time>2018-08-09T08:11:33Z</time>
      </trkpt>
      <trkpt lat="44.1226" lon="6.32648">
        <ele>889.7</ele>
        <time>2018-08-09T08:11:34Z</time>
      </trkpt>
      <trkpt lat="44.1226" lon="6.32655">
        <ele>889.7</ele>
        <time>2018-08-09T08:11:35Z</time>
      </trkpt>
      <trkpt lat="44.12254" lon="6.32652">
        <ele>889.9</ele>
        <time>2018-08-09T08:11:36Z</time>
      </trkpt>
      <trkpt lat="44.1225" lon="6.32652">
        <ele>890</ele>
        <time>2018-08-09T08:11:37Z</time>
      </trkpt>
      <trkpt lat="44.12246" lon="6.32652">
        <ele>890</ele>
        <time>2018-08-09T08:11:38Z</time>
      </trkpt>
      <trkpt lat="44.12243" lon="6.32654">
        <ele>890.6</ele>
        <time>2018-08-09T08:11:39Z</time>
      </trkpt>
      <trkpt lat="44.12241" lon="6.32658">
        <ele>890.5</ele>
        <time>2018-08-09T08:11:40Z</time>
      </trkpt>
      <trkpt lat="44.1224" lon="6.32662">
        <ele>890.5</ele>
        <time>2018-08-09T08:11:48Z</time>
      </trkpt>
      <trkpt lat="44.12243" lon="6.32665">
        <ele>890.4</ele>
        <time>2018-08-09T08:11:51Z</time>
      </trkpt>
      <trkpt lat="44.12244" lon="6.3267">
        <ele>890.3</ele>
        <time>2018-08-09T08:11:53Z</time>
      </trkpt>
      <trkpt lat="44.12245" lon="6.32674">
        <ele>890.2</ele>
        <time>2018-08-09T08:11:54Z</time>
      </trkpt>
      <trkpt lat="44.12245" lon="6.32681">
        <ele>890</ele>
        <time>2018-08-09T08:11:56Z</time>
      </trkpt>
      <trkpt lat="44.12244" lon="6.32687">
        <ele>889.7</ele>
        <time>2018-08-09T08:11:58Z</time>
      </trkpt>
      <trkpt lat="44.12244" lon="6.32691">
        <ele>889.5</ele>
        <time>2018-08-09T08:12:00Z</time>
      </trkpt>
      <trkpt lat="44.12245" lon="6.32697">
        <ele>889.2</ele>
        <time>2018-08-09T08:12:02Z</time>
      </trkpt>
      <trkpt lat="44.12247" lon="6.32701">
        <ele>889.1</ele>
        <time>2018-08-09T08:12:04Z</time>
      </trkpt>
      <trkpt lat="44.12251" lon="6.32706">
        <ele>889</ele>
        <time>2018-08-09T08:12:06Z</time>
      </trkpt>
      <trkpt lat="44.12254" lon="6.32708">
        <ele>888.9</ele>
        <time>2018-08-09T08:12:07Z</time>
      </trkpt>
      <trkpt lat="44.12257" lon="6.3271">
        <ele>888.8</ele>
        <time>2018-08-09T08:12:09Z</time>
      </trkpt>
      <trkpt lat="44.1226" lon="6.3271">
        <ele>888.7</ele>
        <time>2018-08-09T08:12:11Z</time>
      </trkpt>
      <trkpt lat="44.12263" lon="6.32712">
        <ele>888.6</ele>
        <time>2018-08-09T08:12:13Z</time>
      </trkpt>
      <trkpt lat="44.12266" lon="6.32714">
        <ele>888.5</ele>
        <time>2018-08-09T08:12:15Z</time>
      </trkpt>
      <trkpt lat="44.12268" lon="6.32717">
        <ele>888.4</ele>
        <time>2018-08-09T08:12:21Z</time>
      </trkpt>
      <trkpt lat="44.12272" lon="6.32717">
        <ele>888.3</ele>
        <time>2018-08-09T08:12:25Z</time>
      </trkpt>
      <trkpt lat="44.12274" lon="6.32715">
        <ele>888.2</ele>
        <time>2018-08-09T08:12:27Z</time>
      </trkpt>
      <trkpt lat="44.12278" lon="6.32713">
        <ele>888</ele>
        <time>2018-08-09T08:12:29Z</time>
      </trkpt>
      <trkpt lat="44.12281" lon="6.32713">
        <ele>887.6</ele>
        <time>2018-08-09T08:12:30Z</time>
      </trkpt>
      <trkpt lat="44.12284" lon="6.32712">
        <ele>887.1</ele>
        <time>2018-08-09T08:12:31Z</time>
      </trkpt>
      <trkpt lat="44.12287" lon="6.32708">
        <ele>886.8</ele>
        <time>2018-08-09T08:12:33Z</time>
      </trkpt>
      <trkpt lat="44.1229" lon="6.32707">
        <ele>886.7</ele>
        <time>2018-08-09T08:12:37Z</time>
      </trkpt>
      <trkpt lat="44.12293" lon="6.32708">
        <ele>886.3</ele>
        <time>2018-08-09T08:12:42Z</time>
      </trkpt>
      <trkpt lat="44.12295" lon="6.3271">
        <ele>885.9</ele>
        <time>2018-08-09T08:12:45Z</time>
      </trkpt>
      <trkpt lat="44.12297" lon="6.32713">
        <ele>885.6</ele>
        <time>2018-08-09T08:12:49Z</time>
      </trkpt>
      <trkpt lat="44.12301" lon="6.32716">
        <ele>885.3</ele>
        <time>2018-08-09T08:12:52Z</time>
      </trkpt>
      <trkpt lat="44.12304" lon="6.32721">
        <ele>885.1</ele>
        <time>2018-08-09T08:12:55Z</time>
      </trkpt>
      <trkpt lat="44.12307" lon="6.32726">
        <ele>885</ele>
        <time>2018-08-09T08:12:57Z</time>
      </trkpt>
      <trkpt lat="44.12308" lon="6.32732">
        <ele>884.9</ele>
        <time>2018-08-09T08:12:59Z</time>
      </trkpt>
      <trkpt lat="44.12308" lon="6.32738">
        <ele>884.9</ele>
        <time>2018-08-09T08:13:00Z</time>
      </trkpt>
      <trkpt lat="44.12309" lon="6.32743">
        <ele>884.9</ele>
        <time>2018-08-09T08:13:01Z</time>
      </trkpt>
      <trkpt lat="44.12311" lon="6.32748">
        <ele>884.8</ele>
        <time>2018-08-09T08:13:02Z</time>
      </trkpt>
      <trkpt lat="44.12311" lon="6.32753">
        <ele>884.8</ele>
        <time>2018-08-09T08:13:03Z</time>
      </trkpt>
      <trkpt lat="44.12312" lon="6.32756">
        <ele>884.8</ele>
        <time>2018-08-09T08:13:05Z</time>
      </trkpt>
      <trkpt lat="44.12314" lon="6.3276">
        <ele>884.9</ele>
        <time>2018-08-09T08:13:06Z</time>
      </trkpt>
      <trkpt lat="44.12316" lon="6.32765">
        <ele>884.9</ele>
        <time>2018-08-09T08:13:09Z</time>
      </trkpt>
      <trkpt lat="44.12316" lon="6.3277">
        <ele>884.9</ele>
        <time>2018-08-09T08:13:11Z</time>
      </trkpt>
      <trkpt lat="44.12316" lon="6.32774">
        <ele>885</ele>
        <time>2018-08-09T08:13:12Z</time>
      </trkpt>
      <trkpt lat="44.12315" lon="6.32781">
        <ele>885</ele>
        <time>2018-08-09T08:13:14Z</time>
      </trkpt>
      <trkpt lat="44.12316" lon="6.32788">
        <ele>885.2</ele>
        <time>2018-08-09T08:13:16Z</time>
      </trkpt>
      <trkpt lat="44.12316" lon="6.32792">
        <ele>885.4</ele>
        <time>2018-08-09T08:13:17Z</time>
      </trkpt>
      <trkpt lat="44.12317" lon="6.32797">
        <ele>885.7</ele>
        <time>2018-08-09T08:13:19Z</time>
      </trkpt>
      <trkpt lat="44.1232" lon="6.328">
        <ele>886.2</ele>
        <time>2018-08-09T08:13:21Z</time>
      </trkpt>
      <trkpt lat="44.12323" lon="6.32802">
        <ele>886.6</ele>
        <time>2018-08-09T08:13:22Z</time>
      </trkpt>
      <trkpt lat="44.12325" lon="6.32808">
        <ele>887</ele>
        <time>2018-08-09T08:13:24Z</time>
      </trkpt>
      <trkpt lat="44.12327" lon="6.32812">
        <ele>887.3</ele>
        <time>2018-08-09T08:13:26Z</time>
      </trkpt>
      <trkpt lat="44.12329" lon="6.32816">
        <ele>887.7</ele>
        <time>2018-08-09T08:13:28Z</time>
      </trkpt>
      <trkpt lat="44.12331" lon="6.32819">
        <ele>888.2</ele>
        <time>2018-08-09T08:13:29Z</time>
      </trkpt>
      <trkpt lat="44.12333" lon="6.32823">
        <ele>889.1</ele>
        <time>2018-08-09T08:13:31Z</time>
      </trkpt>
      <trkpt lat="44.12334" lon="6.32828">
        <ele>889.6</ele>
        <time>2018-08-09T08:13:33Z</time>
      </trkpt>
      <trkpt lat="44.12336" lon="6.32831">
        <ele>890.1</ele>
        <time>2018-08-09T08:13:35Z</time>
      </trkpt>
      <trkpt lat="44.1234" lon="6.32834">
        <ele>890.9</ele>
        <time>2018-08-09T08:13:37Z</time>
      </trkpt>
      <trkpt lat="44.12344" lon="6.32838">
        <ele>891.5</ele>
        <time>2018-08-09T08:13:39Z</time>
      </trkpt>
      <trkpt lat="44.12348" lon="6.3284">
        <ele>891.7</ele>
        <time>2018-08-09T08:13:40Z</time>
      </trkpt>
      <trkpt lat="44.12351" lon="6.32842">
        <ele>891.9</ele>
        <time>2018-08-09T08:13:41Z</time>
      </trkpt>
      <trkpt lat="44.12353" lon="6.32847">
        <ele>892</ele>
        <time>2018-08-09T08:13:43Z</time>
      </trkpt>
      <trkpt lat="44.12355" lon="6.32851">
        <ele>892.1</ele>
        <time>2018-08-09T08:13:45Z</time>
      </trkpt>
      <trkpt lat="44.12358" lon="6.32854">
        <ele>892.1</ele>
        <time>2018-08-09T08:13:47Z</time>
      </trkpt>
      <trkpt lat="44.12363" lon="6.32852">
        <ele>892.1</ele>
        <time>2018-08-09T08:13:49Z</time>
      </trkpt>
      <trkpt lat="44.12365" lon="6.32849">
        <ele>892.1</ele>
        <time>2018-08-09T08:13:50Z</time>
      </trkpt>
      <trkpt lat="44.12366" lon="6.32846">
        <ele>892.1</ele>
        <time>2018-08-09T08:13:51Z</time>
      </trkpt>
      <trkpt lat="44.12372" lon="6.32845">
        <ele>892</ele>
        <time>2018-08-09T08:13:52Z</time>
      </trkpt>
      <trkpt lat="44.12376" lon="6.32842">
        <ele>891.8</ele>
        <time>2018-08-09T08:13:53Z</time>
      </trkpt>
      <trkpt lat="44.12381" lon="6.32839">
        <ele>891.3</ele>
        <time>2018-08-09T08:13:54Z</time>
      </trkpt>
      <trkpt lat="44.12385" lon="6.32836">
        <ele>891</ele>
        <time>2018-08-09T08:13:55Z</time>
      </trkpt>
      <trkpt lat="44.1239" lon="6.32832">
        <ele>890.7</ele>
        <time>2018-08-09T08:13:56Z</time>
      </trkpt>
      <trkpt lat="44.12394" lon="6.3283">
        <ele>890.6</ele>
        <time>2018-08-09T08:13:57Z</time>
      </trkpt>
      <trkpt lat="44.12399" lon="6.32827">
        <ele>890.4</ele>
        <time>2018-08-09T08:13:58Z</time>
      </trkpt>
      <trkpt lat="44.12402" lon="6.32824">
        <ele>890.3</ele>
        <time>2018-08-09T08:13:59Z</time>
      </trkpt>
      <trkpt lat="44.12406" lon="6.32819">
        <ele>890</ele>
        <time>2018-08-09T08:14:01Z</time>
      </trkpt>
      <trkpt lat="44.12405" lon="6.32815">
        <ele>889.9</ele>
        <time>2018-08-09T08:14:02Z</time>
      </trkpt>
      <trkpt lat="44.12408" lon="6.32811">
        <ele>889.3</ele>
        <time>2018-08-09T08:14:04Z</time>
      </trkpt>
      <trkpt lat="44.12411" lon="6.32811">
        <ele>888.6</ele>
        <time>2018-08-09T08:14:05Z</time>
      </trkpt>
      <trkpt lat="44.12415" lon="6.32815">
        <ele>888.4</ele>
        <time>2018-08-09T08:14:08Z</time>
      </trkpt>
      <trkpt lat="44.12419" lon="6.32818">
        <ele>888</ele>
        <time>2018-08-09T08:14:10Z</time>
      </trkpt>
      <trkpt lat="44.12422" lon="6.32821">
        <ele>887.8</ele>
        <time>2018-08-09T08:14:15Z</time>
      </trkpt>
      <trkpt lat="44.12425" lon="6.32821">
        <ele>887.6</ele>
        <time>2018-08-09T08:14:23Z</time>
      </trkpt>
      <trkpt lat="44.12427" lon="6.32819">
        <ele>887.5</ele>
        <time>2018-08-09T08:14:34Z</time>
      </trkpt>
      <trkpt lat="44.12429" lon="6.32823">
        <ele>887.3</ele>
        <time>2018-08-09T08:14:45Z</time>
      </trkpt>
      <trkpt lat="44.12431" lon="6.32826">
        <ele>887.1</ele>
        <time>2018-08-09T08:14:47Z</time>
      </trkpt>
      <trkpt lat="44.12432" lon="6.32829">
        <ele>886.9</ele>
        <time>2018-08-09T08:14:50Z</time>
      </trkpt>
      <trkpt lat="44.12437" lon="6.3283">
        <ele>886.6</ele>
        <time>2018-08-09T08:14:53Z</time>
      </trkpt>
      <trkpt lat="44.12441" lon="6.3283">
        <ele>886.6</ele>
        <time>2018-08-09T08:14:59Z</time>
      </trkpt>
      <trkpt lat="44.12444" lon="6.32829">
        <ele>887.1</ele>
        <time>2018-08-09T08:15:02Z</time>
      </trkpt>
      <trkpt lat="44.12448" lon="6.32828">
        <ele>887.9</ele>
        <time>2018-08-09T08:15:06Z</time>
      </trkpt>
      <trkpt lat="44.12451" lon="6.32829">
        <ele>888.6</ele>
        <time>2018-08-09T08:15:09Z</time>
      </trkpt>
      <trkpt lat="44.12455" lon="6.32831">
        <ele>889.2</ele>
        <time>2018-08-09T08:15:13Z</time>
      </trkpt>
      <trkpt lat="44.12457" lon="6.32833">
        <ele>889.7</ele>
        <time>2018-08-09T08:15:17Z</time>
      </trkpt>
      <trkpt lat="44.12459" lon="6.32838">
        <ele>890.3</ele>
        <time>2018-08-09T08:15:20Z</time>
      </trkpt>
      <trkpt lat="44.1246" lon="6.32841">
        <ele>890.9</ele>
        <time>2018-08-09T08:15:23Z</time>
      </trkpt>
      <trkpt lat="44.12459" lon="6.32845">
        <ele>891.4</ele>
        <time>2018-08-09T08:15:26Z</time>
      </trkpt>
      <trkpt lat="44.12458" lon="6.32849">
        <ele>891.9</ele>
        <time>2018-08-09T08:15:29Z</time>
      </trkpt>
      <trkpt lat="44.12459" lon="6.32854">
        <ele>892.6</ele>
        <time>2018-08-09T08:15:33Z</time>
      </trkpt>
      <trkpt lat="44.12462" lon="6.32856">
        <ele>893.4</ele>
        <time>2018-08-09T08:15:36Z</time>
      </trkpt>
      <trkpt lat="44.12465" lon="6.32858">
        <ele>894.3</ele>
        <time>2018-08-09T08:15:40Z</time>
      </trkpt>
      <trkpt lat="44.12468" lon="6.32858">
        <ele>895</ele>
        <time>2018-08-09T08:16:02Z</time>
      </trkpt>
      <trkpt lat="44.12471" lon="6.32861">
        <ele>895.9</ele>
        <time>2018-08-09T08:16:05Z</time>
      </trkpt>
      <trkpt lat="44.12472" lon="6.32864">
        <ele>896.6</ele>
        <time>2018-08-09T08:16:09Z</time>
      </trkpt>
      <trkpt lat="44.12474" lon="6.32867">
        <ele>897.4</ele>
        <time>2018-08-09T08:16:12Z</time>
      </trkpt>
      <trkpt lat="44.12477" lon="6.3287">
        <ele>898.3</ele>
        <time>2018-08-09T08:16:16Z</time>
      </trkpt>
      <trkpt lat="44.12479" lon="6.32873">
        <ele>899.1</ele>
        <time>2018-08-09T08:16:21Z</time>
      </trkpt>
      <trkpt lat="44.12482" lon="6.32875">
        <ele>899.9</ele>
        <time>2018-08-09T08:16:26Z</time>
      </trkpt>
      <trkpt lat="44.12485" lon="6.32877">
        <ele>900.6</ele>
        <time>2018-08-09T08:16:32Z</time>
      </trkpt>
      <trkpt lat="44.12488" lon="6.32877">
        <ele>901.3</ele>
        <time>2018-08-09T08:16:36Z</time>
      </trkpt>
      <trkpt lat="44.12491" lon="6.32879">
        <ele>902.1</ele>
        <time>2018-08-09T08:16:45Z</time>
      </trkpt>
      <trkpt lat="44.12494" lon="6.32881">
        <ele>902.8</ele>
        <time>2018-08-09T08:16:49Z</time>
      </trkpt>
      <trkpt lat="44.12497" lon="6.32883">
        <ele>903.5</ele>
        <time>2018-08-09T08:16:52Z</time>
      </trkpt>
      <trkpt lat="44.12498" lon="6.32886">
        <ele>904.2</ele>
        <time>2018-08-09T08:16:57Z</time>
      </trkpt>
      <trkpt lat="44.12499" lon="6.3289">
        <ele>904.9</ele>
        <time>2018-08-09T08:17:03Z</time>
      </trkpt>
      <trkpt lat="44.12499" lon="6.32894">
        <ele>905.7</ele>
        <time>2018-08-09T08:17:10Z</time>
      </trkpt>
      <trkpt lat="44.12502" lon="6.329">
        <ele>906.8</ele>
        <time>2018-08-09T08:17:15Z</time>
      </trkpt>
      <trkpt lat="44.12505" lon="6.32902">
        <ele>907.5</ele>
        <time>2018-08-09T08:17:18Z</time>
      </trkpt>
      <trkpt lat="44.12508" lon="6.32904">
        <ele>908.3</ele>
        <time>2018-08-09T08:17:25Z</time>
      </trkpt>
      <trkpt lat="44.1251" lon="6.32908">
        <ele>909</ele>
        <time>2018-08-09T08:17:28Z</time>
      </trkpt>
      <trkpt lat="44.12512" lon="6.32911">
        <ele>909.4</ele>
        <time>2018-08-09T08:17:30Z</time>
      </trkpt>
      <trkpt lat="44.12514" lon="6.32913">
        <ele>909.8</ele>
        <time>2018-08-09T08:17:32Z</time>
      </trkpt>
      <trkpt lat="44.12516" lon="6.32917">
        <ele>910.2</ele>
        <time>2018-08-09T08:17:34Z</time>
      </trkpt>
      <trkpt lat="44.12517" lon="6.32922">
        <ele>910.6</ele>
        <time>2018-08-09T08:17:39Z</time>
      </trkpt>
      <trkpt lat="44.12519" lon="6.32927">
        <ele>911.1</ele>
        <time>2018-08-09T08:17:41Z</time>
      </trkpt>
      <trkpt lat="44.12521" lon="6.32932">
        <ele>911.4</ele>
        <time>2018-08-09T08:17:43Z</time>
      </trkpt>
      <trkpt lat="44.12523" lon="6.32936">
        <ele>911.6</ele>
        <time>2018-08-09T08:17:45Z</time>
      </trkpt>
      <trkpt lat="44.12525" lon="6.32941">
        <ele>911.7</ele>
        <time>2018-08-09T08:17:47Z</time>
      </trkpt>
      <trkpt lat="44.12526" lon="6.32945">
        <ele>911.8</ele>
        <time>2018-08-09T08:17:49Z</time>
      </trkpt>
      <trkpt lat="44.12529" lon="6.3295">
        <ele>911.9</ele>
        <time>2018-08-09T08:17:51Z</time>
      </trkpt>
      <trkpt lat="44.12531" lon="6.32953">
        <ele>911.9</ele>
        <time>2018-08-09T08:17:53Z</time>
      </trkpt>
      <trkpt lat="44.12534" lon="6.32956">
        <ele>912</ele>
        <time>2018-08-09T08:17:55Z</time>
      </trkpt>
      <trkpt lat="44.12536" lon="6.32959">
        <ele>912</ele>
        <time>2018-08-09T08:17:57Z</time>
      </trkpt>
      <trkpt lat="44.12539" lon="6.32964">
        <ele>912.1</ele>
        <time>2018-08-09T08:17:59Z</time>
      </trkpt>
      <trkpt lat="44.12541" lon="6.32967">
        <ele>912.1</ele>
        <time>2018-08-09T08:18:00Z</time>
      </trkpt>
      <trkpt lat="44.12542" lon="6.3297">
        <ele>912.2</ele>
        <time>2018-08-09T08:18:01Z</time>
      </trkpt>
      <trkpt lat="44.12545" lon="6.32973">
        <ele>912.2</ele>
        <time>2018-08-09T08:18:02Z</time>
      </trkpt>
      <trkpt lat="44.12547" lon="6.32978">
        <ele>912.3</ele>
        <time>2018-08-09T08:18:04Z</time>
      </trkpt>
      <trkpt lat="44.12547" lon="6.32984">
        <ele>912.4</ele>
        <time>2018-08-09T08:18:06Z</time>
      </trkpt>
      <trkpt lat="44.1255" lon="6.32989">
        <ele>912.6</ele>
        <time>2018-08-09T08:18:08Z</time>
      </trkpt>
      <trkpt lat="44.12552" lon="6.32992">
        <ele>912.8</ele>
        <time>2018-08-09T08:18:10Z</time>
      </trkpt>
      <trkpt lat="44.12556" lon="6.32994">
        <ele>913</ele>
        <time>2018-08-09T08:18:12Z</time>
      </trkpt>
      <trkpt lat="44.12559" lon="6.32996">
        <ele>913.3</ele>
        <time>2018-08-09T08:18:14Z</time>
      </trkpt>
      <trkpt lat="44.12562" lon="6.32998">
        <ele>913.5</ele>
        <time>2018-08-09T08:18:16Z</time>
      </trkpt>
      <trkpt lat="44.12565" lon="6.33">
        <ele>913.7</ele>
        <time>2018-08-09T08:18:18Z</time>
      </trkpt>
      <trkpt lat="44.12568" lon="6.33">
        <ele>914</ele>
        <time>2018-08-09T08:18:21Z</time>
      </trkpt>
      <trkpt lat="44.12571" lon="6.33">
        <ele>914.2</ele>
        <time>2018-08-09T08:18:23Z</time>
      </trkpt>
      <trkpt lat="44.12574" lon="6.33003">
        <ele>914.3</ele>
        <time>2018-08-09T08:18:26Z</time>
      </trkpt>
      <trkpt lat="44.12578" lon="6.33003">
        <ele>914.6</ele>
        <time>2018-08-09T08:18:29Z</time>
      </trkpt>
      <trkpt lat="44.12581" lon="6.33002">
        <ele>914.8</ele>
        <time>2018-08-09T08:18:32Z</time>
      </trkpt>
      <trkpt lat="44.12586" lon="6.33001">
        <ele>915.2</ele>
        <time>2018-08-09T08:18:35Z</time>
      </trkpt>
      <trkpt lat="44.12589" lon="6.33001">
        <ele>915.5</ele>
        <time>2018-08-09T08:18:38Z</time>
      </trkpt>
      <trkpt lat="44.12592" lon="6.33004">
        <ele>915.7</ele>
        <time>2018-08-09T08:18:40Z</time>
      </trkpt>
      <trkpt lat="44.12591" lon="6.33007">
        <ele>916</ele>
        <time>2018-08-09T08:18:43Z</time>
      </trkpt>
      <trkpt lat="44.12589" lon="6.33011">
        <ele>916</ele>
        <time>2018-08-09T08:18:45Z</time>
      </trkpt>
      <trkpt lat="44.12586" lon="6.33013">
        <ele>916.1</ele>
        <time>2018-08-09T08:18:47Z</time>
      </trkpt>
      <trkpt lat="44.12582" lon="6.33015">
        <ele>916.2</ele>
        <time>2018-08-09T08:18:50Z</time>
      </trkpt>
      <trkpt lat="44.12579" lon="6.33018">
        <ele>916.3</ele>
        <time>2018-08-09T08:18:52Z</time>
      </trkpt>
      <trkpt lat="44.12577" lon="6.3302">
        <ele>916.4</ele>
        <time>2018-08-09T08:18:55Z</time>
      </trkpt>
      <trkpt lat="44.12574" lon="6.33022">
        <ele>916.4</ele>
        <time>2018-08-09T08:18:57Z</time>
      </trkpt>
      <trkpt lat="44.12572" lon="6.33025">
        <ele>916.5</ele>
        <time>2018-08-09T08:18:59Z</time>
      </trkpt>
      <trkpt lat="44.12569" lon="6.33028">
        <ele>916.6</ele>
        <time>2018-08-09T08:19:01Z</time>
      </trkpt>
      <trkpt lat="44.12566" lon="6.33032">
        <ele>916.7</ele>
        <time>2018-08-09T08:19:03Z</time>
      </trkpt>
      <trkpt lat="44.12563" lon="6.33034">
        <ele>916.8</ele>
        <time>2018-08-09T08:19:05Z</time>
      </trkpt>
      <trkpt lat="44.1256" lon="6.33037">
        <ele>917</ele>
        <time>2018-08-09T08:19:07Z</time>
      </trkpt>
      <trkpt lat="44.12556" lon="6.33039">
        <ele>917.1</ele>
        <time>2018-08-09T08:19:09Z</time>
      </trkpt>
      <trkpt lat="44.12553" lon="6.33042">
        <ele>917.2</ele>
        <time>2018-08-09T08:19:11Z</time>
      </trkpt>
      <trkpt lat="44.1255" lon="6.33046">
        <ele>917.4</ele>
        <time>2018-08-09T08:19:13Z</time>
      </trkpt>
      <trkpt lat="44.12546" lon="6.33047">
        <ele>917.6</ele>
        <time>2018-08-09T08:19:16Z</time>
      </trkpt>
      <trkpt lat="44.12542" lon="6.33047">
        <ele>917.7</ele>
        <time>2018-08-09T08:19:18Z</time>
      </trkpt>
      <trkpt lat="44.12539" lon="6.33046">
        <ele>917.8</ele>
        <time>2018-08-09T08:19:20Z</time>
      </trkpt>
      <trkpt lat="44.12535" lon="6.33043">
        <ele>918</ele>
        <time>2018-08-09T08:19:22Z</time>
      </trkpt>
      <trkpt lat="44.12531" lon="6.33042">
        <ele>918.2</ele>
        <time>2018-08-09T08:19:24Z</time>
      </trkpt>
      <trkpt lat="44.12528" lon="6.33043">
        <ele>918.3</ele>
        <time>2018-08-09T08:19:26Z</time>
      </trkpt>
      <trkpt lat="44.12525" lon="6.33045">
        <ele>918.5</ele>
        <time>2018-08-09T08:19:28Z</time>
      </trkpt>
      <trkpt lat="44.12521" lon="6.33048">
        <ele>918.6</ele>
        <time>2018-08-09T08:19:30Z</time>
      </trkpt>
      <trkpt lat="44.12517" lon="6.33051">
        <ele>918.8</ele>
        <time>2018-08-09T08:19:32Z</time>
      </trkpt>
      <trkpt lat="44.12514" lon="6.33053">
        <ele>919</ele>
        <time>2018-08-09T08:19:34Z</time>
      </trkpt>
      <trkpt lat="44.12511" lon="6.33058">
        <ele>919.2</ele>
        <time>2018-08-09T08:19:36Z</time>
      </trkpt>
      <trkpt lat="44.12508" lon="6.33062">
        <ele>919.4</ele>
        <time>2018-08-09T08:19:38Z</time>
      </trkpt>
      <trkpt lat="44.12505" lon="6.33065">
        <ele>919.5</ele>
        <time>2018-08-09T08:19:40Z</time>
      </trkpt>
      <trkpt lat="44.12501" lon="6.33067">
        <ele>919.7</ele>
        <time>2018-08-09T08:19:42Z</time>
      </trkpt>
      <trkpt lat="44.12499" lon="6.3307">
        <ele>919.8</ele>
        <time>2018-08-09T08:19:44Z</time>
      </trkpt>
      <trkpt lat="44.12495" lon="6.33074">
        <ele>920</ele>
        <time>2018-08-09T08:19:46Z</time>
      </trkpt>
      <trkpt lat="44.12493" lon="6.33078">
        <ele>920.1</ele>
        <time>2018-08-09T08:19:48Z</time>
      </trkpt>
      <trkpt lat="44.1249" lon="6.3308">
        <ele>920.3</ele>
        <time>2018-08-09T08:19:50Z</time>
      </trkpt>
      <trkpt lat="44.12487" lon="6.33083">
        <ele>920.4</ele>
        <time>2018-08-09T08:19:52Z</time>
      </trkpt>
      <trkpt lat="44.12483" lon="6.33087">
        <ele>920.6</ele>
        <time>2018-08-09T08:19:54Z</time>
      </trkpt>
      <trkpt lat="44.1248" lon="6.33091">
        <ele>920.8</ele>
        <time>2018-08-09T08:19:56Z</time>
      </trkpt>
      <trkpt lat="44.12477" lon="6.33094">
        <ele>920.9</ele>
        <time>2018-08-09T08:19:58Z</time>
      </trkpt>
      <trkpt lat="44.12474" lon="6.33097">
        <ele>921.1</ele>
        <time>2018-08-09T08:20:00Z</time>
      </trkpt>
      <trkpt lat="44.12471" lon="6.331">
        <ele>921.3</ele>
        <time>2018-08-09T08:20:02Z</time>
      </trkpt>
      <trkpt lat="44.12467" lon="6.33103">
        <ele>921.5</ele>
        <time>2018-08-09T08:20:04Z</time>
      </trkpt>
      <trkpt lat="44.12464" lon="6.33107">
        <ele>921.7</ele>
        <time>2018-08-09T08:20:06Z</time>
      </trkpt>
      <trkpt lat="44.12461" lon="6.33112">
        <ele>921.9</ele>
        <time>2018-08-09T08:20:08Z</time>
      </trkpt>
      <trkpt lat="44.12458" lon="6.33117">
        <ele>922.1</ele>
        <time>2018-08-09T08:20:10Z</time>
      </trkpt>
      <trkpt lat="44.12457" lon="6.33122">
        <ele>922.4</ele>
        <time>2018-08-09T08:20:12Z</time>
      </trkpt>
      <trkpt lat="44.12458" lon="6.33128">
        <ele>922.6</ele>
        <time>2018-08-09T08:20:14Z</time>
      </trkpt>
      <trkpt lat="44.12458" lon="6.33134">
        <ele>922.8</ele>
        <time>2018-08-09T08:20:16Z</time>
      </trkpt>
      <trkpt lat="44.12459" lon="6.3314">
        <ele>923.1</ele>
        <time>2018-08-09T08:20:18Z</time>
      </trkpt>
      <trkpt lat="44.12457" lon="6.33145">
        <ele>923.4</ele>
        <time>2018-08-09T08:20:20Z</time>
      </trkpt>
      <trkpt lat="44.12455" lon="6.33149">
        <ele>923.6</ele>
        <time>2018-08-09T08:20:22Z</time>
      </trkpt>
      <trkpt lat="44.12452" lon="6.33152">
        <ele>923.7</ele>
        <time>2018-08-09T08:20:24Z</time>
      </trkpt>
      <trkpt lat="44.12449" lon="6.33154">
        <ele>923.9</ele>
        <time>2018-08-09T08:20:26Z</time>
      </trkpt>
      <trkpt lat="44.12445" lon="6.33156">
        <ele>924.1</ele>
        <time>2018-08-09T08:20:28Z</time>
      </trkpt>
      <trkpt lat="44.12443" lon="6.33158">
        <ele>924.2</ele>
        <time>2018-08-09T08:20:29Z</time>
      </trkpt>
      <trkpt lat="44.12439" lon="6.33161">
        <ele>924.4</ele>
        <time>2018-08-09T08:20:31Z</time>
      </trkpt>
      <trkpt lat="44.12436" lon="6.33162">
        <ele>924.5</ele>
        <time>2018-08-09T08:20:33Z</time>
      </trkpt>
      <trkpt lat="44.12431" lon="6.33165">
        <ele>924.7</ele>
        <time>2018-08-09T08:20:35Z</time>
      </trkpt>
      <trkpt lat="44.12428" lon="6.33167">
        <ele>924.9</ele>
        <time>2018-08-09T08:20:37Z</time>
      </trkpt>
      <trkpt lat="44.12424" lon="6.33171">
        <ele>925</ele>
        <time>2018-08-09T08:20:39Z</time>
      </trkpt>
      <trkpt lat="44.12422" lon="6.33176">
        <ele>925.2</ele>
        <time>2018-08-09T08:20:41Z</time>
      </trkpt>
      <trkpt lat="44.1242" lon="6.33182">
        <ele>925.3</ele>
        <time>2018-08-09T08:20:43Z</time>
      </trkpt>
      <trkpt lat="44.1242" lon="6.33186">
        <ele>925.4</ele>
        <time>2018-08-09T08:20:44Z</time>
      </trkpt>
      <trkpt lat="44.12421" lon="6.33192">
        <ele>925.6</ele>
        <time>2018-08-09T08:20:46Z</time>
      </trkpt>
      <trkpt lat="44.12421" lon="6.33198">
        <ele>925.7</ele>
        <time>2018-08-09T08:20:48Z</time>
      </trkpt>
      <trkpt lat="44.12422" lon="6.33204">
        <ele>925.8</ele>
        <time>2018-08-09T08:20:50Z</time>
      </trkpt>
      <trkpt lat="44.12422" lon="6.3321">
        <ele>926</ele>
        <time>2018-08-09T08:20:52Z</time>
      </trkpt>
      <trkpt lat="44.12422" lon="6.33217">
        <ele>926.1</ele>
        <time>2018-08-09T08:20:54Z</time>
      </trkpt>
      <trkpt lat="44.12421" lon="6.33222">
        <ele>926.3</ele>
        <time>2018-08-09T08:20:56Z</time>
      </trkpt>
      <trkpt lat="44.12421" lon="6.33228">
        <ele>926.4</ele>
        <time>2018-08-09T08:20:58Z</time>
      </trkpt>
      <trkpt lat="44.1242" lon="6.33234">
        <ele>926.6</ele>
        <time>2018-08-09T08:21:00Z</time>
      </trkpt>
      <trkpt lat="44.12419" lon="6.33239">
        <ele>926.7</ele>
        <time>2018-08-09T08:21:02Z</time>
      </trkpt>
      <trkpt lat="44.12417" lon="6.33243">
        <ele>926.8</ele>
        <time>2018-08-09T08:21:04Z</time>
      </trkpt>
      <trkpt lat="44.12418" lon="6.33247">
        <ele>926.9</ele>
        <time>2018-08-09T08:23:16Z</time>
      </trkpt>
      <trkpt lat="44.12418" lon="6.33251">
        <ele>927.1</ele>
        <time>2018-08-09T08:23:19Z</time>
      </trkpt>
      <trkpt lat="44.12416" lon="6.33257">
        <ele>927.2</ele>
        <time>2018-08-09T08:23:21Z</time>
      </trkpt>
      <trkpt lat="44.12415" lon="6.33264">
        <ele>927.4</ele>
        <time>2018-08-09T08:23:23Z</time>
      </trkpt>
      <trkpt lat="44.12414" lon="6.33268">
        <ele>927.5</ele>
        <time>2018-08-09T08:23:24Z</time>
      </trkpt>
      <trkpt lat="44.12413" lon="6.33273">
        <ele>927.6</ele>
        <time>2018-08-09T08:23:25Z</time>
      </trkpt>
      <trkpt lat="44.12412" lon="6.33277">
        <ele>927.7</ele>
        <time>2018-08-09T08:23:26Z</time>
      </trkpt>
      <trkpt lat="44.12411" lon="6.33281">
        <ele>927.9</ele>
        <time>2018-08-09T08:23:27Z</time>
      </trkpt>
      <trkpt lat="44.12409" lon="6.33285">
        <ele>928</ele>
        <time>2018-08-09T08:23:28Z</time>
      </trkpt>
      <trkpt lat="44.12408" lon="6.33292">
        <ele>928.2</ele>
        <time>2018-08-09T08:23:30Z</time>
      </trkpt>
      <trkpt lat="44.12407" lon="6.33297">
        <ele>928.3</ele>
        <time>2018-08-09T08:23:31Z</time>
      </trkpt>
      <trkpt lat="44.12406" lon="6.33301">
        <ele>928.4</ele>
        <time>2018-08-09T08:23:32Z</time>
      </trkpt>
      <trkpt lat="44.12405" lon="6.33305">
        <ele>928.4</ele>
        <time>2018-08-09T08:23:33Z</time>
      </trkpt>
      <trkpt lat="44.12403" lon="6.33309">
        <ele>928.5</ele>
        <time>2018-08-09T08:23:34Z</time>
      </trkpt>
      <trkpt lat="44.12401" lon="6.33313">
        <ele>928.6</ele>
        <time>2018-08-09T08:23:35Z</time>
      </trkpt>
      <trkpt lat="44.12399" lon="6.33317">
        <ele>928.7</ele>
        <time>2018-08-09T08:23:36Z</time>
      </trkpt>
      <trkpt lat="44.12397" lon="6.33321">
        <ele>928.7</ele>
        <time>2018-08-09T08:23:37Z</time>
      </trkpt>
      <trkpt lat="44.12394" lon="6.33324">
        <ele>928.8</ele>
        <time>2018-08-09T08:23:38Z</time>
      </trkpt>
      <trkpt lat="44.12392" lon="6.33327">
        <ele>928.9</ele>
        <time>2018-08-09T08:23:39Z</time>
      </trkpt>
      <trkpt lat="44.1239" lon="6.3333">
        <ele>928.9</ele>
        <time>2018-08-09T08:23:40Z</time>
      </trkpt>
      <trkpt lat="44.12387" lon="6.33332">
        <ele>929</ele>
        <time>2018-08-09T08:23:41Z</time>
      </trkpt>
      <trkpt lat="44.12385" lon="6.33336">
        <ele>929.1</ele>
        <time>2018-08-09T08:23:42Z</time>
      </trkpt>
      <trkpt lat="44.12382" lon="6.33338">
        <ele>929.1</ele>
        <time>2018-08-09T08:23:43Z</time>
      </trkpt>
      <trkpt lat="44.12379" lon="6.3334">
        <ele>929.2</ele>
        <time>2018-08-09T08:23:44Z</time>
      </trkpt>
      <trkpt lat="44.12377" lon="6.33342">
        <ele>929.3</ele>
        <time>2018-08-09T08:23:45Z</time>
      </trkpt>
      <trkpt lat="44.12374" lon="6.33343">
        <ele>929.4</ele>
        <time>2018-08-09T08:23:46Z</time>
      </trkpt>
      <trkpt lat="44.12369" lon="6.33343">
        <ele>929.6</ele>
        <time>2018-08-09T08:23:48Z</time>
      </trkpt>
      <trkpt lat="44.12363" lon="6.33343">
        <ele>929.8</ele>
        <time>2018-08-09T08:23:50Z</time>
      </trkpt>
      <trkpt lat="44.1236" lon="6.33343">
        <ele>929.9</ele>
        <time>2018-08-09T08:23:51Z</time>
      </trkpt>
      <trkpt lat="44.12357" lon="6.33343">
        <ele>930.1</ele>
        <time>2018-08-09T08:23:52Z</time>
      </trkpt>
      <trkpt lat="44.12354" lon="6.33343">
        <ele>930.2</ele>
        <time>2018-08-09T08:23:53Z</time>
      </trkpt>
      <trkpt lat="44.12351" lon="6.33343">
        <ele>930.3</ele>
        <time>2018-08-09T08:23:54Z</time>
      </trkpt>
      <trkpt lat="44.12348" lon="6.33342">
        <ele>930.4</ele>
        <time>2018-08-09T08:23:55Z</time>
      </trkpt>
      <trkpt lat="44.12345" lon="6.33342">
        <ele>930.6</ele>
        <time>2018-08-09T08:23:56Z</time>
      </trkpt>
      <trkpt lat="44.12342" lon="6.33343">
        <ele>930.7</ele>
        <time>2018-08-09T08:23:57Z</time>
      </trkpt>
      <trkpt lat="44.12339" lon="6.33344">
        <ele>930.8</ele>
        <time>2018-08-09T08:23:58Z</time>
      </trkpt>
      <trkpt lat="44.12335" lon="6.33344">
        <ele>930.9</ele>
        <time>2018-08-09T08:23:59Z</time>
      </trkpt>
      <trkpt lat="44.12332" lon="6.33345">
        <ele>931.1</ele>
        <time>2018-08-09T08:24:00Z</time>
      </trkpt>
      <trkpt lat="44.12329" lon="6.33346">
        <ele>931.2</ele>
        <time>2018-08-09T08:24:01Z</time>
      </trkpt>
      <trkpt lat="44.12324" lon="6.33347">
        <ele>931.4</ele>
        <time>2018-08-09T08:24:03Z</time>
      </trkpt>
      <trkpt lat="44.12319" lon="6.33348">
        <ele>931.6</ele>
        <time>2018-08-09T08:24:05Z</time>
      </trkpt>
      <trkpt lat="44.12316" lon="6.33349">
        <ele>931.7</ele>
        <time>2018-08-09T08:24:06Z</time>
      </trkpt>
      <trkpt lat="44.12314" lon="6.3335">
        <ele>931.8</ele>
        <time>2018-08-09T08:24:07Z</time>
      </trkpt>
      <trkpt lat="44.1231" lon="6.33352">
        <ele>931.9</ele>
        <time>2018-08-09T08:24:08Z</time>
      </trkpt>
      <trkpt lat="44.12307" lon="6.33353">
        <ele>932</ele>
        <time>2018-08-09T08:24:09Z</time>
      </trkpt>
      <trkpt lat="44.12304" lon="6.33353">
        <ele>932.1</ele>
        <time>2018-08-09T08:24:10Z</time>
      </trkpt>
      <trkpt lat="44.12302" lon="6.33354">
        <ele>932.2</ele>
        <time>2018-08-09T08:24:11Z</time>
      </trkpt>
      <trkpt lat="44.12299" lon="6.33355">
        <ele>932.3</ele>
        <time>2018-08-09T08:24:12Z</time>
      </trkpt>
      <trkpt lat="44.12294" lon="6.33356">
        <ele>932.4</ele>
        <time>2018-08-09T08:24:14Z</time>
      </trkpt>
      <trkpt lat="44.1229" lon="6.33358">
        <ele>932.5</ele>
        <time>2018-08-09T08:24:16Z</time>
      </trkpt>
      <trkpt lat="44.12287" lon="6.33359">
        <ele>932.6</ele>
        <time>2018-08-09T08:24:17Z</time>
      </trkpt>
      <trkpt lat="44.12283" lon="6.3336">
        <ele>932.8</ele>
        <time>2018-08-09T08:24:19Z</time>
      </trkpt>
      <trkpt lat="44.12278" lon="6.33361">
        <ele>932.9</ele>
        <time>2018-08-09T08:24:21Z</time>
      </trkpt>
      <trkpt lat="44.12274" lon="6.33362">
        <ele>933</ele>
        <time>2018-08-09T08:24:23Z</time>
      </trkpt>
      <trkpt lat="44.12269" lon="6.33362">
        <ele>933.1</ele>
        <time>2018-08-09T08:24:25Z</time>
      </trkpt>
      <trkpt lat="44.12266" lon="6.33364">
        <ele>933.2</ele>
        <time>2018-08-09T08:24:26Z</time>
      </trkpt>
      <trkpt lat="44.12262" lon="6.33366">
        <ele>933.3</ele>
        <time>2018-08-09T08:24:28Z</time>
      </trkpt>
      <trkpt lat="44.12258" lon="6.3337">
        <ele>933.5</ele>
        <time>2018-08-09T08:24:30Z</time>
      </trkpt>
      <trkpt lat="44.12254" lon="6.33373">
        <ele>933.6</ele>
        <time>2018-08-09T08:24:32Z</time>
      </trkpt>
      <trkpt lat="44.12251" lon="6.33375">
        <ele>933.7</ele>
        <time>2018-08-09T08:24:33Z</time>
      </trkpt>
      <trkpt lat="44.12248" lon="6.33375">
        <ele>933.7</ele>
        <time>2018-08-09T08:24:34Z</time>
      </trkpt>
      <trkpt lat="44.12245" lon="6.33376">
        <ele>933.8</ele>
        <time>2018-08-09T08:24:35Z</time>
      </trkpt>
      <trkpt lat="44.12242" lon="6.33377">
        <ele>933.9</ele>
        <time>2018-08-09T08:24:36Z</time>
      </trkpt>
      <trkpt lat="44.12235" lon="6.33377">
        <ele>934.1</ele>
        <time>2018-08-09T08:24:39Z</time>
      </trkpt>
      <trkpt lat="44.12228" lon="6.33376">
        <ele>934.2</ele>
        <time>2018-08-09T08:24:42Z</time>
      </trkpt>
      <trkpt lat="44.12224" lon="6.33375">
        <ele>934.3</ele>
        <time>2018-08-09T08:24:43Z</time>
      </trkpt>
      <trkpt lat="44.12221" lon="6.33375">
        <ele>934.3</ele>
        <time>2018-08-09T08:24:44Z</time>
      </trkpt>
      <trkpt lat="44.12216" lon="6.33375">
        <ele>934.4</ele>
        <time>2018-08-09T08:24:46Z</time>
      </trkpt>
      <trkpt lat="44.12213" lon="6.33374">
        <ele>934.4</ele>
        <time>2018-08-09T08:24:47Z</time>
      </trkpt>
      <trkpt lat="44.12208" lon="6.33374">
        <ele>934.4</ele>
        <time>2018-08-09T08:24:49Z</time>
      </trkpt>
      <trkpt lat="44.12205" lon="6.33373">
        <ele>934.5</ele>
        <time>2018-08-09T08:24:50Z</time>
      </trkpt>
      <trkpt lat="44.12202" lon="6.33372">
        <ele>934.5</ele>
        <time>2018-08-09T08:24:51Z</time>
      </trkpt>
      <trkpt lat="44.12197" lon="6.3337">
        <ele>934.6</ele>
        <time>2018-08-09T08:24:53Z</time>
      </trkpt>
      <trkpt lat="44.12192" lon="6.3337">
        <ele>934.6</ele>
        <time>2018-08-09T08:24:55Z</time>
      </trkpt>
      <trkpt lat="44.12189" lon="6.3337">
        <ele>934.7</ele>
        <time>2018-08-09T08:24:56Z</time>
      </trkpt>
      <trkpt lat="44.12186" lon="6.3337">
        <ele>934.7</ele>
        <time>2018-08-09T08:24:57Z</time>
      </trkpt>
      <trkpt lat="44.12182" lon="6.33371">
        <ele>934.8</ele>
        <time>2018-08-09T08:24:59Z</time>
      </trkpt>
      <trkpt lat="44.12177" lon="6.3337">
        <ele>934.9</ele>
        <time>2018-08-09T08:25:01Z</time>
      </trkpt>
      <trkpt lat="44.12174" lon="6.33369">
        <ele>935</ele>
        <time>2018-08-09T08:25:02Z</time>
      </trkpt>
      <trkpt lat="44.12169" lon="6.33368">
        <ele>935.1</ele>
        <time>2018-08-09T08:25:04Z</time>
      </trkpt>
      <trkpt lat="44.12164" lon="6.33368">
        <ele>935.3</ele>
        <time>2018-08-09T08:25:06Z</time>
      </trkpt>
      <trkpt lat="44.12159" lon="6.33368">
        <ele>935.6</ele>
        <time>2018-08-09T08:25:08Z</time>
      </trkpt>
      <trkpt lat="44.12156" lon="6.33369">
        <ele>935.8</ele>
        <time>2018-08-09T08:25:09Z</time>
      </trkpt>
      <trkpt lat="44.12151" lon="6.33372">
        <ele>936</ele>
        <time>2018-08-09T08:25:11Z</time>
      </trkpt>
      <trkpt lat="44.12149" lon="6.33372">
        <ele>936.2</ele>
        <time>2018-08-09T08:25:12Z</time>
      </trkpt>
      <trkpt lat="44.12146" lon="6.33374">
        <ele>936.3</ele>
        <time>2018-08-09T08:25:13Z</time>
      </trkpt>
      <trkpt lat="44.12142" lon="6.33379">
        <ele>936.6</ele>
        <time>2018-08-09T08:25:15Z</time>
      </trkpt>
      <trkpt lat="44.1214" lon="6.33382">
        <ele>936.7</ele>
        <time>2018-08-09T08:25:16Z</time>
      </trkpt>
      <trkpt lat="44.12138" lon="6.33388">
        <ele>937.1</ele>
        <time>2018-08-09T08:25:18Z</time>
      </trkpt>
      <trkpt lat="44.12137" lon="6.33393">
        <ele>937.7</ele>
        <time>2018-08-09T08:25:20Z</time>
      </trkpt>
      <trkpt lat="44.12136" lon="6.334">
        <ele>938</ele>
        <time>2018-08-09T08:25:22Z</time>
      </trkpt>
      <trkpt lat="44.12136" lon="6.33403">
        <ele>938</ele>
        <time>2018-08-09T08:25:23Z</time>
      </trkpt>
      <trkpt lat="44.12136" lon="6.33409">
        <ele>938</ele>
        <time>2018-08-09T08:25:25Z</time>
      </trkpt>
      <trkpt lat="44.12137" lon="6.33414">
        <ele>938</ele>
        <time>2018-08-09T08:25:27Z</time>
      </trkpt>
      <trkpt lat="44.12139" lon="6.33413">
        <ele>940.1</ele>
        <time>2018-08-09T08:25:30Z</time>
      </trkpt>
      <trkpt lat="44.12137" lon="6.33413">
        <ele>940.2</ele>
        <time>2018-08-09T08:25:43Z</time>
      </trkpt>
      <trkpt lat="44.12136" lon="6.33413">
        <ele>940.3</ele>
        <time>2018-08-09T08:32:39Z</time>
      </trkpt>
      <trkpt lat="44.12135" lon="6.33413">
        <ele>940.5</ele>
        <time>2018-08-09T08:32:40Z</time>
      </trkpt>
      <trkpt lat="44.12133" lon="6.33411">
        <ele>940.2</ele>
        <time>2018-08-09T08:32:44Z</time>
      </trkpt>
      <trkpt lat="44.12136" lon="6.33413">
        <ele>939.8</ele>
        <time>2018-08-09T08:32:55Z</time>
      </trkpt>
      <trkpt lat="44.12139" lon="6.33415">
        <ele>939.5</ele>
        <time>2018-08-09T08:32:57Z</time>
      </trkpt>
      <trkpt lat="44.12141" lon="6.33416">
        <ele>939.2</ele>
        <time>2018-08-09T08:33:00Z</time>
      </trkpt>
      <trkpt lat="44.12147" lon="6.33411">
        <ele>938.6</ele>
        <time>2018-08-09T08:42:53Z</time>
      </trkpt>
      <trkpt lat="44.12148" lon="6.33407">
        <ele>938.2</ele>
        <time>2018-08-09T08:42:55Z</time>
      </trkpt>
      <trkpt lat="44.12146" lon="6.33403">
        <ele>938</ele>
        <time>2018-08-09T08:42:58Z</time>
      </trkpt>
      <trkpt lat="44.12148" lon="6.33399">
        <ele>938</ele>
        <time>2018-08-09T08:43:00Z</time>
      </trkpt>
      <trkpt lat="44.1215" lon="6.33403">
        <ele>938</ele>
        <time>2018-08-09T08:43:03Z</time>
      </trkpt>
      <trkpt lat="44.12154" lon="6.33405">
        <ele>938.4</ele>
        <time>2018-08-09T08:43:06Z</time>
      </trkpt>
      <trkpt lat="44.12156" lon="6.33402">
        <ele>939.2</ele>
        <time>2018-08-09T08:43:08Z</time>
      </trkpt>
      <trkpt lat="44.12159" lon="6.33401">
        <ele>939.9</ele>
        <time>2018-08-09T08:43:10Z</time>
      </trkpt>
      <trkpt lat="44.12162" lon="6.33403">
        <ele>940.8</ele>
        <time>2018-08-09T08:43:13Z</time>
      </trkpt>
      <trkpt lat="44.12166" lon="6.33405">
        <ele>941.7</ele>
        <time>2018-08-09T08:43:16Z</time>
      </trkpt>
      <trkpt lat="44.12169" lon="6.33406">
        <ele>942.5</ele>
        <time>2018-08-09T08:43:19Z</time>
      </trkpt>
      <trkpt lat="44.12172" lon="6.33407">
        <ele>943</ele>
        <time>2018-08-09T08:43:21Z</time>
      </trkpt>
      <trkpt lat="44.12175" lon="6.33409">
        <ele>943</ele>
        <time>2018-08-09T08:43:23Z</time>
      </trkpt>
      <trkpt lat="44.12179" lon="6.3341">
        <ele>943</ele>
        <time>2018-08-09T08:43:26Z</time>
      </trkpt>
      <trkpt lat="44.12182" lon="6.33412">
        <ele>943</ele>
        <time>2018-08-09T08:43:29Z</time>
      </trkpt>
      <trkpt lat="44.12186" lon="6.33413">
        <ele>943</ele>
        <time>2018-08-09T08:43:32Z</time>
      </trkpt>
      <trkpt lat="44.12189" lon="6.33412">
        <ele>943</ele>
        <time>2018-08-09T08:43:34Z</time>
      </trkpt>
      <trkpt lat="44.12192" lon="6.33414">
        <ele>943.5</ele>
        <time>2018-08-09T08:43:36Z</time>
      </trkpt>
      <trkpt lat="44.12196" lon="6.33417">
        <ele>945.4</ele>
        <time>2018-08-09T08:43:39Z</time>
      </trkpt>
      <trkpt lat="44.12199" lon="6.33417">
        <ele>946.6</ele>
        <time>2018-08-09T08:43:41Z</time>
      </trkpt>
      <trkpt lat="44.12202" lon="6.33418">
        <ele>947.9</ele>
        <time>2018-08-09T08:43:43Z</time>
      </trkpt>
      <trkpt lat="44.12206" lon="6.3342">
        <ele>949.4</ele>
        <time>2018-08-09T08:43:45Z</time>
      </trkpt>
      <trkpt lat="44.12209" lon="6.3342">
        <ele>950.6</ele>
        <time>2018-08-09T08:43:47Z</time>
      </trkpt>
      <trkpt lat="44.12213" lon="6.33422">
        <ele>951.6</ele>
        <time>2018-08-09T08:43:49Z</time>
      </trkpt>
      <trkpt lat="44.12217" lon="6.33424">
        <ele>952.5</ele>
        <time>2018-08-09T08:43:51Z</time>
      </trkpt>
      <trkpt lat="44.1222" lon="6.33425">
        <ele>953.3</ele>
        <time>2018-08-09T08:43:53Z</time>
      </trkpt>
      <trkpt lat="44.12224" lon="6.33426">
        <ele>954.2</ele>
        <time>2018-08-09T08:43:55Z</time>
      </trkpt>
      <trkpt lat="44.12227" lon="6.33427">
        <ele>954.9</ele>
        <time>2018-08-09T08:43:57Z</time>
      </trkpt>
      <trkpt lat="44.12231" lon="6.33429">
        <ele>955.6</ele>
        <time>2018-08-09T08:43:59Z</time>
      </trkpt>
      <trkpt lat="44.12235" lon="6.3343">
        <ele>956.1</ele>
        <time>2018-08-09T08:44:01Z</time>
      </trkpt>
      <trkpt lat="44.12239" lon="6.33432">
        <ele>956.8</ele>
        <time>2018-08-09T08:44:03Z</time>
      </trkpt>
      <trkpt lat="44.12243" lon="6.33433">
        <ele>957.4</ele>
        <time>2018-08-09T08:44:05Z</time>
      </trkpt>
      <trkpt lat="44.12247" lon="6.33435">
        <ele>958</ele>
        <time>2018-08-09T08:44:07Z</time>
      </trkpt>
      <trkpt lat="44.12251" lon="6.33436">
        <ele>958.7</ele>
        <time>2018-08-09T08:44:09Z</time>
      </trkpt>
      <trkpt lat="44.12254" lon="6.33436">
        <ele>959</ele>
        <time>2018-08-09T08:44:11Z</time>
      </trkpt>
      <trkpt lat="44.12257" lon="6.33435">
        <ele>959</ele>
        <time>2018-08-09T08:44:13Z</time>
      </trkpt>
      <trkpt lat="44.12261" lon="6.33433">
        <ele>959.1</ele>
        <time>2018-08-09T08:44:15Z</time>
      </trkpt>
      <trkpt lat="44.12265" lon="6.33432">
        <ele>959.2</ele>
        <time>2018-08-09T08:44:17Z</time>
      </trkpt>
      <trkpt lat="44.12271" lon="6.3343">
        <ele>959.2</ele>
        <time>2018-08-09T08:44:19Z</time>
      </trkpt>
      <trkpt lat="44.12274" lon="6.3343">
        <ele>959.3</ele>
        <time>2018-08-09T08:44:20Z</time>
      </trkpt>
      <trkpt lat="44.12277" lon="6.3343">
        <ele>959.3</ele>
        <time>2018-08-09T08:44:21Z</time>
      </trkpt>
      <trkpt lat="44.12282" lon="6.33429">
        <ele>959.4</ele>
        <time>2018-08-09T08:44:23Z</time>
      </trkpt>
      <trkpt lat="44.12285" lon="6.33428">
        <ele>959.4</ele>
        <time>2018-08-09T08:44:24Z</time>
      </trkpt>
      <trkpt lat="44.12289" lon="6.33427">
        <ele>959.5</ele>
        <time>2018-08-09T08:44:25Z</time>
      </trkpt>
      <trkpt lat="44.12293" lon="6.33425">
        <ele>959.5</ele>
        <time>2018-08-09T08:44:27Z</time>
      </trkpt>
      <trkpt lat="44.12296" lon="6.33423">
        <ele>959.5</ele>
        <time>2018-08-09T08:44:29Z</time>
      </trkpt>
      <trkpt lat="44.12303" lon="6.33423">
        <ele>959.5</ele>
        <time>2018-08-09T08:44:31Z</time>
      </trkpt>
      <trkpt lat="44.12307" lon="6.33423">
        <ele>959.5</ele>
        <time>2018-08-09T08:44:32Z</time>
      </trkpt>
      <trkpt lat="44.1231" lon="6.33422">
        <ele>959.5</ele>
        <time>2018-08-09T08:44:33Z</time>
      </trkpt>
      <trkpt lat="44.12314" lon="6.33421">
        <ele>959.5</ele>
        <time>2018-08-09T08:44:34Z</time>
      </trkpt>
      <trkpt lat="44.12319" lon="6.33418">
        <ele>959.4</ele>
        <time>2018-08-09T08:44:36Z</time>
      </trkpt>
      <trkpt lat="44.12325" lon="6.33414">
        <ele>959.3</ele>
        <time>2018-08-09T08:44:38Z</time>
      </trkpt>
      <trkpt lat="44.12327" lon="6.33412">
        <ele>959.3</ele>
        <time>2018-08-09T08:44:39Z</time>
      </trkpt>
      <trkpt lat="44.12331" lon="6.33411">
        <ele>959.3</ele>
        <time>2018-08-09T08:44:40Z</time>
      </trkpt>
      <trkpt lat="44.12334" lon="6.3341">
        <ele>959.3</ele>
        <time>2018-08-09T08:44:41Z</time>
      </trkpt>
      <trkpt lat="44.12337" lon="6.33409">
        <ele>959.4</ele>
        <time>2018-08-09T08:44:42Z</time>
      </trkpt>
      <trkpt lat="44.12341" lon="6.33408">
        <ele>959.4</ele>
        <time>2018-08-09T08:44:43Z</time>
      </trkpt>
      <trkpt lat="44.12345" lon="6.33407">
        <ele>959.4</ele>
        <time>2018-08-09T08:44:44Z</time>
      </trkpt>
      <trkpt lat="44.12348" lon="6.33406">
        <ele>959.5</ele>
        <time>2018-08-09T08:44:45Z</time>
      </trkpt>
      <trkpt lat="44.12352" lon="6.33404">
        <ele>959.5</ele>
        <time>2018-08-09T08:44:46Z</time>
      </trkpt>
      <trkpt lat="44.12356" lon="6.33402">
        <ele>959.6</ele>
        <time>2018-08-09T08:44:47Z</time>
      </trkpt>
      <trkpt lat="44.1236" lon="6.33402">
        <ele>959.7</ele>
        <time>2018-08-09T08:44:48Z</time>
      </trkpt>
      <trkpt lat="44.12365" lon="6.33402">
        <ele>959.8</ele>
        <time>2018-08-09T08:44:49Z</time>
      </trkpt>
      <trkpt lat="44.1237" lon="6.33404">
        <ele>959.9</ele>
        <time>2018-08-09T08:44:50Z</time>
      </trkpt>
      <trkpt lat="44.12376" lon="6.33406">
        <ele>960</ele>
        <time>2018-08-09T08:44:51Z</time>
      </trkpt>
      <trkpt lat="44.12381" lon="6.33411">
        <ele>960.1</ele>
        <time>2018-08-09T08:44:52Z</time>
      </trkpt>
      <trkpt lat="44.12387" lon="6.33414">
        <ele>960.1</ele>
        <time>2018-08-09T08:44:53Z</time>
      </trkpt>
      <trkpt lat="44.12393" lon="6.33417">
        <ele>960.2</ele>
        <time>2018-08-09T08:44:54Z</time>
      </trkpt>
      <trkpt lat="44.12398" lon="6.33421">
        <ele>960.3</ele>
        <time>2018-08-09T08:44:55Z</time>
      </trkpt>
      <trkpt lat="44.12404" lon="6.33423">
        <ele>960.4</ele>
        <time>2018-08-09T08:44:56Z</time>
      </trkpt>
      <trkpt lat="44.12408" lon="6.33424">
        <ele>960.5</ele>
        <time>2018-08-09T08:44:57Z</time>
      </trkpt>
      <trkpt lat="44.12411" lon="6.33426">
        <ele>960.5</ele>
        <time>2018-08-09T08:44:58Z</time>
      </trkpt>
      <trkpt lat="44.12414" lon="6.33427">
        <ele>960.6</ele>
        <time>2018-08-09T08:44:59Z</time>
      </trkpt>
      <trkpt lat="44.12417" lon="6.33429">
        <ele>960.6</ele>
        <time>2018-08-09T08:45:00Z</time>
      </trkpt>
      <trkpt lat="44.1242" lon="6.3343">
        <ele>960.6</ele>
        <time>2018-08-09T08:45:01Z</time>
      </trkpt>
      <trkpt lat="44.12423" lon="6.33433">
        <ele>960.7</ele>
        <time>2018-08-09T08:45:02Z</time>
      </trkpt>
      <trkpt lat="44.12426" lon="6.33433">
        <ele>960.7</ele>
        <time>2018-08-09T08:45:03Z</time>
      </trkpt>
      <trkpt lat="44.12428" lon="6.33435">
        <ele>960.8</ele>
        <time>2018-08-09T08:45:04Z</time>
      </trkpt>
      <trkpt lat="44.12432" lon="6.33438">
        <ele>960.8</ele>
        <time>2018-08-09T08:45:06Z</time>
      </trkpt>
      <trkpt lat="44.12436" lon="6.33439">
        <ele>960.8</ele>
        <time>2018-08-09T08:45:08Z</time>
      </trkpt>
      <trkpt lat="44.1244" lon="6.33441">
        <ele>960.9</ele>
        <time>2018-08-09T08:45:10Z</time>
      </trkpt>
      <trkpt lat="44.12444" lon="6.33443">
        <ele>960.9</ele>
        <time>2018-08-09T08:45:12Z</time>
      </trkpt>
      <trkpt lat="44.12447" lon="6.33448">
        <ele>961</ele>
        <time>2018-08-09T08:45:14Z</time>
      </trkpt>
      <trkpt lat="44.1245" lon="6.33452">
        <ele>960.4</ele>
        <time>2018-08-09T08:45:15Z</time>
      </trkpt>
      <trkpt lat="44.12452" lon="6.33456">
        <ele>960</ele>
        <time>2018-08-09T08:45:16Z</time>
      </trkpt>
      <trkpt lat="44.12455" lon="6.33461">
        <ele>959.6</ele>
        <time>2018-08-09T08:45:17Z</time>
      </trkpt>
      <trkpt lat="44.12457" lon="6.33468">
        <ele>959.2</ele>
        <time>2018-08-09T08:45:18Z</time>
      </trkpt>
      <trkpt lat="44.12461" lon="6.33475">
        <ele>958.4</ele>
        <time>2018-08-09T08:45:19Z</time>
      </trkpt>
      <trkpt lat="44.12462" lon="6.33482">
        <ele>958</ele>
        <time>2018-08-09T08:45:20Z</time>
      </trkpt>
      <trkpt lat="44.12465" lon="6.3349">
        <ele>957.5</ele>
        <time>2018-08-09T08:45:21Z</time>
      </trkpt>
      <trkpt lat="44.12467" lon="6.33498">
        <ele>957.3</ele>
        <time>2018-08-09T08:45:22Z</time>
      </trkpt>
      <trkpt lat="44.1247" lon="6.33505">
        <ele>957.1</ele>
        <time>2018-08-09T08:45:23Z</time>
      </trkpt>
      <trkpt lat="44.12472" lon="6.33511">
        <ele>956.7</ele>
        <time>2018-08-09T08:45:24Z</time>
      </trkpt>
      <trkpt lat="44.12477" lon="6.33515">
        <ele>956.3</ele>
        <time>2018-08-09T08:45:25Z</time>
      </trkpt>
      <trkpt lat="44.1248" lon="6.33521">
        <ele>956</ele>
        <time>2018-08-09T08:45:26Z</time>
      </trkpt>
      <trkpt lat="44.12483" lon="6.33525">
        <ele>955.9</ele>
        <time>2018-08-09T08:45:27Z</time>
      </trkpt>
      <trkpt lat="44.12487" lon="6.33529">
        <ele>955.8</ele>
        <time>2018-08-09T08:45:28Z</time>
      </trkpt>
      <trkpt lat="44.12492" lon="6.33533">
        <ele>955.7</ele>
        <time>2018-08-09T08:45:30Z</time>
      </trkpt>
      <trkpt lat="44.12495" lon="6.33536">
        <ele>955.6</ele>
        <time>2018-08-09T08:45:31Z</time>
      </trkpt>
      <trkpt lat="44.12498" lon="6.3354">
        <ele>955.5</ele>
        <time>2018-08-09T08:45:32Z</time>
      </trkpt>
      <trkpt lat="44.12499" lon="6.33544">
        <ele>955.5</ele>
        <time>2018-08-09T08:45:33Z</time>
      </trkpt>
      <trkpt lat="44.12501" lon="6.33546">
        <ele>955.5</ele>
        <time>2018-08-09T08:45:34Z</time>
      </trkpt>
      <trkpt lat="44.12505" lon="6.33548">
        <ele>955.5</ele>
        <time>2018-08-09T08:45:35Z</time>
      </trkpt>
      <trkpt lat="44.12507" lon="6.33552">
        <ele>955.5</ele>
        <time>2018-08-09T08:45:36Z</time>
      </trkpt>
      <trkpt lat="44.1251" lon="6.33557">
        <ele>955.5</ele>
        <time>2018-08-09T08:45:37Z</time>
      </trkpt>
      <trkpt lat="44.12513" lon="6.33561">
        <ele>955.5</ele>
        <time>2018-08-09T08:45:38Z</time>
      </trkpt>
      <trkpt lat="44.12516" lon="6.33564">
        <ele>955.5</ele>
        <time>2018-08-09T08:45:39Z</time>
      </trkpt>
      <trkpt lat="44.12519" lon="6.33569">
        <ele>955.5</ele>
        <time>2018-08-09T08:45:41Z</time>
      </trkpt>
      <trkpt lat="44.12522" lon="6.33573">
        <ele>955.6</ele>
        <time>2018-08-09T08:45:43Z</time>
      </trkpt>
      <trkpt lat="44.12525" lon="6.33576">
        <ele>955.8</ele>
        <time>2018-08-09T08:45:45Z</time>
      </trkpt>
      <trkpt lat="44.12528" lon="6.33579">
        <ele>956</ele>
        <time>2018-08-09T08:45:48Z</time>
      </trkpt>
      <trkpt lat="44.12532" lon="6.3358">
        <ele>956.3</ele>
        <time>2018-08-09T08:45:51Z</time>
      </trkpt>
      <trkpt lat="44.12535" lon="6.33577">
        <ele>956.9</ele>
        <time>2018-08-09T08:45:56Z</time>
      </trkpt>
      <trkpt lat="44.12537" lon="6.33579">
        <ele>957.2</ele>
        <time>2018-08-09T08:46:02Z</time>
      </trkpt>
      <trkpt lat="44.12541" lon="6.33579">
        <ele>957.3</ele>
        <time>2018-08-09T08:46:04Z</time>
      </trkpt>
      <trkpt lat="44.12545" lon="6.3358">
        <ele>957.5</ele>
        <time>2018-08-09T08:46:06Z</time>
      </trkpt>
      <trkpt lat="44.1255" lon="6.3358">
        <ele>957.7</ele>
        <time>2018-08-09T08:46:08Z</time>
      </trkpt>
      <trkpt lat="44.12553" lon="6.3358">
        <ele>957.7</ele>
        <time>2018-08-09T08:46:09Z</time>
      </trkpt>
      <trkpt lat="44.12556" lon="6.33581">
        <ele>957.8</ele>
        <time>2018-08-09T08:46:10Z</time>
      </trkpt>
      <trkpt lat="44.12559" lon="6.33582">
        <ele>957.8</ele>
        <time>2018-08-09T08:46:11Z</time>
      </trkpt>
      <trkpt lat="44.12562" lon="6.33583">
        <ele>957.8</ele>
        <time>2018-08-09T08:46:12Z</time>
      </trkpt>
      <trkpt lat="44.12565" lon="6.33584">
        <ele>957.8</ele>
        <time>2018-08-09T08:46:13Z</time>
      </trkpt>
      <trkpt lat="44.12569" lon="6.33585">
        <ele>957.8</ele>
        <time>2018-08-09T08:46:14Z</time>
      </trkpt>
      <trkpt lat="44.12573" lon="6.33585">
        <ele>957.8</ele>
        <time>2018-08-09T08:46:15Z</time>
      </trkpt>
      <trkpt lat="44.12576" lon="6.33585">
        <ele>957.8</ele>
        <time>2018-08-09T08:46:16Z</time>
      </trkpt>
      <trkpt lat="44.1258" lon="6.33588">
        <ele>957.8</ele>
        <time>2018-08-09T08:46:18Z</time>
      </trkpt>
      <trkpt lat="44.12584" lon="6.33587">
        <ele>957.8</ele>
        <time>2018-08-09T08:46:20Z</time>
      </trkpt>
      <trkpt lat="44.12587" lon="6.33588">
        <ele>957.8</ele>
        <time>2018-08-09T08:46:21Z</time>
      </trkpt>
      <trkpt lat="44.1259" lon="6.3359">
        <ele>957.8</ele>
        <time>2018-08-09T08:46:22Z</time>
      </trkpt>
      <trkpt lat="44.12593" lon="6.33591">
        <ele>957.8</ele>
        <time>2018-08-09T08:46:23Z</time>
      </trkpt>
      <trkpt lat="44.12598" lon="6.33592">
        <ele>957.8</ele>
        <time>2018-08-09T08:46:25Z</time>
      </trkpt>
      <trkpt lat="44.12601" lon="6.33596">
        <ele>957.8</ele>
        <time>2018-08-09T08:46:26Z</time>
      </trkpt>
      <trkpt lat="44.12604" lon="6.33598">
        <ele>957.7</ele>
        <time>2018-08-09T08:46:27Z</time>
      </trkpt>
      <trkpt lat="44.12607" lon="6.336">
        <ele>957.7</ele>
        <time>2018-08-09T08:46:28Z</time>
      </trkpt>
      <trkpt lat="44.1261" lon="6.33602">
        <ele>957.7</ele>
        <time>2018-08-09T08:46:29Z</time>
      </trkpt>
      <trkpt lat="44.12613" lon="6.33603">
        <ele>957.6</ele>
        <time>2018-08-09T08:46:30Z</time>
      </trkpt>
      <trkpt lat="44.12617" lon="6.33605">
        <ele>957.5</ele>
        <time>2018-08-09T08:46:32Z</time>
      </trkpt>
      <trkpt lat="44.1262" lon="6.33609">
        <ele>957.4</ele>
        <time>2018-08-09T08:46:33Z</time>
      </trkpt>
      <trkpt lat="44.12624" lon="6.33612">
        <ele>957.2</ele>
        <time>2018-08-09T08:46:35Z</time>
      </trkpt>
      <trkpt lat="44.12626" lon="6.33614">
        <ele>957</ele>
        <time>2018-08-09T08:46:36Z</time>
      </trkpt>
      <trkpt lat="44.1263" lon="6.33616">
        <ele>956.7</ele>
        <time>2018-08-09T08:46:37Z</time>
      </trkpt>
      <trkpt lat="44.12633" lon="6.33619">
        <ele>956.4</ele>
        <time>2018-08-09T08:46:39Z</time>
      </trkpt>
      <trkpt lat="44.12636" lon="6.33621">
        <ele>956.1</ele>
        <time>2018-08-09T08:46:40Z</time>
      </trkpt>
      <trkpt lat="44.12638" lon="6.33623">
        <ele>956</ele>
        <time>2018-08-09T08:46:41Z</time>
      </trkpt>
      <trkpt lat="44.12641" lon="6.33626">
        <ele>955.8</ele>
        <time>2018-08-09T08:46:42Z</time>
      </trkpt>
      <trkpt lat="44.12643" lon="6.33629">
        <ele>955.7</ele>
        <time>2018-08-09T08:46:43Z</time>
      </trkpt>
      <trkpt lat="44.12645" lon="6.33632">
        <ele>955.6</ele>
        <time>2018-08-09T08:46:44Z</time>
      </trkpt>
      <trkpt lat="44.12646" lon="6.33636">
        <ele>955.4</ele>
        <time>2018-08-09T08:46:45Z</time>
      </trkpt>
      <trkpt lat="44.12649" lon="6.3364">
        <ele>955.1</ele>
        <time>2018-08-09T08:46:47Z</time>
      </trkpt>
      <trkpt lat="44.12653" lon="6.33644">
        <ele>954.3</ele>
        <time>2018-08-09T08:46:49Z</time>
      </trkpt>
      <trkpt lat="44.12654" lon="6.33648">
        <ele>954</ele>
        <time>2018-08-09T08:46:52Z</time>
      </trkpt>
      <trkpt lat="44.12657" lon="6.33651">
        <ele>953.6</ele>
        <time>2018-08-09T08:46:54Z</time>
      </trkpt>
      <trkpt lat="44.12658" lon="6.33655">
        <ele>953</ele>
        <time>2018-08-09T08:46:55Z</time>
      </trkpt>
      <trkpt lat="44.12662" lon="6.33657">
        <ele>952.1</ele>
        <time>2018-08-09T08:46:57Z</time>
      </trkpt>
      <trkpt lat="44.12666" lon="6.3366">
        <ele>951.8</ele>
        <time>2018-08-09T08:46:59Z</time>
      </trkpt>
      <trkpt lat="44.12669" lon="6.33662">
        <ele>951.6</ele>
        <time>2018-08-09T08:47:02Z</time>
      </trkpt>
      <trkpt lat="44.12673" lon="6.33662">
        <ele>951.4</ele>
        <time>2018-08-09T08:47:04Z</time>
      </trkpt>
      <trkpt lat="44.12678" lon="6.33666">
        <ele>951.1</ele>
        <time>2018-08-09T08:47:06Z</time>
      </trkpt>
      <trkpt lat="44.12681" lon="6.3367">
        <ele>950.6</ele>
        <time>2018-08-09T08:47:07Z</time>
      </trkpt>
      <trkpt lat="44.12683" lon="6.33674">
        <ele>950.2</ele>
        <time>2018-08-09T08:47:08Z</time>
      </trkpt>
      <trkpt lat="44.12684" lon="6.33678">
        <ele>950</ele>
        <time>2018-08-09T08:47:09Z</time>
      </trkpt>
      <trkpt lat="44.12685" lon="6.33682">
        <ele>949.8</ele>
        <time>2018-08-09T08:47:10Z</time>
      </trkpt>
      <trkpt lat="44.12687" lon="6.33686">
        <ele>949.7</ele>
        <time>2018-08-09T08:47:11Z</time>
      </trkpt>
      <trkpt lat="44.12689" lon="6.33691">
        <ele>949.7</ele>
        <time>2018-08-09T08:47:12Z</time>
      </trkpt>
      <trkpt lat="44.12692" lon="6.33693">
        <ele>949.6</ele>
        <time>2018-08-09T08:47:13Z</time>
      </trkpt>
      <trkpt lat="44.12694" lon="6.33697">
        <ele>949.5</ele>
        <time>2018-08-09T08:47:14Z</time>
      </trkpt>
      <trkpt lat="44.12696" lon="6.337">
        <ele>949.4</ele>
        <time>2018-08-09T08:47:15Z</time>
      </trkpt>
      <trkpt lat="44.12697" lon="6.33706">
        <ele>949.2</ele>
        <time>2018-08-09T08:47:16Z</time>
      </trkpt>
      <trkpt lat="44.12697" lon="6.33711">
        <ele>949.1</ele>
        <time>2018-08-09T08:47:17Z</time>
      </trkpt>
      <trkpt lat="44.12698" lon="6.33716">
        <ele>948.8</ele>
        <time>2018-08-09T08:47:18Z</time>
      </trkpt>
      <trkpt lat="44.12698" lon="6.33722">
        <ele>948.5</ele>
        <time>2018-08-09T08:47:19Z</time>
      </trkpt>
      <trkpt lat="44.12697" lon="6.33729">
        <ele>947.8</ele>
        <time>2018-08-09T08:47:20Z</time>
      </trkpt>
      <trkpt lat="44.12697" lon="6.33735">
        <ele>947.5</ele>
        <time>2018-08-09T08:47:21Z</time>
      </trkpt>
      <trkpt lat="44.12697" lon="6.33739">
        <ele>947.2</ele>
        <time>2018-08-09T08:47:22Z</time>
      </trkpt>
      <trkpt lat="44.12698" lon="6.33742">
        <ele>946.9</ele>
        <time>2018-08-09T08:47:23Z</time>
      </trkpt>
      <trkpt lat="44.127" lon="6.33746">
        <ele>947</ele>
        <time>2018-08-09T08:47:24Z</time>
      </trkpt>
      <trkpt lat="44.12704" lon="6.33748">
        <ele>947.2</ele>
        <time>2018-08-09T08:47:26Z</time>
      </trkpt>
      <trkpt lat="44.12706" lon="6.33745">
        <ele>947.7</ele>
        <time>2018-08-09T08:47:28Z</time>
      </trkpt>
      <trkpt lat="44.12708" lon="6.33742">
        <ele>948.3</ele>
        <time>2018-08-09T08:47:30Z</time>
      </trkpt>
      <trkpt lat="44.12711" lon="6.33739">
        <ele>949</ele>
        <time>2018-08-09T08:47:32Z</time>
      </trkpt>
      <trkpt lat="44.12714" lon="6.33738">
        <ele>949.7</ele>
        <time>2018-08-09T08:47:35Z</time>
      </trkpt>
      <trkpt lat="44.12717" lon="6.33736">
        <ele>950.3</ele>
        <time>2018-08-09T08:47:37Z</time>
      </trkpt>
      <trkpt lat="44.12719" lon="6.33733">
        <ele>950.9</ele>
        <time>2018-08-09T08:47:39Z</time>
      </trkpt>
      <trkpt lat="44.1272" lon="6.33728">
        <ele>951.6</ele>
        <time>2018-08-09T08:47:42Z</time>
      </trkpt>
      <trkpt lat="44.12724" lon="6.33728">
        <ele>952.4</ele>
        <time>2018-08-09T08:47:45Z</time>
      </trkpt>
      <trkpt lat="44.12727" lon="6.33729">
        <ele>953.1</ele>
        <time>2018-08-09T08:47:48Z</time>
      </trkpt>
      <trkpt lat="44.12731" lon="6.33727">
        <ele>953.7</ele>
        <time>2018-08-09T08:47:51Z</time>
      </trkpt>
      <trkpt lat="44.12733" lon="6.33728">
        <ele>954.1</ele>
        <time>2018-08-09T08:47:53Z</time>
      </trkpt>
      <trkpt lat="44.12736" lon="6.33725">
        <ele>954.6</ele>
        <time>2018-08-09T08:47:56Z</time>
      </trkpt>
      <trkpt lat="44.12739" lon="6.33722">
        <ele>955.2</ele>
        <time>2018-08-09T08:47:59Z</time>
      </trkpt>
      <trkpt lat="44.12742" lon="6.33721">
        <ele>955.6</ele>
        <time>2018-08-09T08:48:01Z</time>
      </trkpt>
      <trkpt lat="44.12746" lon="6.33721">
        <ele>956.1</ele>
        <time>2018-08-09T08:48:04Z</time>
      </trkpt>
      <trkpt lat="44.12748" lon="6.33721">
        <ele>956.5</ele>
        <time>2018-08-09T08:48:06Z</time>
      </trkpt>
      <trkpt lat="44.12752" lon="6.33722">
        <ele>957</ele>
        <time>2018-08-09T08:48:09Z</time>
      </trkpt>
      <trkpt lat="44.12755" lon="6.33721">
        <ele>957.4</ele>
        <time>2018-08-09T08:48:11Z</time>
      </trkpt>
      <trkpt lat="44.12759" lon="6.33719">
        <ele>957.9</ele>
        <time>2018-08-09T08:48:13Z</time>
      </trkpt>
      <trkpt lat="44.12762" lon="6.33716">
        <ele>958.3</ele>
        <time>2018-08-09T08:48:16Z</time>
      </trkpt>
      <trkpt lat="44.12765" lon="6.33717">
        <ele>958.7</ele>
        <time>2018-08-09T08:48:19Z</time>
      </trkpt>
      <trkpt lat="44.12769" lon="6.33716">
        <ele>959.1</ele>
        <time>2018-08-09T08:48:22Z</time>
      </trkpt>
      <trkpt lat="44.12773" lon="6.33713">
        <ele>959.6</ele>
        <time>2018-08-09T08:48:25Z</time>
      </trkpt>
      <trkpt lat="44.12775" lon="6.33711">
        <ele>959.9</ele>
        <time>2018-08-09T08:48:27Z</time>
      </trkpt>
      <trkpt lat="44.12778" lon="6.3371">
        <ele>960.3</ele>
        <time>2018-08-09T08:48:29Z</time>
      </trkpt>
      <trkpt lat="44.12781" lon="6.33709">
        <ele>960.6</ele>
        <time>2018-08-09T08:48:31Z</time>
      </trkpt>
      <trkpt lat="44.12784" lon="6.33706">
        <ele>961</ele>
        <time>2018-08-09T08:48:34Z</time>
      </trkpt>
      <trkpt lat="44.12787" lon="6.33705">
        <ele>961.4</ele>
        <time>2018-08-09T08:48:36Z</time>
      </trkpt>
      <trkpt lat="44.1279" lon="6.33703">
        <ele>961.9</ele>
        <time>2018-08-09T08:48:39Z</time>
      </trkpt>
      <trkpt lat="44.12793" lon="6.33701">
        <ele>962.4</ele>
        <time>2018-08-09T08:48:42Z</time>
      </trkpt>
      <trkpt lat="44.12796" lon="6.337">
        <ele>962.8</ele>
        <time>2018-08-09T08:48:44Z</time>
      </trkpt>
      <trkpt lat="44.128" lon="6.33698">
        <ele>963.3</ele>
        <time>2018-08-09T08:48:47Z</time>
      </trkpt>
      <trkpt lat="44.12803" lon="6.33697">
        <ele>963.7</ele>
        <time>2018-08-09T08:48:50Z</time>
      </trkpt>
      <trkpt lat="44.12806" lon="6.33697">
        <ele>964.1</ele>
        <time>2018-08-09T08:48:52Z</time>
      </trkpt>
      <trkpt lat="44.12809" lon="6.33695">
        <ele>964.6</ele>
        <time>2018-08-09T08:48:54Z</time>
      </trkpt>
      <trkpt lat="44.12812" lon="6.33693">
        <ele>965</ele>
        <time>2018-08-09T08:48:57Z</time>
      </trkpt>
      <trkpt lat="44.12814" lon="6.3369">
        <ele>965.4</ele>
        <time>2018-08-09T08:49:00Z</time>
      </trkpt>
      <trkpt lat="44.12817" lon="6.33689">
        <ele>965.8</ele>
        <time>2018-08-09T08:49:03Z</time>
      </trkpt>
      <trkpt lat="44.12819" lon="6.33685">
        <ele>966.2</ele>
        <time>2018-08-09T08:49:05Z</time>
      </trkpt>
      <trkpt lat="44.12821" lon="6.33682">
        <ele>966.5</ele>
        <time>2018-08-09T08:49:08Z</time>
      </trkpt>
      <trkpt lat="44.12824" lon="6.3368">
        <ele>966.8</ele>
        <time>2018-08-09T08:49:11Z</time>
      </trkpt>
      <trkpt lat="44.12828" lon="6.33679">
        <ele>967.2</ele>
        <time>2018-08-09T08:49:14Z</time>
      </trkpt>
      <trkpt lat="44.1283" lon="6.33677">
        <ele>967.4</ele>
        <time>2018-08-09T08:49:17Z</time>
      </trkpt>
      <trkpt lat="44.12834" lon="6.33675">
        <ele>967.7</ele>
        <time>2018-08-09T08:49:20Z</time>
      </trkpt>
      <trkpt lat="44.12837" lon="6.33673">
        <ele>968</ele>
        <time>2018-08-09T08:49:23Z</time>
      </trkpt>
      <trkpt lat="44.1284" lon="6.3367">
        <ele>968.3</ele>
        <time>2018-08-09T08:49:26Z</time>
      </trkpt>
      <trkpt lat="44.12844" lon="6.33667">
        <ele>968.6</ele>
        <time>2018-08-09T08:49:30Z</time>
      </trkpt>
      <trkpt lat="44.12847" lon="6.33666">
        <ele>968.8</ele>
        <time>2018-08-09T08:49:32Z</time>
      </trkpt>
      <trkpt lat="44.12848" lon="6.33662">
        <ele>969</ele>
        <time>2018-08-09T08:49:35Z</time>
      </trkpt>
      <trkpt lat="44.12851" lon="6.33659">
        <ele>969.3</ele>
        <time>2018-08-09T08:49:38Z</time>
      </trkpt>
      <trkpt lat="44.12854" lon="6.33656">
        <ele>969.5</ele>
        <time>2018-08-09T08:49:41Z</time>
      </trkpt>
      <trkpt lat="44.12856" lon="6.33652">
        <ele>969.8</ele>
        <time>2018-08-09T08:49:44Z</time>
      </trkpt>
      <trkpt lat="44.12858" lon="6.3365">
        <ele>969.9</ele>
        <time>2018-08-09T08:49:46Z</time>
      </trkpt>
      <trkpt lat="44.12861" lon="6.33649">
        <ele>970.1</ele>
        <time>2018-08-09T08:49:49Z</time>
      </trkpt>
      <trkpt lat="44.12864" lon="6.33645">
        <ele>970.3</ele>
        <time>2018-08-09T08:49:52Z</time>
      </trkpt>
      <trkpt lat="44.12867" lon="6.33644">
        <ele>970.4</ele>
        <time>2018-08-09T08:49:55Z</time>
      </trkpt>
      <trkpt lat="44.12871" lon="6.33642">
        <ele>970.6</ele>
        <time>2018-08-09T08:49:58Z</time>
      </trkpt>
      <trkpt lat="44.12873" lon="6.33639">
        <ele>970.7</ele>
        <time>2018-08-09T08:50:00Z</time>
      </trkpt>
      <trkpt lat="44.12875" lon="6.33637">
        <ele>970.8</ele>
        <time>2018-08-09T08:50:03Z</time>
      </trkpt>
      <trkpt lat="44.12878" lon="6.33636">
        <ele>970.8</ele>
        <time>2018-08-09T08:50:05Z</time>
      </trkpt>
      <trkpt lat="44.12881" lon="6.33636">
        <ele>970.9</ele>
        <time>2018-08-09T08:50:07Z</time>
      </trkpt>
      <trkpt lat="44.12885" lon="6.33634">
        <ele>970.9</ele>
        <time>2018-08-09T08:50:11Z</time>
      </trkpt>
      <trkpt lat="44.12887" lon="6.33632">
        <ele>970.9</ele>
        <time>2018-08-09T08:50:14Z</time>
      </trkpt>
      <trkpt lat="44.1289" lon="6.33631">
        <ele>970.9</ele>
        <time>2018-08-09T08:50:17Z</time>
      </trkpt>
      <trkpt lat="44.12894" lon="6.33633">
        <ele>970.9</ele>
        <time>2018-08-09T08:50:19Z</time>
      </trkpt>
      <trkpt lat="44.12898" lon="6.33636">
        <ele>971</ele>
        <time>2018-08-09T08:50:22Z</time>
      </trkpt>
      <trkpt lat="44.12901" lon="6.33637">
        <ele>971</ele>
        <time>2018-08-09T08:50:24Z</time>
      </trkpt>
      <trkpt lat="44.12904" lon="6.33641">
        <ele>971</ele>
        <time>2018-08-09T08:50:26Z</time>
      </trkpt>
      <trkpt lat="44.12906" lon="6.33645">
        <ele>971</ele>
        <time>2018-08-09T08:50:28Z</time>
      </trkpt>
      <trkpt lat="44.12911" lon="6.3365">
        <ele>971</ele>
        <time>2018-08-09T08:50:30Z</time>
      </trkpt>
      <trkpt lat="44.12913" lon="6.33653">
        <ele>971</ele>
        <time>2018-08-09T08:50:31Z</time>
      </trkpt>
      <trkpt lat="44.12916" lon="6.33658">
        <ele>971</ele>
        <time>2018-08-09T08:50:32Z</time>
      </trkpt>
      <trkpt lat="44.12918" lon="6.33661">
        <ele>971</ele>
        <time>2018-08-09T08:50:33Z</time>
      </trkpt>
      <trkpt lat="44.12922" lon="6.33664">
        <ele>971</ele>
        <time>2018-08-09T08:50:34Z</time>
      </trkpt>
      <trkpt lat="44.12925" lon="6.33665">
        <ele>971</ele>
        <time>2018-08-09T08:50:35Z</time>
      </trkpt>
      <trkpt lat="44.12929" lon="6.33664">
        <ele>971</ele>
        <time>2018-08-09T08:50:37Z</time>
      </trkpt>
      <trkpt lat="44.12929" lon="6.33659">
        <ele>971</ele>
        <time>2018-08-09T08:50:38Z</time>
      </trkpt>
      <trkpt lat="44.12932" lon="6.33654">
        <ele>971</ele>
        <time>2018-08-09T08:50:40Z</time>
      </trkpt>
      <trkpt lat="44.12936" lon="6.33648">
        <ele>971</ele>
        <time>2018-08-09T08:50:42Z</time>
      </trkpt>
      <trkpt lat="44.1294" lon="6.33643">
        <ele>971</ele>
        <time>2018-08-09T08:50:44Z</time>
      </trkpt>
      <trkpt lat="44.12944" lon="6.33639">
        <ele>971</ele>
        <time>2018-08-09T08:50:46Z</time>
      </trkpt>
      <trkpt lat="44.12947" lon="6.33636">
        <ele>971</ele>
        <time>2018-08-09T08:50:47Z</time>
      </trkpt>
      <trkpt lat="44.12951" lon="6.3363">
        <ele>971</ele>
        <time>2018-08-09T08:50:49Z</time>
      </trkpt>
      <trkpt lat="44.12953" lon="6.33626">
        <ele>971</ele>
        <time>2018-08-09T08:50:50Z</time>
      </trkpt>
      <trkpt lat="44.12957" lon="6.33623">
        <ele>971</ele>
        <time>2018-08-09T08:50:51Z</time>
      </trkpt>
      <trkpt lat="44.12961" lon="6.33618">
        <ele>971</ele>
        <time>2018-08-09T08:50:53Z</time>
      </trkpt>
      <trkpt lat="44.12965" lon="6.33612">
        <ele>971</ele>
        <time>2018-08-09T08:50:55Z</time>
      </trkpt>
      <trkpt lat="44.12967" lon="6.33611">
        <ele>971</ele>
        <time>2018-08-09T08:50:56Z</time>
      </trkpt>
      <trkpt lat="44.1297" lon="6.33609">
        <ele>971</ele>
        <time>2018-08-09T08:50:57Z</time>
      </trkpt>
      <trkpt lat="44.12973" lon="6.33608">
        <ele>971</ele>
        <time>2018-08-09T08:50:58Z</time>
      </trkpt>
      <trkpt lat="44.12976" lon="6.33608">
        <ele>971</ele>
        <time>2018-08-09T08:50:59Z</time>
      </trkpt>
      <trkpt lat="44.12979" lon="6.33607">
        <ele>971</ele>
        <time>2018-08-09T08:51:00Z</time>
      </trkpt>
      <trkpt lat="44.12982" lon="6.33607">
        <ele>971</ele>
        <time>2018-08-09T08:51:01Z</time>
      </trkpt>
      <trkpt lat="44.12987" lon="6.33609">
        <ele>971</ele>
        <time>2018-08-09T08:51:03Z</time>
      </trkpt>
      <trkpt lat="44.12993" lon="6.33609">
        <ele>971</ele>
        <time>2018-08-09T08:51:05Z</time>
      </trkpt>
      <trkpt lat="44.12996" lon="6.33609">
        <ele>971</ele>
        <time>2018-08-09T08:51:07Z</time>
      </trkpt>
      <trkpt lat="44.12999" lon="6.33609">
        <ele>971</ele>
        <time>2018-08-09T08:51:08Z</time>
      </trkpt>
      <trkpt lat="44.13002" lon="6.33609">
        <ele>971</ele>
        <time>2018-08-09T08:51:09Z</time>
      </trkpt>
      <trkpt lat="44.13005" lon="6.3361">
        <ele>971</ele>
        <time>2018-08-09T08:51:10Z</time>
      </trkpt>
      <trkpt lat="44.13009" lon="6.33612">
        <ele>970.7</ele>
        <time>2018-08-09T08:51:12Z</time>
      </trkpt>
      <trkpt lat="44.13012" lon="6.3361">
        <ele>970.4</ele>
        <time>2018-08-09T08:51:13Z</time>
      </trkpt>
      <trkpt lat="44.13015" lon="6.3361">
        <ele>970</ele>
        <time>2018-08-09T08:51:14Z</time>
      </trkpt>
      <trkpt lat="44.13018" lon="6.33608">
        <ele>969.5</ele>
        <time>2018-08-09T08:51:15Z</time>
      </trkpt>
      <trkpt lat="44.13022" lon="6.33608">
        <ele>968.9</ele>
        <time>2018-08-09T08:51:16Z</time>
      </trkpt>
      <trkpt lat="44.13026" lon="6.33608">
        <ele>968.2</ele>
        <time>2018-08-09T08:51:17Z</time>
      </trkpt>
      <trkpt lat="44.13031" lon="6.3361">
        <ele>967.8</ele>
        <time>2018-08-09T08:51:18Z</time>
      </trkpt>
      <trkpt lat="44.13036" lon="6.33613">
        <ele>967.4</ele>
        <time>2018-08-09T08:51:19Z</time>
      </trkpt>
      <trkpt lat="44.13041" lon="6.33618">
        <ele>966.5</ele>
        <time>2018-08-09T08:51:20Z</time>
      </trkpt>
      <trkpt lat="44.13046" lon="6.33624">
        <ele>965.6</ele>
        <time>2018-08-09T08:51:21Z</time>
      </trkpt>
      <trkpt lat="44.13051" lon="6.33629">
        <ele>965.3</ele>
        <time>2018-08-09T08:51:22Z</time>
      </trkpt>
      <trkpt lat="44.13057" lon="6.33635">
        <ele>965.1</ele>
        <time>2018-08-09T08:51:23Z</time>
      </trkpt>
      <trkpt lat="44.13063" lon="6.33641">
        <ele>964.9</ele>
        <time>2018-08-09T08:51:24Z</time>
      </trkpt>
      <trkpt lat="44.13069" lon="6.33646">
        <ele>964.7</ele>
        <time>2018-08-09T08:51:25Z</time>
      </trkpt>
      <trkpt lat="44.13076" lon="6.3365">
        <ele>964.5</ele>
        <time>2018-08-09T08:51:26Z</time>
      </trkpt>
      <trkpt lat="44.13083" lon="6.33652">
        <ele>964.3</ele>
        <time>2018-08-09T08:51:27Z</time>
      </trkpt>
      <trkpt lat="44.1309" lon="6.33652">
        <ele>964.2</ele>
        <time>2018-08-09T08:51:28Z</time>
      </trkpt>
      <trkpt lat="44.13096" lon="6.3365">
        <ele>964.1</ele>
        <time>2018-08-09T08:51:29Z</time>
      </trkpt>
      <trkpt lat="44.13101" lon="6.33647">
        <ele>964</ele>
        <time>2018-08-09T08:51:30Z</time>
      </trkpt>
      <trkpt lat="44.13105" lon="6.33647">
        <ele>963.9</ele>
        <time>2018-08-09T08:51:31Z</time>
      </trkpt>
      <trkpt lat="44.1311" lon="6.33646">
        <ele>963.8</ele>
        <time>2018-08-09T08:51:32Z</time>
      </trkpt>
      <trkpt lat="44.13114" lon="6.33646">
        <ele>963.4</ele>
        <time>2018-08-09T08:51:33Z</time>
      </trkpt>
      <trkpt lat="44.13119" lon="6.33646">
        <ele>962.8</ele>
        <time>2018-08-09T08:51:34Z</time>
      </trkpt>
      <trkpt lat="44.13123" lon="6.33647">
        <ele>962.2</ele>
        <time>2018-08-09T08:51:35Z</time>
      </trkpt>
      <trkpt lat="44.13127" lon="6.33649">
        <ele>961.9</ele>
        <time>2018-08-09T08:51:36Z</time>
      </trkpt>
      <trkpt lat="44.13132" lon="6.33653">
        <ele>961.6</ele>
        <time>2018-08-09T08:51:37Z</time>
      </trkpt>
      <trkpt lat="44.13137" lon="6.33657">
        <ele>961.1</ele>
        <time>2018-08-09T08:51:38Z</time>
      </trkpt>
      <trkpt lat="44.13141" lon="6.33662">
        <ele>960.3</ele>
        <time>2018-08-09T08:51:39Z</time>
      </trkpt>
      <trkpt lat="44.13146" lon="6.33667">
        <ele>959.4</ele>
        <time>2018-08-09T08:51:40Z</time>
      </trkpt>
      <trkpt lat="44.13152" lon="6.33673">
        <ele>959.1</ele>
        <time>2018-08-09T08:51:41Z</time>
      </trkpt>
      <trkpt lat="44.13159" lon="6.33677">
        <ele>958.7</ele>
        <time>2018-08-09T08:51:42Z</time>
      </trkpt>
      <trkpt lat="44.13165" lon="6.33683">
        <ele>958.2</ele>
        <time>2018-08-09T08:51:43Z</time>
      </trkpt>
      <trkpt lat="44.13171" lon="6.33688">
        <ele>957.2</ele>
        <time>2018-08-09T08:51:44Z</time>
      </trkpt>
      <trkpt lat="44.13179" lon="6.33692">
        <ele>956.7</ele>
        <time>2018-08-09T08:51:45Z</time>
      </trkpt>
      <trkpt lat="44.13186" lon="6.33695">
        <ele>956.4</ele>
        <time>2018-08-09T08:51:46Z</time>
      </trkpt>
      <trkpt lat="44.13194" lon="6.33698">
        <ele>956</ele>
        <time>2018-08-09T08:51:47Z</time>
      </trkpt>
      <trkpt lat="44.13201" lon="6.337">
        <ele>955.6</ele>
        <time>2018-08-09T08:51:48Z</time>
      </trkpt>
      <trkpt lat="44.13209" lon="6.33702">
        <ele>954.8</ele>
        <time>2018-08-09T08:51:49Z</time>
      </trkpt>
      <trkpt lat="44.13216" lon="6.33701">
        <ele>953.8</ele>
        <time>2018-08-09T08:51:50Z</time>
      </trkpt>
      <trkpt lat="44.13224" lon="6.33699">
        <ele>953.2</ele>
        <time>2018-08-09T08:51:51Z</time>
      </trkpt>
      <trkpt lat="44.13231" lon="6.33697">
        <ele>952.5</ele>
        <time>2018-08-09T08:51:52Z</time>
      </trkpt>
      <trkpt lat="44.13239" lon="6.33694">
        <ele>951.1</ele>
        <time>2018-08-09T08:51:53Z</time>
      </trkpt>
      <trkpt lat="44.13248" lon="6.33693">
        <ele>950.4</ele>
        <time>2018-08-09T08:51:54Z</time>
      </trkpt>
      <trkpt lat="44.13256" lon="6.33691">
        <ele>949.9</ele>
        <time>2018-08-09T08:51:55Z</time>
      </trkpt>
      <trkpt lat="44.13264" lon="6.33689">
        <ele>948.7</ele>
        <time>2018-08-09T08:51:56Z</time>
      </trkpt>
      <trkpt lat="44.13273" lon="6.33686">
        <ele>948.1</ele>
        <time>2018-08-09T08:51:57Z</time>
      </trkpt>
      <trkpt lat="44.13282" lon="6.33684">
        <ele>947.6</ele>
        <time>2018-08-09T08:51:58Z</time>
      </trkpt>
      <trkpt lat="44.1329" lon="6.33683">
        <ele>947</ele>
        <time>2018-08-09T08:51:59Z</time>
      </trkpt>
      <trkpt lat="44.13298" lon="6.33682">
        <ele>945.9</ele>
        <time>2018-08-09T08:52:00Z</time>
      </trkpt>
      <trkpt lat="44.13307" lon="6.33683">
        <ele>945.4</ele>
        <time>2018-08-09T08:52:01Z</time>
      </trkpt>
      <trkpt lat="44.13315" lon="6.33684">
        <ele>945.1</ele>
        <time>2018-08-09T08:52:02Z</time>
      </trkpt>
      <trkpt lat="44.13322" lon="6.33685">
        <ele>944.9</ele>
        <time>2018-08-09T08:52:03Z</time>
      </trkpt>
      <trkpt lat="44.13329" lon="6.33686">
        <ele>944.7</ele>
        <time>2018-08-09T08:52:04Z</time>
      </trkpt>
      <trkpt lat="44.13337" lon="6.33686">
        <ele>944.4</ele>
        <time>2018-08-09T08:52:05Z</time>
      </trkpt>
      <trkpt lat="44.13345" lon="6.33687">
        <ele>943.7</ele>
        <time>2018-08-09T08:52:06Z</time>
      </trkpt>
      <trkpt lat="44.13354" lon="6.33687">
        <ele>942.5</ele>
        <time>2018-08-09T08:52:07Z</time>
      </trkpt>
      <trkpt lat="44.13361" lon="6.33688">
        <ele>942</ele>
        <time>2018-08-09T08:52:08Z</time>
      </trkpt>
      <trkpt lat="44.13368" lon="6.33687">
        <ele>941.4</ele>
        <time>2018-08-09T08:52:09Z</time>
      </trkpt>
      <trkpt lat="44.13375" lon="6.33688">
        <ele>940.6</ele>
        <time>2018-08-09T08:52:10Z</time>
      </trkpt>
      <trkpt lat="44.13382" lon="6.33686">
        <ele>939.6</ele>
        <time>2018-08-09T08:52:11Z</time>
      </trkpt>
      <trkpt lat="44.13388" lon="6.33686">
        <ele>939.1</ele>
        <time>2018-08-09T08:52:12Z</time>
      </trkpt>
      <trkpt lat="44.13394" lon="6.33687">
        <ele>938.6</ele>
        <time>2018-08-09T08:52:13Z</time>
      </trkpt>
      <trkpt lat="44.13399" lon="6.33688">
        <ele>938</ele>
        <time>2018-08-09T08:52:14Z</time>
      </trkpt>
      <trkpt lat="44.13403" lon="6.33689">
        <ele>937.2</ele>
        <time>2018-08-09T08:52:15Z</time>
      </trkpt>
      <trkpt lat="44.13407" lon="6.33689">
        <ele>936.7</ele>
        <time>2018-08-09T08:52:16Z</time>
      </trkpt>
      <trkpt lat="44.13411" lon="6.33689">
        <ele>936.2</ele>
        <time>2018-08-09T08:52:17Z</time>
      </trkpt>
      <trkpt lat="44.13415" lon="6.3369">
        <ele>935.6</ele>
        <time>2018-08-09T08:52:18Z</time>
      </trkpt>
      <trkpt lat="44.13417" lon="6.33693">
        <ele>935</ele>
        <time>2018-08-09T08:52:19Z</time>
      </trkpt>
      <trkpt lat="44.13419" lon="6.33701">
        <ele>935.2</ele>
        <time>2018-08-09T08:52:21Z</time>
      </trkpt>
      <trkpt lat="44.13419" lon="6.33705">
        <ele>935.2</ele>
        <time>2018-08-09T08:52:22Z</time>
      </trkpt>
      <trkpt lat="44.1342" lon="6.3371">
        <ele>935.3</ele>
        <time>2018-08-09T08:52:23Z</time>
      </trkpt>
      <trkpt lat="44.13421" lon="6.33714">
        <ele>935.4</ele>
        <time>2018-08-09T08:52:24Z</time>
      </trkpt>
      <trkpt lat="44.13422" lon="6.33719">
        <ele>935.4</ele>
        <time>2018-08-09T08:52:25Z</time>
      </trkpt>
      <trkpt lat="44.13422" lon="6.33723">
        <ele>935.4</ele>
        <time>2018-08-09T08:52:26Z</time>
      </trkpt>
      <trkpt lat="44.13423" lon="6.33728">
        <ele>935.4</ele>
        <time>2018-08-09T08:52:27Z</time>
      </trkpt>
      <trkpt lat="44.13423" lon="6.33732">
        <ele>935.3</ele>
        <time>2018-08-09T08:52:28Z</time>
      </trkpt>
      <trkpt lat="44.13423" lon="6.33736">
        <ele>935.3</ele>
        <time>2018-08-09T08:52:29Z</time>
      </trkpt>
      <trkpt lat="44.13422" lon="6.3374">
        <ele>935.2</ele>
        <time>2018-08-09T08:52:34Z</time>
      </trkpt>
      <trkpt lat="44.1342" lon="6.33744">
        <ele>935.1</ele>
        <time>2018-08-09T08:52:46Z</time>
      </trkpt>
      <trkpt lat="44.13422" lon="6.3374">
        <ele>935</ele>
        <time>2018-08-09T08:53:18Z</time>
      </trkpt>
      <trkpt lat="44.13423" lon="6.33744">
        <ele>934.8</ele>
        <time>2018-08-09T08:53:46Z</time>
      </trkpt>
      <trkpt lat="44.13423" lon="6.33749">
        <ele>934.7</ele>
        <time>2018-08-09T08:53:51Z</time>
      </trkpt>
      <trkpt lat="44.13423" lon="6.33754">
        <ele>934.5</ele>
        <time>2018-08-09T08:53:53Z</time>
      </trkpt>
      <trkpt lat="44.13423" lon="6.33758">
        <ele>934.3</ele>
        <time>2018-08-09T08:53:54Z</time>
      </trkpt>
      <trkpt lat="44.13424" lon="6.33762">
        <ele>934.1</ele>
        <time>2018-08-09T08:53:55Z</time>
      </trkpt>
      <trkpt lat="44.13423" lon="6.33767">
        <ele>934</ele>
        <time>2018-08-09T08:53:56Z</time>
      </trkpt>
      <trkpt lat="44.13422" lon="6.33771">
        <ele>933.8</ele>
        <time>2018-08-09T08:53:57Z</time>
      </trkpt>
      <trkpt lat="44.13421" lon="6.33776">
        <ele>933.5</ele>
        <time>2018-08-09T08:53:58Z</time>
      </trkpt>
      <trkpt lat="44.1342" lon="6.3378">
        <ele>933.2</ele>
        <time>2018-08-09T08:53:59Z</time>
      </trkpt>
      <trkpt lat="44.13419" lon="6.33785">
        <ele>932.9</ele>
        <time>2018-08-09T08:54:00Z</time>
      </trkpt>
      <trkpt lat="44.13417" lon="6.33789">
        <ele>932.6</ele>
        <time>2018-08-09T08:54:01Z</time>
      </trkpt>
      <trkpt lat="44.13415" lon="6.33793">
        <ele>932.3</ele>
        <time>2018-08-09T08:54:02Z</time>
      </trkpt>
      <trkpt lat="44.13413" lon="6.33797">
        <ele>931.9</ele>
        <time>2018-08-09T08:54:03Z</time>
      </trkpt>
      <trkpt lat="44.1341" lon="6.33801">
        <ele>931.5</ele>
        <time>2018-08-09T08:54:04Z</time>
      </trkpt>
      <trkpt lat="44.13408" lon="6.33805">
        <ele>931.2</ele>
        <time>2018-08-09T08:54:05Z</time>
      </trkpt>
      <trkpt lat="44.13406" lon="6.33808">
        <ele>930.8</ele>
        <time>2018-08-09T08:54:06Z</time>
      </trkpt>
      <trkpt lat="44.13404" lon="6.33811">
        <ele>930.4</ele>
        <time>2018-08-09T08:54:07Z</time>
      </trkpt>
      <trkpt lat="44.13401" lon="6.33815">
        <ele>930</ele>
        <time>2018-08-09T08:54:08Z</time>
      </trkpt>
      <trkpt lat="44.13399" lon="6.33819">
        <ele>929.6</ele>
        <time>2018-08-09T08:54:09Z</time>
      </trkpt>
      <trkpt lat="44.13396" lon="6.33823">
        <ele>929</ele>
        <time>2018-08-09T08:54:10Z</time>
      </trkpt>
      <trkpt lat="44.13394" lon="6.33826">
        <ele>928.4</ele>
        <time>2018-08-09T08:54:11Z</time>
      </trkpt>
      <trkpt lat="44.13389" lon="6.33829">
        <ele>927.4</ele>
        <time>2018-08-09T08:54:13Z</time>
      </trkpt>
      <trkpt lat="44.13384" lon="6.33832">
        <ele>926.4</ele>
        <time>2018-08-09T08:54:15Z</time>
      </trkpt>
      <trkpt lat="44.13382" lon="6.33835">
        <ele>925.9</ele>
        <time>2018-08-09T08:54:16Z</time>
      </trkpt>
      <trkpt lat="44.1338" lon="6.33838">
        <ele>925.4</ele>
        <time>2018-08-09T08:54:17Z</time>
      </trkpt>
      <trkpt lat="44.13377" lon="6.33841">
        <ele>924.8</ele>
        <time>2018-08-09T08:54:18Z</time>
      </trkpt>
      <trkpt lat="44.13375" lon="6.33845">
        <ele>924.2</ele>
        <time>2018-08-09T08:54:19Z</time>
      </trkpt>
      <trkpt lat="44.13372" lon="6.33849">
        <ele>923.3</ele>
        <time>2018-08-09T08:54:21Z</time>
      </trkpt>
      <trkpt lat="44.1337" lon="6.33856">
        <ele>922.2</ele>
        <time>2018-08-09T08:54:23Z</time>
      </trkpt>
      <trkpt lat="44.13368" lon="6.33859">
        <ele>921.7</ele>
        <time>2018-08-09T08:54:24Z</time>
      </trkpt>
      <trkpt lat="44.13366" lon="6.33862">
        <ele>921.1</ele>
        <time>2018-08-09T08:54:25Z</time>
      </trkpt>
      <trkpt lat="44.13363" lon="6.33865">
        <ele>920.4</ele>
        <time>2018-08-09T08:54:26Z</time>
      </trkpt>
      <trkpt lat="44.1336" lon="6.33871">
        <ele>919.4</ele>
        <time>2018-08-09T08:54:28Z</time>
      </trkpt>
      <trkpt lat="44.13357" lon="6.33877">
        <ele>918.5</ele>
        <time>2018-08-09T08:54:30Z</time>
      </trkpt>
      <trkpt lat="44.13356" lon="6.33881">
        <ele>918</ele>
        <time>2018-08-09T08:54:31Z</time>
      </trkpt>
      <trkpt lat="44.13356" lon="6.33886">
        <ele>917.6</ele>
        <time>2018-08-09T08:54:32Z</time>
      </trkpt>
      <trkpt lat="44.13356" lon="6.3389">
        <ele>917.2</ele>
        <time>2018-08-09T08:54:33Z</time>
      </trkpt>
      <trkpt lat="44.13356" lon="6.33895">
        <ele>917</ele>
        <time>2018-08-09T08:54:34Z</time>
      </trkpt>
      <trkpt lat="44.13356" lon="6.33899">
        <ele>916.7</ele>
        <time>2018-08-09T08:54:35Z</time>
      </trkpt>
      <trkpt lat="44.13354" lon="6.33903">
        <ele>916.4</ele>
        <time>2018-08-09T08:54:36Z</time>
      </trkpt>
      <trkpt lat="44.13351" lon="6.33907">
        <ele>916.2</ele>
        <time>2018-08-09T08:54:37Z</time>
      </trkpt>
      <trkpt lat="44.13349" lon="6.3391">
        <ele>916</ele>
        <time>2018-08-09T08:54:38Z</time>
      </trkpt>
      <trkpt lat="44.13344" lon="6.33913">
        <ele>915.8</ele>
        <time>2018-08-09T08:54:39Z</time>
      </trkpt>
      <trkpt lat="44.13341" lon="6.33916">
        <ele>915.6</ele>
        <time>2018-08-09T08:54:40Z</time>
      </trkpt>
      <trkpt lat="44.13337" lon="6.3392">
        <ele>915.4</ele>
        <time>2018-08-09T08:54:41Z</time>
      </trkpt>
      <trkpt lat="44.13333" lon="6.33922">
        <ele>915.3</ele>
        <time>2018-08-09T08:54:42Z</time>
      </trkpt>
      <trkpt lat="44.13328" lon="6.33927">
        <ele>915.2</ele>
        <time>2018-08-09T08:54:44Z</time>
      </trkpt>
      <trkpt lat="44.13326" lon="6.3393">
        <ele>915</ele>
        <time>2018-08-09T08:54:45Z</time>
      </trkpt>
      <trkpt lat="44.13324" lon="6.33932">
        <ele>914.9</ele>
        <time>2018-08-09T08:54:46Z</time>
      </trkpt>
      <trkpt lat="44.13321" lon="6.33934">
        <ele>914.7</ele>
        <time>2018-08-09T08:54:47Z</time>
      </trkpt>
      <trkpt lat="44.13317" lon="6.33941">
        <ele>914.1</ele>
        <time>2018-08-09T08:54:49Z</time>
      </trkpt>
      <trkpt lat="44.13314" lon="6.33944">
        <ele>913.7</ele>
        <time>2018-08-09T08:54:50Z</time>
      </trkpt>
      <trkpt lat="44.13312" lon="6.33947">
        <ele>913.4</ele>
        <time>2018-08-09T08:54:51Z</time>
      </trkpt>
      <trkpt lat="44.1331" lon="6.33952">
        <ele>913</ele>
        <time>2018-08-09T08:54:52Z</time>
      </trkpt>
      <trkpt lat="44.13306" lon="6.33957">
        <ele>912.4</ele>
        <time>2018-08-09T08:54:53Z</time>
      </trkpt>
      <trkpt lat="44.13304" lon="6.33962">
        <ele>912</ele>
        <time>2018-08-09T08:54:54Z</time>
      </trkpt>
      <trkpt lat="44.13301" lon="6.33966">
        <ele>911.6</ele>
        <time>2018-08-09T08:54:55Z</time>
      </trkpt>
      <trkpt lat="44.13297" lon="6.3397">
        <ele>910.9</ele>
        <time>2018-08-09T08:54:56Z</time>
      </trkpt>
      <trkpt lat="44.13294" lon="6.33974">
        <ele>910.3</ele>
        <time>2018-08-09T08:54:57Z</time>
      </trkpt>
      <trkpt lat="44.13292" lon="6.33978">
        <ele>909.9</ele>
        <time>2018-08-09T08:54:58Z</time>
      </trkpt>
      <trkpt lat="44.1329" lon="6.33982">
        <ele>909.4</ele>
        <time>2018-08-09T08:54:59Z</time>
      </trkpt>
      <trkpt lat="44.13287" lon="6.33986">
        <ele>909</ele>
        <time>2018-08-09T08:55:00Z</time>
      </trkpt>
      <trkpt lat="44.13285" lon="6.33991">
        <ele>908.5</ele>
        <time>2018-08-09T08:55:01Z</time>
      </trkpt>
      <trkpt lat="44.13284" lon="6.33995">
        <ele>908.1</ele>
        <time>2018-08-09T08:55:02Z</time>
      </trkpt>
      <trkpt lat="44.13282" lon="6.34">
        <ele>907.7</ele>
        <time>2018-08-09T08:55:03Z</time>
      </trkpt>
      <trkpt lat="44.13279" lon="6.34006">
        <ele>907</ele>
        <time>2018-08-09T08:55:04Z</time>
      </trkpt>
      <trkpt lat="44.13275" lon="6.34013">
        <ele>906.3</ele>
        <time>2018-08-09T08:55:05Z</time>
      </trkpt>
      <trkpt lat="44.13273" lon="6.34019">
        <ele>905.7</ele>
        <time>2018-08-09T08:55:06Z</time>
      </trkpt>
      <trkpt lat="44.13272" lon="6.34024">
        <ele>905.2</ele>
        <time>2018-08-09T08:55:07Z</time>
      </trkpt>
      <trkpt lat="44.1327" lon="6.34031">
        <ele>904.6</ele>
        <time>2018-08-09T08:55:08Z</time>
      </trkpt>
      <trkpt lat="44.13268" lon="6.34036">
        <ele>904</ele>
        <time>2018-08-09T08:55:09Z</time>
      </trkpt>
      <trkpt lat="44.13267" lon="6.34043">
        <ele>903.4</ele>
        <time>2018-08-09T08:55:10Z</time>
      </trkpt>
      <trkpt lat="44.13267" lon="6.34047">
        <ele>902.9</ele>
        <time>2018-08-09T08:55:11Z</time>
      </trkpt>
      <trkpt lat="44.13266" lon="6.34052">
        <ele>902.4</ele>
        <time>2018-08-09T08:55:12Z</time>
      </trkpt>
      <trkpt lat="44.13265" lon="6.34059">
        <ele>901.8</ele>
        <time>2018-08-09T08:55:13Z</time>
      </trkpt>
      <trkpt lat="44.13264" lon="6.34067">
        <ele>901.2</ele>
        <time>2018-08-09T08:55:14Z</time>
      </trkpt>
      <trkpt lat="44.13262" lon="6.34074">
        <ele>900.7</ele>
        <time>2018-08-09T08:55:15Z</time>
      </trkpt>
      <trkpt lat="44.13262" lon="6.3408">
        <ele>900.3</ele>
        <time>2018-08-09T08:55:16Z</time>
      </trkpt>
      <trkpt lat="44.13262" lon="6.34087">
        <ele>899.8</ele>
        <time>2018-08-09T08:55:17Z</time>
      </trkpt>
      <trkpt lat="44.13261" lon="6.34095">
        <ele>899.3</ele>
        <time>2018-08-09T08:55:18Z</time>
      </trkpt>
      <trkpt lat="44.13261" lon="6.341">
        <ele>898.9</ele>
        <time>2018-08-09T08:55:19Z</time>
      </trkpt>
      <trkpt lat="44.13258" lon="6.34106">
        <ele>898.4</ele>
        <time>2018-08-09T08:55:20Z</time>
      </trkpt>
      <trkpt lat="44.13256" lon="6.34115">
        <ele>897.6</ele>
        <time>2018-08-09T08:55:21Z</time>
      </trkpt>
      <trkpt lat="44.13254" lon="6.3412">
        <ele>897</ele>
        <time>2018-08-09T08:55:22Z</time>
      </trkpt>
      <trkpt lat="44.13251" lon="6.34125">
        <ele>896.4</ele>
        <time>2018-08-09T08:55:23Z</time>
      </trkpt>
      <trkpt lat="44.13249" lon="6.34129">
        <ele>896</ele>
        <time>2018-08-09T08:55:24Z</time>
      </trkpt>
      <trkpt lat="44.13249" lon="6.34134">
        <ele>895.4</ele>
        <time>2018-08-09T08:55:25Z</time>
      </trkpt>
      <trkpt lat="44.13248" lon="6.34139">
        <ele>894.7</ele>
        <time>2018-08-09T08:55:26Z</time>
      </trkpt>
      <trkpt lat="44.13247" lon="6.34144">
        <ele>894.2</ele>
        <time>2018-08-09T08:55:27Z</time>
      </trkpt>
      <trkpt lat="44.13246" lon="6.3415">
        <ele>893.8</ele>
        <time>2018-08-09T08:55:28Z</time>
      </trkpt>
      <trkpt lat="44.13245" lon="6.34156">
        <ele>893.4</ele>
        <time>2018-08-09T08:55:29Z</time>
      </trkpt>
      <trkpt lat="44.13247" lon="6.3416">
        <ele>893</ele>
        <time>2018-08-09T08:55:30Z</time>
      </trkpt>
      <trkpt lat="44.13249" lon="6.34163">
        <ele>892.8</ele>
        <time>2018-08-09T08:55:31Z</time>
      </trkpt>
      <trkpt lat="44.13253" lon="6.34162">
        <ele>892.4</ele>
        <time>2018-08-09T08:55:32Z</time>
      </trkpt>
      <trkpt lat="44.13257" lon="6.3416">
        <ele>891.9</ele>
        <time>2018-08-09T08:55:33Z</time>
      </trkpt>
      <trkpt lat="44.13261" lon="6.34159">
        <ele>891.4</ele>
        <time>2018-08-09T08:55:34Z</time>
      </trkpt>
      <trkpt lat="44.13265" lon="6.34159">
        <ele>890.8</ele>
        <time>2018-08-09T08:55:35Z</time>
      </trkpt>
      <trkpt lat="44.13268" lon="6.34159">
        <ele>890.4</ele>
        <time>2018-08-09T08:55:36Z</time>
      </trkpt>
      <trkpt lat="44.13272" lon="6.34159">
        <ele>889.9</ele>
        <time>2018-08-09T08:55:37Z</time>
      </trkpt>
      <trkpt lat="44.13277" lon="6.34159">
        <ele>889.2</ele>
        <time>2018-08-09T08:55:39Z</time>
      </trkpt>
      <trkpt lat="44.13282" lon="6.34156">
        <ele>887.3</ele>
        <time>2018-08-09T08:55:41Z</time>
      </trkpt>
      <trkpt lat="44.13286" lon="6.34155">
        <ele>886.1</ele>
        <time>2018-08-09T08:55:42Z</time>
      </trkpt>
      <trkpt lat="44.1329" lon="6.34155">
        <ele>885.1</ele>
        <time>2018-08-09T08:55:43Z</time>
      </trkpt>
      <trkpt lat="44.13296" lon="6.34156">
        <ele>883.8</ele>
        <time>2018-08-09T08:55:44Z</time>
      </trkpt>
      <trkpt lat="44.13302" lon="6.34156">
        <ele>882.3</ele>
        <time>2018-08-09T08:55:45Z</time>
      </trkpt>
      <trkpt lat="44.1331" lon="6.34159">
        <ele>879.1</ele>
        <time>2018-08-09T08:55:46Z</time>
      </trkpt>
      <trkpt lat="44.13318" lon="6.34161">
        <ele>875.4</ele>
        <time>2018-08-09T08:55:47Z</time>
      </trkpt>
      <trkpt lat="44.13327" lon="6.34162">
        <ele>873.5</ele>
        <time>2018-08-09T08:55:48Z</time>
      </trkpt>
      <trkpt lat="44.13333" lon="6.34163">
        <ele>872.4</ele>
        <time>2018-08-09T08:55:49Z</time>
      </trkpt>
      <trkpt lat="44.13339" lon="6.34164">
        <ele>871.5</ele>
        <time>2018-08-09T08:55:50Z</time>
      </trkpt>
      <trkpt lat="44.13343" lon="6.34166">
        <ele>870.9</ele>
        <time>2018-08-09T08:55:51Z</time>
      </trkpt>
      <trkpt lat="44.13345" lon="6.34171">
        <ele>870.6</ele>
        <time>2018-08-09T08:55:52Z</time>
      </trkpt>
      <trkpt lat="44.13346" lon="6.34177">
        <ele>870.3</ele>
        <time>2018-08-09T08:55:53Z</time>
      </trkpt>
      <trkpt lat="44.13347" lon="6.34183">
        <ele>870.1</ele>
        <time>2018-08-09T08:55:54Z</time>
      </trkpt>
      <trkpt lat="44.13348" lon="6.34188">
        <ele>869.9</ele>
        <time>2018-08-09T08:55:55Z</time>
      </trkpt>
      <trkpt lat="44.13349" lon="6.34193">
        <ele>869.7</ele>
        <time>2018-08-09T08:55:56Z</time>
      </trkpt>
      <trkpt lat="44.1335" lon="6.34197">
        <ele>869.5</ele>
        <time>2018-08-09T08:55:57Z</time>
      </trkpt>
      <trkpt lat="44.13353" lon="6.34201">
        <ele>869.4</ele>
        <time>2018-08-09T08:55:58Z</time>
      </trkpt>
      <trkpt lat="44.13354" lon="6.34206">
        <ele>869.2</ele>
        <time>2018-08-09T08:55:59Z</time>
      </trkpt>
      <trkpt lat="44.13357" lon="6.34208">
        <ele>869.1</ele>
        <time>2018-08-09T08:56:00Z</time>
      </trkpt>
      <trkpt lat="44.13363" lon="6.34211">
        <ele>868.8</ele>
        <time>2018-08-09T08:56:02Z</time>
      </trkpt>
      <trkpt lat="44.13365" lon="6.34213">
        <ele>868.7</ele>
        <time>2018-08-09T08:56:03Z</time>
      </trkpt>
      <trkpt lat="44.13368" lon="6.34214">
        <ele>868.6</ele>
        <time>2018-08-09T08:56:04Z</time>
      </trkpt>
      <trkpt lat="44.13371" lon="6.34215">
        <ele>868.5</ele>
        <time>2018-08-09T08:56:05Z</time>
      </trkpt>
      <trkpt lat="44.13374" lon="6.34216">
        <ele>868.4</ele>
        <time>2018-08-09T08:56:06Z</time>
      </trkpt>
      <trkpt lat="44.13376" lon="6.34217">
        <ele>868.3</ele>
        <time>2018-08-09T08:56:07Z</time>
      </trkpt>
      <trkpt lat="44.13379" lon="6.3422">
        <ele>868.2</ele>
        <time>2018-08-09T08:56:08Z</time>
      </trkpt>
      <trkpt lat="44.13382" lon="6.34222">
        <ele>868</ele>
        <time>2018-08-09T08:56:09Z</time>
      </trkpt>
      <trkpt lat="44.13387" lon="6.34223">
        <ele>867.8</ele>
        <time>2018-08-09T08:56:11Z</time>
      </trkpt>
      <trkpt lat="44.1339" lon="6.34224">
        <ele>867.7</ele>
        <time>2018-08-09T08:56:12Z</time>
      </trkpt>
      <trkpt lat="44.13393" lon="6.34225">
        <ele>867.6</ele>
        <time>2018-08-09T08:56:13Z</time>
      </trkpt>
      <trkpt lat="44.13398" lon="6.34226">
        <ele>867.4</ele>
        <time>2018-08-09T08:56:15Z</time>
      </trkpt>
      <trkpt lat="44.13402" lon="6.34226">
        <ele>867.3</ele>
        <time>2018-08-09T08:56:17Z</time>
      </trkpt>
      <trkpt lat="44.13407" lon="6.3423">
        <ele>867</ele>
        <time>2018-08-09T08:56:19Z</time>
      </trkpt>
      <trkpt lat="44.1341" lon="6.34232">
        <ele>866.9</ele>
        <time>2018-08-09T08:56:20Z</time>
      </trkpt>
      <trkpt lat="44.13415" lon="6.34235">
        <ele>866.7</ele>
        <time>2018-08-09T08:56:22Z</time>
      </trkpt>
      <trkpt lat="44.13419" lon="6.3424">
        <ele>866.5</ele>
        <time>2018-08-09T08:56:24Z</time>
      </trkpt>
      <trkpt lat="44.13422" lon="6.34243">
        <ele>866.3</ele>
        <time>2018-08-09T08:56:26Z</time>
      </trkpt>
      <trkpt lat="44.13425" lon="6.34245">
        <ele>866.2</ele>
        <time>2018-08-09T08:56:28Z</time>
      </trkpt>
      <trkpt lat="44.13428" lon="6.34249">
        <ele>866</ele>
        <time>2018-08-09T08:56:30Z</time>
      </trkpt>
      <trkpt lat="44.13432" lon="6.34252">
        <ele>865.8</ele>
        <time>2018-08-09T08:56:32Z</time>
      </trkpt>
      <trkpt lat="44.13436" lon="6.34256">
        <ele>865.7</ele>
        <time>2018-08-09T08:56:34Z</time>
      </trkpt>
      <trkpt lat="44.13439" lon="6.34258">
        <ele>865.6</ele>
        <time>2018-08-09T08:56:36Z</time>
      </trkpt>
      <trkpt lat="44.13442" lon="6.3426">
        <ele>865.5</ele>
        <time>2018-08-09T08:56:37Z</time>
      </trkpt>
      <trkpt lat="44.13445" lon="6.34263">
        <ele>865.4</ele>
        <time>2018-08-09T08:56:39Z</time>
      </trkpt>
      <trkpt lat="44.13448" lon="6.34266">
        <ele>865.3</ele>
        <time>2018-08-09T08:56:41Z</time>
      </trkpt>
      <trkpt lat="44.13451" lon="6.34268">
        <ele>865.2</ele>
        <time>2018-08-09T08:56:43Z</time>
      </trkpt>
      <trkpt lat="44.13452" lon="6.34273">
        <ele>865.1</ele>
        <time>2018-08-09T08:56:46Z</time>
      </trkpt>
      <trkpt lat="44.13451" lon="6.34277">
        <ele>865.9</ele>
        <time>2018-08-09T08:56:49Z</time>
      </trkpt>
      <trkpt lat="44.13451" lon="6.34281">
        <ele>866.1</ele>
        <time>2018-08-09T08:56:52Z</time>
      </trkpt>
      <trkpt lat="44.1345" lon="6.34284">
        <ele>866.3</ele>
        <time>2018-08-09T08:56:55Z</time>
      </trkpt>
      <trkpt lat="44.13449" lon="6.34289">
        <ele>866.5</ele>
        <time>2018-08-09T08:56:58Z</time>
      </trkpt>
      <trkpt lat="44.13447" lon="6.34292">
        <ele>866.7</ele>
        <time>2018-08-09T08:57:03Z</time>
      </trkpt>
      <trkpt lat="44.1345" lon="6.34293">
        <ele>866.6</ele>
        <time>2018-08-09T08:57:07Z</time>
      </trkpt>
      <trkpt lat="44.13449" lon="6.34289">
        <ele>866.3</ele>
        <time>2018-08-09T08:57:16Z</time>
      </trkpt>
      <trkpt lat="44.1345" lon="6.34284">
        <ele>866.1</ele>
        <time>2018-08-09T08:57:19Z</time>
      </trkpt>
      <trkpt lat="44.13452" lon="6.3428">
        <ele>865.9</ele>
        <time>2018-08-09T08:57:21Z</time>
      </trkpt>
      <trkpt lat="44.13456" lon="6.34276">
        <ele>865.6</ele>
        <time>2018-08-09T08:57:23Z</time>
      </trkpt>
      <trkpt lat="44.13459" lon="6.34274">
        <ele>865.2</ele>
        <time>2018-08-09T08:57:24Z</time>
      </trkpt>
      <trkpt lat="44.13462" lon="6.34273">
        <ele>865</ele>
        <time>2018-08-09T08:57:25Z</time>
      </trkpt>
      <trkpt lat="44.13466" lon="6.34272">
        <ele>865.2</ele>
        <time>2018-08-09T08:57:26Z</time>
      </trkpt>
      <trkpt lat="44.1347" lon="6.34271">
        <ele>865.4</ele>
        <time>2018-08-09T08:57:28Z</time>
      </trkpt>
      <trkpt lat="44.13474" lon="6.34272">
        <ele>865.6</ele>
        <time>2018-08-09T08:57:30Z</time>
      </trkpt>
      <trkpt lat="44.13477" lon="6.34273">
        <ele>865.8</ele>
        <time>2018-08-09T08:57:31Z</time>
      </trkpt>
      <trkpt lat="44.1348" lon="6.34275">
        <ele>866</ele>
        <time>2018-08-09T08:57:32Z</time>
      </trkpt>
      <trkpt lat="44.13483" lon="6.34276">
        <ele>866.1</ele>
        <time>2018-08-09T08:57:33Z</time>
      </trkpt>
      <trkpt lat="44.13486" lon="6.34281">
        <ele>866.3</ele>
        <time>2018-08-09T08:57:34Z</time>
      </trkpt>
      <trkpt lat="44.1349" lon="6.34285">
        <ele>866.4</ele>
        <time>2018-08-09T08:57:35Z</time>
      </trkpt>
      <trkpt lat="44.13494" lon="6.34289">
        <ele>866.6</ele>
        <time>2018-08-09T08:57:36Z</time>
      </trkpt>
      <trkpt lat="44.13497" lon="6.34295">
        <ele>866.7</ele>
        <time>2018-08-09T08:57:37Z</time>
      </trkpt>
      <trkpt lat="44.13501" lon="6.343">
        <ele>866.8</ele>
        <time>2018-08-09T08:57:38Z</time>
      </trkpt>
      <trkpt lat="44.13506" lon="6.34303">
        <ele>866.8</ele>
        <time>2018-08-09T08:57:39Z</time>
      </trkpt>
      <trkpt lat="44.13513" lon="6.34305">
        <ele>866.8</ele>
        <time>2018-08-09T08:57:40Z</time>
      </trkpt>
      <trkpt lat="44.13519" lon="6.34306">
        <ele>866.8</ele>
        <time>2018-08-09T08:57:41Z</time>
      </trkpt>
      <trkpt lat="44.13526" lon="6.34309">
        <ele>867</ele>
        <time>2018-08-09T08:57:42Z</time>
      </trkpt>
      <trkpt lat="44.13533" lon="6.34313">
        <ele>867.2</ele>
        <time>2018-08-09T08:57:43Z</time>
      </trkpt>
      <trkpt lat="44.13538" lon="6.34318">
        <ele>867.4</ele>
        <time>2018-08-09T08:57:44Z</time>
      </trkpt>
      <trkpt lat="44.13543" lon="6.34325">
        <ele>867.6</ele>
        <time>2018-08-09T08:57:45Z</time>
      </trkpt>
      <trkpt lat="44.13549" lon="6.34333">
        <ele>867.8</ele>
        <time>2018-08-09T08:57:46Z</time>
      </trkpt>
      <trkpt lat="44.13554" lon="6.34338">
        <ele>868</ele>
        <time>2018-08-09T08:57:47Z</time>
      </trkpt>
      <trkpt lat="44.13561" lon="6.34342">
        <ele>868</ele>
        <time>2018-08-09T08:57:48Z</time>
      </trkpt>
      <trkpt lat="44.13568" lon="6.34345">
        <ele>868</ele>
        <time>2018-08-09T08:57:49Z</time>
      </trkpt>
      <trkpt lat="44.13574" lon="6.34348">
        <ele>868</ele>
        <time>2018-08-09T08:57:50Z</time>
      </trkpt>
      <trkpt lat="44.13581" lon="6.34351">
        <ele>867.6</ele>
        <time>2018-08-09T08:57:51Z</time>
      </trkpt>
      <trkpt lat="44.13586" lon="6.34354">
        <ele>867</ele>
        <time>2018-08-09T08:57:52Z</time>
      </trkpt>
      <trkpt lat="44.13588" lon="6.34359">
        <ele>866.5</ele>
        <time>2018-08-09T08:57:53Z</time>
      </trkpt>
      <trkpt lat="44.1359" lon="6.34364">
        <ele>866.1</ele>
        <time>2018-08-09T08:57:54Z</time>
      </trkpt>
      <trkpt lat="44.13594" lon="6.34367">
        <ele>865.8</ele>
        <time>2018-08-09T08:57:56Z</time>
      </trkpt>
      <trkpt lat="44.13591" lon="6.34363">
        <ele>866.1</ele>
        <time>2018-08-09T08:58:00Z</time>
      </trkpt>
      <trkpt lat="44.1359" lon="6.3436">
        <ele>866.3</ele>
        <time>2018-08-09T08:58:01Z</time>
      </trkpt>
      <trkpt lat="44.13587" lon="6.34357">
        <ele>866.6</ele>
        <time>2018-08-09T08:58:02Z</time>
      </trkpt>
      <trkpt lat="44.13586" lon="6.34353">
        <ele>866.9</ele>
        <time>2018-08-09T08:58:03Z</time>
      </trkpt>
      <trkpt lat="44.13586" lon="6.34348">
        <ele>867.3</ele>
        <time>2018-08-09T08:58:04Z</time>
      </trkpt>
      <trkpt lat="44.13587" lon="6.34343">
        <ele>868</ele>
        <time>2018-08-09T08:58:05Z</time>
      </trkpt>
      <trkpt lat="44.13589" lon="6.3434">
        <ele>868</ele>
        <time>2018-08-09T08:58:06Z</time>
      </trkpt>
      <trkpt lat="44.13592" lon="6.34338">
        <ele>868.1</ele>
        <time>2018-08-09T08:58:07Z</time>
      </trkpt>
      <trkpt lat="44.13595" lon="6.34335">
        <ele>868.1</ele>
        <time>2018-08-09T08:58:08Z</time>
      </trkpt>
      <trkpt lat="44.13598" lon="6.34333">
        <ele>868.1</ele>
        <time>2018-08-09T08:58:09Z</time>
      </trkpt>
      <trkpt lat="44.13601" lon="6.3433">
        <ele>868.1</ele>
        <time>2018-08-09T08:58:10Z</time>
      </trkpt>
      <trkpt lat="44.13605" lon="6.34325">
        <ele>868.1</ele>
        <time>2018-08-09T08:58:12Z</time>
      </trkpt>
      <trkpt lat="44.13608" lon="6.34322">
        <ele>868</ele>
        <time>2018-08-09T08:58:13Z</time>
      </trkpt>
      <trkpt lat="44.1361" lon="6.34319">
        <ele>868</ele>
        <time>2018-08-09T08:58:14Z</time>
      </trkpt>
      <trkpt lat="44.13614" lon="6.34314">
        <ele>867.8</ele>
        <time>2018-08-09T08:58:16Z</time>
      </trkpt>
      <trkpt lat="44.13617" lon="6.3431">
        <ele>867.5</ele>
        <time>2018-08-09T08:58:17Z</time>
      </trkpt>
      <trkpt lat="44.1362" lon="6.34307">
        <ele>867</ele>
        <time>2018-08-09T08:58:18Z</time>
      </trkpt>
      <trkpt lat="44.13623" lon="6.34303">
        <ele>866.6</ele>
        <time>2018-08-09T08:58:19Z</time>
      </trkpt>
      <trkpt lat="44.13627" lon="6.34299">
        <ele>866.3</ele>
        <time>2018-08-09T08:58:20Z</time>
      </trkpt>
      <trkpt lat="44.13632" lon="6.34294">
        <ele>865.6</ele>
        <time>2018-08-09T08:58:21Z</time>
      </trkpt>
      <trkpt lat="44.13638" lon="6.3429">
        <ele>865.1</ele>
        <time>2018-08-09T08:58:22Z</time>
      </trkpt>
      <trkpt lat="44.13643" lon="6.34286">
        <ele>864.7</ele>
        <time>2018-08-09T08:58:23Z</time>
      </trkpt>
      <trkpt lat="44.13649" lon="6.34281">
        <ele>864.3</ele>
        <time>2018-08-09T08:58:24Z</time>
      </trkpt>
      <trkpt lat="44.13654" lon="6.34277">
        <ele>863.4</ele>
        <time>2018-08-09T08:58:25Z</time>
      </trkpt>
      <trkpt lat="44.13659" lon="6.34275">
        <ele>863</ele>
        <time>2018-08-09T08:58:26Z</time>
      </trkpt>
      <trkpt lat="44.13662" lon="6.34272">
        <ele>862.8</ele>
        <time>2018-08-09T08:58:27Z</time>
      </trkpt>
      <trkpt lat="44.13665" lon="6.34271">
        <ele>862.4</ele>
        <time>2018-08-09T08:58:28Z</time>
      </trkpt>
      <trkpt lat="44.13667" lon="6.34269">
        <ele>861.9</ele>
        <time>2018-08-09T08:58:29Z</time>
      </trkpt>
      <trkpt lat="44.1367" lon="6.34268">
        <ele>861.5</ele>
        <time>2018-08-09T08:58:30Z</time>
      </trkpt>
      <trkpt lat="44.13673" lon="6.34265">
        <ele>861.1</ele>
        <time>2018-08-09T08:58:31Z</time>
      </trkpt>
      <trkpt lat="44.13676" lon="6.34264">
        <ele>860.9</ele>
        <time>2018-08-09T08:58:32Z</time>
      </trkpt>
      <trkpt lat="44.13679" lon="6.34263">
        <ele>860.2</ele>
        <time>2018-08-09T08:58:33Z</time>
      </trkpt>
      <trkpt lat="44.13685" lon="6.34263">
        <ele>859.4</ele>
        <time>2018-08-09T08:58:34Z</time>
      </trkpt>
      <trkpt lat="44.13691" lon="6.34262">
        <ele>858.2</ele>
        <time>2018-08-09T08:58:35Z</time>
      </trkpt>
      <trkpt lat="44.13697" lon="6.34262">
        <ele>857.5</ele>
        <time>2018-08-09T08:58:36Z</time>
      </trkpt>
      <trkpt lat="44.13704" lon="6.34261">
        <ele>856.4</ele>
        <time>2018-08-09T08:58:37Z</time>
      </trkpt>
      <trkpt lat="44.1371" lon="6.3426">
        <ele>856</ele>
        <time>2018-08-09T08:58:38Z</time>
      </trkpt>
      <trkpt lat="44.13716" lon="6.3426">
        <ele>855.2</ele>
        <time>2018-08-09T08:58:39Z</time>
      </trkpt>
      <trkpt lat="44.13723" lon="6.3426">
        <ele>854.5</ele>
        <time>2018-08-09T08:58:40Z</time>
      </trkpt>
      <trkpt lat="44.13729" lon="6.34261">
        <ele>854.2</ele>
        <time>2018-08-09T08:58:41Z</time>
      </trkpt>
      <trkpt lat="44.13734" lon="6.34262">
        <ele>853.9</ele>
        <time>2018-08-09T08:58:42Z</time>
      </trkpt>
      <trkpt lat="44.13739" lon="6.34264">
        <ele>853.2</ele>
        <time>2018-08-09T08:58:43Z</time>
      </trkpt>
      <trkpt lat="44.13744" lon="6.34267">
        <ele>852.7</ele>
        <time>2018-08-09T08:58:44Z</time>
      </trkpt>
      <trkpt lat="44.13748" lon="6.3427">
        <ele>852.3</ele>
        <time>2018-08-09T08:58:45Z</time>
      </trkpt>
      <trkpt lat="44.13752" lon="6.34272">
        <ele>851.7</ele>
        <time>2018-08-09T08:58:46Z</time>
      </trkpt>
      <trkpt lat="44.13756" lon="6.34273">
        <ele>851.3</ele>
        <time>2018-08-09T08:58:47Z</time>
      </trkpt>
      <trkpt lat="44.13758" lon="6.34274">
        <ele>851.1</ele>
        <time>2018-08-09T08:58:48Z</time>
      </trkpt>
      <trkpt lat="44.13763" lon="6.34274">
        <ele>850.7</ele>
        <time>2018-08-09T08:58:50Z</time>
      </trkpt>
      <trkpt lat="44.13766" lon="6.34276">
        <ele>850.3</ele>
        <time>2018-08-09T08:58:51Z</time>
      </trkpt>
      <trkpt lat="44.13769" lon="6.34279">
        <ele>849.9</ele>
        <time>2018-08-09T08:58:52Z</time>
      </trkpt>
      <trkpt lat="44.13774" lon="6.34281">
        <ele>849.6</ele>
        <time>2018-08-09T08:58:53Z</time>
      </trkpt>
      <trkpt lat="44.13779" lon="6.34283">
        <ele>849.2</ele>
        <time>2018-08-09T08:58:54Z</time>
      </trkpt>
      <trkpt lat="44.13784" lon="6.34285">
        <ele>848.5</ele>
        <time>2018-08-09T08:58:55Z</time>
      </trkpt>
      <trkpt lat="44.13791" lon="6.34285">
        <ele>848</ele>
        <time>2018-08-09T08:58:56Z</time>
      </trkpt>
      <trkpt lat="44.13797" lon="6.34286">
        <ele>847.7</ele>
        <time>2018-08-09T08:58:57Z</time>
      </trkpt>
      <trkpt lat="44.13803" lon="6.34287">
        <ele>847.4</ele>
        <time>2018-08-09T08:58:58Z</time>
      </trkpt>
      <trkpt lat="44.1381" lon="6.34287">
        <ele>846.7</ele>
        <time>2018-08-09T08:58:59Z</time>
      </trkpt>
      <trkpt lat="44.13819" lon="6.34287">
        <ele>846.4</ele>
        <time>2018-08-09T08:59:00Z</time>
      </trkpt>
      <trkpt lat="44.13826" lon="6.34288">
        <ele>846</ele>
        <time>2018-08-09T08:59:01Z</time>
      </trkpt>
      <trkpt lat="44.13832" lon="6.34288">
        <ele>845.4</ele>
        <time>2018-08-09T08:59:02Z</time>
      </trkpt>
      <trkpt lat="44.13839" lon="6.34288">
        <ele>844.7</ele>
        <time>2018-08-09T08:59:03Z</time>
      </trkpt>
      <trkpt lat="44.13846" lon="6.34289">
        <ele>844.3</ele>
        <time>2018-08-09T08:59:04Z</time>
      </trkpt>
      <trkpt lat="44.13853" lon="6.34288">
        <ele>843.6</ele>
        <time>2018-08-09T08:59:05Z</time>
      </trkpt>
      <trkpt lat="44.13861" lon="6.34287">
        <ele>842.9</ele>
        <time>2018-08-09T08:59:06Z</time>
      </trkpt>
      <trkpt lat="44.13869" lon="6.34287">
        <ele>842.2</ele>
        <time>2018-08-09T08:59:07Z</time>
      </trkpt>
      <trkpt lat="44.13875" lon="6.34289">
        <ele>841.3</ele>
        <time>2018-08-09T08:59:08Z</time>
      </trkpt>
      <trkpt lat="44.13881" lon="6.34289">
        <ele>840.3</ele>
        <time>2018-08-09T08:59:09Z</time>
      </trkpt>
      <trkpt lat="44.13889" lon="6.34291">
        <ele>839.2</ele>
        <time>2018-08-09T08:59:10Z</time>
      </trkpt>
      <trkpt lat="44.13896" lon="6.34294">
        <ele>838.2</ele>
        <time>2018-08-09T08:59:11Z</time>
      </trkpt>
      <trkpt lat="44.13902" lon="6.34294">
        <ele>837.7</ele>
        <time>2018-08-09T08:59:12Z</time>
      </trkpt>
      <trkpt lat="44.13908" lon="6.34295">
        <ele>837.3</ele>
        <time>2018-08-09T08:59:13Z</time>
      </trkpt>
      <trkpt lat="44.13914" lon="6.34295">
        <ele>836.3</ele>
        <time>2018-08-09T08:59:14Z</time>
      </trkpt>
      <trkpt lat="44.1392" lon="6.34295">
        <ele>835.6</ele>
        <time>2018-08-09T08:59:15Z</time>
      </trkpt>
      <trkpt lat="44.13926" lon="6.34295">
        <ele>834.8</ele>
        <time>2018-08-09T08:59:16Z</time>
      </trkpt>
      <trkpt lat="44.13933" lon="6.34292">
        <ele>834.2</ele>
        <time>2018-08-09T08:59:17Z</time>
      </trkpt>
      <trkpt lat="44.13939" lon="6.34288">
        <ele>833.4</ele>
        <time>2018-08-09T08:59:18Z</time>
      </trkpt>
      <trkpt lat="44.13946" lon="6.34285">
        <ele>832.6</ele>
        <time>2018-08-09T08:59:19Z</time>
      </trkpt>
      <trkpt lat="44.13953" lon="6.34282">
        <ele>831.6</ele>
        <time>2018-08-09T08:59:20Z</time>
      </trkpt>
      <trkpt lat="44.13958" lon="6.34278">
        <ele>831.1</ele>
        <time>2018-08-09T08:59:21Z</time>
      </trkpt>
      <trkpt lat="44.1396" lon="6.34274">
        <ele>830.8</ele>
        <time>2018-08-09T08:59:22Z</time>
      </trkpt>
      <trkpt lat="44.13962" lon="6.34266">
        <ele>830.1</ele>
        <time>2018-08-09T08:59:23Z</time>
      </trkpt>
      <trkpt lat="44.13963" lon="6.3426">
        <ele>829.6</ele>
        <time>2018-08-09T08:59:24Z</time>
      </trkpt>
      <trkpt lat="44.13963" lon="6.34253">
        <ele>829</ele>
        <time>2018-08-09T08:59:25Z</time>
      </trkpt>
      <trkpt lat="44.13965" lon="6.34245">
        <ele>828.5</ele>
        <time>2018-08-09T08:59:26Z</time>
      </trkpt>
      <trkpt lat="44.13967" lon="6.34237">
        <ele>828.3</ele>
        <time>2018-08-09T08:59:27Z</time>
      </trkpt>
      <trkpt lat="44.13969" lon="6.34232">
        <ele>828.2</ele>
        <time>2018-08-09T08:59:28Z</time>
      </trkpt>
      <trkpt lat="44.13971" lon="6.34229">
        <ele>828.2</ele>
        <time>2018-08-09T08:59:29Z</time>
      </trkpt>
      <trkpt lat="44.13974" lon="6.34226">
        <ele>828.1</ele>
        <time>2018-08-09T08:59:30Z</time>
      </trkpt>
      <trkpt lat="44.13979" lon="6.34226">
        <ele>825.9</ele>
        <time>2018-08-09T08:59:32Z</time>
      </trkpt>
      <trkpt lat="44.13983" lon="6.34227">
        <ele>823.4</ele>
        <time>2018-08-09T08:59:33Z</time>
      </trkpt>
      <trkpt lat="44.13986" lon="6.34229">
        <ele>821.4</ele>
        <time>2018-08-09T08:59:34Z</time>
      </trkpt>
      <trkpt lat="44.13989" lon="6.3423">
        <ele>819.5</ele>
        <time>2018-08-09T08:59:35Z</time>
      </trkpt>
      <trkpt lat="44.13992" lon="6.34231">
        <ele>817.6</ele>
        <time>2018-08-09T08:59:36Z</time>
      </trkpt>
      <trkpt lat="44.13995" lon="6.34233">
        <ele>815.3</ele>
        <time>2018-08-09T08:59:37Z</time>
      </trkpt>
      <trkpt lat="44.13999" lon="6.34235">
        <ele>813.1</ele>
        <time>2018-08-09T08:59:38Z</time>
      </trkpt>
      <trkpt lat="44.14002" lon="6.34236">
        <ele>811.3</ele>
        <time>2018-08-09T08:59:39Z</time>
      </trkpt>
      <trkpt lat="44.14005" lon="6.34237">
        <ele>809.6</ele>
        <time>2018-08-09T08:59:41Z</time>
      </trkpt>
      <trkpt lat="44.14008" lon="6.34241">
        <ele>809</ele>
        <time>2018-08-09T08:59:44Z</time>
      </trkpt>
      <trkpt lat="44.14011" lon="6.34245">
        <ele>808.4</ele>
        <time>2018-08-09T08:59:46Z</time>
      </trkpt>
      <trkpt lat="44.14013" lon="6.34249">
        <ele>807.9</ele>
        <time>2018-08-09T08:59:49Z</time>
      </trkpt>
      <trkpt lat="44.14015" lon="6.34253">
        <ele>807.3</ele>
        <time>2018-08-09T08:59:52Z</time>
      </trkpt>
      <trkpt lat="44.14017" lon="6.34258">
        <ele>806.7</ele>
        <time>2018-08-09T08:59:54Z</time>
      </trkpt>
      <trkpt lat="44.14019" lon="6.3426">
        <ele>806.3</ele>
        <time>2018-08-09T08:59:56Z</time>
      </trkpt>
      <trkpt lat="44.1402" lon="6.34264">
        <ele>805.9</ele>
        <time>2018-08-09T08:59:58Z</time>
      </trkpt>
      <trkpt lat="44.14021" lon="6.34267">
        <ele>805.4</ele>
        <time>2018-08-09T09:00:00Z</time>
      </trkpt>
      <trkpt lat="44.14023" lon="6.34272">
        <ele>805</ele>
        <time>2018-08-09T09:00:03Z</time>
      </trkpt>
      <trkpt lat="44.14026" lon="6.34273">
        <ele>805.4</ele>
        <time>2018-08-09T09:00:13Z</time>
      </trkpt>
      <trkpt lat="44.14029" lon="6.34275">
        <ele>805.9</ele>
        <time>2018-08-09T09:00:16Z</time>
      </trkpt>
      <trkpt lat="44.14032" lon="6.34275">
        <ele>806.1</ele>
        <time>2018-08-09T09:00:19Z</time>
      </trkpt>
      <trkpt lat="44.14035" lon="6.34277">
        <ele>806.4</ele>
        <time>2018-08-09T09:00:22Z</time>
      </trkpt>
      <trkpt lat="44.14038" lon="6.34278">
        <ele>806.7</ele>
        <time>2018-08-09T09:00:25Z</time>
      </trkpt>
      <trkpt lat="44.1404" lon="6.34283">
        <ele>807.1</ele>
        <time>2018-08-09T09:00:33Z</time>
      </trkpt>
      <trkpt lat="44.14044" lon="6.34287">
        <ele>807.6</ele>
        <time>2018-08-09T09:00:35Z</time>
      </trkpt>
      <trkpt lat="44.14046" lon="6.34289">
        <ele>807.9</ele>
        <time>2018-08-09T09:00:36Z</time>
      </trkpt>
      <trkpt lat="44.14049" lon="6.34293">
        <ele>808.2</ele>
        <time>2018-08-09T09:00:38Z</time>
      </trkpt>
      <trkpt lat="44.14052" lon="6.34294">
        <ele>808.5</ele>
        <time>2018-08-09T09:00:41Z</time>
      </trkpt>
      <trkpt lat="44.14055" lon="6.34298">
        <ele>808.6</ele>
        <time>2018-08-09T09:00:45Z</time>
      </trkpt>
      <trkpt lat="44.14055" lon="6.34302">
        <ele>808.8</ele>
        <time>2018-08-09T09:00:48Z</time>
      </trkpt>
      <trkpt lat="44.14056" lon="6.34306">
        <ele>808.9</ele>
        <time>2018-08-09T09:00:51Z</time>
      </trkpt>
      <trkpt lat="44.14055" lon="6.3431">
        <ele>809.1</ele>
        <time>2018-08-09T09:00:53Z</time>
      </trkpt>
      <trkpt lat="44.14055" lon="6.34314">
        <ele>809.2</ele>
        <time>2018-08-09T09:00:55Z</time>
      </trkpt>
      <trkpt lat="44.14056" lon="6.34318">
        <ele>809.4</ele>
        <time>2018-08-09T09:00:58Z</time>
      </trkpt>
      <trkpt lat="44.14057" lon="6.34323">
        <ele>809.5</ele>
        <time>2018-08-09T09:01:00Z</time>
      </trkpt>
      <trkpt lat="44.14059" lon="6.34327">
        <ele>809.8</ele>
        <time>2018-08-09T09:01:03Z</time>
      </trkpt>
      <trkpt lat="44.14062" lon="6.34327">
        <ele>810</ele>
        <time>2018-08-09T09:01:05Z</time>
      </trkpt>
      <trkpt lat="44.14066" lon="6.34329">
        <ele>810.5</ele>
        <time>2018-08-09T09:01:07Z</time>
      </trkpt>
      <trkpt lat="44.1407" lon="6.34329">
        <ele>811.1</ele>
        <time>2018-08-09T09:01:09Z</time>
      </trkpt>
      <trkpt lat="44.14073" lon="6.34328">
        <ele>811.5</ele>
        <time>2018-08-09T09:01:11Z</time>
      </trkpt>
      <trkpt lat="44.14078" lon="6.3433">
        <ele>811.7</ele>
        <time>2018-08-09T09:01:13Z</time>
      </trkpt>
      <trkpt lat="44.1408" lon="6.34332">
        <ele>811.9</ele>
        <time>2018-08-09T09:01:16Z</time>
      </trkpt>
      <trkpt lat="44.1408" lon="6.34336">
        <ele>812</ele>
        <time>2018-08-09T09:01:21Z</time>
      </trkpt>
      <trkpt lat="44.14081" lon="6.3434">
        <ele>812.2</ele>
        <time>2018-08-09T09:01:24Z</time>
      </trkpt>
      <trkpt lat="44.14083" lon="6.34344">
        <ele>812.4</ele>
        <time>2018-08-09T09:01:29Z</time>
      </trkpt>
      <trkpt lat="44.14087" lon="6.34346">
        <ele>812.7</ele>
        <time>2018-08-09T09:01:31Z</time>
      </trkpt>
      <trkpt lat="44.1409" lon="6.3435">
        <ele>813</ele>
        <time>2018-08-09T09:01:33Z</time>
      </trkpt>
      <trkpt lat="44.14092" lon="6.34354">
        <ele>813.3</ele>
        <time>2018-08-09T09:01:35Z</time>
      </trkpt>
      <trkpt lat="44.14094" lon="6.34357">
        <ele>813.6</ele>
        <time>2018-08-09T09:01:37Z</time>
      </trkpt>
      <trkpt lat="44.14095" lon="6.34362">
        <ele>813.9</ele>
        <time>2018-08-09T09:01:39Z</time>
      </trkpt>
      <trkpt lat="44.14098" lon="6.34367">
        <ele>814.3</ele>
        <time>2018-08-09T09:01:41Z</time>
      </trkpt>
      <trkpt lat="44.141" lon="6.3437">
        <ele>814.5</ele>
        <time>2018-08-09T09:01:43Z</time>
      </trkpt>
      <trkpt lat="44.14102" lon="6.34375">
        <ele>814.8</ele>
        <time>2018-08-09T09:01:45Z</time>
      </trkpt>
      <trkpt lat="44.14104" lon="6.34379">
        <ele>815</ele>
        <time>2018-08-09T09:01:47Z</time>
      </trkpt>
      <trkpt lat="44.14106" lon="6.34385">
        <ele>815.1</ele>
        <time>2018-08-09T09:01:49Z</time>
      </trkpt>
      <trkpt lat="44.14107" lon="6.3439">
        <ele>815.2</ele>
        <time>2018-08-09T09:01:51Z</time>
      </trkpt>
      <trkpt lat="44.14109" lon="6.34396">
        <ele>815.3</ele>
        <time>2018-08-09T09:01:53Z</time>
      </trkpt>
      <trkpt lat="44.14112" lon="6.344">
        <ele>815.4</ele>
        <time>2018-08-09T09:01:55Z</time>
      </trkpt>
      <trkpt lat="44.14114" lon="6.34405">
        <ele>815.4</ele>
        <time>2018-08-09T09:01:57Z</time>
      </trkpt>
      <trkpt lat="44.14117" lon="6.34407">
        <ele>815.5</ele>
        <time>2018-08-09T09:01:58Z</time>
      </trkpt>
      <trkpt lat="44.1412" lon="6.34411">
        <ele>815.6</ele>
        <time>2018-08-09T09:02:00Z</time>
      </trkpt>
      <trkpt lat="44.14124" lon="6.34414">
        <ele>815.7</ele>
        <time>2018-08-09T09:02:02Z</time>
      </trkpt>
      <trkpt lat="44.14127" lon="6.34417">
        <ele>815.8</ele>
        <time>2018-08-09T09:02:04Z</time>
      </trkpt>
      <trkpt lat="44.14131" lon="6.34419">
        <ele>815.8</ele>
        <time>2018-08-09T09:02:06Z</time>
      </trkpt>
      <trkpt lat="44.14134" lon="6.34421">
        <ele>815.9</ele>
        <time>2018-08-09T09:02:08Z</time>
      </trkpt>
      <trkpt lat="44.14138" lon="6.34421">
        <ele>816</ele>
        <time>2018-08-09T09:02:10Z</time>
      </trkpt>
      <trkpt lat="44.14142" lon="6.34421">
        <ele>816.2</ele>
        <time>2018-08-09T09:02:12Z</time>
      </trkpt>
      <trkpt lat="44.14145" lon="6.34423">
        <ele>816.4</ele>
        <time>2018-08-09T09:02:14Z</time>
      </trkpt>
      <trkpt lat="44.14149" lon="6.34425">
        <ele>816.7</ele>
        <time>2018-08-09T09:02:16Z</time>
      </trkpt>
      <trkpt lat="44.14152" lon="6.34423">
        <ele>817</ele>
        <time>2018-08-09T09:02:18Z</time>
      </trkpt>
      <trkpt lat="44.14155" lon="6.34423">
        <ele>817.4</ele>
        <time>2018-08-09T09:02:20Z</time>
      </trkpt>
      <trkpt lat="44.14157" lon="6.3442">
        <ele>817.9</ele>
        <time>2018-08-09T09:02:22Z</time>
      </trkpt>
      <trkpt lat="44.14159" lon="6.34417">
        <ele>818.5</ele>
        <time>2018-08-09T09:02:24Z</time>
      </trkpt>
      <trkpt lat="44.14163" lon="6.34415">
        <ele>819.5</ele>
        <time>2018-08-09T09:02:26Z</time>
      </trkpt>
      <trkpt lat="44.14166" lon="6.34411">
        <ele>820.4</ele>
        <time>2018-08-09T09:02:28Z</time>
      </trkpt>
      <trkpt lat="44.14166" lon="6.34406">
        <ele>821.5</ele>
        <time>2018-08-09T09:02:31Z</time>
      </trkpt>
      <trkpt lat="44.14168" lon="6.34403">
        <ele>822.2</ele>
        <time>2018-08-09T09:02:33Z</time>
      </trkpt>
      <trkpt lat="44.1417" lon="6.344">
        <ele>822.7</ele>
        <time>2018-08-09T09:02:42Z</time>
      </trkpt>
      <trkpt lat="44.1417" lon="6.34396">
        <ele>823.2</ele>
        <time>2018-08-09T09:02:45Z</time>
      </trkpt>
      <trkpt lat="44.14171" lon="6.34392">
        <ele>823.6</ele>
        <time>2018-08-09T09:02:50Z</time>
      </trkpt>
      <trkpt lat="44.14175" lon="6.34394">
        <ele>823.9</ele>
        <time>2018-08-09T09:02:54Z</time>
      </trkpt>
      <trkpt lat="44.14177" lon="6.34397">
        <ele>824.2</ele>
        <time>2018-08-09T09:02:58Z</time>
      </trkpt>
      <trkpt lat="44.14179" lon="6.344">
        <ele>824.4</ele>
        <time>2018-08-09T09:03:02Z</time>
      </trkpt>
      <trkpt lat="44.1418" lon="6.34404">
        <ele>824.5</ele>
        <time>2018-08-09T09:03:06Z</time>
      </trkpt>
      <trkpt lat="44.14182" lon="6.34407">
        <ele>824.7</ele>
        <time>2018-08-09T09:03:10Z</time>
      </trkpt>
      <trkpt lat="44.14185" lon="6.34408">
        <ele>824.8</ele>
        <time>2018-08-09T09:03:18Z</time>
      </trkpt>
      <trkpt lat="44.14186" lon="6.34414">
        <ele>825</ele>
        <time>2018-08-09T09:03:21Z</time>
      </trkpt>
      <trkpt lat="44.14188" lon="6.34417">
        <ele>825.1</ele>
        <time>2018-08-09T09:03:23Z</time>
      </trkpt>
      <trkpt lat="44.14188" lon="6.34421">
        <ele>825.2</ele>
        <time>2018-08-09T09:03:25Z</time>
      </trkpt>
      <trkpt lat="44.14189" lon="6.34425">
        <ele>825.3</ele>
        <time>2018-08-09T09:03:27Z</time>
      </trkpt>
      <trkpt lat="44.14189" lon="6.34431">
        <ele>825.4</ele>
        <time>2018-08-09T09:03:29Z</time>
      </trkpt>
      <trkpt lat="44.14191" lon="6.34434">
        <ele>825.4</ele>
        <time>2018-08-09T09:03:31Z</time>
      </trkpt>
      <trkpt lat="44.14195" lon="6.34434">
        <ele>825.5</ele>
        <time>2018-08-09T09:03:34Z</time>
      </trkpt>
      <trkpt lat="44.14199" lon="6.34432">
        <ele>825.6</ele>
        <time>2018-08-09T09:03:36Z</time>
      </trkpt>
      <trkpt lat="44.14203" lon="6.34433">
        <ele>825.8</ele>
        <time>2018-08-09T09:03:38Z</time>
      </trkpt>
      <trkpt lat="44.14206" lon="6.34432">
        <ele>826</ele>
        <time>2018-08-09T09:03:41Z</time>
      </trkpt>
      <trkpt lat="44.1421" lon="6.34431">
        <ele>826.1</ele>
        <time>2018-08-09T09:04:46Z</time>
      </trkpt>
      <trkpt lat="44.14212" lon="6.34428">
        <ele>826.2</ele>
        <time>2018-08-09T09:04:48Z</time>
      </trkpt>
      <trkpt lat="44.14215" lon="6.3443">
        <ele>826.7</ele>
        <time>2018-08-09T09:04:50Z</time>
      </trkpt>
      <trkpt lat="44.14219" lon="6.34434">
        <ele>827.4</ele>
        <time>2018-08-09T09:04:52Z</time>
      </trkpt>
      <trkpt lat="44.14221" lon="6.34438">
        <ele>827.8</ele>
        <time>2018-08-09T09:04:53Z</time>
      </trkpt>
      <trkpt lat="44.14224" lon="6.34441">
        <ele>828.2</ele>
        <time>2018-08-09T09:04:54Z</time>
      </trkpt>
      <trkpt lat="44.14228" lon="6.34442">
        <ele>828.8</ele>
        <time>2018-08-09T09:04:55Z</time>
      </trkpt>
      <trkpt lat="44.14231" lon="6.34443">
        <ele>829.3</ele>
        <time>2018-08-09T09:04:56Z</time>
      </trkpt>
      <trkpt lat="44.14234" lon="6.34445">
        <ele>829.8</ele>
        <time>2018-08-09T09:04:57Z</time>
      </trkpt>
      <trkpt lat="44.14237" lon="6.34448">
        <ele>830.3</ele>
        <time>2018-08-09T09:04:58Z</time>
      </trkpt>
      <trkpt lat="44.14239" lon="6.34449">
        <ele>830.6</ele>
        <time>2018-08-09T09:04:59Z</time>
      </trkpt>
      <trkpt lat="44.14242" lon="6.3445">
        <ele>831</ele>
        <time>2018-08-09T09:05:00Z</time>
      </trkpt>
      <trkpt lat="44.14246" lon="6.3445">
        <ele>831.3</ele>
        <time>2018-08-09T09:05:01Z</time>
      </trkpt>
      <trkpt lat="44.14248" lon="6.34453">
        <ele>831.5</ele>
        <time>2018-08-09T09:05:02Z</time>
      </trkpt>
      <trkpt lat="44.14252" lon="6.34458">
        <ele>831.9</ele>
        <time>2018-08-09T09:05:04Z</time>
      </trkpt>
      <trkpt lat="44.14255" lon="6.3446">
        <ele>832.1</ele>
        <time>2018-08-09T09:05:06Z</time>
      </trkpt>
      <trkpt lat="44.14258" lon="6.34463">
        <ele>832.2</ele>
        <time>2018-08-09T09:05:08Z</time>
      </trkpt>
      <trkpt lat="44.1426" lon="6.34467">
        <ele>832.3</ele>
        <time>2018-08-09T09:05:10Z</time>
      </trkpt>
      <trkpt lat="44.14262" lon="6.3447">
        <ele>832.4</ele>
        <time>2018-08-09T09:05:12Z</time>
      </trkpt>
      <trkpt lat="44.14266" lon="6.34475">
        <ele>832.5</ele>
        <time>2018-08-09T09:05:14Z</time>
      </trkpt>
      <trkpt lat="44.1427" lon="6.34476">
        <ele>832.6</ele>
        <time>2018-08-09T09:05:16Z</time>
      </trkpt>
      <trkpt lat="44.14274" lon="6.34476">
        <ele>832.6</ele>
        <time>2018-08-09T09:05:18Z</time>
      </trkpt>
      <trkpt lat="44.14277" lon="6.34479">
        <ele>832.6</ele>
        <time>2018-08-09T09:05:21Z</time>
      </trkpt>
      <trkpt lat="44.1428" lon="6.34482">
        <ele>832.6</ele>
        <time>2018-08-09T09:05:23Z</time>
      </trkpt>
      <trkpt lat="44.14282" lon="6.34486">
        <ele>832.6</ele>
        <time>2018-08-09T09:05:25Z</time>
      </trkpt>
      <trkpt lat="44.14284" lon="6.34488">
        <ele>832.6</ele>
        <time>2018-08-09T09:05:27Z</time>
      </trkpt>
      <trkpt lat="44.14287" lon="6.34492">
        <ele>832.6</ele>
        <time>2018-08-09T09:05:29Z</time>
      </trkpt>
      <trkpt lat="44.1429" lon="6.34494">
        <ele>832.5</ele>
        <time>2018-08-09T09:05:31Z</time>
      </trkpt>
      <trkpt lat="44.14294" lon="6.34494">
        <ele>832.3</ele>
        <time>2018-08-09T09:05:33Z</time>
      </trkpt>
      <trkpt lat="44.14297" lon="6.34495">
        <ele>832.1</ele>
        <time>2018-08-09T09:05:34Z</time>
      </trkpt>
      <trkpt lat="44.14301" lon="6.34497">
        <ele>831.8</ele>
        <time>2018-08-09T09:05:36Z</time>
      </trkpt>
      <trkpt lat="44.14303" lon="6.34501">
        <ele>831.6</ele>
        <time>2018-08-09T09:05:38Z</time>
      </trkpt>
      <trkpt lat="44.14305" lon="6.34505">
        <ele>831.4</ele>
        <time>2018-08-09T09:05:40Z</time>
      </trkpt>
      <trkpt lat="44.14308" lon="6.34508">
        <ele>831</ele>
        <time>2018-08-09T09:05:42Z</time>
      </trkpt>
      <trkpt lat="44.14311" lon="6.34514">
        <ele>830.7</ele>
        <time>2018-08-09T09:05:44Z</time>
      </trkpt>
      <trkpt lat="44.14313" lon="6.34517">
        <ele>830.6</ele>
        <time>2018-08-09T09:05:45Z</time>
      </trkpt>
      <trkpt lat="44.14316" lon="6.34519">
        <ele>830.6</ele>
        <time>2018-08-09T09:05:46Z</time>
      </trkpt>
      <trkpt lat="44.1432" lon="6.34519">
        <ele>830.7</ele>
        <time>2018-08-09T09:05:47Z</time>
      </trkpt>
      <trkpt lat="44.14323" lon="6.34517">
        <ele>830.8</ele>
        <time>2018-08-09T09:05:48Z</time>
      </trkpt>
      <trkpt lat="44.14326" lon="6.34516">
        <ele>830.9</ele>
        <time>2018-08-09T09:05:49Z</time>
      </trkpt>
      <trkpt lat="44.14329" lon="6.34514">
        <ele>831</ele>
        <time>2018-08-09T09:05:50Z</time>
      </trkpt>
      <trkpt lat="44.14333" lon="6.34514">
        <ele>831.2</ele>
        <time>2018-08-09T09:05:51Z</time>
      </trkpt>
      <trkpt lat="44.14337" lon="6.34515">
        <ele>831.5</ele>
        <time>2018-08-09T09:05:52Z</time>
      </trkpt>
      <trkpt lat="44.1434" lon="6.34515">
        <ele>831.8</ele>
        <time>2018-08-09T09:05:53Z</time>
      </trkpt>
      <trkpt lat="44.14345" lon="6.34516">
        <ele>832.4</ele>
        <time>2018-08-09T09:05:55Z</time>
      </trkpt>
      <trkpt lat="44.14346" lon="6.34519">
        <ele>832.6</ele>
        <time>2018-08-09T09:05:59Z</time>
      </trkpt>
      <trkpt lat="44.14345" lon="6.34523">
        <ele>832.8</ele>
        <time>2018-08-09T09:06:01Z</time>
      </trkpt>
      <trkpt lat="44.14343" lon="6.34527">
        <ele>832.9</ele>
        <time>2018-08-09T09:06:03Z</time>
      </trkpt>
      <trkpt lat="44.1434" lon="6.34531">
        <ele>833.1</ele>
        <time>2018-08-09T09:06:05Z</time>
      </trkpt>
      <trkpt lat="44.14338" lon="6.34537">
        <ele>833.2</ele>
        <time>2018-08-09T09:06:08Z</time>
      </trkpt>
      <trkpt lat="44.14338" lon="6.34541">
        <ele>833.2</ele>
        <time>2018-08-09T09:06:10Z</time>
      </trkpt>
      <trkpt lat="44.14341" lon="6.34546">
        <ele>833.1</ele>
        <time>2018-08-09T09:06:12Z</time>
      </trkpt>
      <trkpt lat="44.14343" lon="6.34549">
        <ele>833.1</ele>
        <time>2018-08-09T09:06:13Z</time>
      </trkpt>
      <trkpt lat="44.14346" lon="6.34554">
        <ele>832.8</ele>
        <time>2018-08-09T09:06:15Z</time>
      </trkpt>
      <trkpt lat="44.1435" lon="6.34558">
        <ele>832.3</ele>
        <time>2018-08-09T09:06:17Z</time>
      </trkpt>
      <trkpt lat="44.14352" lon="6.34556">
        <ele>832</ele>
        <time>2018-08-09T09:06:18Z</time>
      </trkpt>
      <trkpt lat="44.14356" lon="6.34559">
        <ele>831.8</ele>
        <time>2018-08-09T09:06:21Z</time>
      </trkpt>
      <trkpt lat="44.14359" lon="6.3456">
        <ele>832</ele>
        <time>2018-08-09T09:06:23Z</time>
      </trkpt>
      <trkpt lat="44.14363" lon="6.34559">
        <ele>832.4</ele>
        <time>2018-08-09T09:06:25Z</time>
      </trkpt>
      <trkpt lat="44.14368" lon="6.34558">
        <ele>833.2</ele>
        <time>2018-08-09T09:06:27Z</time>
      </trkpt>
      <trkpt lat="44.14371" lon="6.34561">
        <ele>834</ele>
        <time>2018-08-09T09:06:29Z</time>
      </trkpt>
      <trkpt lat="44.14372" lon="6.34565">
        <ele>834.8</ele>
        <time>2018-08-09T09:06:31Z</time>
      </trkpt>
      <trkpt lat="44.14373" lon="6.34569">
        <ele>835.4</ele>
        <time>2018-08-09T09:06:33Z</time>
      </trkpt>
      <trkpt lat="44.14373" lon="6.34573">
        <ele>836.3</ele>
        <time>2018-08-09T09:06:39Z</time>
      </trkpt>
      <trkpt lat="44.1437" lon="6.34576">
        <ele>837.3</ele>
        <time>2018-08-09T09:06:44Z</time>
      </trkpt>
      <trkpt lat="44.14369" lon="6.34579">
        <ele>838.1</ele>
        <time>2018-08-09T09:06:47Z</time>
      </trkpt>
      <trkpt lat="44.14368" lon="6.34583">
        <ele>838.8</ele>
        <time>2018-08-09T09:06:51Z</time>
      </trkpt>
      <trkpt lat="44.14368" lon="6.34587">
        <ele>839.7</ele>
        <time>2018-08-09T09:06:57Z</time>
      </trkpt>
      <trkpt lat="44.14368" lon="6.34591">
        <ele>840.5</ele>
        <time>2018-08-09T09:07:21Z</time>
      </trkpt>
      <trkpt lat="44.14368" lon="6.34596">
        <ele>841.3</ele>
        <time>2018-08-09T09:07:25Z</time>
      </trkpt>
      <trkpt lat="44.14367" lon="6.346">
        <ele>842.1</ele>
        <time>2018-08-09T09:07:28Z</time>
      </trkpt>
      <trkpt lat="44.14366" lon="6.34604">
        <ele>842.9</ele>
        <time>2018-08-09T09:07:32Z</time>
      </trkpt>
      <trkpt lat="44.14365" lon="6.34608">
        <ele>843.6</ele>
        <time>2018-08-09T09:07:39Z</time>
      </trkpt>
      <trkpt lat="44.14365" lon="6.34613">
        <ele>844.4</ele>
        <time>2018-08-09T09:07:41Z</time>
      </trkpt>
      <trkpt lat="44.14365" lon="6.34617">
        <ele>844.9</ele>
        <time>2018-08-09T09:07:43Z</time>
      </trkpt>
      <trkpt lat="44.14365" lon="6.34622">
        <ele>845.6</ele>
        <time>2018-08-09T09:07:45Z</time>
      </trkpt>
      <trkpt lat="44.14366" lon="6.34627">
        <ele>846.2</ele>
        <time>2018-08-09T09:07:48Z</time>
      </trkpt>
      <trkpt lat="44.14365" lon="6.34631">
        <ele>846.8</ele>
        <time>2018-08-09T09:07:50Z</time>
      </trkpt>
      <trkpt lat="44.14365" lon="6.34636">
        <ele>847.3</ele>
        <time>2018-08-09T09:07:52Z</time>
      </trkpt>
      <trkpt lat="44.14364" lon="6.34641">
        <ele>848</ele>
        <time>2018-08-09T09:07:55Z</time>
      </trkpt>
      <trkpt lat="44.14363" lon="6.34645">
        <ele>848.5</ele>
        <time>2018-08-09T09:07:57Z</time>
      </trkpt>
      <trkpt lat="44.14363" lon="6.3465">
        <ele>849.1</ele>
        <time>2018-08-09T09:08:00Z</time>
      </trkpt>
      <trkpt lat="44.14363" lon="6.34655">
        <ele>849.7</ele>
        <time>2018-08-09T09:08:02Z</time>
      </trkpt>
      <trkpt lat="44.14363" lon="6.34659">
        <ele>850.1</ele>
        <time>2018-08-09T09:08:04Z</time>
      </trkpt>
      <trkpt lat="44.14365" lon="6.34664">
        <ele>850.6</ele>
        <time>2018-08-09T09:08:07Z</time>
      </trkpt>
      <trkpt lat="44.14367" lon="6.34668">
        <ele>851.1</ele>
        <time>2018-08-09T09:08:10Z</time>
      </trkpt>
      <trkpt lat="44.1437" lon="6.34671">
        <ele>851.5</ele>
        <time>2018-08-09T09:08:12Z</time>
      </trkpt>
      <trkpt lat="44.14371" lon="6.34675">
        <ele>851.9</ele>
        <time>2018-08-09T09:08:14Z</time>
      </trkpt>
      <trkpt lat="44.14374" lon="6.34678">
        <ele>852.2</ele>
        <time>2018-08-09T09:08:16Z</time>
      </trkpt>
      <trkpt lat="44.14375" lon="6.34682">
        <ele>852.5</ele>
        <time>2018-08-09T09:08:18Z</time>
      </trkpt>
      <trkpt lat="44.14376" lon="6.34687">
        <ele>852.9</ele>
        <time>2018-08-09T09:08:21Z</time>
      </trkpt>
      <trkpt lat="44.14376" lon="6.34692">
        <ele>853.2</ele>
        <time>2018-08-09T09:08:23Z</time>
      </trkpt>
      <trkpt lat="44.14377" lon="6.34696">
        <ele>853.5</ele>
        <time>2018-08-09T09:08:25Z</time>
      </trkpt>
      <trkpt lat="44.1438" lon="6.347">
        <ele>853.6</ele>
        <time>2018-08-09T09:08:28Z</time>
      </trkpt>
      <trkpt lat="44.14383" lon="6.34703">
        <ele>853.8</ele>
        <time>2018-08-09T09:08:30Z</time>
      </trkpt>
      <trkpt lat="44.14384" lon="6.34708">
        <ele>853.9</ele>
        <time>2018-08-09T09:08:33Z</time>
      </trkpt>
      <trkpt lat="44.14387" lon="6.34711">
        <ele>854</ele>
        <time>2018-08-09T09:08:35Z</time>
      </trkpt>
      <trkpt lat="44.1439" lon="6.34712">
        <ele>854.1</ele>
        <time>2018-08-09T09:08:37Z</time>
      </trkpt>
      <trkpt lat="44.14393" lon="6.34715">
        <ele>854.3</ele>
        <time>2018-08-09T09:08:39Z</time>
      </trkpt>
      <trkpt lat="44.14395" lon="6.34718">
        <ele>854.5</ele>
        <time>2018-08-09T09:08:41Z</time>
      </trkpt>
      <trkpt lat="44.14398" lon="6.34721">
        <ele>854.7</ele>
        <time>2018-08-09T09:08:44Z</time>
      </trkpt>
      <trkpt lat="44.14401" lon="6.34721">
        <ele>854.8</ele>
        <time>2018-08-09T09:08:46Z</time>
      </trkpt>
      <trkpt lat="44.14404" lon="6.3472">
        <ele>854.9</ele>
        <time>2018-08-09T09:08:48Z</time>
      </trkpt>
      <trkpt lat="44.14406" lon="6.34723">
        <ele>855</ele>
        <time>2018-08-09T09:08:50Z</time>
      </trkpt>
      <trkpt lat="44.14409" lon="6.34726">
        <ele>855.3</ele>
        <time>2018-08-09T09:08:52Z</time>
      </trkpt>
      <trkpt lat="44.14411" lon="6.3473">
        <ele>855.7</ele>
        <time>2018-08-09T09:08:55Z</time>
      </trkpt>
      <trkpt lat="44.14416" lon="6.34731">
        <ele>856.1</ele>
        <time>2018-08-09T09:08:57Z</time>
      </trkpt>
      <trkpt lat="44.1442" lon="6.34733">
        <ele>856.5</ele>
        <time>2018-08-09T09:09:00Z</time>
      </trkpt>
      <trkpt lat="44.14422" lon="6.34737">
        <ele>856.9</ele>
        <time>2018-08-09T09:09:02Z</time>
      </trkpt>
      <trkpt lat="44.14425" lon="6.34743">
        <ele>857.2</ele>
        <time>2018-08-09T09:09:04Z</time>
      </trkpt>
      <trkpt lat="44.14428" lon="6.34749">
        <ele>857.4</ele>
        <time>2018-08-09T09:09:06Z</time>
      </trkpt>
      <trkpt lat="44.1443" lon="6.34752">
        <ele>857.6</ele>
        <time>2018-08-09T09:09:08Z</time>
      </trkpt>
      <trkpt lat="44.14432" lon="6.34757">
        <ele>857.7</ele>
        <time>2018-08-09T09:09:14Z</time>
      </trkpt>
      <trkpt lat="44.14435" lon="6.34759">
        <ele>857.8</ele>
        <time>2018-08-09T09:09:16Z</time>
      </trkpt>
      <trkpt lat="44.14437" lon="6.34761">
        <ele>857.8</ele>
        <time>2018-08-09T09:09:18Z</time>
      </trkpt>
      <trkpt lat="44.1444" lon="6.34763">
        <ele>857.9</ele>
        <time>2018-08-09T09:09:20Z</time>
      </trkpt>
      <trkpt lat="44.14444" lon="6.34766">
        <ele>858.1</ele>
        <time>2018-08-09T09:09:22Z</time>
      </trkpt>
      <trkpt lat="44.14448" lon="6.34771">
        <ele>858.2</ele>
        <time>2018-08-09T09:09:24Z</time>
      </trkpt>
      <trkpt lat="44.1445" lon="6.34775">
        <ele>858.4</ele>
        <time>2018-08-09T09:09:26Z</time>
      </trkpt>
      <trkpt lat="44.14453" lon="6.34776">
        <ele>858.6</ele>
        <time>2018-08-09T09:09:28Z</time>
      </trkpt>
      <trkpt lat="44.14454" lon="6.34779">
        <ele>858.8</ele>
        <time>2018-08-09T09:09:29Z</time>
      </trkpt>
      <trkpt lat="44.14456" lon="6.34783">
        <ele>859.1</ele>
        <time>2018-08-09T09:09:31Z</time>
      </trkpt>
      <trkpt lat="44.14457" lon="6.34787">
        <ele>859.3</ele>
        <time>2018-08-09T09:09:35Z</time>
      </trkpt>
      <trkpt lat="44.14456" lon="6.34791">
        <ele>859.7</ele>
        <time>2018-08-09T09:09:38Z</time>
      </trkpt>
      <trkpt lat="44.14454" lon="6.34794">
        <ele>860</ele>
        <time>2018-08-09T09:09:40Z</time>
      </trkpt>
      <trkpt lat="44.14456" lon="6.34798">
        <ele>860.4</ele>
        <time>2018-08-09T09:09:43Z</time>
      </trkpt>
      <trkpt lat="44.14459" lon="6.34799">
        <ele>860.7</ele>
        <time>2018-08-09T09:09:45Z</time>
      </trkpt>
      <trkpt lat="44.14462" lon="6.348">
        <ele>861</ele>
        <time>2018-08-09T09:09:47Z</time>
      </trkpt>
      <trkpt lat="44.14465" lon="6.34798">
        <ele>861.3</ele>
        <time>2018-08-09T09:09:53Z</time>
      </trkpt>
      <trkpt lat="44.14462" lon="6.34802">
        <ele>861.5</ele>
        <time>2018-08-09T09:09:58Z</time>
      </trkpt>
      <trkpt lat="44.14459" lon="6.34802">
        <ele>861.7</ele>
        <time>2018-08-09T09:10:08Z</time>
      </trkpt>
      <trkpt lat="44.14461" lon="6.34799">
        <ele>861.8</ele>
        <time>2018-08-09T09:10:21Z</time>
      </trkpt>
      <trkpt lat="44.14464" lon="6.34801">
        <ele>862</ele>
        <time>2018-08-09T09:10:36Z</time>
      </trkpt>
      <trkpt lat="44.14468" lon="6.34798">
        <ele>862.1</ele>
        <time>2018-08-09T09:10:43Z</time>
      </trkpt>
      <trkpt lat="44.14473" lon="6.34798">
        <ele>862.5</ele>
        <time>2018-08-09T09:10:45Z</time>
      </trkpt>
      <trkpt lat="44.14476" lon="6.34797">
        <ele>862.9</ele>
        <time>2018-08-09T09:10:47Z</time>
      </trkpt>
      <trkpt lat="44.1448" lon="6.34797">
        <ele>863.3</ele>
        <time>2018-08-09T09:10:49Z</time>
      </trkpt>
      <trkpt lat="44.14484" lon="6.34795">
        <ele>863.7</ele>
        <time>2018-08-09T09:10:51Z</time>
      </trkpt>
      <trkpt lat="44.1449" lon="6.34797">
        <ele>864.3</ele>
        <time>2018-08-09T09:10:53Z</time>
      </trkpt>
      <trkpt lat="44.14494" lon="6.348">
        <ele>864.8</ele>
        <time>2018-08-09T09:10:55Z</time>
      </trkpt>
      <trkpt lat="44.14498" lon="6.34804">
        <ele>865.5</ele>
        <time>2018-08-09T09:10:57Z</time>
      </trkpt>
      <trkpt lat="44.14501" lon="6.34807">
        <ele>865.9</ele>
        <time>2018-08-09T09:10:59Z</time>
      </trkpt>
      <trkpt lat="44.14505" lon="6.34806">
        <ele>866.3</ele>
        <time>2018-08-09T09:11:01Z</time>
      </trkpt>
      <trkpt lat="44.14509" lon="6.34803">
        <ele>866.4</ele>
        <time>2018-08-09T09:11:03Z</time>
      </trkpt>
      <trkpt lat="44.14512" lon="6.34801">
        <ele>866.5</ele>
        <time>2018-08-09T09:11:05Z</time>
      </trkpt>
      <trkpt lat="44.14516" lon="6.34801">
        <ele>866.6</ele>
        <time>2018-08-09T09:11:07Z</time>
      </trkpt>
      <trkpt lat="44.14519" lon="6.34802">
        <ele>866.7</ele>
        <time>2018-08-09T09:11:09Z</time>
      </trkpt>
      <trkpt lat="44.14522" lon="6.34805">
        <ele>866.9</ele>
        <time>2018-08-09T09:11:11Z</time>
      </trkpt>
      <trkpt lat="44.14524" lon="6.34809">
        <ele>867</ele>
        <time>2018-08-09T09:11:13Z</time>
      </trkpt>
      <trkpt lat="44.14526" lon="6.34812">
        <ele>867</ele>
        <time>2018-08-09T09:11:15Z</time>
      </trkpt>
      <trkpt lat="44.14526" lon="6.34817">
        <ele>867.1</ele>
        <time>2018-08-09T09:11:17Z</time>
      </trkpt>
      <trkpt lat="44.14529" lon="6.34819">
        <ele>867.2</ele>
        <time>2018-08-09T09:11:19Z</time>
      </trkpt>
      <trkpt lat="44.14533" lon="6.3482">
        <ele>867.3</ele>
        <time>2018-08-09T09:11:21Z</time>
      </trkpt>
      <trkpt lat="44.14536" lon="6.34822">
        <ele>867.4</ele>
        <time>2018-08-09T09:11:23Z</time>
      </trkpt>
      <trkpt lat="44.14541" lon="6.34823">
        <ele>867.5</ele>
        <time>2018-08-09T09:11:25Z</time>
      </trkpt>
      <trkpt lat="44.14545" lon="6.34824">
        <ele>867.6</ele>
        <time>2018-08-09T09:11:27Z</time>
      </trkpt>
      <trkpt lat="44.14549" lon="6.34825">
        <ele>867.7</ele>
        <time>2018-08-09T09:11:29Z</time>
      </trkpt>
      <trkpt lat="44.14553" lon="6.34826">
        <ele>867.7</ele>
        <time>2018-08-09T09:11:31Z</time>
      </trkpt>
      <trkpt lat="44.14556" lon="6.3483">
        <ele>867.8</ele>
        <time>2018-08-09T09:11:33Z</time>
      </trkpt>
      <trkpt lat="44.1456" lon="6.34834">
        <ele>867.8</ele>
        <time>2018-08-09T09:11:35Z</time>
      </trkpt>
      <trkpt lat="44.14563" lon="6.34837">
        <ele>867.9</ele>
        <time>2018-08-09T09:11:37Z</time>
      </trkpt>
      <trkpt lat="44.14567" lon="6.34839">
        <ele>867.9</ele>
        <time>2018-08-09T09:11:39Z</time>
      </trkpt>
      <trkpt lat="44.14572" lon="6.34837">
        <ele>868</ele>
        <time>2018-08-09T09:11:41Z</time>
      </trkpt>
      <trkpt lat="44.14576" lon="6.34839">
        <ele>868.1</ele>
        <time>2018-08-09T09:11:43Z</time>
      </trkpt>
      <trkpt lat="44.14578" lon="6.34842">
        <ele>868.2</ele>
        <time>2018-08-09T09:11:45Z</time>
      </trkpt>
      <trkpt lat="44.14581" lon="6.34843">
        <ele>868.2</ele>
        <time>2018-08-09T09:11:46Z</time>
      </trkpt>
      <trkpt lat="44.14585" lon="6.34843">
        <ele>868.3</ele>
        <time>2018-08-09T09:11:48Z</time>
      </trkpt>
      <trkpt lat="44.14587" lon="6.34842">
        <ele>868.3</ele>
        <time>2018-08-09T09:11:49Z</time>
      </trkpt>
      <trkpt lat="44.14592" lon="6.34842">
        <ele>868.4</ele>
        <time>2018-08-09T09:11:51Z</time>
      </trkpt>
      <trkpt lat="44.14594" lon="6.34846">
        <ele>868.5</ele>
        <time>2018-08-09T09:11:53Z</time>
      </trkpt>
      <trkpt lat="44.14595" lon="6.34853">
        <ele>868.6</ele>
        <time>2018-08-09T09:11:55Z</time>
      </trkpt>
      <trkpt lat="44.14599" lon="6.34858">
        <ele>868.7</ele>
        <time>2018-08-09T09:11:57Z</time>
      </trkpt>
      <trkpt lat="44.14602" lon="6.34862">
        <ele>868.7</ele>
        <time>2018-08-09T09:11:59Z</time>
      </trkpt>
      <trkpt lat="44.14606" lon="6.34861">
        <ele>868.9</ele>
        <time>2018-08-09T09:12:01Z</time>
      </trkpt>
      <trkpt lat="44.14608" lon="6.34858">
        <ele>869</ele>
        <time>2018-08-09T09:12:03Z</time>
      </trkpt>
      <trkpt lat="44.14611" lon="6.34857">
        <ele>869.2</ele>
        <time>2018-08-09T09:12:07Z</time>
      </trkpt>
      <trkpt lat="44.14613" lon="6.3486">
        <ele>869.5</ele>
        <time>2018-08-09T09:12:12Z</time>
      </trkpt>
      <trkpt lat="44.14615" lon="6.34864">
        <ele>869.8</ele>
        <time>2018-08-09T09:12:15Z</time>
      </trkpt>
      <trkpt lat="44.14619" lon="6.34866">
        <ele>870.3</ele>
        <time>2018-08-09T09:12:17Z</time>
      </trkpt>
      <trkpt lat="44.14621" lon="6.34869">
        <ele>870.7</ele>
        <time>2018-08-09T09:12:19Z</time>
      </trkpt>
      <trkpt lat="44.14619" lon="6.34874">
        <ele>871.2</ele>
        <time>2018-08-09T09:12:22Z</time>
      </trkpt>
      <trkpt lat="44.14615" lon="6.34877">
        <ele>871.7</ele>
        <time>2018-08-09T09:12:24Z</time>
      </trkpt>
      <trkpt lat="44.14612" lon="6.3488">
        <ele>872</ele>
        <time>2018-08-09T09:12:26Z</time>
      </trkpt>
      <trkpt lat="44.14609" lon="6.34883">
        <ele>872.3</ele>
        <time>2018-08-09T09:12:28Z</time>
      </trkpt>
      <trkpt lat="44.14605" lon="6.34883">
        <ele>872.6</ele>
        <time>2018-08-09T09:12:30Z</time>
      </trkpt>
      <trkpt lat="44.14601" lon="6.34885">
        <ele>873</ele>
        <time>2018-08-09T09:12:32Z</time>
      </trkpt>
      <trkpt lat="44.14597" lon="6.34887">
        <ele>873.4</ele>
        <time>2018-08-09T09:12:34Z</time>
      </trkpt>
      <trkpt lat="44.14592" lon="6.34887">
        <ele>873.7</ele>
        <time>2018-08-09T09:12:36Z</time>
      </trkpt>
      <trkpt lat="44.14589" lon="6.3489">
        <ele>874.1</ele>
        <time>2018-08-09T09:12:38Z</time>
      </trkpt>
      <trkpt lat="44.14589" lon="6.34895">
        <ele>874.4</ele>
        <time>2018-08-09T09:12:40Z</time>
      </trkpt>
      <trkpt lat="44.1459" lon="6.349">
        <ele>874.8</ele>
        <time>2018-08-09T09:12:42Z</time>
      </trkpt>
      <trkpt lat="44.14593" lon="6.34905">
        <ele>875.1</ele>
        <time>2018-08-09T09:12:44Z</time>
      </trkpt>
      <trkpt lat="44.14594" lon="6.34911">
        <ele>875.4</ele>
        <time>2018-08-09T09:12:46Z</time>
      </trkpt>
      <trkpt lat="44.14594" lon="6.34916">
        <ele>875.6</ele>
        <time>2018-08-09T09:12:48Z</time>
      </trkpt>
      <trkpt lat="44.14596" lon="6.34921">
        <ele>876</ele>
        <time>2018-08-09T09:12:50Z</time>
      </trkpt>
      <trkpt lat="44.14598" lon="6.34927">
        <ele>876.4</ele>
        <time>2018-08-09T09:12:52Z</time>
      </trkpt>
      <trkpt lat="44.14602" lon="6.34932">
        <ele>876.9</ele>
        <time>2018-08-09T09:12:54Z</time>
      </trkpt>
      <trkpt lat="44.14606" lon="6.34934">
        <ele>877.2</ele>
        <time>2018-08-09T09:12:56Z</time>
      </trkpt>
      <trkpt lat="44.1461" lon="6.34938">
        <ele>877.6</ele>
        <time>2018-08-09T09:12:58Z</time>
      </trkpt>
      <trkpt lat="44.14613" lon="6.34943">
        <ele>877.8</ele>
        <time>2018-08-09T09:13:00Z</time>
      </trkpt>
      <trkpt lat="44.14617" lon="6.34947">
        <ele>877.9</ele>
        <time>2018-08-09T09:13:02Z</time>
      </trkpt>
      <trkpt lat="44.14619" lon="6.34951">
        <ele>878</ele>
        <time>2018-08-09T09:13:03Z</time>
      </trkpt>
      <trkpt lat="44.14621" lon="6.34955">
        <ele>878.1</ele>
        <time>2018-08-09T09:13:05Z</time>
      </trkpt>
      <trkpt lat="44.14624" lon="6.34958">
        <ele>878.2</ele>
        <time>2018-08-09T09:13:07Z</time>
      </trkpt>
      <trkpt lat="44.14627" lon="6.34962">
        <ele>878.3</ele>
        <time>2018-08-09T09:13:09Z</time>
      </trkpt>
      <trkpt lat="44.14629" lon="6.34966">
        <ele>878.4</ele>
        <time>2018-08-09T09:13:11Z</time>
      </trkpt>
      <trkpt lat="44.14631" lon="6.3497">
        <ele>878.7</ele>
        <time>2018-08-09T09:13:13Z</time>
      </trkpt>
      <trkpt lat="44.14635" lon="6.34973">
        <ele>879</ele>
        <time>2018-08-09T09:13:15Z</time>
      </trkpt>
      <trkpt lat="44.14636" lon="6.34979">
        <ele>879.4</ele>
        <time>2018-08-09T09:13:17Z</time>
      </trkpt>
      <trkpt lat="44.14635" lon="6.34984">
        <ele>879.9</ele>
        <time>2018-08-09T09:13:19Z</time>
      </trkpt>
      <trkpt lat="44.14638" lon="6.34989">
        <ele>880.4</ele>
        <time>2018-08-09T09:13:21Z</time>
      </trkpt>
      <trkpt lat="44.14641" lon="6.34992">
        <ele>880.8</ele>
        <time>2018-08-09T09:13:23Z</time>
      </trkpt>
      <trkpt lat="44.14643" lon="6.34996">
        <ele>881.1</ele>
        <time>2018-08-09T09:13:25Z</time>
      </trkpt>
      <trkpt lat="44.14647" lon="6.34999">
        <ele>881.5</ele>
        <time>2018-08-09T09:13:27Z</time>
      </trkpt>
      <trkpt lat="44.14652" lon="6.35002">
        <ele>882.1</ele>
        <time>2018-08-09T09:13:29Z</time>
      </trkpt>
      <trkpt lat="44.14655" lon="6.35008">
        <ele>882.8</ele>
        <time>2018-08-09T09:13:31Z</time>
      </trkpt>
      <trkpt lat="44.14656" lon="6.35012">
        <ele>883.3</ele>
        <time>2018-08-09T09:13:33Z</time>
      </trkpt>
      <trkpt lat="44.14659" lon="6.35014">
        <ele>883.7</ele>
        <time>2018-08-09T09:13:35Z</time>
      </trkpt>
      <trkpt lat="44.14662" lon="6.35014">
        <ele>884.1</ele>
        <time>2018-08-09T09:13:37Z</time>
      </trkpt>
      <trkpt lat="44.14665" lon="6.35013">
        <ele>884.6</ele>
        <time>2018-08-09T09:13:39Z</time>
      </trkpt>
      <trkpt lat="44.14668" lon="6.35013">
        <ele>885</ele>
        <time>2018-08-09T09:13:41Z</time>
      </trkpt>
      <trkpt lat="44.14672" lon="6.35011">
        <ele>885.8</ele>
        <time>2018-08-09T09:13:44Z</time>
      </trkpt>
      <trkpt lat="44.14674" lon="6.35009">
        <ele>886.4</ele>
        <time>2018-08-09T09:13:46Z</time>
      </trkpt>
      <trkpt lat="44.14677" lon="6.35006">
        <ele>887</ele>
        <time>2018-08-09T09:13:49Z</time>
      </trkpt>
      <trkpt lat="44.14682" lon="6.35005">
        <ele>887.6</ele>
        <time>2018-08-09T09:13:51Z</time>
      </trkpt>
      <trkpt lat="44.14685" lon="6.35004">
        <ele>888.1</ele>
        <time>2018-08-09T09:13:53Z</time>
      </trkpt>
      <trkpt lat="44.14687" lon="6.35001">
        <ele>888.5</ele>
        <time>2018-08-09T09:13:55Z</time>
      </trkpt>
      <trkpt lat="44.1469" lon="6.34999">
        <ele>888.9</ele>
        <time>2018-08-09T09:13:57Z</time>
      </trkpt>
      <trkpt lat="44.14694" lon="6.34997">
        <ele>889.2</ele>
        <time>2018-08-09T09:13:59Z</time>
      </trkpt>
      <trkpt lat="44.14696" lon="6.34993">
        <ele>889.5</ele>
        <time>2018-08-09T09:14:01Z</time>
      </trkpt>
      <trkpt lat="44.14699" lon="6.3499">
        <ele>889.8</ele>
        <time>2018-08-09T09:14:03Z</time>
      </trkpt>
      <trkpt lat="44.14703" lon="6.34989">
        <ele>889.9</ele>
        <time>2018-08-09T09:14:05Z</time>
      </trkpt>
      <trkpt lat="44.14706" lon="6.34987">
        <ele>890</ele>
        <time>2018-08-09T09:14:07Z</time>
      </trkpt>
      <trkpt lat="44.1471" lon="6.34986">
        <ele>890.1</ele>
        <time>2018-08-09T09:14:09Z</time>
      </trkpt>
      <trkpt lat="44.14714" lon="6.34985">
        <ele>890.3</ele>
        <time>2018-08-09T09:14:11Z</time>
      </trkpt>
      <trkpt lat="44.14717" lon="6.34985">
        <ele>890.3</ele>
        <time>2018-08-09T09:14:13Z</time>
      </trkpt>
      <trkpt lat="44.14721" lon="6.34985">
        <ele>890.5</ele>
        <time>2018-08-09T09:14:15Z</time>
      </trkpt>
      <trkpt lat="44.14725" lon="6.34984">
        <ele>890.6</ele>
        <time>2018-08-09T09:14:17Z</time>
      </trkpt>
      <trkpt lat="44.14729" lon="6.34984">
        <ele>890.6</ele>
        <time>2018-08-09T09:14:19Z</time>
      </trkpt>
      <trkpt lat="44.14733" lon="6.34985">
        <ele>890.7</ele>
        <time>2018-08-09T09:14:21Z</time>
      </trkpt>
      <trkpt lat="44.14736" lon="6.34985">
        <ele>890.7</ele>
        <time>2018-08-09T09:14:23Z</time>
      </trkpt>
      <trkpt lat="44.1474" lon="6.34986">
        <ele>890.8</ele>
        <time>2018-08-09T09:14:26Z</time>
      </trkpt>
      <trkpt lat="44.14744" lon="6.34986">
        <ele>890.8</ele>
        <time>2018-08-09T09:14:28Z</time>
      </trkpt>
      <trkpt lat="44.14749" lon="6.34986">
        <ele>890.9</ele>
        <time>2018-08-09T09:14:30Z</time>
      </trkpt>
      <trkpt lat="44.14753" lon="6.34988">
        <ele>890.9</ele>
        <time>2018-08-09T09:14:33Z</time>
      </trkpt>
      <trkpt lat="44.14757" lon="6.34989">
        <ele>890.9</ele>
        <time>2018-08-09T09:14:35Z</time>
      </trkpt>
      <trkpt lat="44.14758" lon="6.34993">
        <ele>890.6</ele>
        <time>2018-08-09T09:14:37Z</time>
      </trkpt>
      <trkpt lat="44.14757" lon="6.34998">
        <ele>890.5</ele>
        <time>2018-08-09T09:14:40Z</time>
      </trkpt>
      <trkpt lat="44.14754" lon="6.35001">
        <ele>890.2</ele>
        <time>2018-08-09T09:14:42Z</time>
      </trkpt>
      <trkpt lat="44.1475" lon="6.35004">
        <ele>890</ele>
        <time>2018-08-09T09:14:44Z</time>
      </trkpt>
      <trkpt lat="44.14746" lon="6.35004">
        <ele>889.8</ele>
        <time>2018-08-09T09:14:45Z</time>
      </trkpt>
      <trkpt lat="44.14741" lon="6.35008">
        <ele>889.6</ele>
        <time>2018-08-09T09:14:46Z</time>
      </trkpt>
      <trkpt lat="44.14738" lon="6.35009">
        <ele>889.5</ele>
        <time>2018-08-09T09:14:47Z</time>
      </trkpt>
      <trkpt lat="44.14734" lon="6.3501">
        <ele>889.3</ele>
        <time>2018-08-09T09:14:48Z</time>
      </trkpt>
      <trkpt lat="44.14731" lon="6.35012">
        <ele>889</ele>
        <time>2018-08-09T09:14:49Z</time>
      </trkpt>
      <trkpt lat="44.14727" lon="6.35014">
        <ele>888.9</ele>
        <time>2018-08-09T09:14:50Z</time>
      </trkpt>
      <trkpt lat="44.14725" lon="6.35017">
        <ele>888.8</ele>
        <time>2018-08-09T09:14:51Z</time>
      </trkpt>
      <trkpt lat="44.14722" lon="6.35019">
        <ele>888.7</ele>
        <time>2018-08-09T09:14:52Z</time>
      </trkpt>
      <trkpt lat="44.1472" lon="6.35023">
        <ele>888.5</ele>
        <time>2018-08-09T09:14:53Z</time>
      </trkpt>
      <trkpt lat="44.14718" lon="6.35026">
        <ele>888.4</ele>
        <time>2018-08-09T09:14:54Z</time>
      </trkpt>
      <trkpt lat="44.14716" lon="6.3503">
        <ele>888.2</ele>
        <time>2018-08-09T09:14:55Z</time>
      </trkpt>
      <trkpt lat="44.14713" lon="6.35037">
        <ele>888.1</ele>
        <time>2018-08-09T09:14:57Z</time>
      </trkpt>
      <trkpt lat="44.14711" lon="6.35045">
        <ele>887.8</ele>
        <time>2018-08-09T09:14:59Z</time>
      </trkpt>
      <trkpt lat="44.14709" lon="6.35051">
        <ele>887.7</ele>
        <time>2018-08-09T09:15:00Z</time>
      </trkpt>
      <trkpt lat="44.14707" lon="6.35056">
        <ele>887.5</ele>
        <time>2018-08-09T09:15:01Z</time>
      </trkpt>
      <trkpt lat="44.14706" lon="6.35063">
        <ele>887.3</ele>
        <time>2018-08-09T09:15:02Z</time>
      </trkpt>
      <trkpt lat="44.14706" lon="6.35069">
        <ele>887.2</ele>
        <time>2018-08-09T09:15:03Z</time>
      </trkpt>
      <trkpt lat="44.14708" lon="6.35074">
        <ele>887</ele>
        <time>2018-08-09T09:15:04Z</time>
      </trkpt>
      <trkpt lat="44.14709" lon="6.3508">
        <ele>886.8</ele>
        <time>2018-08-09T09:15:05Z</time>
      </trkpt>
      <trkpt lat="44.14713" lon="6.35086">
        <ele>886.5</ele>
        <time>2018-08-09T09:15:07Z</time>
      </trkpt>
      <trkpt lat="44.14715" lon="6.35088">
        <ele>886.3</ele>
        <time>2018-08-09T09:15:08Z</time>
      </trkpt>
      <trkpt lat="44.14717" lon="6.35091">
        <ele>886.2</ele>
        <time>2018-08-09T09:15:09Z</time>
      </trkpt>
      <trkpt lat="44.14721" lon="6.35094">
        <ele>886</ele>
        <time>2018-08-09T09:15:11Z</time>
      </trkpt>
      <trkpt lat="44.14724" lon="6.35098">
        <ele>885.8</ele>
        <time>2018-08-09T09:15:13Z</time>
      </trkpt>
      <trkpt lat="44.14729" lon="6.35102">
        <ele>885.5</ele>
        <time>2018-08-09T09:15:15Z</time>
      </trkpt>
      <trkpt lat="44.14731" lon="6.35104">
        <ele>885.4</ele>
        <time>2018-08-09T09:15:16Z</time>
      </trkpt>
      <trkpt lat="44.14735" lon="6.35108">
        <ele>885.1</ele>
        <time>2018-08-09T09:15:18Z</time>
      </trkpt>
      <trkpt lat="44.14739" lon="6.35111">
        <ele>884.8</ele>
        <time>2018-08-09T09:15:20Z</time>
      </trkpt>
      <trkpt lat="44.14743" lon="6.35115">
        <ele>884.2</ele>
        <time>2018-08-09T09:15:22Z</time>
      </trkpt>
      <trkpt lat="44.14746" lon="6.35118">
        <ele>883.7</ele>
        <time>2018-08-09T09:15:24Z</time>
      </trkpt>
      <trkpt lat="44.14748" lon="6.35123">
        <ele>883.3</ele>
        <time>2018-08-09T09:15:26Z</time>
      </trkpt>
      <trkpt lat="44.14748" lon="6.35128">
        <ele>882.6</ele>
        <time>2018-08-09T09:15:28Z</time>
      </trkpt>
      <trkpt lat="44.14747" lon="6.35134">
        <ele>881</ele>
        <time>2018-08-09T09:15:30Z</time>
      </trkpt>
      <trkpt lat="44.14746" lon="6.35138">
        <ele>880.2</ele>
        <time>2018-08-09T09:15:31Z</time>
      </trkpt>
      <trkpt lat="44.14746" lon="6.35143">
        <ele>879.1</ele>
        <time>2018-08-09T09:15:32Z</time>
      </trkpt>
      <trkpt lat="44.14745" lon="6.35149">
        <ele>877.2</ele>
        <time>2018-08-09T09:15:33Z</time>
      </trkpt>
      <trkpt lat="44.14746" lon="6.35156">
        <ele>875.8</ele>
        <time>2018-08-09T09:15:34Z</time>
      </trkpt>
      <trkpt lat="44.14747" lon="6.35162">
        <ele>874.8</ele>
        <time>2018-08-09T09:15:35Z</time>
      </trkpt>
      <trkpt lat="44.14749" lon="6.35166">
        <ele>873.7</ele>
        <time>2018-08-09T09:15:36Z</time>
      </trkpt>
      <trkpt lat="44.14749" lon="6.35171">
        <ele>872.5</ele>
        <time>2018-08-09T09:15:37Z</time>
      </trkpt>
      <trkpt lat="44.14747" lon="6.35176">
        <ele>871.4</ele>
        <time>2018-08-09T09:15:38Z</time>
      </trkpt>
      <trkpt lat="44.14745" lon="6.3518">
        <ele>870.7</ele>
        <time>2018-08-09T09:15:39Z</time>
      </trkpt>
      <trkpt lat="44.14742" lon="6.35182">
        <ele>870.2</ele>
        <time>2018-08-09T09:15:40Z</time>
      </trkpt>
      <trkpt lat="44.14739" lon="6.35184">
        <ele>869.7</ele>
        <time>2018-08-09T09:15:41Z</time>
      </trkpt>
      <trkpt lat="44.14734" lon="6.35185">
        <ele>868.9</ele>
        <time>2018-08-09T09:15:42Z</time>
      </trkpt>
      <trkpt lat="44.14729" lon="6.35186">
        <ele>867.7</ele>
        <time>2018-08-09T09:15:43Z</time>
      </trkpt>
      <trkpt lat="44.14726" lon="6.35188">
        <ele>866.9</ele>
        <time>2018-08-09T09:15:44Z</time>
      </trkpt>
      <trkpt lat="44.14722" lon="6.35193">
        <ele>865.9</ele>
        <time>2018-08-09T09:15:45Z</time>
      </trkpt>
      <trkpt lat="44.14721" lon="6.35199">
        <ele>865.4</ele>
        <time>2018-08-09T09:15:46Z</time>
      </trkpt>
      <trkpt lat="44.1472" lon="6.35206">
        <ele>864.8</ele>
        <time>2018-08-09T09:15:47Z</time>
      </trkpt>
      <trkpt lat="44.1472" lon="6.35212">
        <ele>864.4</ele>
        <time>2018-08-09T09:15:48Z</time>
      </trkpt>
      <trkpt lat="44.1472" lon="6.35217">
        <ele>864</ele>
        <time>2018-08-09T09:15:49Z</time>
      </trkpt>
      <trkpt lat="44.14721" lon="6.35224">
        <ele>862.8</ele>
        <time>2018-08-09T09:15:50Z</time>
      </trkpt>
      <trkpt lat="44.14721" lon="6.35229">
        <ele>861.7</ele>
        <time>2018-08-09T09:15:51Z</time>
      </trkpt>
      <trkpt lat="44.14722" lon="6.35234">
        <ele>860.9</ele>
        <time>2018-08-09T09:15:52Z</time>
      </trkpt>
      <trkpt lat="44.14725" lon="6.35239">
        <ele>860.2</ele>
        <time>2018-08-09T09:15:53Z</time>
      </trkpt>
      <trkpt lat="44.14729" lon="6.35242">
        <ele>859.6</ele>
        <time>2018-08-09T09:15:54Z</time>
      </trkpt>
      <trkpt lat="44.14734" lon="6.35244">
        <ele>858.8</ele>
        <time>2018-08-09T09:15:55Z</time>
      </trkpt>
      <trkpt lat="44.1474" lon="6.35247">
        <ele>858.2</ele>
        <time>2018-08-09T09:15:56Z</time>
      </trkpt>
      <trkpt lat="44.14746" lon="6.35252">
        <ele>858.3</ele>
        <time>2018-08-09T09:15:57Z</time>
      </trkpt>
      <trkpt lat="44.14753" lon="6.35254">
        <ele>858.7</ele>
        <time>2018-08-09T09:15:58Z</time>
      </trkpt>
      <trkpt lat="44.14759" lon="6.35257">
        <ele>859</ele>
        <time>2018-08-09T09:15:59Z</time>
      </trkpt>
      <trkpt lat="44.14764" lon="6.35261">
        <ele>859.2</ele>
        <time>2018-08-09T09:16:00Z</time>
      </trkpt>
      <trkpt lat="44.14768" lon="6.35265">
        <ele>859.5</ele>
        <time>2018-08-09T09:16:01Z</time>
      </trkpt>
      <trkpt lat="44.14771" lon="6.35268">
        <ele>859.8</ele>
        <time>2018-08-09T09:16:02Z</time>
      </trkpt>
      <trkpt lat="44.14774" lon="6.3527">
        <ele>860</ele>
        <time>2018-08-09T09:16:03Z</time>
      </trkpt>
      <trkpt lat="44.14776" lon="6.35273">
        <ele>860.1</ele>
        <time>2018-08-09T09:16:04Z</time>
      </trkpt>
      <trkpt lat="44.1478" lon="6.35276">
        <ele>860.4</ele>
        <time>2018-08-09T09:16:06Z</time>
      </trkpt>
      <trkpt lat="44.14784" lon="6.3528">
        <ele>860.8</ele>
        <time>2018-08-09T09:16:08Z</time>
      </trkpt>
      <trkpt lat="44.14786" lon="6.35285">
        <ele>861.2</ele>
        <time>2018-08-09T09:16:10Z</time>
      </trkpt>
      <trkpt lat="44.1479" lon="6.35288">
        <ele>861.6</ele>
        <time>2018-08-09T09:16:12Z</time>
      </trkpt>
      <trkpt lat="44.14794" lon="6.35291">
        <ele>862</ele>
        <time>2018-08-09T09:16:14Z</time>
      </trkpt>
      <trkpt lat="44.14797" lon="6.35295">
        <ele>862.5</ele>
        <time>2018-08-09T09:16:16Z</time>
      </trkpt>
      <trkpt lat="44.14801" lon="6.35299">
        <ele>862.9</ele>
        <time>2018-08-09T09:16:18Z</time>
      </trkpt>
      <trkpt lat="44.14802" lon="6.35303">
        <ele>863.1</ele>
        <time>2018-08-09T09:16:19Z</time>
      </trkpt>
      <trkpt lat="44.14805" lon="6.35309">
        <ele>863.6</ele>
        <time>2018-08-09T09:16:21Z</time>
      </trkpt>
      <trkpt lat="44.14807" lon="6.35313">
        <ele>863.9</ele>
        <time>2018-08-09T09:16:22Z</time>
      </trkpt>
      <trkpt lat="44.14809" lon="6.35315">
        <ele>864.2</ele>
        <time>2018-08-09T09:16:23Z</time>
      </trkpt>
      <trkpt lat="44.1481" lon="6.3532">
        <ele>864.4</ele>
        <time>2018-08-09T09:16:24Z</time>
      </trkpt>
      <trkpt lat="44.14811" lon="6.35324">
        <ele>864.7</ele>
        <time>2018-08-09T09:16:25Z</time>
      </trkpt>
      <trkpt lat="44.14811" lon="6.3533">
        <ele>865.1</ele>
        <time>2018-08-09T09:16:26Z</time>
      </trkpt>
      <trkpt lat="44.14812" lon="6.35334">
        <ele>865.4</ele>
        <time>2018-08-09T09:16:27Z</time>
      </trkpt>
      <trkpt lat="44.14812" lon="6.35338">
        <ele>865.6</ele>
        <time>2018-08-09T09:16:28Z</time>
      </trkpt>
      <trkpt lat="44.14812" lon="6.35343">
        <ele>865.9</ele>
        <time>2018-08-09T09:16:29Z</time>
      </trkpt>
      <trkpt lat="44.14811" lon="6.35347">
        <ele>866.2</ele>
        <time>2018-08-09T09:16:30Z</time>
      </trkpt>
      <trkpt lat="44.14809" lon="6.35353">
        <ele>866.6</ele>
        <time>2018-08-09T09:16:32Z</time>
      </trkpt>
      <trkpt lat="44.14809" lon="6.35359">
        <ele>866.9</ele>
        <time>2018-08-09T09:16:34Z</time>
      </trkpt>
      <trkpt lat="44.1481" lon="6.35365">
        <ele>867.1</ele>
        <time>2018-08-09T09:16:36Z</time>
      </trkpt>
      <trkpt lat="44.1481" lon="6.35371">
        <ele>867.3</ele>
        <time>2018-08-09T09:16:38Z</time>
      </trkpt>
      <trkpt lat="44.1481" lon="6.35376">
        <ele>867.3</ele>
        <time>2018-08-09T09:16:40Z</time>
      </trkpt>
      <trkpt lat="44.14812" lon="6.35382">
        <ele>867.5</ele>
        <time>2018-08-09T09:16:42Z</time>
      </trkpt>
      <trkpt lat="44.14815" lon="6.35386">
        <ele>867.6</ele>
        <time>2018-08-09T09:16:44Z</time>
      </trkpt>
      <trkpt lat="44.14815" lon="6.3539">
        <ele>867.6</ele>
        <time>2018-08-09T09:16:45Z</time>
      </trkpt>
      <trkpt lat="44.14819" lon="6.35394">
        <ele>867.8</ele>
        <time>2018-08-09T09:16:47Z</time>
      </trkpt>
      <trkpt lat="44.14822" lon="6.35399">
        <ele>867.9</ele>
        <time>2018-08-09T09:16:49Z</time>
      </trkpt>
      <trkpt lat="44.14824" lon="6.35403">
        <ele>867.9</ele>
        <time>2018-08-09T09:16:51Z</time>
      </trkpt>
      <trkpt lat="44.14827" lon="6.35407">
        <ele>868</ele>
        <time>2018-08-09T09:16:53Z</time>
      </trkpt>
      <trkpt lat="44.14829" lon="6.35412">
        <ele>868.1</ele>
        <time>2018-08-09T09:16:55Z</time>
      </trkpt>
      <trkpt lat="44.14832" lon="6.35415">
        <ele>868.1</ele>
        <time>2018-08-09T09:16:57Z</time>
      </trkpt>
      <trkpt lat="44.14835" lon="6.35418">
        <ele>868.2</ele>
        <time>2018-08-09T09:16:59Z</time>
      </trkpt>
      <trkpt lat="44.14837" lon="6.35422">
        <ele>868.2</ele>
        <time>2018-08-09T09:17:01Z</time>
      </trkpt>
      <trkpt lat="44.1484" lon="6.35426">
        <ele>868.4</ele>
        <time>2018-08-09T09:17:03Z</time>
      </trkpt>
      <trkpt lat="44.14842" lon="6.35431">
        <ele>868.4</ele>
        <time>2018-08-09T09:17:05Z</time>
      </trkpt>
      <trkpt lat="44.14845" lon="6.35434">
        <ele>868.5</ele>
        <time>2018-08-09T09:17:07Z</time>
      </trkpt>
      <trkpt lat="44.14847" lon="6.35437">
        <ele>868.5</ele>
        <time>2018-08-09T09:17:09Z</time>
      </trkpt>
      <trkpt lat="44.1485" lon="6.35441">
        <ele>868.6</ele>
        <time>2018-08-09T09:17:11Z</time>
      </trkpt>
      <trkpt lat="44.14852" lon="6.35445">
        <ele>868.7</ele>
        <time>2018-08-09T09:17:13Z</time>
      </trkpt>
      <trkpt lat="44.14855" lon="6.35449">
        <ele>868.8</ele>
        <time>2018-08-09T09:17:15Z</time>
      </trkpt>
      <trkpt lat="44.14859" lon="6.35453">
        <ele>868.9</ele>
        <time>2018-08-09T09:17:18Z</time>
      </trkpt>
      <trkpt lat="44.14863" lon="6.35456">
        <ele>869</ele>
        <time>2018-08-09T09:17:20Z</time>
      </trkpt>
      <trkpt lat="44.14867" lon="6.35459">
        <ele>869.1</ele>
        <time>2018-08-09T09:17:22Z</time>
      </trkpt>
      <trkpt lat="44.14871" lon="6.35461">
        <ele>869.2</ele>
        <time>2018-08-09T09:17:24Z</time>
      </trkpt>
      <trkpt lat="44.14874" lon="6.35461">
        <ele>869.4</ele>
        <time>2018-08-09T09:17:25Z</time>
      </trkpt>
      <trkpt lat="44.14878" lon="6.35461">
        <ele>869.7</ele>
        <time>2018-08-09T09:17:26Z</time>
      </trkpt>
      <trkpt lat="44.14881" lon="6.35459">
        <ele>870</ele>
        <time>2018-08-09T09:17:27Z</time>
      </trkpt>
      <trkpt lat="44.14885" lon="6.35457">
        <ele>870.3</ele>
        <time>2018-08-09T09:17:28Z</time>
      </trkpt>
      <trkpt lat="44.14889" lon="6.35454">
        <ele>870.9</ele>
        <time>2018-08-09T09:17:29Z</time>
      </trkpt>
      <trkpt lat="44.14893" lon="6.3545">
        <ele>871.5</ele>
        <time>2018-08-09T09:17:30Z</time>
      </trkpt>
      <trkpt lat="44.14898" lon="6.35445">
        <ele>872.4</ele>
        <time>2018-08-09T09:17:31Z</time>
      </trkpt>
      <trkpt lat="44.14902" lon="6.3544">
        <ele>873.4</ele>
        <time>2018-08-09T09:17:32Z</time>
      </trkpt>
      <trkpt lat="44.14906" lon="6.35436">
        <ele>874.4</ele>
        <time>2018-08-09T09:17:33Z</time>
      </trkpt>
      <trkpt lat="44.1491" lon="6.35432">
        <ele>875.5</ele>
        <time>2018-08-09T09:17:34Z</time>
      </trkpt>
      <trkpt lat="44.14915" lon="6.35429">
        <ele>876.4</ele>
        <time>2018-08-09T09:17:35Z</time>
      </trkpt>
      <trkpt lat="44.14919" lon="6.3543">
        <ele>877</ele>
        <time>2018-08-09T09:17:36Z</time>
      </trkpt>
      <trkpt lat="44.14923" lon="6.35433">
        <ele>877.7</ele>
        <time>2018-08-09T09:17:37Z</time>
      </trkpt>
      <trkpt lat="44.14926" lon="6.35437">
        <ele>878.3</ele>
        <time>2018-08-09T09:17:39Z</time>
      </trkpt>
      <trkpt lat="44.14928" lon="6.35441">
        <ele>878.8</ele>
        <time>2018-08-09T09:17:41Z</time>
      </trkpt>
      <trkpt lat="44.14928" lon="6.35446">
        <ele>879.3</ele>
        <time>2018-08-09T09:17:43Z</time>
      </trkpt>
      <trkpt lat="44.14928" lon="6.35452">
        <ele>879.8</ele>
        <time>2018-08-09T09:17:45Z</time>
      </trkpt>
      <trkpt lat="44.14929" lon="6.35456">
        <ele>880.2</ele>
        <time>2018-08-09T09:17:47Z</time>
      </trkpt>
      <trkpt lat="44.14932" lon="6.3546">
        <ele>880.6</ele>
        <time>2018-08-09T09:17:49Z</time>
      </trkpt>
      <trkpt lat="44.14935" lon="6.35462">
        <ele>881.1</ele>
        <time>2018-08-09T09:17:51Z</time>
      </trkpt>
      <trkpt lat="44.14937" lon="6.35469">
        <ele>881.7</ele>
        <time>2018-08-09T09:17:53Z</time>
      </trkpt>
      <trkpt lat="44.14938" lon="6.35472">
        <ele>882</ele>
        <time>2018-08-09T09:17:54Z</time>
      </trkpt>
      <trkpt lat="44.14941" lon="6.35474">
        <ele>882.3</ele>
        <time>2018-08-09T09:17:56Z</time>
      </trkpt>
      <trkpt lat="44.14943" lon="6.35479">
        <ele>882.7</ele>
        <time>2018-08-09T09:17:58Z</time>
      </trkpt>
      <trkpt lat="44.14948" lon="6.35481">
        <ele>883.2</ele>
        <time>2018-08-09T09:18:00Z</time>
      </trkpt>
      <trkpt lat="44.1495" lon="6.35485">
        <ele>883.6</ele>
        <time>2018-08-09T09:18:02Z</time>
      </trkpt>
      <trkpt lat="44.14953" lon="6.35488">
        <ele>884</ele>
        <time>2018-08-09T09:18:04Z</time>
      </trkpt>
      <trkpt lat="44.14956" lon="6.3549">
        <ele>884.3</ele>
        <time>2018-08-09T09:18:06Z</time>
      </trkpt>
      <trkpt lat="44.1496" lon="6.35489">
        <ele>884.8</ele>
        <time>2018-08-09T09:18:08Z</time>
      </trkpt>
      <trkpt lat="44.14964" lon="6.35489">
        <ele>885.1</ele>
        <time>2018-08-09T09:18:10Z</time>
      </trkpt>
      <trkpt lat="44.14967" lon="6.35489">
        <ele>885.4</ele>
        <time>2018-08-09T09:18:12Z</time>
      </trkpt>
      <trkpt lat="44.14971" lon="6.35489">
        <ele>885.8</ele>
        <time>2018-08-09T09:18:14Z</time>
      </trkpt>
      <trkpt lat="44.14974" lon="6.3549">
        <ele>886.1</ele>
        <time>2018-08-09T09:18:15Z</time>
      </trkpt>
      <trkpt lat="44.14978" lon="6.3549">
        <ele>886.5</ele>
        <time>2018-08-09T09:18:17Z</time>
      </trkpt>
      <trkpt lat="44.14982" lon="6.35492">
        <ele>886.9</ele>
        <time>2018-08-09T09:18:19Z</time>
      </trkpt>
      <trkpt lat="44.14987" lon="6.35495">
        <ele>887.3</ele>
        <time>2018-08-09T09:18:21Z</time>
      </trkpt>
      <trkpt lat="44.1499" lon="6.35498">
        <ele>887.6</ele>
        <time>2018-08-09T09:18:23Z</time>
      </trkpt>
      <trkpt lat="44.14993" lon="6.35501">
        <ele>887.9</ele>
        <time>2018-08-09T09:18:25Z</time>
      </trkpt>
      <trkpt lat="44.14995" lon="6.35503">
        <ele>888.1</ele>
        <time>2018-08-09T09:18:27Z</time>
      </trkpt>
      <trkpt lat="44.14998" lon="6.35506">
        <ele>888.4</ele>
        <time>2018-08-09T09:18:29Z</time>
      </trkpt>
      <trkpt lat="44.15" lon="6.35508">
        <ele>888.6</ele>
        <time>2018-08-09T09:18:31Z</time>
      </trkpt>
      <trkpt lat="44.15002" lon="6.35511">
        <ele>888.8</ele>
        <time>2018-08-09T09:18:33Z</time>
      </trkpt>
      <trkpt lat="44.15005" lon="6.35515">
        <ele>889.1</ele>
        <time>2018-08-09T09:18:35Z</time>
      </trkpt>
      <trkpt lat="44.15007" lon="6.35518">
        <ele>889.3</ele>
        <time>2018-08-09T09:18:37Z</time>
      </trkpt>
      <trkpt lat="44.15009" lon="6.35522">
        <ele>889.5</ele>
        <time>2018-08-09T09:18:40Z</time>
      </trkpt>
      <trkpt lat="44.15011" lon="6.35525">
        <ele>889.7</ele>
        <time>2018-08-09T09:18:42Z</time>
      </trkpt>
      <trkpt lat="44.15014" lon="6.35527">
        <ele>890</ele>
        <time>2018-08-09T09:18:44Z</time>
      </trkpt>
      <trkpt lat="44.15016" lon="6.3553">
        <ele>890.2</ele>
        <time>2018-08-09T09:18:46Z</time>
      </trkpt>
      <trkpt lat="44.15018" lon="6.35532">
        <ele>890.4</ele>
        <time>2018-08-09T09:18:48Z</time>
      </trkpt>
      <trkpt lat="44.15021" lon="6.35535">
        <ele>890.6</ele>
        <time>2018-08-09T09:18:51Z</time>
      </trkpt>
      <trkpt lat="44.15023" lon="6.35538">
        <ele>890.8</ele>
        <time>2018-08-09T09:18:53Z</time>
      </trkpt>
      <trkpt lat="44.15027" lon="6.35542">
        <ele>891.1</ele>
        <time>2018-08-09T09:18:55Z</time>
      </trkpt>
      <trkpt lat="44.1503" lon="6.35545">
        <ele>891.4</ele>
        <time>2018-08-09T09:18:57Z</time>
      </trkpt>
      <trkpt lat="44.15033" lon="6.3555">
        <ele>891.7</ele>
        <time>2018-08-09T09:18:59Z</time>
      </trkpt>
      <trkpt lat="44.15035" lon="6.35554">
        <ele>892</ele>
        <time>2018-08-09T09:19:01Z</time>
      </trkpt>
      <trkpt lat="44.15036" lon="6.35559">
        <ele>892.2</ele>
        <time>2018-08-09T09:19:03Z</time>
      </trkpt>
      <trkpt lat="44.15038" lon="6.35565">
        <ele>892.5</ele>
        <time>2018-08-09T09:19:05Z</time>
      </trkpt>
      <trkpt lat="44.1504" lon="6.35569">
        <ele>892.8</ele>
        <time>2018-08-09T09:19:07Z</time>
      </trkpt>
      <trkpt lat="44.15042" lon="6.35572">
        <ele>892.9</ele>
        <time>2018-08-09T09:19:09Z</time>
      </trkpt>
      <trkpt lat="44.15045" lon="6.35576">
        <ele>893.1</ele>
        <time>2018-08-09T09:19:11Z</time>
      </trkpt>
      <trkpt lat="44.15048" lon="6.3558">
        <ele>893.3</ele>
        <time>2018-08-09T09:19:13Z</time>
      </trkpt>
      <trkpt lat="44.15051" lon="6.35583">
        <ele>893.5</ele>
        <time>2018-08-09T09:19:15Z</time>
      </trkpt>
      <trkpt lat="44.15054" lon="6.35586">
        <ele>893.8</ele>
        <time>2018-08-09T09:19:17Z</time>
      </trkpt>
      <trkpt lat="44.15058" lon="6.35588">
        <ele>894.1</ele>
        <time>2018-08-09T09:19:19Z</time>
      </trkpt>
      <trkpt lat="44.15063" lon="6.35588">
        <ele>894.5</ele>
        <time>2018-08-09T09:19:21Z</time>
      </trkpt>
      <trkpt lat="44.15067" lon="6.35589">
        <ele>894.9</ele>
        <time>2018-08-09T09:19:23Z</time>
      </trkpt>
      <trkpt lat="44.15072" lon="6.35591">
        <ele>895.2</ele>
        <time>2018-08-09T09:19:25Z</time>
      </trkpt>
      <trkpt lat="44.15076" lon="6.35592">
        <ele>895.6</ele>
        <time>2018-08-09T09:19:27Z</time>
      </trkpt>
      <trkpt lat="44.15081" lon="6.35594">
        <ele>896</ele>
        <time>2018-08-09T09:19:29Z</time>
      </trkpt>
      <trkpt lat="44.15084" lon="6.35596">
        <ele>896.2</ele>
        <time>2018-08-09T09:19:30Z</time>
      </trkpt>
      <trkpt lat="44.15089" lon="6.35598">
        <ele>896.5</ele>
        <time>2018-08-09T09:19:32Z</time>
      </trkpt>
      <trkpt lat="44.15093" lon="6.356">
        <ele>896.9</ele>
        <time>2018-08-09T09:19:34Z</time>
      </trkpt>
      <trkpt lat="44.15097" lon="6.356">
        <ele>897.2</ele>
        <time>2018-08-09T09:19:36Z</time>
      </trkpt>
      <trkpt lat="44.15102" lon="6.35602">
        <ele>897.4</ele>
        <time>2018-08-09T09:19:38Z</time>
      </trkpt>
      <trkpt lat="44.15104" lon="6.35602">
        <ele>897.6</ele>
        <time>2018-08-09T09:19:39Z</time>
      </trkpt>
      <trkpt lat="44.15109" lon="6.35601">
        <ele>897.9</ele>
        <time>2018-08-09T09:19:41Z</time>
      </trkpt>
      <trkpt lat="44.15113" lon="6.35599">
        <ele>898.2</ele>
        <time>2018-08-09T09:19:43Z</time>
      </trkpt>
      <trkpt lat="44.15118" lon="6.35599">
        <ele>898.4</ele>
        <time>2018-08-09T09:19:45Z</time>
      </trkpt>
      <trkpt lat="44.15123" lon="6.35598">
        <ele>898.6</ele>
        <time>2018-08-09T09:19:47Z</time>
      </trkpt>
      <trkpt lat="44.15128" lon="6.35598">
        <ele>898.8</ele>
        <time>2018-08-09T09:19:49Z</time>
      </trkpt>
      <trkpt lat="44.15132" lon="6.35595">
        <ele>898.9</ele>
        <time>2018-08-09T09:19:51Z</time>
      </trkpt>
      <trkpt lat="44.15136" lon="6.35596">
        <ele>899.1</ele>
        <time>2018-08-09T09:19:53Z</time>
      </trkpt>
      <trkpt lat="44.15141" lon="6.35596">
        <ele>899.5</ele>
        <time>2018-08-09T09:19:55Z</time>
      </trkpt>
      <trkpt lat="44.15144" lon="6.35597">
        <ele>899.7</ele>
        <time>2018-08-09T09:19:57Z</time>
      </trkpt>
      <trkpt lat="44.15147" lon="6.35597">
        <ele>899.9</ele>
        <time>2018-08-09T09:19:58Z</time>
      </trkpt>
      <trkpt lat="44.1515" lon="6.35597">
        <ele>900.1</ele>
        <time>2018-08-09T09:19:59Z</time>
      </trkpt>
      <trkpt lat="44.15152" lon="6.35597">
        <ele>900.3</ele>
        <time>2018-08-09T09:20:00Z</time>
      </trkpt>
      <trkpt lat="44.15157" lon="6.35597">
        <ele>900.7</ele>
        <time>2018-08-09T09:20:02Z</time>
      </trkpt>
      <trkpt lat="44.15161" lon="6.35598">
        <ele>901</ele>
        <time>2018-08-09T09:20:04Z</time>
      </trkpt>
      <trkpt lat="44.15166" lon="6.356">
        <ele>901.2</ele>
        <time>2018-08-09T09:20:06Z</time>
      </trkpt>
      <trkpt lat="44.1517" lon="6.35602">
        <ele>901.4</ele>
        <time>2018-08-09T09:20:08Z</time>
      </trkpt>
      <trkpt lat="44.15174" lon="6.35605">
        <ele>901.5</ele>
        <time>2018-08-09T09:20:10Z</time>
      </trkpt>
      <trkpt lat="44.15178" lon="6.35606">
        <ele>901.6</ele>
        <time>2018-08-09T09:20:12Z</time>
      </trkpt>
      <trkpt lat="44.15181" lon="6.35608">
        <ele>901.7</ele>
        <time>2018-08-09T09:20:13Z</time>
      </trkpt>
      <trkpt lat="44.15183" lon="6.35607">
        <ele>901.8</ele>
        <time>2018-08-09T09:20:14Z</time>
      </trkpt>
      <trkpt lat="44.15188" lon="6.3561">
        <ele>901.9</ele>
        <time>2018-08-09T09:20:16Z</time>
      </trkpt>
      <trkpt lat="44.15192" lon="6.3561">
        <ele>901.9</ele>
        <time>2018-08-09T09:20:17Z</time>
      </trkpt>
      <trkpt lat="44.15195" lon="6.3561">
        <ele>902</ele>
        <time>2018-08-09T09:20:18Z</time>
      </trkpt>
      <trkpt lat="44.15198" lon="6.3561">
        <ele>902</ele>
        <time>2018-08-09T09:20:19Z</time>
      </trkpt>
      <trkpt lat="44.15202" lon="6.35609">
        <ele>902.1</ele>
        <time>2018-08-09T09:20:20Z</time>
      </trkpt>
      <trkpt lat="44.15206" lon="6.35609">
        <ele>902.1</ele>
        <time>2018-08-09T09:20:21Z</time>
      </trkpt>
      <trkpt lat="44.1521" lon="6.35608">
        <ele>902.1</ele>
        <time>2018-08-09T09:20:22Z</time>
      </trkpt>
      <trkpt lat="44.15214" lon="6.35608">
        <ele>902.1</ele>
        <time>2018-08-09T09:20:23Z</time>
      </trkpt>
      <trkpt lat="44.15217" lon="6.35608">
        <ele>902.2</ele>
        <time>2018-08-09T09:20:24Z</time>
      </trkpt>
      <trkpt lat="44.15221" lon="6.35609">
        <ele>902.2</ele>
        <time>2018-08-09T09:20:25Z</time>
      </trkpt>
      <trkpt lat="44.15226" lon="6.35611">
        <ele>902.2</ele>
        <time>2018-08-09T09:20:27Z</time>
      </trkpt>
      <trkpt lat="44.1523" lon="6.35614">
        <ele>902.3</ele>
        <time>2018-08-09T09:20:29Z</time>
      </trkpt>
      <trkpt lat="44.15233" lon="6.35617">
        <ele>902.3</ele>
        <time>2018-08-09T09:20:31Z</time>
      </trkpt>
      <trkpt lat="44.15237" lon="6.3562">
        <ele>902.3</ele>
        <time>2018-08-09T09:20:33Z</time>
      </trkpt>
      <trkpt lat="44.15241" lon="6.35622">
        <ele>902.4</ele>
        <time>2018-08-09T09:20:35Z</time>
      </trkpt>
      <trkpt lat="44.15244" lon="6.35626">
        <ele>902.4</ele>
        <time>2018-08-09T09:20:37Z</time>
      </trkpt>
      <trkpt lat="44.15247" lon="6.35627">
        <ele>902.5</ele>
        <time>2018-08-09T09:20:38Z</time>
      </trkpt>
      <trkpt lat="44.1525" lon="6.35629">
        <ele>902.5</ele>
        <time>2018-08-09T09:20:39Z</time>
      </trkpt>
      <trkpt lat="44.15252" lon="6.3563">
        <ele>902.5</ele>
        <time>2018-08-09T09:20:40Z</time>
      </trkpt>
      <trkpt lat="44.15257" lon="6.35633">
        <ele>902.6</ele>
        <time>2018-08-09T09:20:42Z</time>
      </trkpt>
      <trkpt lat="44.1526" lon="6.35634">
        <ele>902.6</ele>
        <time>2018-08-09T09:20:43Z</time>
      </trkpt>
      <trkpt lat="44.15262" lon="6.35636">
        <ele>902.7</ele>
        <time>2018-08-09T09:20:44Z</time>
      </trkpt>
      <trkpt lat="44.15265" lon="6.35639">
        <ele>902.7</ele>
        <time>2018-08-09T09:20:45Z</time>
      </trkpt>
      <trkpt lat="44.15267" lon="6.35642">
        <ele>902.8</ele>
        <time>2018-08-09T09:20:46Z</time>
      </trkpt>
      <trkpt lat="44.15269" lon="6.35646">
        <ele>902.8</ele>
        <time>2018-08-09T09:20:47Z</time>
      </trkpt>
      <trkpt lat="44.1527" lon="6.3565">
        <ele>902.8</ele>
        <time>2018-08-09T09:20:48Z</time>
      </trkpt>
      <trkpt lat="44.15273" lon="6.35655">
        <ele>902.9</ele>
        <time>2018-08-09T09:20:50Z</time>
      </trkpt>
      <trkpt lat="44.15276" lon="6.3566">
        <ele>903</ele>
        <time>2018-08-09T09:20:52Z</time>
      </trkpt>
      <trkpt lat="44.1528" lon="6.35665">
        <ele>903.1</ele>
        <time>2018-08-09T09:20:54Z</time>
      </trkpt>
      <trkpt lat="44.15283" lon="6.35672">
        <ele>903.3</ele>
        <time>2018-08-09T09:20:56Z</time>
      </trkpt>
      <trkpt lat="44.15284" lon="6.35675">
        <ele>903.5</ele>
        <time>2018-08-09T09:20:57Z</time>
      </trkpt>
      <trkpt lat="44.15286" lon="6.35679">
        <ele>903.7</ele>
        <time>2018-08-09T09:20:58Z</time>
      </trkpt>
      <trkpt lat="44.15287" lon="6.35683">
        <ele>903.9</ele>
        <time>2018-08-09T09:20:59Z</time>
      </trkpt>
      <trkpt lat="44.15288" lon="6.35687">
        <ele>904.2</ele>
        <time>2018-08-09T09:21:00Z</time>
      </trkpt>
      <trkpt lat="44.1529" lon="6.35691">
        <ele>904.4</ele>
        <time>2018-08-09T09:21:01Z</time>
      </trkpt>
      <trkpt lat="44.15292" lon="6.35696">
        <ele>904.7</ele>
        <time>2018-08-09T09:21:02Z</time>
      </trkpt>
      <trkpt lat="44.15294" lon="6.35701">
        <ele>904.8</ele>
        <time>2018-08-09T09:21:03Z</time>
      </trkpt>
      <trkpt lat="44.15294" lon="6.35706">
        <ele>904.9</ele>
        <time>2018-08-09T09:21:04Z</time>
      </trkpt>
      <trkpt lat="44.15296" lon="6.35711">
        <ele>905.1</ele>
        <time>2018-08-09T09:21:05Z</time>
      </trkpt>
      <trkpt lat="44.15297" lon="6.35715">
        <ele>905.2</ele>
        <time>2018-08-09T09:21:06Z</time>
      </trkpt>
      <trkpt lat="44.15298" lon="6.35718">
        <ele>905.2</ele>
        <time>2018-08-09T09:21:07Z</time>
      </trkpt>
      <trkpt lat="44.15299" lon="6.35722">
        <ele>905.3</ele>
        <time>2018-08-09T09:21:08Z</time>
      </trkpt>
      <trkpt lat="44.153" lon="6.35725">
        <ele>905.4</ele>
        <time>2018-08-09T09:21:09Z</time>
      </trkpt>
      <trkpt lat="44.15302" lon="6.35729">
        <ele>905.5</ele>
        <time>2018-08-09T09:21:10Z</time>
      </trkpt>
      <trkpt lat="44.15306" lon="6.35734">
        <ele>905.6</ele>
        <time>2018-08-09T09:21:12Z</time>
      </trkpt>
      <trkpt lat="44.1531" lon="6.35739">
        <ele>905.7</ele>
        <time>2018-08-09T09:21:14Z</time>
      </trkpt>
      <trkpt lat="44.15312" lon="6.35742">
        <ele>905.7</ele>
        <time>2018-08-09T09:21:15Z</time>
      </trkpt>
      <trkpt lat="44.15315" lon="6.35744">
        <ele>905.7</ele>
        <time>2018-08-09T09:21:16Z</time>
      </trkpt>
      <trkpt lat="44.15317" lon="6.35747">
        <ele>905.8</ele>
        <time>2018-08-09T09:21:17Z</time>
      </trkpt>
      <trkpt lat="44.15318" lon="6.3575">
        <ele>905.8</ele>
        <time>2018-08-09T09:21:18Z</time>
      </trkpt>
      <trkpt lat="44.1532" lon="6.35754">
        <ele>905.9</ele>
        <time>2018-08-09T09:21:19Z</time>
      </trkpt>
      <trkpt lat="44.15322" lon="6.35757">
        <ele>905.9</ele>
        <time>2018-08-09T09:21:20Z</time>
      </trkpt>
      <trkpt lat="44.15326" lon="6.35759">
        <ele>905.9</ele>
        <time>2018-08-09T09:21:22Z</time>
      </trkpt>
      <trkpt lat="44.1533" lon="6.35763">
        <ele>906</ele>
        <time>2018-08-09T09:21:24Z</time>
      </trkpt>
      <trkpt lat="44.15334" lon="6.35765">
        <ele>905.6</ele>
        <time>2018-08-09T09:21:26Z</time>
      </trkpt>
      <trkpt lat="44.15336" lon="6.35767">
        <ele>905.3</ele>
        <time>2018-08-09T09:21:27Z</time>
      </trkpt>
      <trkpt lat="44.15339" lon="6.35768">
        <ele>904.9</ele>
        <time>2018-08-09T09:21:28Z</time>
      </trkpt>
      <trkpt lat="44.15343" lon="6.35769">
        <ele>904.8</ele>
        <time>2018-08-09T09:21:29Z</time>
      </trkpt>
      <trkpt lat="44.15346" lon="6.3577">
        <ele>904.6</ele>
        <time>2018-08-09T09:21:30Z</time>
      </trkpt>
      <trkpt lat="44.15349" lon="6.3577">
        <ele>904.4</ele>
        <time>2018-08-09T09:21:31Z</time>
      </trkpt>
      <trkpt lat="44.15353" lon="6.35771">
        <ele>904.1</ele>
        <time>2018-08-09T09:21:32Z</time>
      </trkpt>
      <trkpt lat="44.15356" lon="6.35771">
        <ele>903.8</ele>
        <time>2018-08-09T09:21:33Z</time>
      </trkpt>
      <trkpt lat="44.1536" lon="6.35771">
        <ele>903.6</ele>
        <time>2018-08-09T09:21:34Z</time>
      </trkpt>
      <trkpt lat="44.15365" lon="6.3577">
        <ele>903.5</ele>
        <time>2018-08-09T09:21:35Z</time>
      </trkpt>
      <trkpt lat="44.15369" lon="6.35769">
        <ele>903.4</ele>
        <time>2018-08-09T09:21:36Z</time>
      </trkpt>
      <trkpt lat="44.15375" lon="6.35768">
        <ele>903.3</ele>
        <time>2018-08-09T09:21:37Z</time>
      </trkpt>
      <trkpt lat="44.15382" lon="6.35766">
        <ele>903.2</ele>
        <time>2018-08-09T09:21:38Z</time>
      </trkpt>
      <trkpt lat="44.15388" lon="6.35764">
        <ele>903.1</ele>
        <time>2018-08-09T09:21:39Z</time>
      </trkpt>
      <trkpt lat="44.15395" lon="6.35762">
        <ele>902.8</ele>
        <time>2018-08-09T09:21:40Z</time>
      </trkpt>
      <trkpt lat="44.15402" lon="6.3576">
        <ele>902.5</ele>
        <time>2018-08-09T09:21:41Z</time>
      </trkpt>
      <trkpt lat="44.15408" lon="6.35758">
        <ele>902.2</ele>
        <time>2018-08-09T09:21:42Z</time>
      </trkpt>
      <trkpt lat="44.15415" lon="6.35756">
        <ele>902</ele>
        <time>2018-08-09T09:21:43Z</time>
      </trkpt>
      <trkpt lat="44.15421" lon="6.35756">
        <ele>901.7</ele>
        <time>2018-08-09T09:21:44Z</time>
      </trkpt>
      <trkpt lat="44.15429" lon="6.35757">
        <ele>901.1</ele>
        <time>2018-08-09T09:21:45Z</time>
      </trkpt>
      <trkpt lat="44.15435" lon="6.3576">
        <ele>900.9</ele>
        <time>2018-08-09T09:21:46Z</time>
      </trkpt>
      <trkpt lat="44.15442" lon="6.35763">
        <ele>900.5</ele>
        <time>2018-08-09T09:21:47Z</time>
      </trkpt>
      <trkpt lat="44.15448" lon="6.35768">
        <ele>899.9</ele>
        <time>2018-08-09T09:21:48Z</time>
      </trkpt>
      <trkpt lat="44.15454" lon="6.35775">
        <ele>899.4</ele>
        <time>2018-08-09T09:21:49Z</time>
      </trkpt>
      <trkpt lat="44.15459" lon="6.35782">
        <ele>899.1</ele>
        <time>2018-08-09T09:21:50Z</time>
      </trkpt>
      <trkpt lat="44.15464" lon="6.35791">
        <ele>898.6</ele>
        <time>2018-08-09T09:21:51Z</time>
      </trkpt>
      <trkpt lat="44.15468" lon="6.35799">
        <ele>897.9</ele>
        <time>2018-08-09T09:21:52Z</time>
      </trkpt>
      <trkpt lat="44.15471" lon="6.35808">
        <ele>897.6</ele>
        <time>2018-08-09T09:21:53Z</time>
      </trkpt>
      <trkpt lat="44.15476" lon="6.35815">
        <ele>897.1</ele>
        <time>2018-08-09T09:21:54Z</time>
      </trkpt>
      <trkpt lat="44.15482" lon="6.35821">
        <ele>896.7</ele>
        <time>2018-08-09T09:21:55Z</time>
      </trkpt>
      <trkpt lat="44.15489" lon="6.35825">
        <ele>896.5</ele>
        <time>2018-08-09T09:21:56Z</time>
      </trkpt>
      <trkpt lat="44.15496" lon="6.35831">
        <ele>896.4</ele>
        <time>2018-08-09T09:21:57Z</time>
      </trkpt>
      <trkpt lat="44.15502" lon="6.35839">
        <ele>896.2</ele>
        <time>2018-08-09T09:21:58Z</time>
      </trkpt>
      <trkpt lat="44.15508" lon="6.35847">
        <ele>896.1</ele>
        <time>2018-08-09T09:21:59Z</time>
      </trkpt>
      <trkpt lat="44.15514" lon="6.35854">
        <ele>895.7</ele>
        <time>2018-08-09T09:22:00Z</time>
      </trkpt>
      <trkpt lat="44.15521" lon="6.3586">
        <ele>895.4</ele>
        <time>2018-08-09T09:22:01Z</time>
      </trkpt>
      <trkpt lat="44.15529" lon="6.35863">
        <ele>895.2</ele>
        <time>2018-08-09T09:22:02Z</time>
      </trkpt>
      <trkpt lat="44.15536" lon="6.35866">
        <ele>895.1</ele>
        <time>2018-08-09T09:22:03Z</time>
      </trkpt>
      <trkpt lat="44.15544" lon="6.35869">
        <ele>894.9</ele>
        <time>2018-08-09T09:22:04Z</time>
      </trkpt>
      <trkpt lat="44.15552" lon="6.35872">
        <ele>894.8</ele>
        <time>2018-08-09T09:22:05Z</time>
      </trkpt>
      <trkpt lat="44.15559" lon="6.35876">
        <ele>894.5</ele>
        <time>2018-08-09T09:22:06Z</time>
      </trkpt>
      <trkpt lat="44.15565" lon="6.3588">
        <ele>894.2</ele>
        <time>2018-08-09T09:22:07Z</time>
      </trkpt>
      <trkpt lat="44.15572" lon="6.35885">
        <ele>894.1</ele>
        <time>2018-08-09T09:22:08Z</time>
      </trkpt>
      <trkpt lat="44.15578" lon="6.3589">
        <ele>893.9</ele>
        <time>2018-08-09T09:22:09Z</time>
      </trkpt>
      <trkpt lat="44.15586" lon="6.35895">
        <ele>893.8</ele>
        <time>2018-08-09T09:22:10Z</time>
      </trkpt>
      <trkpt lat="44.15593" lon="6.35899">
        <ele>893.8</ele>
        <time>2018-08-09T09:22:11Z</time>
      </trkpt>
      <trkpt lat="44.15599" lon="6.35904">
        <ele>893.8</ele>
        <time>2018-08-09T09:22:12Z</time>
      </trkpt>
      <trkpt lat="44.15606" lon="6.3591">
        <ele>893.7</ele>
        <time>2018-08-09T09:22:13Z</time>
      </trkpt>
      <trkpt lat="44.15612" lon="6.35917">
        <ele>893.7</ele>
        <time>2018-08-09T09:22:14Z</time>
      </trkpt>
      <trkpt lat="44.15617" lon="6.35925">
        <ele>893.4</ele>
        <time>2018-08-09T09:22:15Z</time>
      </trkpt>
      <trkpt lat="44.15622" lon="6.35933">
        <ele>893.2</ele>
        <time>2018-08-09T09:22:16Z</time>
      </trkpt>
      <trkpt lat="44.15627" lon="6.35941">
        <ele>893</ele>
        <time>2018-08-09T09:22:17Z</time>
      </trkpt>
      <trkpt lat="44.15632" lon="6.35947">
        <ele>892.9</ele>
        <time>2018-08-09T09:22:18Z</time>
      </trkpt>
      <trkpt lat="44.15639" lon="6.35951">
        <ele>892.8</ele>
        <time>2018-08-09T09:22:19Z</time>
      </trkpt>
      <trkpt lat="44.15645" lon="6.35955">
        <ele>892.8</ele>
        <time>2018-08-09T09:22:20Z</time>
      </trkpt>
      <trkpt lat="44.15651" lon="6.35958">
        <ele>892.8</ele>
        <time>2018-08-09T09:22:21Z</time>
      </trkpt>
      <trkpt lat="44.15656" lon="6.3596">
        <ele>892.7</ele>
        <time>2018-08-09T09:22:22Z</time>
      </trkpt>
      <trkpt lat="44.15661" lon="6.35961">
        <ele>892.7</ele>
        <time>2018-08-09T09:22:23Z</time>
      </trkpt>
      <trkpt lat="44.15666" lon="6.35962">
        <ele>892.6</ele>
        <time>2018-08-09T09:22:24Z</time>
      </trkpt>
      <trkpt lat="44.15672" lon="6.35963">
        <ele>892.5</ele>
        <time>2018-08-09T09:22:25Z</time>
      </trkpt>
      <trkpt lat="44.15677" lon="6.35963">
        <ele>892.2</ele>
        <time>2018-08-09T09:22:26Z</time>
      </trkpt>
      <trkpt lat="44.15683" lon="6.35963">
        <ele>891.9</ele>
        <time>2018-08-09T09:22:27Z</time>
      </trkpt>
      <trkpt lat="44.15689" lon="6.35963">
        <ele>891.7</ele>
        <time>2018-08-09T09:22:28Z</time>
      </trkpt>
      <trkpt lat="44.15694" lon="6.35964">
        <ele>891.6</ele>
        <time>2018-08-09T09:22:29Z</time>
      </trkpt>
      <trkpt lat="44.15701" lon="6.35965">
        <ele>891.4</ele>
        <time>2018-08-09T09:22:30Z</time>
      </trkpt>
      <trkpt lat="44.15707" lon="6.35967">
        <ele>891</ele>
        <time>2018-08-09T09:22:31Z</time>
      </trkpt>
      <trkpt lat="44.15713" lon="6.35969">
        <ele>890.6</ele>
        <time>2018-08-09T09:22:32Z</time>
      </trkpt>
      <trkpt lat="44.1572" lon="6.35972">
        <ele>890.3</ele>
        <time>2018-08-09T09:22:33Z</time>
      </trkpt>
      <trkpt lat="44.15726" lon="6.35975">
        <ele>890.2</ele>
        <time>2018-08-09T09:22:34Z</time>
      </trkpt>
      <trkpt lat="44.15733" lon="6.35978">
        <ele>890.1</ele>
        <time>2018-08-09T09:22:35Z</time>
      </trkpt>
      <trkpt lat="44.15739" lon="6.3598">
        <ele>890</ele>
        <time>2018-08-09T09:22:36Z</time>
      </trkpt>
      <trkpt lat="44.15747" lon="6.35981">
        <ele>890</ele>
        <time>2018-08-09T09:22:37Z</time>
      </trkpt>
      <trkpt lat="44.15754" lon="6.3598">
        <ele>889.9</ele>
        <time>2018-08-09T09:22:38Z</time>
      </trkpt>
      <trkpt lat="44.15761" lon="6.35978">
        <ele>889.8</ele>
        <time>2018-08-09T09:22:39Z</time>
      </trkpt>
      <trkpt lat="44.15769" lon="6.35978">
        <ele>889.8</ele>
        <time>2018-08-09T09:22:40Z</time>
      </trkpt>
      <trkpt lat="44.15776" lon="6.35979">
        <ele>889.5</ele>
        <time>2018-08-09T09:22:41Z</time>
      </trkpt>
      <trkpt lat="44.15784" lon="6.3598">
        <ele>889.3</ele>
        <time>2018-08-09T09:22:42Z</time>
      </trkpt>
      <trkpt lat="44.15791" lon="6.35982">
        <ele>889.1</ele>
        <time>2018-08-09T09:22:43Z</time>
      </trkpt>
      <trkpt lat="44.15798" lon="6.35984">
        <ele>889</ele>
        <time>2018-08-09T09:22:44Z</time>
      </trkpt>
      <trkpt lat="44.15805" lon="6.35986">
        <ele>889</ele>
        <time>2018-08-09T09:22:45Z</time>
      </trkpt>
      <trkpt lat="44.15811" lon="6.35989">
        <ele>889</ele>
        <time>2018-08-09T09:22:46Z</time>
      </trkpt>
      <trkpt lat="44.15817" lon="6.35992">
        <ele>888.9</ele>
        <time>2018-08-09T09:22:47Z</time>
      </trkpt>
      <trkpt lat="44.15823" lon="6.35995">
        <ele>888.9</ele>
        <time>2018-08-09T09:22:48Z</time>
      </trkpt>
      <trkpt lat="44.15828" lon="6.36">
        <ele>888.9</ele>
        <time>2018-08-09T09:22:49Z</time>
      </trkpt>
      <trkpt lat="44.15833" lon="6.36005">
        <ele>888.9</ele>
        <time>2018-08-09T09:22:50Z</time>
      </trkpt>
      <trkpt lat="44.15838" lon="6.3601">
        <ele>888.9</ele>
        <time>2018-08-09T09:22:51Z</time>
      </trkpt>
      <trkpt lat="44.15842" lon="6.36015">
        <ele>888.9</ele>
        <time>2018-08-09T09:22:52Z</time>
      </trkpt>
      <trkpt lat="44.15847" lon="6.3602">
        <ele>888.9</ele>
        <time>2018-08-09T09:22:53Z</time>
      </trkpt>
      <trkpt lat="44.15851" lon="6.36025">
        <ele>888.9</ele>
        <time>2018-08-09T09:22:54Z</time>
      </trkpt>
      <trkpt lat="44.15854" lon="6.3603">
        <ele>888.8</ele>
        <time>2018-08-09T09:22:55Z</time>
      </trkpt>
      <trkpt lat="44.15857" lon="6.36036">
        <ele>888.8</ele>
        <time>2018-08-09T09:22:56Z</time>
      </trkpt>
      <trkpt lat="44.1586" lon="6.36041">
        <ele>888.7</ele>
        <time>2018-08-09T09:22:57Z</time>
      </trkpt>
      <trkpt lat="44.15863" lon="6.36046">
        <ele>888.6</ele>
        <time>2018-08-09T09:22:58Z</time>
      </trkpt>
      <trkpt lat="44.15865" lon="6.36052">
        <ele>888.4</ele>
        <time>2018-08-09T09:22:59Z</time>
      </trkpt>
      <trkpt lat="44.15867" lon="6.36057">
        <ele>888.3</ele>
        <time>2018-08-09T09:23:00Z</time>
      </trkpt>
      <trkpt lat="44.15869" lon="6.36062">
        <ele>888.2</ele>
        <time>2018-08-09T09:23:01Z</time>
      </trkpt>
      <trkpt lat="44.15872" lon="6.36067">
        <ele>888.1</ele>
        <time>2018-08-09T09:23:02Z</time>
      </trkpt>
      <trkpt lat="44.15875" lon="6.36071">
        <ele>888.1</ele>
        <time>2018-08-09T09:23:03Z</time>
      </trkpt>
      <trkpt lat="44.15878" lon="6.36076">
        <ele>888</ele>
        <time>2018-08-09T09:23:04Z</time>
      </trkpt>
      <trkpt lat="44.15882" lon="6.36081">
        <ele>887.9</ele>
        <time>2018-08-09T09:23:05Z</time>
      </trkpt>
      <trkpt lat="44.15885" lon="6.36085">
        <ele>887.9</ele>
        <time>2018-08-09T09:23:06Z</time>
      </trkpt>
      <trkpt lat="44.15889" lon="6.36089">
        <ele>887.9</ele>
        <time>2018-08-09T09:23:07Z</time>
      </trkpt>
      <trkpt lat="44.15892" lon="6.36093">
        <ele>887.8</ele>
        <time>2018-08-09T09:23:08Z</time>
      </trkpt>
      <trkpt lat="44.15895" lon="6.36097">
        <ele>887.8</ele>
        <time>2018-08-09T09:23:09Z</time>
      </trkpt>
      <trkpt lat="44.15898" lon="6.36101">
        <ele>887.8</ele>
        <time>2018-08-09T09:23:10Z</time>
      </trkpt>
      <trkpt lat="44.15899" lon="6.36105">
        <ele>887.7</ele>
        <time>2018-08-09T09:23:11Z</time>
      </trkpt>
      <trkpt lat="44.15901" lon="6.36108">
        <ele>887.7</ele>
        <time>2018-08-09T09:23:12Z</time>
      </trkpt>
      <trkpt lat="44.15902" lon="6.36114">
        <ele>887.7</ele>
        <time>2018-08-09T09:23:13Z</time>
      </trkpt>
      <trkpt lat="44.15904" lon="6.36119">
        <ele>887.6</ele>
        <time>2018-08-09T09:23:14Z</time>
      </trkpt>
      <trkpt lat="44.15905" lon="6.36123">
        <ele>887.6</ele>
        <time>2018-08-09T09:23:15Z</time>
      </trkpt>
      <trkpt lat="44.15905" lon="6.3613">
        <ele>887.4</ele>
        <time>2018-08-09T09:23:16Z</time>
      </trkpt>
      <trkpt lat="44.15905" lon="6.36135">
        <ele>887.2</ele>
        <time>2018-08-09T09:23:17Z</time>
      </trkpt>
      <trkpt lat="44.15907" lon="6.36143">
        <ele>887</ele>
        <time>2018-08-09T09:23:19Z</time>
      </trkpt>
      <trkpt lat="44.1591" lon="6.3615">
        <ele>886.9</ele>
        <time>2018-08-09T09:23:20Z</time>
      </trkpt>
      <trkpt lat="44.15911" lon="6.36158">
        <ele>886.8</ele>
        <time>2018-08-09T09:23:21Z</time>
      </trkpt>
      <trkpt lat="44.15913" lon="6.36165">
        <ele>886.8</ele>
        <time>2018-08-09T09:23:22Z</time>
      </trkpt>
      <trkpt lat="44.15915" lon="6.36172">
        <ele>886.8</ele>
        <time>2018-08-09T09:23:23Z</time>
      </trkpt>
      <trkpt lat="44.15916" lon="6.36179">
        <ele>886.7</ele>
        <time>2018-08-09T09:23:24Z</time>
      </trkpt>
      <trkpt lat="44.15918" lon="6.36187">
        <ele>886.7</ele>
        <time>2018-08-09T09:23:25Z</time>
      </trkpt>
      <trkpt lat="44.1592" lon="6.36195">
        <ele>886.7</ele>
        <time>2018-08-09T09:23:26Z</time>
      </trkpt>
      <trkpt lat="44.15922" lon="6.36203">
        <ele>886.6</ele>
        <time>2018-08-09T09:23:27Z</time>
      </trkpt>
      <trkpt lat="44.15923" lon="6.36211">
        <ele>886.6</ele>
        <time>2018-08-09T09:23:28Z</time>
      </trkpt>
      <trkpt lat="44.15925" lon="6.36217">
        <ele>886.5</ele>
        <time>2018-08-09T09:23:29Z</time>
      </trkpt>
      <trkpt lat="44.15928" lon="6.36223">
        <ele>886.4</ele>
        <time>2018-08-09T09:23:30Z</time>
      </trkpt>
      <trkpt lat="44.1593" lon="6.36229">
        <ele>886.1</ele>
        <time>2018-08-09T09:23:31Z</time>
      </trkpt>
      <trkpt lat="44.15929" lon="6.36239">
        <ele>885.9</ele>
        <time>2018-08-09T09:23:32Z</time>
      </trkpt>
      <trkpt lat="44.1593" lon="6.36246">
        <ele>885.8</ele>
        <time>2018-08-09T09:23:33Z</time>
      </trkpt>
      <trkpt lat="44.15933" lon="6.36251">
        <ele>885.7</ele>
        <time>2018-08-09T09:23:34Z</time>
      </trkpt>
      <trkpt lat="44.15936" lon="6.36258">
        <ele>885.6</ele>
        <time>2018-08-09T09:23:35Z</time>
      </trkpt>
      <trkpt lat="44.15939" lon="6.36265">
        <ele>885.5</ele>
        <time>2018-08-09T09:23:36Z</time>
      </trkpt>
      <trkpt lat="44.15943" lon="6.36272">
        <ele>885.3</ele>
        <time>2018-08-09T09:23:37Z</time>
      </trkpt>
      <trkpt lat="44.15947" lon="6.36278">
        <ele>884.9</ele>
        <time>2018-08-09T09:23:38Z</time>
      </trkpt>
      <trkpt lat="44.15952" lon="6.36284">
        <ele>884.4</ele>
        <time>2018-08-09T09:23:39Z</time>
      </trkpt>
      <trkpt lat="44.15958" lon="6.36289">
        <ele>884.2</ele>
        <time>2018-08-09T09:23:40Z</time>
      </trkpt>
      <trkpt lat="44.15963" lon="6.36295">
        <ele>884</ele>
        <time>2018-08-09T09:23:41Z</time>
      </trkpt>
      <trkpt lat="44.15969" lon="6.36299">
        <ele>883.5</ele>
        <time>2018-08-09T09:23:42Z</time>
      </trkpt>
      <trkpt lat="44.15975" lon="6.36305">
        <ele>883</ele>
        <time>2018-08-09T09:23:43Z</time>
      </trkpt>
      <trkpt lat="44.15981" lon="6.36311">
        <ele>882.6</ele>
        <time>2018-08-09T09:23:44Z</time>
      </trkpt>
      <trkpt lat="44.15987" lon="6.36317">
        <ele>881.9</ele>
        <time>2018-08-09T09:23:45Z</time>
      </trkpt>
      <trkpt lat="44.15994" lon="6.36325">
        <ele>881.6</ele>
        <time>2018-08-09T09:23:46Z</time>
      </trkpt>
      <trkpt lat="44.16" lon="6.36331">
        <ele>881.5</ele>
        <time>2018-08-09T09:23:47Z</time>
      </trkpt>
      <trkpt lat="44.16006" lon="6.36338">
        <ele>881.4</ele>
        <time>2018-08-09T09:23:48Z</time>
      </trkpt>
      <trkpt lat="44.16013" lon="6.36345">
        <ele>881.2</ele>
        <time>2018-08-09T09:23:49Z</time>
      </trkpt>
      <trkpt lat="44.16019" lon="6.36352">
        <ele>881.1</ele>
        <time>2018-08-09T09:23:50Z</time>
      </trkpt>
      <trkpt lat="44.16025" lon="6.36357">
        <ele>881.1</ele>
        <time>2018-08-09T09:23:51Z</time>
      </trkpt>
      <trkpt lat="44.1603" lon="6.3636">
        <ele>881</ele>
        <time>2018-08-09T09:23:52Z</time>
      </trkpt>
      <trkpt lat="44.16036" lon="6.36361">
        <ele>880.9</ele>
        <time>2018-08-09T09:23:53Z</time>
      </trkpt>
      <trkpt lat="44.16042" lon="6.3636">
        <ele>880.6</ele>
        <time>2018-08-09T09:23:54Z</time>
      </trkpt>
      <trkpt lat="44.16047" lon="6.36359">
        <ele>880.3</ele>
        <time>2018-08-09T09:23:55Z</time>
      </trkpt>
      <trkpt lat="44.16053" lon="6.36356">
        <ele>880.1</ele>
        <time>2018-08-09T09:23:56Z</time>
      </trkpt>
      <trkpt lat="44.16058" lon="6.36355">
        <ele>879.9</ele>
        <time>2018-08-09T09:23:57Z</time>
      </trkpt>
      <trkpt lat="44.16064" lon="6.36353">
        <ele>879.6</ele>
        <time>2018-08-09T09:23:58Z</time>
      </trkpt>
      <trkpt lat="44.16071" lon="6.36353">
        <ele>879.2</ele>
        <time>2018-08-09T09:23:59Z</time>
      </trkpt>
      <trkpt lat="44.16077" lon="6.36354">
        <ele>878.9</ele>
        <time>2018-08-09T09:24:00Z</time>
      </trkpt>
      <trkpt lat="44.16084" lon="6.36356">
        <ele>878.8</ele>
        <time>2018-08-09T09:24:01Z</time>
      </trkpt>
      <trkpt lat="44.1609" lon="6.36356">
        <ele>878.7</ele>
        <time>2018-08-09T09:24:02Z</time>
      </trkpt>
      <trkpt lat="44.16096" lon="6.36355">
        <ele>878.7</ele>
        <time>2018-08-09T09:24:03Z</time>
      </trkpt>
      <trkpt lat="44.16103" lon="6.36352">
        <ele>878.7</ele>
        <time>2018-08-09T09:24:04Z</time>
      </trkpt>
      <trkpt lat="44.1611" lon="6.36348">
        <ele>878.7</ele>
        <time>2018-08-09T09:24:05Z</time>
      </trkpt>
      <trkpt lat="44.16116" lon="6.36337">
        <ele>878.7</ele>
        <time>2018-08-09T09:24:06Z</time>
      </trkpt>
      <trkpt lat="44.16122" lon="6.36329">
        <ele>878.8</ele>
        <time>2018-08-09T09:24:07Z</time>
      </trkpt>
      <trkpt lat="44.16126" lon="6.36321">
        <ele>878.8</ele>
        <time>2018-08-09T09:24:08Z</time>
      </trkpt>
      <trkpt lat="44.16131" lon="6.36315">
        <ele>878.8</ele>
        <time>2018-08-09T09:24:09Z</time>
      </trkpt>
      <trkpt lat="44.16138" lon="6.36308">
        <ele>878.9</ele>
        <time>2018-08-09T09:24:10Z</time>
      </trkpt>
      <trkpt lat="44.16143" lon="6.36303">
        <ele>878.9</ele>
        <time>2018-08-09T09:24:11Z</time>
      </trkpt>
      <trkpt lat="44.16147" lon="6.36299">
        <ele>878.9</ele>
        <time>2018-08-09T09:24:12Z</time>
      </trkpt>
      <trkpt lat="44.1615" lon="6.36294">
        <ele>878.9</ele>
        <time>2018-08-09T09:24:13Z</time>
      </trkpt>
      <trkpt lat="44.16154" lon="6.36291">
        <ele>878.8</ele>
        <time>2018-08-09T09:24:14Z</time>
      </trkpt>
      <trkpt lat="44.16156" lon="6.36289">
        <ele>878.8</ele>
        <time>2018-08-09T09:24:15Z</time>
      </trkpt>
      <trkpt lat="44.16159" lon="6.36286">
        <ele>878.8</ele>
        <time>2018-08-09T09:24:16Z</time>
      </trkpt>
      <trkpt lat="44.16162" lon="6.36284">
        <ele>878.7</ele>
        <time>2018-08-09T09:24:17Z</time>
      </trkpt>
      <trkpt lat="44.16165" lon="6.36282">
        <ele>878.7</ele>
        <time>2018-08-09T09:24:18Z</time>
      </trkpt>
      <trkpt lat="44.16168" lon="6.3628">
        <ele>878.5</ele>
        <time>2018-08-09T09:24:19Z</time>
      </trkpt>
      <trkpt lat="44.16172" lon="6.36279">
        <ele>878.2</ele>
        <time>2018-08-09T09:24:20Z</time>
      </trkpt>
      <trkpt lat="44.16176" lon="6.36277">
        <ele>877.9</ele>
        <time>2018-08-09T09:24:21Z</time>
      </trkpt>
      <trkpt lat="44.16181" lon="6.36277">
        <ele>877.7</ele>
        <time>2018-08-09T09:24:22Z</time>
      </trkpt>
      <trkpt lat="44.16184" lon="6.36278">
        <ele>877.5</ele>
        <time>2018-08-09T09:24:23Z</time>
      </trkpt>
      <trkpt lat="44.16188" lon="6.3628">
        <ele>877.2</ele>
        <time>2018-08-09T09:24:24Z</time>
      </trkpt>
      <trkpt lat="44.16191" lon="6.36282">
        <ele>876.7</ele>
        <time>2018-08-09T09:24:25Z</time>
      </trkpt>
      <trkpt lat="44.16195" lon="6.36286">
        <ele>876.3</ele>
        <time>2018-08-09T09:24:26Z</time>
      </trkpt>
      <trkpt lat="44.16198" lon="6.36289">
        <ele>875.9</ele>
        <time>2018-08-09T09:24:27Z</time>
      </trkpt>
      <trkpt lat="44.16203" lon="6.36292">
        <ele>875.3</ele>
        <time>2018-08-09T09:24:28Z</time>
      </trkpt>
      <trkpt lat="44.16207" lon="6.36295">
        <ele>874.8</ele>
        <time>2018-08-09T09:24:29Z</time>
      </trkpt>
      <trkpt lat="44.16211" lon="6.36298">
        <ele>874.4</ele>
        <time>2018-08-09T09:24:30Z</time>
      </trkpt>
      <trkpt lat="44.16214" lon="6.36307">
        <ele>873.6</ele>
        <time>2018-08-09T09:24:31Z</time>
      </trkpt>
      <trkpt lat="44.16219" lon="6.36313">
        <ele>873.2</ele>
        <time>2018-08-09T09:24:32Z</time>
      </trkpt>
      <trkpt lat="44.16223" lon="6.3632">
        <ele>873</ele>
        <time>2018-08-09T09:24:33Z</time>
      </trkpt>
      <trkpt lat="44.16227" lon="6.36326">
        <ele>872.6</ele>
        <time>2018-08-09T09:24:34Z</time>
      </trkpt>
      <trkpt lat="44.16229" lon="6.36334">
        <ele>872.3</ele>
        <time>2018-08-09T09:24:35Z</time>
      </trkpt>
      <trkpt lat="44.1623" lon="6.36342">
        <ele>872.2</ele>
        <time>2018-08-09T09:24:36Z</time>
      </trkpt>
      <trkpt lat="44.1623" lon="6.3635">
        <ele>872</ele>
        <time>2018-08-09T09:24:37Z</time>
      </trkpt>
      <trkpt lat="44.16229" lon="6.36359">
        <ele>872</ele>
        <time>2018-08-09T09:24:38Z</time>
      </trkpt>
      <trkpt lat="44.16227" lon="6.36367">
        <ele>871.9</ele>
        <time>2018-08-09T09:24:39Z</time>
      </trkpt>
      <trkpt lat="44.16225" lon="6.36376">
        <ele>872</ele>
        <time>2018-08-09T09:24:40Z</time>
      </trkpt>
      <trkpt lat="44.16223" lon="6.36383">
        <ele>872</ele>
        <time>2018-08-09T09:24:41Z</time>
      </trkpt>
      <trkpt lat="44.16224" lon="6.3639">
        <ele>872</ele>
        <time>2018-08-09T09:24:42Z</time>
      </trkpt>
      <trkpt lat="44.16228" lon="6.36394">
        <ele>872.1</ele>
        <time>2018-08-09T09:24:43Z</time>
      </trkpt>
      <trkpt lat="44.16232" lon="6.36393">
        <ele>872.1</ele>
        <time>2018-08-09T09:24:44Z</time>
      </trkpt>
      <trkpt lat="44.16236" lon="6.36392">
        <ele>872.1</ele>
        <time>2018-08-09T09:24:45Z</time>
      </trkpt>
      <trkpt lat="44.16238" lon="6.36388">
        <ele>872.1</ele>
        <time>2018-08-09T09:24:46Z</time>
      </trkpt>
      <trkpt lat="44.16241" lon="6.36384">
        <ele>872.2</ele>
        <time>2018-08-09T09:24:47Z</time>
      </trkpt>
      <trkpt lat="44.16241" lon="6.3638">
        <ele>872.2</ele>
        <time>2018-08-09T09:24:48Z</time>
      </trkpt>
      <trkpt lat="44.16242" lon="6.36375">
        <ele>872.2</ele>
        <time>2018-08-09T09:24:49Z</time>
      </trkpt>
      <trkpt lat="44.16243" lon="6.36371">
        <ele>872.2</ele>
        <time>2018-08-09T09:24:50Z</time>
      </trkpt>
      <trkpt lat="44.16243" lon="6.36365">
        <ele>872.1</ele>
        <time>2018-08-09T09:24:52Z</time>
      </trkpt>
      <trkpt lat="44.16243" lon="6.36361">
        <ele>872.1</ele>
        <time>2018-08-09T09:24:53Z</time>
      </trkpt>
      <trkpt lat="44.16246" lon="6.36356">
        <ele>872.1</ele>
        <time>2018-08-09T09:24:54Z</time>
      </trkpt>
      <trkpt lat="44.16249" lon="6.36351">
        <ele>872</ele>
        <time>2018-08-09T09:24:55Z</time>
      </trkpt>
      <trkpt lat="44.16252" lon="6.36348">
        <ele>871.7</ele>
        <time>2018-08-09T09:24:56Z</time>
      </trkpt>
      <trkpt lat="44.16254" lon="6.36344">
        <ele>871.5</ele>
        <time>2018-08-09T09:24:57Z</time>
      </trkpt>
      <trkpt lat="44.16257" lon="6.36339">
        <ele>871.3</ele>
        <time>2018-08-09T09:24:58Z</time>
      </trkpt>
      <trkpt lat="44.1626" lon="6.36336">
        <ele>871.1</ele>
        <time>2018-08-09T09:24:59Z</time>
      </trkpt>
      <trkpt lat="44.16264" lon="6.36332">
        <ele>871</ele>
        <time>2018-08-09T09:25:00Z</time>
      </trkpt>
      <trkpt lat="44.16266" lon="6.3633">
        <ele>870.9</ele>
        <time>2018-08-09T09:25:01Z</time>
      </trkpt>
      <trkpt lat="44.16272" lon="6.36328">
        <ele>870.6</ele>
        <time>2018-08-09T09:25:03Z</time>
      </trkpt>
      <trkpt lat="44.16281" lon="6.36336">
        <ele>869.9</ele>
        <time>2018-08-09T09:25:04Z</time>
      </trkpt>
      <trkpt lat="44.16288" lon="6.36336">
        <ele>869.7</ele>
        <time>2018-08-09T09:25:05Z</time>
      </trkpt>
      <trkpt lat="44.16294" lon="6.36334">
        <ele>869.5</ele>
        <time>2018-08-09T09:25:06Z</time>
      </trkpt>
      <trkpt lat="44.163" lon="6.36327">
        <ele>869.2</ele>
        <time>2018-08-09T09:25:07Z</time>
      </trkpt>
      <trkpt lat="44.16305" lon="6.36321">
        <ele>868.9</ele>
        <time>2018-08-09T09:25:08Z</time>
      </trkpt>
      <trkpt lat="44.16307" lon="6.36311">
        <ele>868.8</ele>
        <time>2018-08-09T09:25:09Z</time>
      </trkpt>
      <trkpt lat="44.16309" lon="6.36303">
        <ele>868.8</ele>
        <time>2018-08-09T09:25:10Z</time>
      </trkpt>
      <trkpt lat="44.16311" lon="6.36294">
        <ele>868.7</ele>
        <time>2018-08-09T09:25:11Z</time>
      </trkpt>
      <trkpt lat="44.16314" lon="6.36288">
        <ele>868.7</ele>
        <time>2018-08-09T09:25:12Z</time>
      </trkpt>
      <trkpt lat="44.16317" lon="6.36283">
        <ele>868.7</ele>
        <time>2018-08-09T09:25:13Z</time>
      </trkpt>
      <trkpt lat="44.16321" lon="6.3628">
        <ele>868.7</ele>
        <time>2018-08-09T09:25:14Z</time>
      </trkpt>
      <trkpt lat="44.16327" lon="6.3628">
        <ele>868.8</ele>
        <time>2018-08-09T09:25:15Z</time>
      </trkpt>
      <trkpt lat="44.16334" lon="6.36281">
        <ele>868.8</ele>
        <time>2018-08-09T09:25:16Z</time>
      </trkpt>
      <trkpt lat="44.16339" lon="6.36285">
        <ele>868.9</ele>
        <time>2018-08-09T09:25:17Z</time>
      </trkpt>
      <trkpt lat="44.16346" lon="6.36287">
        <ele>868.9</ele>
        <time>2018-08-09T09:25:18Z</time>
      </trkpt>
      <trkpt lat="44.16351" lon="6.36286">
        <ele>868.9</ele>
        <time>2018-08-09T09:25:19Z</time>
      </trkpt>
      <trkpt lat="44.16357" lon="6.36287">
        <ele>869</ele>
        <time>2018-08-09T09:25:20Z</time>
      </trkpt>
      <trkpt lat="44.16363" lon="6.36287">
        <ele>869</ele>
        <time>2018-08-09T09:25:21Z</time>
      </trkpt>
      <trkpt lat="44.16368" lon="6.36288">
        <ele>869</ele>
        <time>2018-08-09T09:25:22Z</time>
      </trkpt>
      <trkpt lat="44.16373" lon="6.36288">
        <ele>869</ele>
        <time>2018-08-09T09:25:23Z</time>
      </trkpt>
      <trkpt lat="44.16379" lon="6.36288">
        <ele>869.1</ele>
        <time>2018-08-09T09:25:24Z</time>
      </trkpt>
      <trkpt lat="44.16384" lon="6.36289">
        <ele>869.1</ele>
        <time>2018-08-09T09:25:25Z</time>
      </trkpt>
      <trkpt lat="44.16389" lon="6.3629">
        <ele>869.1</ele>
        <time>2018-08-09T09:25:26Z</time>
      </trkpt>
      <trkpt lat="44.16394" lon="6.36291">
        <ele>869.1</ele>
        <time>2018-08-09T09:25:27Z</time>
      </trkpt>
      <trkpt lat="44.16399" lon="6.36293">
        <ele>869.1</ele>
        <time>2018-08-09T09:25:28Z</time>
      </trkpt>
      <trkpt lat="44.16402" lon="6.36294">
        <ele>869.1</ele>
        <time>2018-08-09T09:25:29Z</time>
      </trkpt>
      <trkpt lat="44.16406" lon="6.36296">
        <ele>869.1</ele>
        <time>2018-08-09T09:25:30Z</time>
      </trkpt>
      <trkpt lat="44.16411" lon="6.36298">
        <ele>869.1</ele>
        <time>2018-08-09T09:25:31Z</time>
      </trkpt>
      <trkpt lat="44.16415" lon="6.36301">
        <ele>869.1</ele>
        <time>2018-08-09T09:25:32Z</time>
      </trkpt>
      <trkpt lat="44.16418" lon="6.36303">
        <ele>869</ele>
        <time>2018-08-09T09:25:33Z</time>
      </trkpt>
      <trkpt lat="44.16421" lon="6.36304">
        <ele>869</ele>
        <time>2018-08-09T09:25:34Z</time>
      </trkpt>
      <trkpt lat="44.16426" lon="6.36306">
        <ele>868.9</ele>
        <time>2018-08-09T09:25:35Z</time>
      </trkpt>
      <trkpt lat="44.1643" lon="6.36308">
        <ele>868.7</ele>
        <time>2018-08-09T09:25:36Z</time>
      </trkpt>
      <trkpt lat="44.16433" lon="6.3631">
        <ele>868.5</ele>
        <time>2018-08-09T09:25:37Z</time>
      </trkpt>
      <trkpt lat="44.16437" lon="6.3631">
        <ele>868.2</ele>
        <time>2018-08-09T09:25:38Z</time>
      </trkpt>
      <trkpt lat="44.16441" lon="6.36309">
        <ele>867.8</ele>
        <time>2018-08-09T09:25:39Z</time>
      </trkpt>
      <trkpt lat="44.16446" lon="6.36307">
        <ele>867.5</ele>
        <time>2018-08-09T09:25:40Z</time>
      </trkpt>
      <trkpt lat="44.1645" lon="6.36304">
        <ele>867.1</ele>
        <time>2018-08-09T09:25:41Z</time>
      </trkpt>
      <trkpt lat="44.16454" lon="6.36299">
        <ele>866.7</ele>
        <time>2018-08-09T09:25:42Z</time>
      </trkpt>
      <trkpt lat="44.16456" lon="6.36292">
        <ele>866.4</ele>
        <time>2018-08-09T09:25:43Z</time>
      </trkpt>
      <trkpt lat="44.16458" lon="6.36286">
        <ele>866.2</ele>
        <time>2018-08-09T09:25:44Z</time>
      </trkpt>
      <trkpt lat="44.1646" lon="6.36279">
        <ele>866.1</ele>
        <time>2018-08-09T09:25:45Z</time>
      </trkpt>
      <trkpt lat="44.16462" lon="6.36273">
        <ele>866.1</ele>
        <time>2018-08-09T09:25:46Z</time>
      </trkpt>
      <trkpt lat="44.16465" lon="6.36267">
        <ele>866</ele>
        <time>2018-08-09T09:25:47Z</time>
      </trkpt>
      <trkpt lat="44.16468" lon="6.36263">
        <ele>865.9</ele>
        <time>2018-08-09T09:25:48Z</time>
      </trkpt>
      <trkpt lat="44.16474" lon="6.3626">
        <ele>865.7</ele>
        <time>2018-08-09T09:25:49Z</time>
      </trkpt>
      <trkpt lat="44.16478" lon="6.36256">
        <ele>865.5</ele>
        <time>2018-08-09T09:25:50Z</time>
      </trkpt>
      <trkpt lat="44.16483" lon="6.36256">
        <ele>865.2</ele>
        <time>2018-08-09T09:25:51Z</time>
      </trkpt>
      <trkpt lat="44.16488" lon="6.36257">
        <ele>865.1</ele>
        <time>2018-08-09T09:25:52Z</time>
      </trkpt>
      <trkpt lat="44.16494" lon="6.36261">
        <ele>865</ele>
        <time>2018-08-09T09:25:53Z</time>
      </trkpt>
      <trkpt lat="44.16499" lon="6.36265">
        <ele>864.9</ele>
        <time>2018-08-09T09:25:54Z</time>
      </trkpt>
      <trkpt lat="44.16504" lon="6.36269">
        <ele>864.8</ele>
        <time>2018-08-09T09:25:55Z</time>
      </trkpt>
      <trkpt lat="44.1651" lon="6.36273">
        <ele>864.8</ele>
        <time>2018-08-09T09:25:56Z</time>
      </trkpt>
      <trkpt lat="44.16515" lon="6.36275">
        <ele>864.7</ele>
        <time>2018-08-09T09:25:57Z</time>
      </trkpt>
      <trkpt lat="44.16521" lon="6.36277">
        <ele>864.7</ele>
        <time>2018-08-09T09:25:58Z</time>
      </trkpt>
      <trkpt lat="44.16526" lon="6.36276">
        <ele>864.6</ele>
        <time>2018-08-09T09:25:59Z</time>
      </trkpt>
      <trkpt lat="44.16531" lon="6.36274">
        <ele>864.6</ele>
        <time>2018-08-09T09:26:00Z</time>
      </trkpt>
      <trkpt lat="44.16537" lon="6.36271">
        <ele>864.5</ele>
        <time>2018-08-09T09:26:01Z</time>
      </trkpt>
      <trkpt lat="44.16541" lon="6.36267">
        <ele>864.5</ele>
        <time>2018-08-09T09:26:02Z</time>
      </trkpt>
      <trkpt lat="44.16546" lon="6.36263">
        <ele>864.3</ele>
        <time>2018-08-09T09:26:03Z</time>
      </trkpt>
      <trkpt lat="44.16551" lon="6.36259">
        <ele>864.1</ele>
        <time>2018-08-09T09:26:04Z</time>
      </trkpt>
      <trkpt lat="44.16556" lon="6.36256">
        <ele>863.9</ele>
        <time>2018-08-09T09:26:05Z</time>
      </trkpt>
      <trkpt lat="44.16562" lon="6.36255">
        <ele>863.8</ele>
        <time>2018-08-09T09:26:06Z</time>
      </trkpt>
      <trkpt lat="44.16567" lon="6.36254">
        <ele>863.7</ele>
        <time>2018-08-09T09:26:07Z</time>
      </trkpt>
      <trkpt lat="44.16573" lon="6.36256">
        <ele>863.7</ele>
        <time>2018-08-09T09:26:08Z</time>
      </trkpt>
      <trkpt lat="44.16579" lon="6.36257">
        <ele>863.7</ele>
        <time>2018-08-09T09:26:09Z</time>
      </trkpt>
      <trkpt lat="44.16583" lon="6.36259">
        <ele>863.7</ele>
        <time>2018-08-09T09:26:10Z</time>
      </trkpt>
      <trkpt lat="44.16587" lon="6.36259">
        <ele>863.7</ele>
        <time>2018-08-09T09:26:11Z</time>
      </trkpt>
      <trkpt lat="44.16591" lon="6.3626">
        <ele>863.7</ele>
        <time>2018-08-09T09:26:12Z</time>
      </trkpt>
      <trkpt lat="44.16595" lon="6.3626">
        <ele>863.7</ele>
        <time>2018-08-09T09:26:13Z</time>
      </trkpt>
      <trkpt lat="44.16599" lon="6.36261">
        <ele>863.7</ele>
        <time>2018-08-09T09:26:14Z</time>
      </trkpt>
      <trkpt lat="44.16604" lon="6.36262">
        <ele>863.7</ele>
        <time>2018-08-09T09:26:15Z</time>
      </trkpt>
      <trkpt lat="44.16609" lon="6.36263">
        <ele>863.7</ele>
        <time>2018-08-09T09:26:16Z</time>
      </trkpt>
      <trkpt lat="44.16613" lon="6.36263">
        <ele>863.7</ele>
        <time>2018-08-09T09:26:17Z</time>
      </trkpt>
      <trkpt lat="44.16619" lon="6.36261">
        <ele>863.8</ele>
        <time>2018-08-09T09:26:18Z</time>
      </trkpt>
      <trkpt lat="44.16625" lon="6.36259">
        <ele>863.8</ele>
        <time>2018-08-09T09:26:19Z</time>
      </trkpt>
      <trkpt lat="44.16631" lon="6.36256">
        <ele>863.8</ele>
        <time>2018-08-09T09:26:20Z</time>
      </trkpt>
      <trkpt lat="44.16637" lon="6.36253">
        <ele>863.8</ele>
        <time>2018-08-09T09:26:21Z</time>
      </trkpt>
      <trkpt lat="44.16643" lon="6.36252">
        <ele>863.7</ele>
        <time>2018-08-09T09:26:22Z</time>
      </trkpt>
      <trkpt lat="44.16648" lon="6.36252">
        <ele>863.7</ele>
        <time>2018-08-09T09:26:23Z</time>
      </trkpt>
      <trkpt lat="44.16652" lon="6.36253">
        <ele>863.6</ele>
        <time>2018-08-09T09:26:24Z</time>
      </trkpt>
      <trkpt lat="44.16656" lon="6.36254">
        <ele>863.6</ele>
        <time>2018-08-09T09:26:25Z</time>
      </trkpt>
      <trkpt lat="44.1666" lon="6.36254">
        <ele>863.4</ele>
        <time>2018-08-09T09:26:26Z</time>
      </trkpt>
      <trkpt lat="44.16664" lon="6.36255">
        <ele>863.3</ele>
        <time>2018-08-09T09:26:27Z</time>
      </trkpt>
      <trkpt lat="44.16669" lon="6.36254">
        <ele>863.1</ele>
        <time>2018-08-09T09:26:28Z</time>
      </trkpt>
      <trkpt lat="44.16673" lon="6.36252">
        <ele>863.1</ele>
        <time>2018-08-09T09:26:29Z</time>
      </trkpt>
      <trkpt lat="44.16677" lon="6.3625">
        <ele>863</ele>
        <time>2018-08-09T09:26:30Z</time>
      </trkpt>
      <trkpt lat="44.16681" lon="6.36248">
        <ele>863</ele>
        <time>2018-08-09T09:26:31Z</time>
      </trkpt>
      <trkpt lat="44.16685" lon="6.36246">
        <ele>863</ele>
        <time>2018-08-09T09:26:32Z</time>
      </trkpt>
      <trkpt lat="44.16688" lon="6.36246">
        <ele>863</ele>
        <time>2018-08-09T09:26:33Z</time>
      </trkpt>
      <trkpt lat="44.16694" lon="6.36245">
        <ele>862.9</ele>
        <time>2018-08-09T09:26:34Z</time>
      </trkpt>
      <trkpt lat="44.16698" lon="6.36243">
        <ele>862.9</ele>
        <time>2018-08-09T09:26:35Z</time>
      </trkpt>
      <trkpt lat="44.16702" lon="6.36241">
        <ele>862.9</ele>
        <time>2018-08-09T09:26:36Z</time>
      </trkpt>
      <trkpt lat="44.16705" lon="6.36239">
        <ele>862.9</ele>
        <time>2018-08-09T09:26:37Z</time>
      </trkpt>
      <trkpt lat="44.16708" lon="6.36236">
        <ele>862.9</ele>
        <time>2018-08-09T09:26:38Z</time>
      </trkpt>
      <trkpt lat="44.16711" lon="6.36234">
        <ele>862.9</ele>
        <time>2018-08-09T09:26:39Z</time>
      </trkpt>
      <trkpt lat="44.16714" lon="6.36232">
        <ele>862.9</ele>
        <time>2018-08-09T09:26:40Z</time>
      </trkpt>
      <trkpt lat="44.16716" lon="6.36229">
        <ele>862.9</ele>
        <time>2018-08-09T09:26:41Z</time>
      </trkpt>
      <trkpt lat="44.16719" lon="6.36227">
        <ele>862.9</ele>
        <time>2018-08-09T09:26:42Z</time>
      </trkpt>
      <trkpt lat="44.16723" lon="6.36223">
        <ele>863</ele>
        <time>2018-08-09T09:26:44Z</time>
      </trkpt>
      <trkpt lat="44.16725" lon="6.3622">
        <ele>863</ele>
        <time>2018-08-09T09:26:45Z</time>
      </trkpt>
      <trkpt lat="44.16727" lon="6.36217">
        <ele>863</ele>
        <time>2018-08-09T09:26:46Z</time>
      </trkpt>
      <trkpt lat="44.16729" lon="6.36214">
        <ele>863</ele>
        <time>2018-08-09T09:26:47Z</time>
      </trkpt>
      <trkpt lat="44.16732" lon="6.36211">
        <ele>863</ele>
        <time>2018-08-09T09:26:48Z</time>
      </trkpt>
      <trkpt lat="44.16734" lon="6.36209">
        <ele>863</ele>
        <time>2018-08-09T09:26:49Z</time>
      </trkpt>
      <trkpt lat="44.16736" lon="6.36205">
        <ele>863</ele>
        <time>2018-08-09T09:26:50Z</time>
      </trkpt>
      <trkpt lat="44.16738" lon="6.36202">
        <ele>862.7</ele>
        <time>2018-08-09T09:26:51Z</time>
      </trkpt>
      <trkpt lat="44.16741" lon="6.36199">
        <ele>862.5</ele>
        <time>2018-08-09T09:26:52Z</time>
      </trkpt>
      <trkpt lat="44.16743" lon="6.36193">
        <ele>862.2</ele>
        <time>2018-08-09T09:26:54Z</time>
      </trkpt>
      <trkpt lat="44.16747" lon="6.36188">
        <ele>861.9</ele>
        <time>2018-08-09T09:26:56Z</time>
      </trkpt>
      <trkpt lat="44.16749" lon="6.36185">
        <ele>861.7</ele>
        <time>2018-08-09T09:26:57Z</time>
      </trkpt>
      <trkpt lat="44.16752" lon="6.36183">
        <ele>861.5</ele>
        <time>2018-08-09T09:26:58Z</time>
      </trkpt>
      <trkpt lat="44.16755" lon="6.36179">
        <ele>861.3</ele>
        <time>2018-08-09T09:27:00Z</time>
      </trkpt>
      <trkpt lat="44.16758" lon="6.36175">
        <ele>861.2</ele>
        <time>2018-08-09T09:27:02Z</time>
      </trkpt>
      <trkpt lat="44.16759" lon="6.36171">
        <ele>861.1</ele>
        <time>2018-08-09T09:27:11Z</time>
      </trkpt>
      <trkpt lat="44.16763" lon="6.36166">
        <ele>861</ele>
        <time>2018-08-09T09:27:13Z</time>
      </trkpt>
      <trkpt lat="44.16764" lon="6.36161">
        <ele>860.9</ele>
        <time>2018-08-09T09:27:15Z</time>
      </trkpt>
      <trkpt lat="44.16766" lon="6.36156">
        <ele>860.8</ele>
        <time>2018-08-09T09:27:17Z</time>
      </trkpt>
      <trkpt lat="44.16768" lon="6.36152">
        <ele>860.7</ele>
        <time>2018-08-09T09:27:19Z</time>
      </trkpt>
      <trkpt lat="44.1677" lon="6.36147">
        <ele>860.6</ele>
        <time>2018-08-09T09:27:21Z</time>
      </trkpt>
      <trkpt lat="44.16772" lon="6.3614">
        <ele>860.6</ele>
        <time>2018-08-09T09:27:23Z</time>
      </trkpt>
      <trkpt lat="44.16773" lon="6.36137">
        <ele>860.5</ele>
        <time>2018-08-09T09:27:24Z</time>
      </trkpt>
      <trkpt lat="44.16775" lon="6.36133">
        <ele>860.5</ele>
        <time>2018-08-09T09:27:25Z</time>
      </trkpt>
      <trkpt lat="44.16776" lon="6.36129">
        <ele>860.4</ele>
        <time>2018-08-09T09:27:26Z</time>
      </trkpt>
      <trkpt lat="44.16777" lon="6.36125">
        <ele>860.3</ele>
        <time>2018-08-09T09:27:27Z</time>
      </trkpt>
      <trkpt lat="44.16778" lon="6.36121">
        <ele>860.3</ele>
        <time>2018-08-09T09:27:28Z</time>
      </trkpt>
      <trkpt lat="44.1678" lon="6.36117">
        <ele>860.2</ele>
        <time>2018-08-09T09:27:29Z</time>
      </trkpt>
      <trkpt lat="44.16782" lon="6.36113">
        <ele>860.1</ele>
        <time>2018-08-09T09:27:30Z</time>
      </trkpt>
      <trkpt lat="44.16784" lon="6.36109">
        <ele>860</ele>
        <time>2018-08-09T09:27:31Z</time>
      </trkpt>
      <trkpt lat="44.16786" lon="6.36106">
        <ele>859.9</ele>
        <time>2018-08-09T09:27:32Z</time>
      </trkpt>
      <trkpt lat="44.16789" lon="6.36103">
        <ele>859.8</ele>
        <time>2018-08-09T09:27:33Z</time>
      </trkpt>
      <trkpt lat="44.16792" lon="6.36101">
        <ele>859.8</ele>
        <time>2018-08-09T09:27:34Z</time>
      </trkpt>
      <trkpt lat="44.16794" lon="6.361">
        <ele>859.7</ele>
        <time>2018-08-09T09:27:35Z</time>
      </trkpt>
      <trkpt lat="44.16799" lon="6.36095">
        <ele>859.5</ele>
        <time>2018-08-09T09:27:37Z</time>
      </trkpt>
      <trkpt lat="44.168" lon="6.36091">
        <ele>859.4</ele>
        <time>2018-08-09T09:27:38Z</time>
      </trkpt>
      <trkpt lat="44.16802" lon="6.36088">
        <ele>859.3</ele>
        <time>2018-08-09T09:27:39Z</time>
      </trkpt>
      <trkpt lat="44.16802" lon="6.36084">
        <ele>859.2</ele>
        <time>2018-08-09T09:27:40Z</time>
      </trkpt>
      <trkpt lat="44.16804" lon="6.3608">
        <ele>859.1</ele>
        <time>2018-08-09T09:27:41Z</time>
      </trkpt>
      <trkpt lat="44.16806" lon="6.36077">
        <ele>859</ele>
        <time>2018-08-09T09:27:42Z</time>
      </trkpt>
      <trkpt lat="44.16808" lon="6.36074">
        <ele>859</ele>
        <time>2018-08-09T09:27:43Z</time>
      </trkpt>
      <trkpt lat="44.16809" lon="6.3607">
        <ele>858.9</ele>
        <time>2018-08-09T09:27:44Z</time>
      </trkpt>
      <trkpt lat="44.16811" lon="6.36066">
        <ele>858.8</ele>
        <time>2018-08-09T09:27:45Z</time>
      </trkpt>
      <trkpt lat="44.16812" lon="6.36062">
        <ele>858.8</ele>
        <time>2018-08-09T09:27:46Z</time>
      </trkpt>
      <trkpt lat="44.16814" lon="6.36057">
        <ele>858.7</ele>
        <time>2018-08-09T09:27:47Z</time>
      </trkpt>
      <trkpt lat="44.16815" lon="6.36052">
        <ele>858.7</ele>
        <time>2018-08-09T09:27:48Z</time>
      </trkpt>
      <trkpt lat="44.16816" lon="6.36048">
        <ele>858.6</ele>
        <time>2018-08-09T09:27:49Z</time>
      </trkpt>
      <trkpt lat="44.16817" lon="6.36043">
        <ele>858.6</ele>
        <time>2018-08-09T09:27:50Z</time>
      </trkpt>
      <trkpt lat="44.16817" lon="6.36038">
        <ele>858.5</ele>
        <time>2018-08-09T09:27:51Z</time>
      </trkpt>
      <trkpt lat="44.16818" lon="6.36033">
        <ele>858.5</ele>
        <time>2018-08-09T09:27:52Z</time>
      </trkpt>
      <trkpt lat="44.16817" lon="6.36029">
        <ele>858.5</ele>
        <time>2018-08-09T09:27:53Z</time>
      </trkpt>
      <trkpt lat="44.16816" lon="6.36024">
        <ele>858.4</ele>
        <time>2018-08-09T09:27:54Z</time>
      </trkpt>
      <trkpt lat="44.16816" lon="6.36019">
        <ele>858.4</ele>
        <time>2018-08-09T09:27:55Z</time>
      </trkpt>
      <trkpt lat="44.16816" lon="6.36014">
        <ele>858.3</ele>
        <time>2018-08-09T09:27:56Z</time>
      </trkpt>
      <trkpt lat="44.16816" lon="6.36009">
        <ele>858.3</ele>
        <time>2018-08-09T09:27:57Z</time>
      </trkpt>
      <trkpt lat="44.16816" lon="6.36004">
        <ele>858.2</ele>
        <time>2018-08-09T09:27:58Z</time>
      </trkpt>
      <trkpt lat="44.16816" lon="6.35998">
        <ele>858.1</ele>
        <time>2018-08-09T09:27:59Z</time>
      </trkpt>
      <trkpt lat="44.16816" lon="6.35992">
        <ele>858</ele>
        <time>2018-08-09T09:28:00Z</time>
      </trkpt>
      <trkpt lat="44.16816" lon="6.35987">
        <ele>857.9</ele>
        <time>2018-08-09T09:28:01Z</time>
      </trkpt>
      <trkpt lat="44.16816" lon="6.35981">
        <ele>857.9</ele>
        <time>2018-08-09T09:28:02Z</time>
      </trkpt>
      <trkpt lat="44.16817" lon="6.35975">
        <ele>857.8</ele>
        <time>2018-08-09T09:28:03Z</time>
      </trkpt>
      <trkpt lat="44.16817" lon="6.35968">
        <ele>857.7</ele>
        <time>2018-08-09T09:28:04Z</time>
      </trkpt>
      <trkpt lat="44.16817" lon="6.35962">
        <ele>857.7</ele>
        <time>2018-08-09T09:28:05Z</time>
      </trkpt>
      <trkpt lat="44.16817" lon="6.35955">
        <ele>857.6</ele>
        <time>2018-08-09T09:28:06Z</time>
      </trkpt>
      <trkpt lat="44.16818" lon="6.35948">
        <ele>857.6</ele>
        <time>2018-08-09T09:28:07Z</time>
      </trkpt>
      <trkpt lat="44.16818" lon="6.35941">
        <ele>857.6</ele>
        <time>2018-08-09T09:28:08Z</time>
      </trkpt>
      <trkpt lat="44.16819" lon="6.35934">
        <ele>857.6</ele>
        <time>2018-08-09T09:28:09Z</time>
      </trkpt>
      <trkpt lat="44.16819" lon="6.35927">
        <ele>857.7</ele>
        <time>2018-08-09T09:28:10Z</time>
      </trkpt>
      <trkpt lat="44.16819" lon="6.35921">
        <ele>857.8</ele>
        <time>2018-08-09T09:28:11Z</time>
      </trkpt>
      <trkpt lat="44.1682" lon="6.35914">
        <ele>857.9</ele>
        <time>2018-08-09T09:28:12Z</time>
      </trkpt>
      <trkpt lat="44.16821" lon="6.35907">
        <ele>858.1</ele>
        <time>2018-08-09T09:28:13Z</time>
      </trkpt>
      <trkpt lat="44.16821" lon="6.35901">
        <ele>858.3</ele>
        <time>2018-08-09T09:28:14Z</time>
      </trkpt>
      <trkpt lat="44.16822" lon="6.35894">
        <ele>858.4</ele>
        <time>2018-08-09T09:28:15Z</time>
      </trkpt>
      <trkpt lat="44.16821" lon="6.35888">
        <ele>858.6</ele>
        <time>2018-08-09T09:28:16Z</time>
      </trkpt>
      <trkpt lat="44.16821" lon="6.35881">
        <ele>858.8</ele>
        <time>2018-08-09T09:28:17Z</time>
      </trkpt>
      <trkpt lat="44.16822" lon="6.35874">
        <ele>859</ele>
        <time>2018-08-09T09:28:18Z</time>
      </trkpt>
      <trkpt lat="44.16823" lon="6.35868">
        <ele>859.1</ele>
        <time>2018-08-09T09:28:19Z</time>
      </trkpt>
      <trkpt lat="44.16824" lon="6.35862">
        <ele>859.3</ele>
        <time>2018-08-09T09:28:20Z</time>
      </trkpt>
      <trkpt lat="44.16824" lon="6.35857">
        <ele>859.4</ele>
        <time>2018-08-09T09:28:21Z</time>
      </trkpt>
      <trkpt lat="44.16825" lon="6.35851">
        <ele>859.5</ele>
        <time>2018-08-09T09:28:22Z</time>
      </trkpt>
      <trkpt lat="44.16825" lon="6.35846">
        <ele>859.7</ele>
        <time>2018-08-09T09:28:23Z</time>
      </trkpt>
      <trkpt lat="44.16826" lon="6.3584">
        <ele>859.8</ele>
        <time>2018-08-09T09:28:24Z</time>
      </trkpt>
      <trkpt lat="44.16826" lon="6.35835">
        <ele>859.8</ele>
        <time>2018-08-09T09:28:25Z</time>
      </trkpt>
      <trkpt lat="44.16826" lon="6.3583">
        <ele>859.9</ele>
        <time>2018-08-09T09:28:26Z</time>
      </trkpt>
      <trkpt lat="44.16827" lon="6.35825">
        <ele>860</ele>
        <time>2018-08-09T09:28:27Z</time>
      </trkpt>
      <trkpt lat="44.16828" lon="6.3582">
        <ele>860</ele>
        <time>2018-08-09T09:28:28Z</time>
      </trkpt>
      <trkpt lat="44.16828" lon="6.35815">
        <ele>860</ele>
        <time>2018-08-09T09:28:29Z</time>
      </trkpt>
      <trkpt lat="44.16828" lon="6.3581">
        <ele>860</ele>
        <time>2018-08-09T09:28:30Z</time>
      </trkpt>
      <trkpt lat="44.16828" lon="6.35806">
        <ele>860</ele>
        <time>2018-08-09T09:28:31Z</time>
      </trkpt>
      <trkpt lat="44.16828" lon="6.35802">
        <ele>860</ele>
        <time>2018-08-09T09:28:32Z</time>
      </trkpt>
      <trkpt lat="44.16829" lon="6.35794">
        <ele>860</ele>
        <time>2018-08-09T09:28:34Z</time>
      </trkpt>
      <trkpt lat="44.16829" lon="6.3579">
        <ele>860</ele>
        <time>2018-08-09T09:28:35Z</time>
      </trkpt>
      <trkpt lat="44.1683" lon="6.35784">
        <ele>859.9</ele>
        <time>2018-08-09T09:28:37Z</time>
      </trkpt>
      <trkpt lat="44.1683" lon="6.35776">
        <ele>859.9</ele>
        <time>2018-08-09T09:28:39Z</time>
      </trkpt>
      <trkpt lat="44.16831" lon="6.35772">
        <ele>859.8</ele>
        <time>2018-08-09T09:28:40Z</time>
      </trkpt>
      <trkpt lat="44.16832" lon="6.35767">
        <ele>859.7</ele>
        <time>2018-08-09T09:28:42Z</time>
      </trkpt>
      <trkpt lat="44.16832" lon="6.35763">
        <ele>859.6</ele>
        <time>2018-08-09T09:28:43Z</time>
      </trkpt>
      <trkpt lat="44.16833" lon="6.3576">
        <ele>859.5</ele>
        <time>2018-08-09T09:28:44Z</time>
      </trkpt>
      <trkpt lat="44.16836" lon="6.35755">
        <ele>859.3</ele>
        <time>2018-08-09T09:28:46Z</time>
      </trkpt>
      <trkpt lat="44.1684" lon="6.3575">
        <ele>859.1</ele>
        <time>2018-08-09T09:28:48Z</time>
      </trkpt>
      <trkpt lat="44.16842" lon="6.35747">
        <ele>858.9</ele>
        <time>2018-08-09T09:28:49Z</time>
      </trkpt>
      <trkpt lat="44.16846" lon="6.35742">
        <ele>858.4</ele>
        <time>2018-08-09T09:28:51Z</time>
      </trkpt>
      <trkpt lat="44.16848" lon="6.35739">
        <ele>857.4</ele>
        <time>2018-08-09T09:28:52Z</time>
      </trkpt>
      <trkpt lat="44.1685" lon="6.35736">
        <ele>857</ele>
        <time>2018-08-09T09:28:53Z</time>
      </trkpt>
      <trkpt lat="44.16855" lon="6.35731">
        <ele>856.5</ele>
        <time>2018-08-09T09:28:55Z</time>
      </trkpt>
      <trkpt lat="44.16858" lon="6.35729">
        <ele>856.3</ele>
        <time>2018-08-09T09:28:56Z</time>
      </trkpt>
      <trkpt lat="44.16861" lon="6.35726">
        <ele>856.2</ele>
        <time>2018-08-09T09:28:57Z</time>
      </trkpt>
      <trkpt lat="44.16863" lon="6.35723">
        <ele>856.1</ele>
        <time>2018-08-09T09:28:58Z</time>
      </trkpt>
      <trkpt lat="44.16865" lon="6.35719">
        <ele>856</ele>
        <time>2018-08-09T09:28:59Z</time>
      </trkpt>
      <trkpt lat="44.16866" lon="6.35715">
        <ele>855.9</ele>
        <time>2018-08-09T09:29:00Z</time>
      </trkpt>
      <trkpt lat="44.16866" lon="6.35711">
        <ele>855.8</ele>
        <time>2018-08-09T09:29:01Z</time>
      </trkpt>
      <trkpt lat="44.16867" lon="6.35707">
        <ele>855.7</ele>
        <time>2018-08-09T09:29:02Z</time>
      </trkpt>
      <trkpt lat="44.16867" lon="6.35703">
        <ele>855.6</ele>
        <time>2018-08-09T09:29:03Z</time>
      </trkpt>
      <trkpt lat="44.16867" lon="6.35699">
        <ele>855.5</ele>
        <time>2018-08-09T09:29:04Z</time>
      </trkpt>
      <trkpt lat="44.16867" lon="6.35694">
        <ele>855.4</ele>
        <time>2018-08-09T09:29:05Z</time>
      </trkpt>
      <trkpt lat="44.16866" lon="6.35689">
        <ele>855.3</ele>
        <time>2018-08-09T09:29:06Z</time>
      </trkpt>
      <trkpt lat="44.16866" lon="6.35683">
        <ele>855.3</ele>
        <time>2018-08-09T09:29:07Z</time>
      </trkpt>
      <trkpt lat="44.16864" lon="6.35676">
        <ele>855.2</ele>
        <time>2018-08-09T09:29:08Z</time>
      </trkpt>
      <trkpt lat="44.16863" lon="6.35669">
        <ele>855</ele>
        <time>2018-08-09T09:29:09Z</time>
      </trkpt>
      <trkpt lat="44.16863" lon="6.35661">
        <ele>854.8</ele>
        <time>2018-08-09T09:29:10Z</time>
      </trkpt>
      <trkpt lat="44.16863" lon="6.35652">
        <ele>854.6</ele>
        <time>2018-08-09T09:29:11Z</time>
      </trkpt>
      <trkpt lat="44.16865" lon="6.35644">
        <ele>854.3</ele>
        <time>2018-08-09T09:29:12Z</time>
      </trkpt>
      <trkpt lat="44.16868" lon="6.35637">
        <ele>853.6</ele>
        <time>2018-08-09T09:29:13Z</time>
      </trkpt>
      <trkpt lat="44.1687" lon="6.35629">
        <ele>852.4</ele>
        <time>2018-08-09T09:29:14Z</time>
      </trkpt>
      <trkpt lat="44.16872" lon="6.35621">
        <ele>851.2</ele>
        <time>2018-08-09T09:29:15Z</time>
      </trkpt>
      <trkpt lat="44.16874" lon="6.35611">
        <ele>849.7</ele>
        <time>2018-08-09T09:29:16Z</time>
      </trkpt>
      <trkpt lat="44.16877" lon="6.356">
        <ele>848.5</ele>
        <time>2018-08-09T09:29:17Z</time>
      </trkpt>
      <trkpt lat="44.16878" lon="6.35588">
        <ele>847.7</ele>
        <time>2018-08-09T09:29:18Z</time>
      </trkpt>
      <trkpt lat="44.16878" lon="6.35576">
        <ele>846.9</ele>
        <time>2018-08-09T09:29:19Z</time>
      </trkpt>
      <trkpt lat="44.16878" lon="6.35564">
        <ele>845</ele>
        <time>2018-08-09T09:29:20Z</time>
      </trkpt>
      <trkpt lat="44.1688" lon="6.35553">
        <ele>844</ele>
        <time>2018-08-09T09:29:21Z</time>
      </trkpt>
      <trkpt lat="44.16881" lon="6.35541">
        <ele>842.3</ele>
        <time>2018-08-09T09:29:22Z</time>
      </trkpt>
      <trkpt lat="44.16886" lon="6.35532">
        <ele>840.9</ele>
        <time>2018-08-09T09:29:23Z</time>
      </trkpt>
      <trkpt lat="44.16889" lon="6.35522">
        <ele>839.7</ele>
        <time>2018-08-09T09:29:24Z</time>
      </trkpt>
      <trkpt lat="44.16893" lon="6.35511">
        <ele>838.1</ele>
        <time>2018-08-09T09:29:25Z</time>
      </trkpt>
      <trkpt lat="44.16897" lon="6.35501">
        <ele>837.5</ele>
        <time>2018-08-09T09:29:26Z</time>
      </trkpt>
      <trkpt lat="44.16901" lon="6.35492">
        <ele>837</ele>
        <time>2018-08-09T09:29:27Z</time>
      </trkpt>
      <trkpt lat="44.16905" lon="6.35483">
        <ele>836.6</ele>
        <time>2018-08-09T09:29:28Z</time>
      </trkpt>
      <trkpt lat="44.1691" lon="6.35477">
        <ele>835.6</ele>
        <time>2018-08-09T09:29:29Z</time>
      </trkpt>
      <trkpt lat="44.16918" lon="6.35474">
        <ele>834.3</ele>
        <time>2018-08-09T09:29:30Z</time>
      </trkpt>
      <trkpt lat="44.16924" lon="6.35469">
        <ele>833.5</ele>
        <time>2018-08-09T09:29:31Z</time>
      </trkpt>
      <trkpt lat="44.16929" lon="6.35462">
        <ele>833.1</ele>
        <time>2018-08-09T09:29:32Z</time>
      </trkpt>
      <trkpt lat="44.16934" lon="6.35455">
        <ele>832.7</ele>
        <time>2018-08-09T09:29:33Z</time>
      </trkpt>
      <trkpt lat="44.16938" lon="6.35447">
        <ele>832.4</ele>
        <time>2018-08-09T09:29:34Z</time>
      </trkpt>
      <trkpt lat="44.16942" lon="6.35441">
        <ele>832.2</ele>
        <time>2018-08-09T09:29:35Z</time>
      </trkpt>
      <trkpt lat="44.16947" lon="6.35436">
        <ele>831.8</ele>
        <time>2018-08-09T09:29:36Z</time>
      </trkpt>
      <trkpt lat="44.16952" lon="6.3543">
        <ele>831.4</ele>
        <time>2018-08-09T09:29:37Z</time>
      </trkpt>
      <trkpt lat="44.16956" lon="6.35425">
        <ele>830.9</ele>
        <time>2018-08-09T09:29:38Z</time>
      </trkpt>
      <trkpt lat="44.1696" lon="6.35419">
        <ele>830.2</ele>
        <time>2018-08-09T09:29:39Z</time>
      </trkpt>
      <trkpt lat="44.16963" lon="6.35411">
        <ele>829.6</ele>
        <time>2018-08-09T09:29:40Z</time>
      </trkpt>
      <trkpt lat="44.16966" lon="6.35404">
        <ele>829</ele>
        <time>2018-08-09T09:29:41Z</time>
      </trkpt>
      <trkpt lat="44.1697" lon="6.35397">
        <ele>828.7</ele>
        <time>2018-08-09T09:29:42Z</time>
      </trkpt>
      <trkpt lat="44.16974" lon="6.35391">
        <ele>828.4</ele>
        <time>2018-08-09T09:29:43Z</time>
      </trkpt>
      <trkpt lat="44.16977" lon="6.35385">
        <ele>828.1</ele>
        <time>2018-08-09T09:29:44Z</time>
      </trkpt>
      <trkpt lat="44.1698" lon="6.35379">
        <ele>828</ele>
        <time>2018-08-09T09:29:45Z</time>
      </trkpt>
      <trkpt lat="44.16983" lon="6.35372">
        <ele>827.8</ele>
        <time>2018-08-09T09:29:46Z</time>
      </trkpt>
      <trkpt lat="44.16985" lon="6.35365">
        <ele>827.6</ele>
        <time>2018-08-09T09:29:47Z</time>
      </trkpt>
      <trkpt lat="44.16986" lon="6.35357">
        <ele>827.5</ele>
        <time>2018-08-09T09:29:48Z</time>
      </trkpt>
      <trkpt lat="44.16987" lon="6.3535">
        <ele>827.4</ele>
        <time>2018-08-09T09:29:49Z</time>
      </trkpt>
      <trkpt lat="44.16988" lon="6.35344">
        <ele>827.2</ele>
        <time>2018-08-09T09:29:50Z</time>
      </trkpt>
      <trkpt lat="44.16989" lon="6.35338">
        <ele>827.1</ele>
        <time>2018-08-09T09:29:51Z</time>
      </trkpt>
      <trkpt lat="44.16991" lon="6.35331">
        <ele>826.9</ele>
        <time>2018-08-09T09:29:52Z</time>
      </trkpt>
      <trkpt lat="44.16993" lon="6.35325">
        <ele>826.8</ele>
        <time>2018-08-09T09:29:53Z</time>
      </trkpt>
      <trkpt lat="44.16995" lon="6.35318">
        <ele>826.7</ele>
        <time>2018-08-09T09:29:54Z</time>
      </trkpt>
      <trkpt lat="44.16997" lon="6.35312">
        <ele>826.6</ele>
        <time>2018-08-09T09:29:55Z</time>
      </trkpt>
      <trkpt lat="44.16998" lon="6.35305">
        <ele>826.5</ele>
        <time>2018-08-09T09:29:56Z</time>
      </trkpt>
      <trkpt lat="44.17" lon="6.35298">
        <ele>826.4</ele>
        <time>2018-08-09T09:29:57Z</time>
      </trkpt>
      <trkpt lat="44.17003" lon="6.35291">
        <ele>826.2</ele>
        <time>2018-08-09T09:29:58Z</time>
      </trkpt>
      <trkpt lat="44.17005" lon="6.35285">
        <ele>826</ele>
        <time>2018-08-09T09:29:59Z</time>
      </trkpt>
      <trkpt lat="44.17007" lon="6.35278">
        <ele>825.9</ele>
        <time>2018-08-09T09:30:00Z</time>
      </trkpt>
      <trkpt lat="44.17009" lon="6.35272">
        <ele>825.7</ele>
        <time>2018-08-09T09:30:01Z</time>
      </trkpt>
      <trkpt lat="44.17012" lon="6.35266">
        <ele>825.2</ele>
        <time>2018-08-09T09:30:02Z</time>
      </trkpt>
      <trkpt lat="44.17014" lon="6.3526">
        <ele>824.6</ele>
        <time>2018-08-09T09:30:03Z</time>
      </trkpt>
      <trkpt lat="44.17017" lon="6.35253">
        <ele>824.1</ele>
        <time>2018-08-09T09:30:04Z</time>
      </trkpt>
      <trkpt lat="44.1702" lon="6.35246">
        <ele>823.7</ele>
        <time>2018-08-09T09:30:05Z</time>
      </trkpt>
      <trkpt lat="44.17023" lon="6.35239">
        <ele>823.3</ele>
        <time>2018-08-09T09:30:06Z</time>
      </trkpt>
      <trkpt lat="44.17025" lon="6.35232">
        <ele>823</ele>
        <time>2018-08-09T09:30:07Z</time>
      </trkpt>
      <trkpt lat="44.17027" lon="6.35225">
        <ele>822.8</ele>
        <time>2018-08-09T09:30:08Z</time>
      </trkpt>
      <trkpt lat="44.17028" lon="6.35218">
        <ele>822.5</ele>
        <time>2018-08-09T09:30:09Z</time>
      </trkpt>
      <trkpt lat="44.17029" lon="6.35211">
        <ele>822.3</ele>
        <time>2018-08-09T09:30:10Z</time>
      </trkpt>
      <trkpt lat="44.17028" lon="6.35204">
        <ele>822.2</ele>
        <time>2018-08-09T09:30:11Z</time>
      </trkpt>
      <trkpt lat="44.17027" lon="6.35197">
        <ele>822.1</ele>
        <time>2018-08-09T09:30:12Z</time>
      </trkpt>
      <trkpt lat="44.17025" lon="6.35191">
        <ele>822</ele>
        <time>2018-08-09T09:30:13Z</time>
      </trkpt>
      <trkpt lat="44.17024" lon="6.35184">
        <ele>821.9</ele>
        <time>2018-08-09T09:30:14Z</time>
      </trkpt>
      <trkpt lat="44.17022" lon="6.35178">
        <ele>821.8</ele>
        <time>2018-08-09T09:30:15Z</time>
      </trkpt>
      <trkpt lat="44.17021" lon="6.35171">
        <ele>821.7</ele>
        <time>2018-08-09T09:30:16Z</time>
      </trkpt>
      <trkpt lat="44.1702" lon="6.35164">
        <ele>821.6</ele>
        <time>2018-08-09T09:30:17Z</time>
      </trkpt>
      <trkpt lat="44.17019" lon="6.35158">
        <ele>821.5</ele>
        <time>2018-08-09T09:30:18Z</time>
      </trkpt>
      <trkpt lat="44.17019" lon="6.35151">
        <ele>821.5</ele>
        <time>2018-08-09T09:30:19Z</time>
      </trkpt>
      <trkpt lat="44.17019" lon="6.35145">
        <ele>821.4</ele>
        <time>2018-08-09T09:30:20Z</time>
      </trkpt>
      <trkpt lat="44.17018" lon="6.35138">
        <ele>821.4</ele>
        <time>2018-08-09T09:30:21Z</time>
      </trkpt>
      <trkpt lat="44.17018" lon="6.35131">
        <ele>821.3</ele>
        <time>2018-08-09T09:30:22Z</time>
      </trkpt>
      <trkpt lat="44.17018" lon="6.35125">
        <ele>821.2</ele>
        <time>2018-08-09T09:30:23Z</time>
      </trkpt>
      <trkpt lat="44.17019" lon="6.35118">
        <ele>821.1</ele>
        <time>2018-08-09T09:30:24Z</time>
      </trkpt>
      <trkpt lat="44.17021" lon="6.35112">
        <ele>821.1</ele>
        <time>2018-08-09T09:30:25Z</time>
      </trkpt>
      <trkpt lat="44.17022" lon="6.35105">
        <ele>821</ele>
        <time>2018-08-09T09:30:26Z</time>
      </trkpt>
      <trkpt lat="44.17024" lon="6.351">
        <ele>820.9</ele>
        <time>2018-08-09T09:30:27Z</time>
      </trkpt>
      <trkpt lat="44.17026" lon="6.35095">
        <ele>820.7</ele>
        <time>2018-08-09T09:30:28Z</time>
      </trkpt>
      <trkpt lat="44.17029" lon="6.35092">
        <ele>820.6</ele>
        <time>2018-08-09T09:30:29Z</time>
      </trkpt>
      <trkpt lat="44.17032" lon="6.3509">
        <ele>820.5</ele>
        <time>2018-08-09T09:30:30Z</time>
      </trkpt>
      <trkpt lat="44.17035" lon="6.35088">
        <ele>820.4</ele>
        <time>2018-08-09T09:30:31Z</time>
      </trkpt>
      <trkpt lat="44.17039" lon="6.35087">
        <ele>820.3</ele>
        <time>2018-08-09T09:30:32Z</time>
      </trkpt>
      <trkpt lat="44.17043" lon="6.35085">
        <ele>820.2</ele>
        <time>2018-08-09T09:30:33Z</time>
      </trkpt>
      <trkpt lat="44.17047" lon="6.35083">
        <ele>820.1</ele>
        <time>2018-08-09T09:30:34Z</time>
      </trkpt>
      <trkpt lat="44.17051" lon="6.3508">
        <ele>820</ele>
        <time>2018-08-09T09:30:35Z</time>
      </trkpt>
      <trkpt lat="44.17054" lon="6.35077">
        <ele>819.9</ele>
        <time>2018-08-09T09:30:36Z</time>
      </trkpt>
      <trkpt lat="44.17057" lon="6.35072">
        <ele>819.8</ele>
        <time>2018-08-09T09:30:37Z</time>
      </trkpt>
      <trkpt lat="44.17059" lon="6.35068">
        <ele>819.7</ele>
        <time>2018-08-09T09:30:38Z</time>
      </trkpt>
      <trkpt lat="44.17062" lon="6.35065">
        <ele>819.6</ele>
        <time>2018-08-09T09:30:39Z</time>
      </trkpt>
      <trkpt lat="44.17065" lon="6.35061">
        <ele>819.5</ele>
        <time>2018-08-09T09:30:40Z</time>
      </trkpt>
      <trkpt lat="44.17067" lon="6.35057">
        <ele>819.4</ele>
        <time>2018-08-09T09:30:41Z</time>
      </trkpt>
      <trkpt lat="44.1707" lon="6.35053">
        <ele>819.3</ele>
        <time>2018-08-09T09:30:42Z</time>
      </trkpt>
      <trkpt lat="44.17074" lon="6.3505">
        <ele>819.2</ele>
        <time>2018-08-09T09:30:43Z</time>
      </trkpt>
      <trkpt lat="44.17078" lon="6.35046">
        <ele>819</ele>
        <time>2018-08-09T09:30:44Z</time>
      </trkpt>
      <trkpt lat="44.17082" lon="6.35043">
        <ele>818.9</ele>
        <time>2018-08-09T09:30:45Z</time>
      </trkpt>
      <trkpt lat="44.17086" lon="6.3504">
        <ele>818.7</ele>
        <time>2018-08-09T09:30:46Z</time>
      </trkpt>
      <trkpt lat="44.17091" lon="6.35035">
        <ele>818.6</ele>
        <time>2018-08-09T09:30:47Z</time>
      </trkpt>
      <trkpt lat="44.17095" lon="6.35031">
        <ele>818.4</ele>
        <time>2018-08-09T09:30:48Z</time>
      </trkpt>
      <trkpt lat="44.17099" lon="6.35027">
        <ele>818.3</ele>
        <time>2018-08-09T09:30:49Z</time>
      </trkpt>
      <trkpt lat="44.17102" lon="6.35021">
        <ele>818.2</ele>
        <time>2018-08-09T09:30:50Z</time>
      </trkpt>
      <trkpt lat="44.17105" lon="6.35016">
        <ele>818.1</ele>
        <time>2018-08-09T09:30:51Z</time>
      </trkpt>
      <trkpt lat="44.17108" lon="6.3501">
        <ele>818</ele>
        <time>2018-08-09T09:30:52Z</time>
      </trkpt>
      <trkpt lat="44.17111" lon="6.35005">
        <ele>818</ele>
        <time>2018-08-09T09:30:53Z</time>
      </trkpt>
      <trkpt lat="44.17113" lon="6.35">
        <ele>818</ele>
        <time>2018-08-09T09:30:54Z</time>
      </trkpt>
      <trkpt lat="44.17116" lon="6.34996">
        <ele>818</ele>
        <time>2018-08-09T09:30:55Z</time>
      </trkpt>
      <trkpt lat="44.17118" lon="6.34992">
        <ele>818</ele>
        <time>2018-08-09T09:30:56Z</time>
      </trkpt>
      <trkpt lat="44.1712" lon="6.34988">
        <ele>818</ele>
        <time>2018-08-09T09:30:57Z</time>
      </trkpt>
      <trkpt lat="44.17122" lon="6.34983">
        <ele>818</ele>
        <time>2018-08-09T09:30:58Z</time>
      </trkpt>
      <trkpt lat="44.17123" lon="6.3498">
        <ele>818</ele>
        <time>2018-08-09T09:30:59Z</time>
      </trkpt>
      <trkpt lat="44.17124" lon="6.34976">
        <ele>818</ele>
        <time>2018-08-09T09:31:00Z</time>
      </trkpt>
      <trkpt lat="44.17126" lon="6.34972">
        <ele>818</ele>
        <time>2018-08-09T09:31:01Z</time>
      </trkpt>
      <trkpt lat="44.17128" lon="6.34969">
        <ele>818</ele>
        <time>2018-08-09T09:31:02Z</time>
      </trkpt>
      <trkpt lat="44.17133" lon="6.34966">
        <ele>817.8</ele>
        <time>2018-08-09T09:31:04Z</time>
      </trkpt>
      <trkpt lat="44.17136" lon="6.34968">
        <ele>817.6</ele>
        <time>2018-08-09T09:31:05Z</time>
      </trkpt>
      <trkpt lat="44.17139" lon="6.3497">
        <ele>817.4</ele>
        <time>2018-08-09T09:31:06Z</time>
      </trkpt>
      <trkpt lat="44.17141" lon="6.34973">
        <ele>817.3</ele>
        <time>2018-08-09T09:31:07Z</time>
      </trkpt>
      <trkpt lat="44.17143" lon="6.34975">
        <ele>817.1</ele>
        <time>2018-08-09T09:31:08Z</time>
      </trkpt>
      <trkpt lat="44.17146" lon="6.34978">
        <ele>817</ele>
        <time>2018-08-09T09:31:09Z</time>
      </trkpt>
      <trkpt lat="44.1715" lon="6.34983">
        <ele>816.7</ele>
        <time>2018-08-09T09:31:11Z</time>
      </trkpt>
      <trkpt lat="44.17154" lon="6.34986">
        <ele>816.4</ele>
        <time>2018-08-09T09:31:13Z</time>
      </trkpt>
      <trkpt lat="44.17158" lon="6.34989">
        <ele>816.2</ele>
        <time>2018-08-09T09:31:15Z</time>
      </trkpt>
      <trkpt lat="44.17161" lon="6.34991">
        <ele>816</ele>
        <time>2018-08-09T09:31:16Z</time>
      </trkpt>
      <trkpt lat="44.17164" lon="6.34993">
        <ele>815.7</ele>
        <time>2018-08-09T09:31:18Z</time>
      </trkpt>
      <trkpt lat="44.17167" lon="6.34992">
        <ele>815.4</ele>
        <time>2018-08-09T09:31:53Z</time>
      </trkpt>
      <trkpt lat="44.17168" lon="6.34988">
        <ele>815.4</ele>
        <time>2018-08-09T09:31:55Z</time>
      </trkpt>
      <trkpt lat="44.17168" lon="6.34984">
        <ele>815.5</ele>
        <time>2018-08-09T09:31:58Z</time>
      </trkpt>
      <trkpt lat="44.17167" lon="6.34988">
        <ele>815.6</ele>
        <time>2018-08-09T09:32:08Z</time>
      </trkpt>
      <trkpt lat="44.17165" lon="6.34991">
        <ele>815.6</ele>
        <time>2018-08-09T09:32:12Z</time>
      </trkpt>
      <trkpt lat="44.17164" lon="6.34988">
        <ele>815.8</ele>
        <time>2018-08-09T09:32:29Z</time>
      </trkpt>
      <trkpt lat="44.1717" lon="6.34995">
        <ele>815</ele>
        <time>2018-08-09T09:34:04Z</time>
      </trkpt>
      <trkpt lat="44.17173" lon="6.34997">
        <ele>814.7</ele>
        <time>2018-08-09T09:34:05Z</time>
      </trkpt>
      <trkpt lat="44.17176" lon="6.35">
        <ele>814.2</ele>
        <time>2018-08-09T09:34:06Z</time>
      </trkpt>
      <trkpt lat="44.1718" lon="6.35002">
        <ele>813.7</ele>
        <time>2018-08-09T09:34:07Z</time>
      </trkpt>
      <trkpt lat="44.17184" lon="6.35006">
        <ele>813.3</ele>
        <time>2018-08-09T09:34:08Z</time>
      </trkpt>
      <trkpt lat="44.17188" lon="6.35009">
        <ele>812.8</ele>
        <time>2018-08-09T09:34:09Z</time>
      </trkpt>
      <trkpt lat="44.17193" lon="6.35013">
        <ele>811.9</ele>
        <time>2018-08-09T09:34:10Z</time>
      </trkpt>
      <trkpt lat="44.17196" lon="6.35015">
        <ele>811.1</ele>
        <time>2018-08-09T09:34:11Z</time>
      </trkpt>
      <trkpt lat="44.17199" lon="6.35017">
        <ele>809.9</ele>
        <time>2018-08-09T09:34:12Z</time>
      </trkpt>
      <trkpt lat="44.17204" lon="6.35021">
        <ele>808.1</ele>
        <time>2018-08-09T09:34:13Z</time>
      </trkpt>
      <trkpt lat="44.17209" lon="6.35023">
        <ele>806.3</ele>
        <time>2018-08-09T09:34:14Z</time>
      </trkpt>
      <trkpt lat="44.17214" lon="6.35027">
        <ele>804.1</ele>
        <time>2018-08-09T09:34:15Z</time>
      </trkpt>
      <trkpt lat="44.17219" lon="6.3503">
        <ele>803.8</ele>
        <time>2018-08-09T09:34:16Z</time>
      </trkpt>
      <trkpt lat="44.17225" lon="6.35034">
        <ele>803.6</ele>
        <time>2018-08-09T09:34:17Z</time>
      </trkpt>
      <trkpt lat="44.17232" lon="6.35038">
        <ele>803.4</ele>
        <time>2018-08-09T09:34:18Z</time>
      </trkpt>
      <trkpt lat="44.17239" lon="6.35043">
        <ele>803.2</ele>
        <time>2018-08-09T09:34:19Z</time>
      </trkpt>
      <trkpt lat="44.17245" lon="6.35046">
        <ele>803</ele>
        <time>2018-08-09T09:34:20Z</time>
      </trkpt>
      <trkpt lat="44.17252" lon="6.3505">
        <ele>802.8</ele>
        <time>2018-08-09T09:34:21Z</time>
      </trkpt>
      <trkpt lat="44.17259" lon="6.35054">
        <ele>802.6</ele>
        <time>2018-08-09T09:34:22Z</time>
      </trkpt>
      <trkpt lat="44.17266" lon="6.35058">
        <ele>802.5</ele>
        <time>2018-08-09T09:34:23Z</time>
      </trkpt>
      <trkpt lat="44.17274" lon="6.35061">
        <ele>802.3</ele>
        <time>2018-08-09T09:34:24Z</time>
      </trkpt>
      <trkpt lat="44.17282" lon="6.35065">
        <ele>802.2</ele>
        <time>2018-08-09T09:34:25Z</time>
      </trkpt>
      <trkpt lat="44.17289" lon="6.35067">
        <ele>802.1</ele>
        <time>2018-08-09T09:34:26Z</time>
      </trkpt>
      <trkpt lat="44.17296" lon="6.35069">
        <ele>802</ele>
        <time>2018-08-09T09:34:27Z</time>
      </trkpt>
      <trkpt lat="44.17301" lon="6.35072">
        <ele>801.9</ele>
        <time>2018-08-09T09:34:28Z</time>
      </trkpt>
      <trkpt lat="44.17305" lon="6.35073">
        <ele>801.8</ele>
        <time>2018-08-09T09:34:29Z</time>
      </trkpt>
      <trkpt lat="44.17308" lon="6.35072">
        <ele>801.8</ele>
        <time>2018-08-09T09:34:31Z</time>
      </trkpt>
      <trkpt lat="44.17311" lon="6.35075">
        <ele>801.7</ele>
        <time>2018-08-09T09:34:38Z</time>
      </trkpt>
      <trkpt lat="44.17314" lon="6.35076">
        <ele>801.7</ele>
        <time>2018-08-09T09:34:45Z</time>
      </trkpt>
      <trkpt lat="44.17312" lon="6.35078">
        <ele>801.7</ele>
        <time>2018-08-09T09:35:03Z</time>
      </trkpt>
      <trkpt lat="44.17313" lon="6.35074">
        <ele>801.7</ele>
        <time>2018-08-09T09:35:12Z</time>
      </trkpt>
      <trkpt lat="44.17317" lon="6.35076">
        <ele>801.6</ele>
        <time>2018-08-09T09:35:14Z</time>
      </trkpt>
      <trkpt lat="44.1732" lon="6.35077">
        <ele>801.6</ele>
        <time>2018-08-09T09:35:15Z</time>
      </trkpt>
      <trkpt lat="44.17324" lon="6.35077">
        <ele>801.6</ele>
        <time>2018-08-09T09:35:16Z</time>
      </trkpt>
      <trkpt lat="44.17327" lon="6.35078">
        <ele>801.6</ele>
        <time>2018-08-09T09:35:17Z</time>
      </trkpt>
      <trkpt lat="44.1733" lon="6.35079">
        <ele>801.6</ele>
        <time>2018-08-09T09:35:18Z</time>
      </trkpt>
      <trkpt lat="44.17334" lon="6.3508">
        <ele>801.5</ele>
        <time>2018-08-09T09:35:19Z</time>
      </trkpt>
      <trkpt lat="44.17338" lon="6.35082">
        <ele>801.5</ele>
        <time>2018-08-09T09:35:20Z</time>
      </trkpt>
      <trkpt lat="44.17341" lon="6.35083">
        <ele>801.5</ele>
        <time>2018-08-09T09:35:21Z</time>
      </trkpt>
      <trkpt lat="44.17345" lon="6.35084">
        <ele>801.5</ele>
        <time>2018-08-09T09:35:22Z</time>
      </trkpt>
      <trkpt lat="44.17349" lon="6.35086">
        <ele>801.5</ele>
        <time>2018-08-09T09:35:23Z</time>
      </trkpt>
      <trkpt lat="44.17351" lon="6.35087">
        <ele>801.4</ele>
        <time>2018-08-09T09:35:24Z</time>
      </trkpt>
      <trkpt lat="44.17355" lon="6.35087">
        <ele>801.4</ele>
        <time>2018-08-09T09:35:25Z</time>
      </trkpt>
      <trkpt lat="44.17359" lon="6.35088">
        <ele>801.4</ele>
        <time>2018-08-09T09:35:26Z</time>
      </trkpt>
      <trkpt lat="44.17364" lon="6.3509">
        <ele>801.4</ele>
        <time>2018-08-09T09:35:28Z</time>
      </trkpt>
      <trkpt lat="44.17368" lon="6.3509">
        <ele>801.3</ele>
        <time>2018-08-09T09:35:29Z</time>
      </trkpt>
      <trkpt lat="44.17371" lon="6.35093">
        <ele>801.3</ele>
        <time>2018-08-09T09:35:30Z</time>
      </trkpt>
      <trkpt lat="44.17375" lon="6.35094">
        <ele>801.3</ele>
        <time>2018-08-09T09:35:31Z</time>
      </trkpt>
      <trkpt lat="44.17378" lon="6.35097">
        <ele>801.2</ele>
        <time>2018-08-09T09:35:32Z</time>
      </trkpt>
      <trkpt lat="44.1738" lon="6.35099">
        <ele>801.2</ele>
        <time>2018-08-09T09:35:33Z</time>
      </trkpt>
      <trkpt lat="44.17383" lon="6.35102">
        <ele>801.2</ele>
        <time>2018-08-09T09:35:34Z</time>
      </trkpt>
      <trkpt lat="44.17385" lon="6.35105">
        <ele>801.2</ele>
        <time>2018-08-09T09:35:35Z</time>
      </trkpt>
      <trkpt lat="44.17386" lon="6.35113">
        <ele>801.1</ele>
        <time>2018-08-09T09:35:37Z</time>
      </trkpt>
      <trkpt lat="44.17388" lon="6.35115">
        <ele>801.1</ele>
        <time>2018-08-09T09:35:39Z</time>
      </trkpt>
      <trkpt lat="44.17391" lon="6.35116">
        <ele>801</ele>
        <time>2018-08-09T09:51:37Z</time>
      </trkpt>
      <trkpt lat="44.17396" lon="6.35115">
        <ele>801</ele>
        <time>2018-08-09T09:51:39Z</time>
      </trkpt>
      <trkpt lat="44.17401" lon="6.35113">
        <ele>801</ele>
        <time>2018-08-09T09:51:41Z</time>
      </trkpt>
      <trkpt lat="44.17404" lon="6.35112">
        <ele>801</ele>
        <time>2018-08-09T09:51:42Z</time>
      </trkpt>
      <trkpt lat="44.17406" lon="6.35108">
        <ele>801</ele>
        <time>2018-08-09T09:51:43Z</time>
      </trkpt>
      <trkpt lat="44.17408" lon="6.35106">
        <ele>801.1</ele>
        <time>2018-08-09T09:51:44Z</time>
      </trkpt>
      <trkpt lat="44.17411" lon="6.35103">
        <ele>801.2</ele>
        <time>2018-08-09T09:51:45Z</time>
      </trkpt>
      <trkpt lat="44.17414" lon="6.35101">
        <ele>801.2</ele>
        <time>2018-08-09T09:51:46Z</time>
      </trkpt>
      <trkpt lat="44.17418" lon="6.35097">
        <ele>801.4</ele>
        <time>2018-08-09T09:51:48Z</time>
      </trkpt>
      <trkpt lat="44.17421" lon="6.35095">
        <ele>801.5</ele>
        <time>2018-08-09T09:51:49Z</time>
      </trkpt>
      <trkpt lat="44.17423" lon="6.35093">
        <ele>801.5</ele>
        <time>2018-08-09T09:51:50Z</time>
      </trkpt>
      <trkpt lat="44.17425" lon="6.3509">
        <ele>801.6</ele>
        <time>2018-08-09T09:51:51Z</time>
      </trkpt>
      <trkpt lat="44.17427" lon="6.35087">
        <ele>801.7</ele>
        <time>2018-08-09T09:51:52Z</time>
      </trkpt>
      <trkpt lat="44.17431" lon="6.35082">
        <ele>801.8</ele>
        <time>2018-08-09T09:51:54Z</time>
      </trkpt>
      <trkpt lat="44.17433" lon="6.35075">
        <ele>802</ele>
        <time>2018-08-09T09:51:56Z</time>
      </trkpt>
      <trkpt lat="44.17437" lon="6.35073">
        <ele>802</ele>
        <time>2018-08-09T09:51:58Z</time>
      </trkpt>
      <trkpt lat="44.17439" lon="6.35069">
        <ele>802</ele>
        <time>2018-08-09T09:52:00Z</time>
      </trkpt>
      <trkpt lat="44.17444" lon="6.35068">
        <ele>802.1</ele>
        <time>2018-08-09T09:52:02Z</time>
      </trkpt>
      <trkpt lat="44.17446" lon="6.35071">
        <ele>802.4</ele>
        <time>2018-08-09T09:52:03Z</time>
      </trkpt>
      <trkpt lat="44.17449" lon="6.35076">
        <ele>802.8</ele>
        <time>2018-08-09T09:52:05Z</time>
      </trkpt>
      <trkpt lat="44.17452" lon="6.35082">
        <ele>803.3</ele>
        <time>2018-08-09T09:52:07Z</time>
      </trkpt>
      <trkpt lat="44.17455" lon="6.35088">
        <ele>803.9</ele>
        <time>2018-08-09T09:52:09Z</time>
      </trkpt>
      <trkpt lat="44.17458" lon="6.35091">
        <ele>804</ele>
        <time>2018-08-09T09:52:10Z</time>
      </trkpt>
      <trkpt lat="44.1746" lon="6.35095">
        <ele>804</ele>
        <time>2018-08-09T09:52:11Z</time>
      </trkpt>
      <trkpt lat="44.17463" lon="6.35101">
        <ele>804</ele>
        <time>2018-08-09T09:52:13Z</time>
      </trkpt>
      <trkpt lat="44.17467" lon="6.35107">
        <ele>804</ele>
        <time>2018-08-09T09:52:15Z</time>
      </trkpt>
      <trkpt lat="44.17468" lon="6.3511">
        <ele>804</ele>
        <time>2018-08-09T09:52:16Z</time>
      </trkpt>
      <trkpt lat="44.1747" lon="6.35113">
        <ele>804</ele>
        <time>2018-08-09T09:52:17Z</time>
      </trkpt>
      <trkpt lat="44.17474" lon="6.35118">
        <ele>804</ele>
        <time>2018-08-09T09:52:19Z</time>
      </trkpt>
      <trkpt lat="44.17476" lon="6.35121">
        <ele>804</ele>
        <time>2018-08-09T09:52:20Z</time>
      </trkpt>
      <trkpt lat="44.17481" lon="6.35129">
        <ele>804</ele>
        <time>2018-08-09T09:52:23Z</time>
      </trkpt>
      <trkpt lat="44.17484" lon="6.35133">
        <ele>804</ele>
        <time>2018-08-09T09:52:24Z</time>
      </trkpt>
      <trkpt lat="44.17486" lon="6.35137">
        <ele>804</ele>
        <time>2018-08-09T09:52:25Z</time>
      </trkpt>
      <trkpt lat="44.17487" lon="6.35141">
        <ele>804</ele>
        <time>2018-08-09T09:52:26Z</time>
      </trkpt>
      <trkpt lat="44.17489" lon="6.35144">
        <ele>804</ele>
        <time>2018-08-09T09:52:27Z</time>
      </trkpt>
      <trkpt lat="44.17492" lon="6.3515">
        <ele>804</ele>
        <time>2018-08-09T09:52:29Z</time>
      </trkpt>
      <trkpt lat="44.17496" lon="6.35152">
        <ele>804.1</ele>
        <time>2018-08-09T09:52:31Z</time>
      </trkpt>
      <trkpt lat="44.17498" lon="6.35152">
        <ele>804.2</ele>
        <time>2018-08-09T09:52:33Z</time>
      </trkpt>
      <trkpt lat="44.17502" lon="6.35149">
        <ele>803.6</ele>
        <time>2018-08-09T09:52:35Z</time>
      </trkpt>
      <trkpt lat="44.17504" lon="6.35143">
        <ele>803.5</ele>
        <time>2018-08-09T09:52:37Z</time>
      </trkpt>
      <trkpt lat="44.17505" lon="6.35139">
        <ele>803.4</ele>
        <time>2018-08-09T09:52:38Z</time>
      </trkpt>
      <trkpt lat="44.17505" lon="6.35135">
        <ele>803.4</ele>
        <time>2018-08-09T09:52:39Z</time>
      </trkpt>
      <trkpt lat="44.17505" lon="6.35131">
        <ele>803.3</ele>
        <time>2018-08-09T09:52:40Z</time>
      </trkpt>
      <trkpt lat="44.17505" lon="6.35126">
        <ele>803.2</ele>
        <time>2018-08-09T09:52:41Z</time>
      </trkpt>
      <trkpt lat="44.17505" lon="6.35122">
        <ele>803.1</ele>
        <time>2018-08-09T09:52:42Z</time>
      </trkpt>
      <trkpt lat="44.17505" lon="6.35117">
        <ele>803</ele>
        <time>2018-08-09T09:52:43Z</time>
      </trkpt>
      <trkpt lat="44.17504" lon="6.35112">
        <ele>803</ele>
        <time>2018-08-09T09:52:44Z</time>
      </trkpt>
      <trkpt lat="44.17503" lon="6.35107">
        <ele>802.9</ele>
        <time>2018-08-09T09:52:45Z</time>
      </trkpt>
      <trkpt lat="44.17503" lon="6.35102">
        <ele>802.8</ele>
        <time>2018-08-09T09:52:46Z</time>
      </trkpt>
      <trkpt lat="44.17501" lon="6.35096">
        <ele>802.7</ele>
        <time>2018-08-09T09:52:47Z</time>
      </trkpt>
      <trkpt lat="44.17501" lon="6.35091">
        <ele>802.6</ele>
        <time>2018-08-09T09:52:48Z</time>
      </trkpt>
      <trkpt lat="44.17501" lon="6.35085">
        <ele>802.4</ele>
        <time>2018-08-09T09:52:49Z</time>
      </trkpt>
      <trkpt lat="44.17501" lon="6.3508">
        <ele>802.3</ele>
        <time>2018-08-09T09:52:50Z</time>
      </trkpt>
      <trkpt lat="44.17501" lon="6.35075">
        <ele>802.2</ele>
        <time>2018-08-09T09:52:51Z</time>
      </trkpt>
      <trkpt lat="44.175" lon="6.35069">
        <ele>802</ele>
        <time>2018-08-09T09:52:52Z</time>
      </trkpt>
      <trkpt lat="44.17501" lon="6.35065">
        <ele>802</ele>
        <time>2018-08-09T09:52:54Z</time>
      </trkpt>
      <trkpt lat="44.17504" lon="6.35063">
        <ele>802</ele>
        <time>2018-08-09T09:52:56Z</time>
      </trkpt>
      <trkpt lat="44.17509" lon="6.3506">
        <ele>802</ele>
        <time>2018-08-09T09:52:58Z</time>
      </trkpt>
      <trkpt lat="44.17512" lon="6.35056">
        <ele>802</ele>
        <time>2018-08-09T09:52:59Z</time>
      </trkpt>
      <trkpt lat="44.17514" lon="6.35054">
        <ele>802</ele>
        <time>2018-08-09T09:53:00Z</time>
      </trkpt>
      <trkpt lat="44.1752" lon="6.35049">
        <ele>802</ele>
        <time>2018-08-09T09:53:02Z</time>
      </trkpt>
      <trkpt lat="44.17523" lon="6.35047">
        <ele>802</ele>
        <time>2018-08-09T09:53:03Z</time>
      </trkpt>
      <trkpt lat="44.17526" lon="6.35044">
        <ele>802</ele>
        <time>2018-08-09T09:53:04Z</time>
      </trkpt>
      <trkpt lat="44.17529" lon="6.35042">
        <ele>802</ele>
        <time>2018-08-09T09:53:05Z</time>
      </trkpt>
      <trkpt lat="44.17531" lon="6.35041">
        <ele>802</ele>
        <time>2018-08-09T09:53:06Z</time>
      </trkpt>
      <trkpt lat="44.17534" lon="6.35039">
        <ele>802</ele>
        <time>2018-08-09T09:53:07Z</time>
      </trkpt>
      <trkpt lat="44.17537" lon="6.35035">
        <ele>802</ele>
        <time>2018-08-09T09:53:09Z</time>
      </trkpt>
      <trkpt lat="44.17537" lon="6.35028">
        <ele>801.2</ele>
        <time>2018-08-09T09:53:11Z</time>
      </trkpt>
      <trkpt lat="44.17536" lon="6.35023">
        <ele>801.2</ele>
        <time>2018-08-09T09:53:12Z</time>
      </trkpt>
      <trkpt lat="44.17534" lon="6.35018">
        <ele>801.1</ele>
        <time>2018-08-09T09:53:13Z</time>
      </trkpt>
      <trkpt lat="44.17533" lon="6.35014">
        <ele>801</ele>
        <time>2018-08-09T09:53:14Z</time>
      </trkpt>
      <trkpt lat="44.17532" lon="6.35009">
        <ele>800.9</ele>
        <time>2018-08-09T09:53:15Z</time>
      </trkpt>
      <trkpt lat="44.1753" lon="6.35004">
        <ele>800.9</ele>
        <time>2018-08-09T09:53:16Z</time>
      </trkpt>
      <trkpt lat="44.17529" lon="6.34999">
        <ele>800.8</ele>
        <time>2018-08-09T09:53:17Z</time>
      </trkpt>
      <trkpt lat="44.17528" lon="6.34994">
        <ele>800.7</ele>
        <time>2018-08-09T09:53:18Z</time>
      </trkpt>
      <trkpt lat="44.17526" lon="6.34991">
        <ele>800.6</ele>
        <time>2018-08-09T09:53:19Z</time>
      </trkpt>
      <trkpt lat="44.17526" lon="6.34985">
        <ele>800.6</ele>
        <time>2018-08-09T09:53:21Z</time>
      </trkpt>
      <trkpt lat="44.17524" lon="6.34982">
        <ele>800.5</ele>
        <time>2018-08-09T09:53:23Z</time>
      </trkpt>
      <trkpt lat="44.17522" lon="6.34978">
        <ele>800.5</ele>
        <time>2018-08-09T09:53:48Z</time>
      </trkpt>
      <trkpt lat="44.17524" lon="6.34976">
        <ele>800.4</ele>
        <time>2018-08-09T09:54:03Z</time>
      </trkpt>
      <trkpt lat="44.17527" lon="6.34973">
        <ele>800.3</ele>
        <time>2018-08-09T09:54:05Z</time>
      </trkpt>
      <trkpt lat="44.17531" lon="6.34968">
        <ele>800.2</ele>
        <time>2018-08-09T09:54:07Z</time>
      </trkpt>
      <trkpt lat="44.17534" lon="6.34964">
        <ele>800.2</ele>
        <time>2018-08-09T09:54:09Z</time>
      </trkpt>
      <trkpt lat="44.17536" lon="6.34961">
        <ele>800.1</ele>
        <time>2018-08-09T09:54:10Z</time>
      </trkpt>
      <trkpt lat="44.1754" lon="6.34959">
        <ele>800</ele>
        <time>2018-08-09T09:54:12Z</time>
      </trkpt>
      <trkpt lat="44.17546" lon="6.34955">
        <ele>800</ele>
        <time>2018-08-09T09:54:14Z</time>
      </trkpt>
      <trkpt lat="44.17549" lon="6.34954">
        <ele>800</ele>
        <time>2018-08-09T09:54:15Z</time>
      </trkpt>
      <trkpt lat="44.17552" lon="6.34952">
        <ele>800</ele>
        <time>2018-08-09T09:54:16Z</time>
      </trkpt>
      <trkpt lat="44.17556" lon="6.34949">
        <ele>800</ele>
        <time>2018-08-09T09:54:17Z</time>
      </trkpt>
      <trkpt lat="44.17559" lon="6.34947">
        <ele>800</ele>
        <time>2018-08-09T09:54:18Z</time>
      </trkpt>
      <trkpt lat="44.17563" lon="6.34945">
        <ele>800</ele>
        <time>2018-08-09T09:54:19Z</time>
      </trkpt>
      <trkpt lat="44.17568" lon="6.34942">
        <ele>800</ele>
        <time>2018-08-09T09:54:20Z</time>
      </trkpt>
      <trkpt lat="44.17572" lon="6.34939">
        <ele>800</ele>
        <time>2018-08-09T09:54:21Z</time>
      </trkpt>
      <trkpt lat="44.17577" lon="6.34937">
        <ele>800</ele>
        <time>2018-08-09T09:54:22Z</time>
      </trkpt>
      <trkpt lat="44.17581" lon="6.34935">
        <ele>800</ele>
        <time>2018-08-09T09:54:23Z</time>
      </trkpt>
      <trkpt lat="44.17585" lon="6.34932">
        <ele>800</ele>
        <time>2018-08-09T09:54:24Z</time>
      </trkpt>
      <trkpt lat="44.17589" lon="6.34928">
        <ele>800</ele>
        <time>2018-08-09T09:54:25Z</time>
      </trkpt>
      <trkpt lat="44.17593" lon="6.34925">
        <ele>800</ele>
        <time>2018-08-09T09:54:26Z</time>
      </trkpt>
      <trkpt lat="44.17597" lon="6.34922">
        <ele>800</ele>
        <time>2018-08-09T09:54:27Z</time>
      </trkpt>
      <trkpt lat="44.17601" lon="6.34919">
        <ele>800</ele>
        <time>2018-08-09T09:54:28Z</time>
      </trkpt>
      <trkpt lat="44.17606" lon="6.34915">
        <ele>800</ele>
        <time>2018-08-09T09:54:29Z</time>
      </trkpt>
      <trkpt lat="44.1761" lon="6.34912">
        <ele>800</ele>
        <time>2018-08-09T09:54:30Z</time>
      </trkpt>
      <trkpt lat="44.17614" lon="6.34907">
        <ele>800</ele>
        <time>2018-08-09T09:54:31Z</time>
      </trkpt>
      <trkpt lat="44.17617" lon="6.34904">
        <ele>800</ele>
        <time>2018-08-09T09:54:32Z</time>
      </trkpt>
      <trkpt lat="44.17621" lon="6.34899">
        <ele>800</ele>
        <time>2018-08-09T09:54:33Z</time>
      </trkpt>
      <trkpt lat="44.17625" lon="6.34895">
        <ele>800</ele>
        <time>2018-08-09T09:54:34Z</time>
      </trkpt>
      <trkpt lat="44.17629" lon="6.3489">
        <ele>799.8</ele>
        <time>2018-08-09T09:54:35Z</time>
      </trkpt>
      <trkpt lat="44.17632" lon="6.34885">
        <ele>799.6</ele>
        <time>2018-08-09T09:54:36Z</time>
      </trkpt>
      <trkpt lat="44.17635" lon="6.34879">
        <ele>799.5</ele>
        <time>2018-08-09T09:54:37Z</time>
      </trkpt>
      <trkpt lat="44.17638" lon="6.34873">
        <ele>799.4</ele>
        <time>2018-08-09T09:54:38Z</time>
      </trkpt>
      <trkpt lat="44.17641" lon="6.34867">
        <ele>799.2</ele>
        <time>2018-08-09T09:54:39Z</time>
      </trkpt>
      <trkpt lat="44.17643" lon="6.3486">
        <ele>799.1</ele>
        <time>2018-08-09T09:54:40Z</time>
      </trkpt>
      <trkpt lat="44.17646" lon="6.34853">
        <ele>799</ele>
        <time>2018-08-09T09:54:41Z</time>
      </trkpt>
      <trkpt lat="44.17649" lon="6.34847">
        <ele>799</ele>
        <time>2018-08-09T09:54:42Z</time>
      </trkpt>
      <trkpt lat="44.17651" lon="6.34841">
        <ele>798.9</ele>
        <time>2018-08-09T09:54:43Z</time>
      </trkpt>
      <trkpt lat="44.17654" lon="6.34834">
        <ele>798.8</ele>
        <time>2018-08-09T09:54:44Z</time>
      </trkpt>
      <trkpt lat="44.17658" lon="6.34829">
        <ele>798.7</ele>
        <time>2018-08-09T09:54:45Z</time>
      </trkpt>
      <trkpt lat="44.17662" lon="6.34823">
        <ele>798.6</ele>
        <time>2018-08-09T09:54:46Z</time>
      </trkpt>
      <trkpt lat="44.17666" lon="6.34818">
        <ele>798.3</ele>
        <time>2018-08-09T09:54:47Z</time>
      </trkpt>
      <trkpt lat="44.17669" lon="6.34812">
        <ele>798</ele>
        <time>2018-08-09T09:54:48Z</time>
      </trkpt>
      <trkpt lat="44.17673" lon="6.34807">
        <ele>797.6</ele>
        <time>2018-08-09T09:54:49Z</time>
      </trkpt>
      <trkpt lat="44.17677" lon="6.348">
        <ele>797.2</ele>
        <time>2018-08-09T09:54:50Z</time>
      </trkpt>
      <trkpt lat="44.17681" lon="6.34795">
        <ele>796.8</ele>
        <time>2018-08-09T09:54:51Z</time>
      </trkpt>
      <trkpt lat="44.17685" lon="6.34789">
        <ele>796.6</ele>
        <time>2018-08-09T09:54:52Z</time>
      </trkpt>
      <trkpt lat="44.17687" lon="6.34783">
        <ele>796.4</ele>
        <time>2018-08-09T09:54:53Z</time>
      </trkpt>
      <trkpt lat="44.17691" lon="6.34776">
        <ele>796.3</ele>
        <time>2018-08-09T09:54:54Z</time>
      </trkpt>
      <trkpt lat="44.17694" lon="6.3477">
        <ele>796.2</ele>
        <time>2018-08-09T09:54:55Z</time>
      </trkpt>
      <trkpt lat="44.17698" lon="6.34763">
        <ele>796.2</ele>
        <time>2018-08-09T09:54:56Z</time>
      </trkpt>
      <trkpt lat="44.17702" lon="6.34758">
        <ele>796.1</ele>
        <time>2018-08-09T09:54:57Z</time>
      </trkpt>
      <trkpt lat="44.17705" lon="6.34754">
        <ele>796</ele>
        <time>2018-08-09T09:54:58Z</time>
      </trkpt>
      <trkpt lat="44.17709" lon="6.34748">
        <ele>796</ele>
        <time>2018-08-09T09:54:59Z</time>
      </trkpt>
      <trkpt lat="44.17713" lon="6.34744">
        <ele>796</ele>
        <time>2018-08-09T09:55:00Z</time>
      </trkpt>
      <trkpt lat="44.17717" lon="6.34739">
        <ele>796</ele>
        <time>2018-08-09T09:55:01Z</time>
      </trkpt>
      <trkpt lat="44.1772" lon="6.34733">
        <ele>796</ele>
        <time>2018-08-09T09:55:02Z</time>
      </trkpt>
      <trkpt lat="44.17725" lon="6.34728">
        <ele>795.9</ele>
        <time>2018-08-09T09:55:03Z</time>
      </trkpt>
      <trkpt lat="44.17729" lon="6.34723">
        <ele>795.8</ele>
        <time>2018-08-09T09:55:04Z</time>
      </trkpt>
      <trkpt lat="44.17733" lon="6.34719">
        <ele>795.7</ele>
        <time>2018-08-09T09:55:05Z</time>
      </trkpt>
      <trkpt lat="44.17737" lon="6.34715">
        <ele>795.6</ele>
        <time>2018-08-09T09:55:06Z</time>
      </trkpt>
      <trkpt lat="44.17741" lon="6.34712">
        <ele>795.5</ele>
        <time>2018-08-09T09:55:07Z</time>
      </trkpt>
      <trkpt lat="44.17745" lon="6.34708">
        <ele>795.5</ele>
        <time>2018-08-09T09:55:08Z</time>
      </trkpt>
      <trkpt lat="44.1775" lon="6.34703">
        <ele>795.4</ele>
        <time>2018-08-09T09:55:09Z</time>
      </trkpt>
      <trkpt lat="44.17754" lon="6.347">
        <ele>795.3</ele>
        <time>2018-08-09T09:55:10Z</time>
      </trkpt>
      <trkpt lat="44.17758" lon="6.34696">
        <ele>795.2</ele>
        <time>2018-08-09T09:55:11Z</time>
      </trkpt>
      <trkpt lat="44.17762" lon="6.34693">
        <ele>795.1</ele>
        <time>2018-08-09T09:55:12Z</time>
      </trkpt>
      <trkpt lat="44.17766" lon="6.34689">
        <ele>795.1</ele>
        <time>2018-08-09T09:55:13Z</time>
      </trkpt>
      <trkpt lat="44.1777" lon="6.34686">
        <ele>795</ele>
        <time>2018-08-09T09:55:14Z</time>
      </trkpt>
      <trkpt lat="44.17774" lon="6.34682">
        <ele>794.9</ele>
        <time>2018-08-09T09:55:15Z</time>
      </trkpt>
      <trkpt lat="44.17777" lon="6.34679">
        <ele>794.8</ele>
        <time>2018-08-09T09:55:16Z</time>
      </trkpt>
      <trkpt lat="44.17782" lon="6.34674">
        <ele>794.7</ele>
        <time>2018-08-09T09:55:17Z</time>
      </trkpt>
      <trkpt lat="44.17787" lon="6.34668">
        <ele>794.6</ele>
        <time>2018-08-09T09:55:18Z</time>
      </trkpt>
      <trkpt lat="44.1779" lon="6.34663">
        <ele>794.6</ele>
        <time>2018-08-09T09:55:19Z</time>
      </trkpt>
      <trkpt lat="44.17794" lon="6.34659">
        <ele>794.5</ele>
        <time>2018-08-09T09:55:20Z</time>
      </trkpt>
      <trkpt lat="44.17798" lon="6.34655">
        <ele>794.4</ele>
        <time>2018-08-09T09:55:21Z</time>
      </trkpt>
      <trkpt lat="44.17801" lon="6.34652">
        <ele>794.4</ele>
        <time>2018-08-09T09:55:22Z</time>
      </trkpt>
      <trkpt lat="44.17804" lon="6.34649">
        <ele>794.3</ele>
        <time>2018-08-09T09:55:23Z</time>
      </trkpt>
      <trkpt lat="44.17808" lon="6.34645">
        <ele>794.1</ele>
        <time>2018-08-09T09:55:24Z</time>
      </trkpt>
      <trkpt lat="44.17813" lon="6.34639">
        <ele>794</ele>
        <time>2018-08-09T09:55:25Z</time>
      </trkpt>
      <trkpt lat="44.17817" lon="6.34634">
        <ele>794</ele>
        <time>2018-08-09T09:55:26Z</time>
      </trkpt>
      <trkpt lat="44.17822" lon="6.3463">
        <ele>794</ele>
        <time>2018-08-09T09:55:27Z</time>
      </trkpt>
      <trkpt lat="44.17825" lon="6.34627">
        <ele>794</ele>
        <time>2018-08-09T09:55:28Z</time>
      </trkpt>
      <trkpt lat="44.17829" lon="6.34625">
        <ele>794</ele>
        <time>2018-08-09T09:55:29Z</time>
      </trkpt>
      <trkpt lat="44.17832" lon="6.34623">
        <ele>794</ele>
        <time>2018-08-09T09:55:30Z</time>
      </trkpt>
      <trkpt lat="44.17836" lon="6.3462">
        <ele>794</ele>
        <time>2018-08-09T09:55:31Z</time>
      </trkpt>
      <trkpt lat="44.17839" lon="6.34618">
        <ele>794</ele>
        <time>2018-08-09T09:55:32Z</time>
      </trkpt>
      <trkpt lat="44.17845" lon="6.34614">
        <ele>794</ele>
        <time>2018-08-09T09:55:34Z</time>
      </trkpt>
      <trkpt lat="44.17851" lon="6.3461">
        <ele>794</ele>
        <time>2018-08-09T09:55:36Z</time>
      </trkpt>
      <trkpt lat="44.17855" lon="6.34607">
        <ele>794</ele>
        <time>2018-08-09T09:55:37Z</time>
      </trkpt>
      <trkpt lat="44.17859" lon="6.34605">
        <ele>794</ele>
        <time>2018-08-09T09:55:39Z</time>
      </trkpt>
      <trkpt lat="44.17863" lon="6.34602">
        <ele>794</ele>
        <time>2018-08-09T09:55:40Z</time>
      </trkpt>
      <trkpt lat="44.17868" lon="6.34596">
        <ele>794</ele>
        <time>2018-08-09T09:55:42Z</time>
      </trkpt>
      <trkpt lat="44.17872" lon="6.34592">
        <ele>794</ele>
        <time>2018-08-09T09:55:43Z</time>
      </trkpt>
      <trkpt lat="44.17875" lon="6.34587">
        <ele>794</ele>
        <time>2018-08-09T09:55:44Z</time>
      </trkpt>
      <trkpt lat="44.17879" lon="6.34583">
        <ele>794</ele>
        <time>2018-08-09T09:55:45Z</time>
      </trkpt>
      <trkpt lat="44.17883" lon="6.34578">
        <ele>794</ele>
        <time>2018-08-09T09:55:46Z</time>
      </trkpt>
      <trkpt lat="44.17886" lon="6.34574">
        <ele>794</ele>
        <time>2018-08-09T09:55:47Z</time>
      </trkpt>
      <trkpt lat="44.1789" lon="6.34569">
        <ele>794</ele>
        <time>2018-08-09T09:55:48Z</time>
      </trkpt>
      <trkpt lat="44.17894" lon="6.34565">
        <ele>794</ele>
        <time>2018-08-09T09:55:49Z</time>
      </trkpt>
      <trkpt lat="44.17897" lon="6.34561">
        <ele>794</ele>
        <time>2018-08-09T09:55:50Z</time>
      </trkpt>
      <trkpt lat="44.17901" lon="6.34557">
        <ele>794</ele>
        <time>2018-08-09T09:55:51Z</time>
      </trkpt>
      <trkpt lat="44.17905" lon="6.34553">
        <ele>794</ele>
        <time>2018-08-09T09:55:52Z</time>
      </trkpt>
      <trkpt lat="44.17908" lon="6.3455">
        <ele>794</ele>
        <time>2018-08-09T09:55:53Z</time>
      </trkpt>
      <trkpt lat="44.17911" lon="6.34548">
        <ele>794</ele>
        <time>2018-08-09T09:55:54Z</time>
      </trkpt>
      <trkpt lat="44.17914" lon="6.34546">
        <ele>794</ele>
        <time>2018-08-09T09:55:55Z</time>
      </trkpt>
      <trkpt lat="44.17918" lon="6.34544">
        <ele>794</ele>
        <time>2018-08-09T09:55:56Z</time>
      </trkpt>
      <trkpt lat="44.17921" lon="6.34542">
        <ele>794</ele>
        <time>2018-08-09T09:55:57Z</time>
      </trkpt>
      <trkpt lat="44.17924" lon="6.3454">
        <ele>794</ele>
        <time>2018-08-09T09:55:58Z</time>
      </trkpt>
      <trkpt lat="44.17927" lon="6.34538">
        <ele>794</ele>
        <time>2018-08-09T09:55:59Z</time>
      </trkpt>
      <trkpt lat="44.17932" lon="6.34535">
        <ele>794</ele>
        <time>2018-08-09T09:56:01Z</time>
      </trkpt>
      <trkpt lat="44.17935" lon="6.34533">
        <ele>794</ele>
        <time>2018-08-09T09:56:02Z</time>
      </trkpt>
      <trkpt lat="44.17941" lon="6.3453">
        <ele>794</ele>
        <time>2018-08-09T09:56:04Z</time>
      </trkpt>
      <trkpt lat="44.17945" lon="6.34526">
        <ele>794</ele>
        <time>2018-08-09T09:56:06Z</time>
      </trkpt>
      <trkpt lat="44.17948" lon="6.34523">
        <ele>794</ele>
        <time>2018-08-09T09:56:07Z</time>
      </trkpt>
      <trkpt lat="44.17951" lon="6.34521">
        <ele>794</ele>
        <time>2018-08-09T09:56:08Z</time>
      </trkpt>
      <trkpt lat="44.17956" lon="6.34517">
        <ele>794</ele>
        <time>2018-08-09T09:56:10Z</time>
      </trkpt>
      <trkpt lat="44.1796" lon="6.34514">
        <ele>794</ele>
        <time>2018-08-09T09:56:11Z</time>
      </trkpt>
      <trkpt lat="44.17962" lon="6.34512">
        <ele>794</ele>
        <time>2018-08-09T09:56:12Z</time>
      </trkpt>
      <trkpt lat="44.17965" lon="6.34509">
        <ele>794</ele>
        <time>2018-08-09T09:56:13Z</time>
      </trkpt>
      <trkpt lat="44.17968" lon="6.34507">
        <ele>794</ele>
        <time>2018-08-09T09:56:14Z</time>
      </trkpt>
      <trkpt lat="44.1797" lon="6.34504">
        <ele>794</ele>
        <time>2018-08-09T09:56:15Z</time>
      </trkpt>
      <trkpt lat="44.17973" lon="6.34502">
        <ele>794</ele>
        <time>2018-08-09T09:56:16Z</time>
      </trkpt>
      <trkpt lat="44.17975" lon="6.34499">
        <ele>794</ele>
        <time>2018-08-09T09:56:17Z</time>
      </trkpt>
      <trkpt lat="44.17978" lon="6.34497">
        <ele>794</ele>
        <time>2018-08-09T09:56:18Z</time>
      </trkpt>
      <trkpt lat="44.17981" lon="6.34495">
        <ele>794</ele>
        <time>2018-08-09T09:56:19Z</time>
      </trkpt>
      <trkpt lat="44.17983" lon="6.34494">
        <ele>794</ele>
        <time>2018-08-09T09:56:20Z</time>
      </trkpt>
      <trkpt lat="44.17987" lon="6.3449">
        <ele>794</ele>
        <time>2018-08-09T09:56:22Z</time>
      </trkpt>
      <trkpt lat="44.17989" lon="6.34488">
        <ele>794</ele>
        <time>2018-08-09T09:56:23Z</time>
      </trkpt>
      <trkpt lat="44.17994" lon="6.34483">
        <ele>794</ele>
        <time>2018-08-09T09:56:25Z</time>
      </trkpt>
      <trkpt lat="44.17997" lon="6.34481">
        <ele>794</ele>
        <time>2018-08-09T09:56:26Z</time>
      </trkpt>
      <trkpt lat="44.18001" lon="6.34476">
        <ele>794</ele>
        <time>2018-08-09T09:56:28Z</time>
      </trkpt>
      <trkpt lat="44.18004" lon="6.34474">
        <ele>794</ele>
        <time>2018-08-09T09:56:30Z</time>
      </trkpt>
      <trkpt lat="44.18006" lon="6.34471">
        <ele>794</ele>
        <time>2018-08-09T09:56:31Z</time>
      </trkpt>
      <trkpt lat="44.1801" lon="6.34467">
        <ele>794</ele>
        <time>2018-08-09T09:56:33Z</time>
      </trkpt>
      <trkpt lat="44.18014" lon="6.34463">
        <ele>794</ele>
        <time>2018-08-09T09:56:35Z</time>
      </trkpt>
      <trkpt lat="44.18019" lon="6.34459">
        <ele>794</ele>
        <time>2018-08-09T09:56:37Z</time>
      </trkpt>
      <trkpt lat="44.18021" lon="6.34457">
        <ele>794</ele>
        <time>2018-08-09T09:56:38Z</time>
      </trkpt>
      <trkpt lat="44.18024" lon="6.34454">
        <ele>794</ele>
        <time>2018-08-09T09:56:39Z</time>
      </trkpt>
      <trkpt lat="44.18027" lon="6.34451">
        <ele>794</ele>
        <time>2018-08-09T09:56:40Z</time>
      </trkpt>
      <trkpt lat="44.18029" lon="6.34448">
        <ele>794</ele>
        <time>2018-08-09T09:56:41Z</time>
      </trkpt>
      <trkpt lat="44.18031" lon="6.34445">
        <ele>794</ele>
        <time>2018-08-09T09:56:42Z</time>
      </trkpt>
      <trkpt lat="44.18033" lon="6.34442">
        <ele>794</ele>
        <time>2018-08-09T09:56:43Z</time>
      </trkpt>
      <trkpt lat="44.18036" lon="6.3444">
        <ele>794</ele>
        <time>2018-08-09T09:56:44Z</time>
      </trkpt>
      <trkpt lat="44.18038" lon="6.34436">
        <ele>794</ele>
        <time>2018-08-09T09:56:45Z</time>
      </trkpt>
      <trkpt lat="44.1804" lon="6.34434">
        <ele>794</ele>
        <time>2018-08-09T09:56:46Z</time>
      </trkpt>
      <trkpt lat="44.18042" lon="6.34431">
        <ele>794</ele>
        <time>2018-08-09T09:56:47Z</time>
      </trkpt>
      <trkpt lat="44.18045" lon="6.34428">
        <ele>794</ele>
        <time>2018-08-09T09:56:48Z</time>
      </trkpt>
      <trkpt lat="44.18047" lon="6.34425">
        <ele>794</ele>
        <time>2018-08-09T09:56:49Z</time>
      </trkpt>
      <trkpt lat="44.1805" lon="6.34423">
        <ele>794</ele>
        <time>2018-08-09T09:56:50Z</time>
      </trkpt>
      <trkpt lat="44.18052" lon="6.3442">
        <ele>794</ele>
        <time>2018-08-09T09:56:51Z</time>
      </trkpt>
      <trkpt lat="44.18055" lon="6.34417">
        <ele>794</ele>
        <time>2018-08-09T09:56:52Z</time>
      </trkpt>
      <trkpt lat="44.18058" lon="6.34414">
        <ele>794</ele>
        <time>2018-08-09T09:56:53Z</time>
      </trkpt>
      <trkpt lat="44.18062" lon="6.34409">
        <ele>794</ele>
        <time>2018-08-09T09:56:55Z</time>
      </trkpt>
      <trkpt lat="44.18065" lon="6.34407">
        <ele>794</ele>
        <time>2018-08-09T09:56:56Z</time>
      </trkpt>
      <trkpt lat="44.18068" lon="6.34405">
        <ele>794</ele>
        <time>2018-08-09T09:56:57Z</time>
      </trkpt>
      <trkpt lat="44.18073" lon="6.34401">
        <ele>794.1</ele>
        <time>2018-08-09T09:56:59Z</time>
      </trkpt>
      <trkpt lat="44.18076" lon="6.344">
        <ele>794.1</ele>
        <time>2018-08-09T09:57:00Z</time>
      </trkpt>
      <trkpt lat="44.18079" lon="6.34399">
        <ele>794.1</ele>
        <time>2018-08-09T09:57:01Z</time>
      </trkpt>
      <trkpt lat="44.18082" lon="6.34397">
        <ele>794.1</ele>
        <time>2018-08-09T09:57:02Z</time>
      </trkpt>
      <trkpt lat="44.18085" lon="6.34395">
        <ele>794.1</ele>
        <time>2018-08-09T09:57:03Z</time>
      </trkpt>
      <trkpt lat="44.18088" lon="6.34394">
        <ele>794.1</ele>
        <time>2018-08-09T09:57:04Z</time>
      </trkpt>
      <trkpt lat="44.18091" lon="6.34393">
        <ele>794.2</ele>
        <time>2018-08-09T09:57:05Z</time>
      </trkpt>
      <trkpt lat="44.18094" lon="6.34391">
        <ele>794.2</ele>
        <time>2018-08-09T09:57:07Z</time>
      </trkpt>
      <trkpt lat="44.18097" lon="6.34389">
        <ele>794.2</ele>
        <time>2018-08-09T09:57:08Z</time>
      </trkpt>
      <trkpt lat="44.181" lon="6.34387">
        <ele>794.3</ele>
        <time>2018-08-09T09:57:10Z</time>
      </trkpt>
      <trkpt lat="44.18101" lon="6.34384">
        <ele>794.3</ele>
        <time>2018-08-09T09:57:54Z</time>
      </trkpt>
      <trkpt lat="44.181" lon="6.34387">
        <ele>794.4</ele>
        <time>2018-08-09T10:01:22Z</time>
      </trkpt>
      <trkpt lat="44.18099" lon="6.34391">
        <ele>794.4</ele>
        <time>2018-08-09T10:01:31Z</time>
      </trkpt>
      <trkpt lat="44.181" lon="6.34395">
        <ele>794.5</ele>
        <time>2018-08-09T10:01:35Z</time>
      </trkpt>
      <trkpt lat="44.18102" lon="6.34391">
        <ele>794.6</ele>
        <time>2018-08-09T10:01:45Z</time>
      </trkpt>
      <trkpt lat="44.18101" lon="6.34387">
        <ele>794.7</ele>
        <time>2018-08-09T10:01:50Z</time>
      </trkpt>
      <trkpt lat="44.18104" lon="6.34389">
        <ele>794.8</ele>
        <time>2018-08-09T10:02:56Z</time>
      </trkpt>
      <trkpt lat="44.18107" lon="6.3439">
        <ele>794.9</ele>
        <time>2018-08-09T10:03:00Z</time>
      </trkpt>
      <trkpt lat="44.18111" lon="6.3439">
        <ele>795.1</ele>
        <time>2018-08-09T10:03:02Z</time>
      </trkpt>
      <trkpt lat="44.18115" lon="6.34389">
        <ele>795.2</ele>
        <time>2018-08-09T10:03:04Z</time>
      </trkpt>
      <trkpt lat="44.18119" lon="6.34387">
        <ele>795.3</ele>
        <time>2018-08-09T10:03:06Z</time>
      </trkpt>
      <trkpt lat="44.18124" lon="6.34386">
        <ele>795.5</ele>
        <time>2018-08-09T10:03:08Z</time>
      </trkpt>
      <trkpt lat="44.1813" lon="6.34386">
        <ele>795.7</ele>
        <time>2018-08-09T10:03:10Z</time>
      </trkpt>
      <trkpt lat="44.18133" lon="6.34386">
        <ele>795.7</ele>
        <time>2018-08-09T10:03:11Z</time>
      </trkpt>
      <trkpt lat="44.18136" lon="6.34385">
        <ele>795.7</ele>
        <time>2018-08-09T10:03:12Z</time>
      </trkpt>
      <trkpt lat="44.18139" lon="6.34384">
        <ele>795.8</ele>
        <time>2018-08-09T10:03:13Z</time>
      </trkpt>
      <trkpt lat="44.18142" lon="6.34384">
        <ele>795.8</ele>
        <time>2018-08-09T10:03:14Z</time>
      </trkpt>
      <trkpt lat="44.18145" lon="6.34384">
        <ele>795.8</ele>
        <time>2018-08-09T10:03:15Z</time>
      </trkpt>
      <trkpt lat="44.18148" lon="6.34384">
        <ele>795.9</ele>
        <time>2018-08-09T10:03:16Z</time>
      </trkpt>
      <trkpt lat="44.18151" lon="6.34383">
        <ele>795.9</ele>
        <time>2018-08-09T10:03:17Z</time>
      </trkpt>
      <trkpt lat="44.18154" lon="6.34383">
        <ele>796</ele>
        <time>2018-08-09T10:03:18Z</time>
      </trkpt>
      <trkpt lat="44.18157" lon="6.34381">
        <ele>796</ele>
        <time>2018-08-09T10:03:19Z</time>
      </trkpt>
      <trkpt lat="44.1816" lon="6.34381">
        <ele>796.2</ele>
        <time>2018-08-09T10:03:20Z</time>
      </trkpt>
      <trkpt lat="44.18164" lon="6.3438">
        <ele>796.3</ele>
        <time>2018-08-09T10:03:21Z</time>
      </trkpt>
      <trkpt lat="44.18167" lon="6.3438">
        <ele>796.4</ele>
        <time>2018-08-09T10:03:22Z</time>
      </trkpt>
      <trkpt lat="44.1817" lon="6.3438">
        <ele>796.5</ele>
        <time>2018-08-09T10:03:23Z</time>
      </trkpt>
      <trkpt lat="44.18173" lon="6.34378">
        <ele>796.6</ele>
        <time>2018-08-09T10:03:24Z</time>
      </trkpt>
      <trkpt lat="44.18176" lon="6.34376">
        <ele>796.6</ele>
        <time>2018-08-09T10:03:25Z</time>
      </trkpt>
      <trkpt lat="44.18178" lon="6.34375">
        <ele>796.7</ele>
        <time>2018-08-09T10:03:26Z</time>
      </trkpt>
      <trkpt lat="44.18182" lon="6.34373">
        <ele>796.8</ele>
        <time>2018-08-09T10:03:27Z</time>
      </trkpt>
      <trkpt lat="44.18184" lon="6.34372">
        <ele>796.9</ele>
        <time>2018-08-09T10:03:28Z</time>
      </trkpt>
      <trkpt lat="44.18188" lon="6.3437">
        <ele>797</ele>
        <time>2018-08-09T10:03:29Z</time>
      </trkpt>
      <trkpt lat="44.18192" lon="6.34367">
        <ele>797.2</ele>
        <time>2018-08-09T10:03:31Z</time>
      </trkpt>
      <trkpt lat="44.18195" lon="6.34365">
        <ele>797.4</ele>
        <time>2018-08-09T10:03:32Z</time>
      </trkpt>
      <trkpt lat="44.18197" lon="6.34363">
        <ele>797.5</ele>
        <time>2018-08-09T10:03:33Z</time>
      </trkpt>
      <trkpt lat="44.182" lon="6.34362">
        <ele>797.6</ele>
        <time>2018-08-09T10:03:34Z</time>
      </trkpt>
      <trkpt lat="44.18203" lon="6.34361">
        <ele>797.7</ele>
        <time>2018-08-09T10:03:35Z</time>
      </trkpt>
      <trkpt lat="44.18205" lon="6.34359">
        <ele>797.8</ele>
        <time>2018-08-09T10:03:36Z</time>
      </trkpt>
      <trkpt lat="44.18208" lon="6.34358">
        <ele>798</ele>
        <time>2018-08-09T10:03:37Z</time>
      </trkpt>
      <trkpt lat="44.1821" lon="6.34356">
        <ele>798.1</ele>
        <time>2018-08-09T10:03:38Z</time>
      </trkpt>
      <trkpt lat="44.18213" lon="6.34354">
        <ele>798.2</ele>
        <time>2018-08-09T10:03:39Z</time>
      </trkpt>
      <trkpt lat="44.18218" lon="6.3435">
        <ele>798.5</ele>
        <time>2018-08-09T10:03:41Z</time>
      </trkpt>
      <trkpt lat="44.1822" lon="6.34348">
        <ele>798.6</ele>
        <time>2018-08-09T10:03:42Z</time>
      </trkpt>
      <trkpt lat="44.18223" lon="6.34345">
        <ele>798.8</ele>
        <time>2018-08-09T10:03:43Z</time>
      </trkpt>
      <trkpt lat="44.18228" lon="6.34341">
        <ele>799</ele>
        <time>2018-08-09T10:03:45Z</time>
      </trkpt>
      <trkpt lat="44.18231" lon="6.3434">
        <ele>799.2</ele>
        <time>2018-08-09T10:03:46Z</time>
      </trkpt>
      <trkpt lat="44.18235" lon="6.34336">
        <ele>799.4</ele>
        <time>2018-08-09T10:03:48Z</time>
      </trkpt>
      <trkpt lat="44.18239" lon="6.34335">
        <ele>799.6</ele>
        <time>2018-08-09T10:03:50Z</time>
      </trkpt>
      <trkpt lat="44.18242" lon="6.34333">
        <ele>799.7</ele>
        <time>2018-08-09T10:03:51Z</time>
      </trkpt>
      <trkpt lat="44.18247" lon="6.34331">
        <ele>799.9</ele>
        <time>2018-08-09T10:03:53Z</time>
      </trkpt>
      <trkpt lat="44.18252" lon="6.34329">
        <ele>800.1</ele>
        <time>2018-08-09T10:03:55Z</time>
      </trkpt>
      <trkpt lat="44.18255" lon="6.34328">
        <ele>800.2</ele>
        <time>2018-08-09T10:03:56Z</time>
      </trkpt>
      <trkpt lat="44.18259" lon="6.34324">
        <ele>800.4</ele>
        <time>2018-08-09T10:03:58Z</time>
      </trkpt>
      <trkpt lat="44.18263" lon="6.34321">
        <ele>800.4</ele>
        <time>2018-08-09T10:04:00Z</time>
      </trkpt>
      <trkpt lat="44.18266" lon="6.3432">
        <ele>800.5</ele>
        <time>2018-08-09T10:04:01Z</time>
      </trkpt>
      <trkpt lat="44.1827" lon="6.34318">
        <ele>800.5</ele>
        <time>2018-08-09T10:04:03Z</time>
      </trkpt>
      <trkpt lat="44.18275" lon="6.34315">
        <ele>800.6</ele>
        <time>2018-08-09T10:04:05Z</time>
      </trkpt>
      <trkpt lat="44.18279" lon="6.34312">
        <ele>800.7</ele>
        <time>2018-08-09T10:04:07Z</time>
      </trkpt>
      <trkpt lat="44.18283" lon="6.3431">
        <ele>800.8</ele>
        <time>2018-08-09T10:04:09Z</time>
      </trkpt>
      <trkpt lat="44.18287" lon="6.34309">
        <ele>800.8</ele>
        <time>2018-08-09T10:04:11Z</time>
      </trkpt>
      <trkpt lat="44.18292" lon="6.34308">
        <ele>800.9</ele>
        <time>2018-08-09T10:04:13Z</time>
      </trkpt>
      <trkpt lat="44.18296" lon="6.34306">
        <ele>800.9</ele>
        <time>2018-08-09T10:04:15Z</time>
      </trkpt>
      <trkpt lat="44.183" lon="6.34304">
        <ele>801</ele>
        <time>2018-08-09T10:04:17Z</time>
      </trkpt>
      <trkpt lat="44.18303" lon="6.34301">
        <ele>801</ele>
        <time>2018-08-09T10:04:19Z</time>
      </trkpt>
      <trkpt lat="44.18306" lon="6.34298">
        <ele>801.1</ele>
        <time>2018-08-09T10:04:20Z</time>
      </trkpt>
      <trkpt lat="44.1831" lon="6.34294">
        <ele>801.1</ele>
        <time>2018-08-09T10:04:22Z</time>
      </trkpt>
      <trkpt lat="44.18314" lon="6.3429">
        <ele>801.2</ele>
        <time>2018-08-09T10:04:24Z</time>
      </trkpt>
      <trkpt lat="44.18317" lon="6.34286">
        <ele>801.2</ele>
        <time>2018-08-09T10:04:26Z</time>
      </trkpt>
      <trkpt lat="44.18321" lon="6.34282">
        <ele>801.3</ele>
        <time>2018-08-09T10:04:28Z</time>
      </trkpt>
      <trkpt lat="44.18323" lon="6.3428">
        <ele>801.3</ele>
        <time>2018-08-09T10:04:29Z</time>
      </trkpt>
      <trkpt lat="44.18326" lon="6.34278">
        <ele>801.3</ele>
        <time>2018-08-09T10:04:30Z</time>
      </trkpt>
      <trkpt lat="44.18331" lon="6.34274">
        <ele>801.4</ele>
        <time>2018-08-09T10:04:32Z</time>
      </trkpt>
      <trkpt lat="44.18333" lon="6.34271">
        <ele>801.4</ele>
        <time>2018-08-09T10:04:33Z</time>
      </trkpt>
      <trkpt lat="44.18335" lon="6.34267">
        <ele>801.4</ele>
        <time>2018-08-09T10:04:34Z</time>
      </trkpt>
      <trkpt lat="44.18337" lon="6.34264">
        <ele>801.4</ele>
        <time>2018-08-09T10:04:35Z</time>
      </trkpt>
      <trkpt lat="44.1834" lon="6.34257">
        <ele>801.5</ele>
        <time>2018-08-09T10:04:36Z</time>
      </trkpt>
      <trkpt lat="44.18341" lon="6.3425">
        <ele>801.6</ele>
        <time>2018-08-09T10:04:37Z</time>
      </trkpt>
      <trkpt lat="44.18341" lon="6.34242">
        <ele>801.8</ele>
        <time>2018-08-09T10:04:38Z</time>
      </trkpt>
      <trkpt lat="44.18341" lon="6.34233">
        <ele>802.1</ele>
        <time>2018-08-09T10:04:39Z</time>
      </trkpt>
      <trkpt lat="44.18341" lon="6.34223">
        <ele>802.4</ele>
        <time>2018-08-09T10:04:40Z</time>
      </trkpt>
      <trkpt lat="44.18342" lon="6.34215">
        <ele>802.7</ele>
        <time>2018-08-09T10:04:41Z</time>
      </trkpt>
      <trkpt lat="44.18344" lon="6.34209">
        <ele>803</ele>
        <time>2018-08-09T10:04:42Z</time>
      </trkpt>
      <trkpt lat="44.18346" lon="6.34204">
        <ele>803.1</ele>
        <time>2018-08-09T10:04:43Z</time>
      </trkpt>
      <trkpt lat="44.18349" lon="6.34201">
        <ele>803.2</ele>
        <time>2018-08-09T10:04:44Z</time>
      </trkpt>
      <trkpt lat="44.18353" lon="6.34198">
        <ele>803.3</ele>
        <time>2018-08-09T10:04:45Z</time>
      </trkpt>
      <trkpt lat="44.18358" lon="6.34197">
        <ele>803.4</ele>
        <time>2018-08-09T10:04:47Z</time>
      </trkpt>
      <trkpt lat="44.18362" lon="6.342">
        <ele>803.5</ele>
        <time>2018-08-09T10:04:49Z</time>
      </trkpt>
      <trkpt lat="44.18367" lon="6.34201">
        <ele>803.6</ele>
        <time>2018-08-09T10:04:51Z</time>
      </trkpt>
      <trkpt lat="44.18373" lon="6.34202">
        <ele>803.9</ele>
        <time>2018-08-09T10:04:53Z</time>
      </trkpt>
      <trkpt lat="44.18378" lon="6.34204">
        <ele>804.3</ele>
        <time>2018-08-09T10:04:55Z</time>
      </trkpt>
      <trkpt lat="44.18381" lon="6.34206">
        <ele>804.5</ele>
        <time>2018-08-09T10:04:56Z</time>
      </trkpt>
      <trkpt lat="44.18385" lon="6.34207">
        <ele>804.8</ele>
        <time>2018-08-09T10:04:58Z</time>
      </trkpt>
      <trkpt lat="44.18389" lon="6.34208">
        <ele>805</ele>
        <time>2018-08-09T10:04:59Z</time>
      </trkpt>
      <trkpt lat="44.18395" lon="6.3421">
        <ele>805.4</ele>
        <time>2018-08-09T10:05:01Z</time>
      </trkpt>
      <trkpt lat="44.18398" lon="6.34211">
        <ele>805.5</ele>
        <time>2018-08-09T10:05:02Z</time>
      </trkpt>
      <trkpt lat="44.18403" lon="6.34213">
        <ele>805.8</ele>
        <time>2018-08-09T10:05:04Z</time>
      </trkpt>
      <trkpt lat="44.18406" lon="6.34213">
        <ele>805.9</ele>
        <time>2018-08-09T10:05:05Z</time>
      </trkpt>
      <trkpt lat="44.1841" lon="6.34213">
        <ele>806</ele>
        <time>2018-08-09T10:05:06Z</time>
      </trkpt>
      <trkpt lat="44.18413" lon="6.34214">
        <ele>806.1</ele>
        <time>2018-08-09T10:05:07Z</time>
      </trkpt>
      <trkpt lat="44.18416" lon="6.34214">
        <ele>806.2</ele>
        <time>2018-08-09T10:05:08Z</time>
      </trkpt>
      <trkpt lat="44.18419" lon="6.34215">
        <ele>806.2</ele>
        <time>2018-08-09T10:05:09Z</time>
      </trkpt>
      <trkpt lat="44.18423" lon="6.34216">
        <ele>806.3</ele>
        <time>2018-08-09T10:05:10Z</time>
      </trkpt>
      <trkpt lat="44.18426" lon="6.34216">
        <ele>806.4</ele>
        <time>2018-08-09T10:05:11Z</time>
      </trkpt>
      <trkpt lat="44.18429" lon="6.34216">
        <ele>806.5</ele>
        <time>2018-08-09T10:05:12Z</time>
      </trkpt>
      <trkpt lat="44.18432" lon="6.34215">
        <ele>806.7</ele>
        <time>2018-08-09T10:05:13Z</time>
      </trkpt>
      <trkpt lat="44.18437" lon="6.34212">
        <ele>806.9</ele>
        <time>2018-08-09T10:05:15Z</time>
      </trkpt>
      <trkpt lat="44.18442" lon="6.3421">
        <ele>807.2</ele>
        <time>2018-08-09T10:05:17Z</time>
      </trkpt>
      <trkpt lat="44.18445" lon="6.34208">
        <ele>807.4</ele>
        <time>2018-08-09T10:05:18Z</time>
      </trkpt>
      <trkpt lat="44.1845" lon="6.34206">
        <ele>807.8</ele>
        <time>2018-08-09T10:05:20Z</time>
      </trkpt>
      <trkpt lat="44.18453" lon="6.34204">
        <ele>808</ele>
        <time>2018-08-09T10:05:21Z</time>
      </trkpt>
      <trkpt lat="44.18456" lon="6.34204">
        <ele>808.1</ele>
        <time>2018-08-09T10:05:22Z</time>
      </trkpt>
      <trkpt lat="44.18459" lon="6.34202">
        <ele>808.3</ele>
        <time>2018-08-09T10:05:23Z</time>
      </trkpt>
      <trkpt lat="44.18465" lon="6.342">
        <ele>808.7</ele>
        <time>2018-08-09T10:05:25Z</time>
      </trkpt>
      <trkpt lat="44.18468" lon="6.34199">
        <ele>808.9</ele>
        <time>2018-08-09T10:05:26Z</time>
      </trkpt>
      <trkpt lat="44.18471" lon="6.34197">
        <ele>809.1</ele>
        <time>2018-08-09T10:05:27Z</time>
      </trkpt>
      <trkpt lat="44.18474" lon="6.34197">
        <ele>809.2</ele>
        <time>2018-08-09T10:05:28Z</time>
      </trkpt>
      <trkpt lat="44.18477" lon="6.34197">
        <ele>809.3</ele>
        <time>2018-08-09T10:05:29Z</time>
      </trkpt>
      <trkpt lat="44.1848" lon="6.34196">
        <ele>809.4</ele>
        <time>2018-08-09T10:05:30Z</time>
      </trkpt>
      <trkpt lat="44.18483" lon="6.34196">
        <ele>809.4</ele>
        <time>2018-08-09T10:05:31Z</time>
      </trkpt>
      <trkpt lat="44.18486" lon="6.34195">
        <ele>809.5</ele>
        <time>2018-08-09T10:05:32Z</time>
      </trkpt>
      <trkpt lat="44.18489" lon="6.34194">
        <ele>809.5</ele>
        <time>2018-08-09T10:05:33Z</time>
      </trkpt>
      <trkpt lat="44.18492" lon="6.34193">
        <ele>809.6</ele>
        <time>2018-08-09T10:05:34Z</time>
      </trkpt>
      <trkpt lat="44.18497" lon="6.34188">
        <ele>809.6</ele>
        <time>2018-08-09T10:05:36Z</time>
      </trkpt>
      <trkpt lat="44.18499" lon="6.34185">
        <ele>809.7</ele>
        <time>2018-08-09T10:05:37Z</time>
      </trkpt>
      <trkpt lat="44.18503" lon="6.34182">
        <ele>809.8</ele>
        <time>2018-08-09T10:05:39Z</time>
      </trkpt>
      <trkpt lat="44.18506" lon="6.34179">
        <ele>809.8</ele>
        <time>2018-08-09T10:05:40Z</time>
      </trkpt>
      <trkpt lat="44.18508" lon="6.34177">
        <ele>809.8</ele>
        <time>2018-08-09T10:05:41Z</time>
      </trkpt>
      <trkpt lat="44.18511" lon="6.34174">
        <ele>809.8</ele>
        <time>2018-08-09T10:05:42Z</time>
      </trkpt>
      <trkpt lat="44.18513" lon="6.34172">
        <ele>809.8</ele>
        <time>2018-08-09T10:05:43Z</time>
      </trkpt>
      <trkpt lat="44.18518" lon="6.34168">
        <ele>809.9</ele>
        <time>2018-08-09T10:05:45Z</time>
      </trkpt>
      <trkpt lat="44.18522" lon="6.34165">
        <ele>809.9</ele>
        <time>2018-08-09T10:05:47Z</time>
      </trkpt>
      <trkpt lat="44.18525" lon="6.34162">
        <ele>809.9</ele>
        <time>2018-08-09T10:05:49Z</time>
      </trkpt>
      <trkpt lat="44.1853" lon="6.34158">
        <ele>809.9</ele>
        <time>2018-08-09T10:05:51Z</time>
      </trkpt>
      <trkpt lat="44.18532" lon="6.34157">
        <ele>810</ele>
        <time>2018-08-09T10:05:52Z</time>
      </trkpt>
      <trkpt lat="44.18535" lon="6.34154">
        <ele>810</ele>
        <time>2018-08-09T10:05:53Z</time>
      </trkpt>
      <trkpt lat="44.18537" lon="6.34152">
        <ele>810</ele>
        <time>2018-08-09T10:05:54Z</time>
      </trkpt>
      <trkpt lat="44.18539" lon="6.34147">
        <ele>809.7</ele>
        <time>2018-08-09T10:05:55Z</time>
      </trkpt>
      <trkpt lat="44.18541" lon="6.34141">
        <ele>809.3</ele>
        <time>2018-08-09T10:05:56Z</time>
      </trkpt>
      <trkpt lat="44.18541" lon="6.34134">
        <ele>808.6</ele>
        <time>2018-08-09T10:05:57Z</time>
      </trkpt>
      <trkpt lat="44.18542" lon="6.34127">
        <ele>808.3</ele>
        <time>2018-08-09T10:05:58Z</time>
      </trkpt>
      <trkpt lat="44.18542" lon="6.34121">
        <ele>808.1</ele>
        <time>2018-08-09T10:05:59Z</time>
      </trkpt>
      <trkpt lat="44.18545" lon="6.34115">
        <ele>807.8</ele>
        <time>2018-08-09T10:06:00Z</time>
      </trkpt>
      <trkpt lat="44.18549" lon="6.34109">
        <ele>807.7</ele>
        <time>2018-08-09T10:06:01Z</time>
      </trkpt>
      <trkpt lat="44.18554" lon="6.34105">
        <ele>807.8</ele>
        <time>2018-08-09T10:06:02Z</time>
      </trkpt>
      <trkpt lat="44.18558" lon="6.34102">
        <ele>807.9</ele>
        <time>2018-08-09T10:06:03Z</time>
      </trkpt>
      <trkpt lat="44.18563" lon="6.34099">
        <ele>808.1</ele>
        <time>2018-08-09T10:06:04Z</time>
      </trkpt>
      <trkpt lat="44.18568" lon="6.34098">
        <ele>808.3</ele>
        <time>2018-08-09T10:06:05Z</time>
      </trkpt>
      <trkpt lat="44.18573" lon="6.34096">
        <ele>808.7</ele>
        <time>2018-08-09T10:06:06Z</time>
      </trkpt>
      <trkpt lat="44.18576" lon="6.34096">
        <ele>808.8</ele>
        <time>2018-08-09T10:06:07Z</time>
      </trkpt>
      <trkpt lat="44.18581" lon="6.34097">
        <ele>809</ele>
        <time>2018-08-09T10:06:08Z</time>
      </trkpt>
      <trkpt lat="44.18585" lon="6.34098">
        <ele>809.2</ele>
        <time>2018-08-09T10:06:09Z</time>
      </trkpt>
      <trkpt lat="44.18589" lon="6.34098">
        <ele>809.4</ele>
        <time>2018-08-09T10:06:10Z</time>
      </trkpt>
      <trkpt lat="44.18592" lon="6.34099">
        <ele>809.6</ele>
        <time>2018-08-09T10:06:11Z</time>
      </trkpt>
      <trkpt lat="44.18595" lon="6.341">
        <ele>809.8</ele>
        <time>2018-08-09T10:06:12Z</time>
      </trkpt>
      <trkpt lat="44.18598" lon="6.341">
        <ele>810</ele>
        <time>2018-08-09T10:06:13Z</time>
      </trkpt>
      <trkpt lat="44.18601" lon="6.34102">
        <ele>810.2</ele>
        <time>2018-08-09T10:06:14Z</time>
      </trkpt>
      <trkpt lat="44.18604" lon="6.34103">
        <ele>810.4</ele>
        <time>2018-08-09T10:06:15Z</time>
      </trkpt>
      <trkpt lat="44.18607" lon="6.34104">
        <ele>810.6</ele>
        <time>2018-08-09T10:06:16Z</time>
      </trkpt>
      <trkpt lat="44.1861" lon="6.34104">
        <ele>810.7</ele>
        <time>2018-08-09T10:06:17Z</time>
      </trkpt>
      <trkpt lat="44.18613" lon="6.34105">
        <ele>811</ele>
        <time>2018-08-09T10:06:18Z</time>
      </trkpt>
      <trkpt lat="44.18617" lon="6.34106">
        <ele>811.5</ele>
        <time>2018-08-09T10:06:20Z</time>
      </trkpt>
      <trkpt lat="44.1862" lon="6.34106">
        <ele>811.7</ele>
        <time>2018-08-09T10:06:21Z</time>
      </trkpt>
      <trkpt lat="44.18623" lon="6.34106">
        <ele>811.9</ele>
        <time>2018-08-09T10:06:22Z</time>
      </trkpt>
      <trkpt lat="44.18628" lon="6.34106">
        <ele>812.2</ele>
        <time>2018-08-09T10:06:24Z</time>
      </trkpt>
      <trkpt lat="44.18631" lon="6.34105">
        <ele>812.4</ele>
        <time>2018-08-09T10:06:25Z</time>
      </trkpt>
      <trkpt lat="44.18634" lon="6.34105">
        <ele>812.6</ele>
        <time>2018-08-09T10:06:26Z</time>
      </trkpt>
      <trkpt lat="44.18637" lon="6.34104">
        <ele>812.7</ele>
        <time>2018-08-09T10:06:27Z</time>
      </trkpt>
      <trkpt lat="44.1864" lon="6.34103">
        <ele>812.8</ele>
        <time>2018-08-09T10:06:28Z</time>
      </trkpt>
      <trkpt lat="44.18642" lon="6.34103">
        <ele>813</ele>
        <time>2018-08-09T10:06:29Z</time>
      </trkpt>
      <trkpt lat="44.18647" lon="6.34103">
        <ele>813.4</ele>
        <time>2018-08-09T10:06:31Z</time>
      </trkpt>
      <trkpt lat="44.18652" lon="6.34103">
        <ele>813.5</ele>
        <time>2018-08-09T10:06:32Z</time>
      </trkpt>
      <trkpt lat="44.18658" lon="6.34104">
        <ele>813.8</ele>
        <time>2018-08-09T10:06:34Z</time>
      </trkpt>
      <trkpt lat="44.18661" lon="6.34104">
        <ele>814</ele>
        <time>2018-08-09T10:06:35Z</time>
      </trkpt>
      <trkpt lat="44.18664" lon="6.34104">
        <ele>814.2</ele>
        <time>2018-08-09T10:06:36Z</time>
      </trkpt>
      <trkpt lat="44.18667" lon="6.34104">
        <ele>814.4</ele>
        <time>2018-08-09T10:06:37Z</time>
      </trkpt>
      <trkpt lat="44.18673" lon="6.34104">
        <ele>814.7</ele>
        <time>2018-08-09T10:06:39Z</time>
      </trkpt>
      <trkpt lat="44.18678" lon="6.34105">
        <ele>814.9</ele>
        <time>2018-08-09T10:06:41Z</time>
      </trkpt>
      <trkpt lat="44.18682" lon="6.34105">
        <ele>815.1</ele>
        <time>2018-08-09T10:06:42Z</time>
      </trkpt>
      <trkpt lat="44.18684" lon="6.34105">
        <ele>815.2</ele>
        <time>2018-08-09T10:06:43Z</time>
      </trkpt>
      <trkpt lat="44.18689" lon="6.34104">
        <ele>815.5</ele>
        <time>2018-08-09T10:06:45Z</time>
      </trkpt>
      <trkpt lat="44.18694" lon="6.34102">
        <ele>815.7</ele>
        <time>2018-08-09T10:06:47Z</time>
      </trkpt>
      <trkpt lat="44.18699" lon="6.34101">
        <ele>815.9</ele>
        <time>2018-08-09T10:06:49Z</time>
      </trkpt>
      <trkpt lat="44.18702" lon="6.34099">
        <ele>816.1</ele>
        <time>2018-08-09T10:06:50Z</time>
      </trkpt>
      <trkpt lat="44.18705" lon="6.34098">
        <ele>816.2</ele>
        <time>2018-08-09T10:06:51Z</time>
      </trkpt>
      <trkpt lat="44.18708" lon="6.34097">
        <ele>816.3</ele>
        <time>2018-08-09T10:06:52Z</time>
      </trkpt>
      <trkpt lat="44.18711" lon="6.34096">
        <ele>816.4</ele>
        <time>2018-08-09T10:06:53Z</time>
      </trkpt>
      <trkpt lat="44.18714" lon="6.34095">
        <ele>816.5</ele>
        <time>2018-08-09T10:06:54Z</time>
      </trkpt>
      <trkpt lat="44.18717" lon="6.34094">
        <ele>816.6</ele>
        <time>2018-08-09T10:06:55Z</time>
      </trkpt>
      <trkpt lat="44.18721" lon="6.34093">
        <ele>816.7</ele>
        <time>2018-08-09T10:06:56Z</time>
      </trkpt>
      <trkpt lat="44.18724" lon="6.34092">
        <ele>816.9</ele>
        <time>2018-08-09T10:06:57Z</time>
      </trkpt>
      <trkpt lat="44.18727" lon="6.34091">
        <ele>817</ele>
        <time>2018-08-09T10:06:58Z</time>
      </trkpt>
      <trkpt lat="44.1873" lon="6.34092">
        <ele>817.2</ele>
        <time>2018-08-09T10:06:59Z</time>
      </trkpt>
      <trkpt lat="44.18736" lon="6.3409">
        <ele>817.5</ele>
        <time>2018-08-09T10:07:01Z</time>
      </trkpt>
      <trkpt lat="44.18741" lon="6.34088">
        <ele>817.8</ele>
        <time>2018-08-09T10:07:03Z</time>
      </trkpt>
      <trkpt lat="44.18744" lon="6.34088">
        <ele>818.1</ele>
        <time>2018-08-09T10:07:04Z</time>
      </trkpt>
      <trkpt lat="44.18747" lon="6.34086">
        <ele>818.3</ele>
        <time>2018-08-09T10:07:05Z</time>
      </trkpt>
      <trkpt lat="44.1875" lon="6.34087">
        <ele>818.5</ele>
        <time>2018-08-09T10:07:06Z</time>
      </trkpt>
      <trkpt lat="44.18753" lon="6.34087">
        <ele>818.6</ele>
        <time>2018-08-09T10:07:07Z</time>
      </trkpt>
      <trkpt lat="44.18756" lon="6.34087">
        <ele>818.7</ele>
        <time>2018-08-09T10:07:08Z</time>
      </trkpt>
      <trkpt lat="44.1876" lon="6.34087">
        <ele>819</ele>
        <time>2018-08-09T10:07:09Z</time>
      </trkpt>
      <trkpt lat="44.18765" lon="6.34086">
        <ele>819.4</ele>
        <time>2018-08-09T10:07:11Z</time>
      </trkpt>
      <trkpt lat="44.18768" lon="6.34086">
        <ele>819.5</ele>
        <time>2018-08-09T10:07:12Z</time>
      </trkpt>
      <trkpt lat="44.18773" lon="6.34086">
        <ele>819.7</ele>
        <time>2018-08-09T10:07:14Z</time>
      </trkpt>
      <trkpt lat="44.18777" lon="6.34084">
        <ele>819.8</ele>
        <time>2018-08-09T10:07:16Z</time>
      </trkpt>
      <trkpt lat="44.18782" lon="6.34082">
        <ele>820</ele>
        <time>2018-08-09T10:07:18Z</time>
      </trkpt>
      <trkpt lat="44.18785" lon="6.3408">
        <ele>820.1</ele>
        <time>2018-08-09T10:07:19Z</time>
      </trkpt>
      <trkpt lat="44.18788" lon="6.34079">
        <ele>820.3</ele>
        <time>2018-08-09T10:07:20Z</time>
      </trkpt>
      <trkpt lat="44.18791" lon="6.34077">
        <ele>820.5</ele>
        <time>2018-08-09T10:07:21Z</time>
      </trkpt>
      <trkpt lat="44.18794" lon="6.34077">
        <ele>820.7</ele>
        <time>2018-08-09T10:07:22Z</time>
      </trkpt>
      <trkpt lat="44.18799" lon="6.34075">
        <ele>821.1</ele>
        <time>2018-08-09T10:07:24Z</time>
      </trkpt>
      <trkpt lat="44.18802" lon="6.34074">
        <ele>821.3</ele>
        <time>2018-08-09T10:07:25Z</time>
      </trkpt>
      <trkpt lat="44.18808" lon="6.34072">
        <ele>821.6</ele>
        <time>2018-08-09T10:07:27Z</time>
      </trkpt>
      <trkpt lat="44.18811" lon="6.34071">
        <ele>821.8</ele>
        <time>2018-08-09T10:07:28Z</time>
      </trkpt>
      <trkpt lat="44.18813" lon="6.3407">
        <ele>822.1</ele>
        <time>2018-08-09T10:07:29Z</time>
      </trkpt>
      <trkpt lat="44.18818" lon="6.34068">
        <ele>822.6</ele>
        <time>2018-08-09T10:07:31Z</time>
      </trkpt>
      <trkpt lat="44.18823" lon="6.34068">
        <ele>823.2</ele>
        <time>2018-08-09T10:07:33Z</time>
      </trkpt>
      <trkpt lat="44.18826" lon="6.34068">
        <ele>823.4</ele>
        <time>2018-08-09T10:07:34Z</time>
      </trkpt>
      <trkpt lat="44.1883" lon="6.34066">
        <ele>823.5</ele>
        <time>2018-08-09T10:07:36Z</time>
      </trkpt>
      <trkpt lat="44.18833" lon="6.34065">
        <ele>823.8</ele>
        <time>2018-08-09T10:07:37Z</time>
      </trkpt>
      <trkpt lat="44.18838" lon="6.34065">
        <ele>824.3</ele>
        <time>2018-08-09T10:07:39Z</time>
      </trkpt>
      <trkpt lat="44.18841" lon="6.34065">
        <ele>824.6</ele>
        <time>2018-08-09T10:07:40Z</time>
      </trkpt>
      <trkpt lat="44.18844" lon="6.34065">
        <ele>824.7</ele>
        <time>2018-08-09T10:07:41Z</time>
      </trkpt>
      <trkpt lat="44.18846" lon="6.34064">
        <ele>824.9</ele>
        <time>2018-08-09T10:07:42Z</time>
      </trkpt>
      <trkpt lat="44.18852" lon="6.34062">
        <ele>825.2</ele>
        <time>2018-08-09T10:07:44Z</time>
      </trkpt>
      <trkpt lat="44.18856" lon="6.34063">
        <ele>825.6</ele>
        <time>2018-08-09T10:07:46Z</time>
      </trkpt>
      <trkpt lat="44.18861" lon="6.34064">
        <ele>826</ele>
        <time>2018-08-09T10:07:48Z</time>
      </trkpt>
      <trkpt lat="44.18866" lon="6.34066">
        <ele>826.7</ele>
        <time>2018-08-09T10:07:50Z</time>
      </trkpt>
      <trkpt lat="44.18869" lon="6.34067">
        <ele>827.1</ele>
        <time>2018-08-09T10:07:51Z</time>
      </trkpt>
      <trkpt lat="44.18872" lon="6.34068">
        <ele>827.6</ele>
        <time>2018-08-09T10:07:52Z</time>
      </trkpt>
      <trkpt lat="44.18876" lon="6.34069">
        <ele>828.1</ele>
        <time>2018-08-09T10:07:54Z</time>
      </trkpt>
      <trkpt lat="44.18879" lon="6.3407">
        <ele>828.5</ele>
        <time>2018-08-09T10:07:55Z</time>
      </trkpt>
      <trkpt lat="44.18884" lon="6.3407">
        <ele>828.9</ele>
        <time>2018-08-09T10:07:57Z</time>
      </trkpt>
      <trkpt lat="44.18886" lon="6.34071">
        <ele>829.1</ele>
        <time>2018-08-09T10:07:58Z</time>
      </trkpt>
      <trkpt lat="44.1889" lon="6.34072">
        <ele>829.5</ele>
        <time>2018-08-09T10:07:59Z</time>
      </trkpt>
      <trkpt lat="44.18892" lon="6.34074">
        <ele>829.8</ele>
        <time>2018-08-09T10:08:00Z</time>
      </trkpt>
      <trkpt lat="44.18895" lon="6.34074">
        <ele>830.2</ele>
        <time>2018-08-09T10:08:01Z</time>
      </trkpt>
      <trkpt lat="44.189" lon="6.34075">
        <ele>830.7</ele>
        <time>2018-08-09T10:08:03Z</time>
      </trkpt>
      <trkpt lat="44.18905" lon="6.34078">
        <ele>831.3</ele>
        <time>2018-08-09T10:08:05Z</time>
      </trkpt>
      <trkpt lat="44.18907" lon="6.3408">
        <ele>831.6</ele>
        <time>2018-08-09T10:08:06Z</time>
      </trkpt>
      <trkpt lat="44.18911" lon="6.34081">
        <ele>832</ele>
        <time>2018-08-09T10:08:08Z</time>
      </trkpt>
      <trkpt lat="44.18914" lon="6.3408">
        <ele>832.3</ele>
        <time>2018-08-09T10:08:10Z</time>
      </trkpt>
      <trkpt lat="44.18919" lon="6.34079">
        <ele>832.6</ele>
        <time>2018-08-09T10:08:13Z</time>
      </trkpt>
      <trkpt lat="44.18921" lon="6.34075">
        <ele>832.9</ele>
        <time>2018-08-09T10:08:15Z</time>
      </trkpt>
      <trkpt lat="44.18922" lon="6.34072">
        <ele>833.2</ele>
        <time>2018-08-09T10:08:17Z</time>
      </trkpt>
      <trkpt lat="44.18923" lon="6.34067">
        <ele>833.5</ele>
        <time>2018-08-09T10:08:19Z</time>
      </trkpt>
      <trkpt lat="44.18925" lon="6.34062">
        <ele>833.7</ele>
        <time>2018-08-09T10:08:21Z</time>
      </trkpt>
      <trkpt lat="44.1893" lon="6.3406">
        <ele>833.7</ele>
        <time>2018-08-09T10:08:23Z</time>
      </trkpt>
      <trkpt lat="44.18933" lon="6.34057">
        <ele>833.7</ele>
        <time>2018-08-09T10:08:25Z</time>
      </trkpt>
      <trkpt lat="44.18936" lon="6.34057">
        <ele>833.7</ele>
        <time>2018-08-09T10:08:28Z</time>
      </trkpt>
      <trkpt lat="44.18941" lon="6.34058">
        <ele>833.8</ele>
        <time>2018-08-09T10:08:31Z</time>
      </trkpt>
      <trkpt lat="44.18943" lon="6.34058">
        <ele>834.1</ele>
        <time>2018-08-09T10:08:33Z</time>
      </trkpt>
      <trkpt lat="44.18947" lon="6.34057">
        <ele>834.3</ele>
        <time>2018-08-09T10:08:35Z</time>
      </trkpt>
      <trkpt lat="44.18951" lon="6.34057">
        <ele>834.5</ele>
        <time>2018-08-09T10:08:37Z</time>
      </trkpt>
      <trkpt lat="44.18955" lon="6.34057">
        <ele>834.8</ele>
        <time>2018-08-09T10:08:39Z</time>
      </trkpt>
      <trkpt lat="44.1896" lon="6.34058">
        <ele>835.2</ele>
        <time>2018-08-09T10:08:41Z</time>
      </trkpt>
      <trkpt lat="44.18964" lon="6.34057">
        <ele>835.6</ele>
        <time>2018-08-09T10:08:43Z</time>
      </trkpt>
      <trkpt lat="44.18967" lon="6.34056">
        <ele>836.1</ele>
        <time>2018-08-09T10:08:45Z</time>
      </trkpt>
      <trkpt lat="44.1897" lon="6.34054">
        <ele>836.4</ele>
        <time>2018-08-09T10:08:47Z</time>
      </trkpt>
      <trkpt lat="44.18974" lon="6.34052">
        <ele>836.6</ele>
        <time>2018-08-09T10:08:50Z</time>
      </trkpt>
      <trkpt lat="44.18978" lon="6.34051">
        <ele>836.8</ele>
        <time>2018-08-09T10:08:52Z</time>
      </trkpt>
      <trkpt lat="44.18981" lon="6.3405">
        <ele>837.2</ele>
        <time>2018-08-09T10:08:54Z</time>
      </trkpt>
      <trkpt lat="44.18984" lon="6.34048">
        <ele>837.6</ele>
        <time>2018-08-09T10:08:56Z</time>
      </trkpt>
      <trkpt lat="44.18987" lon="6.34048">
        <ele>837.9</ele>
        <time>2018-08-09T10:08:58Z</time>
      </trkpt>
      <trkpt lat="44.18991" lon="6.34046">
        <ele>838.3</ele>
        <time>2018-08-09T10:09:01Z</time>
      </trkpt>
      <trkpt lat="44.18994" lon="6.34044">
        <ele>838.6</ele>
        <time>2018-08-09T10:09:03Z</time>
      </trkpt>
      <trkpt lat="44.18997" lon="6.34043">
        <ele>838.9</ele>
        <time>2018-08-09T10:09:06Z</time>
      </trkpt>
      <trkpt lat="44.19" lon="6.34041">
        <ele>839.1</ele>
        <time>2018-08-09T10:09:08Z</time>
      </trkpt>
      <trkpt lat="44.19004" lon="6.34041">
        <ele>839.4</ele>
        <time>2018-08-09T10:09:10Z</time>
      </trkpt>
      <trkpt lat="44.19007" lon="6.34042">
        <ele>839.8</ele>
        <time>2018-08-09T10:09:12Z</time>
      </trkpt>
      <trkpt lat="44.19011" lon="6.34044">
        <ele>840.2</ele>
        <time>2018-08-09T10:09:14Z</time>
      </trkpt>
      <trkpt lat="44.19014" lon="6.34045">
        <ele>840.5</ele>
        <time>2018-08-09T10:09:17Z</time>
      </trkpt>
      <trkpt lat="44.19018" lon="6.34046">
        <ele>840.7</ele>
        <time>2018-08-09T10:09:19Z</time>
      </trkpt>
      <trkpt lat="44.19022" lon="6.34047">
        <ele>841.1</ele>
        <time>2018-08-09T10:09:21Z</time>
      </trkpt>
      <trkpt lat="44.19025" lon="6.34047">
        <ele>841.4</ele>
        <time>2018-08-09T10:09:24Z</time>
      </trkpt>
      <trkpt lat="44.19029" lon="6.34046">
        <ele>841.7</ele>
        <time>2018-08-09T10:09:27Z</time>
      </trkpt>
      <trkpt lat="44.19032" lon="6.34045">
        <ele>842</ele>
        <time>2018-08-09T10:09:29Z</time>
      </trkpt>
      <trkpt lat="44.19034" lon="6.34043">
        <ele>842.2</ele>
        <time>2018-08-09T10:09:32Z</time>
      </trkpt>
      <trkpt lat="44.19037" lon="6.34042">
        <ele>842.5</ele>
        <time>2018-08-09T10:09:34Z</time>
      </trkpt>
      <trkpt lat="44.1904" lon="6.3404">
        <ele>842.7</ele>
        <time>2018-08-09T10:09:38Z</time>
      </trkpt>
      <trkpt lat="44.19044" lon="6.34038">
        <ele>843.2</ele>
        <time>2018-08-09T10:09:42Z</time>
      </trkpt>
      <trkpt lat="44.19047" lon="6.34037">
        <ele>843.7</ele>
        <time>2018-08-09T10:09:45Z</time>
      </trkpt>
      <trkpt lat="44.1905" lon="6.34037">
        <ele>844.3</ele>
        <time>2018-08-09T10:09:48Z</time>
      </trkpt>
      <trkpt lat="44.19053" lon="6.34038">
        <ele>844.9</ele>
        <time>2018-08-09T10:09:51Z</time>
      </trkpt>
      <trkpt lat="44.19056" lon="6.34038">
        <ele>845.2</ele>
        <time>2018-08-09T10:09:53Z</time>
      </trkpt>
      <trkpt lat="44.19059" lon="6.34037">
        <ele>845.5</ele>
        <time>2018-08-09T10:09:57Z</time>
      </trkpt>
      <trkpt lat="44.19062" lon="6.34036">
        <ele>845.8</ele>
        <time>2018-08-09T10:10:01Z</time>
      </trkpt>
      <trkpt lat="44.19065" lon="6.34036">
        <ele>846.3</ele>
        <time>2018-08-09T10:10:04Z</time>
      </trkpt>
      <trkpt lat="44.19068" lon="6.34035">
        <ele>846.8</ele>
        <time>2018-08-09T10:10:07Z</time>
      </trkpt>
      <trkpt lat="44.19071" lon="6.34034">
        <ele>847.3</ele>
        <time>2018-08-09T10:10:09Z</time>
      </trkpt>
      <trkpt lat="44.19074" lon="6.34033">
        <ele>848</ele>
        <time>2018-08-09T10:10:11Z</time>
      </trkpt>
      <trkpt lat="44.19076" lon="6.34031">
        <ele>848.7</ele>
        <time>2018-08-09T10:10:15Z</time>
      </trkpt>
      <trkpt lat="44.1908" lon="6.34032">
        <ele>849.2</ele>
        <time>2018-08-09T10:10:18Z</time>
      </trkpt>
      <trkpt lat="44.19083" lon="6.34031">
        <ele>849.5</ele>
        <time>2018-08-09T10:10:20Z</time>
      </trkpt>
      <trkpt lat="44.19086" lon="6.34031">
        <ele>849.9</ele>
        <time>2018-08-09T10:10:22Z</time>
      </trkpt>
      <trkpt lat="44.19089" lon="6.3403">
        <ele>850.4</ele>
        <time>2018-08-09T10:10:24Z</time>
      </trkpt>
      <trkpt lat="44.19092" lon="6.3403">
        <ele>850.8</ele>
        <time>2018-08-09T10:10:28Z</time>
      </trkpt>
      <trkpt lat="44.19096" lon="6.34029">
        <ele>851.3</ele>
        <time>2018-08-09T10:10:31Z</time>
      </trkpt>
      <trkpt lat="44.19099" lon="6.34029">
        <ele>851.8</ele>
        <time>2018-08-09T10:10:33Z</time>
      </trkpt>
      <trkpt lat="44.19102" lon="6.34029">
        <ele>852.1</ele>
        <time>2018-08-09T10:10:34Z</time>
      </trkpt>
      <trkpt lat="44.19105" lon="6.3403">
        <ele>852.8</ele>
        <time>2018-08-09T10:10:37Z</time>
      </trkpt>
      <trkpt lat="44.19107" lon="6.34026">
        <ele>853.3</ele>
        <time>2018-08-09T10:10:40Z</time>
      </trkpt>
      <trkpt lat="44.19109" lon="6.34024">
        <ele>853.7</ele>
        <time>2018-08-09T10:10:42Z</time>
      </trkpt>
      <trkpt lat="44.19113" lon="6.34024">
        <ele>854.2</ele>
        <time>2018-08-09T10:10:45Z</time>
      </trkpt>
      <trkpt lat="44.19116" lon="6.34023">
        <ele>854.6</ele>
        <time>2018-08-09T10:10:49Z</time>
      </trkpt>
      <trkpt lat="44.19119" lon="6.3402">
        <ele>855.4</ele>
        <time>2018-08-09T10:10:53Z</time>
      </trkpt>
      <trkpt lat="44.19121" lon="6.34018">
        <ele>856.1</ele>
        <time>2018-08-09T10:10:55Z</time>
      </trkpt>
      <trkpt lat="44.19125" lon="6.34016">
        <ele>856.9</ele>
        <time>2018-08-09T10:10:58Z</time>
      </trkpt>
      <trkpt lat="44.19129" lon="6.34015">
        <ele>857.5</ele>
        <time>2018-08-09T10:11:01Z</time>
      </trkpt>
      <trkpt lat="44.19131" lon="6.34016">
        <ele>858</ele>
        <time>2018-08-09T10:11:04Z</time>
      </trkpt>
      <trkpt lat="44.19135" lon="6.34016">
        <ele>858.3</ele>
        <time>2018-08-09T10:11:07Z</time>
      </trkpt>
      <trkpt lat="44.19137" lon="6.34017">
        <ele>858.5</ele>
        <time>2018-08-09T10:11:09Z</time>
      </trkpt>
      <trkpt lat="44.19141" lon="6.34018">
        <ele>858.9</ele>
        <time>2018-08-09T10:11:11Z</time>
      </trkpt>
      <trkpt lat="44.19145" lon="6.34019">
        <ele>859.2</ele>
        <time>2018-08-09T10:11:13Z</time>
      </trkpt>
      <trkpt lat="44.19148" lon="6.34018">
        <ele>859.4</ele>
        <time>2018-08-09T10:11:17Z</time>
      </trkpt>
      <trkpt lat="44.19151" lon="6.34016">
        <ele>859.5</ele>
        <time>2018-08-09T10:11:20Z</time>
      </trkpt>
      <trkpt lat="44.19155" lon="6.34018">
        <ele>859.6</ele>
        <time>2018-08-09T10:11:24Z</time>
      </trkpt>
      <trkpt lat="44.19158" lon="6.34019">
        <ele>859.7</ele>
        <time>2018-08-09T10:11:26Z</time>
      </trkpt>
      <trkpt lat="44.19161" lon="6.34021">
        <ele>859.7</ele>
        <time>2018-08-09T10:11:28Z</time>
      </trkpt>
      <trkpt lat="44.19164" lon="6.34022">
        <ele>859.8</ele>
        <time>2018-08-09T10:11:30Z</time>
      </trkpt>
      <trkpt lat="44.19168" lon="6.34024">
        <ele>859.8</ele>
        <time>2018-08-09T10:11:32Z</time>
      </trkpt>
      <trkpt lat="44.19171" lon="6.34026">
        <ele>859.9</ele>
        <time>2018-08-09T10:11:34Z</time>
      </trkpt>
      <trkpt lat="44.19173" lon="6.34029">
        <ele>859.7</ele>
        <time>2018-08-09T10:11:36Z</time>
      </trkpt>
      <trkpt lat="44.19176" lon="6.34031">
        <ele>859.3</ele>
        <time>2018-08-09T10:11:38Z</time>
      </trkpt>
      <trkpt lat="44.19179" lon="6.34032">
        <ele>859</ele>
        <time>2018-08-09T10:11:40Z</time>
      </trkpt>
      <trkpt lat="44.19182" lon="6.34034">
        <ele>858.6</ele>
        <time>2018-08-09T10:11:43Z</time>
      </trkpt>
      <trkpt lat="44.19187" lon="6.34034">
        <ele>858.2</ele>
        <time>2018-08-09T10:11:46Z</time>
      </trkpt>
      <trkpt lat="44.1919" lon="6.34034">
        <ele>857.9</ele>
        <time>2018-08-09T10:11:47Z</time>
      </trkpt>
      <trkpt lat="44.19192" lon="6.34034">
        <ele>857.7</ele>
        <time>2018-08-09T10:11:48Z</time>
      </trkpt>
      <trkpt lat="44.19196" lon="6.34035">
        <ele>857.4</ele>
        <time>2018-08-09T10:11:52Z</time>
      </trkpt>
      <trkpt lat="44.19199" lon="6.34037">
        <ele>857.2</ele>
        <time>2018-08-09T10:11:56Z</time>
      </trkpt>
      <trkpt lat="44.19201" lon="6.3404">
        <ele>857</ele>
        <time>2018-08-09T10:11:59Z</time>
      </trkpt>
      <trkpt lat="44.19205" lon="6.34041">
        <ele>856.9</ele>
        <time>2018-08-09T10:12:02Z</time>
      </trkpt>
      <trkpt lat="44.19208" lon="6.3404">
        <ele>857</ele>
        <time>2018-08-09T10:12:07Z</time>
      </trkpt>
      <trkpt lat="44.19211" lon="6.34041">
        <ele>857.2</ele>
        <time>2018-08-09T10:12:11Z</time>
      </trkpt>
      <trkpt lat="44.19214" lon="6.34042">
        <ele>857.2</ele>
        <time>2018-08-09T10:12:13Z</time>
      </trkpt>
      <trkpt lat="44.19217" lon="6.34043">
        <ele>857.1</ele>
        <time>2018-08-09T10:12:15Z</time>
      </trkpt>
      <trkpt lat="44.19219" lon="6.34044">
        <ele>857.1</ele>
        <time>2018-08-09T10:12:17Z</time>
      </trkpt>
      <trkpt lat="44.19223" lon="6.34045">
        <ele>857.3</ele>
        <time>2018-08-09T10:12:19Z</time>
      </trkpt>
      <trkpt lat="44.19227" lon="6.34046">
        <ele>857.5</ele>
        <time>2018-08-09T10:12:22Z</time>
      </trkpt>
      <trkpt lat="44.1923" lon="6.34046">
        <ele>857.7</ele>
        <time>2018-08-09T10:12:25Z</time>
      </trkpt>
      <trkpt lat="44.19233" lon="6.34048">
        <ele>857.9</ele>
        <time>2018-08-09T10:12:28Z</time>
      </trkpt>
      <trkpt lat="44.19236" lon="6.34049">
        <ele>858.1</ele>
        <time>2018-08-09T10:12:31Z</time>
      </trkpt>
      <trkpt lat="44.19239" lon="6.34049">
        <ele>858.3</ele>
        <time>2018-08-09T10:12:33Z</time>
      </trkpt>
      <trkpt lat="44.19242" lon="6.34047">
        <ele>858.5</ele>
        <time>2018-08-09T10:12:38Z</time>
      </trkpt>
      <trkpt lat="44.19247" lon="6.34047">
        <ele>858.8</ele>
        <time>2018-08-09T10:12:44Z</time>
      </trkpt>
      <trkpt lat="44.19251" lon="6.34048">
        <ele>858.9</ele>
        <time>2018-08-09T10:12:48Z</time>
      </trkpt>
      <trkpt lat="44.19253" lon="6.34051">
        <ele>858.8</ele>
        <time>2018-08-09T10:12:50Z</time>
      </trkpt>
      <trkpt lat="44.19256" lon="6.34052">
        <ele>858.7</ele>
        <time>2018-08-09T10:12:52Z</time>
      </trkpt>
      <trkpt lat="44.1926" lon="6.34053">
        <ele>858.9</ele>
        <time>2018-08-09T10:12:55Z</time>
      </trkpt>
      <trkpt lat="44.19263" lon="6.34053">
        <ele>859.2</ele>
        <time>2018-08-09T10:12:58Z</time>
      </trkpt>
      <trkpt lat="44.19266" lon="6.34054">
        <ele>859.3</ele>
        <time>2018-08-09T10:13:00Z</time>
      </trkpt>
      <trkpt lat="44.19268" lon="6.34056">
        <ele>859.2</ele>
        <time>2018-08-09T10:13:04Z</time>
      </trkpt>
      <trkpt lat="44.19272" lon="6.34057">
        <ele>859.2</ele>
        <time>2018-08-09T10:13:06Z</time>
      </trkpt>
      <trkpt lat="44.19276" lon="6.34057">
        <ele>859.5</ele>
        <time>2018-08-09T10:13:08Z</time>
      </trkpt>
      <trkpt lat="44.1928" lon="6.34057">
        <ele>859.8</ele>
        <time>2018-08-09T10:13:11Z</time>
      </trkpt>
      <trkpt lat="44.19284" lon="6.34058">
        <ele>859.9</ele>
        <time>2018-08-09T10:13:14Z</time>
      </trkpt>
      <trkpt lat="44.19287" lon="6.34059">
        <ele>859.8</ele>
        <time>2018-08-09T10:13:16Z</time>
      </trkpt>
      <trkpt lat="44.1929" lon="6.34061">
        <ele>859.8</ele>
        <time>2018-08-09T10:13:18Z</time>
      </trkpt>
      <trkpt lat="44.19294" lon="6.34061">
        <ele>859.8</ele>
        <time>2018-08-09T10:13:21Z</time>
      </trkpt>
      <trkpt lat="44.19298" lon="6.34061">
        <ele>859.9</ele>
        <time>2018-08-09T10:13:25Z</time>
      </trkpt>
      <trkpt lat="44.19301" lon="6.34062">
        <ele>860.2</ele>
        <time>2018-08-09T10:13:27Z</time>
      </trkpt>
      <trkpt lat="44.19304" lon="6.3406">
        <ele>860.5</ele>
        <time>2018-08-09T10:13:30Z</time>
      </trkpt>
      <trkpt lat="44.19307" lon="6.3406">
        <ele>860.8</ele>
        <time>2018-08-09T10:13:33Z</time>
      </trkpt>
      <trkpt lat="44.19311" lon="6.34059">
        <ele>861.2</ele>
        <time>2018-08-09T10:13:36Z</time>
      </trkpt>
      <trkpt lat="44.19315" lon="6.3406">
        <ele>861.5</ele>
        <time>2018-08-09T10:13:38Z</time>
      </trkpt>
      <trkpt lat="44.19319" lon="6.34058">
        <ele>861.9</ele>
        <time>2018-08-09T10:13:41Z</time>
      </trkpt>
      <trkpt lat="44.19322" lon="6.34057">
        <ele>862.2</ele>
        <time>2018-08-09T10:13:43Z</time>
      </trkpt>
      <trkpt lat="44.19325" lon="6.34054">
        <ele>862.4</ele>
        <time>2018-08-09T10:13:46Z</time>
      </trkpt>
      <trkpt lat="44.19329" lon="6.34054">
        <ele>862.7</ele>
        <time>2018-08-09T10:13:49Z</time>
      </trkpt>
      <trkpt lat="44.19332" lon="6.34052">
        <ele>863.2</ele>
        <time>2018-08-09T10:13:51Z</time>
      </trkpt>
      <trkpt lat="44.19336" lon="6.34053">
        <ele>863.8</ele>
        <time>2018-08-09T10:13:54Z</time>
      </trkpt>
      <trkpt lat="44.1934" lon="6.34053">
        <ele>864.1</ele>
        <time>2018-08-09T10:13:56Z</time>
      </trkpt>
      <trkpt lat="44.19343" lon="6.34053">
        <ele>864.3</ele>
        <time>2018-08-09T10:13:59Z</time>
      </trkpt>
      <trkpt lat="44.19346" lon="6.34051">
        <ele>864.7</ele>
        <time>2018-08-09T10:14:01Z</time>
      </trkpt>
      <trkpt lat="44.19349" lon="6.34052">
        <ele>865.2</ele>
        <time>2018-08-09T10:14:04Z</time>
      </trkpt>
      <trkpt lat="44.19352" lon="6.34051">
        <ele>865.6</ele>
        <time>2018-08-09T10:14:06Z</time>
      </trkpt>
      <trkpt lat="44.19355" lon="6.34051">
        <ele>865.8</ele>
        <time>2018-08-09T10:14:10Z</time>
      </trkpt>
      <trkpt lat="44.19359" lon="6.3405">
        <ele>866</ele>
        <time>2018-08-09T10:14:13Z</time>
      </trkpt>
      <trkpt lat="44.19362" lon="6.34051">
        <ele>866.3</ele>
        <time>2018-08-09T10:14:15Z</time>
      </trkpt>
      <trkpt lat="44.19365" lon="6.34051">
        <ele>866.6</ele>
        <time>2018-08-09T10:14:17Z</time>
      </trkpt>
      <trkpt lat="44.19368" lon="6.34051">
        <ele>867</ele>
        <time>2018-08-09T10:14:20Z</time>
      </trkpt>
      <trkpt lat="44.19374" lon="6.34055">
        <ele>867.8</ele>
        <time>2018-08-09T10:14:22Z</time>
      </trkpt>
      <trkpt lat="44.19377" lon="6.34054">
        <ele>868.2</ele>
        <time>2018-08-09T10:14:25Z</time>
      </trkpt>
      <trkpt lat="44.1938" lon="6.34053">
        <ele>868.6</ele>
        <time>2018-08-09T10:14:29Z</time>
      </trkpt>
      <trkpt lat="44.19383" lon="6.34054">
        <ele>869</ele>
        <time>2018-08-09T10:14:31Z</time>
      </trkpt>
      <trkpt lat="44.19387" lon="6.34054">
        <ele>869.4</ele>
        <time>2018-08-09T10:14:34Z</time>
      </trkpt>
      <trkpt lat="44.1939" lon="6.34054">
        <ele>869.7</ele>
        <time>2018-08-09T10:14:36Z</time>
      </trkpt>
      <trkpt lat="44.19393" lon="6.34054">
        <ele>870</ele>
        <time>2018-08-09T10:14:38Z</time>
      </trkpt>
      <trkpt lat="44.19396" lon="6.34054">
        <ele>870.5</ele>
        <time>2018-08-09T10:14:40Z</time>
      </trkpt>
      <trkpt lat="44.19399" lon="6.34055">
        <ele>871.1</ele>
        <time>2018-08-09T10:14:42Z</time>
      </trkpt>
      <trkpt lat="44.19402" lon="6.34058">
        <ele>871.7</ele>
        <time>2018-08-09T10:14:45Z</time>
      </trkpt>
      <trkpt lat="44.19406" lon="6.34058">
        <ele>872.4</ele>
        <time>2018-08-09T10:14:48Z</time>
      </trkpt>
      <trkpt lat="44.19409" lon="6.34057">
        <ele>872.8</ele>
        <time>2018-08-09T10:14:50Z</time>
      </trkpt>
      <trkpt lat="44.19413" lon="6.34058">
        <ele>873.6</ele>
        <time>2018-08-09T10:14:52Z</time>
      </trkpt>
      <trkpt lat="44.19418" lon="6.34056">
        <ele>874.4</ele>
        <time>2018-08-09T10:14:55Z</time>
      </trkpt>
      <trkpt lat="44.19421" lon="6.34055">
        <ele>875</ele>
        <time>2018-08-09T10:14:58Z</time>
      </trkpt>
      <trkpt lat="44.19425" lon="6.34055">
        <ele>875.5</ele>
        <time>2018-08-09T10:15:01Z</time>
      </trkpt>
      <trkpt lat="44.19428" lon="6.34055">
        <ele>876.1</ele>
        <time>2018-08-09T10:15:04Z</time>
      </trkpt>
      <trkpt lat="44.19431" lon="6.34055">
        <ele>876.6</ele>
        <time>2018-08-09T10:15:06Z</time>
      </trkpt>
      <trkpt lat="44.19434" lon="6.34057">
        <ele>877.3</ele>
        <time>2018-08-09T10:15:09Z</time>
      </trkpt>
      <trkpt lat="44.19437" lon="6.34058">
        <ele>878</ele>
        <time>2018-08-09T10:15:11Z</time>
      </trkpt>
      <trkpt lat="44.19442" lon="6.34061">
        <ele>878.9</ele>
        <time>2018-08-09T10:15:14Z</time>
      </trkpt>
      <trkpt lat="44.19445" lon="6.34063">
        <ele>879.4</ele>
        <time>2018-08-09T10:15:16Z</time>
      </trkpt>
      <trkpt lat="44.19448" lon="6.34066">
        <ele>879.9</ele>
        <time>2018-08-09T10:15:18Z</time>
      </trkpt>
      <trkpt lat="44.1945" lon="6.34068">
        <ele>880.3</ele>
        <time>2018-08-09T10:15:20Z</time>
      </trkpt>
      <trkpt lat="44.19454" lon="6.34069">
        <ele>881.3</ele>
        <time>2018-08-09T10:15:22Z</time>
      </trkpt>
      <trkpt lat="44.19457" lon="6.3407">
        <ele>882.1</ele>
        <time>2018-08-09T10:15:24Z</time>
      </trkpt>
      <trkpt lat="44.1946" lon="6.34071">
        <ele>883</ele>
        <time>2018-08-09T10:15:26Z</time>
      </trkpt>
      <trkpt lat="44.19464" lon="6.34073">
        <ele>883.9</ele>
        <time>2018-08-09T10:15:28Z</time>
      </trkpt>
      <trkpt lat="44.19467" lon="6.34073">
        <ele>884.8</ele>
        <time>2018-08-09T10:15:30Z</time>
      </trkpt>
      <trkpt lat="44.1947" lon="6.3407">
        <ele>885.3</ele>
        <time>2018-08-09T10:15:32Z</time>
      </trkpt>
      <trkpt lat="44.19473" lon="6.34069">
        <ele>885.8</ele>
        <time>2018-08-09T10:15:34Z</time>
      </trkpt>
      <trkpt lat="44.19476" lon="6.34068">
        <ele>886.7</ele>
        <time>2018-08-09T10:15:36Z</time>
      </trkpt>
      <trkpt lat="44.19479" lon="6.34066">
        <ele>887.5</ele>
        <time>2018-08-09T10:15:38Z</time>
      </trkpt>
      <trkpt lat="44.19482" lon="6.34065">
        <ele>888.4</ele>
        <time>2018-08-09T10:15:40Z</time>
      </trkpt>
      <trkpt lat="44.19486" lon="6.34064">
        <ele>889.1</ele>
        <time>2018-08-09T10:15:43Z</time>
      </trkpt>
      <trkpt lat="44.19489" lon="6.34063">
        <ele>889.7</ele>
        <time>2018-08-09T10:15:46Z</time>
      </trkpt>
      <trkpt lat="44.19492" lon="6.34062">
        <ele>890.3</ele>
        <time>2018-08-09T10:15:48Z</time>
      </trkpt>
      <trkpt lat="44.19496" lon="6.34063">
        <ele>891</ele>
        <time>2018-08-09T10:15:51Z</time>
      </trkpt>
      <trkpt lat="44.19499" lon="6.34064">
        <ele>891.9</ele>
        <time>2018-08-09T10:15:53Z</time>
      </trkpt>
      <trkpt lat="44.19502" lon="6.34065">
        <ele>892.7</ele>
        <time>2018-08-09T10:15:55Z</time>
      </trkpt>
      <trkpt lat="44.19506" lon="6.34067">
        <ele>893.4</ele>
        <time>2018-08-09T10:15:57Z</time>
      </trkpt>
      <trkpt lat="44.19508" lon="6.3407">
        <ele>894.2</ele>
        <time>2018-08-09T10:15:59Z</time>
      </trkpt>
      <trkpt lat="44.19511" lon="6.34071">
        <ele>894.7</ele>
        <time>2018-08-09T10:16:01Z</time>
      </trkpt>
      <trkpt lat="44.19514" lon="6.34074">
        <ele>895.3</ele>
        <time>2018-08-09T10:16:03Z</time>
      </trkpt>
      <trkpt lat="44.19518" lon="6.34075">
        <ele>895.8</ele>
        <time>2018-08-09T10:16:05Z</time>
      </trkpt>
      <trkpt lat="44.19522" lon="6.34076">
        <ele>896.4</ele>
        <time>2018-08-09T10:16:07Z</time>
      </trkpt>
      <trkpt lat="44.19525" lon="6.34075">
        <ele>897</ele>
        <time>2018-08-09T10:16:09Z</time>
      </trkpt>
      <trkpt lat="44.19529" lon="6.34076">
        <ele>898.3</ele>
        <time>2018-08-09T10:16:11Z</time>
      </trkpt>
      <trkpt lat="44.19532" lon="6.34077">
        <ele>898.8</ele>
        <time>2018-08-09T10:16:13Z</time>
      </trkpt>
      <trkpt lat="44.19536" lon="6.34076">
        <ele>899.3</ele>
        <time>2018-08-09T10:16:15Z</time>
      </trkpt>
      <trkpt lat="44.19539" lon="6.34079">
        <ele>899.5</ele>
        <time>2018-08-09T10:16:17Z</time>
      </trkpt>
      <trkpt lat="44.19543" lon="6.34079">
        <ele>899.8</ele>
        <time>2018-08-09T10:16:19Z</time>
      </trkpt>
      <trkpt lat="44.19545" lon="6.34078">
        <ele>900.4</ele>
        <time>2018-08-09T10:16:21Z</time>
      </trkpt>
      <trkpt lat="44.19549" lon="6.34076">
        <ele>900.7</ele>
        <time>2018-08-09T10:16:23Z</time>
      </trkpt>
      <trkpt lat="44.19553" lon="6.34077">
        <ele>901.4</ele>
        <time>2018-08-09T10:16:25Z</time>
      </trkpt>
      <trkpt lat="44.19556" lon="6.34077">
        <ele>901.4</ele>
        <time>2018-08-09T10:16:28Z</time>
      </trkpt>
      <trkpt lat="44.19559" lon="6.34076">
        <ele>902.1</ele>
        <time>2018-08-09T10:16:31Z</time>
      </trkpt>
      <trkpt lat="44.19562" lon="6.34077">
        <ele>902.1</ele>
        <time>2018-08-09T10:16:34Z</time>
      </trkpt>
      <trkpt lat="44.19565" lon="6.34078">
        <ele>902.4</ele>
        <time>2018-08-09T10:16:37Z</time>
      </trkpt>
      <trkpt lat="44.19567" lon="6.3408">
        <ele>902.3</ele>
        <time>2018-08-09T10:16:40Z</time>
      </trkpt>
      <trkpt lat="44.19571" lon="6.34083">
        <ele>902.3</ele>
        <time>2018-08-09T10:16:43Z</time>
      </trkpt>
      <trkpt lat="44.19575" lon="6.34085">
        <ele>902.8</ele>
        <time>2018-08-09T10:16:46Z</time>
      </trkpt>
      <trkpt lat="44.19579" lon="6.34087">
        <ele>902.8</ele>
        <time>2018-08-09T10:16:48Z</time>
      </trkpt>
      <trkpt lat="44.19582" lon="6.3409">
        <ele>903.1</ele>
        <time>2018-08-09T10:16:50Z</time>
      </trkpt>
      <trkpt lat="44.19585" lon="6.34093">
        <ele>903.2</ele>
        <time>2018-08-09T10:16:52Z</time>
      </trkpt>
      <trkpt lat="44.19588" lon="6.34094">
        <ele>903.6</ele>
        <time>2018-08-09T10:16:54Z</time>
      </trkpt>
      <trkpt lat="44.19593" lon="6.34096">
        <ele>903.7</ele>
        <time>2018-08-09T10:16:56Z</time>
      </trkpt>
      <trkpt lat="44.19596" lon="6.341">
        <ele>903.9</ele>
        <time>2018-08-09T10:16:58Z</time>
      </trkpt>
      <trkpt lat="44.19598" lon="6.34105">
        <ele>904</ele>
        <time>2018-08-09T10:17:00Z</time>
      </trkpt>
      <trkpt lat="44.19601" lon="6.3411">
        <ele>904.1</ele>
        <time>2018-08-09T10:17:02Z</time>
      </trkpt>
      <trkpt lat="44.19603" lon="6.34116">
        <ele>904.2</ele>
        <time>2018-08-09T10:17:04Z</time>
      </trkpt>
      <trkpt lat="44.19605" lon="6.34119">
        <ele>904</ele>
        <time>2018-08-09T10:17:05Z</time>
      </trkpt>
      <trkpt lat="44.19607" lon="6.34123">
        <ele>904.2</ele>
        <time>2018-08-09T10:17:06Z</time>
      </trkpt>
      <trkpt lat="44.19609" lon="6.34127">
        <ele>904.5</ele>
        <time>2018-08-09T10:17:07Z</time>
      </trkpt>
      <trkpt lat="44.1961" lon="6.34131">
        <ele>904.4</ele>
        <time>2018-08-09T10:17:08Z</time>
      </trkpt>
      <trkpt lat="44.19614" lon="6.34132">
        <ele>904.9</ele>
        <time>2018-08-09T10:17:09Z</time>
      </trkpt>
      <trkpt lat="44.19616" lon="6.34133">
        <ele>905.3</ele>
        <time>2018-08-09T10:17:10Z</time>
      </trkpt>
      <trkpt lat="44.19619" lon="6.3413">
        <ele>905.7</ele>
        <time>2018-08-09T10:17:12Z</time>
      </trkpt>
      <trkpt lat="44.19623" lon="6.3413">
        <ele>906</ele>
        <time>2018-08-09T10:17:14Z</time>
      </trkpt>
      <trkpt lat="44.19625" lon="6.34131">
        <ele>906.3</ele>
        <time>2018-08-09T10:17:15Z</time>
      </trkpt>
      <trkpt lat="44.19629" lon="6.34132">
        <ele>906.6</ele>
        <time>2018-08-09T10:17:17Z</time>
      </trkpt>
      <trkpt lat="44.19632" lon="6.34134">
        <ele>906.9</ele>
        <time>2018-08-09T10:17:18Z</time>
      </trkpt>
      <trkpt lat="44.19634" lon="6.34137">
        <ele>907.2</ele>
        <time>2018-08-09T10:17:19Z</time>
      </trkpt>
      <trkpt lat="44.19638" lon="6.34137">
        <ele>907.6</ele>
        <time>2018-08-09T10:17:23Z</time>
      </trkpt>
      <trkpt lat="44.19641" lon="6.34141">
        <ele>907.9</ele>
        <time>2018-08-09T10:17:32Z</time>
      </trkpt>
      <trkpt lat="44.19643" lon="6.34143">
        <ele>908.2</ele>
        <time>2018-08-09T10:17:35Z</time>
      </trkpt>
      <trkpt lat="44.19647" lon="6.34147">
        <ele>908.6</ele>
        <time>2018-08-09T10:17:38Z</time>
      </trkpt>
      <trkpt lat="44.1965" lon="6.34148">
        <ele>908.9</ele>
        <time>2018-08-09T10:17:40Z</time>
      </trkpt>
      <trkpt lat="44.19653" lon="6.3415">
        <ele>909.1</ele>
        <time>2018-08-09T10:17:43Z</time>
      </trkpt>
      <trkpt lat="44.19656" lon="6.34151">
        <ele>909.3</ele>
        <time>2018-08-09T10:17:47Z</time>
      </trkpt>
      <trkpt lat="44.19659" lon="6.34152">
        <ele>909.5</ele>
        <time>2018-08-09T10:17:49Z</time>
      </trkpt>
      <trkpt lat="44.19663" lon="6.34154">
        <ele>909.9</ele>
        <time>2018-08-09T10:17:52Z</time>
      </trkpt>
      <trkpt lat="44.19666" lon="6.34155">
        <ele>910.2</ele>
        <time>2018-08-09T10:17:57Z</time>
      </trkpt>
      <trkpt lat="44.19669" lon="6.34157">
        <ele>910.5</ele>
        <time>2018-08-09T10:18:01Z</time>
      </trkpt>
      <trkpt lat="44.19672" lon="6.34159">
        <ele>910.7</ele>
        <time>2018-08-09T10:18:05Z</time>
      </trkpt>
      <trkpt lat="44.19675" lon="6.34162">
        <ele>910.9</ele>
        <time>2018-08-09T10:18:07Z</time>
      </trkpt>
      <trkpt lat="44.19678" lon="6.34162">
        <ele>911.1</ele>
        <time>2018-08-09T10:18:11Z</time>
      </trkpt>
      <trkpt lat="44.1968" lon="6.34164">
        <ele>911.4</ele>
        <time>2018-08-09T10:18:13Z</time>
      </trkpt>
      <trkpt lat="44.19684" lon="6.34165">
        <ele>911.7</ele>
        <time>2018-08-09T10:18:16Z</time>
      </trkpt>
      <trkpt lat="44.19687" lon="6.34165">
        <ele>911.9</ele>
        <time>2018-08-09T10:18:18Z</time>
      </trkpt>
      <trkpt lat="44.19691" lon="6.34165">
        <ele>912.1</ele>
        <time>2018-08-09T10:18:20Z</time>
      </trkpt>
      <trkpt lat="44.19694" lon="6.34166">
        <ele>912.4</ele>
        <time>2018-08-09T10:18:22Z</time>
      </trkpt>
      <trkpt lat="44.19697" lon="6.34165">
        <ele>912.7</ele>
        <time>2018-08-09T10:18:27Z</time>
      </trkpt>
      <trkpt lat="44.19701" lon="6.34168">
        <ele>913.3</ele>
        <time>2018-08-09T10:18:31Z</time>
      </trkpt>
      <trkpt lat="44.19703" lon="6.34171">
        <ele>913.6</ele>
        <time>2018-08-09T10:18:33Z</time>
      </trkpt>
      <trkpt lat="44.19706" lon="6.34173">
        <ele>913.8</ele>
        <time>2018-08-09T10:18:35Z</time>
      </trkpt>
      <trkpt lat="44.19708" lon="6.34177">
        <ele>914.2</ele>
        <time>2018-08-09T10:18:38Z</time>
      </trkpt>
      <trkpt lat="44.19709" lon="6.34181">
        <ele>914.2</ele>
        <time>2018-08-09T10:18:40Z</time>
      </trkpt>
      <trkpt lat="44.19708" lon="6.34185">
        <ele>914.2</ele>
        <time>2018-08-09T10:18:43Z</time>
      </trkpt>
      <trkpt lat="44.19708" lon="6.34189">
        <ele>914.4</ele>
        <time>2018-08-09T10:18:46Z</time>
      </trkpt>
      <trkpt lat="44.19708" lon="6.34193">
        <ele>914.6</ele>
        <time>2018-08-09T10:18:48Z</time>
      </trkpt>
      <trkpt lat="44.19709" lon="6.34197">
        <ele>914.8</ele>
        <time>2018-08-09T10:18:51Z</time>
      </trkpt>
      <trkpt lat="44.19712" lon="6.34202">
        <ele>915</ele>
        <time>2018-08-09T10:18:54Z</time>
      </trkpt>
      <trkpt lat="44.19713" lon="6.34206">
        <ele>915.2</ele>
        <time>2018-08-09T10:18:56Z</time>
      </trkpt>
      <trkpt lat="44.19715" lon="6.3421">
        <ele>915.5</ele>
        <time>2018-08-09T10:18:59Z</time>
      </trkpt>
      <trkpt lat="44.19718" lon="6.34213">
        <ele>915.7</ele>
        <time>2018-08-09T10:19:01Z</time>
      </trkpt>
      <trkpt lat="44.1972" lon="6.34216">
        <ele>916.1</ele>
        <time>2018-08-09T10:19:04Z</time>
      </trkpt>
      <trkpt lat="44.19723" lon="6.34219">
        <ele>916.4</ele>
        <time>2018-08-09T10:19:06Z</time>
      </trkpt>
      <trkpt lat="44.19724" lon="6.34222">
        <ele>916.7</ele>
        <time>2018-08-09T10:19:08Z</time>
      </trkpt>
      <trkpt lat="44.19724" lon="6.34226">
        <ele>916.8</ele>
        <time>2018-08-09T10:19:10Z</time>
      </trkpt>
      <trkpt lat="44.19725" lon="6.3423">
        <ele>916.9</ele>
        <time>2018-08-09T10:19:12Z</time>
      </trkpt>
      <trkpt lat="44.19727" lon="6.34235">
        <ele>917</ele>
        <time>2018-08-09T10:19:16Z</time>
      </trkpt>
      <trkpt lat="44.1973" lon="6.34238">
        <ele>917</ele>
        <time>2018-08-09T10:19:18Z</time>
      </trkpt>
      <trkpt lat="44.19732" lon="6.3424">
        <ele>917.1</ele>
        <time>2018-08-09T10:19:21Z</time>
      </trkpt>
      <trkpt lat="44.19736" lon="6.3424">
        <ele>917.2</ele>
        <time>2018-08-09T10:19:23Z</time>
      </trkpt>
      <trkpt lat="44.19739" lon="6.34239">
        <ele>917.2</ele>
        <time>2018-08-09T10:19:26Z</time>
      </trkpt>
      <trkpt lat="44.19742" lon="6.3424">
        <ele>917.3</ele>
        <time>2018-08-09T10:19:28Z</time>
      </trkpt>
      <trkpt lat="44.19745" lon="6.34241">
        <ele>917.3</ele>
        <time>2018-08-09T10:19:31Z</time>
      </trkpt>
      <trkpt lat="44.19748" lon="6.34243">
        <ele>917.4</ele>
        <time>2018-08-09T10:19:34Z</time>
      </trkpt>
      <trkpt lat="44.19751" lon="6.34242">
        <ele>917.4</ele>
        <time>2018-08-09T10:19:37Z</time>
      </trkpt>
      <trkpt lat="44.19755" lon="6.34241">
        <ele>917.4</ele>
        <time>2018-08-09T10:19:40Z</time>
      </trkpt>
      <trkpt lat="44.19759" lon="6.34241">
        <ele>917.4</ele>
        <time>2018-08-09T10:19:43Z</time>
      </trkpt>
      <trkpt lat="44.19762" lon="6.34242">
        <ele>917.5</ele>
        <time>2018-08-09T10:19:45Z</time>
      </trkpt>
      <trkpt lat="44.19764" lon="6.3424">
        <ele>917.5</ele>
        <time>2018-08-09T10:19:47Z</time>
      </trkpt>
      <trkpt lat="44.19768" lon="6.3424">
        <ele>917.5</ele>
        <time>2018-08-09T10:19:49Z</time>
      </trkpt>
      <trkpt lat="44.19771" lon="6.34239">
        <ele>917.5</ele>
        <time>2018-08-09T10:19:51Z</time>
      </trkpt>
      <trkpt lat="44.19774" lon="6.34238">
        <ele>917.5</ele>
        <time>2018-08-09T10:19:54Z</time>
      </trkpt>
      <trkpt lat="44.19777" lon="6.34239">
        <ele>917.5</ele>
        <time>2018-08-09T10:19:56Z</time>
      </trkpt>
      <trkpt lat="44.19781" lon="6.34239">
        <ele>917.5</ele>
        <time>2018-08-09T10:19:59Z</time>
      </trkpt>
      <trkpt lat="44.19784" lon="6.34238">
        <ele>917.4</ele>
        <time>2018-08-09T10:20:03Z</time>
      </trkpt>
      <trkpt lat="44.19788" lon="6.34238">
        <ele>917.3</ele>
        <time>2018-08-09T10:20:06Z</time>
      </trkpt>
      <trkpt lat="44.19791" lon="6.34239">
        <ele>917.1</ele>
        <time>2018-08-09T10:20:08Z</time>
      </trkpt>
      <trkpt lat="44.19794" lon="6.34236">
        <ele>916.6</ele>
        <time>2018-08-09T10:20:13Z</time>
      </trkpt>
      <trkpt lat="44.19796" lon="6.34233">
        <ele>916.1</ele>
        <time>2018-08-09T10:20:15Z</time>
      </trkpt>
      <trkpt lat="44.19798" lon="6.3423">
        <ele>915.6</ele>
        <time>2018-08-09T10:20:18Z</time>
      </trkpt>
      <trkpt lat="44.19801" lon="6.34228">
        <ele>915.1</ele>
        <time>2018-08-09T10:20:20Z</time>
      </trkpt>
      <trkpt lat="44.19804" lon="6.34226">
        <ele>914.4</ele>
        <time>2018-08-09T10:20:22Z</time>
      </trkpt>
      <trkpt lat="44.19806" lon="6.34225">
        <ele>914</ele>
        <time>2018-08-09T10:20:24Z</time>
      </trkpt>
      <trkpt lat="44.1981" lon="6.34224">
        <ele>913.3</ele>
        <time>2018-08-09T10:20:26Z</time>
      </trkpt>
      <trkpt lat="44.19813" lon="6.34224">
        <ele>912.7</ele>
        <time>2018-08-09T10:20:28Z</time>
      </trkpt>
      <trkpt lat="44.19818" lon="6.34225">
        <ele>912.1</ele>
        <time>2018-08-09T10:20:30Z</time>
      </trkpt>
      <trkpt lat="44.19823" lon="6.34228">
        <ele>911.4</ele>
        <time>2018-08-09T10:20:32Z</time>
      </trkpt>
      <trkpt lat="44.19828" lon="6.34228">
        <ele>910.8</ele>
        <time>2018-08-09T10:20:34Z</time>
      </trkpt>
      <trkpt lat="44.19832" lon="6.34226">
        <ele>910.4</ele>
        <time>2018-08-09T10:20:36Z</time>
      </trkpt>
      <trkpt lat="44.19835" lon="6.34225">
        <ele>910.2</ele>
        <time>2018-08-09T10:20:37Z</time>
      </trkpt>
      <trkpt lat="44.19839" lon="6.34222">
        <ele>910.3</ele>
        <time>2018-08-09T10:20:39Z</time>
      </trkpt>
      <trkpt lat="44.19844" lon="6.34223">
        <ele>910.9</ele>
        <time>2018-08-09T10:20:41Z</time>
      </trkpt>
      <trkpt lat="44.19849" lon="6.34224">
        <ele>911.9</ele>
        <time>2018-08-09T10:20:43Z</time>
      </trkpt>
      <trkpt lat="44.19852" lon="6.34228">
        <ele>913.3</ele>
        <time>2018-08-09T10:20:45Z</time>
      </trkpt>
      <trkpt lat="44.19855" lon="6.34233">
        <ele>915.1</ele>
        <time>2018-08-09T10:20:47Z</time>
      </trkpt>
      <trkpt lat="44.19859" lon="6.34236">
        <ele>916.3</ele>
        <time>2018-08-09T10:20:51Z</time>
      </trkpt>
      <trkpt lat="44.19862" lon="6.34243">
        <ele>918.2</ele>
        <time>2018-08-09T10:21:29Z</time>
      </trkpt>
      <trkpt lat="44.19864" lon="6.34245">
        <ele>919</ele>
        <time>2018-08-09T10:21:32Z</time>
      </trkpt>
      <trkpt lat="44.19867" lon="6.34245">
        <ele>919.8</ele>
        <time>2018-08-09T10:21:37Z</time>
      </trkpt>
      <trkpt lat="44.19869" lon="6.34241">
        <ele>920.8</ele>
        <time>2018-08-09T10:21:42Z</time>
      </trkpt>
      <trkpt lat="44.19872" lon="6.34239">
        <ele>921.5</ele>
        <time>2018-08-09T10:21:49Z</time>
      </trkpt>
      <trkpt lat="44.19873" lon="6.34235">
        <ele>922.3</ele>
        <time>2018-08-09T10:21:54Z</time>
      </trkpt>
      <trkpt lat="44.19875" lon="6.34232">
        <ele>922.8</ele>
        <time>2018-08-09T10:21:58Z</time>
      </trkpt>
      <trkpt lat="44.19878" lon="6.34232">
        <ele>923.3</ele>
        <time>2018-08-09T10:22:01Z</time>
      </trkpt>
      <trkpt lat="44.19881" lon="6.34232">
        <ele>923.8</ele>
        <time>2018-08-09T10:22:05Z</time>
      </trkpt>
      <trkpt lat="44.19883" lon="6.3423">
        <ele>924.2</ele>
        <time>2018-08-09T10:22:13Z</time>
      </trkpt>
      <trkpt lat="44.19881" lon="6.34227">
        <ele>924.6</ele>
        <time>2018-08-09T10:22:18Z</time>
      </trkpt>
      <trkpt lat="44.1988" lon="6.34221">
        <ele>925.3</ele>
        <time>2018-08-09T10:22:24Z</time>
      </trkpt>
      <trkpt lat="44.19879" lon="6.34217">
        <ele>925.6</ele>
        <time>2018-08-09T10:22:27Z</time>
      </trkpt>
      <trkpt lat="44.19876" lon="6.34215">
        <ele>926</ele>
        <time>2018-08-09T10:22:33Z</time>
      </trkpt>
      <trkpt lat="44.19874" lon="6.34212">
        <ele>926.4</ele>
        <time>2018-08-09T10:22:35Z</time>
      </trkpt>
      <trkpt lat="44.19871" lon="6.34209">
        <ele>926.7</ele>
        <time>2018-08-09T10:22:38Z</time>
      </trkpt>
      <trkpt lat="44.1987" lon="6.34205">
        <ele>927</ele>
        <time>2018-08-09T10:22:42Z</time>
      </trkpt>
      <trkpt lat="44.19869" lon="6.34201">
        <ele>927.3</ele>
        <time>2018-08-09T10:22:45Z</time>
      </trkpt>
      <trkpt lat="44.19868" lon="6.34197">
        <ele>927.5</ele>
        <time>2018-08-09T10:22:48Z</time>
      </trkpt>
      <trkpt lat="44.19868" lon="6.34192">
        <ele>927.7</ele>
        <time>2018-08-09T10:22:53Z</time>
      </trkpt>
      <trkpt lat="44.19868" lon="6.34188">
        <ele>928</ele>
        <time>2018-08-09T10:22:56Z</time>
      </trkpt>
      <trkpt lat="44.19865" lon="6.34185">
        <ele>928.3</ele>
        <time>2018-08-09T10:23:00Z</time>
      </trkpt>
      <trkpt lat="44.19863" lon="6.34182">
        <ele>928.8</ele>
        <time>2018-08-09T10:23:04Z</time>
      </trkpt>
      <trkpt lat="44.1986" lon="6.34179">
        <ele>929.7</ele>
        <time>2018-08-09T10:23:08Z</time>
      </trkpt>
      <trkpt lat="44.19857" lon="6.34179">
        <ele>931</ele>
        <time>2018-08-09T10:23:13Z</time>
      </trkpt>
      <trkpt lat="44.19854" lon="6.34177">
        <ele>932.1</ele>
        <time>2018-08-09T10:23:16Z</time>
      </trkpt>
      <trkpt lat="44.19852" lon="6.34174">
        <ele>933.2</ele>
        <time>2018-08-09T10:23:20Z</time>
      </trkpt>
      <trkpt lat="44.19852" lon="6.3417">
        <ele>934.7</ele>
        <time>2018-08-09T10:23:23Z</time>
      </trkpt>
      <trkpt lat="44.19853" lon="6.34165">
        <ele>935.9</ele>
        <time>2018-08-09T10:23:26Z</time>
      </trkpt>
      <trkpt lat="44.19854" lon="6.3416">
        <ele>936.8</ele>
        <time>2018-08-09T10:23:30Z</time>
      </trkpt>
      <trkpt lat="44.19853" lon="6.34155">
        <ele>937.7</ele>
        <time>2018-08-09T10:23:33Z</time>
      </trkpt>
      <trkpt lat="44.1985" lon="6.34152">
        <ele>938.4</ele>
        <time>2018-08-09T10:23:36Z</time>
      </trkpt>
      <trkpt lat="44.19848" lon="6.34148">
        <ele>939.1</ele>
        <time>2018-08-09T10:23:41Z</time>
      </trkpt>
      <trkpt lat="44.19845" lon="6.34146">
        <ele>939.7</ele>
        <time>2018-08-09T10:23:45Z</time>
      </trkpt>
      <trkpt lat="44.19845" lon="6.34142">
        <ele>940.3</ele>
        <time>2018-08-09T10:23:48Z</time>
      </trkpt>
      <trkpt lat="44.19848" lon="6.34138">
        <ele>941</ele>
        <time>2018-08-09T10:23:52Z</time>
      </trkpt>
      <trkpt lat="44.1985" lon="6.34135">
        <ele>941.6</ele>
        <time>2018-08-09T10:23:54Z</time>
      </trkpt>
      <trkpt lat="44.19853" lon="6.34134">
        <ele>942.2</ele>
        <time>2018-08-09T10:23:57Z</time>
      </trkpt>
      <trkpt lat="44.19855" lon="6.34131">
        <ele>942.7</ele>
        <time>2018-08-09T10:24:03Z</time>
      </trkpt>
      <trkpt lat="44.19858" lon="6.34129">
        <ele>943.4</ele>
        <time>2018-08-09T10:24:07Z</time>
      </trkpt>
      <trkpt lat="44.19861" lon="6.34129">
        <ele>944.1</ele>
        <time>2018-08-09T10:24:13Z</time>
      </trkpt>
      <trkpt lat="44.19864" lon="6.3413">
        <ele>944.7</ele>
        <time>2018-08-09T10:24:16Z</time>
      </trkpt>
      <trkpt lat="44.19866" lon="6.34132">
        <ele>945.3</ele>
        <time>2018-08-09T10:24:20Z</time>
      </trkpt>
      <trkpt lat="44.19869" lon="6.34135">
        <ele>945.9</ele>
        <time>2018-08-09T10:24:23Z</time>
      </trkpt>
      <trkpt lat="44.19872" lon="6.34136">
        <ele>946.5</ele>
        <time>2018-08-09T10:24:27Z</time>
      </trkpt>
      <trkpt lat="44.19875" lon="6.34138">
        <ele>947.4</ele>
        <time>2018-08-09T10:24:31Z</time>
      </trkpt>
      <trkpt lat="44.19879" lon="6.34138">
        <ele>948.4</ele>
        <time>2018-08-09T10:24:36Z</time>
      </trkpt>
      <trkpt lat="44.19881" lon="6.3414">
        <ele>949.2</ele>
        <time>2018-08-09T10:24:38Z</time>
      </trkpt>
      <trkpt lat="44.19885" lon="6.34141">
        <ele>950.2</ele>
        <time>2018-08-09T10:24:41Z</time>
      </trkpt>
      <trkpt lat="44.19888" lon="6.3414">
        <ele>951.1</ele>
        <time>2018-08-09T10:24:45Z</time>
      </trkpt>
      <trkpt lat="44.19891" lon="6.34139">
        <ele>951.9</ele>
        <time>2018-08-09T10:24:48Z</time>
      </trkpt>
      <trkpt lat="44.19894" lon="6.34137">
        <ele>952.7</ele>
        <time>2018-08-09T10:24:52Z</time>
      </trkpt>
      <trkpt lat="44.19897" lon="6.34136">
        <ele>953.6</ele>
        <time>2018-08-09T10:24:56Z</time>
      </trkpt>
      <trkpt lat="44.199" lon="6.34136">
        <ele>954.5</ele>
        <time>2018-08-09T10:25:01Z</time>
      </trkpt>
      <trkpt lat="44.19902" lon="6.34138">
        <ele>955.5</ele>
        <time>2018-08-09T10:25:05Z</time>
      </trkpt>
      <trkpt lat="44.19905" lon="6.34138">
        <ele>956.6</ele>
        <time>2018-08-09T10:25:10Z</time>
      </trkpt>
      <trkpt lat="44.19909" lon="6.34139">
        <ele>957.6</ele>
        <time>2018-08-09T10:25:14Z</time>
      </trkpt>
      <trkpt lat="44.19912" lon="6.34138">
        <ele>958.3</ele>
        <time>2018-08-09T10:25:19Z</time>
      </trkpt>
      <trkpt lat="44.19915" lon="6.34136">
        <ele>959.1</ele>
        <time>2018-08-09T10:25:23Z</time>
      </trkpt>
      <trkpt lat="44.19917" lon="6.34133">
        <ele>959.7</ele>
        <time>2018-08-09T10:25:29Z</time>
      </trkpt>
      <trkpt lat="44.19919" lon="6.3413">
        <ele>960.6</ele>
        <time>2018-08-09T10:25:33Z</time>
      </trkpt>
      <trkpt lat="44.19922" lon="6.34127">
        <ele>961.3</ele>
        <time>2018-08-09T10:25:37Z</time>
      </trkpt>
      <trkpt lat="44.19924" lon="6.34125">
        <ele>961.9</ele>
        <time>2018-08-09T10:25:41Z</time>
      </trkpt>
      <trkpt lat="44.19927" lon="6.34125">
        <ele>962.6</ele>
        <time>2018-08-09T10:25:44Z</time>
      </trkpt>
      <trkpt lat="44.19927" lon="6.3413">
        <ele>963.4</ele>
        <time>2018-08-09T10:25:49Z</time>
      </trkpt>
      <trkpt lat="44.19928" lon="6.34135">
        <ele>964</ele>
        <time>2018-08-09T10:25:55Z</time>
      </trkpt>
      <trkpt lat="44.1993" lon="6.34133">
        <ele>964.5</ele>
        <time>2018-08-09T10:25:59Z</time>
      </trkpt>
      <trkpt lat="44.19933" lon="6.34133">
        <ele>965.1</ele>
        <time>2018-08-09T10:26:03Z</time>
      </trkpt>
      <trkpt lat="44.19937" lon="6.34133">
        <ele>965.8</ele>
        <time>2018-08-09T10:26:08Z</time>
      </trkpt>
      <trkpt lat="44.1994" lon="6.34132">
        <ele>966.4</ele>
        <time>2018-08-09T10:26:12Z</time>
      </trkpt>
      <trkpt lat="44.19943" lon="6.34135">
        <ele>967.1</ele>
        <time>2018-08-09T10:26:16Z</time>
      </trkpt>
      <trkpt lat="44.19946" lon="6.34136">
        <ele>967.6</ele>
        <time>2018-08-09T10:26:20Z</time>
      </trkpt>
      <trkpt lat="44.19949" lon="6.34136">
        <ele>968.1</ele>
        <time>2018-08-09T10:26:23Z</time>
      </trkpt>
      <trkpt lat="44.19952" lon="6.34136">
        <ele>968.7</ele>
        <time>2018-08-09T10:26:27Z</time>
      </trkpt>
      <trkpt lat="44.19955" lon="6.34136">
        <ele>969.2</ele>
        <time>2018-08-09T10:26:31Z</time>
      </trkpt>
      <trkpt lat="44.19958" lon="6.34134">
        <ele>969.7</ele>
        <time>2018-08-09T10:26:37Z</time>
      </trkpt>
      <trkpt lat="44.19961" lon="6.34133">
        <ele>970.2</ele>
        <time>2018-08-09T10:26:40Z</time>
      </trkpt>
      <trkpt lat="44.19964" lon="6.34135">
        <ele>970.8</ele>
        <time>2018-08-09T10:26:44Z</time>
      </trkpt>
      <trkpt lat="44.19966" lon="6.34136">
        <ele>971.3</ele>
        <time>2018-08-09T10:26:46Z</time>
      </trkpt>
      <trkpt lat="44.19969" lon="6.34135">
        <ele>971.9</ele>
        <time>2018-08-09T10:26:50Z</time>
      </trkpt>
      <trkpt lat="44.19972" lon="6.34133">
        <ele>972.5</ele>
        <time>2018-08-09T10:26:54Z</time>
      </trkpt>
      <trkpt lat="44.19976" lon="6.34132">
        <ele>973.1</ele>
        <time>2018-08-09T10:26:59Z</time>
      </trkpt>
      <trkpt lat="44.19979" lon="6.3413">
        <ele>973.6</ele>
        <time>2018-08-09T10:27:03Z</time>
      </trkpt>
      <trkpt lat="44.19978" lon="6.34126">
        <ele>973.9</ele>
        <time>2018-08-09T10:27:13Z</time>
      </trkpt>
      <trkpt lat="44.19982" lon="6.34127">
        <ele>974.4</ele>
        <time>2018-08-09T10:27:27Z</time>
      </trkpt>
      <trkpt lat="44.19986" lon="6.34128">
        <ele>974.9</ele>
        <time>2018-08-09T10:27:32Z</time>
      </trkpt>
      <trkpt lat="44.1999" lon="6.34127">
        <ele>975.3</ele>
        <time>2018-08-09T10:27:35Z</time>
      </trkpt>
      <trkpt lat="44.19992" lon="6.34128">
        <ele>975.5</ele>
        <time>2018-08-09T10:27:38Z</time>
      </trkpt>
      <trkpt lat="44.19995" lon="6.34129">
        <ele>975.8</ele>
        <time>2018-08-09T10:27:42Z</time>
      </trkpt>
      <trkpt lat="44.19998" lon="6.34129">
        <ele>976</ele>
        <time>2018-08-09T10:27:45Z</time>
      </trkpt>
      <trkpt lat="44.20001" lon="6.34132">
        <ele>976.3</ele>
        <time>2018-08-09T10:27:48Z</time>
      </trkpt>
      <trkpt lat="44.20003" lon="6.34133">
        <ele>976.5</ele>
        <time>2018-08-09T10:27:53Z</time>
      </trkpt>
      <trkpt lat="44.20007" lon="6.34133">
        <ele>976.7</ele>
        <time>2018-08-09T10:27:57Z</time>
      </trkpt>
      <trkpt lat="44.2001" lon="6.34133">
        <ele>977</ele>
        <time>2018-08-09T10:28:03Z</time>
      </trkpt>
      <trkpt lat="44.20014" lon="6.34134">
        <ele>977.3</ele>
        <time>2018-08-09T10:28:07Z</time>
      </trkpt>
      <trkpt lat="44.20017" lon="6.34135">
        <ele>977.6</ele>
        <time>2018-08-09T10:28:11Z</time>
      </trkpt>
      <trkpt lat="44.20019" lon="6.34138">
        <ele>977.9</ele>
        <time>2018-08-09T10:28:14Z</time>
      </trkpt>
      <trkpt lat="44.20021" lon="6.3414">
        <ele>978.1</ele>
        <time>2018-08-09T10:28:17Z</time>
      </trkpt>
      <trkpt lat="44.20024" lon="6.34142">
        <ele>978.5</ele>
        <time>2018-08-09T10:28:19Z</time>
      </trkpt>
      <trkpt lat="44.20026" lon="6.34143">
        <ele>978.9</ele>
        <time>2018-08-09T10:28:23Z</time>
      </trkpt>
      <trkpt lat="44.20029" lon="6.34145">
        <ele>979.3</ele>
        <time>2018-08-09T10:28:25Z</time>
      </trkpt>
      <trkpt lat="44.20032" lon="6.34146">
        <ele>979.9</ele>
        <time>2018-08-09T10:28:29Z</time>
      </trkpt>
      <trkpt lat="44.20036" lon="6.34147">
        <ele>980.6</ele>
        <time>2018-08-09T10:28:33Z</time>
      </trkpt>
      <trkpt lat="44.20039" lon="6.34147">
        <ele>981.3</ele>
        <time>2018-08-09T10:28:37Z</time>
      </trkpt>
      <trkpt lat="44.20042" lon="6.34147">
        <ele>981.9</ele>
        <time>2018-08-09T10:28:41Z</time>
      </trkpt>
      <trkpt lat="44.20045" lon="6.34148">
        <ele>982.5</ele>
        <time>2018-08-09T10:28:45Z</time>
      </trkpt>
      <trkpt lat="44.20047" lon="6.3415">
        <ele>983.1</ele>
        <time>2018-08-09T10:28:47Z</time>
      </trkpt>
      <trkpt lat="44.2005" lon="6.34152">
        <ele>983.7</ele>
        <time>2018-08-09T10:28:49Z</time>
      </trkpt>
      <trkpt lat="44.20053" lon="6.34152">
        <ele>984.2</ele>
        <time>2018-08-09T10:28:55Z</time>
      </trkpt>
      <trkpt lat="44.20056" lon="6.34154">
        <ele>984.8</ele>
        <time>2018-08-09T10:28:58Z</time>
      </trkpt>
      <trkpt lat="44.20059" lon="6.34155">
        <ele>985.3</ele>
        <time>2018-08-09T10:29:03Z</time>
      </trkpt>
      <trkpt lat="44.20061" lon="6.34159">
        <ele>985.8</ele>
        <time>2018-08-09T10:29:11Z</time>
      </trkpt>
      <trkpt lat="44.20065" lon="6.34161">
        <ele>986.2</ele>
        <time>2018-08-09T10:29:17Z</time>
      </trkpt>
      <trkpt lat="44.20067" lon="6.34164">
        <ele>986.6</ele>
        <time>2018-08-09T10:29:20Z</time>
      </trkpt>
      <trkpt lat="44.2007" lon="6.34162">
        <ele>987.1</ele>
        <time>2018-08-09T10:29:26Z</time>
      </trkpt>
      <trkpt lat="44.20073" lon="6.34162">
        <ele>987.8</ele>
        <time>2018-08-09T10:29:31Z</time>
      </trkpt>
      <trkpt lat="44.20077" lon="6.34163">
        <ele>988.5</ele>
        <time>2018-08-09T10:29:36Z</time>
      </trkpt>
      <trkpt lat="44.20079" lon="6.34161">
        <ele>989.1</ele>
        <time>2018-08-09T10:29:40Z</time>
      </trkpt>
      <trkpt lat="44.20082" lon="6.34163">
        <ele>989.7</ele>
        <time>2018-08-09T10:29:42Z</time>
      </trkpt>
      <trkpt lat="44.20084" lon="6.34164">
        <ele>990.1</ele>
        <time>2018-08-09T10:29:48Z</time>
      </trkpt>
      <trkpt lat="44.20087" lon="6.34164">
        <ele>990.5</ele>
        <time>2018-08-09T10:29:52Z</time>
      </trkpt>
      <trkpt lat="44.20089" lon="6.34166">
        <ele>990.8</ele>
        <time>2018-08-09T10:29:56Z</time>
      </trkpt>
      <trkpt lat="44.20092" lon="6.34166">
        <ele>991.2</ele>
        <time>2018-08-09T10:29:59Z</time>
      </trkpt>
      <trkpt lat="44.20095" lon="6.34167">
        <ele>991.5</ele>
        <time>2018-08-09T10:30:02Z</time>
      </trkpt>
      <trkpt lat="44.20098" lon="6.34167">
        <ele>991.8</ele>
        <time>2018-08-09T10:30:06Z</time>
      </trkpt>
      <trkpt lat="44.201" lon="6.34166">
        <ele>992.1</ele>
        <time>2018-08-09T10:30:09Z</time>
      </trkpt>
      <trkpt lat="44.20104" lon="6.34165">
        <ele>992.3</ele>
        <time>2018-08-09T10:30:13Z</time>
      </trkpt>
      <trkpt lat="44.20107" lon="6.34164">
        <ele>992.4</ele>
        <time>2018-08-09T10:30:16Z</time>
      </trkpt>
      <trkpt lat="44.20108" lon="6.34161">
        <ele>992.5</ele>
        <time>2018-08-09T10:30:18Z</time>
      </trkpt>
      <trkpt lat="44.20111" lon="6.3416">
        <ele>992.6</ele>
        <time>2018-08-09T10:30:22Z</time>
      </trkpt>
      <trkpt lat="44.20114" lon="6.3416">
        <ele>992.7</ele>
        <time>2018-08-09T10:30:26Z</time>
      </trkpt>
      <trkpt lat="44.20118" lon="6.34161">
        <ele>992.8</ele>
        <time>2018-08-09T10:30:29Z</time>
      </trkpt>
      <trkpt lat="44.2012" lon="6.34162">
        <ele>992.9</ele>
        <time>2018-08-09T10:30:32Z</time>
      </trkpt>
      <trkpt lat="44.20124" lon="6.34163">
        <ele>992.9</ele>
        <time>2018-08-09T10:30:37Z</time>
      </trkpt>
      <trkpt lat="44.20127" lon="6.34164">
        <ele>993</ele>
        <time>2018-08-09T10:30:40Z</time>
      </trkpt>
      <trkpt lat="44.20129" lon="6.34166">
        <ele>993</ele>
        <time>2018-08-09T10:30:43Z</time>
      </trkpt>
      <trkpt lat="44.20132" lon="6.34167">
        <ele>993.1</ele>
        <time>2018-08-09T10:30:46Z</time>
      </trkpt>
      <trkpt lat="44.20135" lon="6.34169">
        <ele>993.1</ele>
        <time>2018-08-09T10:30:49Z</time>
      </trkpt>
      <trkpt lat="44.20138" lon="6.34169">
        <ele>993.1</ele>
        <time>2018-08-09T10:30:54Z</time>
      </trkpt>
      <trkpt lat="44.20145" lon="6.3417">
        <ele>993.2</ele>
        <time>2018-08-09T10:30:57Z</time>
      </trkpt>
      <trkpt lat="44.20148" lon="6.34171">
        <ele>993.2</ele>
        <time>2018-08-09T10:30:58Z</time>
      </trkpt>
      <trkpt lat="44.20151" lon="6.3417">
        <ele>993.2</ele>
        <time>2018-08-09T10:30:59Z</time>
      </trkpt>
      <trkpt lat="44.20154" lon="6.3417">
        <ele>993.2</ele>
        <time>2018-08-09T10:31:00Z</time>
      </trkpt>
      <trkpt lat="44.20157" lon="6.3417">
        <ele>993.2</ele>
        <time>2018-08-09T10:31:01Z</time>
      </trkpt>
      <trkpt lat="44.20161" lon="6.34172">
        <ele>993.2</ele>
        <time>2018-08-09T10:31:02Z</time>
      </trkpt>
      <trkpt lat="44.20165" lon="6.34174">
        <ele>993.2</ele>
        <time>2018-08-09T10:31:03Z</time>
      </trkpt>
      <trkpt lat="44.2017" lon="6.34174">
        <ele>993.2</ele>
        <time>2018-08-09T10:31:04Z</time>
      </trkpt>
      <trkpt lat="44.20174" lon="6.34173">
        <ele>993.1</ele>
        <time>2018-08-09T10:31:05Z</time>
      </trkpt>
      <trkpt lat="44.20177" lon="6.34173">
        <ele>993.1</ele>
        <time>2018-08-09T10:31:06Z</time>
      </trkpt>
      <trkpt lat="44.20181" lon="6.34174">
        <ele>993</ele>
        <time>2018-08-09T10:31:08Z</time>
      </trkpt>
      <trkpt lat="44.20184" lon="6.34174">
        <ele>992.8</ele>
        <time>2018-08-09T10:31:10Z</time>
      </trkpt>
      <trkpt lat="44.20188" lon="6.34176">
        <ele>992.6</ele>
        <time>2018-08-09T10:31:12Z</time>
      </trkpt>
      <trkpt lat="44.20193" lon="6.34177">
        <ele>992.4</ele>
        <time>2018-08-09T10:31:14Z</time>
      </trkpt>
      <trkpt lat="44.20196" lon="6.34179">
        <ele>992.2</ele>
        <time>2018-08-09T10:31:16Z</time>
      </trkpt>
      <trkpt lat="44.20199" lon="6.34179">
        <ele>992.2</ele>
        <time>2018-08-09T10:31:17Z</time>
      </trkpt>
      <trkpt lat="44.20203" lon="6.34178">
        <ele>992.3</ele>
        <time>2018-08-09T10:31:19Z</time>
      </trkpt>
      <trkpt lat="44.20207" lon="6.34178">
        <ele>992.5</ele>
        <time>2018-08-09T10:31:22Z</time>
      </trkpt>
      <trkpt lat="44.20211" lon="6.34177">
        <ele>993.5</ele>
        <time>2018-08-09T10:31:25Z</time>
      </trkpt>
      <trkpt lat="44.20213" lon="6.34173">
        <ele>994.4</ele>
        <time>2018-08-09T10:31:28Z</time>
      </trkpt>
      <trkpt lat="44.20211" lon="6.3417">
        <ele>995.2</ele>
        <time>2018-08-09T10:31:29Z</time>
      </trkpt>
      <trkpt lat="44.2021" lon="6.34166">
        <ele>996</ele>
        <time>2018-08-09T10:31:32Z</time>
      </trkpt>
      <trkpt lat="44.20208" lon="6.34162">
        <ele>996.7</ele>
        <time>2018-08-09T10:31:36Z</time>
      </trkpt>
      <trkpt lat="44.20209" lon="6.34158">
        <ele>997.1</ele>
        <time>2018-08-09T10:31:40Z</time>
      </trkpt>
      <trkpt lat="44.20211" lon="6.34156">
        <ele>997.5</ele>
        <time>2018-08-09T10:31:49Z</time>
      </trkpt>
      <trkpt lat="44.20209" lon="6.34154">
        <ele>997.2</ele>
        <time>2018-08-09T10:31:54Z</time>
      </trkpt>
      <trkpt lat="44.20211" lon="6.34157">
        <ele>996.9</ele>
        <time>2018-08-09T10:35:17Z</time>
      </trkpt>
      <trkpt lat="44.20212" lon="6.34162">
        <ele>996.6</ele>
        <time>2018-08-09T10:39:25Z</time>
      </trkpt>
      <trkpt lat="44.20214" lon="6.34165">
        <ele>996</ele>
        <time>2018-08-09T10:39:28Z</time>
      </trkpt>
      <trkpt lat="44.20217" lon="6.34166">
        <ele>995.5</ele>
        <time>2018-08-09T10:39:31Z</time>
      </trkpt>
      <trkpt lat="44.20219" lon="6.34163">
        <ele>995.9</ele>
        <time>2018-08-09T10:39:36Z</time>
      </trkpt>
      <trkpt lat="44.20217" lon="6.34158">
        <ele>996.7</ele>
        <time>2018-08-09T10:39:41Z</time>
      </trkpt>
      <trkpt lat="44.20218" lon="6.34154">
        <ele>997.2</ele>
        <time>2018-08-09T10:39:45Z</time>
      </trkpt>
      <trkpt lat="44.20221" lon="6.34151">
        <ele>997.8</ele>
        <time>2018-08-09T10:39:49Z</time>
      </trkpt>
      <trkpt lat="44.20224" lon="6.34152">
        <ele>998.9</ele>
        <time>2018-08-09T10:39:53Z</time>
      </trkpt>
      <trkpt lat="44.20226" lon="6.34155">
        <ele>999.9</ele>
        <time>2018-08-09T10:39:56Z</time>
      </trkpt>
      <trkpt lat="44.20228" lon="6.34157">
        <ele>1001</ele>
        <time>2018-08-09T10:40:00Z</time>
      </trkpt>
      <trkpt lat="44.20231" lon="6.34159">
        <ele>1002.3</ele>
        <time>2018-08-09T10:40:05Z</time>
      </trkpt>
      <trkpt lat="44.20234" lon="6.3416">
        <ele>1003.3</ele>
        <time>2018-08-09T10:40:09Z</time>
      </trkpt>
      <trkpt lat="44.20237" lon="6.34158">
        <ele>1004.1</ele>
        <time>2018-08-09T10:40:12Z</time>
      </trkpt>
      <trkpt lat="44.2024" lon="6.34157">
        <ele>1004.9</ele>
        <time>2018-08-09T10:40:16Z</time>
      </trkpt>
      <trkpt lat="44.20243" lon="6.34156">
        <ele>1006</ele>
        <time>2018-08-09T10:40:20Z</time>
      </trkpt>
      <trkpt lat="44.20246" lon="6.34155">
        <ele>1006.7</ele>
        <time>2018-08-09T10:40:23Z</time>
      </trkpt>
      <trkpt lat="44.20249" lon="6.34155">
        <ele>1007.3</ele>
        <time>2018-08-09T10:40:30Z</time>
      </trkpt>
      <trkpt lat="44.20252" lon="6.34154">
        <ele>1007.9</ele>
        <time>2018-08-09T10:40:33Z</time>
      </trkpt>
      <trkpt lat="44.20255" lon="6.34154">
        <ele>1008.5</ele>
        <time>2018-08-09T10:40:35Z</time>
      </trkpt>
      <trkpt lat="44.20257" lon="6.34154">
        <ele>1009</ele>
        <time>2018-08-09T10:40:39Z</time>
      </trkpt>
      <trkpt lat="44.20261" lon="6.34155">
        <ele>1009.7</ele>
        <time>2018-08-09T10:40:44Z</time>
      </trkpt>
      <trkpt lat="44.20264" lon="6.34156">
        <ele>1010.3</ele>
        <time>2018-08-09T10:40:47Z</time>
      </trkpt>
      <trkpt lat="44.20267" lon="6.34157">
        <ele>1011</ele>
        <time>2018-08-09T10:40:50Z</time>
      </trkpt>
      <trkpt lat="44.2027" lon="6.34159">
        <ele>1011.6</ele>
        <time>2018-08-09T10:40:53Z</time>
      </trkpt>
      <trkpt lat="44.20274" lon="6.34163">
        <ele>1012.4</ele>
        <time>2018-08-09T10:40:56Z</time>
      </trkpt>
      <trkpt lat="44.20277" lon="6.34163">
        <ele>1012.8</ele>
        <time>2018-08-09T10:41:00Z</time>
      </trkpt>
      <trkpt lat="44.20281" lon="6.34165">
        <ele>1013.5</ele>
        <time>2018-08-09T10:41:02Z</time>
      </trkpt>
      <trkpt lat="44.20284" lon="6.34164">
        <ele>1014</ele>
        <time>2018-08-09T10:41:04Z</time>
      </trkpt>
      <trkpt lat="44.20288" lon="6.34165">
        <ele>1014.6</ele>
        <time>2018-08-09T10:41:14Z</time>
      </trkpt>
      <trkpt lat="44.20289" lon="6.34161">
        <ele>1015.1</ele>
        <time>2018-08-09T10:41:17Z</time>
      </trkpt>
      <trkpt lat="44.20289" lon="6.34157">
        <ele>1015.7</ele>
        <time>2018-08-09T10:41:22Z</time>
      </trkpt>
      <trkpt lat="44.20289" lon="6.34152">
        <ele>1016.4</ele>
        <time>2018-08-09T10:41:26Z</time>
      </trkpt>
      <trkpt lat="44.20291" lon="6.34149">
        <ele>1017.2</ele>
        <time>2018-08-09T10:41:30Z</time>
      </trkpt>
      <trkpt lat="44.20294" lon="6.34147">
        <ele>1018</ele>
        <time>2018-08-09T10:41:34Z</time>
      </trkpt>
      <trkpt lat="44.20297" lon="6.34148">
        <ele>1018.7</ele>
        <time>2018-08-09T10:41:38Z</time>
      </trkpt>
      <trkpt lat="44.20299" lon="6.34146">
        <ele>1019.3</ele>
        <time>2018-08-09T10:41:41Z</time>
      </trkpt>
      <trkpt lat="44.20302" lon="6.34149">
        <ele>1019.9</ele>
        <time>2018-08-09T10:41:47Z</time>
      </trkpt>
      <trkpt lat="44.20305" lon="6.3415">
        <ele>1020.6</ele>
        <time>2018-08-09T10:41:50Z</time>
      </trkpt>
      <trkpt lat="44.20308" lon="6.34152">
        <ele>1021.1</ele>
        <time>2018-08-09T10:41:55Z</time>
      </trkpt>
      <trkpt lat="44.20311" lon="6.34155">
        <ele>1021.7</ele>
        <time>2018-08-09T10:41:59Z</time>
      </trkpt>
      <trkpt lat="44.20315" lon="6.34155">
        <ele>1022.2</ele>
        <time>2018-08-09T10:42:02Z</time>
      </trkpt>
      <trkpt lat="44.20317" lon="6.34154">
        <ele>1022.5</ele>
        <time>2018-08-09T10:42:06Z</time>
      </trkpt>
      <trkpt lat="44.2032" lon="6.34149">
        <ele>1022.9</ele>
        <time>2018-08-09T10:42:11Z</time>
      </trkpt>
      <trkpt lat="44.20322" lon="6.34147">
        <ele>1023</ele>
        <time>2018-08-09T10:42:15Z</time>
      </trkpt>
      <trkpt lat="44.20325" lon="6.34146">
        <ele>1023</ele>
        <time>2018-08-09T10:42:19Z</time>
      </trkpt>
      <trkpt lat="44.20327" lon="6.34143">
        <ele>1023.1</ele>
        <time>2018-08-09T10:42:22Z</time>
      </trkpt>
      <trkpt lat="44.2033" lon="6.34141">
        <ele>1023.2</ele>
        <time>2018-08-09T10:42:26Z</time>
      </trkpt>
      <trkpt lat="44.20334" lon="6.34139">
        <ele>1023.3</ele>
        <time>2018-08-09T10:42:31Z</time>
      </trkpt>
      <trkpt lat="44.20336" lon="6.34136">
        <ele>1023.3</ele>
        <time>2018-08-09T10:42:33Z</time>
      </trkpt>
      <trkpt lat="44.20338" lon="6.34132">
        <ele>1023.3</ele>
        <time>2018-08-09T10:42:37Z</time>
      </trkpt>
      <trkpt lat="44.2034" lon="6.34128">
        <ele>1023.3</ele>
        <time>2018-08-09T10:42:39Z</time>
      </trkpt>
      <trkpt lat="44.20343" lon="6.34123">
        <ele>1023.3</ele>
        <time>2018-08-09T10:42:42Z</time>
      </trkpt>
      <trkpt lat="44.20347" lon="6.34119">
        <ele>1023.4</ele>
        <time>2018-08-09T10:42:44Z</time>
      </trkpt>
      <trkpt lat="44.20349" lon="6.34116">
        <ele>1023.3</ele>
        <time>2018-08-09T10:42:46Z</time>
      </trkpt>
      <trkpt lat="44.20352" lon="6.34113">
        <ele>1023.3</ele>
        <time>2018-08-09T10:42:48Z</time>
      </trkpt>
      <trkpt lat="44.20356" lon="6.34112">
        <ele>1023.3</ele>
        <time>2018-08-09T10:42:49Z</time>
      </trkpt>
      <trkpt lat="44.20359" lon="6.3411">
        <ele>1023.2</ele>
        <time>2018-08-09T10:42:51Z</time>
      </trkpt>
      <trkpt lat="44.20362" lon="6.34108">
        <ele>1023.1</ele>
        <time>2018-08-09T10:42:53Z</time>
      </trkpt>
      <trkpt lat="44.20366" lon="6.34106">
        <ele>1022.8</ele>
        <time>2018-08-09T10:42:55Z</time>
      </trkpt>
      <trkpt lat="44.20369" lon="6.34103">
        <ele>1022.6</ele>
        <time>2018-08-09T10:42:57Z</time>
      </trkpt>
      <trkpt lat="44.20372" lon="6.341">
        <ele>1022.4</ele>
        <time>2018-08-09T10:42:59Z</time>
      </trkpt>
      <trkpt lat="44.20374" lon="6.34097">
        <ele>1022.4</ele>
        <time>2018-08-09T10:43:01Z</time>
      </trkpt>
      <trkpt lat="44.20375" lon="6.34092">
        <ele>1022.2</ele>
        <time>2018-08-09T10:43:03Z</time>
      </trkpt>
      <trkpt lat="44.20374" lon="6.34086">
        <ele>1022.1</ele>
        <time>2018-08-09T10:43:06Z</time>
      </trkpt>
      <trkpt lat="44.20374" lon="6.34082">
        <ele>1022.1</ele>
        <time>2018-08-09T10:43:08Z</time>
      </trkpt>
      <trkpt lat="44.20378" lon="6.3408">
        <ele>1022</ele>
        <time>2018-08-09T10:43:09Z</time>
      </trkpt>
      <trkpt lat="44.20381" lon="6.34075">
        <ele>1022</ele>
        <time>2018-08-09T10:43:11Z</time>
      </trkpt>
      <trkpt lat="44.20383" lon="6.34072">
        <ele>1022</ele>
        <time>2018-08-09T10:43:12Z</time>
      </trkpt>
      <trkpt lat="44.20385" lon="6.34068">
        <ele>1022</ele>
        <time>2018-08-09T10:43:13Z</time>
      </trkpt>
      <trkpt lat="44.20387" lon="6.34065">
        <ele>1022</ele>
        <time>2018-08-09T10:43:14Z</time>
      </trkpt>
      <trkpt lat="44.2039" lon="6.34062">
        <ele>1022</ele>
        <time>2018-08-09T10:43:15Z</time>
      </trkpt>
      <trkpt lat="44.20393" lon="6.34059">
        <ele>1022</ele>
        <time>2018-08-09T10:43:16Z</time>
      </trkpt>
      <trkpt lat="44.20395" lon="6.34058">
        <ele>1022</ele>
        <time>2018-08-09T10:43:17Z</time>
      </trkpt>
      <trkpt lat="44.20397" lon="6.34055">
        <ele>1022</ele>
        <time>2018-08-09T10:43:21Z</time>
      </trkpt>
      <trkpt lat="44.204" lon="6.34054">
        <ele>1022</ele>
        <time>2018-08-09T10:45:03Z</time>
      </trkpt>
      <trkpt lat="44.20403" lon="6.34052">
        <ele>1022</ele>
        <time>2018-08-09T10:45:06Z</time>
      </trkpt>
      <trkpt lat="44.20405" lon="6.3405">
        <ele>1022</ele>
        <time>2018-08-09T10:45:08Z</time>
      </trkpt>
      <trkpt lat="44.20408" lon="6.34049">
        <ele>1022</ele>
        <time>2018-08-09T10:45:10Z</time>
      </trkpt>
      <trkpt lat="44.20411" lon="6.34046">
        <ele>1022.1</ele>
        <time>2018-08-09T10:45:12Z</time>
      </trkpt>
      <trkpt lat="44.20415" lon="6.34044">
        <ele>1022.1</ele>
        <time>2018-08-09T10:45:14Z</time>
      </trkpt>
      <trkpt lat="44.20418" lon="6.34042">
        <ele>1022.1</ele>
        <time>2018-08-09T10:45:16Z</time>
      </trkpt>
      <trkpt lat="44.20421" lon="6.3404">
        <ele>1022.1</ele>
        <time>2018-08-09T10:45:18Z</time>
      </trkpt>
      <trkpt lat="44.20425" lon="6.34038">
        <ele>1022.1</ele>
        <time>2018-08-09T10:45:20Z</time>
      </trkpt>
      <trkpt lat="44.20429" lon="6.34035">
        <ele>1022.1</ele>
        <time>2018-08-09T10:45:22Z</time>
      </trkpt>
      <trkpt lat="44.20432" lon="6.34033">
        <ele>1022.1</ele>
        <time>2018-08-09T10:45:24Z</time>
      </trkpt>
      <trkpt lat="44.20434" lon="6.34031">
        <ele>1022.1</ele>
        <time>2018-08-09T10:45:26Z</time>
      </trkpt>
      <trkpt lat="44.20437" lon="6.3403">
        <ele>1022.1</ele>
        <time>2018-08-09T10:45:28Z</time>
      </trkpt>
      <trkpt lat="44.2044" lon="6.34029">
        <ele>1022.2</ele>
        <time>2018-08-09T10:45:29Z</time>
      </trkpt>
      <trkpt lat="44.20444" lon="6.34028">
        <ele>1022.2</ele>
        <time>2018-08-09T10:45:31Z</time>
      </trkpt>
      <trkpt lat="44.20447" lon="6.34027">
        <ele>1022.2</ele>
        <time>2018-08-09T10:45:33Z</time>
      </trkpt>
      <trkpt lat="44.2045" lon="6.34026">
        <ele>1022.2</ele>
        <time>2018-08-09T10:45:35Z</time>
      </trkpt>
      <trkpt lat="44.20454" lon="6.34024">
        <ele>1022.2</ele>
        <time>2018-08-09T10:45:37Z</time>
      </trkpt>
      <trkpt lat="44.20456" lon="6.34023">
        <ele>1022.2</ele>
        <time>2018-08-09T10:45:39Z</time>
      </trkpt>
      <trkpt lat="44.20459" lon="6.34021">
        <ele>1022.2</ele>
        <time>2018-08-09T10:45:41Z</time>
      </trkpt>
      <trkpt lat="44.20462" lon="6.3402">
        <ele>1022.2</ele>
        <time>2018-08-09T10:45:43Z</time>
      </trkpt>
      <trkpt lat="44.20467" lon="6.34018">
        <ele>1022.2</ele>
        <time>2018-08-09T10:45:45Z</time>
      </trkpt>
      <trkpt lat="44.20473" lon="6.34018">
        <ele>1022.2</ele>
        <time>2018-08-09T10:45:47Z</time>
      </trkpt>
      <trkpt lat="44.20476" lon="6.34019">
        <ele>1022.2</ele>
        <time>2018-08-09T10:45:48Z</time>
      </trkpt>
      <trkpt lat="44.20481" lon="6.34019">
        <ele>1022.2</ele>
        <time>2018-08-09T10:45:50Z</time>
      </trkpt>
      <trkpt lat="44.20484" lon="6.3402">
        <ele>1022.2</ele>
        <time>2018-08-09T10:45:51Z</time>
      </trkpt>
      <trkpt lat="44.20488" lon="6.3402">
        <ele>1022.3</ele>
        <time>2018-08-09T10:45:52Z</time>
      </trkpt>
      <trkpt lat="44.20492" lon="6.3402">
        <ele>1022.3</ele>
        <time>2018-08-09T10:45:53Z</time>
      </trkpt>
      <trkpt lat="44.20495" lon="6.3402">
        <ele>1022.3</ele>
        <time>2018-08-09T10:45:54Z</time>
      </trkpt>
      <trkpt lat="44.20501" lon="6.34021">
        <ele>1022.3</ele>
        <time>2018-08-09T10:45:55Z</time>
      </trkpt>
      <trkpt lat="44.20506" lon="6.34023">
        <ele>1022.3</ele>
        <time>2018-08-09T10:45:56Z</time>
      </trkpt>
      <trkpt lat="44.2051" lon="6.34023">
        <ele>1022.3</ele>
        <time>2018-08-09T10:45:57Z</time>
      </trkpt>
      <trkpt lat="44.20514" lon="6.34024">
        <ele>1022.3</ele>
        <time>2018-08-09T10:45:58Z</time>
      </trkpt>
      <trkpt lat="44.20519" lon="6.34025">
        <ele>1022.3</ele>
        <time>2018-08-09T10:45:59Z</time>
      </trkpt>
      <trkpt lat="44.20527" lon="6.34027">
        <ele>1022.3</ele>
        <time>2018-08-09T10:46:02Z</time>
      </trkpt>
      <trkpt lat="44.20533" lon="6.3403">
        <ele>1022.4</ele>
        <time>2018-08-09T10:46:03Z</time>
      </trkpt>
      <trkpt lat="44.20536" lon="6.34032">
        <ele>1022.4</ele>
        <time>2018-08-09T10:46:04Z</time>
      </trkpt>
      <trkpt lat="44.20541" lon="6.34037">
        <ele>1022.4</ele>
        <time>2018-08-09T10:46:06Z</time>
      </trkpt>
      <trkpt lat="44.20545" lon="6.34039">
        <ele>1022.4</ele>
        <time>2018-08-09T10:46:07Z</time>
      </trkpt>
      <trkpt lat="44.20548" lon="6.34042">
        <ele>1022.4</ele>
        <time>2018-08-09T10:46:08Z</time>
      </trkpt>
      <trkpt lat="44.20552" lon="6.34043">
        <ele>1022.4</ele>
        <time>2018-08-09T10:46:09Z</time>
      </trkpt>
      <trkpt lat="44.20554" lon="6.34045">
        <ele>1022.4</ele>
        <time>2018-08-09T10:46:10Z</time>
      </trkpt>
      <trkpt lat="44.20557" lon="6.34046">
        <ele>1022.4</ele>
        <time>2018-08-09T10:46:11Z</time>
      </trkpt>
      <trkpt lat="44.2056" lon="6.34048">
        <ele>1022.4</ele>
        <time>2018-08-09T10:46:12Z</time>
      </trkpt>
      <trkpt lat="44.20562" lon="6.3405">
        <ele>1022.5</ele>
        <time>2018-08-09T10:46:13Z</time>
      </trkpt>
      <trkpt lat="44.20564" lon="6.34053">
        <ele>1022.5</ele>
        <time>2018-08-09T10:46:14Z</time>
      </trkpt>
      <trkpt lat="44.20567" lon="6.34055">
        <ele>1022.5</ele>
        <time>2018-08-09T10:46:15Z</time>
      </trkpt>
      <trkpt lat="44.20569" lon="6.34058">
        <ele>1022.5</ele>
        <time>2018-08-09T10:46:16Z</time>
      </trkpt>
      <trkpt lat="44.20572" lon="6.34062">
        <ele>1022.5</ele>
        <time>2018-08-09T10:46:18Z</time>
      </trkpt>
      <trkpt lat="44.20576" lon="6.34065">
        <ele>1022.5</ele>
        <time>2018-08-09T10:46:20Z</time>
      </trkpt>
      <trkpt lat="44.2058" lon="6.34068">
        <ele>1022.5</ele>
        <time>2018-08-09T10:46:22Z</time>
      </trkpt>
      <trkpt lat="44.20584" lon="6.34072">
        <ele>1022.5</ele>
        <time>2018-08-09T10:46:24Z</time>
      </trkpt>
      <trkpt lat="44.20588" lon="6.34077">
        <ele>1022.6</ele>
        <time>2018-08-09T10:46:26Z</time>
      </trkpt>
      <trkpt lat="44.20589" lon="6.34081">
        <ele>1022.6</ele>
        <time>2018-08-09T10:46:27Z</time>
      </trkpt>
      <trkpt lat="44.20591" lon="6.34087">
        <ele>1022.6</ele>
        <time>2018-08-09T10:46:29Z</time>
      </trkpt>
      <trkpt lat="44.20594" lon="6.34092">
        <ele>1022.6</ele>
        <time>2018-08-09T10:46:31Z</time>
      </trkpt>
      <trkpt lat="44.20597" lon="6.34094">
        <ele>1022.7</ele>
        <time>2018-08-09T10:46:32Z</time>
      </trkpt>
      <trkpt lat="44.20599" lon="6.34097">
        <ele>1022.7</ele>
        <time>2018-08-09T10:46:33Z</time>
      </trkpt>
      <trkpt lat="44.20602" lon="6.341">
        <ele>1022.8</ele>
        <time>2018-08-09T10:46:34Z</time>
      </trkpt>
      <trkpt lat="44.20604" lon="6.34102">
        <ele>1022.8</ele>
        <time>2018-08-09T10:46:35Z</time>
      </trkpt>
      <trkpt lat="44.20608" lon="6.34106">
        <ele>1023.1</ele>
        <time>2018-08-09T10:46:37Z</time>
      </trkpt>
      <trkpt lat="44.20611" lon="6.34108">
        <ele>1023.2</ele>
        <time>2018-08-09T10:46:38Z</time>
      </trkpt>
      <trkpt lat="44.20615" lon="6.34111">
        <ele>1023.9</ele>
        <time>2018-08-09T10:46:40Z</time>
      </trkpt>
      <trkpt lat="44.20618" lon="6.34109">
        <ele>1024.7</ele>
        <time>2018-08-09T10:46:48Z</time>
      </trkpt>
      <trkpt lat="44.20621" lon="6.34111">
        <ele>1025.6</ele>
        <time>2018-08-09T10:46:51Z</time>
      </trkpt>
      <trkpt lat="44.20622" lon="6.34114">
        <ele>1026.7</ele>
        <time>2018-08-09T10:46:54Z</time>
      </trkpt>
      <trkpt lat="44.20624" lon="6.34118">
        <ele>1027.4</ele>
        <time>2018-08-09T10:47:06Z</time>
      </trkpt>
      <trkpt lat="44.20625" lon="6.34121">
        <ele>1027.9</ele>
        <time>2018-08-09T10:47:08Z</time>
      </trkpt>
      <trkpt lat="44.20627" lon="6.34124">
        <ele>1028.3</ele>
        <time>2018-08-09T10:47:10Z</time>
      </trkpt>
      <trkpt lat="44.2063" lon="6.34127">
        <ele>1028.6</ele>
        <time>2018-08-09T10:47:12Z</time>
      </trkpt>
      <trkpt lat="44.20632" lon="6.34131">
        <ele>1029</ele>
        <time>2018-08-09T10:47:14Z</time>
      </trkpt>
      <trkpt lat="44.20633" lon="6.34135">
        <ele>1029.2</ele>
        <time>2018-08-09T10:47:16Z</time>
      </trkpt>
      <trkpt lat="44.20636" lon="6.34138">
        <ele>1029.3</ele>
        <time>2018-08-09T10:47:18Z</time>
      </trkpt>
      <trkpt lat="44.20639" lon="6.34141">
        <ele>1029.6</ele>
        <time>2018-08-09T10:47:20Z</time>
      </trkpt>
      <trkpt lat="44.20642" lon="6.34144">
        <ele>1029.8</ele>
        <time>2018-08-09T10:47:22Z</time>
      </trkpt>
      <trkpt lat="44.20644" lon="6.34147">
        <ele>1030</ele>
        <time>2018-08-09T10:47:24Z</time>
      </trkpt>
      <trkpt lat="44.20646" lon="6.34151">
        <ele>1030.3</ele>
        <time>2018-08-09T10:47:26Z</time>
      </trkpt>
      <trkpt lat="44.20648" lon="6.34154">
        <ele>1030.6</ele>
        <time>2018-08-09T10:47:27Z</time>
      </trkpt>
      <trkpt lat="44.20651" lon="6.34158">
        <ele>1030.9</ele>
        <time>2018-08-09T10:47:30Z</time>
      </trkpt>
      <trkpt lat="44.20653" lon="6.34162">
        <ele>1031.1</ele>
        <time>2018-08-09T10:47:32Z</time>
      </trkpt>
      <trkpt lat="44.20654" lon="6.34167">
        <ele>1031.3</ele>
        <time>2018-08-09T10:47:34Z</time>
      </trkpt>
      <trkpt lat="44.20656" lon="6.3417">
        <ele>1031.5</ele>
        <time>2018-08-09T10:47:36Z</time>
      </trkpt>
      <trkpt lat="44.20658" lon="6.34174">
        <ele>1031.6</ele>
        <time>2018-08-09T10:47:38Z</time>
      </trkpt>
      <trkpt lat="44.20659" lon="6.34177">
        <ele>1031.7</ele>
        <time>2018-08-09T10:47:40Z</time>
      </trkpt>
      <trkpt lat="44.20662" lon="6.34181">
        <ele>1031.8</ele>
        <time>2018-08-09T10:47:42Z</time>
      </trkpt>
      <trkpt lat="44.20664" lon="6.34184">
        <ele>1031.9</ele>
        <time>2018-08-09T10:47:44Z</time>
      </trkpt>
      <trkpt lat="44.20666" lon="6.34189">
        <ele>1032</ele>
        <time>2018-08-09T10:47:46Z</time>
      </trkpt>
      <trkpt lat="44.20668" lon="6.34194">
        <ele>1032.2</ele>
        <time>2018-08-09T10:47:48Z</time>
      </trkpt>
      <trkpt lat="44.20673" lon="6.34197">
        <ele>1032.3</ele>
        <time>2018-08-09T10:47:50Z</time>
      </trkpt>
      <trkpt lat="44.20675" lon="6.34203">
        <ele>1032.3</ele>
        <time>2018-08-09T10:47:52Z</time>
      </trkpt>
      <trkpt lat="44.20677" lon="6.34208">
        <ele>1032.3</ele>
        <time>2018-08-09T10:47:54Z</time>
      </trkpt>
      <trkpt lat="44.20679" lon="6.34211">
        <ele>1032.4</ele>
        <time>2018-08-09T10:47:56Z</time>
      </trkpt>
      <trkpt lat="44.20681" lon="6.34213">
        <ele>1032.4</ele>
        <time>2018-08-09T10:47:58Z</time>
      </trkpt>
      <trkpt lat="44.20685" lon="6.34213">
        <ele>1032.4</ele>
        <time>2018-08-09T10:48:00Z</time>
      </trkpt>
      <trkpt lat="44.20688" lon="6.34214">
        <ele>1032.4</ele>
        <time>2018-08-09T10:48:02Z</time>
      </trkpt>
      <trkpt lat="44.20691" lon="6.34214">
        <ele>1032.5</ele>
        <time>2018-08-09T10:48:04Z</time>
      </trkpt>
      <trkpt lat="44.20695" lon="6.34216">
        <ele>1032.5</ele>
        <time>2018-08-09T10:48:06Z</time>
      </trkpt>
      <trkpt lat="44.20697" lon="6.34219">
        <ele>1032.6</ele>
        <time>2018-08-09T10:48:08Z</time>
      </trkpt>
      <trkpt lat="44.20701" lon="6.34224">
        <ele>1032.7</ele>
        <time>2018-08-09T10:48:10Z</time>
      </trkpt>
      <trkpt lat="44.20704" lon="6.34229">
        <ele>1032.9</ele>
        <time>2018-08-09T10:48:12Z</time>
      </trkpt>
      <trkpt lat="44.20708" lon="6.34234">
        <ele>1033.2</ele>
        <time>2018-08-09T10:48:14Z</time>
      </trkpt>
      <trkpt lat="44.2071" lon="6.34239">
        <ele>1033.6</ele>
        <time>2018-08-09T10:48:16Z</time>
      </trkpt>
      <trkpt lat="44.20711" lon="6.34244">
        <ele>1034.2</ele>
        <time>2018-08-09T10:48:18Z</time>
      </trkpt>
      <trkpt lat="44.20714" lon="6.34246">
        <ele>1034.6</ele>
        <time>2018-08-09T10:48:22Z</time>
      </trkpt>
      <trkpt lat="44.20718" lon="6.34245">
        <ele>1035.3</ele>
        <time>2018-08-09T10:48:28Z</time>
      </trkpt>
      <trkpt lat="44.2072" lon="6.34243">
        <ele>1035.9</ele>
        <time>2018-08-09T10:48:35Z</time>
      </trkpt>
      <trkpt lat="44.20721" lon="6.34239">
        <ele>1036.5</ele>
        <time>2018-08-09T10:48:38Z</time>
      </trkpt>
      <trkpt lat="44.20722" lon="6.34234">
        <ele>1037.2</ele>
        <time>2018-08-09T10:48:41Z</time>
      </trkpt>
      <trkpt lat="44.20721" lon="6.3423">
        <ele>1037.8</ele>
        <time>2018-08-09T10:48:44Z</time>
      </trkpt>
      <trkpt lat="44.20721" lon="6.34226">
        <ele>1038.3</ele>
        <time>2018-08-09T10:48:47Z</time>
      </trkpt>
      <trkpt lat="44.20722" lon="6.34221">
        <ele>1038.9</ele>
        <time>2018-08-09T10:48:50Z</time>
      </trkpt>
      <trkpt lat="44.20725" lon="6.34217">
        <ele>1039.5</ele>
        <time>2018-08-09T10:48:53Z</time>
      </trkpt>
      <trkpt lat="44.20728" lon="6.34215">
        <ele>1040.1</ele>
        <time>2018-08-09T10:48:57Z</time>
      </trkpt>
      <trkpt lat="44.2073" lon="6.34211">
        <ele>1040.6</ele>
        <time>2018-08-09T10:49:00Z</time>
      </trkpt>
      <trkpt lat="44.20732" lon="6.3421">
        <ele>1041.1</ele>
        <time>2018-08-09T10:49:02Z</time>
      </trkpt>
      <trkpt lat="44.20735" lon="6.34207">
        <ele>1041.4</ele>
        <time>2018-08-09T10:49:05Z</time>
      </trkpt>
      <trkpt lat="44.20738" lon="6.34207">
        <ele>1041.9</ele>
        <time>2018-08-09T10:49:09Z</time>
      </trkpt>
      <trkpt lat="44.20743" lon="6.34207">
        <ele>1042.5</ele>
        <time>2018-08-09T10:49:13Z</time>
      </trkpt>
      <trkpt lat="44.20746" lon="6.34207">
        <ele>1042.9</ele>
        <time>2018-08-09T10:49:18Z</time>
      </trkpt>
      <trkpt lat="44.20748" lon="6.34206">
        <ele>1043.3</ele>
        <time>2018-08-09T10:49:23Z</time>
      </trkpt>
      <trkpt lat="44.20752" lon="6.34206">
        <ele>1043.8</ele>
        <time>2018-08-09T10:49:29Z</time>
      </trkpt>
      <trkpt lat="44.20754" lon="6.34205">
        <ele>1044.3</ele>
        <time>2018-08-09T10:49:33Z</time>
      </trkpt>
      <trkpt lat="44.20758" lon="6.34203">
        <ele>1044.7</ele>
        <time>2018-08-09T10:49:36Z</time>
      </trkpt>
      <trkpt lat="44.20762" lon="6.34202">
        <ele>1045.1</ele>
        <time>2018-08-09T10:49:40Z</time>
      </trkpt>
      <trkpt lat="44.20764" lon="6.34199">
        <ele>1045.5</ele>
        <time>2018-08-09T10:50:04Z</time>
      </trkpt>
      <trkpt lat="44.20767" lon="6.34198">
        <ele>1045.8</ele>
        <time>2018-08-09T10:50:07Z</time>
      </trkpt>
      <trkpt lat="44.2077" lon="6.34196">
        <ele>1046</ele>
        <time>2018-08-09T10:50:09Z</time>
      </trkpt>
      <trkpt lat="44.20773" lon="6.34193">
        <ele>1046.2</ele>
        <time>2018-08-09T10:50:11Z</time>
      </trkpt>
      <trkpt lat="44.20777" lon="6.34193">
        <ele>1046.4</ele>
        <time>2018-08-09T10:50:13Z</time>
      </trkpt>
      <trkpt lat="44.20781" lon="6.34192">
        <ele>1046.8</ele>
        <time>2018-08-09T10:50:17Z</time>
      </trkpt>
      <trkpt lat="44.20784" lon="6.34189">
        <ele>1047.1</ele>
        <time>2018-08-09T10:50:20Z</time>
      </trkpt>
      <trkpt lat="44.20787" lon="6.34188">
        <ele>1047.4</ele>
        <time>2018-08-09T10:50:22Z</time>
      </trkpt>
      <trkpt lat="44.20789" lon="6.34183">
        <ele>1047.7</ele>
        <time>2018-08-09T10:50:25Z</time>
      </trkpt>
      <trkpt lat="44.20791" lon="6.3418">
        <ele>1048</ele>
        <time>2018-08-09T10:50:27Z</time>
      </trkpt>
      <trkpt lat="44.20794" lon="6.34177">
        <ele>1048.3</ele>
        <time>2018-08-09T10:50:31Z</time>
      </trkpt>
      <trkpt lat="44.20796" lon="6.34174">
        <ele>1048.6</ele>
        <time>2018-08-09T10:50:33Z</time>
      </trkpt>
      <trkpt lat="44.20798" lon="6.34171">
        <ele>1048.8</ele>
        <time>2018-08-09T10:50:35Z</time>
      </trkpt>
      <trkpt lat="44.208" lon="6.34169">
        <ele>1049</ele>
        <time>2018-08-09T10:50:37Z</time>
      </trkpt>
      <trkpt lat="44.20802" lon="6.34165">
        <ele>1049.3</ele>
        <time>2018-08-09T10:50:39Z</time>
      </trkpt>
      <trkpt lat="44.20804" lon="6.3416">
        <ele>1049.6</ele>
        <time>2018-08-09T10:50:42Z</time>
      </trkpt>
      <trkpt lat="44.20807" lon="6.34157">
        <ele>1050</ele>
        <time>2018-08-09T10:50:44Z</time>
      </trkpt>
      <trkpt lat="44.20808" lon="6.34153">
        <ele>1050.3</ele>
        <time>2018-08-09T10:50:46Z</time>
      </trkpt>
      <trkpt lat="44.2081" lon="6.34147">
        <ele>1050.6</ele>
        <time>2018-08-09T10:50:49Z</time>
      </trkpt>
      <trkpt lat="44.20812" lon="6.34143">
        <ele>1050.9</ele>
        <time>2018-08-09T10:50:51Z</time>
      </trkpt>
      <trkpt lat="44.20814" lon="6.34141">
        <ele>1051.1</ele>
        <time>2018-08-09T10:50:53Z</time>
      </trkpt>
      <trkpt lat="44.20817" lon="6.34138">
        <ele>1051.3</ele>
        <time>2018-08-09T10:50:55Z</time>
      </trkpt>
      <trkpt lat="44.20819" lon="6.34136">
        <ele>1051.5</ele>
        <time>2018-08-09T10:50:57Z</time>
      </trkpt>
      <trkpt lat="44.20822" lon="6.34134">
        <ele>1051.7</ele>
        <time>2018-08-09T10:50:59Z</time>
      </trkpt>
      <trkpt lat="44.20825" lon="6.34132">
        <ele>1051.9</ele>
        <time>2018-08-09T10:51:01Z</time>
      </trkpt>
      <trkpt lat="44.20829" lon="6.34131">
        <ele>1052.2</ele>
        <time>2018-08-09T10:51:03Z</time>
      </trkpt>
      <trkpt lat="44.20832" lon="6.3413">
        <ele>1052.4</ele>
        <time>2018-08-09T10:51:05Z</time>
      </trkpt>
      <trkpt lat="44.20834" lon="6.34127">
        <ele>1052.5</ele>
        <time>2018-08-09T10:51:08Z</time>
      </trkpt>
      <trkpt lat="44.20838" lon="6.34124">
        <ele>1052.8</ele>
        <time>2018-08-09T10:51:11Z</time>
      </trkpt>
      <trkpt lat="44.20842" lon="6.34123">
        <ele>1053</ele>
        <time>2018-08-09T10:51:13Z</time>
      </trkpt>
      <trkpt lat="44.20844" lon="6.34123">
        <ele>1053.1</ele>
        <time>2018-08-09T10:51:14Z</time>
      </trkpt>
      <trkpt lat="44.20847" lon="6.34121">
        <ele>1053.2</ele>
        <time>2018-08-09T10:51:17Z</time>
      </trkpt>
      <trkpt lat="44.2085" lon="6.34117">
        <ele>1053.3</ele>
        <time>2018-08-09T10:51:23Z</time>
      </trkpt>
      <trkpt lat="44.20849" lon="6.34112">
        <ele>1053.3</ele>
        <time>2018-08-09T10:51:25Z</time>
      </trkpt>
      <trkpt lat="44.20848" lon="6.34109">
        <ele>1053.2</ele>
        <time>2018-08-09T10:51:27Z</time>
      </trkpt>
      <trkpt lat="44.20848" lon="6.34104">
        <ele>1053.2</ele>
        <time>2018-08-09T10:51:59Z</time>
      </trkpt>
      <trkpt lat="44.20847" lon="6.34101">
        <ele>1053.2</ele>
        <time>2018-08-09T10:52:05Z</time>
      </trkpt>
      <trkpt lat="44.20844" lon="6.34103">
        <ele>1053.1</ele>
        <time>2018-08-09T10:52:19Z</time>
      </trkpt>
      <trkpt lat="44.20847" lon="6.34104">
        <ele>1053.2</ele>
        <time>2018-08-09T10:52:24Z</time>
      </trkpt>
      <trkpt lat="44.20849" lon="6.34107">
        <ele>1053.3</ele>
        <time>2018-08-09T10:52:39Z</time>
      </trkpt>
      <trkpt lat="44.20849" lon="6.34112">
        <ele>1053.4</ele>
        <time>2018-08-09T10:52:42Z</time>
      </trkpt>
      <trkpt lat="44.2085" lon="6.34115">
        <ele>1053.5</ele>
        <time>2018-08-09T10:52:46Z</time>
      </trkpt>
      <trkpt lat="44.20852" lon="6.34119">
        <ele>1053.6</ele>
        <time>2018-08-09T10:52:49Z</time>
      </trkpt>
      <trkpt lat="44.20855" lon="6.34121">
        <ele>1053.7</ele>
        <time>2018-08-09T10:52:51Z</time>
      </trkpt>
      <trkpt lat="44.20859" lon="6.34121">
        <ele>1053.7</ele>
        <time>2018-08-09T10:52:53Z</time>
      </trkpt>
      <trkpt lat="44.20863" lon="6.34121">
        <ele>1053.8</ele>
        <time>2018-08-09T10:52:55Z</time>
      </trkpt>
      <trkpt lat="44.20866" lon="6.34121">
        <ele>1053.9</ele>
        <time>2018-08-09T10:52:57Z</time>
      </trkpt>
      <trkpt lat="44.20869" lon="6.34122">
        <ele>1053.9</ele>
        <time>2018-08-09T10:52:59Z</time>
      </trkpt>
      <trkpt lat="44.20872" lon="6.34124">
        <ele>1054</ele>
        <time>2018-08-09T10:53:01Z</time>
      </trkpt>
      <trkpt lat="44.20875" lon="6.34127">
        <ele>1054</ele>
        <time>2018-08-09T10:53:03Z</time>
      </trkpt>
      <trkpt lat="44.20879" lon="6.34127">
        <ele>1054.1</ele>
        <time>2018-08-09T10:53:05Z</time>
      </trkpt>
      <trkpt lat="44.20884" lon="6.3413">
        <ele>1054.3</ele>
        <time>2018-08-09T10:53:07Z</time>
      </trkpt>
      <trkpt lat="44.20886" lon="6.34132">
        <ele>1054.4</ele>
        <time>2018-08-09T10:53:08Z</time>
      </trkpt>
      <trkpt lat="44.2089" lon="6.34134">
        <ele>1054.5</ele>
        <time>2018-08-09T10:53:10Z</time>
      </trkpt>
      <trkpt lat="44.20894" lon="6.3414">
        <ele>1054.8</ele>
        <time>2018-08-09T10:53:12Z</time>
      </trkpt>
      <trkpt lat="44.20896" lon="6.34143">
        <ele>1054.9</ele>
        <time>2018-08-09T10:53:14Z</time>
      </trkpt>
      <trkpt lat="44.209" lon="6.34149">
        <ele>1055.2</ele>
        <time>2018-08-09T10:53:16Z</time>
      </trkpt>
      <trkpt lat="44.20902" lon="6.34154">
        <ele>1055.4</ele>
        <time>2018-08-09T10:53:18Z</time>
      </trkpt>
      <trkpt lat="44.20905" lon="6.34155">
        <ele>1055.6</ele>
        <time>2018-08-09T10:53:21Z</time>
      </trkpt>
      <trkpt lat="44.20907" lon="6.34159">
        <ele>1055.7</ele>
        <time>2018-08-09T10:53:24Z</time>
      </trkpt>
      <trkpt lat="44.2091" lon="6.34163">
        <ele>1055.9</ele>
        <time>2018-08-09T10:53:26Z</time>
      </trkpt>
      <trkpt lat="44.2091" lon="6.34167">
        <ele>1056.1</ele>
        <time>2018-08-09T10:53:28Z</time>
      </trkpt>
      <trkpt lat="44.2091" lon="6.34171">
        <ele>1056.3</ele>
        <time>2018-08-09T10:53:32Z</time>
      </trkpt>
      <trkpt lat="44.20914" lon="6.34175">
        <ele>1056.5</ele>
        <time>2018-08-09T10:53:34Z</time>
      </trkpt>
      <trkpt lat="44.20917" lon="6.3418">
        <ele>1056.7</ele>
        <time>2018-08-09T10:53:36Z</time>
      </trkpt>
      <trkpt lat="44.2092" lon="6.34185">
        <ele>1057</ele>
        <time>2018-08-09T10:53:38Z</time>
      </trkpt>
      <trkpt lat="44.20922" lon="6.34189">
        <ele>1057.2</ele>
        <time>2018-08-09T10:53:40Z</time>
      </trkpt>
      <trkpt lat="44.20926" lon="6.34192">
        <ele>1057.5</ele>
        <time>2018-08-09T10:53:42Z</time>
      </trkpt>
      <trkpt lat="44.20929" lon="6.34197">
        <ele>1057.6</ele>
        <time>2018-08-09T10:53:44Z</time>
      </trkpt>
      <trkpt lat="44.20931" lon="6.34203">
        <ele>1057.7</ele>
        <time>2018-08-09T10:53:46Z</time>
      </trkpt>
      <trkpt lat="44.20931" lon="6.34207">
        <ele>1057.7</ele>
        <time>2018-08-09T10:53:52Z</time>
      </trkpt>
      <trkpt lat="44.20931" lon="6.34213">
        <ele>1057.7</ele>
        <time>2018-08-09T10:53:56Z</time>
      </trkpt>
      <trkpt lat="44.20932" lon="6.34218">
        <ele>1057.6</ele>
        <time>2018-08-09T10:53:59Z</time>
      </trkpt>
      <trkpt lat="44.20934" lon="6.34223">
        <ele>1057.3</ele>
        <time>2018-08-09T10:54:01Z</time>
      </trkpt>
      <trkpt lat="44.20937" lon="6.34227">
        <ele>1057.2</ele>
        <time>2018-08-09T10:54:03Z</time>
      </trkpt>
      <trkpt lat="44.2094" lon="6.3423">
        <ele>1057.1</ele>
        <time>2018-08-09T10:54:05Z</time>
      </trkpt>
      <trkpt lat="44.20943" lon="6.34235">
        <ele>1057</ele>
        <time>2018-08-09T10:54:06Z</time>
      </trkpt>
      <trkpt lat="44.20946" lon="6.34239">
        <ele>1056.9</ele>
        <time>2018-08-09T10:54:07Z</time>
      </trkpt>
      <trkpt lat="44.20947" lon="6.34243">
        <ele>1056.8</ele>
        <time>2018-08-09T10:54:09Z</time>
      </trkpt>
      <trkpt lat="44.20949" lon="6.34246">
        <ele>1056.7</ele>
        <time>2018-08-09T10:54:10Z</time>
      </trkpt>
      <trkpt lat="44.2095" lon="6.34251">
        <ele>1056.6</ele>
        <time>2018-08-09T10:54:11Z</time>
      </trkpt>
      <trkpt lat="44.20953" lon="6.34254">
        <ele>1056.5</ele>
        <time>2018-08-09T10:54:12Z</time>
      </trkpt>
      <trkpt lat="44.20955" lon="6.34256">
        <ele>1056.5</ele>
        <time>2018-08-09T10:54:13Z</time>
      </trkpt>
      <trkpt lat="44.20957" lon="6.34261">
        <ele>1056.4</ele>
        <time>2018-08-09T10:54:14Z</time>
      </trkpt>
      <trkpt lat="44.2096" lon="6.34266">
        <ele>1056.3</ele>
        <time>2018-08-09T10:54:15Z</time>
      </trkpt>
      <trkpt lat="44.20962" lon="6.34269">
        <ele>1056.1</ele>
        <time>2018-08-09T10:54:16Z</time>
      </trkpt>
      <trkpt lat="44.20964" lon="6.34273">
        <ele>1055.9</ele>
        <time>2018-08-09T10:54:17Z</time>
      </trkpt>
      <trkpt lat="44.20966" lon="6.34277">
        <ele>1055.7</ele>
        <time>2018-08-09T10:54:18Z</time>
      </trkpt>
      <trkpt lat="44.20968" lon="6.34285">
        <ele>1055.6</ele>
        <time>2018-08-09T10:54:20Z</time>
      </trkpt>
      <trkpt lat="44.20971" lon="6.34292">
        <ele>1055.9</ele>
        <time>2018-08-09T10:54:22Z</time>
      </trkpt>
      <trkpt lat="44.20972" lon="6.34297">
        <ele>1056</ele>
        <time>2018-08-09T10:54:23Z</time>
      </trkpt>
      <trkpt lat="44.20973" lon="6.34301">
        <ele>1056.2</ele>
        <time>2018-08-09T10:54:24Z</time>
      </trkpt>
      <trkpt lat="44.20978" lon="6.34307">
        <ele>1056.5</ele>
        <time>2018-08-09T10:54:26Z</time>
      </trkpt>
      <trkpt lat="44.20979" lon="6.34311">
        <ele>1056.8</ele>
        <time>2018-08-09T10:54:27Z</time>
      </trkpt>
      <trkpt lat="44.20981" lon="6.34315">
        <ele>1057</ele>
        <time>2018-08-09T10:54:28Z</time>
      </trkpt>
      <trkpt lat="44.20984" lon="6.3432">
        <ele>1057.2</ele>
        <time>2018-08-09T10:54:29Z</time>
      </trkpt>
      <trkpt lat="44.20986" lon="6.34324">
        <ele>1057.4</ele>
        <time>2018-08-09T10:54:30Z</time>
      </trkpt>
      <trkpt lat="44.2099" lon="6.3433">
        <ele>1057.7</ele>
        <time>2018-08-09T10:54:32Z</time>
      </trkpt>
      <trkpt lat="44.20991" lon="6.34333">
        <ele>1057.8</ele>
        <time>2018-08-09T10:54:33Z</time>
      </trkpt>
      <trkpt lat="44.20994" lon="6.34336">
        <ele>1057.9</ele>
        <time>2018-08-09T10:54:35Z</time>
      </trkpt>
      <trkpt lat="44.20997" lon="6.3434">
        <ele>1058.2</ele>
        <time>2018-08-09T10:54:37Z</time>
      </trkpt>
      <trkpt lat="44.20998" lon="6.34344">
        <ele>1058.3</ele>
        <time>2018-08-09T10:54:39Z</time>
      </trkpt>
      <trkpt lat="44.21001" lon="6.34349">
        <ele>1058.9</ele>
        <time>2018-08-09T10:54:41Z</time>
      </trkpt>
      <trkpt lat="44.21003" lon="6.34353">
        <ele>1059.4</ele>
        <time>2018-08-09T10:54:43Z</time>
      </trkpt>
      <trkpt lat="44.21004" lon="6.34357">
        <ele>1059.8</ele>
        <time>2018-08-09T10:54:46Z</time>
      </trkpt>
      <trkpt lat="44.21007" lon="6.34361">
        <ele>1060.3</ele>
        <time>2018-08-09T10:54:49Z</time>
      </trkpt>
      <trkpt lat="44.2101" lon="6.34362">
        <ele>1060.7</ele>
        <time>2018-08-09T10:54:59Z</time>
      </trkpt>
      <trkpt lat="44.21012" lon="6.34364">
        <ele>1061</ele>
        <time>2018-08-09T10:55:01Z</time>
      </trkpt>
      <trkpt lat="44.21015" lon="6.34366">
        <ele>1061.4</ele>
        <time>2018-08-09T10:55:04Z</time>
      </trkpt>
      <trkpt lat="44.21018" lon="6.34367">
        <ele>1061.8</ele>
        <time>2018-08-09T10:55:08Z</time>
      </trkpt>
      <trkpt lat="44.21021" lon="6.3437">
        <ele>1062.2</ele>
        <time>2018-08-09T10:55:11Z</time>
      </trkpt>
      <trkpt lat="44.21023" lon="6.34373">
        <ele>1062.5</ele>
        <time>2018-08-09T10:55:13Z</time>
      </trkpt>
      <trkpt lat="44.21026" lon="6.34374">
        <ele>1062.8</ele>
        <time>2018-08-09T10:55:20Z</time>
      </trkpt>
      <trkpt lat="44.21028" lon="6.34377">
        <ele>1063.1</ele>
        <time>2018-08-09T10:55:24Z</time>
      </trkpt>
      <trkpt lat="44.21031" lon="6.34378">
        <ele>1063.4</ele>
        <time>2018-08-09T10:55:32Z</time>
      </trkpt>
      <trkpt lat="44.21034" lon="6.34379">
        <ele>1064</ele>
        <time>2018-08-09T10:55:35Z</time>
      </trkpt>
      <trkpt lat="44.21037" lon="6.34381">
        <ele>1064.3</ele>
        <time>2018-08-09T10:55:37Z</time>
      </trkpt>
      <trkpt lat="44.2104" lon="6.34382">
        <ele>1064.5</ele>
        <time>2018-08-09T10:55:39Z</time>
      </trkpt>
      <trkpt lat="44.21044" lon="6.34383">
        <ele>1064.7</ele>
        <time>2018-08-09T10:55:42Z</time>
      </trkpt>
      <trkpt lat="44.21048" lon="6.34386">
        <ele>1065.1</ele>
        <time>2018-08-09T10:55:45Z</time>
      </trkpt>
      <trkpt lat="44.21051" lon="6.34388">
        <ele>1065.7</ele>
        <time>2018-08-09T10:55:46Z</time>
      </trkpt>
      <trkpt lat="44.21055" lon="6.3439">
        <ele>1066.4</ele>
        <time>2018-08-09T10:55:48Z</time>
      </trkpt>
      <trkpt lat="44.21058" lon="6.3439">
        <ele>1066.8</ele>
        <time>2018-08-09T10:55:52Z</time>
      </trkpt>
      <trkpt lat="44.21061" lon="6.34393">
        <ele>1067.3</ele>
        <time>2018-08-09T10:55:54Z</time>
      </trkpt>
      <trkpt lat="44.21065" lon="6.34396">
        <ele>1067.8</ele>
        <time>2018-08-09T10:55:56Z</time>
      </trkpt>
      <trkpt lat="44.21067" lon="6.34399">
        <ele>1068.1</ele>
        <time>2018-08-09T10:55:57Z</time>
      </trkpt>
      <trkpt lat="44.2107" lon="6.344">
        <ele>1068.4</ele>
        <time>2018-08-09T10:55:59Z</time>
      </trkpt>
      <trkpt lat="44.21073" lon="6.34403">
        <ele>1068.7</ele>
        <time>2018-08-09T10:56:03Z</time>
      </trkpt>
      <trkpt lat="44.21077" lon="6.34405">
        <ele>1068.9</ele>
        <time>2018-08-09T10:56:06Z</time>
      </trkpt>
      <trkpt lat="44.21081" lon="6.34407">
        <ele>1069</ele>
        <time>2018-08-09T10:56:09Z</time>
      </trkpt>
      <trkpt lat="44.21084" lon="6.34408">
        <ele>1069.1</ele>
        <time>2018-08-09T10:56:11Z</time>
      </trkpt>
      <trkpt lat="44.21087" lon="6.34408">
        <ele>1069.2</ele>
        <time>2018-08-09T10:56:13Z</time>
      </trkpt>
      <trkpt lat="44.2109" lon="6.34407">
        <ele>1069.3</ele>
        <time>2018-08-09T10:56:15Z</time>
      </trkpt>
      <trkpt lat="44.21094" lon="6.34404">
        <ele>1069.3</ele>
        <time>2018-08-09T10:56:17Z</time>
      </trkpt>
      <trkpt lat="44.21098" lon="6.34405">
        <ele>1069.5</ele>
        <time>2018-08-09T10:56:19Z</time>
      </trkpt>
      <trkpt lat="44.21102" lon="6.34406">
        <ele>1069.5</ele>
        <time>2018-08-09T10:56:21Z</time>
      </trkpt>
      <trkpt lat="44.21107" lon="6.34408">
        <ele>1069.6</ele>
        <time>2018-08-09T10:56:22Z</time>
      </trkpt>
      <trkpt lat="44.2111" lon="6.34408">
        <ele>1069.7</ele>
        <time>2018-08-09T10:56:23Z</time>
      </trkpt>
      <trkpt lat="44.21114" lon="6.34407">
        <ele>1069.8</ele>
        <time>2018-08-09T10:56:25Z</time>
      </trkpt>
      <trkpt lat="44.21117" lon="6.34404">
        <ele>1069.9</ele>
        <time>2018-08-09T10:56:27Z</time>
      </trkpt>
      <trkpt lat="44.21121" lon="6.34405">
        <ele>1070</ele>
        <time>2018-08-09T10:56:29Z</time>
      </trkpt>
      <trkpt lat="44.21124" lon="6.34408">
        <ele>1070.1</ele>
        <time>2018-08-09T10:56:31Z</time>
      </trkpt>
      <trkpt lat="44.21128" lon="6.34411">
        <ele>1070.2</ele>
        <time>2018-08-09T10:56:33Z</time>
      </trkpt>
      <trkpt lat="44.21131" lon="6.34413">
        <ele>1070.4</ele>
        <time>2018-08-09T10:56:35Z</time>
      </trkpt>
      <trkpt lat="44.21135" lon="6.34415">
        <ele>1070.7</ele>
        <time>2018-08-09T10:56:37Z</time>
      </trkpt>
      <trkpt lat="44.21139" lon="6.34418">
        <ele>1071.2</ele>
        <time>2018-08-09T10:56:39Z</time>
      </trkpt>
      <trkpt lat="44.21141" lon="6.3442">
        <ele>1071.7</ele>
        <time>2018-08-09T10:56:41Z</time>
      </trkpt>
      <trkpt lat="44.21144" lon="6.34423">
        <ele>1072.2</ele>
        <time>2018-08-09T10:56:44Z</time>
      </trkpt>
      <trkpt lat="44.21147" lon="6.34426">
        <ele>1072.7</ele>
        <time>2018-08-09T10:56:46Z</time>
      </trkpt>
      <trkpt lat="44.2115" lon="6.34426">
        <ele>1073.3</ele>
        <time>2018-08-09T10:56:49Z</time>
      </trkpt>
      <trkpt lat="44.21153" lon="6.34429">
        <ele>1073.9</ele>
        <time>2018-08-09T10:56:52Z</time>
      </trkpt>
      <trkpt lat="44.21157" lon="6.34431">
        <ele>1074.6</ele>
        <time>2018-08-09T10:56:55Z</time>
      </trkpt>
      <trkpt lat="44.21161" lon="6.34431">
        <ele>1075.2</ele>
        <time>2018-08-09T10:56:57Z</time>
      </trkpt>
      <trkpt lat="44.21164" lon="6.34432">
        <ele>1075.7</ele>
        <time>2018-08-09T10:56:59Z</time>
      </trkpt>
      <trkpt lat="44.21167" lon="6.34433">
        <ele>1076</ele>
        <time>2018-08-09T10:57:02Z</time>
      </trkpt>
      <trkpt lat="44.2117" lon="6.34434">
        <ele>1076.4</ele>
        <time>2018-08-09T10:57:05Z</time>
      </trkpt>
      <trkpt lat="44.21172" lon="6.34431">
        <ele>1076.7</ele>
        <time>2018-08-09T10:57:07Z</time>
      </trkpt>
      <trkpt lat="44.21175" lon="6.34433">
        <ele>1077.1</ele>
        <time>2018-08-09T10:57:09Z</time>
      </trkpt>
      <trkpt lat="44.21179" lon="6.34435">
        <ele>1077.7</ele>
        <time>2018-08-09T10:57:12Z</time>
      </trkpt>
      <trkpt lat="44.21183" lon="6.34437">
        <ele>1078.1</ele>
        <time>2018-08-09T10:57:15Z</time>
      </trkpt>
      <trkpt lat="44.21186" lon="6.34439">
        <ele>1078.5</ele>
        <time>2018-08-09T10:57:18Z</time>
      </trkpt>
      <trkpt lat="44.21189" lon="6.34442">
        <ele>1079</ele>
        <time>2018-08-09T10:57:28Z</time>
      </trkpt>
      <trkpt lat="44.21192" lon="6.34444">
        <ele>1079.5</ele>
        <time>2018-08-09T10:57:31Z</time>
      </trkpt>
      <trkpt lat="44.21196" lon="6.34444">
        <ele>1080</ele>
        <time>2018-08-09T10:57:36Z</time>
      </trkpt>
      <trkpt lat="44.21198" lon="6.34447">
        <ele>1080.5</ele>
        <time>2018-08-09T10:57:39Z</time>
      </trkpt>
      <trkpt lat="44.212" lon="6.3445">
        <ele>1081</ele>
        <time>2018-08-09T10:57:43Z</time>
      </trkpt>
      <trkpt lat="44.21204" lon="6.34452">
        <ele>1081.6</ele>
        <time>2018-08-09T10:57:46Z</time>
      </trkpt>
      <trkpt lat="44.21207" lon="6.34453">
        <ele>1082.1</ele>
        <time>2018-08-09T10:57:48Z</time>
      </trkpt>
      <trkpt lat="44.21211" lon="6.34454">
        <ele>1082.8</ele>
        <time>2018-08-09T10:57:53Z</time>
      </trkpt>
      <trkpt lat="44.21214" lon="6.34453">
        <ele>1083.5</ele>
        <time>2018-08-09T10:57:58Z</time>
      </trkpt>
      <trkpt lat="44.21216" lon="6.34456">
        <ele>1084.1</ele>
        <time>2018-08-09T10:58:02Z</time>
      </trkpt>
      <trkpt lat="44.21219" lon="6.34458">
        <ele>1084.6</ele>
        <time>2018-08-09T10:58:05Z</time>
      </trkpt>
      <trkpt lat="44.21222" lon="6.34459">
        <ele>1085.3</ele>
        <time>2018-08-09T10:58:08Z</time>
      </trkpt>
      <trkpt lat="44.21226" lon="6.3446">
        <ele>1085.9</ele>
        <time>2018-08-09T10:58:13Z</time>
      </trkpt>
      <trkpt lat="44.21229" lon="6.34462">
        <ele>1086.5</ele>
        <time>2018-08-09T10:58:16Z</time>
      </trkpt>
      <trkpt lat="44.21232" lon="6.34464">
        <ele>1087</ele>
        <time>2018-08-09T10:58:19Z</time>
      </trkpt>
      <trkpt lat="44.21234" lon="6.34467">
        <ele>1087.5</ele>
        <time>2018-08-09T10:58:21Z</time>
      </trkpt>
      <trkpt lat="44.21237" lon="6.34468">
        <ele>1088</ele>
        <time>2018-08-09T10:58:24Z</time>
      </trkpt>
      <trkpt lat="44.2124" lon="6.3447">
        <ele>1088.5</ele>
        <time>2018-08-09T10:58:26Z</time>
      </trkpt>
      <trkpt lat="44.21243" lon="6.3447">
        <ele>1089</ele>
        <time>2018-08-09T10:58:31Z</time>
      </trkpt>
      <trkpt lat="44.21245" lon="6.34468">
        <ele>1089.5</ele>
        <time>2018-08-09T10:58:35Z</time>
      </trkpt>
      <trkpt lat="44.21248" lon="6.34468">
        <ele>1089.9</ele>
        <time>2018-08-09T10:58:37Z</time>
      </trkpt>
      <trkpt lat="44.21252" lon="6.34467">
        <ele>1090.6</ele>
        <time>2018-08-09T10:58:40Z</time>
      </trkpt>
      <trkpt lat="44.21255" lon="6.34468">
        <ele>1091.2</ele>
        <time>2018-08-09T10:58:42Z</time>
      </trkpt>
      <trkpt lat="44.21258" lon="6.34469">
        <ele>1091.7</ele>
        <time>2018-08-09T10:58:45Z</time>
      </trkpt>
      <trkpt lat="44.21261" lon="6.34469">
        <ele>1092.2</ele>
        <time>2018-08-09T10:58:49Z</time>
      </trkpt>
      <trkpt lat="44.21264" lon="6.34469">
        <ele>1092.8</ele>
        <time>2018-08-09T10:58:53Z</time>
      </trkpt>
      <trkpt lat="44.21267" lon="6.3447">
        <ele>1093.2</ele>
        <time>2018-08-09T10:58:57Z</time>
      </trkpt>
      <trkpt lat="44.2127" lon="6.34473">
        <ele>1093.7</ele>
        <time>2018-08-09T10:59:00Z</time>
      </trkpt>
      <trkpt lat="44.21272" lon="6.34476">
        <ele>1094.2</ele>
        <time>2018-08-09T10:59:03Z</time>
      </trkpt>
      <trkpt lat="44.21276" lon="6.34477">
        <ele>1094.8</ele>
        <time>2018-08-09T10:59:08Z</time>
      </trkpt>
      <trkpt lat="44.21278" lon="6.3448">
        <ele>1095.4</ele>
        <time>2018-08-09T10:59:11Z</time>
      </trkpt>
      <trkpt lat="44.21281" lon="6.34483">
        <ele>1095.9</ele>
        <time>2018-08-09T10:59:13Z</time>
      </trkpt>
      <trkpt lat="44.21285" lon="6.34485">
        <ele>1096.6</ele>
        <time>2018-08-09T10:59:17Z</time>
      </trkpt>
      <trkpt lat="44.21288" lon="6.34485">
        <ele>1097.2</ele>
        <time>2018-08-09T10:59:20Z</time>
      </trkpt>
      <trkpt lat="44.21292" lon="6.34487">
        <ele>1098</ele>
        <time>2018-08-09T10:59:23Z</time>
      </trkpt>
      <trkpt lat="44.21295" lon="6.34485">
        <ele>1098.5</ele>
        <time>2018-08-09T10:59:32Z</time>
      </trkpt>
      <trkpt lat="44.21298" lon="6.34484">
        <ele>1099</ele>
        <time>2018-08-09T10:59:39Z</time>
      </trkpt>
      <trkpt lat="44.21301" lon="6.34486">
        <ele>1099.6</ele>
        <time>2018-08-09T10:59:43Z</time>
      </trkpt>
      <trkpt lat="44.21303" lon="6.34483">
        <ele>1100.1</ele>
        <time>2018-08-09T10:59:45Z</time>
      </trkpt>
      <trkpt lat="44.21306" lon="6.34481">
        <ele>1100.6</ele>
        <time>2018-08-09T10:59:56Z</time>
      </trkpt>
      <trkpt lat="44.21305" lon="6.34477">
        <ele>1101.1</ele>
        <time>2018-08-09T11:00:00Z</time>
      </trkpt>
      <trkpt lat="44.21307" lon="6.34473">
        <ele>1101.8</ele>
        <time>2018-08-09T11:00:05Z</time>
      </trkpt>
      <trkpt lat="44.21308" lon="6.34469">
        <ele>1102.5</ele>
        <time>2018-08-09T11:00:09Z</time>
      </trkpt>
      <trkpt lat="44.21309" lon="6.34464">
        <ele>1103.4</ele>
        <time>2018-08-09T11:00:14Z</time>
      </trkpt>
      <trkpt lat="44.21309" lon="6.34461">
        <ele>1104.2</ele>
        <time>2018-08-09T11:00:18Z</time>
      </trkpt>
      <trkpt lat="44.21308" lon="6.34457">
        <ele>1105.1</ele>
        <time>2018-08-09T11:00:22Z</time>
      </trkpt>
      <trkpt lat="44.21306" lon="6.34454">
        <ele>1105.9</ele>
        <time>2018-08-09T11:00:26Z</time>
      </trkpt>
      <trkpt lat="44.21304" lon="6.3445">
        <ele>1106.8</ele>
        <time>2018-08-09T11:00:30Z</time>
      </trkpt>
      <trkpt lat="44.21303" lon="6.34446">
        <ele>1107.5</ele>
        <time>2018-08-09T11:00:32Z</time>
      </trkpt>
      <trkpt lat="44.213" lon="6.34444">
        <ele>1108.1</ele>
        <time>2018-08-09T11:00:34Z</time>
      </trkpt>
      <trkpt lat="44.21299" lon="6.34441">
        <ele>1108.8</ele>
        <time>2018-08-09T11:00:39Z</time>
      </trkpt>
      <trkpt lat="44.21296" lon="6.34438">
        <ele>1109.5</ele>
        <time>2018-08-09T11:00:47Z</time>
      </trkpt>
      <trkpt lat="44.21294" lon="6.34437">
        <ele>1110</ele>
        <time>2018-08-09T11:00:49Z</time>
      </trkpt>
      <trkpt lat="44.21291" lon="6.34433">
        <ele>1110.8</ele>
        <time>2018-08-09T11:00:54Z</time>
      </trkpt>
      <trkpt lat="44.21288" lon="6.34431">
        <ele>1111.4</ele>
        <time>2018-08-09T11:00:59Z</time>
      </trkpt>
      <trkpt lat="44.21286" lon="6.34427">
        <ele>1112</ele>
        <time>2018-08-09T11:01:01Z</time>
      </trkpt>
      <trkpt lat="44.21284" lon="6.34423">
        <ele>1112.6</ele>
        <time>2018-08-09T11:01:04Z</time>
      </trkpt>
      <trkpt lat="44.21282" lon="6.3442">
        <ele>1113.2</ele>
        <time>2018-08-09T11:01:07Z</time>
      </trkpt>
      <trkpt lat="44.2128" lon="6.34417">
        <ele>1113.7</ele>
        <time>2018-08-09T11:01:12Z</time>
      </trkpt>
      <trkpt lat="44.21276" lon="6.34414">
        <ele>1114.6</ele>
        <time>2018-08-09T11:01:14Z</time>
      </trkpt>
      <trkpt lat="44.21274" lon="6.34411">
        <ele>1115.2</ele>
        <time>2018-08-09T11:01:17Z</time>
      </trkpt>
      <trkpt lat="44.21271" lon="6.34409">
        <ele>1115.9</ele>
        <time>2018-08-09T11:01:21Z</time>
      </trkpt>
      <trkpt lat="44.21268" lon="6.34407">
        <ele>1116.5</ele>
        <time>2018-08-09T11:01:25Z</time>
      </trkpt>
      <trkpt lat="44.21265" lon="6.34404">
        <ele>1117.3</ele>
        <time>2018-08-09T11:01:30Z</time>
      </trkpt>
      <trkpt lat="44.21262" lon="6.34403">
        <ele>1117.9</ele>
        <time>2018-08-09T11:01:34Z</time>
      </trkpt>
      <trkpt lat="44.21261" lon="6.34399">
        <ele>1118.6</ele>
        <time>2018-08-09T11:01:38Z</time>
      </trkpt>
      <trkpt lat="44.2126" lon="6.34396">
        <ele>1119.1</ele>
        <time>2018-08-09T11:01:41Z</time>
      </trkpt>
      <trkpt lat="44.21259" lon="6.34392">
        <ele>1119.6</ele>
        <time>2018-08-09T11:01:50Z</time>
      </trkpt>
      <trkpt lat="44.21257" lon="6.34387">
        <ele>1120.3</ele>
        <time>2018-08-09T11:01:53Z</time>
      </trkpt>
      <trkpt lat="44.21255" lon="6.34383">
        <ele>1120.7</ele>
        <time>2018-08-09T11:01:55Z</time>
      </trkpt>
      <trkpt lat="44.21254" lon="6.34379">
        <ele>1121.3</ele>
        <time>2018-08-09T11:01:58Z</time>
      </trkpt>
      <trkpt lat="44.21252" lon="6.34376">
        <ele>1121.8</ele>
        <time>2018-08-09T11:02:01Z</time>
      </trkpt>
      <trkpt lat="44.2125" lon="6.34372">
        <ele>1122.5</ele>
        <time>2018-08-09T11:02:05Z</time>
      </trkpt>
      <trkpt lat="44.2125" lon="6.34368">
        <ele>1123.1</ele>
        <time>2018-08-09T11:02:10Z</time>
      </trkpt>
      <trkpt lat="44.21248" lon="6.34365">
        <ele>1123.6</ele>
        <time>2018-08-09T11:02:15Z</time>
      </trkpt>
      <trkpt lat="44.21245" lon="6.34362">
        <ele>1124.3</ele>
        <time>2018-08-09T11:02:20Z</time>
      </trkpt>
      <trkpt lat="44.21243" lon="6.34356">
        <ele>1125.1</ele>
        <time>2018-08-09T11:02:26Z</time>
      </trkpt>
      <trkpt lat="44.21242" lon="6.34353">
        <ele>1125.7</ele>
        <time>2018-08-09T11:02:28Z</time>
      </trkpt>
      <trkpt lat="44.2124" lon="6.34347">
        <ele>1126.5</ele>
        <time>2018-08-09T11:02:31Z</time>
      </trkpt>
      <trkpt lat="44.21237" lon="6.34347">
        <ele>1127</ele>
        <time>2018-08-09T11:02:38Z</time>
      </trkpt>
      <trkpt lat="44.21236" lon="6.34343">
        <ele>1127.6</ele>
        <time>2018-08-09T11:02:54Z</time>
      </trkpt>
      <trkpt lat="44.21235" lon="6.3434">
        <ele>1128.2</ele>
        <time>2018-08-09T11:03:00Z</time>
      </trkpt>
      <trkpt lat="44.21234" lon="6.34336">
        <ele>1128.7</ele>
        <time>2018-08-09T11:03:04Z</time>
      </trkpt>
      <trkpt lat="44.21231" lon="6.34332">
        <ele>1129.6</ele>
        <time>2018-08-09T11:03:10Z</time>
      </trkpt>
      <trkpt lat="44.2123" lon="6.34327">
        <ele>1130.5</ele>
        <time>2018-08-09T11:03:15Z</time>
      </trkpt>
      <trkpt lat="44.21232" lon="6.34324">
        <ele>1131.3</ele>
        <time>2018-08-09T11:03:19Z</time>
      </trkpt>
      <trkpt lat="44.21234" lon="6.3432">
        <ele>1132.1</ele>
        <time>2018-08-09T11:03:25Z</time>
      </trkpt>
      <trkpt lat="44.21237" lon="6.34317">
        <ele>1132.9</ele>
        <time>2018-08-09T11:03:31Z</time>
      </trkpt>
      <trkpt lat="44.2124" lon="6.34317">
        <ele>1133.6</ele>
        <time>2018-08-09T11:03:37Z</time>
      </trkpt>
      <trkpt lat="44.21242" lon="6.34316">
        <ele>1134.3</ele>
        <time>2018-08-09T11:03:44Z</time>
      </trkpt>
      <trkpt lat="44.21245" lon="6.34314">
        <ele>1135.2</ele>
        <time>2018-08-09T11:03:50Z</time>
      </trkpt>
      <trkpt lat="44.21249" lon="6.34314">
        <ele>1136.1</ele>
        <time>2018-08-09T11:03:56Z</time>
      </trkpt>
      <trkpt lat="44.21252" lon="6.34317">
        <ele>1136.9</ele>
        <time>2018-08-09T11:03:59Z</time>
      </trkpt>
      <trkpt lat="44.21256" lon="6.34315">
        <ele>1137.8</ele>
        <time>2018-08-09T11:04:04Z</time>
      </trkpt>
      <trkpt lat="44.21259" lon="6.34315">
        <ele>1138.5</ele>
        <time>2018-08-09T11:04:08Z</time>
      </trkpt>
      <trkpt lat="44.21262" lon="6.34314">
        <ele>1139.1</ele>
        <time>2018-08-09T11:04:20Z</time>
      </trkpt>
      <trkpt lat="44.21265" lon="6.34314">
        <ele>1139.9</ele>
        <time>2018-08-09T11:04:24Z</time>
      </trkpt>
      <trkpt lat="44.21268" lon="6.34313">
        <ele>1140.6</ele>
        <time>2018-08-09T11:04:28Z</time>
      </trkpt>
      <trkpt lat="44.21271" lon="6.34312">
        <ele>1141.3</ele>
        <time>2018-08-09T11:04:33Z</time>
      </trkpt>
      <trkpt lat="44.21273" lon="6.34315">
        <ele>1142.1</ele>
        <time>2018-08-09T11:04:36Z</time>
      </trkpt>
      <trkpt lat="44.21277" lon="6.34315">
        <ele>1143.1</ele>
        <time>2018-08-09T11:04:39Z</time>
      </trkpt>
      <trkpt lat="44.2128" lon="6.34316">
        <ele>1144.1</ele>
        <time>2018-08-09T11:04:42Z</time>
      </trkpt>
      <trkpt lat="44.21283" lon="6.34317">
        <ele>1145.1</ele>
        <time>2018-08-09T11:04:45Z</time>
      </trkpt>
      <trkpt lat="44.21286" lon="6.34317">
        <ele>1146.2</ele>
        <time>2018-08-09T11:04:48Z</time>
      </trkpt>
      <trkpt lat="44.21289" lon="6.34316">
        <ele>1147.1</ele>
        <time>2018-08-09T11:04:52Z</time>
      </trkpt>
      <trkpt lat="44.21291" lon="6.34314">
        <ele>1148.1</ele>
        <time>2018-08-09T11:04:56Z</time>
      </trkpt>
      <trkpt lat="44.21294" lon="6.34315">
        <ele>1148.8</ele>
        <time>2018-08-09T11:04:58Z</time>
      </trkpt>
      <trkpt lat="44.21297" lon="6.34315">
        <ele>1149.5</ele>
        <time>2018-08-09T11:05:01Z</time>
      </trkpt>
      <trkpt lat="44.213" lon="6.34312">
        <ele>1150.5</ele>
        <time>2018-08-09T11:05:06Z</time>
      </trkpt>
      <trkpt lat="44.21303" lon="6.34313">
        <ele>1151.2</ele>
        <time>2018-08-09T11:05:09Z</time>
      </trkpt>
      <trkpt lat="44.21306" lon="6.34314">
        <ele>1151.8</ele>
        <time>2018-08-09T11:05:19Z</time>
      </trkpt>
      <trkpt lat="44.2131" lon="6.34314">
        <ele>1152.4</ele>
        <time>2018-08-09T11:05:22Z</time>
      </trkpt>
      <trkpt lat="44.21313" lon="6.34315">
        <ele>1153</ele>
        <time>2018-08-09T11:05:25Z</time>
      </trkpt>
      <trkpt lat="44.21315" lon="6.34315">
        <ele>1153.5</ele>
        <time>2018-08-09T11:05:28Z</time>
      </trkpt>
      <trkpt lat="44.21319" lon="6.34315">
        <ele>1154.1</ele>
        <time>2018-08-09T11:05:30Z</time>
      </trkpt>
      <trkpt lat="44.21321" lon="6.34318">
        <ele>1154.7</ele>
        <time>2018-08-09T11:05:33Z</time>
      </trkpt>
      <trkpt lat="44.21324" lon="6.34319">
        <ele>1155.3</ele>
        <time>2018-08-09T11:05:35Z</time>
      </trkpt>
      <trkpt lat="44.21328" lon="6.3432">
        <ele>1155.9</ele>
        <time>2018-08-09T11:05:37Z</time>
      </trkpt>
      <trkpt lat="44.21333" lon="6.34323">
        <ele>1156.6</ele>
        <time>2018-08-09T11:05:40Z</time>
      </trkpt>
      <trkpt lat="44.21335" lon="6.34325">
        <ele>1157.1</ele>
        <time>2018-08-09T11:05:42Z</time>
      </trkpt>
      <trkpt lat="44.21338" lon="6.34328">
        <ele>1157.5</ele>
        <time>2018-08-09T11:05:44Z</time>
      </trkpt>
      <trkpt lat="44.21341" lon="6.34327">
        <ele>1157.9</ele>
        <time>2018-08-09T11:05:47Z</time>
      </trkpt>
      <trkpt lat="44.21344" lon="6.34329">
        <ele>1158.3</ele>
        <time>2018-08-09T11:05:50Z</time>
      </trkpt>
      <trkpt lat="44.21347" lon="6.34333">
        <ele>1158.8</ele>
        <time>2018-08-09T11:05:54Z</time>
      </trkpt>
      <trkpt lat="44.21349" lon="6.34335">
        <ele>1159.1</ele>
        <time>2018-08-09T11:05:56Z</time>
      </trkpt>
      <trkpt lat="44.21351" lon="6.34338">
        <ele>1159.5</ele>
        <time>2018-08-09T11:05:58Z</time>
      </trkpt>
      <trkpt lat="44.21355" lon="6.34339">
        <ele>1160</ele>
        <time>2018-08-09T11:06:01Z</time>
      </trkpt>
      <trkpt lat="44.21357" lon="6.34341">
        <ele>1160.3</ele>
        <time>2018-08-09T11:06:04Z</time>
      </trkpt>
      <trkpt lat="44.21361" lon="6.34343">
        <ele>1160.8</ele>
        <time>2018-08-09T11:06:07Z</time>
      </trkpt>
      <trkpt lat="44.21365" lon="6.34342">
        <ele>1161.4</ele>
        <time>2018-08-09T11:06:10Z</time>
      </trkpt>
      <trkpt lat="44.21369" lon="6.34342">
        <ele>1162</ele>
        <time>2018-08-09T11:06:13Z</time>
      </trkpt>
      <trkpt lat="44.21372" lon="6.34342">
        <ele>1162.6</ele>
        <time>2018-08-09T11:06:16Z</time>
      </trkpt>
      <trkpt lat="44.21375" lon="6.34341">
        <ele>1163.1</ele>
        <time>2018-08-09T11:06:18Z</time>
      </trkpt>
      <trkpt lat="44.21379" lon="6.34339">
        <ele>1163.8</ele>
        <time>2018-08-09T11:06:22Z</time>
      </trkpt>
      <trkpt lat="44.21382" lon="6.34339">
        <ele>1164.3</ele>
        <time>2018-08-09T11:06:24Z</time>
      </trkpt>
      <trkpt lat="44.21385" lon="6.34338">
        <ele>1165</ele>
        <time>2018-08-09T11:06:27Z</time>
      </trkpt>
      <trkpt lat="44.21388" lon="6.34337">
        <ele>1165.8</ele>
        <time>2018-08-09T11:06:30Z</time>
      </trkpt>
      <trkpt lat="44.21391" lon="6.34339">
        <ele>1166.7</ele>
        <time>2018-08-09T11:06:33Z</time>
      </trkpt>
      <trkpt lat="44.21394" lon="6.34339">
        <ele>1167.5</ele>
        <time>2018-08-09T11:06:36Z</time>
      </trkpt>
      <trkpt lat="44.21396" lon="6.34341">
        <ele>1168.3</ele>
        <time>2018-08-09T11:06:38Z</time>
      </trkpt>
      <trkpt lat="44.21401" lon="6.34341">
        <ele>1169.5</ele>
        <time>2018-08-09T11:06:41Z</time>
      </trkpt>
      <trkpt lat="44.21405" lon="6.34341">
        <ele>1170.6</ele>
        <time>2018-08-09T11:06:45Z</time>
      </trkpt>
      <trkpt lat="44.21405" lon="6.34347">
        <ele>1170.8</ele>
        <time>2018-08-09T11:06:58Z</time>
      </trkpt>
      <trkpt lat="44.21403" lon="6.34352">
        <ele>1170.6</ele>
        <time>2018-08-09T11:07:04Z</time>
      </trkpt>
      <trkpt lat="44.21404" lon="6.34356">
        <ele>1170.4</ele>
        <time>2018-08-09T11:07:09Z</time>
      </trkpt>
      <trkpt lat="44.21406" lon="6.34353">
        <ele>1170.3</ele>
        <time>2018-08-09T11:07:24Z</time>
      </trkpt>
      <trkpt lat="44.21408" lon="6.34349">
        <ele>1170.1</ele>
        <time>2018-08-09T11:07:29Z</time>
      </trkpt>
      <trkpt lat="44.21408" lon="6.34345">
        <ele>1169.9</ele>
        <time>2018-08-09T11:07:44Z</time>
      </trkpt>
      <trkpt lat="44.21405" lon="6.34343">
        <ele>1169.8</ele>
        <time>2018-08-09T11:07:51Z</time>
      </trkpt>
      <trkpt lat="44.21403" lon="6.34345">
        <ele>1169.6</ele>
        <time>2018-08-09T11:07:56Z</time>
      </trkpt>
      <trkpt lat="44.214" lon="6.34343">
        <ele>1169.4</ele>
        <time>2018-08-09T11:08:01Z</time>
      </trkpt>
      <trkpt lat="44.21399" lon="6.34339">
        <ele>1169.3</ele>
        <time>2018-08-09T11:08:04Z</time>
      </trkpt>
      <trkpt lat="44.21398" lon="6.34343">
        <ele>1169.1</ele>
        <time>2018-08-09T11:08:22Z</time>
      </trkpt>
      <trkpt lat="44.21401" lon="6.34346">
        <ele>1168.9</ele>
        <time>2018-08-09T11:08:26Z</time>
      </trkpt>
      <trkpt lat="44.21404" lon="6.34348">
        <ele>1168.7</ele>
        <time>2018-08-09T11:08:29Z</time>
      </trkpt>
      <trkpt lat="44.21406" lon="6.34351">
        <ele>1168.5</ele>
        <time>2018-08-09T11:08:32Z</time>
      </trkpt>
      <trkpt lat="44.21405" lon="6.34347">
        <ele>1168.4</ele>
        <time>2018-08-09T11:09:00Z</time>
      </trkpt>
      <trkpt lat="44.21402" lon="6.34349">
        <ele>1168.2</ele>
        <time>2018-08-09T11:09:32Z</time>
      </trkpt>
      <trkpt lat="44.214" lon="6.34348">
        <ele>1168</ele>
        <time>2018-08-09T11:09:35Z</time>
      </trkpt>
      <trkpt lat="44.21398" lon="6.34344">
        <ele>1167.8</ele>
        <time>2018-08-09T11:09:37Z</time>
      </trkpt>
      <trkpt lat="44.21397" lon="6.3434">
        <ele>1167.7</ele>
        <time>2018-08-09T11:09:41Z</time>
      </trkpt>
      <trkpt lat="44.21393" lon="6.3434">
        <ele>1167.4</ele>
        <time>2018-08-09T11:09:44Z</time>
      </trkpt>
      <trkpt lat="44.21396" lon="6.34343">
        <ele>1168.3</ele>
        <time>2018-08-09T11:09:56Z</time>
      </trkpt>
      <trkpt lat="44.21398" lon="6.34345">
        <ele>1169</ele>
        <time>2018-08-09T11:10:01Z</time>
      </trkpt>
      <trkpt lat="44.21401" lon="6.34347">
        <ele>1169.8</ele>
        <time>2018-08-09T11:10:04Z</time>
      </trkpt>
      <trkpt lat="44.21404" lon="6.34348">
        <ele>1170.6</ele>
        <time>2018-08-09T11:10:08Z</time>
      </trkpt>
      <trkpt lat="44.21407" lon="6.34351">
        <ele>1171.3</ele>
        <time>2018-08-09T11:13:02Z</time>
      </trkpt>
      <trkpt lat="44.21405" lon="6.34354">
        <ele>1172</ele>
        <time>2018-08-09T11:15:11Z</time>
      </trkpt>
      <trkpt lat="44.21404" lon="6.34359">
        <ele>1172.7</ele>
        <time>2018-08-09T11:15:14Z</time>
      </trkpt>
      <trkpt lat="44.21404" lon="6.34363">
        <ele>1173.3</ele>
        <time>2018-08-09T11:15:16Z</time>
      </trkpt>
      <trkpt lat="44.21401" lon="6.34366">
        <ele>1174</ele>
        <time>2018-08-09T11:15:20Z</time>
      </trkpt>
      <trkpt lat="44.21399" lon="6.34369">
        <ele>1174.7</ele>
        <time>2018-08-09T11:15:31Z</time>
      </trkpt>
      <trkpt lat="44.21402" lon="6.34367">
        <ele>1175.4</ele>
        <time>2018-08-09T11:15:34Z</time>
      </trkpt>
      <trkpt lat="44.21404" lon="6.34363">
        <ele>1176</ele>
        <time>2018-08-09T11:15:39Z</time>
      </trkpt>
      <trkpt lat="44.21403" lon="6.34358">
        <ele>1176.7</ele>
        <time>2018-08-09T11:15:43Z</time>
      </trkpt>
      <trkpt lat="44.21405" lon="6.34355">
        <ele>1177.4</ele>
        <time>2018-08-09T11:15:46Z</time>
      </trkpt>
      <trkpt lat="44.21402" lon="6.34357">
        <ele>1178</ele>
        <time>2018-08-09T11:20:54Z</time>
      </trkpt>
      <trkpt lat="44.21406" lon="6.3436">
        <ele>1178.9</ele>
        <time>2018-08-09T11:21:18Z</time>
      </trkpt>
      <trkpt lat="44.21409" lon="6.34361">
        <ele>1179.5</ele>
        <time>2018-08-09T11:21:20Z</time>
      </trkpt>
      <trkpt lat="44.21412" lon="6.34361">
        <ele>1180.2</ele>
        <time>2018-08-09T11:21:22Z</time>
      </trkpt>
      <trkpt lat="44.21415" lon="6.34362">
        <ele>1180.9</ele>
        <time>2018-08-09T11:21:24Z</time>
      </trkpt>
      <trkpt lat="44.21418" lon="6.3436">
        <ele>1181.6</ele>
        <time>2018-08-09T11:21:27Z</time>
      </trkpt>
      <trkpt lat="44.21421" lon="6.34361">
        <ele>1182.4</ele>
        <time>2018-08-09T11:21:30Z</time>
      </trkpt>
      <trkpt lat="44.21424" lon="6.34361">
        <ele>1183.1</ele>
        <time>2018-08-09T11:21:32Z</time>
      </trkpt>
      <trkpt lat="44.21426" lon="6.34365">
        <ele>1183.8</ele>
        <time>2018-08-09T11:21:34Z</time>
      </trkpt>
      <trkpt lat="44.21429" lon="6.34367">
        <ele>1184.5</ele>
        <time>2018-08-09T11:21:37Z</time>
      </trkpt>
      <trkpt lat="44.21432" lon="6.34367">
        <ele>1185.1</ele>
        <time>2018-08-09T11:21:39Z</time>
      </trkpt>
      <trkpt lat="44.21436" lon="6.34367">
        <ele>1185.8</ele>
        <time>2018-08-09T11:21:42Z</time>
      </trkpt>
      <trkpt lat="44.21438" lon="6.34366">
        <ele>1186.3</ele>
        <time>2018-08-09T11:21:44Z</time>
      </trkpt>
      <trkpt lat="44.21442" lon="6.34367">
        <ele>1186.9</ele>
        <time>2018-08-09T11:21:47Z</time>
      </trkpt>
      <trkpt lat="44.21443" lon="6.3437">
        <ele>1187.3</ele>
        <time>2018-08-09T11:21:50Z</time>
      </trkpt>
      <trkpt lat="44.21447" lon="6.34372">
        <ele>1187.9</ele>
        <time>2018-08-09T11:21:53Z</time>
      </trkpt>
      <trkpt lat="44.21449" lon="6.34374">
        <ele>1188.4</ele>
        <time>2018-08-09T11:21:55Z</time>
      </trkpt>
      <trkpt lat="44.21451" lon="6.34378">
        <ele>1188.9</ele>
        <time>2018-08-09T11:21:58Z</time>
      </trkpt>
      <trkpt lat="44.21454" lon="6.3438">
        <ele>1189.4</ele>
        <time>2018-08-09T11:22:01Z</time>
      </trkpt>
      <trkpt lat="44.21457" lon="6.34382">
        <ele>1189.9</ele>
        <time>2018-08-09T11:22:03Z</time>
      </trkpt>
      <trkpt lat="44.21459" lon="6.34384">
        <ele>1190.3</ele>
        <time>2018-08-09T11:22:06Z</time>
      </trkpt>
      <trkpt lat="44.21462" lon="6.34386">
        <ele>1190.8</ele>
        <time>2018-08-09T11:22:09Z</time>
      </trkpt>
      <trkpt lat="44.21465" lon="6.34388">
        <ele>1191.3</ele>
        <time>2018-08-09T11:22:12Z</time>
      </trkpt>
      <trkpt lat="44.21468" lon="6.34389">
        <ele>1191.8</ele>
        <time>2018-08-09T11:22:14Z</time>
      </trkpt>
      <trkpt lat="44.21471" lon="6.34392">
        <ele>1192.4</ele>
        <time>2018-08-09T11:22:17Z</time>
      </trkpt>
      <trkpt lat="44.21474" lon="6.34396">
        <ele>1193.1</ele>
        <time>2018-08-09T11:22:21Z</time>
      </trkpt>
      <trkpt lat="44.21477" lon="6.34397">
        <ele>1193.6</ele>
        <time>2018-08-09T11:22:24Z</time>
      </trkpt>
      <trkpt lat="44.2148" lon="6.344">
        <ele>1194.3</ele>
        <time>2018-08-09T11:22:27Z</time>
      </trkpt>
      <trkpt lat="44.21483" lon="6.34403">
        <ele>1194.9</ele>
        <time>2018-08-09T11:22:30Z</time>
      </trkpt>
      <trkpt lat="44.21486" lon="6.34406">
        <ele>1195.5</ele>
        <time>2018-08-09T11:22:33Z</time>
      </trkpt>
      <trkpt lat="44.21489" lon="6.34408">
        <ele>1195.9</ele>
        <time>2018-08-09T11:22:36Z</time>
      </trkpt>
      <trkpt lat="44.21491" lon="6.34412">
        <ele>1196.5</ele>
        <time>2018-08-09T11:22:39Z</time>
      </trkpt>
      <trkpt lat="44.21494" lon="6.34413">
        <ele>1197</ele>
        <time>2018-08-09T11:22:42Z</time>
      </trkpt>
      <trkpt lat="44.21496" lon="6.34417">
        <ele>1197.5</ele>
        <time>2018-08-09T11:22:45Z</time>
      </trkpt>
      <trkpt lat="44.21498" lon="6.34418">
        <ele>1197.9</ele>
        <time>2018-08-09T11:22:47Z</time>
      </trkpt>
      <trkpt lat="44.21501" lon="6.34419">
        <ele>1198.4</ele>
        <time>2018-08-09T11:22:50Z</time>
      </trkpt>
      <trkpt lat="44.21504" lon="6.3442">
        <ele>1198.8</ele>
        <time>2018-08-09T11:22:52Z</time>
      </trkpt>
      <trkpt lat="44.21507" lon="6.34422">
        <ele>1199.3</ele>
        <time>2018-08-09T11:22:54Z</time>
      </trkpt>
      <trkpt lat="44.2151" lon="6.34424">
        <ele>1199.7</ele>
        <time>2018-08-09T11:22:58Z</time>
      </trkpt>
      <trkpt lat="44.21512" lon="6.34427">
        <ele>1200.1</ele>
        <time>2018-08-09T11:23:00Z</time>
      </trkpt>
      <trkpt lat="44.21514" lon="6.3443">
        <ele>1200.6</ele>
        <time>2018-08-09T11:23:04Z</time>
      </trkpt>
      <trkpt lat="44.21515" lon="6.34434">
        <ele>1200.9</ele>
        <time>2018-08-09T11:23:06Z</time>
      </trkpt>
      <trkpt lat="44.21517" lon="6.34438">
        <ele>1201.4</ele>
        <time>2018-08-09T11:23:10Z</time>
      </trkpt>
      <trkpt lat="44.2152" lon="6.34441">
        <ele>1201.7</ele>
        <time>2018-08-09T11:23:12Z</time>
      </trkpt>
      <trkpt lat="44.21522" lon="6.34445">
        <ele>1202.1</ele>
        <time>2018-08-09T11:23:15Z</time>
      </trkpt>
      <trkpt lat="44.21524" lon="6.34448">
        <ele>1202.4</ele>
        <time>2018-08-09T11:23:18Z</time>
      </trkpt>
      <trkpt lat="44.21527" lon="6.34449">
        <ele>1202.8</ele>
        <time>2018-08-09T11:23:20Z</time>
      </trkpt>
      <trkpt lat="44.2153" lon="6.3445">
        <ele>1203.1</ele>
        <time>2018-08-09T11:23:22Z</time>
      </trkpt>
      <trkpt lat="44.21534" lon="6.34452">
        <ele>1203.4</ele>
        <time>2018-08-09T11:23:24Z</time>
      </trkpt>
      <trkpt lat="44.21537" lon="6.34454">
        <ele>1203.7</ele>
        <time>2018-08-09T11:23:27Z</time>
      </trkpt>
      <trkpt lat="44.21539" lon="6.34459">
        <ele>1204.1</ele>
        <time>2018-08-09T11:23:30Z</time>
      </trkpt>
      <trkpt lat="44.21542" lon="6.34461">
        <ele>1204.4</ele>
        <time>2018-08-09T11:23:33Z</time>
      </trkpt>
      <trkpt lat="44.21544" lon="6.34464">
        <ele>1204.6</ele>
        <time>2018-08-09T11:23:36Z</time>
      </trkpt>
      <trkpt lat="44.21546" lon="6.34467">
        <ele>1204.9</ele>
        <time>2018-08-09T11:23:38Z</time>
      </trkpt>
      <trkpt lat="44.21549" lon="6.34469">
        <ele>1205.1</ele>
        <time>2018-08-09T11:23:41Z</time>
      </trkpt>
      <trkpt lat="44.21552" lon="6.34471">
        <ele>1205.4</ele>
        <time>2018-08-09T11:23:43Z</time>
      </trkpt>
      <trkpt lat="44.21554" lon="6.34473">
        <ele>1205.6</ele>
        <time>2018-08-09T11:23:45Z</time>
      </trkpt>
      <trkpt lat="44.21558" lon="6.34475">
        <ele>1205.9</ele>
        <time>2018-08-09T11:23:47Z</time>
      </trkpt>
      <trkpt lat="44.21561" lon="6.34478">
        <ele>1206.1</ele>
        <time>2018-08-09T11:23:50Z</time>
      </trkpt>
      <trkpt lat="44.21563" lon="6.34481">
        <ele>1206.2</ele>
        <time>2018-08-09T11:23:53Z</time>
      </trkpt>
      <trkpt lat="44.21566" lon="6.34483">
        <ele>1206.4</ele>
        <time>2018-08-09T11:23:56Z</time>
      </trkpt>
      <trkpt lat="44.21569" lon="6.34487">
        <ele>1206.6</ele>
        <time>2018-08-09T11:23:59Z</time>
      </trkpt>
      <trkpt lat="44.21572" lon="6.3449">
        <ele>1206.8</ele>
        <time>2018-08-09T11:24:02Z</time>
      </trkpt>
      <trkpt lat="44.21574" lon="6.34493">
        <ele>1206.9</ele>
        <time>2018-08-09T11:24:05Z</time>
      </trkpt>
      <trkpt lat="44.21577" lon="6.34496">
        <ele>1207.2</ele>
        <time>2018-08-09T11:24:08Z</time>
      </trkpt>
      <trkpt lat="44.2158" lon="6.34499">
        <ele>1207.5</ele>
        <time>2018-08-09T11:24:10Z</time>
      </trkpt>
      <trkpt lat="44.21582" lon="6.34504">
        <ele>1207.8</ele>
        <time>2018-08-09T11:24:13Z</time>
      </trkpt>
      <trkpt lat="44.21585" lon="6.34508">
        <ele>1208.1</ele>
        <time>2018-08-09T11:24:16Z</time>
      </trkpt>
      <trkpt lat="44.21587" lon="6.34508">
        <ele>1208.3</ele>
        <time>2018-08-09T11:24:18Z</time>
      </trkpt>
      <trkpt lat="44.21589" lon="6.34512">
        <ele>1208.6</ele>
        <time>2018-08-09T11:24:20Z</time>
      </trkpt>
      <trkpt lat="44.21591" lon="6.34516">
        <ele>1208.8</ele>
        <time>2018-08-09T11:24:22Z</time>
      </trkpt>
      <trkpt lat="44.21593" lon="6.34518">
        <ele>1209</ele>
        <time>2018-08-09T11:24:24Z</time>
      </trkpt>
      <trkpt lat="44.21596" lon="6.34521">
        <ele>1209.3</ele>
        <time>2018-08-09T11:24:26Z</time>
      </trkpt>
      <trkpt lat="44.21598" lon="6.34523">
        <ele>1209.5</ele>
        <time>2018-08-09T11:24:28Z</time>
      </trkpt>
      <trkpt lat="44.21601" lon="6.34525">
        <ele>1209.7</ele>
        <time>2018-08-09T11:24:30Z</time>
      </trkpt>
      <trkpt lat="44.21604" lon="6.34529">
        <ele>1209.8</ele>
        <time>2018-08-09T11:24:32Z</time>
      </trkpt>
      <trkpt lat="44.21606" lon="6.34531">
        <ele>1210</ele>
        <time>2018-08-09T11:24:34Z</time>
      </trkpt>
      <trkpt lat="44.2161" lon="6.34532">
        <ele>1210.2</ele>
        <time>2018-08-09T11:24:36Z</time>
      </trkpt>
      <trkpt lat="44.21614" lon="6.34534">
        <ele>1210.3</ele>
        <time>2018-08-09T11:24:38Z</time>
      </trkpt>
      <trkpt lat="44.21617" lon="6.34536">
        <ele>1210.5</ele>
        <time>2018-08-09T11:24:40Z</time>
      </trkpt>
      <trkpt lat="44.21621" lon="6.34535">
        <ele>1210.6</ele>
        <time>2018-08-09T11:24:42Z</time>
      </trkpt>
      <trkpt lat="44.21625" lon="6.34538">
        <ele>1210.8</ele>
        <time>2018-08-09T11:24:44Z</time>
      </trkpt>
      <trkpt lat="44.21627" lon="6.34542">
        <ele>1210.9</ele>
        <time>2018-08-09T11:24:46Z</time>
      </trkpt>
      <trkpt lat="44.21629" lon="6.34544">
        <ele>1211</ele>
        <time>2018-08-09T11:24:47Z</time>
      </trkpt>
      <trkpt lat="44.21632" lon="6.34546">
        <ele>1211.1</ele>
        <time>2018-08-09T11:24:48Z</time>
      </trkpt>
      <trkpt lat="44.21634" lon="6.34551">
        <ele>1211.2</ele>
        <time>2018-08-09T11:24:49Z</time>
      </trkpt>
      <trkpt lat="44.21638" lon="6.34554">
        <ele>1211.3</ele>
        <time>2018-08-09T11:24:51Z</time>
      </trkpt>
      <trkpt lat="44.21641" lon="6.34554">
        <ele>1211.4</ele>
        <time>2018-08-09T11:24:52Z</time>
      </trkpt>
      <trkpt lat="44.21645" lon="6.34556">
        <ele>1211.5</ele>
        <time>2018-08-09T11:24:54Z</time>
      </trkpt>
      <trkpt lat="44.2165" lon="6.34557">
        <ele>1211.7</ele>
        <time>2018-08-09T11:24:56Z</time>
      </trkpt>
      <trkpt lat="44.21653" lon="6.3456">
        <ele>1211.8</ele>
        <time>2018-08-09T11:24:57Z</time>
      </trkpt>
      <trkpt lat="44.21655" lon="6.34562">
        <ele>1212</ele>
        <time>2018-08-09T11:24:58Z</time>
      </trkpt>
      <trkpt lat="44.21658" lon="6.34567">
        <ele>1212.2</ele>
        <time>2018-08-09T11:25:00Z</time>
      </trkpt>
      <trkpt lat="44.21661" lon="6.34569">
        <ele>1212.5</ele>
        <time>2018-08-09T11:25:01Z</time>
      </trkpt>
      <trkpt lat="44.21664" lon="6.34571">
        <ele>1212.7</ele>
        <time>2018-08-09T11:25:02Z</time>
      </trkpt>
      <trkpt lat="44.21666" lon="6.34574">
        <ele>1212.9</ele>
        <time>2018-08-09T11:25:03Z</time>
      </trkpt>
      <trkpt lat="44.2167" lon="6.3458">
        <ele>1213.3</ele>
        <time>2018-08-09T11:25:05Z</time>
      </trkpt>
      <trkpt lat="44.21673" lon="6.34579">
        <ele>1213.6</ele>
        <time>2018-08-09T11:25:06Z</time>
      </trkpt>
      <trkpt lat="44.21676" lon="6.3458">
        <ele>1213.8</ele>
        <time>2018-08-09T11:25:07Z</time>
      </trkpt>
      <trkpt lat="44.21679" lon="6.34581">
        <ele>1214</ele>
        <time>2018-08-09T11:25:08Z</time>
      </trkpt>
      <trkpt lat="44.21682" lon="6.34581">
        <ele>1214.2</ele>
        <time>2018-08-09T11:25:09Z</time>
      </trkpt>
      <trkpt lat="44.21685" lon="6.34583">
        <ele>1214.4</ele>
        <time>2018-08-09T11:25:10Z</time>
      </trkpt>
      <trkpt lat="44.21687" lon="6.34586">
        <ele>1214.6</ele>
        <time>2018-08-09T11:25:11Z</time>
      </trkpt>
      <trkpt lat="44.21689" lon="6.34589">
        <ele>1214.9</ele>
        <time>2018-08-09T11:25:12Z</time>
      </trkpt>
      <trkpt lat="44.21691" lon="6.34592">
        <ele>1215.1</ele>
        <time>2018-08-09T11:25:13Z</time>
      </trkpt>
      <trkpt lat="44.21694" lon="6.34593">
        <ele>1215.3</ele>
        <time>2018-08-09T11:25:14Z</time>
      </trkpt>
      <trkpt lat="44.21697" lon="6.34594">
        <ele>1215.6</ele>
        <time>2018-08-09T11:25:15Z</time>
      </trkpt>
      <trkpt lat="44.217" lon="6.34597">
        <ele>1215.8</ele>
        <time>2018-08-09T11:25:16Z</time>
      </trkpt>
      <trkpt lat="44.21703" lon="6.34598">
        <ele>1216</ele>
        <time>2018-08-09T11:25:17Z</time>
      </trkpt>
      <trkpt lat="44.21706" lon="6.34598">
        <ele>1216.3</ele>
        <time>2018-08-09T11:25:18Z</time>
      </trkpt>
      <trkpt lat="44.21711" lon="6.346">
        <ele>1216.6</ele>
        <time>2018-08-09T11:25:20Z</time>
      </trkpt>
      <trkpt lat="44.21715" lon="6.34604">
        <ele>1217</ele>
        <time>2018-08-09T11:25:22Z</time>
      </trkpt>
      <trkpt lat="44.2172" lon="6.34607">
        <ele>1217.4</ele>
        <time>2018-08-09T11:25:24Z</time>
      </trkpt>
      <trkpt lat="44.21725" lon="6.3461">
        <ele>1217.7</ele>
        <time>2018-08-09T11:25:26Z</time>
      </trkpt>
      <trkpt lat="44.2173" lon="6.34612">
        <ele>1218.1</ele>
        <time>2018-08-09T11:25:28Z</time>
      </trkpt>
      <trkpt lat="44.21732" lon="6.34613">
        <ele>1218.3</ele>
        <time>2018-08-09T11:25:29Z</time>
      </trkpt>
      <trkpt lat="44.21736" lon="6.34615">
        <ele>1218.6</ele>
        <time>2018-08-09T11:25:30Z</time>
      </trkpt>
      <trkpt lat="44.21739" lon="6.34616">
        <ele>1218.9</ele>
        <time>2018-08-09T11:25:31Z</time>
      </trkpt>
      <trkpt lat="44.21743" lon="6.34619">
        <ele>1219.2</ele>
        <time>2018-08-09T11:25:33Z</time>
      </trkpt>
      <trkpt lat="44.21748" lon="6.34622">
        <ele>1219.5</ele>
        <time>2018-08-09T11:25:35Z</time>
      </trkpt>
      <trkpt lat="44.2175" lon="6.34622">
        <ele>1219.8</ele>
        <time>2018-08-09T11:25:36Z</time>
      </trkpt>
      <trkpt lat="44.21755" lon="6.34623">
        <ele>1220.2</ele>
        <time>2018-08-09T11:25:38Z</time>
      </trkpt>
      <trkpt lat="44.21759" lon="6.34625">
        <ele>1220.6</ele>
        <time>2018-08-09T11:25:42Z</time>
      </trkpt>
      <trkpt lat="44.21762" lon="6.34627">
        <ele>1220.9</ele>
        <time>2018-08-09T11:25:44Z</time>
      </trkpt>
      <trkpt lat="44.21766" lon="6.34628">
        <ele>1221.2</ele>
        <time>2018-08-09T11:25:46Z</time>
      </trkpt>
      <trkpt lat="44.2177" lon="6.34628">
        <ele>1221.6</ele>
        <time>2018-08-09T11:25:48Z</time>
      </trkpt>
      <trkpt lat="44.21773" lon="6.34628">
        <ele>1221.9</ele>
        <time>2018-08-09T11:25:49Z</time>
      </trkpt>
      <trkpt lat="44.21776" lon="6.3463">
        <ele>1222.3</ele>
        <time>2018-08-09T11:25:51Z</time>
      </trkpt>
      <trkpt lat="44.21779" lon="6.34633">
        <ele>1222.7</ele>
        <time>2018-08-09T11:25:53Z</time>
      </trkpt>
      <trkpt lat="44.21782" lon="6.34635">
        <ele>1223.1</ele>
        <time>2018-08-09T11:25:55Z</time>
      </trkpt>
      <trkpt lat="44.21787" lon="6.34637">
        <ele>1223.6</ele>
        <time>2018-08-09T11:25:57Z</time>
      </trkpt>
      <trkpt lat="44.21789" lon="6.34641">
        <ele>1224</ele>
        <time>2018-08-09T11:25:59Z</time>
      </trkpt>
      <trkpt lat="44.21793" lon="6.3464">
        <ele>1224.4</ele>
        <time>2018-08-09T11:26:01Z</time>
      </trkpt>
      <trkpt lat="44.21798" lon="6.3464">
        <ele>1224.8</ele>
        <time>2018-08-09T11:26:03Z</time>
      </trkpt>
      <trkpt lat="44.218" lon="6.34642">
        <ele>1225.2</ele>
        <time>2018-08-09T11:26:05Z</time>
      </trkpt>
      <trkpt lat="44.21804" lon="6.34643">
        <ele>1225.6</ele>
        <time>2018-08-09T11:26:07Z</time>
      </trkpt>
      <trkpt lat="44.21808" lon="6.34645">
        <ele>1226</ele>
        <time>2018-08-09T11:26:09Z</time>
      </trkpt>
      <trkpt lat="44.21811" lon="6.34646">
        <ele>1226.4</ele>
        <time>2018-08-09T11:26:11Z</time>
      </trkpt>
      <trkpt lat="44.21814" lon="6.34647">
        <ele>1226.7</ele>
        <time>2018-08-09T11:26:13Z</time>
      </trkpt>
      <trkpt lat="44.21818" lon="6.34649">
        <ele>1227.1</ele>
        <time>2018-08-09T11:26:15Z</time>
      </trkpt>
      <trkpt lat="44.2182" lon="6.34649">
        <ele>1227.5</ele>
        <time>2018-08-09T11:26:17Z</time>
      </trkpt>
      <trkpt lat="44.21825" lon="6.3465">
        <ele>1227.9</ele>
        <time>2018-08-09T11:26:20Z</time>
      </trkpt>
      <trkpt lat="44.21827" lon="6.34651">
        <ele>1228.2</ele>
        <time>2018-08-09T11:26:22Z</time>
      </trkpt>
      <trkpt lat="44.21831" lon="6.34651">
        <ele>1228.6</ele>
        <time>2018-08-09T11:26:24Z</time>
      </trkpt>
      <trkpt lat="44.21834" lon="6.34652">
        <ele>1228.9</ele>
        <time>2018-08-09T11:26:26Z</time>
      </trkpt>
      <trkpt lat="44.21837" lon="6.34656">
        <ele>1229.3</ele>
        <time>2018-08-09T11:26:28Z</time>
      </trkpt>
      <trkpt lat="44.2184" lon="6.34657">
        <ele>1229.6</ele>
        <time>2018-08-09T11:26:30Z</time>
      </trkpt>
      <trkpt lat="44.21845" lon="6.34657">
        <ele>1230</ele>
        <time>2018-08-09T11:26:32Z</time>
      </trkpt>
      <trkpt lat="44.21849" lon="6.3466">
        <ele>1230.4</ele>
        <time>2018-08-09T11:26:35Z</time>
      </trkpt>
      <trkpt lat="44.21851" lon="6.34664">
        <ele>1230.7</ele>
        <time>2018-08-09T11:26:36Z</time>
      </trkpt>
      <trkpt lat="44.21854" lon="6.34667">
        <ele>1231</ele>
        <time>2018-08-09T11:26:38Z</time>
      </trkpt>
      <trkpt lat="44.21857" lon="6.34668">
        <ele>1231.3</ele>
        <time>2018-08-09T11:26:40Z</time>
      </trkpt>
      <trkpt lat="44.21861" lon="6.34672">
        <ele>1231.6</ele>
        <time>2018-08-09T11:26:42Z</time>
      </trkpt>
      <trkpt lat="44.21865" lon="6.34675">
        <ele>1231.8</ele>
        <time>2018-08-09T11:26:44Z</time>
      </trkpt>
      <trkpt lat="44.21869" lon="6.34678">
        <ele>1232</ele>
        <time>2018-08-09T11:26:46Z</time>
      </trkpt>
      <trkpt lat="44.21872" lon="6.34681">
        <ele>1232.3</ele>
        <time>2018-08-09T11:26:48Z</time>
      </trkpt>
      <trkpt lat="44.21876" lon="6.34685">
        <ele>1232.6</ele>
        <time>2018-08-09T11:26:50Z</time>
      </trkpt>
      <trkpt lat="44.2188" lon="6.34687">
        <ele>1233</ele>
        <time>2018-08-09T11:26:52Z</time>
      </trkpt>
      <trkpt lat="44.21883" lon="6.34692">
        <ele>1233.3</ele>
        <time>2018-08-09T11:26:54Z</time>
      </trkpt>
      <trkpt lat="44.21886" lon="6.34696">
        <ele>1233.8</ele>
        <time>2018-08-09T11:26:56Z</time>
      </trkpt>
      <trkpt lat="44.2189" lon="6.34698">
        <ele>1234.1</ele>
        <time>2018-08-09T11:26:58Z</time>
      </trkpt>
      <trkpt lat="44.21892" lon="6.34701">
        <ele>1234.4</ele>
        <time>2018-08-09T11:27:00Z</time>
      </trkpt>
      <trkpt lat="44.21896" lon="6.34702">
        <ele>1234.8</ele>
        <time>2018-08-09T11:27:02Z</time>
      </trkpt>
      <trkpt lat="44.21901" lon="6.34703">
        <ele>1235.2</ele>
        <time>2018-08-09T11:27:04Z</time>
      </trkpt>
      <trkpt lat="44.21904" lon="6.34707">
        <ele>1235.6</ele>
        <time>2018-08-09T11:27:06Z</time>
      </trkpt>
      <trkpt lat="44.21908" lon="6.34709">
        <ele>1235.9</ele>
        <time>2018-08-09T11:27:08Z</time>
      </trkpt>
      <trkpt lat="44.2191" lon="6.34712">
        <ele>1236.2</ele>
        <time>2018-08-09T11:27:10Z</time>
      </trkpt>
      <trkpt lat="44.21914" lon="6.34715">
        <ele>1236.5</ele>
        <time>2018-08-09T11:27:12Z</time>
      </trkpt>
      <trkpt lat="44.21917" lon="6.34717">
        <ele>1236.8</ele>
        <time>2018-08-09T11:27:14Z</time>
      </trkpt>
      <trkpt lat="44.2192" lon="6.34718">
        <ele>1237.2</ele>
        <time>2018-08-09T11:27:16Z</time>
      </trkpt>
      <trkpt lat="44.21925" lon="6.34722">
        <ele>1237.6</ele>
        <time>2018-08-09T11:27:18Z</time>
      </trkpt>
      <trkpt lat="44.21928" lon="6.34725">
        <ele>1238</ele>
        <time>2018-08-09T11:27:20Z</time>
      </trkpt>
      <trkpt lat="44.21932" lon="6.34725">
        <ele>1238.3</ele>
        <time>2018-08-09T11:27:22Z</time>
      </trkpt>
      <trkpt lat="44.21936" lon="6.34726">
        <ele>1238.7</ele>
        <time>2018-08-09T11:27:25Z</time>
      </trkpt>
      <trkpt lat="44.21938" lon="6.34727">
        <ele>1239</ele>
        <time>2018-08-09T11:27:27Z</time>
      </trkpt>
      <trkpt lat="44.21942" lon="6.34729">
        <ele>1239.4</ele>
        <time>2018-08-09T11:27:29Z</time>
      </trkpt>
      <trkpt lat="44.21946" lon="6.34732">
        <ele>1239.9</ele>
        <time>2018-08-09T11:27:31Z</time>
      </trkpt>
      <trkpt lat="44.2195" lon="6.34733">
        <ele>1240.3</ele>
        <time>2018-08-09T11:27:33Z</time>
      </trkpt>
      <trkpt lat="44.21951" lon="6.34736">
        <ele>1240.7</ele>
        <time>2018-08-09T11:27:35Z</time>
      </trkpt>
      <trkpt lat="44.21955" lon="6.3474">
        <ele>1241.2</ele>
        <time>2018-08-09T11:27:37Z</time>
      </trkpt>
      <trkpt lat="44.21959" lon="6.34742">
        <ele>1241.6</ele>
        <time>2018-08-09T11:27:39Z</time>
      </trkpt>
      <trkpt lat="44.21962" lon="6.34747">
        <ele>1242.2</ele>
        <time>2018-08-09T11:27:42Z</time>
      </trkpt>
      <trkpt lat="44.21965" lon="6.34747">
        <ele>1242.6</ele>
        <time>2018-08-09T11:27:44Z</time>
      </trkpt>
      <trkpt lat="44.21968" lon="6.34751">
        <ele>1243.1</ele>
        <time>2018-08-09T11:27:46Z</time>
      </trkpt>
      <trkpt lat="44.21971" lon="6.34753">
        <ele>1243.5</ele>
        <time>2018-08-09T11:27:48Z</time>
      </trkpt>
      <trkpt lat="44.21974" lon="6.34754">
        <ele>1243.9</ele>
        <time>2018-08-09T11:27:50Z</time>
      </trkpt>
      <trkpt lat="44.21978" lon="6.34755">
        <ele>1244.3</ele>
        <time>2018-08-09T11:27:53Z</time>
      </trkpt>
      <trkpt lat="44.21981" lon="6.34756">
        <ele>1244.7</ele>
        <time>2018-08-09T11:27:55Z</time>
      </trkpt>
      <trkpt lat="44.21985" lon="6.34758">
        <ele>1245.1</ele>
        <time>2018-08-09T11:27:57Z</time>
      </trkpt>
      <trkpt lat="44.21987" lon="6.34759">
        <ele>1245.4</ele>
        <time>2018-08-09T11:27:59Z</time>
      </trkpt>
      <trkpt lat="44.21991" lon="6.34759">
        <ele>1245.7</ele>
        <time>2018-08-09T11:28:02Z</time>
      </trkpt>
      <trkpt lat="44.21996" lon="6.34758">
        <ele>1246</ele>
        <time>2018-08-09T11:28:04Z</time>
      </trkpt>
      <trkpt lat="44.21998" lon="6.3476">
        <ele>1246.1</ele>
        <time>2018-08-09T11:28:06Z</time>
      </trkpt>
      <trkpt lat="44.22001" lon="6.34758">
        <ele>1246.3</ele>
        <time>2018-08-09T11:28:37Z</time>
      </trkpt>
      <trkpt lat="44.21998" lon="6.34758">
        <ele>1246.4</ele>
        <time>2018-08-09T11:28:43Z</time>
      </trkpt>
      <trkpt lat="44.21995" lon="6.34759">
        <ele>1246.5</ele>
        <time>2018-08-09T11:28:45Z</time>
      </trkpt>
      <trkpt lat="44.21998" lon="6.34757">
        <ele>1246.7</ele>
        <time>2018-08-09T11:29:10Z</time>
      </trkpt>
      <trkpt lat="44.22001" lon="6.34757">
        <ele>1246.9</ele>
        <time>2018-08-09T11:29:14Z</time>
      </trkpt>
      <trkpt lat="44.21998" lon="6.34756">
        <ele>1247</ele>
        <time>2018-08-09T11:29:49Z</time>
      </trkpt>
      <trkpt lat="44.21996" lon="6.34754">
        <ele>1247</ele>
        <time>2018-08-09T11:29:57Z</time>
      </trkpt>
      <trkpt lat="44.21994" lon="6.34751">
        <ele>1246.5</ele>
        <time>2018-08-09T11:30:03Z</time>
      </trkpt>
      <trkpt lat="44.21997" lon="6.34753">
        <ele>1246</ele>
        <time>2018-08-09T11:30:20Z</time>
      </trkpt>
      <trkpt lat="44.21998" lon="6.34757">
        <ele>1245.5</ele>
        <time>2018-08-09T11:30:23Z</time>
      </trkpt>
      <trkpt lat="44.22001" lon="6.34756">
        <ele>1245</ele>
        <time>2018-08-09T11:30:48Z</time>
      </trkpt>
      <trkpt lat="44.22004" lon="6.34754">
        <ele>1244.5</ele>
        <time>2018-08-09T11:30:56Z</time>
      </trkpt>
      <trkpt lat="44.22007" lon="6.34751">
        <ele>1243.8</ele>
        <time>2018-08-09T11:30:58Z</time>
      </trkpt>
      <trkpt lat="44.22012" lon="6.34747">
        <ele>1242.8</ele>
        <time>2018-08-09T11:31:00Z</time>
      </trkpt>
      <trkpt lat="44.22014" lon="6.34744">
        <ele>1242.4</ele>
        <time>2018-08-09T11:31:01Z</time>
      </trkpt>
      <trkpt lat="44.22018" lon="6.34738">
        <ele>1241.6</ele>
        <time>2018-08-09T11:31:03Z</time>
      </trkpt>
      <trkpt lat="44.22021" lon="6.34732">
        <ele>1241.1</ele>
        <time>2018-08-09T11:31:05Z</time>
      </trkpt>
      <trkpt lat="44.22023" lon="6.34726">
        <ele>1240.6</ele>
        <time>2018-08-09T11:31:07Z</time>
      </trkpt>
      <trkpt lat="44.22025" lon="6.34722">
        <ele>1240.2</ele>
        <time>2018-08-09T11:31:09Z</time>
      </trkpt>
      <trkpt lat="44.2203" lon="6.34719">
        <ele>1239.7</ele>
        <time>2018-08-09T11:31:11Z</time>
      </trkpt>
      <trkpt lat="44.22035" lon="6.34718">
        <ele>1238.8</ele>
        <time>2018-08-09T11:31:13Z</time>
      </trkpt>
      <trkpt lat="44.22037" lon="6.34718">
        <ele>1238.7</ele>
        <time>2018-08-09T11:31:14Z</time>
      </trkpt>
      <trkpt lat="44.22041" lon="6.3472">
        <ele>1238.6</ele>
        <time>2018-08-09T11:31:15Z</time>
      </trkpt>
      <trkpt lat="44.22044" lon="6.34722">
        <ele>1238.5</ele>
        <time>2018-08-09T11:31:16Z</time>
      </trkpt>
      <trkpt lat="44.22049" lon="6.34725">
        <ele>1238.5</ele>
        <time>2018-08-09T11:31:17Z</time>
      </trkpt>
      <trkpt lat="44.22053" lon="6.34729">
        <ele>1238.5</ele>
        <time>2018-08-09T11:31:18Z</time>
      </trkpt>
      <trkpt lat="44.22058" lon="6.34732">
        <ele>1238.4</ele>
        <time>2018-08-09T11:31:19Z</time>
      </trkpt>
      <trkpt lat="44.22063" lon="6.34737">
        <ele>1238.2</ele>
        <time>2018-08-09T11:31:20Z</time>
      </trkpt>
      <trkpt lat="44.22069" lon="6.34742">
        <ele>1238</ele>
        <time>2018-08-09T11:31:21Z</time>
      </trkpt>
      <trkpt lat="44.22074" lon="6.34746">
        <ele>1237.9</ele>
        <time>2018-08-09T11:31:22Z</time>
      </trkpt>
      <trkpt lat="44.2208" lon="6.3475">
        <ele>1237.6</ele>
        <time>2018-08-09T11:31:23Z</time>
      </trkpt>
      <trkpt lat="44.22085" lon="6.34754">
        <ele>1237.4</ele>
        <time>2018-08-09T11:31:24Z</time>
      </trkpt>
      <trkpt lat="44.22091" lon="6.34757">
        <ele>1237</ele>
        <time>2018-08-09T11:31:25Z</time>
      </trkpt>
      <trkpt lat="44.22098" lon="6.34761">
        <ele>1236.6</ele>
        <time>2018-08-09T11:31:26Z</time>
      </trkpt>
      <trkpt lat="44.22105" lon="6.34764">
        <ele>1236.1</ele>
        <time>2018-08-09T11:31:27Z</time>
      </trkpt>
      <trkpt lat="44.22112" lon="6.34766">
        <ele>1235.9</ele>
        <time>2018-08-09T11:31:28Z</time>
      </trkpt>
      <trkpt lat="44.22119" lon="6.34769">
        <ele>1235.6</ele>
        <time>2018-08-09T11:31:29Z</time>
      </trkpt>
      <trkpt lat="44.22126" lon="6.3477">
        <ele>1235.3</ele>
        <time>2018-08-09T11:31:30Z</time>
      </trkpt>
      <trkpt lat="44.22133" lon="6.34769">
        <ele>1234.9</ele>
        <time>2018-08-09T11:31:31Z</time>
      </trkpt>
      <trkpt lat="44.2214" lon="6.34766">
        <ele>1234.7</ele>
        <time>2018-08-09T11:31:32Z</time>
      </trkpt>
      <trkpt lat="44.22146" lon="6.34762">
        <ele>1234.6</ele>
        <time>2018-08-09T11:31:33Z</time>
      </trkpt>
      <trkpt lat="44.22153" lon="6.34759">
        <ele>1234.3</ele>
        <time>2018-08-09T11:31:34Z</time>
      </trkpt>
      <trkpt lat="44.22159" lon="6.34754">
        <ele>1234.1</ele>
        <time>2018-08-09T11:31:35Z</time>
      </trkpt>
      <trkpt lat="44.22166" lon="6.34753">
        <ele>1234</ele>
        <time>2018-08-09T11:31:36Z</time>
      </trkpt>
      <trkpt lat="44.22173" lon="6.34751">
        <ele>1234</ele>
        <time>2018-08-09T11:31:37Z</time>
      </trkpt>
      <trkpt lat="44.22179" lon="6.3475">
        <ele>1233.9</ele>
        <time>2018-08-09T11:31:38Z</time>
      </trkpt>
      <trkpt lat="44.22187" lon="6.3475">
        <ele>1233.8</ele>
        <time>2018-08-09T11:31:39Z</time>
      </trkpt>
      <trkpt lat="44.22194" lon="6.34751">
        <ele>1233.6</ele>
        <time>2018-08-09T11:31:40Z</time>
      </trkpt>
      <trkpt lat="44.22199" lon="6.34751">
        <ele>1233.5</ele>
        <time>2018-08-09T11:31:41Z</time>
      </trkpt>
      <trkpt lat="44.22206" lon="6.34752">
        <ele>1233.5</ele>
        <time>2018-08-09T11:31:42Z</time>
      </trkpt>
      <trkpt lat="44.22213" lon="6.34754">
        <ele>1233.4</ele>
        <time>2018-08-09T11:31:43Z</time>
      </trkpt>
      <trkpt lat="44.2222" lon="6.34757">
        <ele>1233.1</ele>
        <time>2018-08-09T11:31:44Z</time>
      </trkpt>
      <trkpt lat="44.22228" lon="6.34762">
        <ele>1233</ele>
        <time>2018-08-09T11:31:45Z</time>
      </trkpt>
      <trkpt lat="44.22235" lon="6.34767">
        <ele>1232.8</ele>
        <time>2018-08-09T11:31:46Z</time>
      </trkpt>
      <trkpt lat="44.22243" lon="6.34771">
        <ele>1232.5</ele>
        <time>2018-08-09T11:31:47Z</time>
      </trkpt>
      <trkpt lat="44.22251" lon="6.34774">
        <ele>1232.2</ele>
        <time>2018-08-09T11:31:48Z</time>
      </trkpt>
      <trkpt lat="44.22258" lon="6.34779">
        <ele>1231.7</ele>
        <time>2018-08-09T11:31:49Z</time>
      </trkpt>
      <trkpt lat="44.22266" lon="6.34778">
        <ele>1231.2</ele>
        <time>2018-08-09T11:31:50Z</time>
      </trkpt>
      <trkpt lat="44.22276" lon="6.3478">
        <ele>1230.7</ele>
        <time>2018-08-09T11:31:51Z</time>
      </trkpt>
      <trkpt lat="44.22285" lon="6.34776">
        <ele>1230.3</ele>
        <time>2018-08-09T11:31:52Z</time>
      </trkpt>
      <trkpt lat="44.22294" lon="6.34776">
        <ele>1230.2</ele>
        <time>2018-08-09T11:31:53Z</time>
      </trkpt>
      <trkpt lat="44.22302" lon="6.34773">
        <ele>1230.3</ele>
        <time>2018-08-09T11:31:54Z</time>
      </trkpt>
      <trkpt lat="44.22309" lon="6.34771">
        <ele>1230.3</ele>
        <time>2018-08-09T11:31:55Z</time>
      </trkpt>
      <trkpt lat="44.22316" lon="6.34768">
        <ele>1230.3</ele>
        <time>2018-08-09T11:31:56Z</time>
      </trkpt>
      <trkpt lat="44.22322" lon="6.34761">
        <ele>1230.5</ele>
        <time>2018-08-09T11:31:57Z</time>
      </trkpt>
      <trkpt lat="44.22328" lon="6.34757">
        <ele>1230.5</ele>
        <time>2018-08-09T11:31:58Z</time>
      </trkpt>
      <trkpt lat="44.22334" lon="6.34751">
        <ele>1230.6</ele>
        <time>2018-08-09T11:31:59Z</time>
      </trkpt>
      <trkpt lat="44.2234" lon="6.34747">
        <ele>1230.7</ele>
        <time>2018-08-09T11:32:00Z</time>
      </trkpt>
      <trkpt lat="44.22344" lon="6.34741">
        <ele>1230.7</ele>
        <time>2018-08-09T11:32:01Z</time>
      </trkpt>
      <trkpt lat="44.22348" lon="6.34736">
        <ele>1230.9</ele>
        <time>2018-08-09T11:32:02Z</time>
      </trkpt>
      <trkpt lat="44.22352" lon="6.3473">
        <ele>1231</ele>
        <time>2018-08-09T11:32:03Z</time>
      </trkpt>
      <trkpt lat="44.22355" lon="6.34724">
        <ele>1231.1</ele>
        <time>2018-08-09T11:32:04Z</time>
      </trkpt>
      <trkpt lat="44.22358" lon="6.3472">
        <ele>1231.2</ele>
        <time>2018-08-09T11:32:05Z</time>
      </trkpt>
      <trkpt lat="44.22361" lon="6.34716">
        <ele>1231.2</ele>
        <time>2018-08-09T11:32:06Z</time>
      </trkpt>
      <trkpt lat="44.22365" lon="6.34713">
        <ele>1231.4</ele>
        <time>2018-08-09T11:32:07Z</time>
      </trkpt>
      <trkpt lat="44.22369" lon="6.34709">
        <ele>1231.5</ele>
        <time>2018-08-09T11:32:08Z</time>
      </trkpt>
      <trkpt lat="44.22373" lon="6.34709">
        <ele>1231.6</ele>
        <time>2018-08-09T11:32:09Z</time>
      </trkpt>
      <trkpt lat="44.22378" lon="6.34709">
        <ele>1231.7</ele>
        <time>2018-08-09T11:32:10Z</time>
      </trkpt>
      <trkpt lat="44.22383" lon="6.34711">
        <ele>1231.8</ele>
        <time>2018-08-09T11:32:11Z</time>
      </trkpt>
      <trkpt lat="44.22387" lon="6.34714">
        <ele>1232</ele>
        <time>2018-08-09T11:32:12Z</time>
      </trkpt>
      <trkpt lat="44.22391" lon="6.34718">
        <ele>1232.1</ele>
        <time>2018-08-09T11:32:13Z</time>
      </trkpt>
      <trkpt lat="44.22394" lon="6.34722">
        <ele>1232.1</ele>
        <time>2018-08-09T11:32:14Z</time>
      </trkpt>
      <trkpt lat="44.22398" lon="6.34726">
        <ele>1232.2</ele>
        <time>2018-08-09T11:32:15Z</time>
      </trkpt>
      <trkpt lat="44.22401" lon="6.34731">
        <ele>1232.3</ele>
        <time>2018-08-09T11:32:16Z</time>
      </trkpt>
      <trkpt lat="44.22404" lon="6.34734">
        <ele>1232.3</ele>
        <time>2018-08-09T11:32:17Z</time>
      </trkpt>
      <trkpt lat="44.22408" lon="6.34737">
        <ele>1232.4</ele>
        <time>2018-08-09T11:32:18Z</time>
      </trkpt>
      <trkpt lat="44.22412" lon="6.34741">
        <ele>1232.4</ele>
        <time>2018-08-09T11:32:19Z</time>
      </trkpt>
      <trkpt lat="44.22415" lon="6.34745">
        <ele>1232.4</ele>
        <time>2018-08-09T11:32:20Z</time>
      </trkpt>
      <trkpt lat="44.22419" lon="6.34749">
        <ele>1232.4</ele>
        <time>2018-08-09T11:32:21Z</time>
      </trkpt>
      <trkpt lat="44.22422" lon="6.34753">
        <ele>1232.4</ele>
        <time>2018-08-09T11:32:22Z</time>
      </trkpt>
      <trkpt lat="44.22426" lon="6.34757">
        <ele>1232.3</ele>
        <time>2018-08-09T11:32:23Z</time>
      </trkpt>
      <trkpt lat="44.2243" lon="6.3476">
        <ele>1232.3</ele>
        <time>2018-08-09T11:32:24Z</time>
      </trkpt>
      <trkpt lat="44.22434" lon="6.34763">
        <ele>1232.2</ele>
        <time>2018-08-09T11:32:25Z</time>
      </trkpt>
      <trkpt lat="44.22438" lon="6.34767">
        <ele>1232.2</ele>
        <time>2018-08-09T11:32:26Z</time>
      </trkpt>
      <trkpt lat="44.22443" lon="6.3477">
        <ele>1232.2</ele>
        <time>2018-08-09T11:32:27Z</time>
      </trkpt>
      <trkpt lat="44.22448" lon="6.34775">
        <ele>1232.1</ele>
        <time>2018-08-09T11:32:28Z</time>
      </trkpt>
      <trkpt lat="44.22452" lon="6.34779">
        <ele>1232</ele>
        <time>2018-08-09T11:32:29Z</time>
      </trkpt>
      <trkpt lat="44.22457" lon="6.34783">
        <ele>1231.8</ele>
        <time>2018-08-09T11:32:30Z</time>
      </trkpt>
      <trkpt lat="44.22463" lon="6.34785">
        <ele>1231.6</ele>
        <time>2018-08-09T11:32:31Z</time>
      </trkpt>
      <trkpt lat="44.22469" lon="6.34788">
        <ele>1231.5</ele>
        <time>2018-08-09T11:32:32Z</time>
      </trkpt>
      <trkpt lat="44.22476" lon="6.34789">
        <ele>1231.3</ele>
        <time>2018-08-09T11:32:33Z</time>
      </trkpt>
      <trkpt lat="44.22484" lon="6.3479">
        <ele>1231.1</ele>
        <time>2018-08-09T11:32:34Z</time>
      </trkpt>
      <trkpt lat="44.22491" lon="6.34788">
        <ele>1231.2</ele>
        <time>2018-08-09T11:32:35Z</time>
      </trkpt>
      <trkpt lat="44.22499" lon="6.34785">
        <ele>1231.2</ele>
        <time>2018-08-09T11:32:36Z</time>
      </trkpt>
      <trkpt lat="44.22506" lon="6.34782">
        <ele>1231.2</ele>
        <time>2018-08-09T11:32:37Z</time>
      </trkpt>
      <trkpt lat="44.22514" lon="6.34779">
        <ele>1231.2</ele>
        <time>2018-08-09T11:32:38Z</time>
      </trkpt>
      <trkpt lat="44.2252" lon="6.34772">
        <ele>1231.2</ele>
        <time>2018-08-09T11:32:39Z</time>
      </trkpt>
      <trkpt lat="44.22526" lon="6.34765">
        <ele>1231.1</ele>
        <time>2018-08-09T11:32:40Z</time>
      </trkpt>
      <trkpt lat="44.2253" lon="6.34758">
        <ele>1231.1</ele>
        <time>2018-08-09T11:32:41Z</time>
      </trkpt>
      <trkpt lat="44.22535" lon="6.3475">
        <ele>1231.1</ele>
        <time>2018-08-09T11:32:42Z</time>
      </trkpt>
      <trkpt lat="44.2254" lon="6.34743">
        <ele>1231.2</ele>
        <time>2018-08-09T11:32:43Z</time>
      </trkpt>
      <trkpt lat="44.22545" lon="6.34736">
        <ele>1231.3</ele>
        <time>2018-08-09T11:32:44Z</time>
      </trkpt>
      <trkpt lat="44.22551" lon="6.34729">
        <ele>1231.5</ele>
        <time>2018-08-09T11:32:45Z</time>
      </trkpt>
      <trkpt lat="44.22555" lon="6.34724">
        <ele>1231.6</ele>
        <time>2018-08-09T11:32:46Z</time>
      </trkpt>
      <trkpt lat="44.2256" lon="6.3472">
        <ele>1231.8</ele>
        <time>2018-08-09T11:32:47Z</time>
      </trkpt>
      <trkpt lat="44.22564" lon="6.3472">
        <ele>1231.8</ele>
        <time>2018-08-09T11:32:48Z</time>
      </trkpt>
      <trkpt lat="44.22568" lon="6.3472">
        <ele>1231.9</ele>
        <time>2018-08-09T11:32:49Z</time>
      </trkpt>
      <trkpt lat="44.22572" lon="6.34722">
        <ele>1232.2</ele>
        <time>2018-08-09T11:32:50Z</time>
      </trkpt>
      <trkpt lat="44.22574" lon="6.34726">
        <ele>1232.5</ele>
        <time>2018-08-09T11:32:51Z</time>
      </trkpt>
      <trkpt lat="44.22574" lon="6.34731">
        <ele>1232.7</ele>
        <time>2018-08-09T11:32:52Z</time>
      </trkpt>
      <trkpt lat="44.22575" lon="6.34737">
        <ele>1233</ele>
        <time>2018-08-09T11:32:54Z</time>
      </trkpt>
      <trkpt lat="44.22572" lon="6.34742">
        <ele>1233.2</ele>
        <time>2018-08-09T11:32:57Z</time>
      </trkpt>
      <trkpt lat="44.22571" lon="6.34746">
        <ele>1233.5</ele>
        <time>2018-08-09T11:33:00Z</time>
      </trkpt>
      <trkpt lat="44.22569" lon="6.3475">
        <ele>1233.7</ele>
        <time>2018-08-09T11:33:02Z</time>
      </trkpt>
      <trkpt lat="44.22568" lon="6.34757">
        <ele>1234</ele>
        <time>2018-08-09T11:33:04Z</time>
      </trkpt>
      <trkpt lat="44.22567" lon="6.34761">
        <ele>1234.1</ele>
        <time>2018-08-09T11:33:05Z</time>
      </trkpt>
      <trkpt lat="44.22565" lon="6.34765">
        <ele>1234.3</ele>
        <time>2018-08-09T11:33:06Z</time>
      </trkpt>
      <trkpt lat="44.22566" lon="6.3477">
        <ele>1234.5</ele>
        <time>2018-08-09T11:33:07Z</time>
      </trkpt>
      <trkpt lat="44.22566" lon="6.34773">
        <ele>1234.7</ele>
        <time>2018-08-09T11:33:08Z</time>
      </trkpt>
      <trkpt lat="44.22568" lon="6.34781">
        <ele>1235</ele>
        <time>2018-08-09T11:33:10Z</time>
      </trkpt>
      <trkpt lat="44.22569" lon="6.34786">
        <ele>1235.3</ele>
        <time>2018-08-09T11:33:12Z</time>
      </trkpt>
      <trkpt lat="44.22571" lon="6.3479">
        <ele>1235.5</ele>
        <time>2018-08-09T11:33:13Z</time>
      </trkpt>
      <trkpt lat="44.22574" lon="6.34796">
        <ele>1235.8</ele>
        <time>2018-08-09T11:33:15Z</time>
      </trkpt>
      <trkpt lat="44.22576" lon="6.34802">
        <ele>1236.1</ele>
        <time>2018-08-09T11:33:17Z</time>
      </trkpt>
      <trkpt lat="44.22579" lon="6.34807">
        <ele>1236.4</ele>
        <time>2018-08-09T11:33:19Z</time>
      </trkpt>
      <trkpt lat="44.22582" lon="6.34812">
        <ele>1236.7</ele>
        <time>2018-08-09T11:33:21Z</time>
      </trkpt>
      <trkpt lat="44.22584" lon="6.34817">
        <ele>1237</ele>
        <time>2018-08-09T11:33:23Z</time>
      </trkpt>
      <trkpt lat="44.22587" lon="6.34822">
        <ele>1237.3</ele>
        <time>2018-08-09T11:33:25Z</time>
      </trkpt>
      <trkpt lat="44.22589" lon="6.34828">
        <ele>1237.7</ele>
        <time>2018-08-09T11:33:27Z</time>
      </trkpt>
      <trkpt lat="44.22592" lon="6.34832">
        <ele>1238</ele>
        <time>2018-08-09T11:33:29Z</time>
      </trkpt>
      <trkpt lat="44.22595" lon="6.34837">
        <ele>1238.4</ele>
        <time>2018-08-09T11:33:31Z</time>
      </trkpt>
      <trkpt lat="44.22598" lon="6.34841">
        <ele>1238.7</ele>
        <time>2018-08-09T11:33:33Z</time>
      </trkpt>
      <trkpt lat="44.22601" lon="6.34844">
        <ele>1239</ele>
        <time>2018-08-09T11:33:35Z</time>
      </trkpt>
      <trkpt lat="44.22605" lon="6.34848">
        <ele>1239.4</ele>
        <time>2018-08-09T11:33:37Z</time>
      </trkpt>
      <trkpt lat="44.22609" lon="6.34851">
        <ele>1239.7</ele>
        <time>2018-08-09T11:33:39Z</time>
      </trkpt>
      <trkpt lat="44.22611" lon="6.34857">
        <ele>1240.1</ele>
        <time>2018-08-09T11:33:41Z</time>
      </trkpt>
      <trkpt lat="44.22612" lon="6.34861">
        <ele>1240.4</ele>
        <time>2018-08-09T11:33:43Z</time>
      </trkpt>
      <trkpt lat="44.22613" lon="6.34868">
        <ele>1240.9</ele>
        <time>2018-08-09T11:33:45Z</time>
      </trkpt>
      <trkpt lat="44.22615" lon="6.34873">
        <ele>1241.2</ele>
        <time>2018-08-09T11:33:47Z</time>
      </trkpt>
      <trkpt lat="44.22617" lon="6.34876">
        <ele>1241.5</ele>
        <time>2018-08-09T11:33:49Z</time>
      </trkpt>
      <trkpt lat="44.2262" lon="6.34881">
        <ele>1242</ele>
        <time>2018-08-09T11:33:51Z</time>
      </trkpt>
      <trkpt lat="44.22622" lon="6.34885">
        <ele>1242.3</ele>
        <time>2018-08-09T11:33:53Z</time>
      </trkpt>
      <trkpt lat="44.22625" lon="6.34889">
        <ele>1242.6</ele>
        <time>2018-08-09T11:33:55Z</time>
      </trkpt>
      <trkpt lat="44.22627" lon="6.34891">
        <ele>1242.8</ele>
        <time>2018-08-09T11:33:57Z</time>
      </trkpt>
      <trkpt lat="44.22629" lon="6.34894">
        <ele>1243</ele>
        <time>2018-08-09T11:33:59Z</time>
      </trkpt>
      <trkpt lat="44.22631" lon="6.34899">
        <ele>1243.3</ele>
        <time>2018-08-09T11:34:01Z</time>
      </trkpt>
      <trkpt lat="44.22633" lon="6.34906">
        <ele>1243.7</ele>
        <time>2018-08-09T11:34:04Z</time>
      </trkpt>
      <trkpt lat="44.22631" lon="6.34912">
        <ele>1244</ele>
        <time>2018-08-09T11:34:06Z</time>
      </trkpt>
      <trkpt lat="44.22632" lon="6.34917">
        <ele>1244.3</ele>
        <time>2018-08-09T11:34:08Z</time>
      </trkpt>
      <trkpt lat="44.22632" lon="6.34921">
        <ele>1244.5</ele>
        <time>2018-08-09T11:34:10Z</time>
      </trkpt>
      <trkpt lat="44.22632" lon="6.34927">
        <ele>1244.8</ele>
        <time>2018-08-09T11:34:12Z</time>
      </trkpt>
      <trkpt lat="44.22631" lon="6.34931">
        <ele>1245</ele>
        <time>2018-08-09T11:34:14Z</time>
      </trkpt>
      <trkpt lat="44.22631" lon="6.34936">
        <ele>1245.3</ele>
        <time>2018-08-09T11:34:16Z</time>
      </trkpt>
      <trkpt lat="44.22632" lon="6.34941">
        <ele>1245.5</ele>
        <time>2018-08-09T11:34:18Z</time>
      </trkpt>
      <trkpt lat="44.22632" lon="6.34946">
        <ele>1245.8</ele>
        <time>2018-08-09T11:34:20Z</time>
      </trkpt>
      <trkpt lat="44.22632" lon="6.3495">
        <ele>1246</ele>
        <time>2018-08-09T11:34:22Z</time>
      </trkpt>
      <trkpt lat="44.22633" lon="6.34955">
        <ele>1246.3</ele>
        <time>2018-08-09T11:34:24Z</time>
      </trkpt>
      <trkpt lat="44.22633" lon="6.34961">
        <ele>1246.6</ele>
        <time>2018-08-09T11:34:26Z</time>
      </trkpt>
      <trkpt lat="44.22634" lon="6.34965">
        <ele>1246.8</ele>
        <time>2018-08-09T11:34:28Z</time>
      </trkpt>
      <trkpt lat="44.22636" lon="6.3497">
        <ele>1247.1</ele>
        <time>2018-08-09T11:34:30Z</time>
      </trkpt>
      <trkpt lat="44.22638" lon="6.34975">
        <ele>1247.4</ele>
        <time>2018-08-09T11:34:33Z</time>
      </trkpt>
      <trkpt lat="44.2264" lon="6.34979">
        <ele>1247.6</ele>
        <time>2018-08-09T11:34:35Z</time>
      </trkpt>
      <trkpt lat="44.22642" lon="6.34982">
        <ele>1247.8</ele>
        <time>2018-08-09T11:34:37Z</time>
      </trkpt>
      <trkpt lat="44.22644" lon="6.34987">
        <ele>1248.1</ele>
        <time>2018-08-09T11:34:40Z</time>
      </trkpt>
      <trkpt lat="44.22646" lon="6.34991">
        <ele>1248.3</ele>
        <time>2018-08-09T11:34:42Z</time>
      </trkpt>
      <trkpt lat="44.22647" lon="6.34996">
        <ele>1248.5</ele>
        <time>2018-08-09T11:34:45Z</time>
      </trkpt>
      <trkpt lat="44.22648" lon="6.35001">
        <ele>1248.7</ele>
        <time>2018-08-09T11:34:47Z</time>
      </trkpt>
      <trkpt lat="44.22648" lon="6.35006">
        <ele>1248.9</ele>
        <time>2018-08-09T11:34:49Z</time>
      </trkpt>
      <trkpt lat="44.22647" lon="6.35011">
        <ele>1249.1</ele>
        <time>2018-08-09T11:34:51Z</time>
      </trkpt>
      <trkpt lat="44.22647" lon="6.35015">
        <ele>1249.3</ele>
        <time>2018-08-09T11:34:53Z</time>
      </trkpt>
      <trkpt lat="44.22648" lon="6.3502">
        <ele>1249.5</ele>
        <time>2018-08-09T11:34:55Z</time>
      </trkpt>
      <trkpt lat="44.22648" lon="6.35025">
        <ele>1249.7</ele>
        <time>2018-08-09T11:34:57Z</time>
      </trkpt>
      <trkpt lat="44.22647" lon="6.35031">
        <ele>1249.9</ele>
        <time>2018-08-09T11:35:00Z</time>
      </trkpt>
      <trkpt lat="44.22648" lon="6.35036">
        <ele>1250.2</ele>
        <time>2018-08-09T11:35:02Z</time>
      </trkpt>
      <trkpt lat="44.22649" lon="6.35042">
        <ele>1250.4</ele>
        <time>2018-08-09T11:35:04Z</time>
      </trkpt>
      <trkpt lat="44.22651" lon="6.35048">
        <ele>1250.7</ele>
        <time>2018-08-09T11:35:06Z</time>
      </trkpt>
      <trkpt lat="44.22652" lon="6.35052">
        <ele>1250.9</ele>
        <time>2018-08-09T11:35:08Z</time>
      </trkpt>
      <trkpt lat="44.22653" lon="6.35057">
        <ele>1251.1</ele>
        <time>2018-08-09T11:35:10Z</time>
      </trkpt>
      <trkpt lat="44.22654" lon="6.35063">
        <ele>1251.3</ele>
        <time>2018-08-09T11:35:12Z</time>
      </trkpt>
      <trkpt lat="44.22656" lon="6.35067">
        <ele>1251.6</ele>
        <time>2018-08-09T11:35:14Z</time>
      </trkpt>
      <trkpt lat="44.22658" lon="6.35072">
        <ele>1251.9</ele>
        <time>2018-08-09T11:35:16Z</time>
      </trkpt>
      <trkpt lat="44.2266" lon="6.35078">
        <ele>1252.2</ele>
        <time>2018-08-09T11:35:18Z</time>
      </trkpt>
      <trkpt lat="44.22662" lon="6.35083">
        <ele>1252.4</ele>
        <time>2018-08-09T11:35:20Z</time>
      </trkpt>
      <trkpt lat="44.22664" lon="6.35087">
        <ele>1252.7</ele>
        <time>2018-08-09T11:35:22Z</time>
      </trkpt>
      <trkpt lat="44.22667" lon="6.35091">
        <ele>1253</ele>
        <time>2018-08-09T11:35:24Z</time>
      </trkpt>
      <trkpt lat="44.2267" lon="6.35094">
        <ele>1253.2</ele>
        <time>2018-08-09T11:35:26Z</time>
      </trkpt>
      <trkpt lat="44.22672" lon="6.35097">
        <ele>1253.4</ele>
        <time>2018-08-09T11:35:28Z</time>
      </trkpt>
      <trkpt lat="44.22674" lon="6.351">
        <ele>1253.6</ele>
        <time>2018-08-09T11:35:30Z</time>
      </trkpt>
      <trkpt lat="44.22678" lon="6.35102">
        <ele>1253.8</ele>
        <time>2018-08-09T11:35:32Z</time>
      </trkpt>
      <trkpt lat="44.22681" lon="6.35104">
        <ele>1254</ele>
        <time>2018-08-09T11:35:34Z</time>
      </trkpt>
      <trkpt lat="44.22684" lon="6.35107">
        <ele>1254.2</ele>
        <time>2018-08-09T11:35:36Z</time>
      </trkpt>
      <trkpt lat="44.22687" lon="6.3511">
        <ele>1254.4</ele>
        <time>2018-08-09T11:35:38Z</time>
      </trkpt>
      <trkpt lat="44.2269" lon="6.35114">
        <ele>1254.5</ele>
        <time>2018-08-09T11:35:40Z</time>
      </trkpt>
      <trkpt lat="44.22692" lon="6.35117">
        <ele>1254.7</ele>
        <time>2018-08-09T11:35:42Z</time>
      </trkpt>
      <trkpt lat="44.22694" lon="6.35121">
        <ele>1254.9</ele>
        <time>2018-08-09T11:35:44Z</time>
      </trkpt>
      <trkpt lat="44.22697" lon="6.35125">
        <ele>1255</ele>
        <time>2018-08-09T11:35:46Z</time>
      </trkpt>
      <trkpt lat="44.22699" lon="6.35129">
        <ele>1255.2</ele>
        <time>2018-08-09T11:35:48Z</time>
      </trkpt>
      <trkpt lat="44.22702" lon="6.35134">
        <ele>1255.3</ele>
        <time>2018-08-09T11:35:50Z</time>
      </trkpt>
      <trkpt lat="44.22704" lon="6.35137">
        <ele>1255.5</ele>
        <time>2018-08-09T11:35:52Z</time>
      </trkpt>
      <trkpt lat="44.22706" lon="6.35141">
        <ele>1255.6</ele>
        <time>2018-08-09T11:35:54Z</time>
      </trkpt>
      <trkpt lat="44.22708" lon="6.35145">
        <ele>1255.8</ele>
        <time>2018-08-09T11:35:56Z</time>
      </trkpt>
      <trkpt lat="44.2271" lon="6.35148">
        <ele>1255.9</ele>
        <time>2018-08-09T11:35:58Z</time>
      </trkpt>
      <trkpt lat="44.22713" lon="6.35151">
        <ele>1256</ele>
        <time>2018-08-09T11:36:00Z</time>
      </trkpt>
      <trkpt lat="44.22715" lon="6.35154">
        <ele>1256.2</ele>
        <time>2018-08-09T11:36:02Z</time>
      </trkpt>
      <trkpt lat="44.22716" lon="6.35158">
        <ele>1256.3</ele>
        <time>2018-08-09T11:36:04Z</time>
      </trkpt>
      <trkpt lat="44.22719" lon="6.35161">
        <ele>1256.4</ele>
        <time>2018-08-09T11:36:06Z</time>
      </trkpt>
      <trkpt lat="44.22721" lon="6.35165">
        <ele>1256.6</ele>
        <time>2018-08-09T11:36:08Z</time>
      </trkpt>
      <trkpt lat="44.22724" lon="6.35169">
        <ele>1256.7</ele>
        <time>2018-08-09T11:36:10Z</time>
      </trkpt>
      <trkpt lat="44.22726" lon="6.35173">
        <ele>1256.8</ele>
        <time>2018-08-09T11:36:12Z</time>
      </trkpt>
      <trkpt lat="44.22729" lon="6.35176">
        <ele>1256.9</ele>
        <time>2018-08-09T11:36:14Z</time>
      </trkpt>
      <trkpt lat="44.22731" lon="6.3518">
        <ele>1256.9</ele>
        <time>2018-08-09T11:36:16Z</time>
      </trkpt>
      <trkpt lat="44.22734" lon="6.35184">
        <ele>1257</ele>
        <time>2018-08-09T11:36:18Z</time>
      </trkpt>
      <trkpt lat="44.22737" lon="6.35188">
        <ele>1257.1</ele>
        <time>2018-08-09T11:36:20Z</time>
      </trkpt>
      <trkpt lat="44.2274" lon="6.35192">
        <ele>1257.2</ele>
        <time>2018-08-09T11:36:22Z</time>
      </trkpt>
      <trkpt lat="44.22743" lon="6.35195">
        <ele>1257.4</ele>
        <time>2018-08-09T11:36:24Z</time>
      </trkpt>
      <trkpt lat="44.22745" lon="6.35199">
        <ele>1257.5</ele>
        <time>2018-08-09T11:36:25Z</time>
      </trkpt>
      <trkpt lat="44.22748" lon="6.35204">
        <ele>1257.7</ele>
        <time>2018-08-09T11:36:27Z</time>
      </trkpt>
      <trkpt lat="44.22752" lon="6.35208">
        <ele>1257.9</ele>
        <time>2018-08-09T11:36:29Z</time>
      </trkpt>
      <trkpt lat="44.22757" lon="6.35212">
        <ele>1258.1</ele>
        <time>2018-08-09T11:36:31Z</time>
      </trkpt>
      <trkpt lat="44.22758" lon="6.35216">
        <ele>1258.2</ele>
        <time>2018-08-09T11:36:32Z</time>
      </trkpt>
      <trkpt lat="44.2276" lon="6.35219">
        <ele>1258.3</ele>
        <time>2018-08-09T11:36:33Z</time>
      </trkpt>
      <trkpt lat="44.22764" lon="6.35223">
        <ele>1258.5</ele>
        <time>2018-08-09T11:36:35Z</time>
      </trkpt>
      <trkpt lat="44.22766" lon="6.35226">
        <ele>1258.6</ele>
        <time>2018-08-09T11:36:36Z</time>
      </trkpt>
      <trkpt lat="44.22769" lon="6.35231">
        <ele>1258.8</ele>
        <time>2018-08-09T11:36:38Z</time>
      </trkpt>
      <trkpt lat="44.22773" lon="6.35234">
        <ele>1259</ele>
        <time>2018-08-09T11:36:40Z</time>
      </trkpt>
      <trkpt lat="44.22777" lon="6.35237">
        <ele>1259.1</ele>
        <time>2018-08-09T11:36:42Z</time>
      </trkpt>
      <trkpt lat="44.22782" lon="6.3524">
        <ele>1259.3</ele>
        <time>2018-08-09T11:36:44Z</time>
      </trkpt>
      <trkpt lat="44.22786" lon="6.35241">
        <ele>1259.5</ele>
        <time>2018-08-09T11:36:46Z</time>
      </trkpt>
      <trkpt lat="44.2279" lon="6.35244">
        <ele>1259.7</ele>
        <time>2018-08-09T11:36:48Z</time>
      </trkpt>
      <trkpt lat="44.22796" lon="6.35244">
        <ele>1259.9</ele>
        <time>2018-08-09T11:36:50Z</time>
      </trkpt>
      <trkpt lat="44.228" lon="6.35245">
        <ele>1260.1</ele>
        <time>2018-08-09T11:36:52Z</time>
      </trkpt>
      <trkpt lat="44.22803" lon="6.35246">
        <ele>1260.2</ele>
        <time>2018-08-09T11:36:53Z</time>
      </trkpt>
      <trkpt lat="44.22808" lon="6.35246">
        <ele>1260.4</ele>
        <time>2018-08-09T11:36:55Z</time>
      </trkpt>
      <trkpt lat="44.22812" lon="6.35247">
        <ele>1260.5</ele>
        <time>2018-08-09T11:36:57Z</time>
      </trkpt>
      <trkpt lat="44.22817" lon="6.35249">
        <ele>1260.6</ele>
        <time>2018-08-09T11:36:59Z</time>
      </trkpt>
      <trkpt lat="44.22821" lon="6.3525">
        <ele>1260.8</ele>
        <time>2018-08-09T11:37:01Z</time>
      </trkpt>
      <trkpt lat="44.22825" lon="6.3525">
        <ele>1260.9</ele>
        <time>2018-08-09T11:37:03Z</time>
      </trkpt>
      <trkpt lat="44.22829" lon="6.3525">
        <ele>1261.1</ele>
        <time>2018-08-09T11:37:05Z</time>
      </trkpt>
      <trkpt lat="44.22834" lon="6.35249">
        <ele>1261.3</ele>
        <time>2018-08-09T11:37:07Z</time>
      </trkpt>
      <trkpt lat="44.22838" lon="6.35247">
        <ele>1261.5</ele>
        <time>2018-08-09T11:37:09Z</time>
      </trkpt>
      <trkpt lat="44.22842" lon="6.35246">
        <ele>1261.6</ele>
        <time>2018-08-09T11:37:11Z</time>
      </trkpt>
      <trkpt lat="44.22847" lon="6.35245">
        <ele>1261.8</ele>
        <time>2018-08-09T11:37:13Z</time>
      </trkpt>
      <trkpt lat="44.22852" lon="6.35243">
        <ele>1261.9</ele>
        <time>2018-08-09T11:37:15Z</time>
      </trkpt>
      <trkpt lat="44.22855" lon="6.35242">
        <ele>1262</ele>
        <time>2018-08-09T11:37:16Z</time>
      </trkpt>
      <trkpt lat="44.22859" lon="6.3524">
        <ele>1262.1</ele>
        <time>2018-08-09T11:37:18Z</time>
      </trkpt>
      <trkpt lat="44.22863" lon="6.35239">
        <ele>1262.2</ele>
        <time>2018-08-09T11:37:20Z</time>
      </trkpt>
      <trkpt lat="44.22867" lon="6.35238">
        <ele>1262.3</ele>
        <time>2018-08-09T11:37:22Z</time>
      </trkpt>
      <trkpt lat="44.22871" lon="6.35236">
        <ele>1262.5</ele>
        <time>2018-08-09T11:37:24Z</time>
      </trkpt>
      <trkpt lat="44.22875" lon="6.35237">
        <ele>1262.6</ele>
        <time>2018-08-09T11:37:26Z</time>
      </trkpt>
      <trkpt lat="44.22879" lon="6.35236">
        <ele>1262.7</ele>
        <time>2018-08-09T11:37:28Z</time>
      </trkpt>
      <trkpt lat="44.22884" lon="6.35236">
        <ele>1262.8</ele>
        <time>2018-08-09T11:37:30Z</time>
      </trkpt>
      <trkpt lat="44.22888" lon="6.35235">
        <ele>1263</ele>
        <time>2018-08-09T11:37:32Z</time>
      </trkpt>
      <trkpt lat="44.22894" lon="6.35236">
        <ele>1263.2</ele>
        <time>2018-08-09T11:37:34Z</time>
      </trkpt>
      <trkpt lat="44.22896" lon="6.35236">
        <ele>1263.4</ele>
        <time>2018-08-09T11:37:35Z</time>
      </trkpt>
      <trkpt lat="44.22901" lon="6.35236">
        <ele>1263.6</ele>
        <time>2018-08-09T11:37:37Z</time>
      </trkpt>
      <trkpt lat="44.22906" lon="6.35235">
        <ele>1263.7</ele>
        <time>2018-08-09T11:37:39Z</time>
      </trkpt>
      <trkpt lat="44.22911" lon="6.35235">
        <ele>1263.9</ele>
        <time>2018-08-09T11:37:41Z</time>
      </trkpt>
      <trkpt lat="44.22916" lon="6.35235">
        <ele>1264</ele>
        <time>2018-08-09T11:37:43Z</time>
      </trkpt>
      <trkpt lat="44.2292" lon="6.35232">
        <ele>1264.3</ele>
        <time>2018-08-09T11:37:45Z</time>
      </trkpt>
      <trkpt lat="44.22923" lon="6.35231">
        <ele>1264.4</ele>
        <time>2018-08-09T11:37:46Z</time>
      </trkpt>
      <trkpt lat="44.22927" lon="6.35229">
        <ele>1264.7</ele>
        <time>2018-08-09T11:37:48Z</time>
      </trkpt>
      <trkpt lat="44.22931" lon="6.35225">
        <ele>1264.9</ele>
        <time>2018-08-09T11:37:50Z</time>
      </trkpt>
      <trkpt lat="44.22934" lon="6.35221">
        <ele>1265.1</ele>
        <time>2018-08-09T11:37:52Z</time>
      </trkpt>
      <trkpt lat="44.22938" lon="6.35216">
        <ele>1265.3</ele>
        <time>2018-08-09T11:37:54Z</time>
      </trkpt>
      <trkpt lat="44.2294" lon="6.35212">
        <ele>1265.3</ele>
        <time>2018-08-09T11:37:56Z</time>
      </trkpt>
      <trkpt lat="44.22944" lon="6.35209">
        <ele>1265.4</ele>
        <time>2018-08-09T11:37:58Z</time>
      </trkpt>
      <trkpt lat="44.22947" lon="6.35206">
        <ele>1265.5</ele>
        <time>2018-08-09T11:38:00Z</time>
      </trkpt>
      <trkpt lat="44.22951" lon="6.35203">
        <ele>1265.6</ele>
        <time>2018-08-09T11:38:02Z</time>
      </trkpt>
      <trkpt lat="44.22955" lon="6.352">
        <ele>1265.6</ele>
        <time>2018-08-09T11:38:04Z</time>
      </trkpt>
      <trkpt lat="44.22959" lon="6.35198">
        <ele>1265.6</ele>
        <time>2018-08-09T11:38:06Z</time>
      </trkpt>
      <trkpt lat="44.22962" lon="6.35196">
        <ele>1265.6</ele>
        <time>2018-08-09T11:38:08Z</time>
      </trkpt>
      <trkpt lat="44.22966" lon="6.35192">
        <ele>1265.6</ele>
        <time>2018-08-09T11:38:10Z</time>
      </trkpt>
      <trkpt lat="44.22969" lon="6.3519">
        <ele>1265.6</ele>
        <time>2018-08-09T11:38:12Z</time>
      </trkpt>
      <trkpt lat="44.22972" lon="6.35188">
        <ele>1265.6</ele>
        <time>2018-08-09T11:38:14Z</time>
      </trkpt>
      <trkpt lat="44.22975" lon="6.35185">
        <ele>1265.6</ele>
        <time>2018-08-09T11:38:15Z</time>
      </trkpt>
      <trkpt lat="44.2298" lon="6.35182">
        <ele>1265.6</ele>
        <time>2018-08-09T11:38:17Z</time>
      </trkpt>
      <trkpt lat="44.22984" lon="6.3518">
        <ele>1265.6</ele>
        <time>2018-08-09T11:38:19Z</time>
      </trkpt>
      <trkpt lat="44.22986" lon="6.35178">
        <ele>1265.6</ele>
        <time>2018-08-09T11:38:20Z</time>
      </trkpt>
      <trkpt lat="44.2299" lon="6.35177">
        <ele>1265.5</ele>
        <time>2018-08-09T11:38:22Z</time>
      </trkpt>
      <trkpt lat="44.22994" lon="6.35174">
        <ele>1265.5</ele>
        <time>2018-08-09T11:38:24Z</time>
      </trkpt>
      <trkpt lat="44.22996" lon="6.35173">
        <ele>1265.5</ele>
        <time>2018-08-09T11:38:25Z</time>
      </trkpt>
      <trkpt lat="44.23001" lon="6.35171">
        <ele>1265.5</ele>
        <time>2018-08-09T11:38:27Z</time>
      </trkpt>
      <trkpt lat="44.23005" lon="6.3517">
        <ele>1265.4</ele>
        <time>2018-08-09T11:38:29Z</time>
      </trkpt>
      <trkpt lat="44.23009" lon="6.35169">
        <ele>1265.4</ele>
        <time>2018-08-09T11:38:31Z</time>
      </trkpt>
      <trkpt lat="44.23014" lon="6.35168">
        <ele>1265.4</ele>
        <time>2018-08-09T11:38:33Z</time>
      </trkpt>
      <trkpt lat="44.23017" lon="6.35166">
        <ele>1265.4</ele>
        <time>2018-08-09T11:38:35Z</time>
      </trkpt>
      <trkpt lat="44.23021" lon="6.35164">
        <ele>1265.4</ele>
        <time>2018-08-09T11:38:37Z</time>
      </trkpt>
      <trkpt lat="44.23026" lon="6.35163">
        <ele>1265.4</ele>
        <time>2018-08-09T11:38:39Z</time>
      </trkpt>
      <trkpt lat="44.2303" lon="6.35161">
        <ele>1265.3</ele>
        <time>2018-08-09T11:38:41Z</time>
      </trkpt>
      <trkpt lat="44.23035" lon="6.35161">
        <ele>1265.3</ele>
        <time>2018-08-09T11:38:43Z</time>
      </trkpt>
      <trkpt lat="44.23039" lon="6.35159">
        <ele>1265.3</ele>
        <time>2018-08-09T11:38:45Z</time>
      </trkpt>
      <trkpt lat="44.23044" lon="6.35158">
        <ele>1265.3</ele>
        <time>2018-08-09T11:38:47Z</time>
      </trkpt>
      <trkpt lat="44.23049" lon="6.35156">
        <ele>1265.2</ele>
        <time>2018-08-09T11:38:49Z</time>
      </trkpt>
      <trkpt lat="44.23053" lon="6.35155">
        <ele>1265.2</ele>
        <time>2018-08-09T11:38:51Z</time>
      </trkpt>
      <trkpt lat="44.23058" lon="6.35152">
        <ele>1265.2</ele>
        <time>2018-08-09T11:38:53Z</time>
      </trkpt>
      <trkpt lat="44.23061" lon="6.35152">
        <ele>1265.2</ele>
        <time>2018-08-09T11:38:54Z</time>
      </trkpt>
      <trkpt lat="44.23064" lon="6.3515">
        <ele>1265.2</ele>
        <time>2018-08-09T11:38:55Z</time>
      </trkpt>
      <trkpt lat="44.23067" lon="6.35149">
        <ele>1265.1</ele>
        <time>2018-08-09T11:38:56Z</time>
      </trkpt>
      <trkpt lat="44.2307" lon="6.35147">
        <ele>1265.1</ele>
        <time>2018-08-09T11:38:57Z</time>
      </trkpt>
      <trkpt lat="44.23072" lon="6.35145">
        <ele>1265.1</ele>
        <time>2018-08-09T11:38:58Z</time>
      </trkpt>
      <trkpt lat="44.23075" lon="6.35143">
        <ele>1265.1</ele>
        <time>2018-08-09T11:38:59Z</time>
      </trkpt>
      <trkpt lat="44.23078" lon="6.35142">
        <ele>1265.1</ele>
        <time>2018-08-09T11:39:00Z</time>
      </trkpt>
      <trkpt lat="44.23082" lon="6.3514">
        <ele>1265.1</ele>
        <time>2018-08-09T11:39:02Z</time>
      </trkpt>
      <trkpt lat="44.23085" lon="6.35139">
        <ele>1265</ele>
        <time>2018-08-09T11:39:03Z</time>
      </trkpt>
      <trkpt lat="44.2309" lon="6.35137">
        <ele>1265</ele>
        <time>2018-08-09T11:39:05Z</time>
      </trkpt>
      <trkpt lat="44.23092" lon="6.35137">
        <ele>1265</ele>
        <time>2018-08-09T11:39:06Z</time>
      </trkpt>
      <trkpt lat="44.23098" lon="6.35136">
        <ele>1265</ele>
        <time>2018-08-09T11:39:08Z</time>
      </trkpt>
      <trkpt lat="44.23101" lon="6.35136">
        <ele>1265</ele>
        <time>2018-08-09T11:39:09Z</time>
      </trkpt>
      <trkpt lat="44.23104" lon="6.35135">
        <ele>1265</ele>
        <time>2018-08-09T11:39:10Z</time>
      </trkpt>
      <trkpt lat="44.23107" lon="6.35135">
        <ele>1265</ele>
        <time>2018-08-09T11:39:11Z</time>
      </trkpt>
      <trkpt lat="44.2311" lon="6.35135">
        <ele>1264.9</ele>
        <time>2018-08-09T11:39:12Z</time>
      </trkpt>
      <trkpt lat="44.23114" lon="6.35136">
        <ele>1264.9</ele>
        <time>2018-08-09T11:39:13Z</time>
      </trkpt>
      <trkpt lat="44.23118" lon="6.35137">
        <ele>1264.9</ele>
        <time>2018-08-09T11:39:14Z</time>
      </trkpt>
      <trkpt lat="44.23121" lon="6.35137">
        <ele>1264.9</ele>
        <time>2018-08-09T11:39:15Z</time>
      </trkpt>
      <trkpt lat="44.23125" lon="6.35136">
        <ele>1264.9</ele>
        <time>2018-08-09T11:39:16Z</time>
      </trkpt>
      <trkpt lat="44.23128" lon="6.35136">
        <ele>1264.9</ele>
        <time>2018-08-09T11:39:17Z</time>
      </trkpt>
      <trkpt lat="44.23131" lon="6.35136">
        <ele>1264.9</ele>
        <time>2018-08-09T11:39:18Z</time>
      </trkpt>
      <trkpt lat="44.23136" lon="6.35136">
        <ele>1264.9</ele>
        <time>2018-08-09T11:39:20Z</time>
      </trkpt>
      <trkpt lat="44.2314" lon="6.35135">
        <ele>1264.8</ele>
        <time>2018-08-09T11:39:21Z</time>
      </trkpt>
      <trkpt lat="44.23145" lon="6.35134">
        <ele>1264.8</ele>
        <time>2018-08-09T11:39:23Z</time>
      </trkpt>
      <trkpt lat="44.23149" lon="6.35134">
        <ele>1264.8</ele>
        <time>2018-08-09T11:39:24Z</time>
      </trkpt>
      <trkpt lat="44.23152" lon="6.35132">
        <ele>1264.8</ele>
        <time>2018-08-09T11:39:25Z</time>
      </trkpt>
      <trkpt lat="44.23155" lon="6.35132">
        <ele>1264.8</ele>
        <time>2018-08-09T11:39:26Z</time>
      </trkpt>
      <trkpt lat="44.23159" lon="6.35131">
        <ele>1264.8</ele>
        <time>2018-08-09T11:39:28Z</time>
      </trkpt>
      <trkpt lat="44.23164" lon="6.35129">
        <ele>1264.8</ele>
        <time>2018-08-09T11:39:30Z</time>
      </trkpt>
      <trkpt lat="44.23168" lon="6.35129">
        <ele>1264.7</ele>
        <time>2018-08-09T11:39:31Z</time>
      </trkpt>
      <trkpt lat="44.23171" lon="6.35127">
        <ele>1264.7</ele>
        <time>2018-08-09T11:39:32Z</time>
      </trkpt>
      <trkpt lat="44.23175" lon="6.35126">
        <ele>1264.7</ele>
        <time>2018-08-09T11:39:33Z</time>
      </trkpt>
      <trkpt lat="44.23178" lon="6.35125">
        <ele>1264.7</ele>
        <time>2018-08-09T11:39:34Z</time>
      </trkpt>
      <trkpt lat="44.23181" lon="6.35122">
        <ele>1264.6</ele>
        <time>2018-08-09T11:39:35Z</time>
      </trkpt>
      <trkpt lat="44.23184" lon="6.35122">
        <ele>1264.6</ele>
        <time>2018-08-09T11:39:36Z</time>
      </trkpt>
      <trkpt lat="44.23187" lon="6.35122">
        <ele>1264.6</ele>
        <time>2018-08-09T11:39:37Z</time>
      </trkpt>
      <trkpt lat="44.23189" lon="6.3512">
        <ele>1264.5</ele>
        <time>2018-08-09T11:39:38Z</time>
      </trkpt>
      <trkpt lat="44.23194" lon="6.35117">
        <ele>1264.5</ele>
        <time>2018-08-09T11:39:40Z</time>
      </trkpt>
      <trkpt lat="44.23197" lon="6.35115">
        <ele>1264.4</ele>
        <time>2018-08-09T11:39:41Z</time>
      </trkpt>
      <trkpt lat="44.232" lon="6.35114">
        <ele>1264.4</ele>
        <time>2018-08-09T11:39:42Z</time>
      </trkpt>
      <trkpt lat="44.23204" lon="6.35112">
        <ele>1264.3</ele>
        <time>2018-08-09T11:39:43Z</time>
      </trkpt>
      <trkpt lat="44.23209" lon="6.35111">
        <ele>1264.2</ele>
        <time>2018-08-09T11:39:45Z</time>
      </trkpt>
      <trkpt lat="44.23212" lon="6.35109">
        <ele>1264.1</ele>
        <time>2018-08-09T11:39:46Z</time>
      </trkpt>
      <trkpt lat="44.23216" lon="6.35106">
        <ele>1264</ele>
        <time>2018-08-09T11:39:47Z</time>
      </trkpt>
      <trkpt lat="44.23218" lon="6.35105">
        <ele>1263.9</ele>
        <time>2018-08-09T11:39:48Z</time>
      </trkpt>
      <trkpt lat="44.23224" lon="6.35101">
        <ele>1263.5</ele>
        <time>2018-08-09T11:39:50Z</time>
      </trkpt>
      <trkpt lat="44.23229" lon="6.35098">
        <ele>1263</ele>
        <time>2018-08-09T11:39:52Z</time>
      </trkpt>
      <trkpt lat="44.23231" lon="6.35095">
        <ele>1262.8</ele>
        <time>2018-08-09T11:39:53Z</time>
      </trkpt>
      <trkpt lat="44.23234" lon="6.35093">
        <ele>1262.6</ele>
        <time>2018-08-09T11:39:54Z</time>
      </trkpt>
      <trkpt lat="44.23237" lon="6.3509">
        <ele>1262.4</ele>
        <time>2018-08-09T11:39:55Z</time>
      </trkpt>
      <trkpt lat="44.23241" lon="6.35087">
        <ele>1262.1</ele>
        <time>2018-08-09T11:39:56Z</time>
      </trkpt>
      <trkpt lat="44.23244" lon="6.35085">
        <ele>1261.9</ele>
        <time>2018-08-09T11:39:57Z</time>
      </trkpt>
      <trkpt lat="44.23247" lon="6.35083">
        <ele>1261.7</ele>
        <time>2018-08-09T11:39:58Z</time>
      </trkpt>
      <trkpt lat="44.23251" lon="6.35081">
        <ele>1261.5</ele>
        <time>2018-08-09T11:39:59Z</time>
      </trkpt>
      <trkpt lat="44.23255" lon="6.35079">
        <ele>1261</ele>
        <time>2018-08-09T11:40:00Z</time>
      </trkpt>
      <trkpt lat="44.2326" lon="6.35078">
        <ele>1260</ele>
        <time>2018-08-09T11:40:01Z</time>
      </trkpt>
      <trkpt lat="44.23264" lon="6.35077">
        <ele>1259.5</ele>
        <time>2018-08-09T11:40:02Z</time>
      </trkpt>
      <trkpt lat="44.2327" lon="6.35074">
        <ele>1259.1</ele>
        <time>2018-08-09T11:40:03Z</time>
      </trkpt>
      <trkpt lat="44.23275" lon="6.35073">
        <ele>1258.4</ele>
        <time>2018-08-09T11:40:04Z</time>
      </trkpt>
      <trkpt lat="44.2328" lon="6.35073">
        <ele>1257.7</ele>
        <time>2018-08-09T11:40:05Z</time>
      </trkpt>
      <trkpt lat="44.23283" lon="6.35074">
        <ele>1257.3</ele>
        <time>2018-08-09T11:40:06Z</time>
      </trkpt>
      <trkpt lat="44.23289" lon="6.35073">
        <ele>1256.9</ele>
        <time>2018-08-09T11:40:07Z</time>
      </trkpt>
      <trkpt lat="44.23293" lon="6.35071">
        <ele>1256.6</ele>
        <time>2018-08-09T11:40:08Z</time>
      </trkpt>
      <trkpt lat="44.23297" lon="6.35066">
        <ele>1255.8</ele>
        <time>2018-08-09T11:40:09Z</time>
      </trkpt>
      <trkpt lat="44.233" lon="6.3506">
        <ele>1254.9</ele>
        <time>2018-08-09T11:40:10Z</time>
      </trkpt>
      <trkpt lat="44.23303" lon="6.35054">
        <ele>1254.3</ele>
        <time>2018-08-09T11:40:11Z</time>
      </trkpt>
      <trkpt lat="44.23305" lon="6.35049">
        <ele>1253.5</ele>
        <time>2018-08-09T11:40:12Z</time>
      </trkpt>
      <trkpt lat="44.2331" lon="6.35045">
        <ele>1252.6</ele>
        <time>2018-08-09T11:40:13Z</time>
      </trkpt>
      <trkpt lat="44.23314" lon="6.35042">
        <ele>1252.1</ele>
        <time>2018-08-09T11:40:14Z</time>
      </trkpt>
      <trkpt lat="44.2332" lon="6.35043">
        <ele>1251.4</ele>
        <time>2018-08-09T11:40:15Z</time>
      </trkpt>
      <trkpt lat="44.23326" lon="6.35045">
        <ele>1250.1</ele>
        <time>2018-08-09T11:40:16Z</time>
      </trkpt>
      <trkpt lat="44.23332" lon="6.35047">
        <ele>1249.4</ele>
        <time>2018-08-09T11:40:17Z</time>
      </trkpt>
      <trkpt lat="44.23339" lon="6.35047">
        <ele>1248.8</ele>
        <time>2018-08-09T11:40:18Z</time>
      </trkpt>
      <trkpt lat="44.23345" lon="6.35047">
        <ele>1247.6</ele>
        <time>2018-08-09T11:40:19Z</time>
      </trkpt>
      <trkpt lat="44.23351" lon="6.35038">
        <ele>1246.5</ele>
        <time>2018-08-09T11:40:20Z</time>
      </trkpt>
      <trkpt lat="44.23357" lon="6.35035">
        <ele>1245.3</ele>
        <time>2018-08-09T11:40:21Z</time>
      </trkpt>
      <trkpt lat="44.23361" lon="6.35034">
        <ele>1244.6</ele>
        <time>2018-08-09T11:40:22Z</time>
      </trkpt>
      <trkpt lat="44.23365" lon="6.35035">
        <ele>1244.1</ele>
        <time>2018-08-09T11:40:23Z</time>
      </trkpt>
      <trkpt lat="44.23369" lon="6.35039">
        <ele>1242.9</ele>
        <time>2018-08-09T11:40:24Z</time>
      </trkpt>
      <trkpt lat="44.23372" lon="6.35043">
        <ele>1242.2</ele>
        <time>2018-08-09T11:40:25Z</time>
      </trkpt>
      <trkpt lat="44.23374" lon="6.35049">
        <ele>1241.6</ele>
        <time>2018-08-09T11:40:26Z</time>
      </trkpt>
      <trkpt lat="44.23376" lon="6.35056">
        <ele>1240.8</ele>
        <time>2018-08-09T11:40:27Z</time>
      </trkpt>
      <trkpt lat="44.23376" lon="6.35063">
        <ele>1240</ele>
        <time>2018-08-09T11:40:28Z</time>
      </trkpt>
      <trkpt lat="44.23377" lon="6.35071">
        <ele>1239.3</ele>
        <time>2018-08-09T11:40:29Z</time>
      </trkpt>
      <trkpt lat="44.23379" lon="6.35078">
        <ele>1238.8</ele>
        <time>2018-08-09T11:40:30Z</time>
      </trkpt>
      <trkpt lat="44.23382" lon="6.35085">
        <ele>1237.7</ele>
        <time>2018-08-09T11:40:31Z</time>
      </trkpt>
      <trkpt lat="44.23385" lon="6.3509">
        <ele>1237</ele>
        <time>2018-08-09T11:40:32Z</time>
      </trkpt>
      <trkpt lat="44.23388" lon="6.35093">
        <ele>1236.5</ele>
        <time>2018-08-09T11:40:33Z</time>
      </trkpt>
      <trkpt lat="44.23391" lon="6.35094">
        <ele>1236.2</ele>
        <time>2018-08-09T11:40:34Z</time>
      </trkpt>
      <trkpt lat="44.23395" lon="6.35098">
        <ele>1235.6</ele>
        <time>2018-08-09T11:40:35Z</time>
      </trkpt>
      <trkpt lat="44.23399" lon="6.35102">
        <ele>1234.7</ele>
        <time>2018-08-09T11:40:36Z</time>
      </trkpt>
      <trkpt lat="44.23401" lon="6.35108">
        <ele>1234.1</ele>
        <time>2018-08-09T11:40:37Z</time>
      </trkpt>
      <trkpt lat="44.23402" lon="6.35115">
        <ele>1233.7</ele>
        <time>2018-08-09T11:40:38Z</time>
      </trkpt>
      <trkpt lat="44.23403" lon="6.35122">
        <ele>1233.1</ele>
        <time>2018-08-09T11:40:39Z</time>
      </trkpt>
      <trkpt lat="44.23404" lon="6.3513">
        <ele>1232.3</ele>
        <time>2018-08-09T11:40:40Z</time>
      </trkpt>
      <trkpt lat="44.23406" lon="6.35137">
        <ele>1231.4</ele>
        <time>2018-08-09T11:40:41Z</time>
      </trkpt>
      <trkpt lat="44.23409" lon="6.35145">
        <ele>1230.9</ele>
        <time>2018-08-09T11:40:42Z</time>
      </trkpt>
      <trkpt lat="44.2341" lon="6.35153">
        <ele>1230.4</ele>
        <time>2018-08-09T11:40:43Z</time>
      </trkpt>
      <trkpt lat="44.2341" lon="6.35161">
        <ele>1229.3</ele>
        <time>2018-08-09T11:40:44Z</time>
      </trkpt>
      <trkpt lat="44.23408" lon="6.35168">
        <ele>1228.5</ele>
        <time>2018-08-09T11:40:45Z</time>
      </trkpt>
      <trkpt lat="44.23406" lon="6.35176">
        <ele>1227.9</ele>
        <time>2018-08-09T11:40:46Z</time>
      </trkpt>
      <trkpt lat="44.23404" lon="6.35182">
        <ele>1227.1</ele>
        <time>2018-08-09T11:40:47Z</time>
      </trkpt>
      <trkpt lat="44.23402" lon="6.35189">
        <ele>1226.4</ele>
        <time>2018-08-09T11:40:48Z</time>
      </trkpt>
      <trkpt lat="44.234" lon="6.35197">
        <ele>1225.9</ele>
        <time>2018-08-09T11:40:49Z</time>
      </trkpt>
      <trkpt lat="44.234" lon="6.35205">
        <ele>1225</ele>
        <time>2018-08-09T11:40:50Z</time>
      </trkpt>
      <trkpt lat="44.234" lon="6.35215">
        <ele>1223.7</ele>
        <time>2018-08-09T11:40:51Z</time>
      </trkpt>
      <trkpt lat="44.234" lon="6.35224">
        <ele>1222.7</ele>
        <time>2018-08-09T11:40:52Z</time>
      </trkpt>
      <trkpt lat="44.23401" lon="6.35234">
        <ele>1221.4</ele>
        <time>2018-08-09T11:40:53Z</time>
      </trkpt>
      <trkpt lat="44.23402" lon="6.35244">
        <ele>1220.5</ele>
        <time>2018-08-09T11:40:54Z</time>
      </trkpt>
      <trkpt lat="44.23402" lon="6.35253">
        <ele>1219.6</ele>
        <time>2018-08-09T11:40:55Z</time>
      </trkpt>
      <trkpt lat="44.23406" lon="6.35261">
        <ele>1218.4</ele>
        <time>2018-08-09T11:40:56Z</time>
      </trkpt>
      <trkpt lat="44.2341" lon="6.35269">
        <ele>1217.8</ele>
        <time>2018-08-09T11:40:57Z</time>
      </trkpt>
      <trkpt lat="44.23415" lon="6.35277">
        <ele>1216.9</ele>
        <time>2018-08-09T11:40:58Z</time>
      </trkpt>
      <trkpt lat="44.2342" lon="6.35284">
        <ele>1215.9</ele>
        <time>2018-08-09T11:40:59Z</time>
      </trkpt>
      <trkpt lat="44.23427" lon="6.35292">
        <ele>1215.3</ele>
        <time>2018-08-09T11:41:00Z</time>
      </trkpt>
      <trkpt lat="44.23433" lon="6.35298">
        <ele>1214.4</ele>
        <time>2018-08-09T11:41:01Z</time>
      </trkpt>
      <trkpt lat="44.23438" lon="6.35303">
        <ele>1213.3</ele>
        <time>2018-08-09T11:41:02Z</time>
      </trkpt>
      <trkpt lat="44.23443" lon="6.35307">
        <ele>1212.8</ele>
        <time>2018-08-09T11:41:03Z</time>
      </trkpt>
      <trkpt lat="44.23448" lon="6.35312">
        <ele>1212</ele>
        <time>2018-08-09T11:41:04Z</time>
      </trkpt>
      <trkpt lat="44.23453" lon="6.35316">
        <ele>1211</ele>
        <time>2018-08-09T11:41:05Z</time>
      </trkpt>
      <trkpt lat="44.23459" lon="6.35318">
        <ele>1210.4</ele>
        <time>2018-08-09T11:41:06Z</time>
      </trkpt>
      <trkpt lat="44.23464" lon="6.35319">
        <ele>1210</ele>
        <time>2018-08-09T11:41:07Z</time>
      </trkpt>
      <trkpt lat="44.23469" lon="6.35319">
        <ele>1209.5</ele>
        <time>2018-08-09T11:41:08Z</time>
      </trkpt>
      <trkpt lat="44.23474" lon="6.35321">
        <ele>1208.9</ele>
        <time>2018-08-09T11:41:09Z</time>
      </trkpt>
      <trkpt lat="44.23479" lon="6.3532">
        <ele>1208.2</ele>
        <time>2018-08-09T11:41:10Z</time>
      </trkpt>
      <trkpt lat="44.23484" lon="6.35319">
        <ele>1207.8</ele>
        <time>2018-08-09T11:41:11Z</time>
      </trkpt>
      <trkpt lat="44.2349" lon="6.35318">
        <ele>1207.3</ele>
        <time>2018-08-09T11:41:12Z</time>
      </trkpt>
      <trkpt lat="44.23495" lon="6.35316">
        <ele>1206.8</ele>
        <time>2018-08-09T11:41:13Z</time>
      </trkpt>
      <trkpt lat="44.23502" lon="6.35315">
        <ele>1205.7</ele>
        <time>2018-08-09T11:41:14Z</time>
      </trkpt>
      <trkpt lat="44.23508" lon="6.35312">
        <ele>1205.3</ele>
        <time>2018-08-09T11:41:15Z</time>
      </trkpt>
      <trkpt lat="44.23515" lon="6.35309">
        <ele>1204.9</ele>
        <time>2018-08-09T11:41:16Z</time>
      </trkpt>
      <trkpt lat="44.2352" lon="6.35306">
        <ele>1204.3</ele>
        <time>2018-08-09T11:41:17Z</time>
      </trkpt>
      <trkpt lat="44.23526" lon="6.35303">
        <ele>1203.1</ele>
        <time>2018-08-09T11:41:18Z</time>
      </trkpt>
      <trkpt lat="44.23535" lon="6.35299">
        <ele>1202.1</ele>
        <time>2018-08-09T11:41:19Z</time>
      </trkpt>
      <trkpt lat="44.23542" lon="6.35296">
        <ele>1200.9</ele>
        <time>2018-08-09T11:41:20Z</time>
      </trkpt>
      <trkpt lat="44.23549" lon="6.35292">
        <ele>1200.3</ele>
        <time>2018-08-09T11:41:21Z</time>
      </trkpt>
      <trkpt lat="44.23556" lon="6.35288">
        <ele>1199.5</ele>
        <time>2018-08-09T11:41:22Z</time>
      </trkpt>
      <trkpt lat="44.23562" lon="6.35286">
        <ele>1198.2</ele>
        <time>2018-08-09T11:41:23Z</time>
      </trkpt>
      <trkpt lat="44.23567" lon="6.35281">
        <ele>1197.4</ele>
        <time>2018-08-09T11:41:24Z</time>
      </trkpt>
      <trkpt lat="44.23574" lon="6.35277">
        <ele>1196.5</ele>
        <time>2018-08-09T11:41:25Z</time>
      </trkpt>
      <trkpt lat="44.23581" lon="6.35273">
        <ele>1195.3</ele>
        <time>2018-08-09T11:41:26Z</time>
      </trkpt>
      <trkpt lat="44.23588" lon="6.35269">
        <ele>1194.7</ele>
        <time>2018-08-09T11:41:27Z</time>
      </trkpt>
      <trkpt lat="44.23595" lon="6.35264">
        <ele>1193.5</ele>
        <time>2018-08-09T11:41:28Z</time>
      </trkpt>
      <trkpt lat="44.23601" lon="6.35258">
        <ele>1192.8</ele>
        <time>2018-08-09T11:41:29Z</time>
      </trkpt>
      <trkpt lat="44.23608" lon="6.35251">
        <ele>1192.3</ele>
        <time>2018-08-09T11:41:30Z</time>
      </trkpt>
      <trkpt lat="44.23614" lon="6.35244">
        <ele>1191.4</ele>
        <time>2018-08-09T11:41:31Z</time>
      </trkpt>
      <trkpt lat="44.23619" lon="6.35238">
        <ele>1190.3</ele>
        <time>2018-08-09T11:41:32Z</time>
      </trkpt>
      <trkpt lat="44.23624" lon="6.35232">
        <ele>1189.8</ele>
        <time>2018-08-09T11:41:33Z</time>
      </trkpt>
      <trkpt lat="44.2363" lon="6.35226">
        <ele>1189.2</ele>
        <time>2018-08-09T11:41:34Z</time>
      </trkpt>
      <trkpt lat="44.23634" lon="6.35218">
        <ele>1188.3</ele>
        <time>2018-08-09T11:41:35Z</time>
      </trkpt>
      <trkpt lat="44.23638" lon="6.3521">
        <ele>1187.6</ele>
        <time>2018-08-09T11:41:36Z</time>
      </trkpt>
      <trkpt lat="44.23641" lon="6.352">
        <ele>1187.1</ele>
        <time>2018-08-09T11:41:37Z</time>
      </trkpt>
      <trkpt lat="44.23646" lon="6.35193">
        <ele>1186.2</ele>
        <time>2018-08-09T11:41:38Z</time>
      </trkpt>
      <trkpt lat="44.23651" lon="6.35185">
        <ele>1185.1</ele>
        <time>2018-08-09T11:41:39Z</time>
      </trkpt>
      <trkpt lat="44.23656" lon="6.35178">
        <ele>1184.3</ele>
        <time>2018-08-09T11:41:40Z</time>
      </trkpt>
      <trkpt lat="44.23661" lon="6.35171">
        <ele>1183.1</ele>
        <time>2018-08-09T11:41:41Z</time>
      </trkpt>
      <trkpt lat="44.23665" lon="6.35164">
        <ele>1182.5</ele>
        <time>2018-08-09T11:41:42Z</time>
      </trkpt>
      <trkpt lat="44.23668" lon="6.35158">
        <ele>1182.1</ele>
        <time>2018-08-09T11:41:43Z</time>
      </trkpt>
      <trkpt lat="44.23669" lon="6.3515">
        <ele>1181.8</ele>
        <time>2018-08-09T11:41:44Z</time>
      </trkpt>
      <trkpt lat="44.2367" lon="6.35143">
        <ele>1181.2</ele>
        <time>2018-08-09T11:41:45Z</time>
      </trkpt>
      <trkpt lat="44.23669" lon="6.35133">
        <ele>1180.1</ele>
        <time>2018-08-09T11:41:46Z</time>
      </trkpt>
      <trkpt lat="44.23669" lon="6.35124">
        <ele>1179.1</ele>
        <time>2018-08-09T11:41:47Z</time>
      </trkpt>
      <trkpt lat="44.23669" lon="6.35114">
        <ele>1177.8</ele>
        <time>2018-08-09T11:41:48Z</time>
      </trkpt>
      <trkpt lat="44.23669" lon="6.35104">
        <ele>1177.3</ele>
        <time>2018-08-09T11:41:49Z</time>
      </trkpt>
      <trkpt lat="44.23669" lon="6.35094">
        <ele>1177</ele>
        <time>2018-08-09T11:41:50Z</time>
      </trkpt>
      <trkpt lat="44.2367" lon="6.35085">
        <ele>1176.6</ele>
        <time>2018-08-09T11:41:51Z</time>
      </trkpt>
      <trkpt lat="44.23671" lon="6.35076">
        <ele>1175.9</ele>
        <time>2018-08-09T11:41:52Z</time>
      </trkpt>
      <trkpt lat="44.23673" lon="6.35069">
        <ele>1175</ele>
        <time>2018-08-09T11:41:53Z</time>
      </trkpt>
      <trkpt lat="44.23676" lon="6.35064">
        <ele>1174.6</ele>
        <time>2018-08-09T11:41:54Z</time>
      </trkpt>
      <trkpt lat="44.2368" lon="6.3506">
        <ele>1174.2</ele>
        <time>2018-08-09T11:41:55Z</time>
      </trkpt>
      <trkpt lat="44.23685" lon="6.35058">
        <ele>1173.6</ele>
        <time>2018-08-09T11:41:56Z</time>
      </trkpt>
      <trkpt lat="44.23689" lon="6.35057">
        <ele>1172.7</ele>
        <time>2018-08-09T11:41:57Z</time>
      </trkpt>
      <trkpt lat="44.23696" lon="6.35056">
        <ele>1171.9</ele>
        <time>2018-08-09T11:41:58Z</time>
      </trkpt>
      <trkpt lat="44.237" lon="6.35055">
        <ele>1171.5</ele>
        <time>2018-08-09T11:41:59Z</time>
      </trkpt>
      <trkpt lat="44.23703" lon="6.35054">
        <ele>1171.1</ele>
        <time>2018-08-09T11:42:00Z</time>
      </trkpt>
      <trkpt lat="44.23706" lon="6.3505">
        <ele>1170.2</ele>
        <time>2018-08-09T11:42:01Z</time>
      </trkpt>
      <trkpt lat="44.2371" lon="6.35045">
        <ele>1169.4</ele>
        <time>2018-08-09T11:42:02Z</time>
      </trkpt>
      <trkpt lat="44.23711" lon="6.35038">
        <ele>1168.9</ele>
        <time>2018-08-09T11:42:03Z</time>
      </trkpt>
      <trkpt lat="44.23711" lon="6.35029">
        <ele>1168.5</ele>
        <time>2018-08-09T11:42:04Z</time>
      </trkpt>
      <trkpt lat="44.2371" lon="6.35021">
        <ele>1167.5</ele>
        <time>2018-08-09T11:42:05Z</time>
      </trkpt>
      <trkpt lat="44.23709" lon="6.35012">
        <ele>1166.7</ele>
        <time>2018-08-09T11:42:06Z</time>
      </trkpt>
      <trkpt lat="44.23708" lon="6.35003">
        <ele>1166.1</ele>
        <time>2018-08-09T11:42:07Z</time>
      </trkpt>
      <trkpt lat="44.23706" lon="6.34993">
        <ele>1165.5</ele>
        <time>2018-08-09T11:42:08Z</time>
      </trkpt>
      <trkpt lat="44.23705" lon="6.34984">
        <ele>1164.5</ele>
        <time>2018-08-09T11:42:09Z</time>
      </trkpt>
      <trkpt lat="44.23705" lon="6.34978">
        <ele>1164.1</ele>
        <time>2018-08-09T11:42:10Z</time>
      </trkpt>
      <trkpt lat="44.23707" lon="6.34971">
        <ele>1163.8</ele>
        <time>2018-08-09T11:42:11Z</time>
      </trkpt>
      <trkpt lat="44.23709" lon="6.34966">
        <ele>1163.5</ele>
        <time>2018-08-09T11:42:12Z</time>
      </trkpt>
      <trkpt lat="44.23713" lon="6.34962">
        <ele>1163.2</ele>
        <time>2018-08-09T11:42:13Z</time>
      </trkpt>
      <trkpt lat="44.23716" lon="6.34961">
        <ele>1162.8</ele>
        <time>2018-08-09T11:42:14Z</time>
      </trkpt>
      <trkpt lat="44.2372" lon="6.34964">
        <ele>1162.1</ele>
        <time>2018-08-09T11:42:31Z</time>
      </trkpt>
      <trkpt lat="44.23723" lon="6.34964">
        <ele>1161.5</ele>
        <time>2018-08-09T11:42:32Z</time>
      </trkpt>
      <trkpt lat="44.23727" lon="6.34965">
        <ele>1161.1</ele>
        <time>2018-08-09T11:42:33Z</time>
      </trkpt>
      <trkpt lat="44.23731" lon="6.34966">
        <ele>1160.8</ele>
        <time>2018-08-09T11:42:34Z</time>
      </trkpt>
      <trkpt lat="44.23735" lon="6.34968">
        <ele>1160.1</ele>
        <time>2018-08-09T11:42:35Z</time>
      </trkpt>
      <trkpt lat="44.2374" lon="6.34968">
        <ele>1159.3</ele>
        <time>2018-08-09T11:42:36Z</time>
      </trkpt>
      <trkpt lat="44.23745" lon="6.34968">
        <ele>1158.8</ele>
        <time>2018-08-09T11:42:37Z</time>
      </trkpt>
      <trkpt lat="44.23749" lon="6.34965">
        <ele>1158.3</ele>
        <time>2018-08-09T11:42:38Z</time>
      </trkpt>
      <trkpt lat="44.23754" lon="6.34959">
        <ele>1157.2</ele>
        <time>2018-08-09T11:42:39Z</time>
      </trkpt>
      <trkpt lat="44.23757" lon="6.34953">
        <ele>1156.4</ele>
        <time>2018-08-09T11:42:40Z</time>
      </trkpt>
      <trkpt lat="44.23761" lon="6.34946">
        <ele>1156</ele>
        <time>2018-08-09T11:42:41Z</time>
      </trkpt>
      <trkpt lat="44.23765" lon="6.34938">
        <ele>1155.7</ele>
        <time>2018-08-09T11:42:42Z</time>
      </trkpt>
      <trkpt lat="44.23768" lon="6.34931">
        <ele>1155.3</ele>
        <time>2018-08-09T11:42:43Z</time>
      </trkpt>
      <trkpt lat="44.23769" lon="6.34924">
        <ele>1154.5</ele>
        <time>2018-08-09T11:42:44Z</time>
      </trkpt>
      <trkpt lat="44.23769" lon="6.34916">
        <ele>1153.7</ele>
        <time>2018-08-09T11:42:45Z</time>
      </trkpt>
      <trkpt lat="44.23768" lon="6.34909">
        <ele>1153.2</ele>
        <time>2018-08-09T11:42:46Z</time>
      </trkpt>
      <trkpt lat="44.23767" lon="6.34901">
        <ele>1152.8</ele>
        <time>2018-08-09T11:42:47Z</time>
      </trkpt>
      <trkpt lat="44.23766" lon="6.34893">
        <ele>1151.7</ele>
        <time>2018-08-09T11:42:48Z</time>
      </trkpt>
      <trkpt lat="44.23763" lon="6.34883">
        <ele>1150.6</ele>
        <time>2018-08-09T11:42:49Z</time>
      </trkpt>
      <trkpt lat="44.23762" lon="6.34875">
        <ele>1150</ele>
        <time>2018-08-09T11:42:50Z</time>
      </trkpt>
      <trkpt lat="44.23761" lon="6.34866">
        <ele>1149.3</ele>
        <time>2018-08-09T11:42:51Z</time>
      </trkpt>
      <trkpt lat="44.2376" lon="6.34857">
        <ele>1148.1</ele>
        <time>2018-08-09T11:42:52Z</time>
      </trkpt>
      <trkpt lat="44.23759" lon="6.34849">
        <ele>1147.5</ele>
        <time>2018-08-09T11:42:53Z</time>
      </trkpt>
      <trkpt lat="44.23759" lon="6.34842">
        <ele>1146.7</ele>
        <time>2018-08-09T11:42:54Z</time>
      </trkpt>
      <trkpt lat="44.2376" lon="6.34838">
        <ele>1146.1</ele>
        <time>2018-08-09T11:42:55Z</time>
      </trkpt>
      <trkpt lat="44.23763" lon="6.34833">
        <ele>1145.6</ele>
        <time>2018-08-09T11:42:56Z</time>
      </trkpt>
      <trkpt lat="44.23766" lon="6.34829">
        <ele>1145.2</ele>
        <time>2018-08-09T11:42:57Z</time>
      </trkpt>
      <trkpt lat="44.23771" lon="6.34828">
        <ele>1144.8</ele>
        <time>2018-08-09T11:42:58Z</time>
      </trkpt>
      <trkpt lat="44.23775" lon="6.34827">
        <ele>1144.2</ele>
        <time>2018-08-09T11:42:59Z</time>
      </trkpt>
      <trkpt lat="44.23779" lon="6.3483">
        <ele>1143.6</ele>
        <time>2018-08-09T11:43:00Z</time>
      </trkpt>
      <trkpt lat="44.23782" lon="6.34836">
        <ele>1142.9</ele>
        <time>2018-08-09T11:43:01Z</time>
      </trkpt>
      <trkpt lat="44.23784" lon="6.34839">
        <ele>1142.6</ele>
        <time>2018-08-09T11:43:02Z</time>
      </trkpt>
      <trkpt lat="44.23789" lon="6.34842">
        <ele>1142.3</ele>
        <time>2018-08-09T11:43:03Z</time>
      </trkpt>
      <trkpt lat="44.23791" lon="6.34848">
        <ele>1141.8</ele>
        <time>2018-08-09T11:43:04Z</time>
      </trkpt>
      <trkpt lat="44.23794" lon="6.34851">
        <ele>1141.2</ele>
        <time>2018-08-09T11:43:05Z</time>
      </trkpt>
      <trkpt lat="44.23798" lon="6.34854">
        <ele>1140.5</ele>
        <time>2018-08-09T11:43:06Z</time>
      </trkpt>
      <trkpt lat="44.23803" lon="6.34857">
        <ele>1140.3</ele>
        <time>2018-08-09T11:43:07Z</time>
      </trkpt>
      <trkpt lat="44.23807" lon="6.3486">
        <ele>1140.1</ele>
        <time>2018-08-09T11:43:08Z</time>
      </trkpt>
      <trkpt lat="44.2381" lon="6.34864">
        <ele>1139.8</ele>
        <time>2018-08-09T11:43:09Z</time>
      </trkpt>
      <trkpt lat="44.23812" lon="6.34868">
        <ele>1139.5</ele>
        <time>2018-08-09T11:43:10Z</time>
      </trkpt>
      <trkpt lat="44.23813" lon="6.34871">
        <ele>1139.4</ele>
        <time>2018-08-09T11:43:11Z</time>
      </trkpt>
      <trkpt lat="44.23814" lon="6.34875">
        <ele>1139.2</ele>
        <time>2018-08-09T11:43:12Z</time>
      </trkpt>
      <trkpt lat="44.23816" lon="6.3488">
        <ele>1138.8</ele>
        <time>2018-08-09T11:43:13Z</time>
      </trkpt>
      <trkpt lat="44.23816" lon="6.34885">
        <ele>1138.3</ele>
        <time>2018-08-09T11:43:14Z</time>
      </trkpt>
      <trkpt lat="44.23816" lon="6.34892">
        <ele>1137.5</ele>
        <time>2018-08-09T11:43:15Z</time>
      </trkpt>
      <trkpt lat="44.23815" lon="6.34899">
        <ele>1137</ele>
        <time>2018-08-09T11:43:16Z</time>
      </trkpt>
      <trkpt lat="44.23815" lon="6.34907">
        <ele>1136.3</ele>
        <time>2018-08-09T11:43:17Z</time>
      </trkpt>
      <trkpt lat="44.23815" lon="6.34916">
        <ele>1135.1</ele>
        <time>2018-08-09T11:43:18Z</time>
      </trkpt>
      <trkpt lat="44.23815" lon="6.34923">
        <ele>1134.6</ele>
        <time>2018-08-09T11:43:19Z</time>
      </trkpt>
      <trkpt lat="44.23815" lon="6.34928">
        <ele>1134</ele>
        <time>2018-08-09T11:43:20Z</time>
      </trkpt>
      <trkpt lat="44.23816" lon="6.34933">
        <ele>1133.3</ele>
        <time>2018-08-09T11:43:21Z</time>
      </trkpt>
      <trkpt lat="44.23818" lon="6.34939">
        <ele>1132.4</ele>
        <time>2018-08-09T11:43:22Z</time>
      </trkpt>
      <trkpt lat="44.23821" lon="6.34945">
        <ele>1132</ele>
        <time>2018-08-09T11:43:23Z</time>
      </trkpt>
      <trkpt lat="44.23823" lon="6.34951">
        <ele>1131.8</ele>
        <time>2018-08-09T11:43:24Z</time>
      </trkpt>
      <trkpt lat="44.23824" lon="6.34958">
        <ele>1131.4</ele>
        <time>2018-08-09T11:43:25Z</time>
      </trkpt>
      <trkpt lat="44.23825" lon="6.34965">
        <ele>1130.7</ele>
        <time>2018-08-09T11:43:26Z</time>
      </trkpt>
      <trkpt lat="44.23827" lon="6.34974">
        <ele>1129.6</ele>
        <time>2018-08-09T11:43:27Z</time>
      </trkpt>
      <trkpt lat="44.23829" lon="6.34983">
        <ele>1129</ele>
        <time>2018-08-09T11:43:28Z</time>
      </trkpt>
      <trkpt lat="44.2383" lon="6.34991">
        <ele>1128.3</ele>
        <time>2018-08-09T11:43:29Z</time>
      </trkpt>
      <trkpt lat="44.23831" lon="6.34998">
        <ele>1127.6</ele>
        <time>2018-08-09T11:43:30Z</time>
      </trkpt>
      <trkpt lat="44.23832" lon="6.35004">
        <ele>1127.1</ele>
        <time>2018-08-09T11:43:31Z</time>
      </trkpt>
      <trkpt lat="44.23832" lon="6.35008">
        <ele>1126.9</ele>
        <time>2018-08-09T11:43:32Z</time>
      </trkpt>
      <trkpt lat="44.23832" lon="6.35012">
        <ele>1126.8</ele>
        <time>2018-08-09T11:43:33Z</time>
      </trkpt>
      <trkpt lat="44.23831" lon="6.35018">
        <ele>1126.5</ele>
        <time>2018-08-09T11:43:35Z</time>
      </trkpt>
      <trkpt lat="44.23831" lon="6.35023">
        <ele>1126.3</ele>
        <time>2018-08-09T11:43:37Z</time>
      </trkpt>
      <trkpt lat="44.23829" lon="6.35029">
        <ele>1126</ele>
        <time>2018-08-09T11:43:57Z</time>
      </trkpt>
      <trkpt lat="44.23828" lon="6.35033">
        <ele>1125.8</ele>
        <time>2018-08-09T11:43:58Z</time>
      </trkpt>
      <trkpt lat="44.23827" lon="6.35037">
        <ele>1125.3</ele>
        <time>2018-08-09T11:43:59Z</time>
      </trkpt>
      <trkpt lat="44.23826" lon="6.35041">
        <ele>1124.8</ele>
        <time>2018-08-09T11:44:00Z</time>
      </trkpt>
      <trkpt lat="44.23825" lon="6.35046">
        <ele>1124.3</ele>
        <time>2018-08-09T11:44:01Z</time>
      </trkpt>
      <trkpt lat="44.23824" lon="6.35051">
        <ele>1124</ele>
        <time>2018-08-09T11:44:02Z</time>
      </trkpt>
      <trkpt lat="44.23823" lon="6.35056">
        <ele>1123.7</ele>
        <time>2018-08-09T11:44:03Z</time>
      </trkpt>
      <trkpt lat="44.23821" lon="6.35062">
        <ele>1123.4</ele>
        <time>2018-08-09T11:44:04Z</time>
      </trkpt>
      <trkpt lat="44.2382" lon="6.35067">
        <ele>1122.9</ele>
        <time>2018-08-09T11:44:05Z</time>
      </trkpt>
      <trkpt lat="44.23819" lon="6.35073">
        <ele>1122.2</ele>
        <time>2018-08-09T11:44:06Z</time>
      </trkpt>
      <trkpt lat="44.23817" lon="6.35078">
        <ele>1121.6</ele>
        <time>2018-08-09T11:44:07Z</time>
      </trkpt>
      <trkpt lat="44.23816" lon="6.35083">
        <ele>1121</ele>
        <time>2018-08-09T11:44:08Z</time>
      </trkpt>
      <trkpt lat="44.23814" lon="6.35092">
        <ele>1120.5</ele>
        <time>2018-08-09T11:44:09Z</time>
      </trkpt>
      <trkpt lat="44.23813" lon="6.35099">
        <ele>1119.8</ele>
        <time>2018-08-09T11:44:10Z</time>
      </trkpt>
      <trkpt lat="44.23812" lon="6.35106">
        <ele>1118.9</ele>
        <time>2018-08-09T11:44:11Z</time>
      </trkpt>
      <trkpt lat="44.23811" lon="6.35113">
        <ele>1118.3</ele>
        <time>2018-08-09T11:44:12Z</time>
      </trkpt>
      <trkpt lat="44.23809" lon="6.3512">
        <ele>1117.3</ele>
        <time>2018-08-09T11:44:13Z</time>
      </trkpt>
      <trkpt lat="44.23808" lon="6.35129">
        <ele>1116.3</ele>
        <time>2018-08-09T11:44:14Z</time>
      </trkpt>
      <trkpt lat="44.23808" lon="6.35137">
        <ele>1115.7</ele>
        <time>2018-08-09T11:44:15Z</time>
      </trkpt>
      <trkpt lat="44.23807" lon="6.35144">
        <ele>1115</ele>
        <time>2018-08-09T11:44:16Z</time>
      </trkpt>
      <trkpt lat="44.23807" lon="6.35152">
        <ele>1114.1</ele>
        <time>2018-08-09T11:44:17Z</time>
      </trkpt>
      <trkpt lat="44.23806" lon="6.35161">
        <ele>1113.1</ele>
        <time>2018-08-09T11:44:18Z</time>
      </trkpt>
      <trkpt lat="44.23805" lon="6.35171">
        <ele>1112</ele>
        <time>2018-08-09T11:44:19Z</time>
      </trkpt>
      <trkpt lat="44.23804" lon="6.3518">
        <ele>1111.1</ele>
        <time>2018-08-09T11:44:20Z</time>
      </trkpt>
      <trkpt lat="44.23803" lon="6.35188">
        <ele>1110.6</ele>
        <time>2018-08-09T11:44:21Z</time>
      </trkpt>
      <trkpt lat="44.23802" lon="6.35194">
        <ele>1109.8</ele>
        <time>2018-08-09T11:44:22Z</time>
      </trkpt>
      <trkpt lat="44.23802" lon="6.35204">
        <ele>1108.4</ele>
        <time>2018-08-09T11:44:23Z</time>
      </trkpt>
      <trkpt lat="44.23801" lon="6.35212">
        <ele>1107.8</ele>
        <time>2018-08-09T11:44:24Z</time>
      </trkpt>
      <trkpt lat="44.23802" lon="6.35221">
        <ele>1106.9</ele>
        <time>2018-08-09T11:44:25Z</time>
      </trkpt>
      <trkpt lat="44.23802" lon="6.35228">
        <ele>1106</ele>
        <time>2018-08-09T11:44:26Z</time>
      </trkpt>
      <trkpt lat="44.238" lon="6.35235">
        <ele>1105.1</ele>
        <time>2018-08-09T11:44:27Z</time>
      </trkpt>
      <trkpt lat="44.238" lon="6.35242">
        <ele>1104.4</ele>
        <time>2018-08-09T11:44:28Z</time>
      </trkpt>
      <trkpt lat="44.238" lon="6.35252">
        <ele>1103.3</ele>
        <time>2018-08-09T11:44:29Z</time>
      </trkpt>
      <trkpt lat="44.238" lon="6.35261">
        <ele>1102.7</ele>
        <time>2018-08-09T11:44:30Z</time>
      </trkpt>
      <trkpt lat="44.238" lon="6.35271">
        <ele>1101.6</ele>
        <time>2018-08-09T11:44:31Z</time>
      </trkpt>
      <trkpt lat="44.23798" lon="6.3528">
        <ele>1100.3</ele>
        <time>2018-08-09T11:44:32Z</time>
      </trkpt>
      <trkpt lat="44.23798" lon="6.35291">
        <ele>1099.6</ele>
        <time>2018-08-09T11:44:33Z</time>
      </trkpt>
      <trkpt lat="44.23799" lon="6.35298">
        <ele>1098.7</ele>
        <time>2018-08-09T11:44:34Z</time>
      </trkpt>
      <trkpt lat="44.23799" lon="6.35306">
        <ele>1097.7</ele>
        <time>2018-08-09T11:44:35Z</time>
      </trkpt>
      <trkpt lat="44.23802" lon="6.35315">
        <ele>1096.9</ele>
        <time>2018-08-09T11:44:36Z</time>
      </trkpt>
      <trkpt lat="44.23804" lon="6.35322">
        <ele>1095.8</ele>
        <time>2018-08-09T11:44:37Z</time>
      </trkpt>
      <trkpt lat="44.23806" lon="6.3533">
        <ele>1095</ele>
        <time>2018-08-09T11:44:38Z</time>
      </trkpt>
      <trkpt lat="44.23808" lon="6.3534">
        <ele>1094.4</ele>
        <time>2018-08-09T11:44:39Z</time>
      </trkpt>
      <trkpt lat="44.2381" lon="6.3535">
        <ele>1093.3</ele>
        <time>2018-08-09T11:44:40Z</time>
      </trkpt>
      <trkpt lat="44.23811" lon="6.35361">
        <ele>1092.1</ele>
        <time>2018-08-09T11:44:41Z</time>
      </trkpt>
      <trkpt lat="44.23813" lon="6.35369">
        <ele>1091.1</ele>
        <time>2018-08-09T11:44:42Z</time>
      </trkpt>
      <trkpt lat="44.23815" lon="6.35377">
        <ele>1090</ele>
        <time>2018-08-09T11:44:43Z</time>
      </trkpt>
      <trkpt lat="44.23816" lon="6.35386">
        <ele>1089.3</ele>
        <time>2018-08-09T11:44:44Z</time>
      </trkpt>
      <trkpt lat="44.23818" lon="6.35395">
        <ele>1088.7</ele>
        <time>2018-08-09T11:44:45Z</time>
      </trkpt>
      <trkpt lat="44.23819" lon="6.35401">
        <ele>1087.8</ele>
        <time>2018-08-09T11:44:46Z</time>
      </trkpt>
      <trkpt lat="44.23819" lon="6.35408">
        <ele>1087</ele>
        <time>2018-08-09T11:44:47Z</time>
      </trkpt>
      <trkpt lat="44.2382" lon="6.35415">
        <ele>1086.4</ele>
        <time>2018-08-09T11:44:48Z</time>
      </trkpt>
      <trkpt lat="44.23822" lon="6.35421">
        <ele>1085.6</ele>
        <time>2018-08-09T11:44:49Z</time>
      </trkpt>
      <trkpt lat="44.23824" lon="6.35427">
        <ele>1084.7</ele>
        <time>2018-08-09T11:44:50Z</time>
      </trkpt>
      <trkpt lat="44.23827" lon="6.35434">
        <ele>1084.3</ele>
        <time>2018-08-09T11:44:51Z</time>
      </trkpt>
      <trkpt lat="44.23832" lon="6.3544">
        <ele>1083.8</ele>
        <time>2018-08-09T11:44:52Z</time>
      </trkpt>
      <trkpt lat="44.23837" lon="6.35445">
        <ele>1083</ele>
        <time>2018-08-09T11:44:53Z</time>
      </trkpt>
      <trkpt lat="44.23841" lon="6.3545">
        <ele>1082.4</ele>
        <time>2018-08-09T11:44:54Z</time>
      </trkpt>
      <trkpt lat="44.23846" lon="6.35455">
        <ele>1082.1</ele>
        <time>2018-08-09T11:44:55Z</time>
      </trkpt>
      <trkpt lat="44.23849" lon="6.3546">
        <ele>1081.9</ele>
        <time>2018-08-09T11:44:56Z</time>
      </trkpt>
      <trkpt lat="44.23854" lon="6.35465">
        <ele>1081.7</ele>
        <time>2018-08-09T11:44:57Z</time>
      </trkpt>
      <trkpt lat="44.23857" lon="6.35469">
        <ele>1081.5</ele>
        <time>2018-08-09T11:44:58Z</time>
      </trkpt>
      <trkpt lat="44.2386" lon="6.35474">
        <ele>1081.4</ele>
        <time>2018-08-09T11:44:59Z</time>
      </trkpt>
      <trkpt lat="44.23863" lon="6.3548">
        <ele>1081.3</ele>
        <time>2018-08-09T11:45:00Z</time>
      </trkpt>
      <trkpt lat="44.23864" lon="6.35484">
        <ele>1081.2</ele>
        <time>2018-08-09T11:45:01Z</time>
      </trkpt>
      <trkpt lat="44.23866" lon="6.35487">
        <ele>1081.2</ele>
        <time>2018-08-09T11:45:02Z</time>
      </trkpt>
      <trkpt lat="44.23868" lon="6.35485">
        <ele>1081.1</ele>
        <time>2018-08-09T11:45:14Z</time>
      </trkpt>
      <trkpt lat="44.23866" lon="6.3549">
        <ele>1081</ele>
        <time>2018-08-09T11:45:49Z</time>
      </trkpt>
      <trkpt lat="44.23869" lon="6.35497">
        <ele>1081.6</ele>
        <time>2018-08-09T11:45:51Z</time>
      </trkpt>
      <trkpt lat="44.23872" lon="6.35503">
        <ele>1082</ele>
        <time>2018-08-09T11:45:53Z</time>
      </trkpt>
      <trkpt lat="44.23873" lon="6.35509">
        <ele>1082.5</ele>
        <time>2018-08-09T11:45:55Z</time>
      </trkpt>
      <trkpt lat="44.23875" lon="6.35513">
        <ele>1082.8</ele>
        <time>2018-08-09T11:45:56Z</time>
      </trkpt>
      <trkpt lat="44.23876" lon="6.35516">
        <ele>1083.1</ele>
        <time>2018-08-09T11:45:57Z</time>
      </trkpt>
      <trkpt lat="44.23876" lon="6.35521">
        <ele>1083.5</ele>
        <time>2018-08-09T11:45:58Z</time>
      </trkpt>
      <trkpt lat="44.23878" lon="6.35525">
        <ele>1083.8</ele>
        <time>2018-08-09T11:45:59Z</time>
      </trkpt>
      <trkpt lat="44.23879" lon="6.35529">
        <ele>1084.2</ele>
        <time>2018-08-09T11:46:00Z</time>
      </trkpt>
      <trkpt lat="44.23882" lon="6.35535">
        <ele>1084.9</ele>
        <time>2018-08-09T11:46:02Z</time>
      </trkpt>
      <trkpt lat="44.23885" lon="6.3554">
        <ele>1085.5</ele>
        <time>2018-08-09T11:46:04Z</time>
      </trkpt>
      <trkpt lat="44.23888" lon="6.35544">
        <ele>1086.1</ele>
        <time>2018-08-09T11:46:06Z</time>
      </trkpt>
      <trkpt lat="44.23892" lon="6.35547">
        <ele>1086.9</ele>
        <time>2018-08-09T11:46:08Z</time>
      </trkpt>
      <trkpt lat="44.23896" lon="6.3555">
        <ele>1087.6</ele>
        <time>2018-08-09T11:46:10Z</time>
      </trkpt>
      <trkpt lat="44.239" lon="6.35553">
        <ele>1088.4</ele>
        <time>2018-08-09T11:46:12Z</time>
      </trkpt>
      <trkpt lat="44.23904" lon="6.35555">
        <ele>1089.2</ele>
        <time>2018-08-09T11:46:14Z</time>
      </trkpt>
      <trkpt lat="44.23909" lon="6.35555">
        <ele>1090.1</ele>
        <time>2018-08-09T11:46:16Z</time>
      </trkpt>
      <trkpt lat="44.23912" lon="6.35555">
        <ele>1090.6</ele>
        <time>2018-08-09T11:46:18Z</time>
      </trkpt>
      <trkpt lat="44.23916" lon="6.35554">
        <ele>1091.2</ele>
        <time>2018-08-09T11:46:20Z</time>
      </trkpt>
      <trkpt lat="44.23919" lon="6.35551">
        <ele>1091.9</ele>
        <time>2018-08-09T11:46:22Z</time>
      </trkpt>
      <trkpt lat="44.23923" lon="6.35548">
        <ele>1092.5</ele>
        <time>2018-08-09T11:46:24Z</time>
      </trkpt>
      <trkpt lat="44.23926" lon="6.35546">
        <ele>1093</ele>
        <time>2018-08-09T11:46:26Z</time>
      </trkpt>
      <trkpt lat="44.23929" lon="6.35544">
        <ele>1093.4</ele>
        <time>2018-08-09T11:46:28Z</time>
      </trkpt>
      <trkpt lat="44.23932" lon="6.35543">
        <ele>1093.8</ele>
        <time>2018-08-09T11:46:30Z</time>
      </trkpt>
      <trkpt lat="44.23934" lon="6.35541">
        <ele>1094.1</ele>
        <time>2018-08-09T11:46:32Z</time>
      </trkpt>
      <trkpt lat="44.23938" lon="6.35538">
        <ele>1094.6</ele>
        <time>2018-08-09T11:46:35Z</time>
      </trkpt>
      <trkpt lat="44.23941" lon="6.35535">
        <ele>1095</ele>
        <time>2018-08-09T11:46:37Z</time>
      </trkpt>
      <trkpt lat="44.23944" lon="6.35532">
        <ele>1095.4</ele>
        <time>2018-08-09T11:46:39Z</time>
      </trkpt>
      <trkpt lat="44.23947" lon="6.35529">
        <ele>1095.8</ele>
        <time>2018-08-09T11:46:42Z</time>
      </trkpt>
      <trkpt lat="44.2395" lon="6.35526">
        <ele>1096.2</ele>
        <time>2018-08-09T11:46:44Z</time>
      </trkpt>
      <trkpt lat="44.23953" lon="6.35523">
        <ele>1096.6</ele>
        <time>2018-08-09T11:46:47Z</time>
      </trkpt>
      <trkpt lat="44.23956" lon="6.35521">
        <ele>1096.9</ele>
        <time>2018-08-09T11:46:49Z</time>
      </trkpt>
      <trkpt lat="44.23958" lon="6.35519">
        <ele>1097.2</ele>
        <time>2018-08-09T11:46:51Z</time>
      </trkpt>
      <trkpt lat="44.2396" lon="6.35516">
        <ele>1097.5</ele>
        <time>2018-08-09T11:46:53Z</time>
      </trkpt>
      <trkpt lat="44.23963" lon="6.35514">
        <ele>1097.8</ele>
        <time>2018-08-09T11:46:55Z</time>
      </trkpt>
      <trkpt lat="44.23966" lon="6.35511">
        <ele>1098.1</ele>
        <time>2018-08-09T11:46:57Z</time>
      </trkpt>
      <trkpt lat="44.23968" lon="6.35508">
        <ele>1098.3</ele>
        <time>2018-08-09T11:46:59Z</time>
      </trkpt>
      <trkpt lat="44.2397" lon="6.35505">
        <ele>1098.6</ele>
        <time>2018-08-09T11:47:01Z</time>
      </trkpt>
      <trkpt lat="44.23973" lon="6.35503">
        <ele>1098.8</ele>
        <time>2018-08-09T11:47:03Z</time>
      </trkpt>
      <trkpt lat="44.23975" lon="6.35499">
        <ele>1099.1</ele>
        <time>2018-08-09T11:47:06Z</time>
      </trkpt>
      <trkpt lat="44.23978" lon="6.35495">
        <ele>1099.4</ele>
        <time>2018-08-09T11:47:09Z</time>
      </trkpt>
      <trkpt lat="44.23982" lon="6.35491">
        <ele>1099.8</ele>
        <time>2018-08-09T11:47:12Z</time>
      </trkpt>
      <trkpt lat="44.23983" lon="6.35488">
        <ele>1100</ele>
        <time>2018-08-09T11:47:14Z</time>
      </trkpt>
      <trkpt lat="44.23986" lon="6.35484">
        <ele>1100.2</ele>
        <time>2018-08-09T11:47:16Z</time>
      </trkpt>
      <trkpt lat="44.23989" lon="6.35482">
        <ele>1100.5</ele>
        <time>2018-08-09T11:47:18Z</time>
      </trkpt>
      <trkpt lat="44.23991" lon="6.35478">
        <ele>1100.7</ele>
        <time>2018-08-09T11:47:20Z</time>
      </trkpt>
      <trkpt lat="44.23993" lon="6.35475">
        <ele>1100.9</ele>
        <time>2018-08-09T11:47:22Z</time>
      </trkpt>
      <trkpt lat="44.23996" lon="6.3547">
        <ele>1101.2</ele>
        <time>2018-08-09T11:47:24Z</time>
      </trkpt>
      <trkpt lat="44.23998" lon="6.35467">
        <ele>1101.5</ele>
        <time>2018-08-09T11:47:26Z</time>
      </trkpt>
      <trkpt lat="44.24001" lon="6.35462">
        <ele>1101.8</ele>
        <time>2018-08-09T11:47:28Z</time>
      </trkpt>
      <trkpt lat="44.24003" lon="6.35458">
        <ele>1102.1</ele>
        <time>2018-08-09T11:47:30Z</time>
      </trkpt>
      <trkpt lat="44.24005" lon="6.35453">
        <ele>1102.4</ele>
        <time>2018-08-09T11:47:32Z</time>
      </trkpt>
      <trkpt lat="44.24009" lon="6.35448">
        <ele>1102.8</ele>
        <time>2018-08-09T11:47:34Z</time>
      </trkpt>
      <trkpt lat="44.24012" lon="6.35445">
        <ele>1103.1</ele>
        <time>2018-08-09T11:47:36Z</time>
      </trkpt>
      <trkpt lat="44.24015" lon="6.35443">
        <ele>1103.4</ele>
        <time>2018-08-09T11:47:38Z</time>
      </trkpt>
      <trkpt lat="44.24019" lon="6.35439">
        <ele>1103.7</ele>
        <time>2018-08-09T11:47:40Z</time>
      </trkpt>
      <trkpt lat="44.24023" lon="6.35438">
        <ele>1104</ele>
        <time>2018-08-09T11:47:42Z</time>
      </trkpt>
      <trkpt lat="44.24026" lon="6.35436">
        <ele>1104.3</ele>
        <time>2018-08-09T11:47:44Z</time>
      </trkpt>
      <trkpt lat="44.2403" lon="6.35436">
        <ele>1104.6</ele>
        <time>2018-08-09T11:47:46Z</time>
      </trkpt>
      <trkpt lat="44.24034" lon="6.35436">
        <ele>1105</ele>
        <time>2018-08-09T11:47:48Z</time>
      </trkpt>
      <trkpt lat="44.24038" lon="6.35437">
        <ele>1105.3</ele>
        <time>2018-08-09T11:47:50Z</time>
      </trkpt>
      <trkpt lat="44.24042" lon="6.35436">
        <ele>1105.6</ele>
        <time>2018-08-09T11:47:52Z</time>
      </trkpt>
      <trkpt lat="44.24046" lon="6.35436">
        <ele>1105.9</ele>
        <time>2018-08-09T11:47:54Z</time>
      </trkpt>
      <trkpt lat="44.2405" lon="6.35436">
        <ele>1106.2</ele>
        <time>2018-08-09T11:47:56Z</time>
      </trkpt>
      <trkpt lat="44.24053" lon="6.35437">
        <ele>1106.5</ele>
        <time>2018-08-09T11:47:58Z</time>
      </trkpt>
      <trkpt lat="44.24057" lon="6.35437">
        <ele>1106.9</ele>
        <time>2018-08-09T11:48:00Z</time>
      </trkpt>
      <trkpt lat="44.24059" lon="6.35437">
        <ele>1107.1</ele>
        <time>2018-08-09T11:48:02Z</time>
      </trkpt>
      <trkpt lat="44.24063" lon="6.35436">
        <ele>1107.5</ele>
        <time>2018-08-09T11:48:04Z</time>
      </trkpt>
      <trkpt lat="44.24067" lon="6.35436">
        <ele>1108</ele>
        <time>2018-08-09T11:48:06Z</time>
      </trkpt>
      <trkpt lat="44.24072" lon="6.35435">
        <ele>1108.5</ele>
        <time>2018-08-09T11:48:08Z</time>
      </trkpt>
      <trkpt lat="44.24076" lon="6.35435">
        <ele>1109.1</ele>
        <time>2018-08-09T11:48:10Z</time>
      </trkpt>
      <trkpt lat="44.2408" lon="6.35435">
        <ele>1109.7</ele>
        <time>2018-08-09T11:48:12Z</time>
      </trkpt>
      <trkpt lat="44.24084" lon="6.35433">
        <ele>1110.4</ele>
        <time>2018-08-09T11:48:15Z</time>
      </trkpt>
      <trkpt lat="44.24088" lon="6.35431">
        <ele>1111.2</ele>
        <time>2018-08-09T11:48:18Z</time>
      </trkpt>
      <trkpt lat="44.24091" lon="6.35428">
        <ele>1111.7</ele>
        <time>2018-08-09T11:48:24Z</time>
      </trkpt>
      <trkpt lat="44.2409" lon="6.35425">
        <ele>1112.1</ele>
        <time>2018-08-09T11:48:26Z</time>
      </trkpt>
      <trkpt lat="44.24088" lon="6.35421">
        <ele>1112.5</ele>
        <time>2018-08-09T11:48:28Z</time>
      </trkpt>
      <trkpt lat="44.24084" lon="6.35419">
        <ele>1113</ele>
        <time>2018-08-09T11:48:30Z</time>
      </trkpt>
      <trkpt lat="44.24082" lon="6.35415">
        <ele>1113.4</ele>
        <time>2018-08-09T11:48:32Z</time>
      </trkpt>
      <trkpt lat="44.2408" lon="6.35412">
        <ele>1113.6</ele>
        <time>2018-08-09T11:48:52Z</time>
      </trkpt>
      <trkpt lat="44.24078" lon="6.3541">
        <ele>1113.9</ele>
        <time>2018-08-09T11:48:54Z</time>
      </trkpt>
      <trkpt lat="44.24074" lon="6.35407">
        <ele>1114.2</ele>
        <time>2018-08-09T11:48:56Z</time>
      </trkpt>
      <trkpt lat="44.24072" lon="6.35404">
        <ele>1114.5</ele>
        <time>2018-08-09T11:48:58Z</time>
      </trkpt>
      <trkpt lat="44.2407" lon="6.354">
        <ele>1114.7</ele>
        <time>2018-08-09T11:49:00Z</time>
      </trkpt>
      <trkpt lat="44.24068" lon="6.35395">
        <ele>1115.1</ele>
        <time>2018-08-09T11:49:02Z</time>
      </trkpt>
      <trkpt lat="44.24064" lon="6.35403">
        <ele>1115.5</ele>
        <time>2018-08-09T11:51:49Z</time>
      </trkpt>
      <trkpt lat="44.24067" lon="6.354">
        <ele>1115.8</ele>
        <time>2018-08-09T11:59:02Z</time>
      </trkpt>
      <trkpt lat="44.24069" lon="6.35397">
        <ele>1116</ele>
        <time>2018-08-09T12:12:23Z</time>
      </trkpt>
      <trkpt lat="44.24072" lon="6.35394">
        <ele>1116.2</ele>
        <time>2018-08-09T12:12:24Z</time>
      </trkpt>
      <trkpt lat="44.24072" lon="6.35393">
        <ele>1116.3</ele>
        <time>2018-08-09T12:12:26Z</time>
      </trkpt>
      <trkpt lat="44.24074" lon="6.35389">
        <ele>1116.5</ele>
        <time>2018-08-09T12:12:27Z</time>
      </trkpt>
      <trkpt lat="44.24072" lon="6.35396">
        <ele>1117</ele>
        <time>2018-08-09T12:12:30Z</time>
      </trkpt>
      <trkpt lat="44.24069" lon="6.35399">
        <ele>1117.2</ele>
        <time>2018-08-09T12:12:37Z</time>
      </trkpt>
      <trkpt lat="44.24064" lon="6.35408">
        <ele>1118</ele>
        <time>2018-08-09T12:13:02Z</time>
      </trkpt>
      <trkpt lat="44.24063" lon="6.35415">
        <ele>1118.5</ele>
        <time>2018-08-09T12:13:04Z</time>
      </trkpt>
      <trkpt lat="44.24062" lon="6.35414">
        <ele>1118.6</ele>
        <time>2018-08-09T12:13:10Z</time>
      </trkpt>
      <trkpt lat="44.24061" lon="6.3541">
        <ele>1118.9</ele>
        <time>2018-08-09T12:13:14Z</time>
      </trkpt>
      <trkpt lat="44.24061" lon="6.35406">
        <ele>1119.2</ele>
        <time>2018-08-09T12:13:25Z</time>
      </trkpt>
      <trkpt lat="44.2406" lon="6.35402">
        <ele>1119.6</ele>
        <time>2018-08-09T12:13:26Z</time>
      </trkpt>
      <trkpt lat="44.24059" lon="6.35399">
        <ele>1119.9</ele>
        <time>2018-08-09T12:13:28Z</time>
      </trkpt>
      <trkpt lat="44.24056" lon="6.35396">
        <ele>1120.3</ele>
        <time>2018-08-09T12:13:30Z</time>
      </trkpt>
      <trkpt lat="44.24053" lon="6.35392">
        <ele>1120.8</ele>
        <time>2018-08-09T12:13:32Z</time>
      </trkpt>
      <trkpt lat="44.2405" lon="6.35387">
        <ele>1121.4</ele>
        <time>2018-08-09T12:13:34Z</time>
      </trkpt>
      <trkpt lat="44.2405" lon="6.35381">
        <ele>1121.9</ele>
        <time>2018-08-09T12:13:36Z</time>
      </trkpt>
      <trkpt lat="44.2405" lon="6.35374">
        <ele>1122.8</ele>
        <time>2018-08-09T12:13:38Z</time>
      </trkpt>
      <trkpt lat="44.24049" lon="6.35368">
        <ele>1123.8</ele>
        <time>2018-08-09T12:13:40Z</time>
      </trkpt>
      <trkpt lat="44.24048" lon="6.35363">
        <ele>1124.5</ele>
        <time>2018-08-09T12:13:42Z</time>
      </trkpt>
      <trkpt lat="44.24046" lon="6.3536">
        <ele>1125.2</ele>
        <time>2018-08-09T12:13:44Z</time>
      </trkpt>
      <trkpt lat="44.24042" lon="6.35358">
        <ele>1125.8</ele>
        <time>2018-08-09T12:13:46Z</time>
      </trkpt>
      <trkpt lat="44.24038" lon="6.35357">
        <ele>1126.3</ele>
        <time>2018-08-09T12:13:48Z</time>
      </trkpt>
      <trkpt lat="44.24035" lon="6.35358">
        <ele>1126.8</ele>
        <time>2018-08-09T12:13:50Z</time>
      </trkpt>
      <trkpt lat="44.24032" lon="6.35359">
        <ele>1127.2</ele>
        <time>2018-08-09T12:13:52Z</time>
      </trkpt>
      <trkpt lat="44.24028" lon="6.35359">
        <ele>1127.7</ele>
        <time>2018-08-09T12:13:54Z</time>
      </trkpt>
      <trkpt lat="44.24024" lon="6.35359">
        <ele>1128.2</ele>
        <time>2018-08-09T12:13:56Z</time>
      </trkpt>
      <trkpt lat="44.2402" lon="6.35359">
        <ele>1128.7</ele>
        <time>2018-08-09T12:13:58Z</time>
      </trkpt>
      <trkpt lat="44.24017" lon="6.35359">
        <ele>1129</ele>
        <time>2018-08-09T12:14:00Z</time>
      </trkpt>
      <trkpt lat="44.24014" lon="6.35357">
        <ele>1129.5</ele>
        <time>2018-08-09T12:14:03Z</time>
      </trkpt>
      <trkpt lat="44.24011" lon="6.35352">
        <ele>1130</ele>
        <time>2018-08-09T12:14:06Z</time>
      </trkpt>
      <trkpt lat="44.2401" lon="6.35347">
        <ele>1130.5</ele>
        <time>2018-08-09T12:14:08Z</time>
      </trkpt>
      <trkpt lat="44.24011" lon="6.35342">
        <ele>1130.8</ele>
        <time>2018-08-09T12:14:10Z</time>
      </trkpt>
      <trkpt lat="44.24013" lon="6.35338">
        <ele>1131.2</ele>
        <time>2018-08-09T12:14:13Z</time>
      </trkpt>
      <trkpt lat="44.24015" lon="6.35335">
        <ele>1131.5</ele>
        <time>2018-08-09T12:14:15Z</time>
      </trkpt>
      <trkpt lat="44.24017" lon="6.35331">
        <ele>1131.8</ele>
        <time>2018-08-09T12:14:17Z</time>
      </trkpt>
      <trkpt lat="44.2402" lon="6.35329">
        <ele>1132.1</ele>
        <time>2018-08-09T12:14:20Z</time>
      </trkpt>
      <trkpt lat="44.24024" lon="6.35328">
        <ele>1132.5</ele>
        <time>2018-08-09T12:14:22Z</time>
      </trkpt>
      <trkpt lat="44.24026" lon="6.35325">
        <ele>1132.8</ele>
        <time>2018-08-09T12:14:24Z</time>
      </trkpt>
      <trkpt lat="44.24029" lon="6.35323">
        <ele>1133</ele>
        <time>2018-08-09T12:14:26Z</time>
      </trkpt>
      <trkpt lat="44.24032" lon="6.35322">
        <ele>1133.3</ele>
        <time>2018-08-09T12:14:28Z</time>
      </trkpt>
      <trkpt lat="44.24036" lon="6.35321">
        <ele>1133.6</ele>
        <time>2018-08-09T12:14:30Z</time>
      </trkpt>
      <trkpt lat="44.2404" lon="6.35319">
        <ele>1133.9</ele>
        <time>2018-08-09T12:14:32Z</time>
      </trkpt>
      <trkpt lat="44.24042" lon="6.35317">
        <ele>1134.2</ele>
        <time>2018-08-09T12:14:34Z</time>
      </trkpt>
      <trkpt lat="44.24045" lon="6.35314">
        <ele>1134.4</ele>
        <time>2018-08-09T12:14:36Z</time>
      </trkpt>
      <trkpt lat="44.24048" lon="6.35312">
        <ele>1134.7</ele>
        <time>2018-08-09T12:14:38Z</time>
      </trkpt>
      <trkpt lat="44.24051" lon="6.35311">
        <ele>1134.9</ele>
        <time>2018-08-09T12:14:40Z</time>
      </trkpt>
      <trkpt lat="44.24055" lon="6.35308">
        <ele>1135.3</ele>
        <time>2018-08-09T12:14:43Z</time>
      </trkpt>
      <trkpt lat="44.24059" lon="6.35305">
        <ele>1135.7</ele>
        <time>2018-08-09T12:14:45Z</time>
      </trkpt>
      <trkpt lat="44.24063" lon="6.35303">
        <ele>1136.1</ele>
        <time>2018-08-09T12:14:48Z</time>
      </trkpt>
      <trkpt lat="44.24066" lon="6.35301">
        <ele>1136.4</ele>
        <time>2018-08-09T12:14:50Z</time>
      </trkpt>
      <trkpt lat="44.24071" lon="6.35299">
        <ele>1136.8</ele>
        <time>2018-08-09T12:14:52Z</time>
      </trkpt>
      <trkpt lat="44.24073" lon="6.35301">
        <ele>1137.1</ele>
        <time>2018-08-09T12:14:54Z</time>
      </trkpt>
      <trkpt lat="44.24077" lon="6.353">
        <ele>1137.5</ele>
        <time>2018-08-09T12:14:57Z</time>
      </trkpt>
      <trkpt lat="44.2408" lon="6.35298">
        <ele>1137.8</ele>
        <time>2018-08-09T12:15:00Z</time>
      </trkpt>
      <trkpt lat="44.24082" lon="6.35296">
        <ele>1138.2</ele>
        <time>2018-08-09T12:15:02Z</time>
      </trkpt>
      <trkpt lat="44.24085" lon="6.35293">
        <ele>1138.7</ele>
        <time>2018-08-09T12:15:04Z</time>
      </trkpt>
      <trkpt lat="44.24087" lon="6.3529">
        <ele>1139</ele>
        <time>2018-08-09T12:15:05Z</time>
      </trkpt>
      <trkpt lat="44.2409" lon="6.35288">
        <ele>1139.4</ele>
        <time>2018-08-09T12:15:07Z</time>
      </trkpt>
      <trkpt lat="44.24093" lon="6.35286">
        <ele>1139.9</ele>
        <time>2018-08-09T12:15:09Z</time>
      </trkpt>
      <trkpt lat="44.24095" lon="6.35283">
        <ele>1140.3</ele>
        <time>2018-08-09T12:15:10Z</time>
      </trkpt>
      <trkpt lat="44.24099" lon="6.35282">
        <ele>1141</ele>
        <time>2018-08-09T12:15:12Z</time>
      </trkpt>
      <trkpt lat="44.24103" lon="6.35282">
        <ele>1141.6</ele>
        <time>2018-08-09T12:15:14Z</time>
      </trkpt>
      <trkpt lat="44.24108" lon="6.35284">
        <ele>1142.3</ele>
        <time>2018-08-09T12:15:17Z</time>
      </trkpt>
      <trkpt lat="44.24111" lon="6.35285">
        <ele>1142.7</ele>
        <time>2018-08-09T12:15:19Z</time>
      </trkpt>
      <trkpt lat="44.24114" lon="6.35286">
        <ele>1143.1</ele>
        <time>2018-08-09T12:15:22Z</time>
      </trkpt>
      <trkpt lat="44.24117" lon="6.35284">
        <ele>1143.5</ele>
        <time>2018-08-09T12:15:24Z</time>
      </trkpt>
      <trkpt lat="44.2412" lon="6.3528">
        <ele>1143.9</ele>
        <time>2018-08-09T12:15:26Z</time>
      </trkpt>
      <trkpt lat="44.24121" lon="6.35276">
        <ele>1144.2</ele>
        <time>2018-08-09T12:15:28Z</time>
      </trkpt>
      <trkpt lat="44.2412" lon="6.35272">
        <ele>1144.5</ele>
        <time>2018-08-09T12:15:30Z</time>
      </trkpt>
      <trkpt lat="44.24119" lon="6.35268">
        <ele>1144.7</ele>
        <time>2018-08-09T12:15:32Z</time>
      </trkpt>
      <trkpt lat="44.24117" lon="6.35264">
        <ele>1145</ele>
        <time>2018-08-09T12:15:34Z</time>
      </trkpt>
      <trkpt lat="44.24113" lon="6.3526">
        <ele>1145.3</ele>
        <time>2018-08-09T12:15:37Z</time>
      </trkpt>
      <trkpt lat="44.24111" lon="6.35257">
        <ele>1145.7</ele>
        <time>2018-08-09T12:15:39Z</time>
      </trkpt>
      <trkpt lat="44.24108" lon="6.35257">
        <ele>1146</ele>
        <time>2018-08-09T12:15:41Z</time>
      </trkpt>
      <trkpt lat="44.24104" lon="6.35257">
        <ele>1146.4</ele>
        <time>2018-08-09T12:15:45Z</time>
      </trkpt>
      <trkpt lat="44.24101" lon="6.35257">
        <ele>1146.8</ele>
        <time>2018-08-09T12:15:47Z</time>
      </trkpt>
      <trkpt lat="44.24097" lon="6.35257">
        <ele>1147.3</ele>
        <time>2018-08-09T12:15:49Z</time>
      </trkpt>
      <trkpt lat="44.24093" lon="6.35256">
        <ele>1147.8</ele>
        <time>2018-08-09T12:15:51Z</time>
      </trkpt>
      <trkpt lat="44.2409" lon="6.35255">
        <ele>1148.3</ele>
        <time>2018-08-09T12:15:53Z</time>
      </trkpt>
      <trkpt lat="44.24087" lon="6.35257">
        <ele>1148.7</ele>
        <time>2018-08-09T12:15:54Z</time>
      </trkpt>
      <trkpt lat="44.24082" lon="6.35257">
        <ele>1149.4</ele>
        <time>2018-08-09T12:15:57Z</time>
      </trkpt>
      <trkpt lat="44.24079" lon="6.35257">
        <ele>1149.9</ele>
        <time>2018-08-09T12:15:59Z</time>
      </trkpt>
      <trkpt lat="44.24075" lon="6.35255">
        <ele>1150.6</ele>
        <time>2018-08-09T12:16:02Z</time>
      </trkpt>
      <trkpt lat="44.24071" lon="6.35254">
        <ele>1151.2</ele>
        <time>2018-08-09T12:16:07Z</time>
      </trkpt>
      <trkpt lat="44.24067" lon="6.35253">
        <ele>1151.9</ele>
        <time>2018-08-09T12:16:09Z</time>
      </trkpt>
      <trkpt lat="44.24064" lon="6.35253">
        <ele>1152.6</ele>
        <time>2018-08-09T12:16:11Z</time>
      </trkpt>
      <trkpt lat="44.24059" lon="6.35254">
        <ele>1153.6</ele>
        <time>2018-08-09T12:16:13Z</time>
      </trkpt>
      <trkpt lat="44.24055" lon="6.35255">
        <ele>1154.7</ele>
        <time>2018-08-09T12:16:15Z</time>
      </trkpt>
      <trkpt lat="44.2405" lon="6.35255">
        <ele>1155.6</ele>
        <time>2018-08-09T12:16:17Z</time>
      </trkpt>
      <trkpt lat="44.24047" lon="6.35254">
        <ele>1156.2</ele>
        <time>2018-08-09T12:16:20Z</time>
      </trkpt>
      <trkpt lat="44.24045" lon="6.35249">
        <ele>1156.9</ele>
        <time>2018-08-09T12:16:24Z</time>
      </trkpt>
      <trkpt lat="44.24044" lon="6.35243">
        <ele>1157.6</ele>
        <time>2018-08-09T12:16:26Z</time>
      </trkpt>
      <trkpt lat="44.24045" lon="6.3524">
        <ele>1158</ele>
        <time>2018-08-09T12:16:29Z</time>
      </trkpt>
      <trkpt lat="44.24048" lon="6.35237">
        <ele>1158.5</ele>
        <time>2018-08-09T12:16:33Z</time>
      </trkpt>
      <trkpt lat="44.24051" lon="6.35235">
        <ele>1159</ele>
        <time>2018-08-09T12:16:35Z</time>
      </trkpt>
      <trkpt lat="44.24053" lon="6.35233">
        <ele>1159.4</ele>
        <time>2018-08-09T12:16:37Z</time>
      </trkpt>
      <trkpt lat="44.24057" lon="6.35229">
        <ele>1160</ele>
        <time>2018-08-09T12:16:42Z</time>
      </trkpt>
      <trkpt lat="44.24061" lon="6.35229">
        <ele>1160.4</ele>
        <time>2018-08-09T12:16:44Z</time>
      </trkpt>
      <trkpt lat="44.24063" lon="6.35226">
        <ele>1160.7</ele>
        <time>2018-08-09T12:16:46Z</time>
      </trkpt>
      <trkpt lat="44.24066" lon="6.35223">
        <ele>1161.1</ele>
        <time>2018-08-09T12:16:48Z</time>
      </trkpt>
      <trkpt lat="44.24069" lon="6.35222">
        <ele>1161.5</ele>
        <time>2018-08-09T12:16:50Z</time>
      </trkpt>
      <trkpt lat="44.24073" lon="6.3522">
        <ele>1161.9</ele>
        <time>2018-08-09T12:16:52Z</time>
      </trkpt>
      <trkpt lat="44.24077" lon="6.35218">
        <ele>1162.3</ele>
        <time>2018-08-09T12:16:54Z</time>
      </trkpt>
      <trkpt lat="44.2408" lon="6.35216">
        <ele>1162.6</ele>
        <time>2018-08-09T12:16:57Z</time>
      </trkpt>
      <trkpt lat="44.24083" lon="6.35215">
        <ele>1162.9</ele>
        <time>2018-08-09T12:17:00Z</time>
      </trkpt>
      <trkpt lat="44.24086" lon="6.35213">
        <ele>1163.2</ele>
        <time>2018-08-09T12:17:02Z</time>
      </trkpt>
      <trkpt lat="44.2409" lon="6.35213">
        <ele>1163.5</ele>
        <time>2018-08-09T12:17:04Z</time>
      </trkpt>
      <trkpt lat="44.24094" lon="6.35211">
        <ele>1163.9</ele>
        <time>2018-08-09T12:17:06Z</time>
      </trkpt>
      <trkpt lat="44.24097" lon="6.35209">
        <ele>1164.2</ele>
        <time>2018-08-09T12:17:08Z</time>
      </trkpt>
      <trkpt lat="44.241" lon="6.35207">
        <ele>1164.5</ele>
        <time>2018-08-09T12:17:10Z</time>
      </trkpt>
      <trkpt lat="44.24103" lon="6.35205">
        <ele>1164.7</ele>
        <time>2018-08-09T12:17:11Z</time>
      </trkpt>
      <trkpt lat="44.24106" lon="6.35205">
        <ele>1165</ele>
        <time>2018-08-09T12:17:13Z</time>
      </trkpt>
      <trkpt lat="44.2411" lon="6.35206">
        <ele>1165.3</ele>
        <time>2018-08-09T12:17:16Z</time>
      </trkpt>
      <trkpt lat="44.24113" lon="6.35204">
        <ele>1165.7</ele>
        <time>2018-08-09T12:17:18Z</time>
      </trkpt>
      <trkpt lat="44.24116" lon="6.35201">
        <ele>1165.9</ele>
        <time>2018-08-09T12:17:20Z</time>
      </trkpt>
      <trkpt lat="44.2412" lon="6.35198">
        <ele>1166.4</ele>
        <time>2018-08-09T12:17:23Z</time>
      </trkpt>
      <trkpt lat="44.24124" lon="6.35197">
        <ele>1166.8</ele>
        <time>2018-08-09T12:17:27Z</time>
      </trkpt>
      <trkpt lat="44.24127" lon="6.35193">
        <ele>1167.2</ele>
        <time>2018-08-09T12:17:29Z</time>
      </trkpt>
      <trkpt lat="44.24129" lon="6.35191">
        <ele>1167.4</ele>
        <time>2018-08-09T12:17:30Z</time>
      </trkpt>
      <trkpt lat="44.24131" lon="6.35188">
        <ele>1167.7</ele>
        <time>2018-08-09T12:17:31Z</time>
      </trkpt>
      <trkpt lat="44.24135" lon="6.35182">
        <ele>1168.3</ele>
        <time>2018-08-09T12:17:33Z</time>
      </trkpt>
      <trkpt lat="44.24138" lon="6.35178">
        <ele>1168.8</ele>
        <time>2018-08-09T12:17:36Z</time>
      </trkpt>
      <trkpt lat="44.2414" lon="6.35174">
        <ele>1169.1</ele>
        <time>2018-08-09T12:17:37Z</time>
      </trkpt>
      <trkpt lat="44.24141" lon="6.35171">
        <ele>1169.3</ele>
        <time>2018-08-09T12:17:38Z</time>
      </trkpt>
      <trkpt lat="44.24144" lon="6.35165">
        <ele>1169.8</ele>
        <time>2018-08-09T12:17:40Z</time>
      </trkpt>
      <trkpt lat="44.24147" lon="6.35161">
        <ele>1170.3</ele>
        <time>2018-08-09T12:17:42Z</time>
      </trkpt>
      <trkpt lat="44.24149" lon="6.35156">
        <ele>1170.6</ele>
        <time>2018-08-09T12:17:44Z</time>
      </trkpt>
      <trkpt lat="44.24151" lon="6.35152">
        <ele>1171</ele>
        <time>2018-08-09T12:17:46Z</time>
      </trkpt>
      <trkpt lat="44.24152" lon="6.35148">
        <ele>1171.2</ele>
        <time>2018-08-09T12:17:47Z</time>
      </trkpt>
      <trkpt lat="44.24155" lon="6.35143">
        <ele>1171.7</ele>
        <time>2018-08-09T12:17:49Z</time>
      </trkpt>
      <trkpt lat="44.24156" lon="6.35138">
        <ele>1171.9</ele>
        <time>2018-08-09T12:17:51Z</time>
      </trkpt>
      <trkpt lat="44.2416" lon="6.35134">
        <ele>1172.3</ele>
        <time>2018-08-09T12:17:53Z</time>
      </trkpt>
      <trkpt lat="44.24162" lon="6.35129">
        <ele>1172.7</ele>
        <time>2018-08-09T12:17:55Z</time>
      </trkpt>
      <trkpt lat="44.24164" lon="6.35125">
        <ele>1173</ele>
        <time>2018-08-09T12:17:57Z</time>
      </trkpt>
      <trkpt lat="44.24166" lon="6.35119">
        <ele>1173.4</ele>
        <time>2018-08-09T12:17:59Z</time>
      </trkpt>
      <trkpt lat="44.24167" lon="6.35114">
        <ele>1173.7</ele>
        <time>2018-08-09T12:18:01Z</time>
      </trkpt>
      <trkpt lat="44.24169" lon="6.35109">
        <ele>1174.1</ele>
        <time>2018-08-09T12:18:03Z</time>
      </trkpt>
      <trkpt lat="44.2417" lon="6.35105">
        <ele>1174.4</ele>
        <time>2018-08-09T12:18:05Z</time>
      </trkpt>
      <trkpt lat="44.24171" lon="6.35101">
        <ele>1174.8</ele>
        <time>2018-08-09T12:18:07Z</time>
      </trkpt>
      <trkpt lat="44.24171" lon="6.35094">
        <ele>1175.2</ele>
        <time>2018-08-09T12:18:09Z</time>
      </trkpt>
      <trkpt lat="44.24171" lon="6.35089">
        <ele>1175.6</ele>
        <time>2018-08-09T12:18:11Z</time>
      </trkpt>
      <trkpt lat="44.24172" lon="6.35084">
        <ele>1176</ele>
        <time>2018-08-09T12:18:13Z</time>
      </trkpt>
      <trkpt lat="44.24173" lon="6.35078">
        <ele>1176.5</ele>
        <time>2018-08-09T12:18:15Z</time>
      </trkpt>
      <trkpt lat="44.24173" lon="6.35073">
        <ele>1177</ele>
        <time>2018-08-09T12:18:17Z</time>
      </trkpt>
      <trkpt lat="44.24175" lon="6.35066">
        <ele>1177.4</ele>
        <time>2018-08-09T12:18:19Z</time>
      </trkpt>
      <trkpt lat="44.24178" lon="6.35062">
        <ele>1177.7</ele>
        <time>2018-08-09T12:18:21Z</time>
      </trkpt>
      <trkpt lat="44.24183" lon="6.35059">
        <ele>1177.9</ele>
        <time>2018-08-09T12:18:23Z</time>
      </trkpt>
      <trkpt lat="44.24187" lon="6.35057">
        <ele>1178</ele>
        <time>2018-08-09T12:18:25Z</time>
      </trkpt>
      <trkpt lat="44.24192" lon="6.35056">
        <ele>1178.2</ele>
        <time>2018-08-09T12:18:27Z</time>
      </trkpt>
      <trkpt lat="44.24196" lon="6.35054">
        <ele>1178.4</ele>
        <time>2018-08-09T12:18:29Z</time>
      </trkpt>
      <trkpt lat="44.24199" lon="6.35051">
        <ele>1178.6</ele>
        <time>2018-08-09T12:18:31Z</time>
      </trkpt>
      <trkpt lat="44.24202" lon="6.35048">
        <ele>1178.8</ele>
        <time>2018-08-09T12:18:33Z</time>
      </trkpt>
      <trkpt lat="44.24203" lon="6.35044">
        <ele>1179.1</ele>
        <time>2018-08-09T12:18:34Z</time>
      </trkpt>
      <trkpt lat="44.24203" lon="6.35038">
        <ele>1179.7</ele>
        <time>2018-08-09T12:18:36Z</time>
      </trkpt>
      <trkpt lat="44.24205" lon="6.35032">
        <ele>1180.2</ele>
        <time>2018-08-09T12:18:38Z</time>
      </trkpt>
      <trkpt lat="44.24205" lon="6.35025">
        <ele>1180.5</ele>
        <time>2018-08-09T12:18:40Z</time>
      </trkpt>
      <trkpt lat="44.24205" lon="6.35018">
        <ele>1180.7</ele>
        <time>2018-08-09T12:18:42Z</time>
      </trkpt>
      <trkpt lat="44.24205" lon="6.35011">
        <ele>1180.8</ele>
        <time>2018-08-09T12:18:44Z</time>
      </trkpt>
      <trkpt lat="44.24204" lon="6.35006">
        <ele>1180.9</ele>
        <time>2018-08-09T12:18:46Z</time>
      </trkpt>
      <trkpt lat="44.24203" lon="6.34998">
        <ele>1181</ele>
        <time>2018-08-09T12:18:48Z</time>
      </trkpt>
      <trkpt lat="44.24203" lon="6.34993">
        <ele>1181.2</ele>
        <time>2018-08-09T12:18:50Z</time>
      </trkpt>
      <trkpt lat="44.24203" lon="6.34988">
        <ele>1181.2</ele>
        <time>2018-08-09T12:18:52Z</time>
      </trkpt>
      <trkpt lat="44.24202" lon="6.34983">
        <ele>1181.2</ele>
        <time>2018-08-09T12:18:53Z</time>
      </trkpt>
      <trkpt lat="44.24201" lon="6.34977">
        <ele>1181.3</ele>
        <time>2018-08-09T12:18:55Z</time>
      </trkpt>
      <trkpt lat="44.242" lon="6.34972">
        <ele>1181.3</ele>
        <time>2018-08-09T12:18:57Z</time>
      </trkpt>
      <trkpt lat="44.24199" lon="6.34967">
        <ele>1181.4</ele>
        <time>2018-08-09T12:18:58Z</time>
      </trkpt>
      <trkpt lat="44.24198" lon="6.34963">
        <ele>1181.4</ele>
        <time>2018-08-09T12:18:59Z</time>
      </trkpt>
      <trkpt lat="44.24198" lon="6.34959">
        <ele>1181.4</ele>
        <time>2018-08-09T12:19:00Z</time>
      </trkpt>
      <trkpt lat="44.24196" lon="6.34954">
        <ele>1181.5</ele>
        <time>2018-08-09T12:19:02Z</time>
      </trkpt>
      <trkpt lat="44.24196" lon="6.34947">
        <ele>1181.6</ele>
        <time>2018-08-09T12:19:04Z</time>
      </trkpt>
      <trkpt lat="44.24193" lon="6.3494">
        <ele>1181.6</ele>
        <time>2018-08-09T12:19:06Z</time>
      </trkpt>
      <trkpt lat="44.2419" lon="6.34935">
        <ele>1181.7</ele>
        <time>2018-08-09T12:19:08Z</time>
      </trkpt>
      <trkpt lat="44.24187" lon="6.34931">
        <ele>1181.8</ele>
        <time>2018-08-09T12:19:10Z</time>
      </trkpt>
      <trkpt lat="44.24186" lon="6.34926">
        <ele>1181.8</ele>
        <time>2018-08-09T12:19:12Z</time>
      </trkpt>
      <trkpt lat="44.24184" lon="6.3492">
        <ele>1181.9</ele>
        <time>2018-08-09T12:19:14Z</time>
      </trkpt>
      <trkpt lat="44.24183" lon="6.34913">
        <ele>1181.9</ele>
        <time>2018-08-09T12:19:16Z</time>
      </trkpt>
      <trkpt lat="44.24184" lon="6.34907">
        <ele>1182</ele>
        <time>2018-08-09T12:19:18Z</time>
      </trkpt>
      <trkpt lat="44.24186" lon="6.34903">
        <ele>1182</ele>
        <time>2018-08-09T12:19:19Z</time>
      </trkpt>
      <trkpt lat="44.24186" lon="6.34896">
        <ele>1182</ele>
        <time>2018-08-09T12:19:21Z</time>
      </trkpt>
      <trkpt lat="44.24188" lon="6.3489">
        <ele>1182</ele>
        <time>2018-08-09T12:19:23Z</time>
      </trkpt>
      <trkpt lat="44.2419" lon="6.34886">
        <ele>1182</ele>
        <time>2018-08-09T12:19:24Z</time>
      </trkpt>
      <trkpt lat="44.24192" lon="6.3488">
        <ele>1182</ele>
        <time>2018-08-09T12:19:26Z</time>
      </trkpt>
      <trkpt lat="44.24193" lon="6.34875">
        <ele>1182</ele>
        <time>2018-08-09T12:19:28Z</time>
      </trkpt>
      <trkpt lat="44.24195" lon="6.3487">
        <ele>1182</ele>
        <time>2018-08-09T12:19:31Z</time>
      </trkpt>
      <trkpt lat="44.24198" lon="6.34864">
        <ele>1182</ele>
        <time>2018-08-09T12:19:33Z</time>
      </trkpt>
      <trkpt lat="44.242" lon="6.34859">
        <ele>1182</ele>
        <time>2018-08-09T12:19:36Z</time>
      </trkpt>
      <trkpt lat="44.24205" lon="6.34856">
        <ele>1181.9</ele>
        <time>2018-08-09T12:19:39Z</time>
      </trkpt>
      <trkpt lat="44.24207" lon="6.34854">
        <ele>1181.8</ele>
        <time>2018-08-09T12:19:41Z</time>
      </trkpt>
      <trkpt lat="44.2421" lon="6.34852">
        <ele>1181.7</ele>
        <time>2018-08-09T12:19:43Z</time>
      </trkpt>
      <trkpt lat="44.24214" lon="6.34854">
        <ele>1181.6</ele>
        <time>2018-08-09T12:19:47Z</time>
      </trkpt>
      <trkpt lat="44.24216" lon="6.34857">
        <ele>1181.5</ele>
        <time>2018-08-09T12:19:49Z</time>
      </trkpt>
      <trkpt lat="44.2422" lon="6.34858">
        <ele>1181.3</ele>
        <time>2018-08-09T12:20:00Z</time>
      </trkpt>
      <trkpt lat="44.24223" lon="6.3486">
        <ele>1181.2</ele>
        <time>2018-08-09T12:20:03Z</time>
      </trkpt>
      <trkpt lat="44.24227" lon="6.34859">
        <ele>1181.1</ele>
        <time>2018-08-09T12:20:05Z</time>
      </trkpt>
      <trkpt lat="44.24229" lon="6.34862">
        <ele>1181.3</ele>
        <time>2018-08-09T12:20:12Z</time>
      </trkpt>
      <trkpt lat="44.24233" lon="6.34862">
        <ele>1181.8</ele>
        <time>2018-08-09T12:20:15Z</time>
      </trkpt>
      <trkpt lat="44.24236" lon="6.34864">
        <ele>1182.3</ele>
        <time>2018-08-09T12:20:18Z</time>
      </trkpt>
      <trkpt lat="44.24239" lon="6.34868">
        <ele>1182.8</ele>
        <time>2018-08-09T12:20:21Z</time>
      </trkpt>
      <trkpt lat="44.24242" lon="6.3487">
        <ele>1183.3</ele>
        <time>2018-08-09T12:20:24Z</time>
      </trkpt>
      <trkpt lat="44.24245" lon="6.34871">
        <ele>1183.6</ele>
        <time>2018-08-09T12:20:27Z</time>
      </trkpt>
      <trkpt lat="44.24248" lon="6.34873">
        <ele>1184.1</ele>
        <time>2018-08-09T12:20:31Z</time>
      </trkpt>
      <trkpt lat="44.24252" lon="6.34874">
        <ele>1184.5</ele>
        <time>2018-08-09T12:20:35Z</time>
      </trkpt>
      <trkpt lat="44.24254" lon="6.34873">
        <ele>1184.8</ele>
        <time>2018-08-09T12:20:37Z</time>
      </trkpt>
      <trkpt lat="44.24258" lon="6.34872">
        <ele>1185.2</ele>
        <time>2018-08-09T12:20:40Z</time>
      </trkpt>
      <trkpt lat="44.2426" lon="6.34868">
        <ele>1185.5</ele>
        <time>2018-08-09T12:20:41Z</time>
      </trkpt>
      <trkpt lat="44.24264" lon="6.34866">
        <ele>1186.1</ele>
        <time>2018-08-09T12:20:43Z</time>
      </trkpt>
      <trkpt lat="44.24267" lon="6.34862">
        <ele>1186.5</ele>
        <time>2018-08-09T12:20:45Z</time>
      </trkpt>
      <trkpt lat="44.2427" lon="6.34858">
        <ele>1186.9</ele>
        <time>2018-08-09T12:20:47Z</time>
      </trkpt>
      <trkpt lat="44.24272" lon="6.34856">
        <ele>1187.2</ele>
        <time>2018-08-09T12:20:49Z</time>
      </trkpt>
      <trkpt lat="44.24274" lon="6.34851">
        <ele>1187.6</ele>
        <time>2018-08-09T12:20:51Z</time>
      </trkpt>
      <trkpt lat="44.24277" lon="6.34848">
        <ele>1188</ele>
        <time>2018-08-09T12:20:53Z</time>
      </trkpt>
      <trkpt lat="44.2428" lon="6.34843">
        <ele>1188.5</ele>
        <time>2018-08-09T12:20:55Z</time>
      </trkpt>
      <trkpt lat="44.24282" lon="6.3484">
        <ele>1188.8</ele>
        <time>2018-08-09T12:20:56Z</time>
      </trkpt>
      <trkpt lat="44.24285" lon="6.34838">
        <ele>1189.2</ele>
        <time>2018-08-09T12:20:57Z</time>
      </trkpt>
      <trkpt lat="44.24288" lon="6.34836">
        <ele>1189.6</ele>
        <time>2018-08-09T12:21:00Z</time>
      </trkpt>
      <trkpt lat="44.24291" lon="6.34834">
        <ele>1190</ele>
        <time>2018-08-09T12:21:03Z</time>
      </trkpt>
      <trkpt lat="44.24295" lon="6.3483">
        <ele>1190.5</ele>
        <time>2018-08-09T12:21:24Z</time>
      </trkpt>
      <trkpt lat="44.24299" lon="6.34828">
        <ele>1191</ele>
        <time>2018-08-09T12:21:26Z</time>
      </trkpt>
      <trkpt lat="44.24301" lon="6.34827">
        <ele>1191.3</ele>
        <time>2018-08-09T12:21:30Z</time>
      </trkpt>
      <trkpt lat="44.24305" lon="6.34825">
        <ele>1191.8</ele>
        <time>2018-08-09T12:21:32Z</time>
      </trkpt>
      <trkpt lat="44.24308" lon="6.34823">
        <ele>1192.3</ele>
        <time>2018-08-09T12:21:35Z</time>
      </trkpt>
      <trkpt lat="44.24311" lon="6.34821">
        <ele>1192.7</ele>
        <time>2018-08-09T12:21:37Z</time>
      </trkpt>
      <trkpt lat="44.24314" lon="6.3482">
        <ele>1193.2</ele>
        <time>2018-08-09T12:21:42Z</time>
      </trkpt>
      <trkpt lat="44.24317" lon="6.34819">
        <ele>1193.6</ele>
        <time>2018-08-09T12:21:46Z</time>
      </trkpt>
      <trkpt lat="44.2432" lon="6.34816">
        <ele>1194.1</ele>
        <time>2018-08-09T12:21:49Z</time>
      </trkpt>
      <trkpt lat="44.24323" lon="6.34813">
        <ele>1194.6</ele>
        <time>2018-08-09T12:21:52Z</time>
      </trkpt>
      <trkpt lat="44.24326" lon="6.34809">
        <ele>1195.1</ele>
        <time>2018-08-09T12:21:55Z</time>
      </trkpt>
      <trkpt lat="44.24327" lon="6.34806">
        <ele>1195.4</ele>
        <time>2018-08-09T12:21:57Z</time>
      </trkpt>
      <trkpt lat="44.2433" lon="6.34803">
        <ele>1195.8</ele>
        <time>2018-08-09T12:21:59Z</time>
      </trkpt>
      <trkpt lat="44.24332" lon="6.34799">
        <ele>1196.1</ele>
        <time>2018-08-09T12:22:03Z</time>
      </trkpt>
      <trkpt lat="44.24334" lon="6.34797">
        <ele>1196.3</ele>
        <time>2018-08-09T12:22:06Z</time>
      </trkpt>
      <trkpt lat="44.24336" lon="6.34793">
        <ele>1196.6</ele>
        <time>2018-08-09T12:22:09Z</time>
      </trkpt>
      <trkpt lat="44.24337" lon="6.34789">
        <ele>1196.7</ele>
        <time>2018-08-09T12:22:14Z</time>
      </trkpt>
      <trkpt lat="44.24339" lon="6.34786">
        <ele>1196.8</ele>
        <time>2018-08-09T12:22:18Z</time>
      </trkpt>
      <trkpt lat="44.24341" lon="6.34784">
        <ele>1196.8</ele>
        <time>2018-08-09T12:22:21Z</time>
      </trkpt>
      <trkpt lat="44.24344" lon="6.3478">
        <ele>1196.9</ele>
        <time>2018-08-09T12:22:26Z</time>
      </trkpt>
      <trkpt lat="44.24345" lon="6.34777">
        <ele>1196.9</ele>
        <time>2018-08-09T12:22:29Z</time>
      </trkpt>
      <trkpt lat="44.24347" lon="6.34774">
        <ele>1196.9</ele>
        <time>2018-08-09T12:22:31Z</time>
      </trkpt>
      <trkpt lat="44.2435" lon="6.34771">
        <ele>1196.9</ele>
        <time>2018-08-09T12:22:38Z</time>
      </trkpt>
      <trkpt lat="44.24352" lon="6.34769">
        <ele>1196.9</ele>
        <time>2018-08-09T12:22:40Z</time>
      </trkpt>
      <trkpt lat="44.24357" lon="6.34766">
        <ele>1196.8</ele>
        <time>2018-08-09T12:22:43Z</time>
      </trkpt>
      <trkpt lat="44.2436" lon="6.34763">
        <ele>1196.5</ele>
        <time>2018-08-09T12:22:45Z</time>
      </trkpt>
      <trkpt lat="44.24362" lon="6.34761">
        <ele>1196.3</ele>
        <time>2018-08-09T12:22:47Z</time>
      </trkpt>
      <trkpt lat="44.24364" lon="6.34757">
        <ele>1195.9</ele>
        <time>2018-08-09T12:22:49Z</time>
      </trkpt>
      <trkpt lat="44.24364" lon="6.34752">
        <ele>1195.6</ele>
        <time>2018-08-09T12:22:51Z</time>
      </trkpt>
      <trkpt lat="44.24367" lon="6.34749">
        <ele>1195.4</ele>
        <time>2018-08-09T12:22:53Z</time>
      </trkpt>
      <trkpt lat="44.2437" lon="6.34745">
        <ele>1195.2</ele>
        <time>2018-08-09T12:22:55Z</time>
      </trkpt>
      <trkpt lat="44.24373" lon="6.34742">
        <ele>1195</ele>
        <time>2018-08-09T12:22:57Z</time>
      </trkpt>
      <trkpt lat="44.24377" lon="6.34738">
        <ele>1194.7</ele>
        <time>2018-08-09T12:22:59Z</time>
      </trkpt>
      <trkpt lat="44.24382" lon="6.34734">
        <ele>1193.9</ele>
        <time>2018-08-09T12:23:01Z</time>
      </trkpt>
      <trkpt lat="44.24387" lon="6.34736">
        <ele>1193</ele>
        <time>2018-08-09T12:23:03Z</time>
      </trkpt>
      <trkpt lat="44.24391" lon="6.34736">
        <ele>1192.7</ele>
        <time>2018-08-09T12:23:04Z</time>
      </trkpt>
      <trkpt lat="44.24395" lon="6.34734">
        <ele>1192.1</ele>
        <time>2018-08-09T12:23:06Z</time>
      </trkpt>
      <trkpt lat="44.24398" lon="6.34732">
        <ele>1191.5</ele>
        <time>2018-08-09T12:23:08Z</time>
      </trkpt>
      <trkpt lat="44.244" lon="6.34727">
        <ele>1190.9</ele>
        <time>2018-08-09T12:23:10Z</time>
      </trkpt>
      <trkpt lat="44.24403" lon="6.34722">
        <ele>1190.3</ele>
        <time>2018-08-09T12:23:12Z</time>
      </trkpt>
      <trkpt lat="44.24404" lon="6.34718">
        <ele>1189.7</ele>
        <time>2018-08-09T12:23:13Z</time>
      </trkpt>
      <trkpt lat="44.24406" lon="6.34714">
        <ele>1189.1</ele>
        <time>2018-08-09T12:23:14Z</time>
      </trkpt>
      <trkpt lat="44.24407" lon="6.3471">
        <ele>1188.8</ele>
        <time>2018-08-09T12:23:15Z</time>
      </trkpt>
      <trkpt lat="44.24411" lon="6.34708">
        <ele>1188.5</ele>
        <time>2018-08-09T12:23:16Z</time>
      </trkpt>
      <trkpt lat="44.24412" lon="6.34703">
        <ele>1188.1</ele>
        <time>2018-08-09T12:23:17Z</time>
      </trkpt>
      <trkpt lat="44.24414" lon="6.34699">
        <ele>1187.6</ele>
        <time>2018-08-09T12:23:18Z</time>
      </trkpt>
      <trkpt lat="44.24414" lon="6.34694">
        <ele>1187.1</ele>
        <time>2018-08-09T12:23:19Z</time>
      </trkpt>
      <trkpt lat="44.24415" lon="6.34687">
        <ele>1186.6</ele>
        <time>2018-08-09T12:23:21Z</time>
      </trkpt>
      <trkpt lat="44.24415" lon="6.34682">
        <ele>1186.3</ele>
        <time>2018-08-09T12:23:22Z</time>
      </trkpt>
      <trkpt lat="44.24416" lon="6.34678">
        <ele>1186.1</ele>
        <time>2018-08-09T12:23:23Z</time>
      </trkpt>
      <trkpt lat="44.24418" lon="6.34674">
        <ele>1185.8</ele>
        <time>2018-08-09T12:23:24Z</time>
      </trkpt>
      <trkpt lat="44.24419" lon="6.3467">
        <ele>1185.3</ele>
        <time>2018-08-09T12:23:25Z</time>
      </trkpt>
      <trkpt lat="44.24421" lon="6.34666">
        <ele>1184.8</ele>
        <time>2018-08-09T12:23:26Z</time>
      </trkpt>
      <trkpt lat="44.24416" lon="6.34661">
        <ele>1184.3</ele>
        <time>2018-08-09T12:23:27Z</time>
      </trkpt>
      <trkpt lat="44.24412" lon="6.34658">
        <ele>1183.9</ele>
        <time>2018-08-09T12:23:28Z</time>
      </trkpt>
      <trkpt lat="44.24414" lon="6.34654">
        <ele>1183.3</ele>
        <time>2018-08-09T12:23:29Z</time>
      </trkpt>
      <trkpt lat="44.24414" lon="6.3465">
        <ele>1182.9</ele>
        <time>2018-08-09T12:23:30Z</time>
      </trkpt>
      <trkpt lat="44.2441" lon="6.34644">
        <ele>1182.1</ele>
        <time>2018-08-09T12:23:31Z</time>
      </trkpt>
      <trkpt lat="44.2441" lon="6.34638">
        <ele>1181.7</ele>
        <time>2018-08-09T12:23:32Z</time>
      </trkpt>
      <trkpt lat="44.24409" lon="6.34633">
        <ele>1181.1</ele>
        <time>2018-08-09T12:23:33Z</time>
      </trkpt>
      <trkpt lat="44.2441" lon="6.34628">
        <ele>1180.5</ele>
        <time>2018-08-09T12:23:34Z</time>
      </trkpt>
      <trkpt lat="44.24411" lon="6.34624">
        <ele>1180.1</ele>
        <time>2018-08-09T12:23:35Z</time>
      </trkpt>
      <trkpt lat="44.24411" lon="6.34619">
        <ele>1179.8</ele>
        <time>2018-08-09T12:23:36Z</time>
      </trkpt>
      <trkpt lat="44.24413" lon="6.34613">
        <ele>1179.3</ele>
        <time>2018-08-09T12:23:38Z</time>
      </trkpt>
      <trkpt lat="44.24415" lon="6.34609">
        <ele>1179.1</ele>
        <time>2018-08-09T12:23:39Z</time>
      </trkpt>
      <trkpt lat="44.24417" lon="6.34606">
        <ele>1178.7</ele>
        <time>2018-08-09T12:23:40Z</time>
      </trkpt>
      <trkpt lat="44.24421" lon="6.34602">
        <ele>1178.1</ele>
        <time>2018-08-09T12:23:42Z</time>
      </trkpt>
      <trkpt lat="44.24426" lon="6.346">
        <ele>1177.5</ele>
        <time>2018-08-09T12:23:44Z</time>
      </trkpt>
      <trkpt lat="44.24431" lon="6.34598">
        <ele>1177.1</ele>
        <time>2018-08-09T12:23:46Z</time>
      </trkpt>
      <trkpt lat="44.24435" lon="6.34599">
        <ele>1176.9</ele>
        <time>2018-08-09T12:23:47Z</time>
      </trkpt>
      <trkpt lat="44.24439" lon="6.34598">
        <ele>1176.4</ele>
        <time>2018-08-09T12:23:48Z</time>
      </trkpt>
      <trkpt lat="44.24444" lon="6.34597">
        <ele>1175.9</ele>
        <time>2018-08-09T12:23:49Z</time>
      </trkpt>
      <trkpt lat="44.24449" lon="6.34596">
        <ele>1175.7</ele>
        <time>2018-08-09T12:23:50Z</time>
      </trkpt>
      <trkpt lat="44.24455" lon="6.34596">
        <ele>1175.4</ele>
        <time>2018-08-09T12:23:51Z</time>
      </trkpt>
      <trkpt lat="44.24461" lon="6.34593">
        <ele>1175.3</ele>
        <time>2018-08-09T12:23:52Z</time>
      </trkpt>
      <trkpt lat="44.24467" lon="6.34591">
        <ele>1175.1</ele>
        <time>2018-08-09T12:23:53Z</time>
      </trkpt>
      <trkpt lat="44.24473" lon="6.3459">
        <ele>1175</ele>
        <time>2018-08-09T12:23:54Z</time>
      </trkpt>
      <trkpt lat="44.24479" lon="6.3459">
        <ele>1175</ele>
        <time>2018-08-09T12:23:55Z</time>
      </trkpt>
      <trkpt lat="44.24483" lon="6.34589">
        <ele>1175.1</ele>
        <time>2018-08-09T12:23:56Z</time>
      </trkpt>
      <trkpt lat="44.24486" lon="6.34589">
        <ele>1175.2</ele>
        <time>2018-08-09T12:23:57Z</time>
      </trkpt>
      <trkpt lat="44.2449" lon="6.34588">
        <ele>1175.3</ele>
        <time>2018-08-09T12:23:58Z</time>
      </trkpt>
      <trkpt lat="44.24495" lon="6.34585">
        <ele>1175.5</ele>
        <time>2018-08-09T12:23:59Z</time>
      </trkpt>
      <trkpt lat="44.24498" lon="6.34584">
        <ele>1175.7</ele>
        <time>2018-08-09T12:24:00Z</time>
      </trkpt>
      <trkpt lat="44.24502" lon="6.34576">
        <ele>1176</ele>
        <time>2018-08-09T12:24:02Z</time>
      </trkpt>
      <trkpt lat="44.24503" lon="6.34571">
        <ele>1176.3</ele>
        <time>2018-08-09T12:24:03Z</time>
      </trkpt>
      <trkpt lat="44.24506" lon="6.34566">
        <ele>1176.8</ele>
        <time>2018-08-09T12:24:04Z</time>
      </trkpt>
      <trkpt lat="44.24508" lon="6.34562">
        <ele>1177.5</ele>
        <time>2018-08-09T12:24:05Z</time>
      </trkpt>
      <trkpt lat="44.24511" lon="6.34557">
        <ele>1178</ele>
        <time>2018-08-09T12:24:06Z</time>
      </trkpt>
      <trkpt lat="44.2451" lon="6.34553">
        <ele>1178.6</ele>
        <time>2018-08-09T12:24:07Z</time>
      </trkpt>
      <trkpt lat="44.24512" lon="6.34549">
        <ele>1179</ele>
        <time>2018-08-09T12:24:08Z</time>
      </trkpt>
      <trkpt lat="44.24516" lon="6.34547">
        <ele>1179.7</ele>
        <time>2018-08-09T12:24:11Z</time>
      </trkpt>
      <trkpt lat="44.2452" lon="6.34548">
        <ele>1180.1</ele>
        <time>2018-08-09T12:24:13Z</time>
      </trkpt>
      <trkpt lat="44.24526" lon="6.3455">
        <ele>1180.7</ele>
        <time>2018-08-09T12:24:15Z</time>
      </trkpt>
      <trkpt lat="44.2453" lon="6.34553">
        <ele>1181.1</ele>
        <time>2018-08-09T12:24:17Z</time>
      </trkpt>
      <trkpt lat="44.24533" lon="6.34553">
        <ele>1181.4</ele>
        <time>2018-08-09T12:24:19Z</time>
      </trkpt>
      <trkpt lat="44.24538" lon="6.3455">
        <ele>1181.8</ele>
        <time>2018-08-09T12:24:22Z</time>
      </trkpt>
      <trkpt lat="44.2454" lon="6.34548">
        <ele>1182.1</ele>
        <time>2018-08-09T12:24:24Z</time>
      </trkpt>
      <trkpt lat="44.24543" lon="6.34545">
        <ele>1182.3</ele>
        <time>2018-08-09T12:24:26Z</time>
      </trkpt>
      <trkpt lat="44.24546" lon="6.34541">
        <ele>1182.6</ele>
        <time>2018-08-09T12:24:28Z</time>
      </trkpt>
      <trkpt lat="44.24548" lon="6.34538">
        <ele>1182.8</ele>
        <time>2018-08-09T12:24:31Z</time>
      </trkpt>
      <trkpt lat="44.24551" lon="6.34536">
        <ele>1183</ele>
        <time>2018-08-09T12:24:33Z</time>
      </trkpt>
      <trkpt lat="44.24554" lon="6.34534">
        <ele>1183.2</ele>
        <time>2018-08-09T12:24:35Z</time>
      </trkpt>
      <trkpt lat="44.24556" lon="6.34532">
        <ele>1183.3</ele>
        <time>2018-08-09T12:24:37Z</time>
      </trkpt>
      <trkpt lat="44.2456" lon="6.34528">
        <ele>1183.6</ele>
        <time>2018-08-09T12:24:39Z</time>
      </trkpt>
      <trkpt lat="44.24562" lon="6.34526">
        <ele>1183.7</ele>
        <time>2018-08-09T12:24:41Z</time>
      </trkpt>
      <trkpt lat="44.24565" lon="6.34524">
        <ele>1183.9</ele>
        <time>2018-08-09T12:24:43Z</time>
      </trkpt>
      <trkpt lat="44.24569" lon="6.34523">
        <ele>1184.1</ele>
        <time>2018-08-09T12:24:45Z</time>
      </trkpt>
      <trkpt lat="44.24572" lon="6.34521">
        <ele>1184.2</ele>
        <time>2018-08-09T12:24:47Z</time>
      </trkpt>
      <trkpt lat="44.24574" lon="6.34519">
        <ele>1184.3</ele>
        <time>2018-08-09T12:24:49Z</time>
      </trkpt>
      <trkpt lat="44.24577" lon="6.34516">
        <ele>1184.5</ele>
        <time>2018-08-09T12:24:51Z</time>
      </trkpt>
      <trkpt lat="44.24581" lon="6.34516">
        <ele>1184.6</ele>
        <time>2018-08-09T12:24:53Z</time>
      </trkpt>
      <trkpt lat="44.24584" lon="6.34515">
        <ele>1184.7</ele>
        <time>2018-08-09T12:24:55Z</time>
      </trkpt>
      <trkpt lat="44.24588" lon="6.34514">
        <ele>1184.8</ele>
        <time>2018-08-09T12:24:57Z</time>
      </trkpt>
      <trkpt lat="44.24591" lon="6.34512">
        <ele>1184.9</ele>
        <time>2018-08-09T12:25:00Z</time>
      </trkpt>
      <trkpt lat="44.24594" lon="6.34511">
        <ele>1184.9</ele>
        <time>2018-08-09T12:25:02Z</time>
      </trkpt>
      <trkpt lat="44.24597" lon="6.34508">
        <ele>1185</ele>
        <time>2018-08-09T12:25:04Z</time>
      </trkpt>
      <trkpt lat="44.24599" lon="6.34505">
        <ele>1185</ele>
        <time>2018-08-09T12:25:06Z</time>
      </trkpt>
      <trkpt lat="44.24602" lon="6.34502">
        <ele>1185.1</ele>
        <time>2018-08-09T12:25:08Z</time>
      </trkpt>
      <trkpt lat="44.24605" lon="6.345">
        <ele>1185.2</ele>
        <time>2018-08-09T12:25:10Z</time>
      </trkpt>
      <trkpt lat="44.24608" lon="6.34496">
        <ele>1185.4</ele>
        <time>2018-08-09T12:25:12Z</time>
      </trkpt>
      <trkpt lat="44.24611" lon="6.34492">
        <ele>1185.5</ele>
        <time>2018-08-09T12:25:14Z</time>
      </trkpt>
      <trkpt lat="44.24613" lon="6.34488">
        <ele>1185.7</ele>
        <time>2018-08-09T12:25:16Z</time>
      </trkpt>
      <trkpt lat="44.24615" lon="6.34484">
        <ele>1185.8</ele>
        <time>2018-08-09T12:25:18Z</time>
      </trkpt>
      <trkpt lat="44.24619" lon="6.34481">
        <ele>1186.2</ele>
        <time>2018-08-09T12:25:20Z</time>
      </trkpt>
      <trkpt lat="44.24622" lon="6.34478">
        <ele>1186.8</ele>
        <time>2018-08-09T12:25:22Z</time>
      </trkpt>
      <trkpt lat="44.24625" lon="6.34476">
        <ele>1187.4</ele>
        <time>2018-08-09T12:25:23Z</time>
      </trkpt>
      <trkpt lat="44.24629" lon="6.34474">
        <ele>1188.3</ele>
        <time>2018-08-09T12:25:25Z</time>
      </trkpt>
      <trkpt lat="44.24632" lon="6.34476">
        <ele>1188.9</ele>
        <time>2018-08-09T12:25:27Z</time>
      </trkpt>
      <trkpt lat="44.24635" lon="6.34479">
        <ele>1189.5</ele>
        <time>2018-08-09T12:25:29Z</time>
      </trkpt>
      <trkpt lat="44.24635" lon="6.34484">
        <ele>1190</ele>
        <time>2018-08-09T12:25:32Z</time>
      </trkpt>
      <trkpt lat="44.24635" lon="6.34488">
        <ele>1190.5</ele>
        <time>2018-08-09T12:25:34Z</time>
      </trkpt>
      <trkpt lat="44.24633" lon="6.34493">
        <ele>1190.9</ele>
        <time>2018-08-09T12:25:36Z</time>
      </trkpt>
      <trkpt lat="44.24633" lon="6.34498">
        <ele>1191.4</ele>
        <time>2018-08-09T12:25:38Z</time>
      </trkpt>
      <trkpt lat="44.24632" lon="6.34504">
        <ele>1191.9</ele>
        <time>2018-08-09T12:25:40Z</time>
      </trkpt>
      <trkpt lat="44.24631" lon="6.34508">
        <ele>1192.3</ele>
        <time>2018-08-09T12:25:42Z</time>
      </trkpt>
      <trkpt lat="44.2463" lon="6.34513">
        <ele>1192.8</ele>
        <time>2018-08-09T12:25:44Z</time>
      </trkpt>
      <trkpt lat="44.24628" lon="6.34516">
        <ele>1193.1</ele>
        <time>2018-08-09T12:25:46Z</time>
      </trkpt>
      <trkpt lat="44.24627" lon="6.3452">
        <ele>1193.4</ele>
        <time>2018-08-09T12:25:48Z</time>
      </trkpt>
      <trkpt lat="44.24625" lon="6.34523">
        <ele>1193.8</ele>
        <time>2018-08-09T12:25:51Z</time>
      </trkpt>
      <trkpt lat="44.24623" lon="6.34528">
        <ele>1194.3</ele>
        <time>2018-08-09T12:25:54Z</time>
      </trkpt>
      <trkpt lat="44.24622" lon="6.34531">
        <ele>1194.7</ele>
        <time>2018-08-09T12:25:56Z</time>
      </trkpt>
      <trkpt lat="44.24619" lon="6.34534">
        <ele>1195.1</ele>
        <time>2018-08-09T12:25:59Z</time>
      </trkpt>
      <trkpt lat="44.24617" lon="6.34537">
        <ele>1195.5</ele>
        <time>2018-08-09T12:26:02Z</time>
      </trkpt>
      <trkpt lat="44.24615" lon="6.34542">
        <ele>1196.1</ele>
        <time>2018-08-09T12:26:05Z</time>
      </trkpt>
      <trkpt lat="44.24614" lon="6.34548">
        <ele>1196.8</ele>
        <time>2018-08-09T12:26:08Z</time>
      </trkpt>
      <trkpt lat="44.24611" lon="6.3455">
        <ele>1197.2</ele>
        <time>2018-08-09T12:26:10Z</time>
      </trkpt>
      <trkpt lat="44.24609" lon="6.34554">
        <ele>1197.8</ele>
        <time>2018-08-09T12:26:13Z</time>
      </trkpt>
      <trkpt lat="44.24605" lon="6.34554">
        <ele>1198.3</ele>
        <time>2018-08-09T12:26:15Z</time>
      </trkpt>
      <trkpt lat="44.24603" lon="6.34555">
        <ele>1198.7</ele>
        <time>2018-08-09T12:26:18Z</time>
      </trkpt>
      <trkpt lat="44.246" lon="6.34558">
        <ele>1199.2</ele>
        <time>2018-08-09T12:26:21Z</time>
      </trkpt>
      <trkpt lat="44.24597" lon="6.3456">
        <ele>1199.7</ele>
        <time>2018-08-09T12:26:23Z</time>
      </trkpt>
      <trkpt lat="44.24595" lon="6.34564">
        <ele>1200.1</ele>
        <time>2018-08-09T12:26:25Z</time>
      </trkpt>
      <trkpt lat="44.24594" lon="6.34567">
        <ele>1200.5</ele>
        <time>2018-08-09T12:26:28Z</time>
      </trkpt>
      <trkpt lat="44.24593" lon="6.34572">
        <ele>1200.9</ele>
        <time>2018-08-09T12:26:30Z</time>
      </trkpt>
      <trkpt lat="44.24592" lon="6.34575">
        <ele>1201.3</ele>
        <time>2018-08-09T12:26:33Z</time>
      </trkpt>
      <trkpt lat="44.24594" lon="6.34579">
        <ele>1201.8</ele>
        <time>2018-08-09T12:26:36Z</time>
      </trkpt>
      <trkpt lat="44.24595" lon="6.34584">
        <ele>1202.2</ele>
        <time>2018-08-09T12:26:38Z</time>
      </trkpt>
      <trkpt lat="44.24594" lon="6.34588">
        <ele>1202.6</ele>
        <time>2018-08-09T12:26:40Z</time>
      </trkpt>
      <trkpt lat="44.24594" lon="6.34593">
        <ele>1203</ele>
        <time>2018-08-09T12:26:43Z</time>
      </trkpt>
      <trkpt lat="44.24593" lon="6.34598">
        <ele>1203.5</ele>
        <time>2018-08-09T12:26:46Z</time>
      </trkpt>
      <trkpt lat="44.24593" lon="6.34604">
        <ele>1204</ele>
        <time>2018-08-09T12:26:49Z</time>
      </trkpt>
      <trkpt lat="44.24594" lon="6.34609">
        <ele>1204.4</ele>
        <time>2018-08-09T12:26:51Z</time>
      </trkpt>
      <trkpt lat="44.24595" lon="6.34614">
        <ele>1204.8</ele>
        <time>2018-08-09T12:26:54Z</time>
      </trkpt>
      <trkpt lat="44.24594" lon="6.34618">
        <ele>1205.1</ele>
        <time>2018-08-09T12:26:56Z</time>
      </trkpt>
      <trkpt lat="44.24597" lon="6.3462">
        <ele>1205.4</ele>
        <time>2018-08-09T12:26:59Z</time>
      </trkpt>
      <trkpt lat="44.24599" lon="6.34623">
        <ele>1205.6</ele>
        <time>2018-08-09T12:27:02Z</time>
      </trkpt>
      <trkpt lat="44.24602" lon="6.34625">
        <ele>1205.9</ele>
        <time>2018-08-09T12:27:05Z</time>
      </trkpt>
      <trkpt lat="44.24606" lon="6.34627">
        <ele>1206.2</ele>
        <time>2018-08-09T12:27:08Z</time>
      </trkpt>
      <trkpt lat="44.24609" lon="6.34627">
        <ele>1206.4</ele>
        <time>2018-08-09T12:27:11Z</time>
      </trkpt>
      <trkpt lat="44.24612" lon="6.3463">
        <ele>1206.7</ele>
        <time>2018-08-09T12:27:14Z</time>
      </trkpt>
      <trkpt lat="44.24615" lon="6.34634">
        <ele>1207</ele>
        <time>2018-08-09T12:27:17Z</time>
      </trkpt>
      <trkpt lat="44.24617" lon="6.34637">
        <ele>1207.2</ele>
        <time>2018-08-09T12:27:19Z</time>
      </trkpt>
      <trkpt lat="44.24615" lon="6.34641">
        <ele>1207.4</ele>
        <time>2018-08-09T12:27:21Z</time>
      </trkpt>
      <trkpt lat="44.24615" lon="6.34645">
        <ele>1207.5</ele>
        <time>2018-08-09T12:27:23Z</time>
      </trkpt>
      <trkpt lat="44.24615" lon="6.34651">
        <ele>1207.7</ele>
        <time>2018-08-09T12:27:26Z</time>
      </trkpt>
      <trkpt lat="44.24616" lon="6.34654">
        <ele>1207.9</ele>
        <time>2018-08-09T12:27:28Z</time>
      </trkpt>
      <trkpt lat="44.24618" lon="6.34658">
        <ele>1208.1</ele>
        <time>2018-08-09T12:27:30Z</time>
      </trkpt>
      <trkpt lat="44.2462" lon="6.34663">
        <ele>1208.4</ele>
        <time>2018-08-09T12:27:33Z</time>
      </trkpt>
      <trkpt lat="44.24621" lon="6.34667">
        <ele>1208.7</ele>
        <time>2018-08-09T12:27:35Z</time>
      </trkpt>
      <trkpt lat="44.2462" lon="6.34671">
        <ele>1209</ele>
        <time>2018-08-09T12:27:37Z</time>
      </trkpt>
      <trkpt lat="44.24618" lon="6.34675">
        <ele>1209.3</ele>
        <time>2018-08-09T12:27:39Z</time>
      </trkpt>
      <trkpt lat="44.24616" lon="6.34679">
        <ele>1209.8</ele>
        <time>2018-08-09T12:27:41Z</time>
      </trkpt>
      <trkpt lat="44.24612" lon="6.34683">
        <ele>1210.2</ele>
        <time>2018-08-09T12:27:43Z</time>
      </trkpt>
      <trkpt lat="44.2461" lon="6.34686">
        <ele>1210.6</ele>
        <time>2018-08-09T12:27:45Z</time>
      </trkpt>
      <trkpt lat="44.24606" lon="6.34688">
        <ele>1211.1</ele>
        <time>2018-08-09T12:27:48Z</time>
      </trkpt>
      <trkpt lat="44.24604" lon="6.34691">
        <ele>1211.6</ele>
        <time>2018-08-09T12:27:50Z</time>
      </trkpt>
      <trkpt lat="44.24601" lon="6.34694">
        <ele>1212.1</ele>
        <time>2018-08-09T12:27:52Z</time>
      </trkpt>
      <trkpt lat="44.24599" lon="6.34698">
        <ele>1212.6</ele>
        <time>2018-08-09T12:27:54Z</time>
      </trkpt>
      <trkpt lat="44.24597" lon="6.34702">
        <ele>1213.1</ele>
        <time>2018-08-09T12:27:56Z</time>
      </trkpt>
      <trkpt lat="44.24596" lon="6.34707">
        <ele>1213.6</ele>
        <time>2018-08-09T12:27:58Z</time>
      </trkpt>
      <trkpt lat="44.24597" lon="6.34712">
        <ele>1214.1</ele>
        <time>2018-08-09T12:28:00Z</time>
      </trkpt>
      <trkpt lat="44.24597" lon="6.34717">
        <ele>1214.6</ele>
        <time>2018-08-09T12:28:02Z</time>
      </trkpt>
      <trkpt lat="44.24596" lon="6.34722">
        <ele>1215</ele>
        <time>2018-08-09T12:28:04Z</time>
      </trkpt>
      <trkpt lat="44.24597" lon="6.34728">
        <ele>1215.6</ele>
        <time>2018-08-09T12:28:07Z</time>
      </trkpt>
      <trkpt lat="44.24599" lon="6.34733">
        <ele>1216.1</ele>
        <time>2018-08-09T12:28:10Z</time>
      </trkpt>
      <trkpt lat="44.246" lon="6.34737">
        <ele>1216.5</ele>
        <time>2018-08-09T12:28:12Z</time>
      </trkpt>
      <trkpt lat="44.246" lon="6.34741">
        <ele>1216.9</ele>
        <time>2018-08-09T12:28:14Z</time>
      </trkpt>
      <trkpt lat="44.24601" lon="6.34745">
        <ele>1217.2</ele>
        <time>2018-08-09T12:28:16Z</time>
      </trkpt>
      <trkpt lat="44.24603" lon="6.34749">
        <ele>1217.7</ele>
        <time>2018-08-09T12:28:18Z</time>
      </trkpt>
      <trkpt lat="44.24604" lon="6.34755">
        <ele>1218.2</ele>
        <time>2018-08-09T12:28:21Z</time>
      </trkpt>
      <trkpt lat="44.24604" lon="6.34759">
        <ele>1218.5</ele>
        <time>2018-08-09T12:28:23Z</time>
      </trkpt>
      <trkpt lat="44.24605" lon="6.34764">
        <ele>1218.9</ele>
        <time>2018-08-09T12:28:25Z</time>
      </trkpt>
      <trkpt lat="44.24605" lon="6.34768">
        <ele>1219.3</ele>
        <time>2018-08-09T12:28:28Z</time>
      </trkpt>
      <trkpt lat="44.24605" lon="6.34773">
        <ele>1219.7</ele>
        <time>2018-08-09T12:28:31Z</time>
      </trkpt>
      <trkpt lat="44.24607" lon="6.34778">
        <ele>1220.2</ele>
        <time>2018-08-09T12:28:34Z</time>
      </trkpt>
      <trkpt lat="44.24607" lon="6.34782">
        <ele>1220.5</ele>
        <time>2018-08-09T12:28:37Z</time>
      </trkpt>
      <trkpt lat="44.24608" lon="6.34788">
        <ele>1221</ele>
        <time>2018-08-09T12:28:40Z</time>
      </trkpt>
      <trkpt lat="44.2461" lon="6.34792">
        <ele>1221.4</ele>
        <time>2018-08-09T12:28:43Z</time>
      </trkpt>
      <trkpt lat="44.24611" lon="6.34796">
        <ele>1221.7</ele>
        <time>2018-08-09T12:28:46Z</time>
      </trkpt>
      <trkpt lat="44.24612" lon="6.34801">
        <ele>1222.2</ele>
        <time>2018-08-09T12:28:48Z</time>
      </trkpt>
      <trkpt lat="44.24614" lon="6.34805">
        <ele>1222.5</ele>
        <time>2018-08-09T12:28:50Z</time>
      </trkpt>
      <trkpt lat="44.24615" lon="6.3481">
        <ele>1222.9</ele>
        <time>2018-08-09T12:28:53Z</time>
      </trkpt>
      <trkpt lat="44.24616" lon="6.34815">
        <ele>1223.2</ele>
        <time>2018-08-09T12:28:56Z</time>
      </trkpt>
      <trkpt lat="44.24617" lon="6.34819">
        <ele>1223.5</ele>
        <time>2018-08-09T12:28:58Z</time>
      </trkpt>
      <trkpt lat="44.24617" lon="6.34823">
        <ele>1223.7</ele>
        <time>2018-08-09T12:29:01Z</time>
      </trkpt>
      <trkpt lat="44.24619" lon="6.34828">
        <ele>1224</ele>
        <time>2018-08-09T12:29:04Z</time>
      </trkpt>
      <trkpt lat="44.2462" lon="6.34833">
        <ele>1224.3</ele>
        <time>2018-08-09T12:29:07Z</time>
      </trkpt>
      <trkpt lat="44.2462" lon="6.34837">
        <ele>1224.6</ele>
        <time>2018-08-09T12:29:10Z</time>
      </trkpt>
      <trkpt lat="44.24621" lon="6.34842">
        <ele>1224.8</ele>
        <time>2018-08-09T12:29:13Z</time>
      </trkpt>
      <trkpt lat="44.24622" lon="6.34845">
        <ele>1225</ele>
        <time>2018-08-09T12:29:15Z</time>
      </trkpt>
      <trkpt lat="44.24622" lon="6.34849">
        <ele>1225.2</ele>
        <time>2018-08-09T12:29:17Z</time>
      </trkpt>
      <trkpt lat="44.24623" lon="6.34853">
        <ele>1225.4</ele>
        <time>2018-08-09T12:29:20Z</time>
      </trkpt>
      <trkpt lat="44.24624" lon="6.34857">
        <ele>1225.6</ele>
        <time>2018-08-09T12:29:23Z</time>
      </trkpt>
      <trkpt lat="44.24626" lon="6.3486">
        <ele>1225.8</ele>
        <time>2018-08-09T12:29:26Z</time>
      </trkpt>
      <trkpt lat="44.24626" lon="6.34864">
        <ele>1225.9</ele>
        <time>2018-08-09T12:29:28Z</time>
      </trkpt>
      <trkpt lat="44.24628" lon="6.34868">
        <ele>1226.1</ele>
        <time>2018-08-09T12:29:30Z</time>
      </trkpt>
      <trkpt lat="44.24629" lon="6.34873">
        <ele>1226.3</ele>
        <time>2018-08-09T12:29:33Z</time>
      </trkpt>
      <trkpt lat="44.2463" lon="6.34878">
        <ele>1226.4</ele>
        <time>2018-08-09T12:29:36Z</time>
      </trkpt>
      <trkpt lat="44.24631" lon="6.34882">
        <ele>1226.6</ele>
        <time>2018-08-09T12:29:39Z</time>
      </trkpt>
      <trkpt lat="44.24633" lon="6.34888">
        <ele>1226.8</ele>
        <time>2018-08-09T12:29:42Z</time>
      </trkpt>
      <trkpt lat="44.24635" lon="6.34891">
        <ele>1226.9</ele>
        <time>2018-08-09T12:29:45Z</time>
      </trkpt>
      <trkpt lat="44.24636" lon="6.34895">
        <ele>1227</ele>
        <time>2018-08-09T12:29:47Z</time>
      </trkpt>
      <trkpt lat="44.24639" lon="6.34899">
        <ele>1227</ele>
        <time>2018-08-09T12:29:50Z</time>
      </trkpt>
      <trkpt lat="44.24641" lon="6.34904">
        <ele>1227.1</ele>
        <time>2018-08-09T12:29:53Z</time>
      </trkpt>
      <trkpt lat="44.24643" lon="6.34907">
        <ele>1227.1</ele>
        <time>2018-08-09T12:29:55Z</time>
      </trkpt>
      <trkpt lat="44.24646" lon="6.34911">
        <ele>1227.2</ele>
        <time>2018-08-09T12:29:58Z</time>
      </trkpt>
      <trkpt lat="44.24646" lon="6.34916">
        <ele>1227.2</ele>
        <time>2018-08-09T12:30:00Z</time>
      </trkpt>
      <trkpt lat="44.24646" lon="6.3492">
        <ele>1227.2</ele>
        <time>2018-08-09T12:30:01Z</time>
      </trkpt>
      <trkpt lat="44.24648" lon="6.34924">
        <ele>1227.2</ele>
        <time>2018-08-09T12:30:04Z</time>
      </trkpt>
      <trkpt lat="44.24649" lon="6.34929">
        <ele>1227.3</ele>
        <time>2018-08-09T12:30:06Z</time>
      </trkpt>
      <trkpt lat="44.2465" lon="6.34934">
        <ele>1227.3</ele>
        <time>2018-08-09T12:30:08Z</time>
      </trkpt>
      <trkpt lat="44.24651" lon="6.34938">
        <ele>1227.3</ele>
        <time>2018-08-09T12:30:10Z</time>
      </trkpt>
      <trkpt lat="44.24653" lon="6.34942">
        <ele>1227.3</ele>
        <time>2018-08-09T12:30:12Z</time>
      </trkpt>
      <trkpt lat="44.24655" lon="6.34947">
        <ele>1227.3</ele>
        <time>2018-08-09T12:30:15Z</time>
      </trkpt>
      <trkpt lat="44.24658" lon="6.34952">
        <ele>1227.3</ele>
        <time>2018-08-09T12:30:17Z</time>
      </trkpt>
      <trkpt lat="44.2466" lon="6.34956">
        <ele>1227.3</ele>
        <time>2018-08-09T12:30:19Z</time>
      </trkpt>
      <trkpt lat="44.24663" lon="6.34961">
        <ele>1227.3</ele>
        <time>2018-08-09T12:30:21Z</time>
      </trkpt>
      <trkpt lat="44.24666" lon="6.34965">
        <ele>1227.4</ele>
        <time>2018-08-09T12:30:23Z</time>
      </trkpt>
      <trkpt lat="44.24667" lon="6.34968">
        <ele>1227.4</ele>
        <time>2018-08-09T12:30:25Z</time>
      </trkpt>
      <trkpt lat="44.2467" lon="6.34973">
        <ele>1227.4</ele>
        <time>2018-08-09T12:30:27Z</time>
      </trkpt>
      <trkpt lat="44.24673" lon="6.34977">
        <ele>1227.4</ele>
        <time>2018-08-09T12:30:29Z</time>
      </trkpt>
      <trkpt lat="44.24676" lon="6.34983">
        <ele>1227.5</ele>
        <time>2018-08-09T12:30:31Z</time>
      </trkpt>
      <trkpt lat="44.24679" lon="6.34987">
        <ele>1227.6</ele>
        <time>2018-08-09T12:30:33Z</time>
      </trkpt>
      <trkpt lat="44.2468" lon="6.3499">
        <ele>1227.6</ele>
        <time>2018-08-09T12:30:34Z</time>
      </trkpt>
      <trkpt lat="44.24682" lon="6.34996">
        <ele>1227.8</ele>
        <time>2018-08-09T12:30:36Z</time>
      </trkpt>
      <trkpt lat="44.24684" lon="6.35001">
        <ele>1228</ele>
        <time>2018-08-09T12:30:38Z</time>
      </trkpt>
      <trkpt lat="44.24686" lon="6.35006">
        <ele>1228.2</ele>
        <time>2018-08-09T12:30:40Z</time>
      </trkpt>
      <trkpt lat="44.24688" lon="6.35012">
        <ele>1228.4</ele>
        <time>2018-08-09T12:30:42Z</time>
      </trkpt>
      <trkpt lat="44.24691" lon="6.35018">
        <ele>1228.6</ele>
        <time>2018-08-09T12:30:44Z</time>
      </trkpt>
      <trkpt lat="44.24695" lon="6.35023">
        <ele>1228.8</ele>
        <time>2018-08-09T12:30:46Z</time>
      </trkpt>
      <trkpt lat="44.24699" lon="6.35028">
        <ele>1228.8</ele>
        <time>2018-08-09T12:30:48Z</time>
      </trkpt>
      <trkpt lat="44.24704" lon="6.35031">
        <ele>1228.9</ele>
        <time>2018-08-09T12:30:50Z</time>
      </trkpt>
      <trkpt lat="44.24706" lon="6.35032">
        <ele>1228.9</ele>
        <time>2018-08-09T12:30:51Z</time>
      </trkpt>
      <trkpt lat="44.24708" lon="6.35035">
        <ele>1229</ele>
        <time>2018-08-09T12:30:52Z</time>
      </trkpt>
      <trkpt lat="44.24711" lon="6.35037">
        <ele>1229</ele>
        <time>2018-08-09T12:30:53Z</time>
      </trkpt>
      <trkpt lat="44.24714" lon="6.35039">
        <ele>1229</ele>
        <time>2018-08-09T12:30:54Z</time>
      </trkpt>
      <trkpt lat="44.24717" lon="6.35041">
        <ele>1229</ele>
        <time>2018-08-09T12:30:55Z</time>
      </trkpt>
      <trkpt lat="44.24719" lon="6.35043">
        <ele>1229.1</ele>
        <time>2018-08-09T12:30:56Z</time>
      </trkpt>
      <trkpt lat="44.24722" lon="6.35045">
        <ele>1229.1</ele>
        <time>2018-08-09T12:30:57Z</time>
      </trkpt>
      <trkpt lat="44.24725" lon="6.35047">
        <ele>1229.1</ele>
        <time>2018-08-09T12:30:58Z</time>
      </trkpt>
      <trkpt lat="44.24727" lon="6.3505">
        <ele>1229.1</ele>
        <time>2018-08-09T12:30:59Z</time>
      </trkpt>
      <trkpt lat="44.24732" lon="6.35053">
        <ele>1229.1</ele>
        <time>2018-08-09T12:31:01Z</time>
      </trkpt>
      <trkpt lat="44.24736" lon="6.35055">
        <ele>1229.1</ele>
        <time>2018-08-09T12:31:02Z</time>
      </trkpt>
      <trkpt lat="44.24738" lon="6.35058">
        <ele>1229.1</ele>
        <time>2018-08-09T12:31:03Z</time>
      </trkpt>
      <trkpt lat="44.2474" lon="6.3506">
        <ele>1229.2</ele>
        <time>2018-08-09T12:31:04Z</time>
      </trkpt>
      <trkpt lat="44.24743" lon="6.35062">
        <ele>1229.2</ele>
        <time>2018-08-09T12:31:05Z</time>
      </trkpt>
      <trkpt lat="44.24746" lon="6.35066">
        <ele>1229.2</ele>
        <time>2018-08-09T12:31:07Z</time>
      </trkpt>
      <trkpt lat="44.24748" lon="6.3507">
        <ele>1229.2</ele>
        <time>2018-08-09T12:31:08Z</time>
      </trkpt>
      <trkpt lat="44.24751" lon="6.35076">
        <ele>1229.3</ele>
        <time>2018-08-09T12:31:10Z</time>
      </trkpt>
      <trkpt lat="44.24753" lon="6.3508">
        <ele>1229.3</ele>
        <time>2018-08-09T12:31:11Z</time>
      </trkpt>
      <trkpt lat="44.24756" lon="6.35086">
        <ele>1229.3</ele>
        <time>2018-08-09T12:31:13Z</time>
      </trkpt>
      <trkpt lat="44.24758" lon="6.35088">
        <ele>1229.4</ele>
        <time>2018-08-09T12:31:14Z</time>
      </trkpt>
      <trkpt lat="44.24759" lon="6.35092">
        <ele>1229.4</ele>
        <time>2018-08-09T12:31:15Z</time>
      </trkpt>
      <trkpt lat="44.24761" lon="6.35096">
        <ele>1229.4</ele>
        <time>2018-08-09T12:31:16Z</time>
      </trkpt>
      <trkpt lat="44.24765" lon="6.35101">
        <ele>1229.5</ele>
        <time>2018-08-09T12:31:18Z</time>
      </trkpt>
      <trkpt lat="44.24767" lon="6.35104">
        <ele>1229.5</ele>
        <time>2018-08-09T12:31:19Z</time>
      </trkpt>
      <trkpt lat="44.24769" lon="6.35108">
        <ele>1229.6</ele>
        <time>2018-08-09T12:31:20Z</time>
      </trkpt>
      <trkpt lat="44.24773" lon="6.35113">
        <ele>1229.8</ele>
        <time>2018-08-09T12:31:22Z</time>
      </trkpt>
      <trkpt lat="44.24775" lon="6.35116">
        <ele>1229.9</ele>
        <time>2018-08-09T12:31:23Z</time>
      </trkpt>
      <trkpt lat="44.24778" lon="6.35119">
        <ele>1230</ele>
        <time>2018-08-09T12:31:24Z</time>
      </trkpt>
      <trkpt lat="44.24781" lon="6.35121">
        <ele>1230.2</ele>
        <time>2018-08-09T12:31:25Z</time>
      </trkpt>
      <trkpt lat="44.24784" lon="6.35123">
        <ele>1230.3</ele>
        <time>2018-08-09T12:31:26Z</time>
      </trkpt>
      <trkpt lat="44.24786" lon="6.35126">
        <ele>1230.5</ele>
        <time>2018-08-09T12:31:27Z</time>
      </trkpt>
      <trkpt lat="44.24789" lon="6.35127">
        <ele>1230.6</ele>
        <time>2018-08-09T12:31:28Z</time>
      </trkpt>
      <trkpt lat="44.24791" lon="6.3513">
        <ele>1230.8</ele>
        <time>2018-08-09T12:31:29Z</time>
      </trkpt>
      <trkpt lat="44.24795" lon="6.35132">
        <ele>1231</ele>
        <time>2018-08-09T12:31:31Z</time>
      </trkpt>
      <trkpt lat="44.24798" lon="6.35133">
        <ele>1231.1</ele>
        <time>2018-08-09T12:31:32Z</time>
      </trkpt>
      <trkpt lat="44.24801" lon="6.35133">
        <ele>1231.2</ele>
        <time>2018-08-09T12:31:33Z</time>
      </trkpt>
      <trkpt lat="44.24804" lon="6.35132">
        <ele>1231.3</ele>
        <time>2018-08-09T12:31:34Z</time>
      </trkpt>
      <trkpt lat="44.24809" lon="6.35132">
        <ele>1231.5</ele>
        <time>2018-08-09T12:31:36Z</time>
      </trkpt>
      <trkpt lat="44.24813" lon="6.35129">
        <ele>1231.8</ele>
        <time>2018-08-09T12:31:37Z</time>
      </trkpt>
      <trkpt lat="44.24816" lon="6.35129">
        <ele>1232</ele>
        <time>2018-08-09T12:31:38Z</time>
      </trkpt>
      <trkpt lat="44.24822" lon="6.35129">
        <ele>1232.8</ele>
        <time>2018-08-09T12:31:40Z</time>
      </trkpt>
      <trkpt lat="44.24825" lon="6.3513">
        <ele>1233.3</ele>
        <time>2018-08-09T12:31:41Z</time>
      </trkpt>
      <trkpt lat="44.24828" lon="6.35132">
        <ele>1233.8</ele>
        <time>2018-08-09T12:31:42Z</time>
      </trkpt>
      <trkpt lat="44.24831" lon="6.35137">
        <ele>1234.8</ele>
        <time>2018-08-09T12:31:44Z</time>
      </trkpt>
      <trkpt lat="44.24831" lon="6.35142">
        <ele>1235.5</ele>
        <time>2018-08-09T12:31:46Z</time>
      </trkpt>
      <trkpt lat="44.24832" lon="6.35147">
        <ele>1236.3</ele>
        <time>2018-08-09T12:31:48Z</time>
      </trkpt>
      <trkpt lat="44.24833" lon="6.35152">
        <ele>1237</ele>
        <time>2018-08-09T12:31:50Z</time>
      </trkpt>
      <trkpt lat="44.24835" lon="6.35156">
        <ele>1237.8</ele>
        <time>2018-08-09T12:31:53Z</time>
      </trkpt>
      <trkpt lat="44.24839" lon="6.3516">
        <ele>1238.6</ele>
        <time>2018-08-09T12:31:56Z</time>
      </trkpt>
      <trkpt lat="44.24841" lon="6.35163">
        <ele>1239.2</ele>
        <time>2018-08-09T12:31:58Z</time>
      </trkpt>
      <trkpt lat="44.24843" lon="6.35166">
        <ele>1239.7</ele>
        <time>2018-08-09T12:32:00Z</time>
      </trkpt>
      <trkpt lat="44.24846" lon="6.35167">
        <ele>1240.2</ele>
        <time>2018-08-09T12:32:02Z</time>
      </trkpt>
      <trkpt lat="44.24849" lon="6.35171">
        <ele>1240.8</ele>
        <time>2018-08-09T12:32:05Z</time>
      </trkpt>
      <trkpt lat="44.24851" lon="6.35173">
        <ele>1241.1</ele>
        <time>2018-08-09T12:32:08Z</time>
      </trkpt>
      <trkpt lat="44.24854" lon="6.35175">
        <ele>1241.6</ele>
        <time>2018-08-09T12:32:11Z</time>
      </trkpt>
      <trkpt lat="44.24858" lon="6.35176">
        <ele>1241.9</ele>
        <time>2018-08-09T12:32:14Z</time>
      </trkpt>
      <trkpt lat="44.24861" lon="6.35176">
        <ele>1242.3</ele>
        <time>2018-08-09T12:32:17Z</time>
      </trkpt>
      <trkpt lat="44.24866" lon="6.35178">
        <ele>1242.7</ele>
        <time>2018-08-09T12:32:21Z</time>
      </trkpt>
      <trkpt lat="44.24868" lon="6.3518">
        <ele>1243</ele>
        <time>2018-08-09T12:32:23Z</time>
      </trkpt>
      <trkpt lat="44.2487" lon="6.35182">
        <ele>1243.2</ele>
        <time>2018-08-09T12:32:25Z</time>
      </trkpt>
      <trkpt lat="44.24873" lon="6.35185">
        <ele>1243.5</ele>
        <time>2018-08-09T12:32:28Z</time>
      </trkpt>
      <trkpt lat="44.24875" lon="6.35186">
        <ele>1243.7</ele>
        <time>2018-08-09T12:32:30Z</time>
      </trkpt>
      <trkpt lat="44.24879" lon="6.35186">
        <ele>1244</ele>
        <time>2018-08-09T12:32:32Z</time>
      </trkpt>
      <trkpt lat="44.24882" lon="6.35185">
        <ele>1244.3</ele>
        <time>2018-08-09T12:32:35Z</time>
      </trkpt>
      <trkpt lat="44.24885" lon="6.35187">
        <ele>1244.5</ele>
        <time>2018-08-09T12:32:38Z</time>
      </trkpt>
      <trkpt lat="44.24889" lon="6.35189">
        <ele>1244.8</ele>
        <time>2018-08-09T12:32:41Z</time>
      </trkpt>
      <trkpt lat="44.24891" lon="6.3519">
        <ele>1245.1</ele>
        <time>2018-08-09T12:32:45Z</time>
      </trkpt>
      <trkpt lat="44.24894" lon="6.35189">
        <ele>1245.3</ele>
        <time>2018-08-09T12:32:47Z</time>
      </trkpt>
      <trkpt lat="44.24897" lon="6.35189">
        <ele>1245.5</ele>
        <time>2018-08-09T12:32:49Z</time>
      </trkpt>
      <trkpt lat="44.24901" lon="6.3519">
        <ele>1245.8</ele>
        <time>2018-08-09T12:32:52Z</time>
      </trkpt>
      <trkpt lat="44.24905" lon="6.35187">
        <ele>1246.1</ele>
        <time>2018-08-09T12:32:55Z</time>
      </trkpt>
      <trkpt lat="44.24908" lon="6.35188">
        <ele>1246.4</ele>
        <time>2018-08-09T12:32:58Z</time>
      </trkpt>
      <trkpt lat="44.2491" lon="6.35189">
        <ele>1246.6</ele>
        <time>2018-08-09T12:33:01Z</time>
      </trkpt>
      <trkpt lat="44.24915" lon="6.35187">
        <ele>1247</ele>
        <time>2018-08-09T12:33:03Z</time>
      </trkpt>
      <trkpt lat="44.24918" lon="6.35184">
        <ele>1247.3</ele>
        <time>2018-08-09T12:33:05Z</time>
      </trkpt>
      <trkpt lat="44.24922" lon="6.35181">
        <ele>1247.6</ele>
        <time>2018-08-09T12:33:07Z</time>
      </trkpt>
      <trkpt lat="44.24925" lon="6.35181">
        <ele>1247.8</ele>
        <time>2018-08-09T12:33:09Z</time>
      </trkpt>
      <trkpt lat="44.24928" lon="6.35177">
        <ele>1248.1</ele>
        <time>2018-08-09T12:33:12Z</time>
      </trkpt>
      <trkpt lat="44.2493" lon="6.35176">
        <ele>1248.3</ele>
        <time>2018-08-09T12:33:14Z</time>
      </trkpt>
      <trkpt lat="44.24932" lon="6.35173">
        <ele>1248.5</ele>
        <time>2018-08-09T12:33:16Z</time>
      </trkpt>
      <trkpt lat="44.24934" lon="6.35169">
        <ele>1248.7</ele>
        <time>2018-08-09T12:33:19Z</time>
      </trkpt>
      <trkpt lat="44.24937" lon="6.35165">
        <ele>1248.9</ele>
        <time>2018-08-09T12:33:21Z</time>
      </trkpt>
      <trkpt lat="44.24939" lon="6.35162">
        <ele>1249.1</ele>
        <time>2018-08-09T12:33:23Z</time>
      </trkpt>
      <trkpt lat="44.24942" lon="6.3516">
        <ele>1249.3</ele>
        <time>2018-08-09T12:33:25Z</time>
      </trkpt>
      <trkpt lat="44.24944" lon="6.35155">
        <ele>1249.5</ele>
        <time>2018-08-09T12:33:27Z</time>
      </trkpt>
      <trkpt lat="44.24946" lon="6.35151">
        <ele>1249.7</ele>
        <time>2018-08-09T12:33:29Z</time>
      </trkpt>
      <trkpt lat="44.24949" lon="6.35149">
        <ele>1249.9</ele>
        <time>2018-08-09T12:33:32Z</time>
      </trkpt>
      <trkpt lat="44.24953" lon="6.35148">
        <ele>1250.1</ele>
        <time>2018-08-09T12:33:35Z</time>
      </trkpt>
      <trkpt lat="44.24956" lon="6.35147">
        <ele>1250.3</ele>
        <time>2018-08-09T12:33:38Z</time>
      </trkpt>
      <trkpt lat="44.24959" lon="6.35151">
        <ele>1250.5</ele>
        <time>2018-08-09T12:33:41Z</time>
      </trkpt>
      <trkpt lat="44.24963" lon="6.35152">
        <ele>1250.7</ele>
        <time>2018-08-09T12:33:44Z</time>
      </trkpt>
      <trkpt lat="44.24967" lon="6.35154">
        <ele>1250.9</ele>
        <time>2018-08-09T12:34:06Z</time>
      </trkpt>
      <trkpt lat="44.2497" lon="6.35153">
        <ele>1251.1</ele>
        <time>2018-08-09T12:34:08Z</time>
      </trkpt>
      <trkpt lat="44.24973" lon="6.35152">
        <ele>1251.3</ele>
        <time>2018-08-09T12:34:10Z</time>
      </trkpt>
      <trkpt lat="44.24976" lon="6.3515">
        <ele>1251.5</ele>
        <time>2018-08-09T12:34:12Z</time>
      </trkpt>
      <trkpt lat="44.24979" lon="6.35147">
        <ele>1251.8</ele>
        <time>2018-08-09T12:34:14Z</time>
      </trkpt>
      <trkpt lat="44.24983" lon="6.35145">
        <ele>1252.2</ele>
        <time>2018-08-09T12:34:16Z</time>
      </trkpt>
      <trkpt lat="44.24986" lon="6.35145">
        <ele>1252.5</ele>
        <time>2018-08-09T12:34:18Z</time>
      </trkpt>
      <trkpt lat="44.24989" lon="6.35146">
        <ele>1252.9</ele>
        <time>2018-08-09T12:34:20Z</time>
      </trkpt>
      <trkpt lat="44.24993" lon="6.35149">
        <ele>1253.3</ele>
        <time>2018-08-09T12:34:22Z</time>
      </trkpt>
      <trkpt lat="44.24996" lon="6.35152">
        <ele>1253.8</ele>
        <time>2018-08-09T12:34:24Z</time>
      </trkpt>
      <trkpt lat="44.24999" lon="6.35154">
        <ele>1254.1</ele>
        <time>2018-08-09T12:34:26Z</time>
      </trkpt>
      <trkpt lat="44.25001" lon="6.35158">
        <ele>1254.5</ele>
        <time>2018-08-09T12:34:28Z</time>
      </trkpt>
      <trkpt lat="44.25002" lon="6.35162">
        <ele>1254.8</ele>
        <time>2018-08-09T12:34:30Z</time>
      </trkpt>
      <trkpt lat="44.25003" lon="6.35167">
        <ele>1255.2</ele>
        <time>2018-08-09T12:34:32Z</time>
      </trkpt>
      <trkpt lat="44.25004" lon="6.35171">
        <ele>1255.5</ele>
        <time>2018-08-09T12:34:34Z</time>
      </trkpt>
      <trkpt lat="44.25005" lon="6.35175">
        <ele>1255.9</ele>
        <time>2018-08-09T12:34:36Z</time>
      </trkpt>
      <trkpt lat="44.25004" lon="6.35179">
        <ele>1256.2</ele>
        <time>2018-08-09T12:34:38Z</time>
      </trkpt>
      <trkpt lat="44.25004" lon="6.35183">
        <ele>1256.5</ele>
        <time>2018-08-09T12:34:40Z</time>
      </trkpt>
      <trkpt lat="44.25004" lon="6.35187">
        <ele>1256.8</ele>
        <time>2018-08-09T12:34:42Z</time>
      </trkpt>
      <trkpt lat="44.25005" lon="6.35191">
        <ele>1257.1</ele>
        <time>2018-08-09T12:34:44Z</time>
      </trkpt>
      <trkpt lat="44.25007" lon="6.35196">
        <ele>1257.6</ele>
        <time>2018-08-09T12:34:46Z</time>
      </trkpt>
      <trkpt lat="44.25009" lon="6.35198">
        <ele>1257.9</ele>
        <time>2018-08-09T12:34:48Z</time>
      </trkpt>
      <trkpt lat="44.25011" lon="6.35201">
        <ele>1258.2</ele>
        <time>2018-08-09T12:34:50Z</time>
      </trkpt>
      <trkpt lat="44.25013" lon="6.35205">
        <ele>1258.7</ele>
        <time>2018-08-09T12:34:52Z</time>
      </trkpt>
      <trkpt lat="44.25015" lon="6.35208">
        <ele>1259</ele>
        <time>2018-08-09T12:34:54Z</time>
      </trkpt>
      <trkpt lat="44.25019" lon="6.3521">
        <ele>1259.4</ele>
        <time>2018-08-09T12:34:56Z</time>
      </trkpt>
      <trkpt lat="44.2502" lon="6.35214">
        <ele>1259.7</ele>
        <time>2018-08-09T12:34:58Z</time>
      </trkpt>
      <trkpt lat="44.25022" lon="6.35217">
        <ele>1260</ele>
        <time>2018-08-09T12:35:00Z</time>
      </trkpt>
      <trkpt lat="44.25024" lon="6.3522">
        <ele>1260.3</ele>
        <time>2018-08-09T12:35:02Z</time>
      </trkpt>
      <trkpt lat="44.25026" lon="6.35225">
        <ele>1260.7</ele>
        <time>2018-08-09T12:35:05Z</time>
      </trkpt>
      <trkpt lat="44.25028" lon="6.3523">
        <ele>1261</ele>
        <time>2018-08-09T12:35:08Z</time>
      </trkpt>
      <trkpt lat="44.2503" lon="6.35233">
        <ele>1261.3</ele>
        <time>2018-08-09T12:35:10Z</time>
      </trkpt>
      <trkpt lat="44.25032" lon="6.35237">
        <ele>1261.5</ele>
        <time>2018-08-09T12:35:12Z</time>
      </trkpt>
      <trkpt lat="44.25035" lon="6.35238">
        <ele>1261.8</ele>
        <time>2018-08-09T12:35:14Z</time>
      </trkpt>
      <trkpt lat="44.25038" lon="6.35238">
        <ele>1262.1</ele>
        <time>2018-08-09T12:35:16Z</time>
      </trkpt>
      <trkpt lat="44.25042" lon="6.35238">
        <ele>1262.4</ele>
        <time>2018-08-09T12:35:18Z</time>
      </trkpt>
      <trkpt lat="44.25044" lon="6.3524">
        <ele>1262.6</ele>
        <time>2018-08-09T12:35:20Z</time>
      </trkpt>
      <trkpt lat="44.25048" lon="6.35241">
        <ele>1262.9</ele>
        <time>2018-08-09T12:35:22Z</time>
      </trkpt>
      <trkpt lat="44.2505" lon="6.35243">
        <ele>1263.1</ele>
        <time>2018-08-09T12:35:24Z</time>
      </trkpt>
      <trkpt lat="44.25053" lon="6.35244">
        <ele>1263.4</ele>
        <time>2018-08-09T12:35:26Z</time>
      </trkpt>
      <trkpt lat="44.25056" lon="6.35246">
        <ele>1263.7</ele>
        <time>2018-08-09T12:35:37Z</time>
      </trkpt>
      <trkpt lat="44.2506" lon="6.35249">
        <ele>1264</ele>
        <time>2018-08-09T12:35:41Z</time>
      </trkpt>
      <trkpt lat="44.25063" lon="6.35249">
        <ele>1264.3</ele>
        <time>2018-08-09T12:35:43Z</time>
      </trkpt>
      <trkpt lat="44.25066" lon="6.35249">
        <ele>1264.6</ele>
        <time>2018-08-09T12:35:45Z</time>
      </trkpt>
      <trkpt lat="44.25069" lon="6.35248">
        <ele>1264.8</ele>
        <time>2018-08-09T12:35:47Z</time>
      </trkpt>
      <trkpt lat="44.25072" lon="6.35249">
        <ele>1265.1</ele>
        <time>2018-08-09T12:35:49Z</time>
      </trkpt>
      <trkpt lat="44.25075" lon="6.35249">
        <ele>1265.4</ele>
        <time>2018-08-09T12:35:51Z</time>
      </trkpt>
      <trkpt lat="44.25078" lon="6.35251">
        <ele>1265.7</ele>
        <time>2018-08-09T12:35:54Z</time>
      </trkpt>
      <trkpt lat="44.2508" lon="6.35254">
        <ele>1266</ele>
        <time>2018-08-09T12:35:56Z</time>
      </trkpt>
      <trkpt lat="44.25081" lon="6.35258">
        <ele>1266.3</ele>
        <time>2018-08-09T12:35:58Z</time>
      </trkpt>
      <trkpt lat="44.25084" lon="6.35261">
        <ele>1266.6</ele>
        <time>2018-08-09T12:36:00Z</time>
      </trkpt>
      <trkpt lat="44.25086" lon="6.35264">
        <ele>1266.9</ele>
        <time>2018-08-09T12:36:02Z</time>
      </trkpt>
      <trkpt lat="44.25089" lon="6.35266">
        <ele>1267.2</ele>
        <time>2018-08-09T12:36:04Z</time>
      </trkpt>
      <trkpt lat="44.25093" lon="6.35267">
        <ele>1267.6</ele>
        <time>2018-08-09T12:36:07Z</time>
      </trkpt>
      <trkpt lat="44.25096" lon="6.35268">
        <ele>1268</ele>
        <time>2018-08-09T12:36:10Z</time>
      </trkpt>
      <trkpt lat="44.251" lon="6.35271">
        <ele>1268.4</ele>
        <time>2018-08-09T12:36:13Z</time>
      </trkpt>
      <trkpt lat="44.25103" lon="6.3527">
        <ele>1268.7</ele>
        <time>2018-08-09T12:36:15Z</time>
      </trkpt>
      <trkpt lat="44.25107" lon="6.3527">
        <ele>1269.1</ele>
        <time>2018-08-09T12:36:18Z</time>
      </trkpt>
      <trkpt lat="44.2511" lon="6.3527">
        <ele>1269.3</ele>
        <time>2018-08-09T12:36:20Z</time>
      </trkpt>
      <trkpt lat="44.25114" lon="6.3527">
        <ele>1269.6</ele>
        <time>2018-08-09T12:36:22Z</time>
      </trkpt>
      <trkpt lat="44.25116" lon="6.3527">
        <ele>1269.9</ele>
        <time>2018-08-09T12:36:24Z</time>
      </trkpt>
      <trkpt lat="44.25121" lon="6.35271">
        <ele>1270.2</ele>
        <time>2018-08-09T12:36:27Z</time>
      </trkpt>
      <trkpt lat="44.25124" lon="6.35271">
        <ele>1270.5</ele>
        <time>2018-08-09T12:36:29Z</time>
      </trkpt>
      <trkpt lat="44.25128" lon="6.35273">
        <ele>1270.8</ele>
        <time>2018-08-09T12:36:32Z</time>
      </trkpt>
      <trkpt lat="44.25131" lon="6.35274">
        <ele>1271</ele>
        <time>2018-08-09T12:36:35Z</time>
      </trkpt>
      <trkpt lat="44.25135" lon="6.35273">
        <ele>1271.3</ele>
        <time>2018-08-09T12:36:37Z</time>
      </trkpt>
      <trkpt lat="44.25138" lon="6.35274">
        <ele>1271.5</ele>
        <time>2018-08-09T12:36:39Z</time>
      </trkpt>
      <trkpt lat="44.25141" lon="6.35274">
        <ele>1271.7</ele>
        <time>2018-08-09T12:36:41Z</time>
      </trkpt>
      <trkpt lat="44.25144" lon="6.35272">
        <ele>1271.8</ele>
        <time>2018-08-09T12:36:43Z</time>
      </trkpt>
      <trkpt lat="44.25146" lon="6.3527">
        <ele>1272</ele>
        <time>2018-08-09T12:36:44Z</time>
      </trkpt>
      <trkpt lat="44.25149" lon="6.3527">
        <ele>1272.1</ele>
        <time>2018-08-09T12:36:46Z</time>
      </trkpt>
      <trkpt lat="44.25151" lon="6.35268">
        <ele>1272.3</ele>
        <time>2018-08-09T12:36:48Z</time>
      </trkpt>
      <trkpt lat="44.25154" lon="6.35271">
        <ele>1272.4</ele>
        <time>2018-08-09T12:36:50Z</time>
      </trkpt>
      <trkpt lat="44.25157" lon="6.35271">
        <ele>1272.5</ele>
        <time>2018-08-09T12:36:52Z</time>
      </trkpt>
      <trkpt lat="44.2516" lon="6.35272">
        <ele>1272.6</ele>
        <time>2018-08-09T12:36:54Z</time>
      </trkpt>
      <trkpt lat="44.25163" lon="6.35272">
        <ele>1272.6</ele>
        <time>2018-08-09T12:36:56Z</time>
      </trkpt>
      <trkpt lat="44.25167" lon="6.3527">
        <ele>1272.7</ele>
        <time>2018-08-09T12:36:58Z</time>
      </trkpt>
      <trkpt lat="44.25171" lon="6.35269">
        <ele>1272.8</ele>
        <time>2018-08-09T12:37:00Z</time>
      </trkpt>
      <trkpt lat="44.25175" lon="6.3527">
        <ele>1272.8</ele>
        <time>2018-08-09T12:37:02Z</time>
      </trkpt>
      <trkpt lat="44.25178" lon="6.35271">
        <ele>1272.8</ele>
        <time>2018-08-09T12:37:04Z</time>
      </trkpt>
      <trkpt lat="44.25182" lon="6.35272">
        <ele>1272.9</ele>
        <time>2018-08-09T12:37:06Z</time>
      </trkpt>
      <trkpt lat="44.25187" lon="6.35273">
        <ele>1272.9</ele>
        <time>2018-08-09T12:37:08Z</time>
      </trkpt>
      <trkpt lat="44.25191" lon="6.35275">
        <ele>1273</ele>
        <time>2018-08-09T12:37:10Z</time>
      </trkpt>
      <trkpt lat="44.25193" lon="6.35276">
        <ele>1273</ele>
        <time>2018-08-09T12:37:12Z</time>
      </trkpt>
      <trkpt lat="44.25197" lon="6.35278">
        <ele>1273</ele>
        <time>2018-08-09T12:37:14Z</time>
      </trkpt>
      <trkpt lat="44.252" lon="6.35281">
        <ele>1273</ele>
        <time>2018-08-09T12:37:16Z</time>
      </trkpt>
      <trkpt lat="44.25203" lon="6.35284">
        <ele>1273</ele>
        <time>2018-08-09T12:37:18Z</time>
      </trkpt>
      <trkpt lat="44.25207" lon="6.35286">
        <ele>1273</ele>
        <time>2018-08-09T12:37:20Z</time>
      </trkpt>
      <trkpt lat="44.2521" lon="6.35288">
        <ele>1273</ele>
        <time>2018-08-09T12:37:22Z</time>
      </trkpt>
      <trkpt lat="44.25214" lon="6.3529">
        <ele>1273</ele>
        <time>2018-08-09T12:37:24Z</time>
      </trkpt>
      <trkpt lat="44.25217" lon="6.35292">
        <ele>1273</ele>
        <time>2018-08-09T12:37:26Z</time>
      </trkpt>
      <trkpt lat="44.2522" lon="6.35294">
        <ele>1273</ele>
        <time>2018-08-09T12:37:28Z</time>
      </trkpt>
      <trkpt lat="44.25223" lon="6.35296">
        <ele>1273</ele>
        <time>2018-08-09T12:37:30Z</time>
      </trkpt>
      <trkpt lat="44.2522" lon="6.35297">
        <ele>1272</ele>
        <time>2018-08-09T12:37:40Z</time>
      </trkpt>
      <trkpt lat="44.25223" lon="6.35298">
        <ele>1271.9</ele>
        <time>2018-08-09T12:38:17Z</time>
      </trkpt>
      <trkpt lat="44.25226" lon="6.35304">
        <ele>1271.6</ele>
        <time>2018-08-09T12:38:19Z</time>
      </trkpt>
      <trkpt lat="44.25229" lon="6.35306">
        <ele>1271.5</ele>
        <time>2018-08-09T12:38:20Z</time>
      </trkpt>
      <trkpt lat="44.25231" lon="6.35308">
        <ele>1271.2</ele>
        <time>2018-08-09T12:38:21Z</time>
      </trkpt>
      <trkpt lat="44.25234" lon="6.35309">
        <ele>1270.8</ele>
        <time>2018-08-09T12:38:22Z</time>
      </trkpt>
      <trkpt lat="44.25237" lon="6.3531">
        <ele>1270.5</ele>
        <time>2018-08-09T12:38:23Z</time>
      </trkpt>
      <trkpt lat="44.25242" lon="6.35312">
        <ele>1270.1</ele>
        <time>2018-08-09T12:38:25Z</time>
      </trkpt>
      <trkpt lat="44.25247" lon="6.35313">
        <ele>1269.7</ele>
        <time>2018-08-09T12:38:27Z</time>
      </trkpt>
      <trkpt lat="44.2525" lon="6.35314">
        <ele>1269.5</ele>
        <time>2018-08-09T12:38:28Z</time>
      </trkpt>
      <trkpt lat="44.25252" lon="6.35316">
        <ele>1268.9</ele>
        <time>2018-08-09T12:38:29Z</time>
      </trkpt>
      <trkpt lat="44.25257" lon="6.35319">
        <ele>1268.3</ele>
        <time>2018-08-09T12:38:31Z</time>
      </trkpt>
      <trkpt lat="44.2526" lon="6.35321">
        <ele>1268</ele>
        <time>2018-08-09T12:38:32Z</time>
      </trkpt>
      <trkpt lat="44.25263" lon="6.35323">
        <ele>1267.6</ele>
        <time>2018-08-09T12:38:33Z</time>
      </trkpt>
      <trkpt lat="44.25267" lon="6.35327">
        <ele>1266.8</ele>
        <time>2018-08-09T12:38:35Z</time>
      </trkpt>
      <trkpt lat="44.25271" lon="6.35329">
        <ele>1265.4</ele>
        <time>2018-08-09T12:38:37Z</time>
      </trkpt>
      <trkpt lat="44.25273" lon="6.3533">
        <ele>1264.9</ele>
        <time>2018-08-09T12:38:38Z</time>
      </trkpt>
      <trkpt lat="44.25278" lon="6.35331">
        <ele>1264.4</ele>
        <time>2018-08-09T12:38:39Z</time>
      </trkpt>
      <trkpt lat="44.25281" lon="6.35333">
        <ele>1263.3</ele>
        <time>2018-08-09T12:38:40Z</time>
      </trkpt>
      <trkpt lat="44.25284" lon="6.35335">
        <ele>1262.7</ele>
        <time>2018-08-09T12:38:41Z</time>
      </trkpt>
      <trkpt lat="44.25287" lon="6.35336">
        <ele>1261.4</ele>
        <time>2018-08-09T12:38:42Z</time>
      </trkpt>
      <trkpt lat="44.25292" lon="6.35337">
        <ele>1260.2</ele>
        <time>2018-08-09T12:38:44Z</time>
      </trkpt>
      <trkpt lat="44.25297" lon="6.35339">
        <ele>1259.7</ele>
        <time>2018-08-09T12:38:46Z</time>
      </trkpt>
      <trkpt lat="44.25302" lon="6.35341">
        <ele>1257.6</ele>
        <time>2018-08-09T12:38:48Z</time>
      </trkpt>
      <trkpt lat="44.25305" lon="6.35339">
        <ele>1257.7</ele>
        <time>2018-08-09T12:38:49Z</time>
      </trkpt>
      <trkpt lat="44.25309" lon="6.35339">
        <ele>1256.5</ele>
        <time>2018-08-09T12:38:50Z</time>
      </trkpt>
      <trkpt lat="44.25311" lon="6.3534">
        <ele>1255</ele>
        <time>2018-08-09T12:38:51Z</time>
      </trkpt>
      <trkpt lat="44.25316" lon="6.3534">
        <ele>1255.2</ele>
        <time>2018-08-09T12:38:53Z</time>
      </trkpt>
      <trkpt lat="44.25322" lon="6.35339">
        <ele>1254</ele>
        <time>2018-08-09T12:38:55Z</time>
      </trkpt>
      <trkpt lat="44.25325" lon="6.35339">
        <ele>1253.4</ele>
        <time>2018-08-09T12:38:56Z</time>
      </trkpt>
      <trkpt lat="44.25329" lon="6.35339">
        <ele>1252</ele>
        <time>2018-08-09T12:38:59Z</time>
      </trkpt>
      <trkpt lat="44.25334" lon="6.35335">
        <ele>1252.2</ele>
        <time>2018-08-09T12:39:02Z</time>
      </trkpt>
      <trkpt lat="44.2534" lon="6.35329">
        <ele>1251.8</ele>
        <time>2018-08-09T12:39:04Z</time>
      </trkpt>
      <trkpt lat="44.25342" lon="6.35324">
        <ele>1252.1</ele>
        <time>2018-08-09T12:39:05Z</time>
      </trkpt>
      <trkpt lat="44.25343" lon="6.35319">
        <ele>1253.9</ele>
        <time>2018-08-09T12:39:06Z</time>
      </trkpt>
      <trkpt lat="44.25344" lon="6.35314">
        <ele>1254.2</ele>
        <time>2018-08-09T12:39:07Z</time>
      </trkpt>
      <trkpt lat="44.25346" lon="6.35307">
        <ele>1255.1</ele>
        <time>2018-08-09T12:39:08Z</time>
      </trkpt>
      <trkpt lat="44.25347" lon="6.35301">
        <ele>1256.4</ele>
        <time>2018-08-09T12:39:09Z</time>
      </trkpt>
      <trkpt lat="44.25348" lon="6.35295">
        <ele>1257.3</ele>
        <time>2018-08-09T12:39:10Z</time>
      </trkpt>
      <trkpt lat="44.25349" lon="6.3529">
        <ele>1258.3</ele>
        <time>2018-08-09T12:39:11Z</time>
      </trkpt>
      <trkpt lat="44.25351" lon="6.35287">
        <ele>1258.6</ele>
        <time>2018-08-09T12:39:12Z</time>
      </trkpt>
      <trkpt lat="44.25354" lon="6.35284">
        <ele>1258.9</ele>
        <time>2018-08-09T12:39:14Z</time>
      </trkpt>
      <trkpt lat="44.25357" lon="6.35283">
        <ele>1258.4</ele>
        <time>2018-08-09T12:39:17Z</time>
      </trkpt>
      <trkpt lat="44.25361" lon="6.35285">
        <ele>1256.9</ele>
        <time>2018-08-09T12:39:19Z</time>
      </trkpt>
      <trkpt lat="44.25364" lon="6.3529">
        <ele>1255.3</ele>
        <time>2018-08-09T12:39:21Z</time>
      </trkpt>
      <trkpt lat="44.25368" lon="6.35294">
        <ele>1253.8</ele>
        <time>2018-08-09T12:39:23Z</time>
      </trkpt>
      <trkpt lat="44.25371" lon="6.35295">
        <ele>1253.2</ele>
        <time>2018-08-09T12:39:24Z</time>
      </trkpt>
      <trkpt lat="44.25374" lon="6.35296">
        <ele>1252.6</ele>
        <time>2018-08-09T12:39:25Z</time>
      </trkpt>
      <trkpt lat="44.25377" lon="6.35298">
        <ele>1251.1</ele>
        <time>2018-08-09T12:39:26Z</time>
      </trkpt>
      <trkpt lat="44.2538" lon="6.353">
        <ele>1250.6</ele>
        <time>2018-08-09T12:39:27Z</time>
      </trkpt>
      <trkpt lat="44.25383" lon="6.35303">
        <ele>1249.1</ele>
        <time>2018-08-09T12:39:28Z</time>
      </trkpt>
      <trkpt lat="44.25386" lon="6.35305">
        <ele>1248.5</ele>
        <time>2018-08-09T12:39:29Z</time>
      </trkpt>
      <trkpt lat="44.25389" lon="6.35306">
        <ele>1247</ele>
        <time>2018-08-09T12:39:30Z</time>
      </trkpt>
      <trkpt lat="44.25392" lon="6.35308">
        <ele>1246.4</ele>
        <time>2018-08-09T12:39:31Z</time>
      </trkpt>
      <trkpt lat="44.25394" lon="6.3531">
        <ele>1245.8</ele>
        <time>2018-08-09T12:39:32Z</time>
      </trkpt>
      <trkpt lat="44.25396" lon="6.35313">
        <ele>1244.4</ele>
        <time>2018-08-09T12:39:33Z</time>
      </trkpt>
      <trkpt lat="44.254" lon="6.35314">
        <ele>1243.9</ele>
        <time>2018-08-09T12:39:34Z</time>
      </trkpt>
      <trkpt lat="44.25402" lon="6.35318">
        <ele>1242.7</ele>
        <time>2018-08-09T12:39:35Z</time>
      </trkpt>
      <trkpt lat="44.25405" lon="6.35321">
        <ele>1242</ele>
        <time>2018-08-09T12:39:36Z</time>
      </trkpt>
      <trkpt lat="44.25408" lon="6.35324">
        <ele>1240.8</ele>
        <time>2018-08-09T12:39:37Z</time>
      </trkpt>
      <trkpt lat="44.25411" lon="6.35328">
        <ele>1239.5</ele>
        <time>2018-08-09T12:39:38Z</time>
      </trkpt>
      <trkpt lat="44.25415" lon="6.35331">
        <ele>1238.2</ele>
        <time>2018-08-09T12:39:39Z</time>
      </trkpt>
      <trkpt lat="44.25418" lon="6.35334">
        <ele>1236.7</ele>
        <time>2018-08-09T12:39:40Z</time>
      </trkpt>
      <trkpt lat="44.2542" lon="6.35337">
        <ele>1235.9</ele>
        <time>2018-08-09T12:39:41Z</time>
      </trkpt>
      <trkpt lat="44.25424" lon="6.35337">
        <ele>1234.7</ele>
        <time>2018-08-09T12:39:42Z</time>
      </trkpt>
      <trkpt lat="44.25428" lon="6.35338">
        <ele>1234.2</ele>
        <time>2018-08-09T12:39:43Z</time>
      </trkpt>
      <trkpt lat="44.25431" lon="6.35339">
        <ele>1233.7</ele>
        <time>2018-08-09T12:39:44Z</time>
      </trkpt>
      <trkpt lat="44.25434" lon="6.35341">
        <ele>1232.4</ele>
        <time>2018-08-09T12:39:45Z</time>
      </trkpt>
      <trkpt lat="44.25438" lon="6.35341">
        <ele>1231.8</ele>
        <time>2018-08-09T12:39:46Z</time>
      </trkpt>
      <trkpt lat="44.25442" lon="6.35342">
        <ele>1230.5</ele>
        <time>2018-08-09T12:39:47Z</time>
      </trkpt>
      <trkpt lat="44.25445" lon="6.35342">
        <ele>1229.8</ele>
        <time>2018-08-09T12:39:48Z</time>
      </trkpt>
      <trkpt lat="44.2545" lon="6.35343">
        <ele>1229.2</ele>
        <time>2018-08-09T12:39:49Z</time>
      </trkpt>
      <trkpt lat="44.25454" lon="6.35344">
        <ele>1228.6</ele>
        <time>2018-08-09T12:39:50Z</time>
      </trkpt>
      <trkpt lat="44.25458" lon="6.35344">
        <ele>1227.4</ele>
        <time>2018-08-09T12:39:51Z</time>
      </trkpt>
      <trkpt lat="44.2546" lon="6.35344">
        <ele>1227.5</ele>
        <time>2018-08-09T12:39:52Z</time>
      </trkpt>
      <trkpt lat="44.25465" lon="6.35342">
        <ele>1226.1</ele>
        <time>2018-08-09T12:39:54Z</time>
      </trkpt>
      <trkpt lat="44.25472" lon="6.35342">
        <ele>1224.7</ele>
        <time>2018-08-09T12:39:56Z</time>
      </trkpt>
      <trkpt lat="44.25477" lon="6.35341">
        <ele>1223.3</ele>
        <time>2018-08-09T12:39:58Z</time>
      </trkpt>
      <trkpt lat="44.25481" lon="6.35341">
        <ele>1222.7</ele>
        <time>2018-08-09T12:40:00Z</time>
      </trkpt>
      <trkpt lat="44.25486" lon="6.3534">
        <ele>1222</ele>
        <time>2018-08-09T12:40:01Z</time>
      </trkpt>
      <trkpt lat="44.2549" lon="6.3534">
        <ele>1221.5</ele>
        <time>2018-08-09T12:40:02Z</time>
      </trkpt>
      <trkpt lat="44.25493" lon="6.35339">
        <ele>1220.9</ele>
        <time>2018-08-09T12:40:04Z</time>
      </trkpt>
      <trkpt lat="44.25497" lon="6.3534">
        <ele>1220.3</ele>
        <time>2018-08-09T12:40:06Z</time>
      </trkpt>
      <trkpt lat="44.255" lon="6.35338">
        <ele>1219.7</ele>
        <time>2018-08-09T12:40:08Z</time>
      </trkpt>
      <trkpt lat="44.25503" lon="6.35337">
        <ele>1219.1</ele>
        <time>2018-08-09T12:40:09Z</time>
      </trkpt>
      <trkpt lat="44.25509" lon="6.35334">
        <ele>1218.3</ele>
        <time>2018-08-09T12:40:11Z</time>
      </trkpt>
      <trkpt lat="44.25512" lon="6.35332">
        <ele>1218.3</ele>
        <time>2018-08-09T12:40:13Z</time>
      </trkpt>
      <trkpt lat="44.25514" lon="6.3533">
        <ele>1217.7</ele>
        <time>2018-08-09T12:40:14Z</time>
      </trkpt>
      <trkpt lat="44.25518" lon="6.35328">
        <ele>1217.1</ele>
        <time>2018-08-09T12:40:15Z</time>
      </trkpt>
      <trkpt lat="44.25522" lon="6.35328">
        <ele>1216.5</ele>
        <time>2018-08-09T12:40:16Z</time>
      </trkpt>
      <trkpt lat="44.25525" lon="6.35323">
        <ele>1216.3</ele>
        <time>2018-08-09T12:40:17Z</time>
      </trkpt>
      <trkpt lat="44.25529" lon="6.35321">
        <ele>1215.2</ele>
        <time>2018-08-09T12:40:18Z</time>
      </trkpt>
      <trkpt lat="44.25533" lon="6.35319">
        <ele>1214.5</ele>
        <time>2018-08-09T12:40:19Z</time>
      </trkpt>
      <trkpt lat="44.25537" lon="6.35318">
        <ele>1214.3</ele>
        <time>2018-08-09T12:40:20Z</time>
      </trkpt>
      <trkpt lat="44.2554" lon="6.35316">
        <ele>1213.8</ele>
        <time>2018-08-09T12:40:21Z</time>
      </trkpt>
      <trkpt lat="44.25543" lon="6.35313">
        <ele>1213.7</ele>
        <time>2018-08-09T12:40:22Z</time>
      </trkpt>
      <trkpt lat="44.25547" lon="6.35313">
        <ele>1212.6</ele>
        <time>2018-08-09T12:40:23Z</time>
      </trkpt>
      <trkpt lat="44.2555" lon="6.35313">
        <ele>1212.7</ele>
        <time>2018-08-09T12:40:24Z</time>
      </trkpt>
      <trkpt lat="44.25552" lon="6.35311">
        <ele>1212.1</ele>
        <time>2018-08-09T12:40:25Z</time>
      </trkpt>
      <trkpt lat="44.25556" lon="6.35309">
        <ele>1211.9</ele>
        <time>2018-08-09T12:40:26Z</time>
      </trkpt>
      <trkpt lat="44.25559" lon="6.35307">
        <ele>1211.4</ele>
        <time>2018-08-09T12:40:27Z</time>
      </trkpt>
      <trkpt lat="44.25562" lon="6.35305">
        <ele>1211.3</ele>
        <time>2018-08-09T12:40:28Z</time>
      </trkpt>
      <trkpt lat="44.25567" lon="6.353">
        <ele>1210.8</ele>
        <time>2018-08-09T12:40:30Z</time>
      </trkpt>
      <trkpt lat="44.25569" lon="6.35298">
        <ele>1210.4</ele>
        <time>2018-08-09T12:40:31Z</time>
      </trkpt>
      <trkpt lat="44.25574" lon="6.35294">
        <ele>1210.5</ele>
        <time>2018-08-09T12:40:33Z</time>
      </trkpt>
      <trkpt lat="44.25578" lon="6.35293">
        <ele>1210.1</ele>
        <time>2018-08-09T12:40:35Z</time>
      </trkpt>
      <trkpt lat="44.25583" lon="6.3529">
        <ele>1209.7</ele>
        <time>2018-08-09T12:40:36Z</time>
      </trkpt>
      <trkpt lat="44.25586" lon="6.35288">
        <ele>1209.8</ele>
        <time>2018-08-09T12:40:37Z</time>
      </trkpt>
      <trkpt lat="44.25589" lon="6.35285">
        <ele>1209.3</ele>
        <time>2018-08-09T12:40:39Z</time>
      </trkpt>
      <trkpt lat="44.25593" lon="6.35285">
        <ele>1208.3</ele>
        <time>2018-08-09T12:40:51Z</time>
      </trkpt>
      <trkpt lat="44.25595" lon="6.35283">
        <ele>1209</ele>
        <time>2018-08-09T12:40:53Z</time>
      </trkpt>
      <trkpt lat="44.25599" lon="6.3528">
        <ele>1208.5</ele>
        <time>2018-08-09T12:40:55Z</time>
      </trkpt>
      <trkpt lat="44.25602" lon="6.35278">
        <ele>1208.6</ele>
        <time>2018-08-09T12:40:57Z</time>
      </trkpt>
      <trkpt lat="44.25605" lon="6.35276">
        <ele>1208.1</ele>
        <time>2018-08-09T12:40:58Z</time>
      </trkpt>
      <trkpt lat="44.2561" lon="6.35272">
        <ele>1207.5</ele>
        <time>2018-08-09T12:41:00Z</time>
      </trkpt>
      <trkpt lat="44.25615" lon="6.35271">
        <ele>1206.7</ele>
        <time>2018-08-09T12:41:02Z</time>
      </trkpt>
      <trkpt lat="44.25619" lon="6.35272">
        <ele>1205.5</ele>
        <time>2018-08-09T12:41:04Z</time>
      </trkpt>
      <trkpt lat="44.25622" lon="6.35273">
        <ele>1205</ele>
        <time>2018-08-09T12:41:05Z</time>
      </trkpt>
      <trkpt lat="44.25626" lon="6.35276">
        <ele>1203.9</ele>
        <time>2018-08-09T12:41:07Z</time>
      </trkpt>
      <trkpt lat="44.25629" lon="6.3528">
        <ele>1203.4</ele>
        <time>2018-08-09T12:41:09Z</time>
      </trkpt>
      <trkpt lat="44.25634" lon="6.35281">
        <ele>1201.6</ele>
        <time>2018-08-09T12:41:11Z</time>
      </trkpt>
      <trkpt lat="44.25639" lon="6.35281">
        <ele>1201</ele>
        <time>2018-08-09T12:41:13Z</time>
      </trkpt>
      <trkpt lat="44.25641" lon="6.35282">
        <ele>1200.4</ele>
        <time>2018-08-09T12:41:17Z</time>
      </trkpt>
      <trkpt lat="44.25645" lon="6.35284">
        <ele>1199.1</ele>
        <time>2018-08-09T12:41:19Z</time>
      </trkpt>
      <trkpt lat="44.25648" lon="6.35286">
        <ele>1198.6</ele>
        <time>2018-08-09T12:41:21Z</time>
      </trkpt>
      <trkpt lat="44.25651" lon="6.35286">
        <ele>1197.6</ele>
        <time>2018-08-09T12:41:23Z</time>
      </trkpt>
      <trkpt lat="44.25654" lon="6.35287">
        <ele>1197.1</ele>
        <time>2018-08-09T12:41:24Z</time>
      </trkpt>
      <trkpt lat="44.25655" lon="6.35292">
        <ele>1196.6</ele>
        <time>2018-08-09T12:41:28Z</time>
      </trkpt>
      <trkpt lat="44.25659" lon="6.35296">
        <ele>1195.5</ele>
        <time>2018-08-09T12:41:30Z</time>
      </trkpt>
      <trkpt lat="44.25664" lon="6.35299">
        <ele>1193.8</ele>
        <time>2018-08-09T12:41:32Z</time>
      </trkpt>
      <trkpt lat="44.25669" lon="6.35299">
        <ele>1193.1</ele>
        <time>2018-08-09T12:41:34Z</time>
      </trkpt>
      <trkpt lat="44.25674" lon="6.35298">
        <ele>1191.9</ele>
        <time>2018-08-09T12:41:36Z</time>
      </trkpt>
      <trkpt lat="44.25678" lon="6.35298">
        <ele>1191.4</ele>
        <time>2018-08-09T12:41:38Z</time>
      </trkpt>
      <trkpt lat="44.25683" lon="6.35297">
        <ele>1190.7</ele>
        <time>2018-08-09T12:41:40Z</time>
      </trkpt>
      <trkpt lat="44.25686" lon="6.35297">
        <ele>1190.1</ele>
        <time>2018-08-09T12:41:42Z</time>
      </trkpt>
      <trkpt lat="44.25689" lon="6.35299">
        <ele>1189</ele>
        <time>2018-08-09T12:41:45Z</time>
      </trkpt>
      <trkpt lat="44.25692" lon="6.35301">
        <ele>1188.5</ele>
        <time>2018-08-09T12:41:47Z</time>
      </trkpt>
      <trkpt lat="44.25695" lon="6.35302">
        <ele>1187.4</ele>
        <time>2018-08-09T12:41:49Z</time>
      </trkpt>
      <trkpt lat="44.25696" lon="6.35306">
        <ele>1187.5</ele>
        <time>2018-08-09T12:41:52Z</time>
      </trkpt>
      <trkpt lat="44.25694" lon="6.35308">
        <ele>1187.2</ele>
        <time>2018-08-09T12:41:54Z</time>
      </trkpt>
      <trkpt lat="44.25696" lon="6.35314">
        <ele>1187</ele>
        <time>2018-08-09T12:41:57Z</time>
      </trkpt>
      <trkpt lat="44.25698" lon="6.35317">
        <ele>1186.2</ele>
        <time>2018-08-09T12:42:00Z</time>
      </trkpt>
      <trkpt lat="44.25702" lon="6.3532">
        <ele>1185.6</ele>
        <time>2018-08-09T12:42:02Z</time>
      </trkpt>
      <trkpt lat="44.25705" lon="6.35323">
        <ele>1185.1</ele>
        <time>2018-08-09T12:42:04Z</time>
      </trkpt>
      <trkpt lat="44.25708" lon="6.35323">
        <ele>1184.6</ele>
        <time>2018-08-09T12:42:07Z</time>
      </trkpt>
      <trkpt lat="44.25712" lon="6.35323">
        <ele>1184.2</ele>
        <time>2018-08-09T12:42:13Z</time>
      </trkpt>
      <trkpt lat="44.25715" lon="6.35323">
        <ele>1183.7</ele>
        <time>2018-08-09T12:42:14Z</time>
      </trkpt>
      <trkpt lat="44.25718" lon="6.35324">
        <ele>1183.3</ele>
        <time>2018-08-09T12:42:16Z</time>
      </trkpt>
      <trkpt lat="44.25723" lon="6.35325">
        <ele>1182.3</ele>
        <time>2018-08-09T12:42:19Z</time>
      </trkpt>
      <trkpt lat="44.25726" lon="6.35326">
        <ele>1181.9</ele>
        <time>2018-08-09T12:42:23Z</time>
      </trkpt>
      <trkpt lat="44.25728" lon="6.35324">
        <ele>1181.4</ele>
        <time>2018-08-09T12:42:26Z</time>
      </trkpt>
      <trkpt lat="44.25733" lon="6.35322">
        <ele>1181</ele>
        <time>2018-08-09T12:42:28Z</time>
      </trkpt>
      <trkpt lat="44.25738" lon="6.35321">
        <ele>1180.3</ele>
        <time>2018-08-09T12:42:30Z</time>
      </trkpt>
      <trkpt lat="44.25741" lon="6.35321">
        <ele>1180</ele>
        <time>2018-08-09T12:42:32Z</time>
      </trkpt>
      <trkpt lat="44.25746" lon="6.3532">
        <ele>1179.7</ele>
        <time>2018-08-09T12:42:35Z</time>
      </trkpt>
      <trkpt lat="44.25749" lon="6.35318">
        <ele>1179.3</ele>
        <time>2018-08-09T12:42:37Z</time>
      </trkpt>
      <trkpt lat="44.25754" lon="6.35319">
        <ele>1178.7</ele>
        <time>2018-08-09T12:42:39Z</time>
      </trkpt>
      <trkpt lat="44.25758" lon="6.35317">
        <ele>1178.4</ele>
        <time>2018-08-09T12:42:41Z</time>
      </trkpt>
      <trkpt lat="44.25762" lon="6.35313">
        <ele>1178</ele>
        <time>2018-08-09T12:42:43Z</time>
      </trkpt>
      <trkpt lat="44.25767" lon="6.35313">
        <ele>1177.9</ele>
        <time>2018-08-09T12:42:46Z</time>
      </trkpt>
      <trkpt lat="44.25771" lon="6.35314">
        <ele>1177.7</ele>
        <time>2018-08-09T12:42:48Z</time>
      </trkpt>
      <trkpt lat="44.25776" lon="6.35316">
        <ele>1177.4</ele>
        <time>2018-08-09T12:42:51Z</time>
      </trkpt>
      <trkpt lat="44.25779" lon="6.35318">
        <ele>1177.2</ele>
        <time>2018-08-09T12:42:53Z</time>
      </trkpt>
      <trkpt lat="44.25783" lon="6.35318">
        <ele>1177.1</ele>
        <time>2018-08-09T12:42:55Z</time>
      </trkpt>
      <trkpt lat="44.25787" lon="6.35319">
        <ele>1176.9</ele>
        <time>2018-08-09T12:42:57Z</time>
      </trkpt>
      <trkpt lat="44.2579" lon="6.35319">
        <ele>1176.7</ele>
        <time>2018-08-09T12:42:58Z</time>
      </trkpt>
      <trkpt lat="44.25794" lon="6.3532">
        <ele>1176.6</ele>
        <time>2018-08-09T12:43:00Z</time>
      </trkpt>
      <trkpt lat="44.25796" lon="6.35319">
        <ele>1176.2</ele>
        <time>2018-08-09T12:43:08Z</time>
      </trkpt>
      <trkpt lat="44.25801" lon="6.35317">
        <ele>1175.4</ele>
        <time>2018-08-09T12:43:14Z</time>
      </trkpt>
      <trkpt lat="44.25806" lon="6.35316">
        <ele>1174.9</ele>
        <time>2018-08-09T12:43:16Z</time>
      </trkpt>
      <trkpt lat="44.2581" lon="6.35317">
        <ele>1174.7</ele>
        <time>2018-08-09T12:43:17Z</time>
      </trkpt>
      <trkpt lat="44.25813" lon="6.35318">
        <ele>1174.5</ele>
        <time>2018-08-09T12:43:18Z</time>
      </trkpt>
      <trkpt lat="44.25817" lon="6.35318">
        <ele>1174.3</ele>
        <time>2018-08-09T12:43:19Z</time>
      </trkpt>
      <trkpt lat="44.25821" lon="6.35316">
        <ele>1173.9</ele>
        <time>2018-08-09T12:43:21Z</time>
      </trkpt>
      <trkpt lat="44.25824" lon="6.35318">
        <ele>1173.4</ele>
        <time>2018-08-09T12:43:23Z</time>
      </trkpt>
      <trkpt lat="44.25829" lon="6.35319">
        <ele>1172.9</ele>
        <time>2018-08-09T12:43:31Z</time>
      </trkpt>
      <trkpt lat="44.25833" lon="6.35322">
        <ele>1172.4</ele>
        <time>2018-08-09T12:43:33Z</time>
      </trkpt>
      <trkpt lat="44.25837" lon="6.35323">
        <ele>1172.1</ele>
        <time>2018-08-09T12:43:36Z</time>
      </trkpt>
      <trkpt lat="44.2584" lon="6.35324">
        <ele>1171.8</ele>
        <time>2018-08-09T12:43:40Z</time>
      </trkpt>
      <trkpt lat="44.25843" lon="6.35325">
        <ele>1171.2</ele>
        <time>2018-08-09T12:43:42Z</time>
      </trkpt>
      <trkpt lat="44.25846" lon="6.35325">
        <ele>1170.8</ele>
        <time>2018-08-09T12:43:44Z</time>
      </trkpt>
      <trkpt lat="44.25849" lon="6.35325">
        <ele>1170.6</ele>
        <time>2018-08-09T12:43:46Z</time>
      </trkpt>
      <trkpt lat="44.25853" lon="6.35326">
        <ele>1170.3</ele>
        <time>2018-08-09T12:43:48Z</time>
      </trkpt>
      <trkpt lat="44.25856" lon="6.35326">
        <ele>1169.9</ele>
        <time>2018-08-09T12:43:50Z</time>
      </trkpt>
      <trkpt lat="44.25859" lon="6.35324">
        <ele>1169.5</ele>
        <time>2018-08-09T12:43:51Z</time>
      </trkpt>
      <trkpt lat="44.25862" lon="6.35325">
        <ele>1169</ele>
        <time>2018-08-09T12:43:53Z</time>
      </trkpt>
      <trkpt lat="44.25865" lon="6.35325">
        <ele>1168.5</ele>
        <time>2018-08-09T12:43:55Z</time>
      </trkpt>
      <trkpt lat="44.25868" lon="6.35327">
        <ele>1168.2</ele>
        <time>2018-08-09T12:43:58Z</time>
      </trkpt>
      <trkpt lat="44.25871" lon="6.35328">
        <ele>1168</ele>
        <time>2018-08-09T12:44:00Z</time>
      </trkpt>
      <trkpt lat="44.25874" lon="6.35329">
        <ele>1167.8</ele>
        <time>2018-08-09T12:44:02Z</time>
      </trkpt>
      <trkpt lat="44.25877" lon="6.35329">
        <ele>1167.5</ele>
        <time>2018-08-09T12:44:04Z</time>
      </trkpt>
      <trkpt lat="44.2588" lon="6.35327">
        <ele>1167.1</ele>
        <time>2018-08-09T12:44:05Z</time>
      </trkpt>
      <trkpt lat="44.25884" lon="6.35326">
        <ele>1166.5</ele>
        <time>2018-08-09T12:44:07Z</time>
      </trkpt>
      <trkpt lat="44.25888" lon="6.35325">
        <ele>1166.3</ele>
        <time>2018-08-09T12:44:08Z</time>
      </trkpt>
      <trkpt lat="44.25892" lon="6.35322">
        <ele>1166.1</ele>
        <time>2018-08-09T12:44:09Z</time>
      </trkpt>
      <trkpt lat="44.25896" lon="6.3532">
        <ele>1165.8</ele>
        <time>2018-08-09T12:44:10Z</time>
      </trkpt>
      <trkpt lat="44.25901" lon="6.35316">
        <ele>1165.5</ele>
        <time>2018-08-09T12:44:11Z</time>
      </trkpt>
      <trkpt lat="44.25905" lon="6.35313">
        <ele>1165</ele>
        <time>2018-08-09T12:44:12Z</time>
      </trkpt>
      <trkpt lat="44.2591" lon="6.3531">
        <ele>1164.2</ele>
        <time>2018-08-09T12:44:13Z</time>
      </trkpt>
      <trkpt lat="44.25915" lon="6.35306">
        <ele>1163.6</ele>
        <time>2018-08-09T12:44:14Z</time>
      </trkpt>
      <trkpt lat="44.2592" lon="6.35304">
        <ele>1163.2</ele>
        <time>2018-08-09T12:44:15Z</time>
      </trkpt>
      <trkpt lat="44.25924" lon="6.35303">
        <ele>1162.5</ele>
        <time>2018-08-09T12:44:16Z</time>
      </trkpt>
      <trkpt lat="44.25929" lon="6.353">
        <ele>1161.8</ele>
        <time>2018-08-09T12:44:17Z</time>
      </trkpt>
      <trkpt lat="44.25932" lon="6.35298">
        <ele>1161.6</ele>
        <time>2018-08-09T12:44:18Z</time>
      </trkpt>
      <trkpt lat="44.25937" lon="6.35294">
        <ele>1161.3</ele>
        <time>2018-08-09T12:44:19Z</time>
      </trkpt>
      <trkpt lat="44.25942" lon="6.3529">
        <ele>1160.7</ele>
        <time>2018-08-09T12:44:20Z</time>
      </trkpt>
      <trkpt lat="44.25945" lon="6.35285">
        <ele>1159.9</ele>
        <time>2018-08-09T12:44:21Z</time>
      </trkpt>
      <trkpt lat="44.25949" lon="6.35281">
        <ele>1159.5</ele>
        <time>2018-08-09T12:44:22Z</time>
      </trkpt>
      <trkpt lat="44.25952" lon="6.35277">
        <ele>1159.1</ele>
        <time>2018-08-09T12:44:23Z</time>
      </trkpt>
      <trkpt lat="44.25957" lon="6.35273">
        <ele>1158.2</ele>
        <time>2018-08-09T12:44:24Z</time>
      </trkpt>
      <trkpt lat="44.25962" lon="6.35268">
        <ele>1157.2</ele>
        <time>2018-08-09T12:44:25Z</time>
      </trkpt>
      <trkpt lat="44.25966" lon="6.35265">
        <ele>1156.8</ele>
        <time>2018-08-09T12:44:26Z</time>
      </trkpt>
      <trkpt lat="44.25972" lon="6.35261">
        <ele>1156.1</ele>
        <time>2018-08-09T12:44:27Z</time>
      </trkpt>
      <trkpt lat="44.25976" lon="6.35256">
        <ele>1155.4</ele>
        <time>2018-08-09T12:44:28Z</time>
      </trkpt>
      <trkpt lat="44.25979" lon="6.35252">
        <ele>1155.2</ele>
        <time>2018-08-09T12:44:29Z</time>
      </trkpt>
      <trkpt lat="44.25983" lon="6.3525">
        <ele>1154.8</ele>
        <time>2018-08-09T12:44:30Z</time>
      </trkpt>
      <trkpt lat="44.25986" lon="6.35249">
        <ele>1154.3</ele>
        <time>2018-08-09T12:44:31Z</time>
      </trkpt>
      <trkpt lat="44.2599" lon="6.35248">
        <ele>1153.7</ele>
        <time>2018-08-09T12:44:32Z</time>
      </trkpt>
      <trkpt lat="44.25994" lon="6.35248">
        <ele>1153.3</ele>
        <time>2018-08-09T12:44:33Z</time>
      </trkpt>
      <trkpt lat="44.25999" lon="6.35248">
        <ele>1153.1</ele>
        <time>2018-08-09T12:44:34Z</time>
      </trkpt>
      <trkpt lat="44.26006" lon="6.35247">
        <ele>1152.6</ele>
        <time>2018-08-09T12:44:35Z</time>
      </trkpt>
      <trkpt lat="44.26012" lon="6.35246">
        <ele>1151.8</ele>
        <time>2018-08-09T12:44:36Z</time>
      </trkpt>
      <trkpt lat="44.2602" lon="6.35245">
        <ele>1150.9</ele>
        <time>2018-08-09T12:44:37Z</time>
      </trkpt>
      <trkpt lat="44.26026" lon="6.35245">
        <ele>1150.5</ele>
        <time>2018-08-09T12:44:38Z</time>
      </trkpt>
      <trkpt lat="44.26032" lon="6.35243">
        <ele>1150.1</ele>
        <time>2018-08-09T12:44:39Z</time>
      </trkpt>
      <trkpt lat="44.26037" lon="6.35242">
        <ele>1149.5</ele>
        <time>2018-08-09T12:44:40Z</time>
      </trkpt>
      <trkpt lat="44.26042" lon="6.3524">
        <ele>1149</ele>
        <time>2018-08-09T12:44:41Z</time>
      </trkpt>
      <trkpt lat="44.26045" lon="6.35238">
        <ele>1148.8</ele>
        <time>2018-08-09T12:44:42Z</time>
      </trkpt>
      <trkpt lat="44.26049" lon="6.35236">
        <ele>1148.6</ele>
        <time>2018-08-09T12:44:43Z</time>
      </trkpt>
      <trkpt lat="44.26054" lon="6.35233">
        <ele>1148.4</ele>
        <time>2018-08-09T12:44:44Z</time>
      </trkpt>
      <trkpt lat="44.2606" lon="6.3523">
        <ele>1148.2</ele>
        <time>2018-08-09T12:44:45Z</time>
      </trkpt>
      <trkpt lat="44.26066" lon="6.35226">
        <ele>1148</ele>
        <time>2018-08-09T12:44:46Z</time>
      </trkpt>
      <trkpt lat="44.26071" lon="6.35224">
        <ele>1147.7</ele>
        <time>2018-08-09T12:44:47Z</time>
      </trkpt>
      <trkpt lat="44.26076" lon="6.35221">
        <ele>1147.3</ele>
        <time>2018-08-09T12:44:48Z</time>
      </trkpt>
      <trkpt lat="44.26082" lon="6.35216">
        <ele>1146.7</ele>
        <time>2018-08-09T12:44:49Z</time>
      </trkpt>
      <trkpt lat="44.26087" lon="6.35211">
        <ele>1146.4</ele>
        <time>2018-08-09T12:44:50Z</time>
      </trkpt>
      <trkpt lat="44.26091" lon="6.35206">
        <ele>1146.2</ele>
        <time>2018-08-09T12:44:51Z</time>
      </trkpt>
      <trkpt lat="44.26097" lon="6.35201">
        <ele>1145.9</ele>
        <time>2018-08-09T12:44:52Z</time>
      </trkpt>
      <trkpt lat="44.26102" lon="6.35196">
        <ele>1145.3</ele>
        <time>2018-08-09T12:44:53Z</time>
      </trkpt>
      <trkpt lat="44.26107" lon="6.35191">
        <ele>1144.8</ele>
        <time>2018-08-09T12:44:54Z</time>
      </trkpt>
      <trkpt lat="44.26111" lon="6.35187">
        <ele>1144.5</ele>
        <time>2018-08-09T12:44:55Z</time>
      </trkpt>
      <trkpt lat="44.26114" lon="6.35181">
        <ele>1144.3</ele>
        <time>2018-08-09T12:44:56Z</time>
      </trkpt>
      <trkpt lat="44.26117" lon="6.35176">
        <ele>1144.1</ele>
        <time>2018-08-09T12:44:57Z</time>
      </trkpt>
      <trkpt lat="44.26119" lon="6.35171">
        <ele>1144.2</ele>
        <time>2018-08-09T12:44:58Z</time>
      </trkpt>
      <trkpt lat="44.26121" lon="6.35166">
        <ele>1144.7</ele>
        <time>2018-08-09T12:44:59Z</time>
      </trkpt>
      <trkpt lat="44.26123" lon="6.35161">
        <ele>1145</ele>
        <time>2018-08-09T12:45:00Z</time>
      </trkpt>
      <trkpt lat="44.26127" lon="6.35155">
        <ele>1145.2</ele>
        <time>2018-08-09T12:45:01Z</time>
      </trkpt>
      <trkpt lat="44.2613" lon="6.35149">
        <ele>1145.5</ele>
        <time>2018-08-09T12:45:02Z</time>
      </trkpt>
      <trkpt lat="44.26133" lon="6.35142">
        <ele>1145.7</ele>
        <time>2018-08-09T12:45:03Z</time>
      </trkpt>
      <trkpt lat="44.26136" lon="6.35136">
        <ele>1145.9</ele>
        <time>2018-08-09T12:45:04Z</time>
      </trkpt>
      <trkpt lat="44.26137" lon="6.35129">
        <ele>1146</ele>
        <time>2018-08-09T12:45:05Z</time>
      </trkpt>
      <trkpt lat="44.26138" lon="6.35123">
        <ele>1146.2</ele>
        <time>2018-08-09T12:45:06Z</time>
      </trkpt>
      <trkpt lat="44.26141" lon="6.35117">
        <ele>1146.4</ele>
        <time>2018-08-09T12:45:07Z</time>
      </trkpt>
      <trkpt lat="44.26143" lon="6.35111">
        <ele>1146.5</ele>
        <time>2018-08-09T12:45:08Z</time>
      </trkpt>
      <trkpt lat="44.26145" lon="6.35104">
        <ele>1146.6</ele>
        <time>2018-08-09T12:45:09Z</time>
      </trkpt>
      <trkpt lat="44.26147" lon="6.35099">
        <ele>1146.7</ele>
        <time>2018-08-09T12:45:10Z</time>
      </trkpt>
      <trkpt lat="44.26147" lon="6.35093">
        <ele>1146.9</ele>
        <time>2018-08-09T12:45:11Z</time>
      </trkpt>
      <trkpt lat="44.26148" lon="6.35087">
        <ele>1147</ele>
        <time>2018-08-09T12:45:12Z</time>
      </trkpt>
      <trkpt lat="44.26149" lon="6.3508">
        <ele>1147.1</ele>
        <time>2018-08-09T12:45:13Z</time>
      </trkpt>
      <trkpt lat="44.26149" lon="6.35074">
        <ele>1147.2</ele>
        <time>2018-08-09T12:45:14Z</time>
      </trkpt>
      <trkpt lat="44.26148" lon="6.35069">
        <ele>1147.3</ele>
        <time>2018-08-09T12:45:15Z</time>
      </trkpt>
      <trkpt lat="44.26148" lon="6.35065">
        <ele>1147.4</ele>
        <time>2018-08-09T12:45:16Z</time>
      </trkpt>
      <trkpt lat="44.26147" lon="6.35059">
        <ele>1147.5</ele>
        <time>2018-08-09T12:45:17Z</time>
      </trkpt>
      <trkpt lat="44.26149" lon="6.35054">
        <ele>1147.6</ele>
        <time>2018-08-09T12:45:18Z</time>
      </trkpt>
      <trkpt lat="44.2615" lon="6.35049">
        <ele>1147.7</ele>
        <time>2018-08-09T12:45:19Z</time>
      </trkpt>
      <trkpt lat="44.2615" lon="6.35043">
        <ele>1147.8</ele>
        <time>2018-08-09T12:45:20Z</time>
      </trkpt>
      <trkpt lat="44.26149" lon="6.35039">
        <ele>1147.9</ele>
        <time>2018-08-09T12:45:21Z</time>
      </trkpt>
      <trkpt lat="44.26149" lon="6.35034">
        <ele>1147.9</ele>
        <time>2018-08-09T12:45:22Z</time>
      </trkpt>
      <trkpt lat="44.26149" lon="6.35029">
        <ele>1148</ele>
        <time>2018-08-09T12:45:23Z</time>
      </trkpt>
      <trkpt lat="44.26149" lon="6.35025">
        <ele>1148.1</ele>
        <time>2018-08-09T12:45:24Z</time>
      </trkpt>
      <trkpt lat="44.2615" lon="6.35019">
        <ele>1148.2</ele>
        <time>2018-08-09T12:45:25Z</time>
      </trkpt>
      <trkpt lat="44.2615" lon="6.35015">
        <ele>1148.3</ele>
        <time>2018-08-09T12:45:26Z</time>
      </trkpt>
      <trkpt lat="44.26152" lon="6.3501">
        <ele>1148.4</ele>
        <time>2018-08-09T12:45:27Z</time>
      </trkpt>
      <trkpt lat="44.26154" lon="6.35005">
        <ele>1148.6</ele>
        <time>2018-08-09T12:45:28Z</time>
      </trkpt>
      <trkpt lat="44.26156" lon="6.34999">
        <ele>1148.7</ele>
        <time>2018-08-09T12:45:29Z</time>
      </trkpt>
      <trkpt lat="44.26158" lon="6.34994">
        <ele>1148.8</ele>
        <time>2018-08-09T12:45:30Z</time>
      </trkpt>
      <trkpt lat="44.26161" lon="6.3499">
        <ele>1149</ele>
        <time>2018-08-09T12:45:31Z</time>
      </trkpt>
      <trkpt lat="44.26162" lon="6.34985">
        <ele>1149.1</ele>
        <time>2018-08-09T12:45:32Z</time>
      </trkpt>
      <trkpt lat="44.26166" lon="6.34979">
        <ele>1149.3</ele>
        <time>2018-08-09T12:45:33Z</time>
      </trkpt>
      <trkpt lat="44.26166" lon="6.34975">
        <ele>1149.4</ele>
        <time>2018-08-09T12:45:34Z</time>
      </trkpt>
      <trkpt lat="44.26165" lon="6.3497">
        <ele>1149.5</ele>
        <time>2018-08-09T12:45:36Z</time>
      </trkpt>
      <trkpt lat="44.26164" lon="6.34965">
        <ele>1149.6</ele>
        <time>2018-08-09T12:45:39Z</time>
      </trkpt>
      <trkpt lat="44.26161" lon="6.34961">
        <ele>1149.8</ele>
        <time>2018-08-09T12:45:41Z</time>
      </trkpt>
      <trkpt lat="44.26161" lon="6.34957">
        <ele>1149.9</ele>
        <time>2018-08-09T12:45:43Z</time>
      </trkpt>
      <trkpt lat="44.26158" lon="6.34952">
        <ele>1150.1</ele>
        <time>2018-08-09T12:45:45Z</time>
      </trkpt>
      <trkpt lat="44.26158" lon="6.34947">
        <ele>1150.2</ele>
        <time>2018-08-09T12:45:46Z</time>
      </trkpt>
      <trkpt lat="44.26157" lon="6.34943">
        <ele>1150.4</ele>
        <time>2018-08-09T12:45:47Z</time>
      </trkpt>
      <trkpt lat="44.26156" lon="6.34939">
        <ele>1150.6</ele>
        <time>2018-08-09T12:45:48Z</time>
      </trkpt>
      <trkpt lat="44.26156" lon="6.34935">
        <ele>1150.7</ele>
        <time>2018-08-09T12:45:49Z</time>
      </trkpt>
      <trkpt lat="44.26155" lon="6.34931">
        <ele>1150.9</ele>
        <time>2018-08-09T12:45:50Z</time>
      </trkpt>
      <trkpt lat="44.26155" lon="6.34927">
        <ele>1151</ele>
        <time>2018-08-09T12:45:51Z</time>
      </trkpt>
      <trkpt lat="44.26156" lon="6.34923">
        <ele>1151.2</ele>
        <time>2018-08-09T12:45:52Z</time>
      </trkpt>
      <trkpt lat="44.26154" lon="6.34915">
        <ele>1151.4</ele>
        <time>2018-08-09T12:45:54Z</time>
      </trkpt>
      <trkpt lat="44.26153" lon="6.34911">
        <ele>1151.6</ele>
        <time>2018-08-09T12:45:55Z</time>
      </trkpt>
      <trkpt lat="44.26154" lon="6.34907">
        <ele>1151.7</ele>
        <time>2018-08-09T12:45:56Z</time>
      </trkpt>
      <trkpt lat="44.26153" lon="6.34903">
        <ele>1151.8</ele>
        <time>2018-08-09T12:45:57Z</time>
      </trkpt>
      <trkpt lat="44.26154" lon="6.34894">
        <ele>1152</ele>
        <time>2018-08-09T12:45:59Z</time>
      </trkpt>
      <trkpt lat="44.26155" lon="6.34889">
        <ele>1152.2</ele>
        <time>2018-08-09T12:46:00Z</time>
      </trkpt>
      <trkpt lat="44.26155" lon="6.34884">
        <ele>1152.3</ele>
        <time>2018-08-09T12:46:01Z</time>
      </trkpt>
      <trkpt lat="44.26158" lon="6.34879">
        <ele>1152.4</ele>
        <time>2018-08-09T12:46:02Z</time>
      </trkpt>
      <trkpt lat="44.26159" lon="6.34875">
        <ele>1152.5</ele>
        <time>2018-08-09T12:46:03Z</time>
      </trkpt>
      <trkpt lat="44.2616" lon="6.3487">
        <ele>1152.7</ele>
        <time>2018-08-09T12:46:04Z</time>
      </trkpt>
      <trkpt lat="44.26162" lon="6.34866">
        <ele>1152.8</ele>
        <time>2018-08-09T12:46:05Z</time>
      </trkpt>
      <trkpt lat="44.26164" lon="6.34861">
        <ele>1153</ele>
        <time>2018-08-09T12:46:06Z</time>
      </trkpt>
      <trkpt lat="44.26168" lon="6.34857">
        <ele>1153.1</ele>
        <time>2018-08-09T12:46:07Z</time>
      </trkpt>
      <trkpt lat="44.26169" lon="6.34852">
        <ele>1153.3</ele>
        <time>2018-08-09T12:46:08Z</time>
      </trkpt>
      <trkpt lat="44.26171" lon="6.34846">
        <ele>1153.5</ele>
        <time>2018-08-09T12:46:09Z</time>
      </trkpt>
      <trkpt lat="44.26172" lon="6.34841">
        <ele>1153.8</ele>
        <time>2018-08-09T12:46:10Z</time>
      </trkpt>
      <trkpt lat="44.26174" lon="6.34836">
        <ele>1153.9</ele>
        <time>2018-08-09T12:46:11Z</time>
      </trkpt>
      <trkpt lat="44.26173" lon="6.3483">
        <ele>1154.1</ele>
        <time>2018-08-09T12:46:12Z</time>
      </trkpt>
      <trkpt lat="44.26174" lon="6.34824">
        <ele>1154.3</ele>
        <time>2018-08-09T12:46:13Z</time>
      </trkpt>
      <trkpt lat="44.26175" lon="6.34818">
        <ele>1154.5</ele>
        <time>2018-08-09T12:46:14Z</time>
      </trkpt>
      <trkpt lat="44.26175" lon="6.34813">
        <ele>1154.6</ele>
        <time>2018-08-09T12:46:15Z</time>
      </trkpt>
      <trkpt lat="44.26175" lon="6.34807">
        <ele>1154.8</ele>
        <time>2018-08-09T12:46:16Z</time>
      </trkpt>
      <trkpt lat="44.26174" lon="6.34802">
        <ele>1155.1</ele>
        <time>2018-08-09T12:46:17Z</time>
      </trkpt>
      <trkpt lat="44.26175" lon="6.34796">
        <ele>1155.5</ele>
        <time>2018-08-09T12:46:18Z</time>
      </trkpt>
      <trkpt lat="44.26176" lon="6.34791">
        <ele>1155.9</ele>
        <time>2018-08-09T12:46:19Z</time>
      </trkpt>
      <trkpt lat="44.26179" lon="6.34787">
        <ele>1156.3</ele>
        <time>2018-08-09T12:46:20Z</time>
      </trkpt>
      <trkpt lat="44.2618" lon="6.34782">
        <ele>1156.6</ele>
        <time>2018-08-09T12:46:21Z</time>
      </trkpt>
      <trkpt lat="44.26181" lon="6.34778">
        <ele>1156.9</ele>
        <time>2018-08-09T12:46:22Z</time>
      </trkpt>
      <trkpt lat="44.26185" lon="6.34774">
        <ele>1157.3</ele>
        <time>2018-08-09T12:46:23Z</time>
      </trkpt>
      <trkpt lat="44.26185" lon="6.34769">
        <ele>1157.5</ele>
        <time>2018-08-09T12:46:24Z</time>
      </trkpt>
      <trkpt lat="44.26187" lon="6.34764">
        <ele>1157.7</ele>
        <time>2018-08-09T12:46:25Z</time>
      </trkpt>
      <trkpt lat="44.26189" lon="6.3476">
        <ele>1157.8</ele>
        <time>2018-08-09T12:46:26Z</time>
      </trkpt>
      <trkpt lat="44.26191" lon="6.34756">
        <ele>1158</ele>
        <time>2018-08-09T12:46:27Z</time>
      </trkpt>
      <trkpt lat="44.26194" lon="6.34753">
        <ele>1158.1</ele>
        <time>2018-08-09T12:46:28Z</time>
      </trkpt>
      <trkpt lat="44.26196" lon="6.34749">
        <ele>1158.2</ele>
        <time>2018-08-09T12:46:29Z</time>
      </trkpt>
      <trkpt lat="44.26196" lon="6.34743">
        <ele>1158.4</ele>
        <time>2018-08-09T12:46:30Z</time>
      </trkpt>
      <trkpt lat="44.26199" lon="6.34739">
        <ele>1158.5</ele>
        <time>2018-08-09T12:46:31Z</time>
      </trkpt>
      <trkpt lat="44.26203" lon="6.34735">
        <ele>1158.6</ele>
        <time>2018-08-09T12:46:32Z</time>
      </trkpt>
      <trkpt lat="44.26206" lon="6.34731">
        <ele>1158.8</ele>
        <time>2018-08-09T12:46:33Z</time>
      </trkpt>
      <trkpt lat="44.26208" lon="6.34724">
        <ele>1158.9</ele>
        <time>2018-08-09T12:46:34Z</time>
      </trkpt>
      <trkpt lat="44.26211" lon="6.3472">
        <ele>1159.1</ele>
        <time>2018-08-09T12:46:35Z</time>
      </trkpt>
      <trkpt lat="44.2621" lon="6.34715">
        <ele>1159.2</ele>
        <time>2018-08-09T12:46:36Z</time>
      </trkpt>
      <trkpt lat="44.2621" lon="6.3471">
        <ele>1159.3</ele>
        <time>2018-08-09T12:46:37Z</time>
      </trkpt>
      <trkpt lat="44.2621" lon="6.34705">
        <ele>1159.4</ele>
        <time>2018-08-09T12:46:38Z</time>
      </trkpt>
      <trkpt lat="44.26211" lon="6.34701">
        <ele>1159.5</ele>
        <time>2018-08-09T12:46:39Z</time>
      </trkpt>
      <trkpt lat="44.26212" lon="6.34695">
        <ele>1159.6</ele>
        <time>2018-08-09T12:46:40Z</time>
      </trkpt>
      <trkpt lat="44.26213" lon="6.3469">
        <ele>1159.8</ele>
        <time>2018-08-09T12:46:41Z</time>
      </trkpt>
      <trkpt lat="44.26214" lon="6.34683">
        <ele>1159.9</ele>
        <time>2018-08-09T12:46:42Z</time>
      </trkpt>
      <trkpt lat="44.26217" lon="6.34677">
        <ele>1159.9</ele>
        <time>2018-08-09T12:46:43Z</time>
      </trkpt>
      <trkpt lat="44.26219" lon="6.34671">
        <ele>1159.4</ele>
        <time>2018-08-09T12:46:44Z</time>
      </trkpt>
      <trkpt lat="44.2622" lon="6.34666">
        <ele>1159</ele>
        <time>2018-08-09T12:46:45Z</time>
      </trkpt>
      <trkpt lat="44.2622" lon="6.34662">
        <ele>1158.7</ele>
        <time>2018-08-09T12:46:46Z</time>
      </trkpt>
      <trkpt lat="44.26221" lon="6.34657">
        <ele>1158.3</ele>
        <time>2018-08-09T12:46:47Z</time>
      </trkpt>
      <trkpt lat="44.26222" lon="6.34652">
        <ele>1158</ele>
        <time>2018-08-09T12:46:48Z</time>
      </trkpt>
      <trkpt lat="44.26222" lon="6.34648">
        <ele>1157.7</ele>
        <time>2018-08-09T12:46:49Z</time>
      </trkpt>
      <trkpt lat="44.26223" lon="6.34642">
        <ele>1157.3</ele>
        <time>2018-08-09T12:46:50Z</time>
      </trkpt>
      <trkpt lat="44.26224" lon="6.34637">
        <ele>1156.9</ele>
        <time>2018-08-09T12:46:51Z</time>
      </trkpt>
      <trkpt lat="44.26225" lon="6.34632">
        <ele>1156.5</ele>
        <time>2018-08-09T12:46:52Z</time>
      </trkpt>
      <trkpt lat="44.26228" lon="6.34626">
        <ele>1156</ele>
        <time>2018-08-09T12:46:53Z</time>
      </trkpt>
      <trkpt lat="44.2623" lon="6.34621">
        <ele>1155.6</ele>
        <time>2018-08-09T12:46:54Z</time>
      </trkpt>
      <trkpt lat="44.2623" lon="6.34617">
        <ele>1155.2</ele>
        <time>2018-08-09T12:46:55Z</time>
      </trkpt>
      <trkpt lat="44.26233" lon="6.34611">
        <ele>1154.4</ele>
        <time>2018-08-09T12:46:56Z</time>
      </trkpt>
      <trkpt lat="44.26235" lon="6.34604">
        <ele>1153.4</ele>
        <time>2018-08-09T12:46:57Z</time>
      </trkpt>
      <trkpt lat="44.26236" lon="6.34597">
        <ele>1151.7</ele>
        <time>2018-08-09T12:46:58Z</time>
      </trkpt>
      <trkpt lat="44.26237" lon="6.34591">
        <ele>1150.2</ele>
        <time>2018-08-09T12:46:59Z</time>
      </trkpt>
      <trkpt lat="44.26237" lon="6.34585">
        <ele>1148.9</ele>
        <time>2018-08-09T12:47:00Z</time>
      </trkpt>
      <trkpt lat="44.26238" lon="6.34579">
        <ele>1148.2</ele>
        <time>2018-08-09T12:47:01Z</time>
      </trkpt>
      <trkpt lat="44.26238" lon="6.34572">
        <ele>1147.5</ele>
        <time>2018-08-09T12:47:02Z</time>
      </trkpt>
      <trkpt lat="44.26238" lon="6.34565">
        <ele>1146.7</ele>
        <time>2018-08-09T12:47:03Z</time>
      </trkpt>
      <trkpt lat="44.26238" lon="6.34557">
        <ele>1146</ele>
        <time>2018-08-09T12:47:04Z</time>
      </trkpt>
      <trkpt lat="44.26237" lon="6.34549">
        <ele>1145.2</ele>
        <time>2018-08-09T12:47:05Z</time>
      </trkpt>
      <trkpt lat="44.26237" lon="6.34543">
        <ele>1144.8</ele>
        <time>2018-08-09T12:47:06Z</time>
      </trkpt>
      <trkpt lat="44.26237" lon="6.34535">
        <ele>1144.3</ele>
        <time>2018-08-09T12:47:07Z</time>
      </trkpt>
      <trkpt lat="44.26235" lon="6.34529">
        <ele>1143.8</ele>
        <time>2018-08-09T12:47:08Z</time>
      </trkpt>
      <trkpt lat="44.26233" lon="6.34524">
        <ele>1143.4</ele>
        <time>2018-08-09T12:47:09Z</time>
      </trkpt>
      <trkpt lat="44.26233" lon="6.34517">
        <ele>1142.9</ele>
        <time>2018-08-09T12:47:10Z</time>
      </trkpt>
      <trkpt lat="44.26232" lon="6.34511">
        <ele>1142.4</ele>
        <time>2018-08-09T12:47:11Z</time>
      </trkpt>
      <trkpt lat="44.2623" lon="6.34506">
        <ele>1142</ele>
        <time>2018-08-09T12:47:12Z</time>
      </trkpt>
      <trkpt lat="44.26229" lon="6.345">
        <ele>1141.6</ele>
        <time>2018-08-09T12:47:13Z</time>
      </trkpt>
      <trkpt lat="44.2623" lon="6.34495">
        <ele>1141.2</ele>
        <time>2018-08-09T12:47:14Z</time>
      </trkpt>
      <trkpt lat="44.2623" lon="6.3449">
        <ele>1140.7</ele>
        <time>2018-08-09T12:47:15Z</time>
      </trkpt>
      <trkpt lat="44.26229" lon="6.34485">
        <ele>1140</ele>
        <time>2018-08-09T12:47:16Z</time>
      </trkpt>
      <trkpt lat="44.26229" lon="6.3448">
        <ele>1139.6</ele>
        <time>2018-08-09T12:47:17Z</time>
      </trkpt>
      <trkpt lat="44.26228" lon="6.34475">
        <ele>1139.3</ele>
        <time>2018-08-09T12:47:18Z</time>
      </trkpt>
      <trkpt lat="44.26228" lon="6.3447">
        <ele>1138.9</ele>
        <time>2018-08-09T12:47:19Z</time>
      </trkpt>
      <trkpt lat="44.26228" lon="6.34465">
        <ele>1138.4</ele>
        <time>2018-08-09T12:47:20Z</time>
      </trkpt>
      <trkpt lat="44.26228" lon="6.34459">
        <ele>1137.3</ele>
        <time>2018-08-09T12:47:21Z</time>
      </trkpt>
      <trkpt lat="44.26227" lon="6.34453">
        <ele>1136.8</ele>
        <time>2018-08-09T12:47:22Z</time>
      </trkpt>
      <trkpt lat="44.26226" lon="6.34448">
        <ele>1136.3</ele>
        <time>2018-08-09T12:47:23Z</time>
      </trkpt>
      <trkpt lat="44.26225" lon="6.34443">
        <ele>1135.9</ele>
        <time>2018-08-09T12:47:24Z</time>
      </trkpt>
      <trkpt lat="44.26224" lon="6.34437">
        <ele>1135.7</ele>
        <time>2018-08-09T12:47:25Z</time>
      </trkpt>
      <trkpt lat="44.26223" lon="6.34432">
        <ele>1135.4</ele>
        <time>2018-08-09T12:47:26Z</time>
      </trkpt>
      <trkpt lat="44.26221" lon="6.34428">
        <ele>1135.1</ele>
        <time>2018-08-09T12:47:27Z</time>
      </trkpt>
      <trkpt lat="44.2622" lon="6.34423">
        <ele>1134.8</ele>
        <time>2018-08-09T12:47:28Z</time>
      </trkpt>
      <trkpt lat="44.26219" lon="6.34417">
        <ele>1134.4</ele>
        <time>2018-08-09T12:47:29Z</time>
      </trkpt>
      <trkpt lat="44.26214" lon="6.34413">
        <ele>1133.7</ele>
        <time>2018-08-09T12:47:30Z</time>
      </trkpt>
      <trkpt lat="44.26211" lon="6.34408">
        <ele>1133.4</ele>
        <time>2018-08-09T12:47:31Z</time>
      </trkpt>
      <trkpt lat="44.26208" lon="6.34403">
        <ele>1133</ele>
        <time>2018-08-09T12:47:32Z</time>
      </trkpt>
      <trkpt lat="44.26207" lon="6.34397">
        <ele>1132.6</ele>
        <time>2018-08-09T12:47:33Z</time>
      </trkpt>
      <trkpt lat="44.26205" lon="6.34391">
        <ele>1132.2</ele>
        <time>2018-08-09T12:47:34Z</time>
      </trkpt>
      <trkpt lat="44.26204" lon="6.34386">
        <ele>1131.7</ele>
        <time>2018-08-09T12:47:35Z</time>
      </trkpt>
      <trkpt lat="44.26202" lon="6.3438">
        <ele>1131.3</ele>
        <time>2018-08-09T12:47:36Z</time>
      </trkpt>
      <trkpt lat="44.26201" lon="6.34374">
        <ele>1130.8</ele>
        <time>2018-08-09T12:47:37Z</time>
      </trkpt>
      <trkpt lat="44.26199" lon="6.34369">
        <ele>1130.5</ele>
        <time>2018-08-09T12:47:38Z</time>
      </trkpt>
      <trkpt lat="44.26198" lon="6.34364">
        <ele>1130.2</ele>
        <time>2018-08-09T12:47:39Z</time>
      </trkpt>
      <trkpt lat="44.26197" lon="6.34358">
        <ele>1130</ele>
        <time>2018-08-09T12:47:40Z</time>
      </trkpt>
      <trkpt lat="44.26198" lon="6.34353">
        <ele>1129.7</ele>
        <time>2018-08-09T12:47:41Z</time>
      </trkpt>
      <trkpt lat="44.26198" lon="6.34347">
        <ele>1129.5</ele>
        <time>2018-08-09T12:47:42Z</time>
      </trkpt>
      <trkpt lat="44.26198" lon="6.34342">
        <ele>1129.2</ele>
        <time>2018-08-09T12:47:43Z</time>
      </trkpt>
      <trkpt lat="44.26199" lon="6.34336">
        <ele>1128.8</ele>
        <time>2018-08-09T12:47:44Z</time>
      </trkpt>
      <trkpt lat="44.26198" lon="6.3433">
        <ele>1128.3</ele>
        <time>2018-08-09T12:47:45Z</time>
      </trkpt>
      <trkpt lat="44.26199" lon="6.34324">
        <ele>1127.9</ele>
        <time>2018-08-09T12:47:46Z</time>
      </trkpt>
      <trkpt lat="44.262" lon="6.34317">
        <ele>1127.4</ele>
        <time>2018-08-09T12:47:47Z</time>
      </trkpt>
      <trkpt lat="44.262" lon="6.34311">
        <ele>1127</ele>
        <time>2018-08-09T12:47:48Z</time>
      </trkpt>
      <trkpt lat="44.26198" lon="6.34306">
        <ele>1126.6</ele>
        <time>2018-08-09T12:47:49Z</time>
      </trkpt>
      <trkpt lat="44.26198" lon="6.343">
        <ele>1126.2</ele>
        <time>2018-08-09T12:47:50Z</time>
      </trkpt>
      <trkpt lat="44.26198" lon="6.34295">
        <ele>1125.8</ele>
        <time>2018-08-09T12:47:51Z</time>
      </trkpt>
      <trkpt lat="44.26198" lon="6.3429">
        <ele>1125.4</ele>
        <time>2018-08-09T12:47:52Z</time>
      </trkpt>
      <trkpt lat="44.26198" lon="6.34285">
        <ele>1125</ele>
        <time>2018-08-09T12:47:53Z</time>
      </trkpt>
      <trkpt lat="44.26199" lon="6.34281">
        <ele>1124.6</ele>
        <time>2018-08-09T12:47:54Z</time>
      </trkpt>
      <trkpt lat="44.26201" lon="6.34276">
        <ele>1124.1</ele>
        <time>2018-08-09T12:47:55Z</time>
      </trkpt>
      <trkpt lat="44.26203" lon="6.34272">
        <ele>1123.7</ele>
        <time>2018-08-09T12:47:56Z</time>
      </trkpt>
      <trkpt lat="44.26205" lon="6.34268">
        <ele>1123.3</ele>
        <time>2018-08-09T12:47:57Z</time>
      </trkpt>
      <trkpt lat="44.26208" lon="6.34265">
        <ele>1123</ele>
        <time>2018-08-09T12:47:58Z</time>
      </trkpt>
      <trkpt lat="44.26213" lon="6.34262">
        <ele>1123</ele>
        <time>2018-08-09T12:48:00Z</time>
      </trkpt>
      <trkpt lat="44.26218" lon="6.34259">
        <ele>1123</ele>
        <time>2018-08-09T12:48:01Z</time>
      </trkpt>
      <trkpt lat="44.26222" lon="6.34258">
        <ele>1123</ele>
        <time>2018-08-09T12:48:02Z</time>
      </trkpt>
      <trkpt lat="44.26227" lon="6.34257">
        <ele>1123</ele>
        <time>2018-08-09T12:48:04Z</time>
      </trkpt>
      <trkpt lat="44.26231" lon="6.34256">
        <ele>1123</ele>
        <time>2018-08-09T12:48:06Z</time>
      </trkpt>
      <trkpt lat="44.26235" lon="6.34257">
        <ele>1123</ele>
        <time>2018-08-09T12:48:08Z</time>
      </trkpt>
      <trkpt lat="44.26238" lon="6.34256">
        <ele>1123</ele>
        <time>2018-08-09T12:48:10Z</time>
      </trkpt>
      <trkpt lat="44.26241" lon="6.34254">
        <ele>1123</ele>
        <time>2018-08-09T12:48:12Z</time>
      </trkpt>
      <trkpt lat="44.26245" lon="6.34252">
        <ele>1123</ele>
        <time>2018-08-09T12:48:15Z</time>
      </trkpt>
      <trkpt lat="44.26247" lon="6.3425">
        <ele>1123</ele>
        <time>2018-08-09T12:48:26Z</time>
      </trkpt>
      <trkpt lat="44.26245" lon="6.34253">
        <ele>1123</ele>
        <time>2018-08-09T12:48:45Z</time>
      </trkpt>
      <trkpt lat="44.26247" lon="6.34249">
        <ele>1123</ele>
        <time>2018-08-09T12:48:53Z</time>
      </trkpt>
      <trkpt lat="44.26251" lon="6.3425">
        <ele>1123</ele>
        <time>2018-08-09T12:49:23Z</time>
      </trkpt>
      <trkpt lat="44.26254" lon="6.34248">
        <ele>1123</ele>
        <time>2018-08-09T12:49:55Z</time>
      </trkpt>
      <trkpt lat="44.26258" lon="6.34247">
        <ele>1123</ele>
        <time>2018-08-09T12:49:57Z</time>
      </trkpt>
      <trkpt lat="44.26261" lon="6.34246">
        <ele>1123.1</ele>
        <time>2018-08-09T12:49:58Z</time>
      </trkpt>
      <trkpt lat="44.26267" lon="6.34245">
        <ele>1123.1</ele>
        <time>2018-08-09T12:50:00Z</time>
      </trkpt>
      <trkpt lat="44.26269" lon="6.34244">
        <ele>1123.1</ele>
        <time>2018-08-09T12:50:01Z</time>
      </trkpt>
      <trkpt lat="44.26275" lon="6.34241">
        <ele>1123.4</ele>
        <time>2018-08-09T12:50:03Z</time>
      </trkpt>
      <trkpt lat="44.26281" lon="6.34239">
        <ele>1123.7</ele>
        <time>2018-08-09T12:50:05Z</time>
      </trkpt>
      <trkpt lat="44.26286" lon="6.34237">
        <ele>1123.9</ele>
        <time>2018-08-09T12:50:07Z</time>
      </trkpt>
      <trkpt lat="44.2629" lon="6.34236">
        <ele>1124</ele>
        <time>2018-08-09T12:50:09Z</time>
      </trkpt>
      <trkpt lat="44.26294" lon="6.34235">
        <ele>1124</ele>
        <time>2018-08-09T12:50:11Z</time>
      </trkpt>
      <trkpt lat="44.26298" lon="6.34233">
        <ele>1124</ele>
        <time>2018-08-09T12:50:13Z</time>
      </trkpt>
      <trkpt lat="44.263" lon="6.34228">
        <ele>1123.9</ele>
        <time>2018-08-09T12:50:15Z</time>
      </trkpt>
      <trkpt lat="44.26299" lon="6.3422">
        <ele>1123.7</ele>
        <time>2018-08-09T12:50:17Z</time>
      </trkpt>
      <trkpt lat="44.26299" lon="6.34216">
        <ele>1123.6</ele>
        <time>2018-08-09T12:50:18Z</time>
      </trkpt>
      <trkpt lat="44.26298" lon="6.34211">
        <ele>1123.5</ele>
        <time>2018-08-09T12:50:19Z</time>
      </trkpt>
      <trkpt lat="44.26298" lon="6.34207">
        <ele>1123.4</ele>
        <time>2018-08-09T12:50:20Z</time>
      </trkpt>
      <trkpt lat="44.26298" lon="6.34203">
        <ele>1123.3</ele>
        <time>2018-08-09T12:50:21Z</time>
      </trkpt>
      <trkpt lat="44.26299" lon="6.342">
        <ele>1123.2</ele>
        <time>2018-08-09T12:50:22Z</time>
      </trkpt>
      <trkpt lat="44.263" lon="6.34195">
        <ele>1123.1</ele>
        <time>2018-08-09T12:50:23Z</time>
      </trkpt>
      <trkpt lat="44.26301" lon="6.3419">
        <ele>1122.9</ele>
        <time>2018-08-09T12:50:24Z</time>
      </trkpt>
      <trkpt lat="44.26301" lon="6.34187">
        <ele>1122.8</ele>
        <time>2018-08-09T12:50:25Z</time>
      </trkpt>
      <trkpt lat="44.26302" lon="6.34183">
        <ele>1122.7</ele>
        <time>2018-08-09T12:50:26Z</time>
      </trkpt>
      <trkpt lat="44.26303" lon="6.34178">
        <ele>1122.5</ele>
        <time>2018-08-09T12:50:27Z</time>
      </trkpt>
      <trkpt lat="44.26305" lon="6.34174">
        <ele>1122.4</ele>
        <time>2018-08-09T12:50:28Z</time>
      </trkpt>
      <trkpt lat="44.26306" lon="6.34169">
        <ele>1122.2</ele>
        <time>2018-08-09T12:50:29Z</time>
      </trkpt>
      <trkpt lat="44.26308" lon="6.34165">
        <ele>1122.1</ele>
        <time>2018-08-09T12:50:30Z</time>
      </trkpt>
      <trkpt lat="44.26309" lon="6.34161">
        <ele>1122</ele>
        <time>2018-08-09T12:50:31Z</time>
      </trkpt>
      <trkpt lat="44.26311" lon="6.34156">
        <ele>1122</ele>
        <time>2018-08-09T12:50:32Z</time>
      </trkpt>
      <trkpt lat="44.26312" lon="6.34152">
        <ele>1122</ele>
        <time>2018-08-09T12:50:33Z</time>
      </trkpt>
      <trkpt lat="44.26314" lon="6.34149">
        <ele>1122</ele>
        <time>2018-08-09T12:50:34Z</time>
      </trkpt>
      <trkpt lat="44.26315" lon="6.34145">
        <ele>1122</ele>
        <time>2018-08-09T12:50:35Z</time>
      </trkpt>
      <trkpt lat="44.26318" lon="6.34142">
        <ele>1122</ele>
        <time>2018-08-09T12:50:36Z</time>
      </trkpt>
      <trkpt lat="44.26319" lon="6.34137">
        <ele>1122</ele>
        <time>2018-08-09T12:50:37Z</time>
      </trkpt>
      <trkpt lat="44.2632" lon="6.34133">
        <ele>1122</ele>
        <time>2018-08-09T12:50:38Z</time>
      </trkpt>
      <trkpt lat="44.2632" lon="6.34129">
        <ele>1122</ele>
        <time>2018-08-09T12:50:39Z</time>
      </trkpt>
      <trkpt lat="44.26322" lon="6.34125">
        <ele>1122</ele>
        <time>2018-08-09T12:50:40Z</time>
      </trkpt>
      <trkpt lat="44.26323" lon="6.34121">
        <ele>1122</ele>
        <time>2018-08-09T12:50:41Z</time>
      </trkpt>
      <trkpt lat="44.26325" lon="6.34115">
        <ele>1122</ele>
        <time>2018-08-09T12:50:43Z</time>
      </trkpt>
      <trkpt lat="44.26329" lon="6.34111">
        <ele>1122.3</ele>
        <time>2018-08-09T12:50:45Z</time>
      </trkpt>
      <trkpt lat="44.26332" lon="6.3411">
        <ele>1122.5</ele>
        <time>2018-08-09T12:50:46Z</time>
      </trkpt>
      <trkpt lat="44.26335" lon="6.3411">
        <ele>1122.7</ele>
        <time>2018-08-09T12:50:47Z</time>
      </trkpt>
      <trkpt lat="44.26337" lon="6.34112">
        <ele>1122.9</ele>
        <time>2018-08-09T12:50:48Z</time>
      </trkpt>
      <trkpt lat="44.2634" lon="6.34114">
        <ele>1123.1</ele>
        <time>2018-08-09T12:50:49Z</time>
      </trkpt>
      <trkpt lat="44.26343" lon="6.34116">
        <ele>1123.4</ele>
        <time>2018-08-09T12:50:50Z</time>
      </trkpt>
      <trkpt lat="44.26347" lon="6.34118">
        <ele>1123.6</ele>
        <time>2018-08-09T12:50:51Z</time>
      </trkpt>
      <trkpt lat="44.2635" lon="6.34119">
        <ele>1123.8</ele>
        <time>2018-08-09T12:50:52Z</time>
      </trkpt>
      <trkpt lat="44.26353" lon="6.3412">
        <ele>1124</ele>
        <time>2018-08-09T12:50:53Z</time>
      </trkpt>
      <trkpt lat="44.26356" lon="6.34122">
        <ele>1124.2</ele>
        <time>2018-08-09T12:50:54Z</time>
      </trkpt>
      <trkpt lat="44.26359" lon="6.34124">
        <ele>1124.4</ele>
        <time>2018-08-09T12:50:55Z</time>
      </trkpt>
      <trkpt lat="44.26364" lon="6.34126">
        <ele>1124.8</ele>
        <time>2018-08-09T12:50:57Z</time>
      </trkpt>
      <trkpt lat="44.26367" lon="6.34128">
        <ele>1125</ele>
        <time>2018-08-09T12:50:58Z</time>
      </trkpt>
      <trkpt lat="44.26371" lon="6.34128">
        <ele>1125.2</ele>
        <time>2018-08-09T12:50:59Z</time>
      </trkpt>
      <trkpt lat="44.26374" lon="6.34129">
        <ele>1125.4</ele>
        <time>2018-08-09T12:51:00Z</time>
      </trkpt>
      <trkpt lat="44.26378" lon="6.3413">
        <ele>1125.7</ele>
        <time>2018-08-09T12:51:01Z</time>
      </trkpt>
      <trkpt lat="44.26382" lon="6.3413">
        <ele>1126</ele>
        <time>2018-08-09T12:51:02Z</time>
      </trkpt>
      <trkpt lat="44.26386" lon="6.34132">
        <ele>1126.2</ele>
        <time>2018-08-09T12:51:03Z</time>
      </trkpt>
      <trkpt lat="44.26389" lon="6.34133">
        <ele>1126.5</ele>
        <time>2018-08-09T12:51:04Z</time>
      </trkpt>
      <trkpt lat="44.26393" lon="6.34133">
        <ele>1126.8</ele>
        <time>2018-08-09T12:51:05Z</time>
      </trkpt>
      <trkpt lat="44.26397" lon="6.34135">
        <ele>1127.2</ele>
        <time>2018-08-09T12:51:06Z</time>
      </trkpt>
      <trkpt lat="44.26401" lon="6.34136">
        <ele>1127.5</ele>
        <time>2018-08-09T12:51:07Z</time>
      </trkpt>
      <trkpt lat="44.26404" lon="6.34137">
        <ele>1127.9</ele>
        <time>2018-08-09T12:51:08Z</time>
      </trkpt>
      <trkpt lat="44.26407" lon="6.34138">
        <ele>1128.2</ele>
        <time>2018-08-09T12:51:09Z</time>
      </trkpt>
      <trkpt lat="44.2641" lon="6.3414">
        <ele>1128.5</ele>
        <time>2018-08-09T12:51:10Z</time>
      </trkpt>
      <trkpt lat="44.26413" lon="6.34141">
        <ele>1128.8</ele>
        <time>2018-08-09T12:51:11Z</time>
      </trkpt>
      <trkpt lat="44.26416" lon="6.34142">
        <ele>1129.2</ele>
        <time>2018-08-09T12:51:12Z</time>
      </trkpt>
      <trkpt lat="44.26419" lon="6.34144">
        <ele>1129.6</ele>
        <time>2018-08-09T12:51:13Z</time>
      </trkpt>
      <trkpt lat="44.26423" lon="6.34145">
        <ele>1129.9</ele>
        <time>2018-08-09T12:51:14Z</time>
      </trkpt>
      <trkpt lat="44.26426" lon="6.34146">
        <ele>1130.3</ele>
        <time>2018-08-09T12:51:15Z</time>
      </trkpt>
      <trkpt lat="44.2643" lon="6.34147">
        <ele>1130.7</ele>
        <time>2018-08-09T12:51:16Z</time>
      </trkpt>
      <trkpt lat="44.26433" lon="6.34149">
        <ele>1131</ele>
        <time>2018-08-09T12:51:17Z</time>
      </trkpt>
      <trkpt lat="44.26437" lon="6.3415">
        <ele>1131.3</ele>
        <time>2018-08-09T12:51:18Z</time>
      </trkpt>
      <trkpt lat="44.2644" lon="6.34152">
        <ele>1131.6</ele>
        <time>2018-08-09T12:51:19Z</time>
      </trkpt>
      <trkpt lat="44.26443" lon="6.34154">
        <ele>1131.9</ele>
        <time>2018-08-09T12:51:20Z</time>
      </trkpt>
      <trkpt lat="44.26446" lon="6.34155">
        <ele>1132.1</ele>
        <time>2018-08-09T12:51:21Z</time>
      </trkpt>
      <trkpt lat="44.26449" lon="6.34155">
        <ele>1132.3</ele>
        <time>2018-08-09T12:51:22Z</time>
      </trkpt>
      <trkpt lat="44.26453" lon="6.34156">
        <ele>1132.6</ele>
        <time>2018-08-09T12:51:23Z</time>
      </trkpt>
      <trkpt lat="44.26456" lon="6.34157">
        <ele>1132.8</ele>
        <time>2018-08-09T12:51:24Z</time>
      </trkpt>
      <trkpt lat="44.26461" lon="6.3416">
        <ele>1133.2</ele>
        <time>2018-08-09T12:51:26Z</time>
      </trkpt>
      <trkpt lat="44.26465" lon="6.34161">
        <ele>1133.5</ele>
        <time>2018-08-09T12:51:27Z</time>
      </trkpt>
      <trkpt lat="44.26468" lon="6.34162">
        <ele>1133.8</ele>
        <time>2018-08-09T12:51:28Z</time>
      </trkpt>
      <trkpt lat="44.26471" lon="6.34163">
        <ele>1134</ele>
        <time>2018-08-09T12:51:29Z</time>
      </trkpt>
      <trkpt lat="44.26474" lon="6.34163">
        <ele>1134.4</ele>
        <time>2018-08-09T12:51:30Z</time>
      </trkpt>
      <trkpt lat="44.26478" lon="6.34164">
        <ele>1134.7</ele>
        <time>2018-08-09T12:51:31Z</time>
      </trkpt>
      <trkpt lat="44.26481" lon="6.34166">
        <ele>1135.1</ele>
        <time>2018-08-09T12:51:32Z</time>
      </trkpt>
      <trkpt lat="44.26484" lon="6.34167">
        <ele>1135.5</ele>
        <time>2018-08-09T12:51:33Z</time>
      </trkpt>
      <trkpt lat="44.26487" lon="6.34167">
        <ele>1135.9</ele>
        <time>2018-08-09T12:51:34Z</time>
      </trkpt>
      <trkpt lat="44.26493" lon="6.34169">
        <ele>1136.8</ele>
        <time>2018-08-09T12:51:36Z</time>
      </trkpt>
      <trkpt lat="44.26496" lon="6.3417">
        <ele>1139.2</ele>
        <time>2018-08-09T12:51:37Z</time>
      </trkpt>
      <trkpt lat="44.26498" lon="6.34172">
        <ele>1143.1</ele>
        <time>2018-08-09T12:51:38Z</time>
      </trkpt>
      <trkpt lat="44.26501" lon="6.34175">
        <ele>1145</ele>
        <time>2018-08-09T12:51:39Z</time>
      </trkpt>
      <trkpt lat="44.26506" lon="6.34176">
        <ele>1145</ele>
        <time>2018-08-09T12:51:41Z</time>
      </trkpt>
      <trkpt lat="44.26508" lon="6.34175">
        <ele>1145</ele>
        <time>2018-08-09T12:51:42Z</time>
      </trkpt>
      <trkpt lat="44.26511" lon="6.34175">
        <ele>1145</ele>
        <time>2018-08-09T12:51:43Z</time>
      </trkpt>
      <trkpt lat="44.26514" lon="6.34174">
        <ele>1145</ele>
        <time>2018-08-09T12:51:44Z</time>
      </trkpt>
      <trkpt lat="44.26519" lon="6.34173">
        <ele>1145</ele>
        <time>2018-08-09T12:51:46Z</time>
      </trkpt>
      <trkpt lat="44.26522" lon="6.34173">
        <ele>1145</ele>
        <time>2018-08-09T12:51:47Z</time>
      </trkpt>
      <trkpt lat="44.26526" lon="6.34172">
        <ele>1145</ele>
        <time>2018-08-09T12:51:49Z</time>
      </trkpt>
      <trkpt lat="44.26529" lon="6.34172">
        <ele>1145</ele>
        <time>2018-08-09T12:51:51Z</time>
      </trkpt>
      <trkpt lat="44.26533" lon="6.34175">
        <ele>1145</ele>
        <time>2018-08-09T12:51:53Z</time>
      </trkpt>
      <trkpt lat="44.26535" lon="6.34181">
        <ele>1145</ele>
        <time>2018-08-09T12:51:55Z</time>
      </trkpt>
      <trkpt lat="44.26537" lon="6.34186">
        <ele>1145</ele>
        <time>2018-08-09T12:51:57Z</time>
      </trkpt>
      <trkpt lat="44.26537" lon="6.34192">
        <ele>1145</ele>
        <time>2018-08-09T12:51:59Z</time>
      </trkpt>
      <trkpt lat="44.26537" lon="6.34196">
        <ele>1145</ele>
        <time>2018-08-09T12:52:01Z</time>
      </trkpt>
      <trkpt lat="44.26536" lon="6.34192">
        <ele>1145</ele>
        <time>2018-08-09T12:53:28Z</time>
      </trkpt>
      <trkpt lat="44.26537" lon="6.34188">
        <ele>1145</ele>
        <time>2018-08-09T12:53:31Z</time>
      </trkpt>
      <trkpt lat="44.26538" lon="6.34184">
        <ele>1145</ele>
        <time>2018-08-09T12:53:37Z</time>
      </trkpt>
      <trkpt lat="44.2654" lon="6.34186">
        <ele>1145</ele>
        <time>2018-08-09T12:53:53Z</time>
      </trkpt>
      <trkpt lat="44.26538" lon="6.34189">
        <ele>1145</ele>
        <time>2018-08-09T12:54:35Z</time>
      </trkpt>
      <trkpt lat="44.26538" lon="6.34193">
        <ele>1145</ele>
        <time>2018-08-09T12:54:49Z</time>
      </trkpt>
      <trkpt lat="44.2654" lon="6.34196">
        <ele>1145</ele>
        <time>2018-08-09T12:54:52Z</time>
      </trkpt>
    </trkseg>
  </trk>
</gpx>